<?xml version="1.0" encoding="UTF-8" standalone="no" ?>
<gpx xmlns="http://www.topografix.com/GPX/1/1" xmlns:xsi="http://www.w3.org/2001/XMLSchema-instance" xsi:schemaLocation="http://www.topografix.com/GPX/1/1 http://www.topografix.com/GPX/1/1/gpx.xsd" version="1.1" creator="VisuGPX - https://www.visugpx.com">
  <metadata>
    <name>Baisse de Rogué CAF SLV 10 /02/2019</name>
    <desc><![CDATA[sortie ski de randonnée  du dimanche 10 février 2019  avec le CAF saint Laurent du Var]]></desc>
  </metadata>
  <trk>
    <name><![CDATA[20190212223831-G1ATu]]></name>
    <trkseg>
      <trkpt lat="44.12227" lon="7.27196">
        <ele>1623.4000244141</ele>
        <time>2019-02-10T07:08:08.000Z</time>
      </trkpt>
      <trkpt lat="44.12228" lon="7.27197">
        <ele>1623.4000244141</ele>
        <time>2019-02-10T07:08:09.000Z</time>
      </trkpt>
      <trkpt lat="44.12228" lon="7.27197">
        <ele>1623.4000244141</ele>
        <time>2019-02-10T07:08:10.000Z</time>
      </trkpt>
      <trkpt lat="44.12227" lon="7.27196">
        <ele>1623.4000244141</ele>
        <time>2019-02-10T07:08:11.000Z</time>
      </trkpt>
      <trkpt lat="44.1223" lon="7.27201">
        <ele>1623.4000244141</ele>
        <time>2019-02-10T07:08:13.000Z</time>
      </trkpt>
      <trkpt lat="44.12231" lon="7.27206">
        <ele>1623.4000244141</ele>
        <time>2019-02-10T07:08:15.000Z</time>
      </trkpt>
      <trkpt lat="44.12231" lon="7.27207">
        <ele>1623.4000244141</ele>
        <time>2019-02-10T07:08:16.000Z</time>
      </trkpt>
      <trkpt lat="44.12231" lon="7.27208">
        <ele>1623.4000244141</ele>
        <time>2019-02-10T07:08:17.000Z</time>
      </trkpt>
      <trkpt lat="44.12231" lon="7.2721">
        <ele>1623.4000244141</ele>
        <time>2019-02-10T07:08:21.000Z</time>
      </trkpt>
      <trkpt lat="44.12231" lon="7.2721">
        <ele>1623.5999755859</ele>
        <time>2019-02-10T07:08:22.000Z</time>
      </trkpt>
      <trkpt lat="44.1223" lon="7.2721">
        <ele>1623.5999755859</ele>
        <time>2019-02-10T07:08:24.000Z</time>
      </trkpt>
      <trkpt lat="44.1223" lon="7.2721">
        <ele>1623.4000244141</ele>
        <time>2019-02-10T07:08:26.000Z</time>
      </trkpt>
      <trkpt lat="44.12229" lon="7.2721">
        <ele>1623.4000244141</ele>
        <time>2019-02-10T07:08:29.000Z</time>
      </trkpt>
      <trkpt lat="44.12229" lon="7.2721">
        <ele>1623.4000244141</ele>
        <time>2019-02-10T07:08:31.000Z</time>
      </trkpt>
      <trkpt lat="44.12233" lon="7.27214">
        <ele>1623.4000244141</ele>
        <time>2019-02-10T07:08:33.000Z</time>
      </trkpt>
      <trkpt lat="44.12233" lon="7.27215">
        <ele>1623.4000244141</ele>
        <time>2019-02-10T07:08:36.000Z</time>
      </trkpt>
      <trkpt lat="44.12233" lon="7.27215">
        <ele>1623.4000244141</ele>
        <time>2019-02-10T07:08:37.000Z</time>
      </trkpt>
      <trkpt lat="44.12232" lon="7.27214">
        <ele>1623.4000244141</ele>
        <time>2019-02-10T07:08:40.000Z</time>
      </trkpt>
      <trkpt lat="44.12232" lon="7.27214">
        <ele>1623.4000244141</ele>
        <time>2019-02-10T07:08:42.000Z</time>
      </trkpt>
      <trkpt lat="44.12231" lon="7.27213">
        <ele>1623.4000244141</ele>
        <time>2019-02-10T07:08:44.000Z</time>
      </trkpt>
      <trkpt lat="44.12231" lon="7.27212">
        <ele>1623.4000244141</ele>
        <time>2019-02-10T07:08:45.000Z</time>
      </trkpt>
      <trkpt lat="44.12225" lon="7.27196">
        <ele>1623.4000244141</ele>
        <time>2019-02-10T07:08:51.000Z</time>
      </trkpt>
      <trkpt lat="44.12226" lon="7.27195">
        <ele>1623.1999511719</ele>
        <time>2019-02-10T07:08:53.000Z</time>
      </trkpt>
      <trkpt lat="44.12225" lon="7.27192">
        <ele>1623.1999511719</ele>
        <time>2019-02-10T07:08:55.000Z</time>
      </trkpt>
      <trkpt lat="44.12225" lon="7.27192">
        <ele>1623.4000244141</ele>
        <time>2019-02-10T07:08:56.000Z</time>
      </trkpt>
      <trkpt lat="44.12225" lon="7.27191">
        <ele>1623.4000244141</ele>
        <time>2019-02-10T07:08:57.000Z</time>
      </trkpt>
      <trkpt lat="44.12225" lon="7.27191">
        <ele>1623.4000244141</ele>
        <time>2019-02-10T07:08:58.000Z</time>
      </trkpt>
      <trkpt lat="44.12224" lon="7.27187">
        <ele>1623.5999755859</ele>
        <time>2019-02-10T07:09:04.000Z</time>
      </trkpt>
      <trkpt lat="44.12225" lon="7.27188">
        <ele>1623.5999755859</ele>
        <time>2019-02-10T07:09:06.000Z</time>
      </trkpt>
      <trkpt lat="44.12226" lon="7.27188">
        <ele>1623.5999755859</ele>
        <time>2019-02-10T07:09:09.000Z</time>
      </trkpt>
      <trkpt lat="44.12224" lon="7.27183">
        <ele>1623.5999755859</ele>
        <time>2019-02-10T07:09:14.000Z</time>
      </trkpt>
      <trkpt lat="44.12224" lon="7.27182">
        <ele>1623.5999755859</ele>
        <time>2019-02-10T07:09:16.000Z</time>
      </trkpt>
      <trkpt lat="44.12223" lon="7.27182">
        <ele>1623.5999755859</ele>
        <time>2019-02-10T07:09:18.000Z</time>
      </trkpt>
      <trkpt lat="44.12221" lon="7.2718">
        <ele>1623.5999755859</ele>
        <time>2019-02-10T07:09:24.000Z</time>
      </trkpt>
      <trkpt lat="44.1222" lon="7.2718">
        <ele>1623.5999755859</ele>
        <time>2019-02-10T07:09:27.000Z</time>
      </trkpt>
      <trkpt lat="44.12219" lon="7.2718">
        <ele>1623.5999755859</ele>
        <time>2019-02-10T07:09:28.000Z</time>
      </trkpt>
      <trkpt lat="44.12219" lon="7.2718">
        <ele>1623.5999755859</ele>
        <time>2019-02-10T07:09:29.000Z</time>
      </trkpt>
      <trkpt lat="44.12216" lon="7.27177">
        <ele>1623.5999755859</ele>
        <time>2019-02-10T07:09:35.000Z</time>
      </trkpt>
      <trkpt lat="44.12216" lon="7.27177">
        <ele>1623.5999755859</ele>
        <time>2019-02-10T07:09:37.000Z</time>
      </trkpt>
      <trkpt lat="44.12214" lon="7.27176">
        <ele>1623.5999755859</ele>
        <time>2019-02-10T07:09:40.000Z</time>
      </trkpt>
      <trkpt lat="44.12214" lon="7.27175">
        <ele>1623.5999755859</ele>
        <time>2019-02-10T07:09:41.000Z</time>
      </trkpt>
      <trkpt lat="44.12214" lon="7.27175">
        <ele>1623.5999755859</ele>
        <time>2019-02-10T07:09:43.000Z</time>
      </trkpt>
      <trkpt lat="44.12214" lon="7.27175">
        <ele>1623.5999755859</ele>
        <time>2019-02-10T07:09:44.000Z</time>
      </trkpt>
      <trkpt lat="44.12215" lon="7.27175">
        <ele>1623.5999755859</ele>
        <time>2019-02-10T07:09:46.000Z</time>
      </trkpt>
      <trkpt lat="44.12215" lon="7.27176">
        <ele>1623.5999755859</ele>
        <time>2019-02-10T07:09:48.000Z</time>
      </trkpt>
      <trkpt lat="44.12215" lon="7.27176">
        <ele>1623.5999755859</ele>
        <time>2019-02-10T07:09:49.000Z</time>
      </trkpt>
      <trkpt lat="44.12215" lon="7.27167">
        <ele>1623.5999755859</ele>
        <time>2019-02-10T07:09:50.000Z</time>
      </trkpt>
      <trkpt lat="44.12215" lon="7.27161">
        <ele>1623.5999755859</ele>
        <time>2019-02-10T07:09:53.000Z</time>
      </trkpt>
      <trkpt lat="44.12215" lon="7.27159">
        <ele>1623.5999755859</ele>
        <time>2019-02-10T07:09:59.000Z</time>
      </trkpt>
      <trkpt lat="44.12215" lon="7.2716">
        <ele>1623.5999755859</ele>
        <time>2019-02-10T07:10:00.000Z</time>
      </trkpt>
      <trkpt lat="44.12215" lon="7.2716">
        <ele>1623.5999755859</ele>
        <time>2019-02-10T07:10:04.000Z</time>
      </trkpt>
      <trkpt lat="44.12215" lon="7.2716">
        <ele>1623.5999755859</ele>
        <time>2019-02-10T07:10:05.000Z</time>
      </trkpt>
      <trkpt lat="44.12215" lon="7.27159">
        <ele>1623.5999755859</ele>
        <time>2019-02-10T07:10:07.000Z</time>
      </trkpt>
      <trkpt lat="44.12215" lon="7.27157">
        <ele>1623.5999755859</ele>
        <time>2019-02-10T07:10:10.000Z</time>
      </trkpt>
      <trkpt lat="44.12215" lon="7.27156">
        <ele>1623.5999755859</ele>
        <time>2019-02-10T07:10:11.000Z</time>
      </trkpt>
      <trkpt lat="44.12215" lon="7.27156">
        <ele>1623.5999755859</ele>
        <time>2019-02-10T07:10:13.000Z</time>
      </trkpt>
      <trkpt lat="44.12214" lon="7.27154">
        <ele>1623.5999755859</ele>
        <time>2019-02-10T07:10:18.000Z</time>
      </trkpt>
      <trkpt lat="44.12215" lon="7.27155">
        <ele>1623.5999755859</ele>
        <time>2019-02-10T07:10:21.000Z</time>
      </trkpt>
      <trkpt lat="44.12215" lon="7.27155">
        <ele>1623.5999755859</ele>
        <time>2019-02-10T07:10:22.000Z</time>
      </trkpt>
      <trkpt lat="44.12215" lon="7.27155">
        <ele>1623.5999755859</ele>
        <time>2019-02-10T07:10:25.000Z</time>
      </trkpt>
      <trkpt lat="44.12216" lon="7.27156">
        <ele>1623.5999755859</ele>
        <time>2019-02-10T07:10:27.000Z</time>
      </trkpt>
      <trkpt lat="44.12217" lon="7.27158">
        <ele>1623.8000488281</ele>
        <time>2019-02-10T07:10:32.000Z</time>
      </trkpt>
      <trkpt lat="44.12217" lon="7.27158">
        <ele>1623.8000488281</ele>
        <time>2019-02-10T07:10:34.000Z</time>
      </trkpt>
      <trkpt lat="44.12216" lon="7.27158">
        <ele>1624</ele>
        <time>2019-02-10T07:10:35.000Z</time>
      </trkpt>
      <trkpt lat="44.12216" lon="7.27157">
        <ele>1623.8000488281</ele>
        <time>2019-02-10T07:10:37.000Z</time>
      </trkpt>
      <trkpt lat="44.12216" lon="7.27156">
        <ele>1623.8000488281</ele>
        <time>2019-02-10T07:10:38.000Z</time>
      </trkpt>
      <trkpt lat="44.12216" lon="7.27156">
        <ele>1623.5999755859</ele>
        <time>2019-02-10T07:10:39.000Z</time>
      </trkpt>
      <trkpt lat="44.12215" lon="7.27155">
        <ele>1623.5999755859</ele>
        <time>2019-02-10T07:10:41.000Z</time>
      </trkpt>
      <trkpt lat="44.12215" lon="7.27154">
        <ele>1623.8000488281</ele>
        <time>2019-02-10T07:10:43.000Z</time>
      </trkpt>
      <trkpt lat="44.12215" lon="7.27154">
        <ele>1623.8000488281</ele>
        <time>2019-02-10T07:10:45.000Z</time>
      </trkpt>
      <trkpt lat="44.12215" lon="7.27153">
        <ele>1623.8000488281</ele>
        <time>2019-02-10T07:10:47.000Z</time>
      </trkpt>
      <trkpt lat="44.1222" lon="7.27146">
        <ele>1623.8000488281</ele>
        <time>2019-02-10T07:10:52.000Z</time>
      </trkpt>
      <trkpt lat="44.1222" lon="7.27145">
        <ele>1624</ele>
        <time>2019-02-10T07:10:54.000Z</time>
      </trkpt>
      <trkpt lat="44.12219" lon="7.27145">
        <ele>1624</ele>
        <time>2019-02-10T07:10:56.000Z</time>
      </trkpt>
      <trkpt lat="44.12217" lon="7.27146">
        <ele>1624.1999511719</ele>
        <time>2019-02-10T07:10:59.000Z</time>
      </trkpt>
      <trkpt lat="44.12217" lon="7.27147">
        <ele>1624.1999511719</ele>
        <time>2019-02-10T07:11:00.000Z</time>
      </trkpt>
      <trkpt lat="44.12216" lon="7.27147">
        <ele>1624.1999511719</ele>
        <time>2019-02-10T07:11:04.000Z</time>
      </trkpt>
      <trkpt lat="44.12217" lon="7.27147">
        <ele>1623.8000488281</ele>
        <time>2019-02-10T07:11:06.000Z</time>
      </trkpt>
      <trkpt lat="44.12218" lon="7.27147">
        <ele>1624</ele>
        <time>2019-02-10T07:11:07.000Z</time>
      </trkpt>
      <trkpt lat="44.12218" lon="7.27141">
        <ele>1623.8000488281</ele>
        <time>2019-02-10T07:11:10.000Z</time>
      </trkpt>
      <trkpt lat="44.12219" lon="7.27144">
        <ele>1624</ele>
        <time>2019-02-10T07:11:12.000Z</time>
      </trkpt>
      <trkpt lat="44.12218" lon="7.27144">
        <ele>1623.5999755859</ele>
        <time>2019-02-10T07:11:14.000Z</time>
      </trkpt>
      <trkpt lat="44.12218" lon="7.27144">
        <ele>1623.5999755859</ele>
        <time>2019-02-10T07:11:18.000Z</time>
      </trkpt>
      <trkpt lat="44.12219" lon="7.27145">
        <ele>1623.8000488281</ele>
        <time>2019-02-10T07:11:20.000Z</time>
      </trkpt>
      <trkpt lat="44.12219" lon="7.27146">
        <ele>1623.8000488281</ele>
        <time>2019-02-10T07:11:22.000Z</time>
      </trkpt>
      <trkpt lat="44.12221" lon="7.27148">
        <ele>1623.5999755859</ele>
        <time>2019-02-10T07:11:26.000Z</time>
      </trkpt>
      <trkpt lat="44.12223" lon="7.27152">
        <ele>1623.4000244141</ele>
        <time>2019-02-10T07:11:32.000Z</time>
      </trkpt>
      <trkpt lat="44.12223" lon="7.27152">
        <ele>1623.4000244141</ele>
        <time>2019-02-10T07:11:33.000Z</time>
      </trkpt>
      <trkpt lat="44.12225" lon="7.27154">
        <ele>1623.5999755859</ele>
        <time>2019-02-10T07:11:38.000Z</time>
      </trkpt>
      <trkpt lat="44.12225" lon="7.27156">
        <ele>1623.5999755859</ele>
        <time>2019-02-10T07:11:40.000Z</time>
      </trkpt>
      <trkpt lat="44.12225" lon="7.27156">
        <ele>1623.5999755859</ele>
        <time>2019-02-10T07:11:42.000Z</time>
      </trkpt>
      <trkpt lat="44.12225" lon="7.27157">
        <ele>1623.5999755859</ele>
        <time>2019-02-10T07:11:44.000Z</time>
      </trkpt>
      <trkpt lat="44.12225" lon="7.27158">
        <ele>1623.5999755859</ele>
        <time>2019-02-10T07:11:46.000Z</time>
      </trkpt>
      <trkpt lat="44.12225" lon="7.27158">
        <ele>1623.5999755859</ele>
        <time>2019-02-10T07:11:49.000Z</time>
      </trkpt>
      <trkpt lat="44.12224" lon="7.27158">
        <ele>1623.5999755859</ele>
        <time>2019-02-10T07:11:52.000Z</time>
      </trkpt>
      <trkpt lat="44.12224" lon="7.27158">
        <ele>1623.5999755859</ele>
        <time>2019-02-10T07:11:53.000Z</time>
      </trkpt>
      <trkpt lat="44.12224" lon="7.27158">
        <ele>1623.5999755859</ele>
        <time>2019-02-10T07:11:54.000Z</time>
      </trkpt>
      <trkpt lat="44.12223" lon="7.27157">
        <ele>1623.5999755859</ele>
        <time>2019-02-10T07:11:57.000Z</time>
      </trkpt>
      <trkpt lat="44.12223" lon="7.27157">
        <ele>1623.5999755859</ele>
        <time>2019-02-10T07:11:59.000Z</time>
      </trkpt>
      <trkpt lat="44.12225" lon="7.27155">
        <ele>1623.8000488281</ele>
        <time>2019-02-10T07:12:02.000Z</time>
      </trkpt>
      <trkpt lat="44.12227" lon="7.27152">
        <ele>1623.8000488281</ele>
        <time>2019-02-10T07:12:06.000Z</time>
      </trkpt>
      <trkpt lat="44.12228" lon="7.27151">
        <ele>1623.5999755859</ele>
        <time>2019-02-10T07:12:07.000Z</time>
      </trkpt>
      <trkpt lat="44.12229" lon="7.2715">
        <ele>1623.8000488281</ele>
        <time>2019-02-10T07:12:09.000Z</time>
      </trkpt>
      <trkpt lat="44.1223" lon="7.27149">
        <ele>1623.8000488281</ele>
        <time>2019-02-10T07:12:10.000Z</time>
      </trkpt>
      <trkpt lat="44.12231" lon="7.27148">
        <ele>1623.8000488281</ele>
        <time>2019-02-10T07:12:12.000Z</time>
      </trkpt>
      <trkpt lat="44.12232" lon="7.27145">
        <ele>1624.1999511719</ele>
        <time>2019-02-10T07:12:15.000Z</time>
      </trkpt>
      <trkpt lat="44.12236" lon="7.27141">
        <ele>1624.5999755859</ele>
        <time>2019-02-10T07:12:20.000Z</time>
      </trkpt>
      <trkpt lat="44.1224" lon="7.27138">
        <ele>1624.8000488281</ele>
        <time>2019-02-10T07:12:24.000Z</time>
      </trkpt>
      <trkpt lat="44.1224" lon="7.27137">
        <ele>1624.8000488281</ele>
        <time>2019-02-10T07:12:25.000Z</time>
      </trkpt>
      <trkpt lat="44.12242" lon="7.27135">
        <ele>1625</ele>
        <time>2019-02-10T07:12:27.000Z</time>
      </trkpt>
      <trkpt lat="44.12245" lon="7.27132">
        <ele>1625.1999511719</ele>
        <time>2019-02-10T07:12:31.000Z</time>
      </trkpt>
      <trkpt lat="44.12252" lon="7.27129">
        <ele>1625.8000488281</ele>
        <time>2019-02-10T07:12:38.000Z</time>
      </trkpt>
      <trkpt lat="44.12254" lon="7.27127">
        <ele>1626</ele>
        <time>2019-02-10T07:12:40.000Z</time>
      </trkpt>
      <trkpt lat="44.12254" lon="7.27125">
        <ele>1626</ele>
        <time>2019-02-10T07:12:41.000Z</time>
      </trkpt>
      <trkpt lat="44.12259" lon="7.27121">
        <ele>1626.5999755859</ele>
        <time>2019-02-10T07:12:48.000Z</time>
      </trkpt>
      <trkpt lat="44.12263" lon="7.27121">
        <ele>1626.8000488281</ele>
        <time>2019-02-10T07:12:51.000Z</time>
      </trkpt>
      <trkpt lat="44.12264" lon="7.27119">
        <ele>1626.8000488281</ele>
        <time>2019-02-10T07:12:53.000Z</time>
      </trkpt>
      <trkpt lat="44.12264" lon="7.27116">
        <ele>1627</ele>
        <time>2019-02-10T07:12:55.000Z</time>
      </trkpt>
      <trkpt lat="44.12267" lon="7.27101">
        <ele>1628.1999511719</ele>
        <time>2019-02-10T07:13:09.000Z</time>
      </trkpt>
      <trkpt lat="44.12266" lon="7.27092">
        <ele>1628.5999755859</ele>
        <time>2019-02-10T07:13:16.000Z</time>
      </trkpt>
      <trkpt lat="44.12269" lon="7.27083">
        <ele>1629.1999511719</ele>
        <time>2019-02-10T07:13:22.000Z</time>
      </trkpt>
      <trkpt lat="44.12271" lon="7.27078">
        <ele>1629.8000488281</ele>
        <time>2019-02-10T07:13:27.000Z</time>
      </trkpt>
      <trkpt lat="44.12276" lon="7.27073">
        <ele>1630.4000244141</ele>
        <time>2019-02-10T07:13:34.000Z</time>
      </trkpt>
      <trkpt lat="44.12283" lon="7.27069">
        <ele>1631</ele>
        <time>2019-02-10T07:13:44.000Z</time>
      </trkpt>
      <trkpt lat="44.12286" lon="7.27067">
        <ele>1631.4000244141</ele>
        <time>2019-02-10T07:13:49.000Z</time>
      </trkpt>
      <trkpt lat="44.12287" lon="7.27066">
        <ele>1631.4000244141</ele>
        <time>2019-02-10T07:13:50.000Z</time>
      </trkpt>
      <trkpt lat="44.12294" lon="7.27059">
        <ele>1632.4000244141</ele>
        <time>2019-02-10T07:14:03.000Z</time>
      </trkpt>
      <trkpt lat="44.12301" lon="7.27049">
        <ele>1633.1999511719</ele>
        <time>2019-02-10T07:14:12.000Z</time>
      </trkpt>
      <trkpt lat="44.12303" lon="7.27045">
        <ele>1633.5999755859</ele>
        <time>2019-02-10T07:14:15.000Z</time>
      </trkpt>
      <trkpt lat="44.12305" lon="7.27044">
        <ele>1633.8000488281</ele>
        <time>2019-02-10T07:14:19.000Z</time>
      </trkpt>
      <trkpt lat="44.1231" lon="7.27041">
        <ele>1634.1999511719</ele>
        <time>2019-02-10T07:14:25.000Z</time>
      </trkpt>
      <trkpt lat="44.12311" lon="7.27039">
        <ele>1634.5999755859</ele>
        <time>2019-02-10T07:14:27.000Z</time>
      </trkpt>
      <trkpt lat="44.12311" lon="7.27038">
        <ele>1634.5999755859</ele>
        <time>2019-02-10T07:14:28.000Z</time>
      </trkpt>
      <trkpt lat="44.12316" lon="7.27034">
        <ele>1635</ele>
        <time>2019-02-10T07:14:34.000Z</time>
      </trkpt>
      <trkpt lat="44.12321" lon="7.27029">
        <ele>1635.8000488281</ele>
        <time>2019-02-10T07:14:41.000Z</time>
      </trkpt>
      <trkpt lat="44.12328" lon="7.27016">
        <ele>1636.5999755859</ele>
        <time>2019-02-10T07:14:55.000Z</time>
      </trkpt>
      <trkpt lat="44.12328" lon="7.27014">
        <ele>1636.8000488281</ele>
        <time>2019-02-10T07:14:56.000Z</time>
      </trkpt>
      <trkpt lat="44.12332" lon="7.27005">
        <ele>1637.4000244141</ele>
        <time>2019-02-10T07:15:05.000Z</time>
      </trkpt>
      <trkpt lat="44.12333" lon="7.26995">
        <ele>1637.8000488281</ele>
        <time>2019-02-10T07:15:12.000Z</time>
      </trkpt>
      <trkpt lat="44.12337" lon="7.26991">
        <ele>1638</ele>
        <time>2019-02-10T07:15:17.000Z</time>
      </trkpt>
      <trkpt lat="44.12345" lon="7.26976">
        <ele>1638.8000488281</ele>
        <time>2019-02-10T07:15:31.000Z</time>
      </trkpt>
      <trkpt lat="44.12345" lon="7.26975">
        <ele>1638.8000488281</ele>
        <time>2019-02-10T07:15:32.000Z</time>
      </trkpt>
      <trkpt lat="44.12348" lon="7.26971">
        <ele>1639.1999511719</ele>
        <time>2019-02-10T07:15:37.000Z</time>
      </trkpt>
      <trkpt lat="44.12353" lon="7.26966">
        <ele>1639.8000488281</ele>
        <time>2019-02-10T07:15:44.000Z</time>
      </trkpt>
      <trkpt lat="44.12356" lon="7.26966">
        <ele>1639.8000488281</ele>
        <time>2019-02-10T07:15:47.000Z</time>
      </trkpt>
      <trkpt lat="44.12361" lon="7.26963">
        <ele>1640.4000244141</ele>
        <time>2019-02-10T07:15:53.000Z</time>
      </trkpt>
      <trkpt lat="44.1236" lon="7.26959">
        <ele>1640.8000488281</ele>
        <time>2019-02-10T07:16:00.000Z</time>
      </trkpt>
      <trkpt lat="44.1236" lon="7.26958">
        <ele>1640.8000488281</ele>
        <time>2019-02-10T07:16:02.000Z</time>
      </trkpt>
      <trkpt lat="44.12362" lon="7.26957">
        <ele>1640.8000488281</ele>
        <time>2019-02-10T07:16:06.000Z</time>
      </trkpt>
      <trkpt lat="44.12365" lon="7.26956">
        <ele>1641</ele>
        <time>2019-02-10T07:16:09.000Z</time>
      </trkpt>
      <trkpt lat="44.12371" lon="7.26954">
        <ele>1641.4000244141</ele>
        <time>2019-02-10T07:16:16.000Z</time>
      </trkpt>
      <trkpt lat="44.12372" lon="7.26953">
        <ele>1641.4000244141</ele>
        <time>2019-02-10T07:16:17.000Z</time>
      </trkpt>
      <trkpt lat="44.12374" lon="7.26952">
        <ele>1641.5999755859</ele>
        <time>2019-02-10T07:16:19.000Z</time>
      </trkpt>
      <trkpt lat="44.12376" lon="7.26951">
        <ele>1642</ele>
        <time>2019-02-10T07:16:21.000Z</time>
      </trkpt>
      <trkpt lat="44.12381" lon="7.26947">
        <ele>1642.4000244141</ele>
        <time>2019-02-10T07:16:26.000Z</time>
      </trkpt>
      <trkpt lat="44.12382" lon="7.26943">
        <ele>1642.8000488281</ele>
        <time>2019-02-10T07:16:29.000Z</time>
      </trkpt>
      <trkpt lat="44.12382" lon="7.26942">
        <ele>1643</ele>
        <time>2019-02-10T07:16:30.000Z</time>
      </trkpt>
      <trkpt lat="44.12386" lon="7.26933">
        <ele>1643.4000244141</ele>
        <time>2019-02-10T07:16:36.000Z</time>
      </trkpt>
      <trkpt lat="44.12389" lon="7.26927">
        <ele>1644</ele>
        <time>2019-02-10T07:16:41.000Z</time>
      </trkpt>
      <trkpt lat="44.1239" lon="7.26926">
        <ele>1644</ele>
        <time>2019-02-10T07:16:42.000Z</time>
      </trkpt>
      <trkpt lat="44.12391" lon="7.26924">
        <ele>1644.1999511719</ele>
        <time>2019-02-10T07:16:43.000Z</time>
      </trkpt>
      <trkpt lat="44.12392" lon="7.26922">
        <ele>1644.4000244141</ele>
        <time>2019-02-10T07:16:45.000Z</time>
      </trkpt>
      <trkpt lat="44.12392" lon="7.26921">
        <ele>1644.5999755859</ele>
        <time>2019-02-10T07:16:46.000Z</time>
      </trkpt>
      <trkpt lat="44.12393" lon="7.26915">
        <ele>1645</ele>
        <time>2019-02-10T07:16:49.000Z</time>
      </trkpt>
      <trkpt lat="44.12394" lon="7.26914">
        <ele>1645.1999511719</ele>
        <time>2019-02-10T07:16:50.000Z</time>
      </trkpt>
      <trkpt lat="44.12397" lon="7.26911">
        <ele>1645.5999755859</ele>
        <time>2019-02-10T07:16:53.000Z</time>
      </trkpt>
      <trkpt lat="44.12397" lon="7.26909">
        <ele>1645.8000488281</ele>
        <time>2019-02-10T07:16:54.000Z</time>
      </trkpt>
      <trkpt lat="44.12397" lon="7.26907">
        <ele>1646.1999511719</ele>
        <time>2019-02-10T07:16:55.000Z</time>
      </trkpt>
      <trkpt lat="44.12398" lon="7.26904">
        <ele>1646.4000244141</ele>
        <time>2019-02-10T07:16:57.000Z</time>
      </trkpt>
      <trkpt lat="44.12398" lon="7.26897">
        <ele>1646.4000244141</ele>
        <time>2019-02-10T07:17:00.000Z</time>
      </trkpt>
      <trkpt lat="44.12398" lon="7.26895">
        <ele>1646.4000244141</ele>
        <time>2019-02-10T07:17:01.000Z</time>
      </trkpt>
      <trkpt lat="44.12399" lon="7.26892">
        <ele>1646.5999755859</ele>
        <time>2019-02-10T07:17:02.000Z</time>
      </trkpt>
      <trkpt lat="44.12401" lon="7.26885">
        <ele>1647</ele>
        <time>2019-02-10T07:17:05.000Z</time>
      </trkpt>
      <trkpt lat="44.12402" lon="7.2688">
        <ele>1647.1999511719</ele>
        <time>2019-02-10T07:17:07.000Z</time>
      </trkpt>
      <trkpt lat="44.12406" lon="7.26865">
        <ele>1648.4000244141</ele>
        <time>2019-02-10T07:17:13.000Z</time>
      </trkpt>
      <trkpt lat="44.12407" lon="7.26859">
        <ele>1648.8000488281</ele>
        <time>2019-02-10T07:17:16.000Z</time>
      </trkpt>
      <trkpt lat="44.12406" lon="7.26853">
        <ele>1649</ele>
        <time>2019-02-10T07:17:18.000Z</time>
      </trkpt>
      <trkpt lat="44.12406" lon="7.26848">
        <ele>1649.5999755859</ele>
        <time>2019-02-10T07:17:20.000Z</time>
      </trkpt>
      <trkpt lat="44.12405" lon="7.26844">
        <ele>1650</ele>
        <time>2019-02-10T07:17:22.000Z</time>
      </trkpt>
      <trkpt lat="44.12404" lon="7.2684">
        <ele>1650.1999511719</ele>
        <time>2019-02-10T07:17:24.000Z</time>
      </trkpt>
      <trkpt lat="44.12404" lon="7.26838">
        <ele>1650.1999511719</ele>
        <time>2019-02-10T07:17:25.000Z</time>
      </trkpt>
      <trkpt lat="44.12405" lon="7.26837">
        <ele>1650.4000244141</ele>
        <time>2019-02-10T07:17:26.000Z</time>
      </trkpt>
      <trkpt lat="44.12405" lon="7.26835">
        <ele>1650.4000244141</ele>
        <time>2019-02-10T07:17:27.000Z</time>
      </trkpt>
      <trkpt lat="44.12406" lon="7.26831">
        <ele>1650.4000244141</ele>
        <time>2019-02-10T07:17:29.000Z</time>
      </trkpt>
      <trkpt lat="44.12407" lon="7.26827">
        <ele>1650.5999755859</ele>
        <time>2019-02-10T07:17:31.000Z</time>
      </trkpt>
      <trkpt lat="44.12407" lon="7.26825">
        <ele>1650.5999755859</ele>
        <time>2019-02-10T07:17:32.000Z</time>
      </trkpt>
      <trkpt lat="44.12409" lon="7.26819">
        <ele>1651.1999511719</ele>
        <time>2019-02-10T07:17:37.000Z</time>
      </trkpt>
      <trkpt lat="44.12412" lon="7.26824">
        <ele>1651</ele>
        <time>2019-02-10T07:17:47.000Z</time>
      </trkpt>
      <trkpt lat="44.12412" lon="7.26825">
        <ele>1651</ele>
        <time>2019-02-10T07:17:51.000Z</time>
      </trkpt>
      <trkpt lat="44.12412" lon="7.26831">
        <ele>1651.1999511719</ele>
        <time>2019-02-10T07:17:54.000Z</time>
      </trkpt>
      <trkpt lat="44.12411" lon="7.2684">
        <ele>1651.1999511719</ele>
        <time>2019-02-10T07:17:58.000Z</time>
      </trkpt>
      <trkpt lat="44.12406" lon="7.26843">
        <ele>1651.1999511719</ele>
        <time>2019-02-10T07:18:04.000Z</time>
      </trkpt>
      <trkpt lat="44.12406" lon="7.26846">
        <ele>1651.4000244141</ele>
        <time>2019-02-10T07:18:05.000Z</time>
      </trkpt>
      <trkpt lat="44.12405" lon="7.26841">
        <ele>1651.4000244141</ele>
        <time>2019-02-10T07:18:06.000Z</time>
      </trkpt>
      <trkpt lat="44.12406" lon="7.26832">
        <ele>1650.5999755859</ele>
        <time>2019-02-10T07:18:12.000Z</time>
      </trkpt>
      <trkpt lat="44.12406" lon="7.26831">
        <ele>1650.5999755859</ele>
        <time>2019-02-10T07:18:13.000Z</time>
      </trkpt>
      <trkpt lat="44.12407" lon="7.2682">
        <ele>1650.8000488281</ele>
        <time>2019-02-10T07:18:18.000Z</time>
      </trkpt>
      <trkpt lat="44.12407" lon="7.26818">
        <ele>1651</ele>
        <time>2019-02-10T07:18:19.000Z</time>
      </trkpt>
      <trkpt lat="44.12406" lon="7.26815">
        <ele>1651.1999511719</ele>
        <time>2019-02-10T07:18:21.000Z</time>
      </trkpt>
      <trkpt lat="44.12406" lon="7.26813">
        <ele>1651.4000244141</ele>
        <time>2019-02-10T07:18:22.000Z</time>
      </trkpt>
      <trkpt lat="44.12406" lon="7.26812">
        <ele>1651.1999511719</ele>
        <time>2019-02-10T07:18:23.000Z</time>
      </trkpt>
      <trkpt lat="44.12408" lon="7.26793">
        <ele>1651.4000244141</ele>
        <time>2019-02-10T07:18:32.000Z</time>
      </trkpt>
      <trkpt lat="44.12409" lon="7.26788">
        <ele>1651.8000488281</ele>
        <time>2019-02-10T07:18:35.000Z</time>
      </trkpt>
      <trkpt lat="44.1241" lon="7.2678">
        <ele>1652</ele>
        <time>2019-02-10T07:18:39.000Z</time>
      </trkpt>
      <trkpt lat="44.12411" lon="7.26777">
        <ele>1652.4000244141</ele>
        <time>2019-02-10T07:18:42.000Z</time>
      </trkpt>
      <trkpt lat="44.12415" lon="7.26774">
        <ele>1652.5999755859</ele>
        <time>2019-02-10T07:18:46.000Z</time>
      </trkpt>
      <trkpt lat="44.12416" lon="7.26771">
        <ele>1652.8000488281</ele>
        <time>2019-02-10T07:18:48.000Z</time>
      </trkpt>
      <trkpt lat="44.12419" lon="7.26767">
        <ele>1653</ele>
        <time>2019-02-10T07:18:51.000Z</time>
      </trkpt>
      <trkpt lat="44.12421" lon="7.26763">
        <ele>1653.5999755859</ele>
        <time>2019-02-10T07:18:54.000Z</time>
      </trkpt>
      <trkpt lat="44.12423" lon="7.26759">
        <ele>1653.8000488281</ele>
        <time>2019-02-10T07:18:57.000Z</time>
      </trkpt>
      <trkpt lat="44.12423" lon="7.26759">
        <ele>1654</ele>
        <time>2019-02-10T07:18:58.000Z</time>
      </trkpt>
      <trkpt lat="44.1243" lon="7.26746">
        <ele>1655</ele>
        <time>2019-02-10T07:19:10.000Z</time>
      </trkpt>
      <trkpt lat="44.12431" lon="7.26743">
        <ele>1655.1999511719</ele>
        <time>2019-02-10T07:19:12.000Z</time>
      </trkpt>
      <trkpt lat="44.12433" lon="7.2674">
        <ele>1655.5999755859</ele>
        <time>2019-02-10T07:19:15.000Z</time>
      </trkpt>
      <trkpt lat="44.12434" lon="7.26739">
        <ele>1655.8000488281</ele>
        <time>2019-02-10T07:19:17.000Z</time>
      </trkpt>
      <trkpt lat="44.12435" lon="7.26738">
        <ele>1656</ele>
        <time>2019-02-10T07:19:19.000Z</time>
      </trkpt>
      <trkpt lat="44.12441" lon="7.26733">
        <ele>1656.5999755859</ele>
        <time>2019-02-10T07:19:28.000Z</time>
      </trkpt>
      <trkpt lat="44.12443" lon="7.26733">
        <ele>1657</ele>
        <time>2019-02-10T07:19:31.000Z</time>
      </trkpt>
      <trkpt lat="44.12444" lon="7.26733">
        <ele>1657.1999511719</ele>
        <time>2019-02-10T07:19:32.000Z</time>
      </trkpt>
      <trkpt lat="44.12445" lon="7.26732">
        <ele>1657.1999511719</ele>
        <time>2019-02-10T07:19:33.000Z</time>
      </trkpt>
      <trkpt lat="44.12447" lon="7.26727">
        <ele>1657.5999755859</ele>
        <time>2019-02-10T07:19:37.000Z</time>
      </trkpt>
      <trkpt lat="44.12449" lon="7.26723">
        <ele>1657.8000488281</ele>
        <time>2019-02-10T07:19:40.000Z</time>
      </trkpt>
      <trkpt lat="44.1245" lon="7.26721">
        <ele>1658</ele>
        <time>2019-02-10T07:19:42.000Z</time>
      </trkpt>
      <trkpt lat="44.12451" lon="7.26719">
        <ele>1658</ele>
        <time>2019-02-10T07:19:43.000Z</time>
      </trkpt>
      <trkpt lat="44.12453" lon="7.26717">
        <ele>1658.4000244141</ele>
        <time>2019-02-10T07:19:46.000Z</time>
      </trkpt>
      <trkpt lat="44.12464" lon="7.2671">
        <ele>1659</ele>
        <time>2019-02-10T07:19:59.000Z</time>
      </trkpt>
      <trkpt lat="44.12464" lon="7.26708">
        <ele>1659</ele>
        <time>2019-02-10T07:20:01.000Z</time>
      </trkpt>
      <trkpt lat="44.12469" lon="7.26702">
        <ele>1659.8000488281</ele>
        <time>2019-02-10T07:20:09.000Z</time>
      </trkpt>
      <trkpt lat="44.1247" lon="7.26701">
        <ele>1660</ele>
        <time>2019-02-10T07:20:11.000Z</time>
      </trkpt>
      <trkpt lat="44.1247" lon="7.26701">
        <ele>1660.1999511719</ele>
        <time>2019-02-10T07:20:12.000Z</time>
      </trkpt>
      <trkpt lat="44.12476" lon="7.26696">
        <ele>1660.5999755859</ele>
        <time>2019-02-10T07:20:19.000Z</time>
      </trkpt>
      <trkpt lat="44.12482" lon="7.2669">
        <ele>1661.4000244141</ele>
        <time>2019-02-10T07:20:28.000Z</time>
      </trkpt>
      <trkpt lat="44.12482" lon="7.26689">
        <ele>1661.4000244141</ele>
        <time>2019-02-10T07:20:29.000Z</time>
      </trkpt>
      <trkpt lat="44.12484" lon="7.26682">
        <ele>1662</ele>
        <time>2019-02-10T07:20:33.000Z</time>
      </trkpt>
      <trkpt lat="44.12484" lon="7.26679">
        <ele>1662</ele>
        <time>2019-02-10T07:20:35.000Z</time>
      </trkpt>
      <trkpt lat="44.12488" lon="7.26672">
        <ele>1662.4000244141</ele>
        <time>2019-02-10T07:20:40.000Z</time>
      </trkpt>
      <trkpt lat="44.12495" lon="7.26657">
        <ele>1663.5999755859</ele>
        <time>2019-02-10T07:20:53.000Z</time>
      </trkpt>
      <trkpt lat="44.12496" lon="7.26653">
        <ele>1664</ele>
        <time>2019-02-10T07:20:58.000Z</time>
      </trkpt>
      <trkpt lat="44.12499" lon="7.26646">
        <ele>1664.5999755859</ele>
        <time>2019-02-10T07:21:04.000Z</time>
      </trkpt>
      <trkpt lat="44.125" lon="7.26645">
        <ele>1664.5999755859</ele>
        <time>2019-02-10T07:21:06.000Z</time>
      </trkpt>
      <trkpt lat="44.12501" lon="7.26638">
        <ele>1665</ele>
        <time>2019-02-10T07:21:10.000Z</time>
      </trkpt>
      <trkpt lat="44.12503" lon="7.26635">
        <ele>1665.1999511719</ele>
        <time>2019-02-10T07:21:13.000Z</time>
      </trkpt>
      <trkpt lat="44.12504" lon="7.26632">
        <ele>1665.4000244141</ele>
        <time>2019-02-10T07:21:16.000Z</time>
      </trkpt>
      <trkpt lat="44.12505" lon="7.2663">
        <ele>1665.5999755859</ele>
        <time>2019-02-10T07:21:20.000Z</time>
      </trkpt>
      <trkpt lat="44.12506" lon="7.26629">
        <ele>1665.5999755859</ele>
        <time>2019-02-10T07:21:21.000Z</time>
      </trkpt>
      <trkpt lat="44.12511" lon="7.26618">
        <ele>1666.1999511719</ele>
        <time>2019-02-10T07:21:29.000Z</time>
      </trkpt>
      <trkpt lat="44.12512" lon="7.26615">
        <ele>1666.4000244141</ele>
        <time>2019-02-10T07:21:32.000Z</time>
      </trkpt>
      <trkpt lat="44.12512" lon="7.26612">
        <ele>1666.5999755859</ele>
        <time>2019-02-10T07:21:34.000Z</time>
      </trkpt>
      <trkpt lat="44.12513" lon="7.26611">
        <ele>1666.5999755859</ele>
        <time>2019-02-10T07:21:35.000Z</time>
      </trkpt>
      <trkpt lat="44.12514" lon="7.26609">
        <ele>1666.5999755859</ele>
        <time>2019-02-10T07:21:37.000Z</time>
      </trkpt>
      <trkpt lat="44.12514" lon="7.26608">
        <ele>1666.5999755859</ele>
        <time>2019-02-10T07:21:38.000Z</time>
      </trkpt>
      <trkpt lat="44.1252" lon="7.26594">
        <ele>1667.8000488281</ele>
        <time>2019-02-10T07:21:49.000Z</time>
      </trkpt>
      <trkpt lat="44.12522" lon="7.26586">
        <ele>1668</ele>
        <time>2019-02-10T07:21:55.000Z</time>
      </trkpt>
      <trkpt lat="44.12526" lon="7.26579">
        <ele>1668.5999755859</ele>
        <time>2019-02-10T07:22:03.000Z</time>
      </trkpt>
      <trkpt lat="44.12527" lon="7.26579">
        <ele>1668.8000488281</ele>
        <time>2019-02-10T07:22:04.000Z</time>
      </trkpt>
      <trkpt lat="44.12528" lon="7.26579">
        <ele>1668.8000488281</ele>
        <time>2019-02-10T07:22:05.000Z</time>
      </trkpt>
      <trkpt lat="44.12531" lon="7.26576">
        <ele>1669.1999511719</ele>
        <time>2019-02-10T07:22:10.000Z</time>
      </trkpt>
      <trkpt lat="44.12531" lon="7.26575">
        <ele>1669.1999511719</ele>
        <time>2019-02-10T07:22:11.000Z</time>
      </trkpt>
      <trkpt lat="44.12534" lon="7.2657">
        <ele>1669.8000488281</ele>
        <time>2019-02-10T07:22:18.000Z</time>
      </trkpt>
      <trkpt lat="44.12536" lon="7.26561">
        <ele>1670.4000244141</ele>
        <time>2019-02-10T07:22:26.000Z</time>
      </trkpt>
      <trkpt lat="44.12539" lon="7.26554">
        <ele>1670.8000488281</ele>
        <time>2019-02-10T07:22:31.000Z</time>
      </trkpt>
      <trkpt lat="44.12539" lon="7.26552">
        <ele>1670.8000488281</ele>
        <time>2019-02-10T07:22:32.000Z</time>
      </trkpt>
      <trkpt lat="44.1254" lon="7.26549">
        <ele>1671</ele>
        <time>2019-02-10T07:22:35.000Z</time>
      </trkpt>
      <trkpt lat="44.12544" lon="7.26545">
        <ele>1671.5999755859</ele>
        <time>2019-02-10T07:22:41.000Z</time>
      </trkpt>
      <trkpt lat="44.12546" lon="7.26542">
        <ele>1672</ele>
        <time>2019-02-10T07:22:44.000Z</time>
      </trkpt>
      <trkpt lat="44.12547" lon="7.2654">
        <ele>1672</ele>
        <time>2019-02-10T07:22:46.000Z</time>
      </trkpt>
      <trkpt lat="44.12549" lon="7.26535">
        <ele>1672.1999511719</ele>
        <time>2019-02-10T07:22:50.000Z</time>
      </trkpt>
      <trkpt lat="44.1255" lon="7.26529">
        <ele>1672.8000488281</ele>
        <time>2019-02-10T07:22:54.000Z</time>
      </trkpt>
      <trkpt lat="44.12551" lon="7.26527">
        <ele>1672.8000488281</ele>
        <time>2019-02-10T07:22:56.000Z</time>
      </trkpt>
      <trkpt lat="44.12551" lon="7.26525">
        <ele>1672.8000488281</ele>
        <time>2019-02-10T07:22:57.000Z</time>
      </trkpt>
      <trkpt lat="44.12551" lon="7.26522">
        <ele>1673</ele>
        <time>2019-02-10T07:23:00.000Z</time>
      </trkpt>
      <trkpt lat="44.12552" lon="7.2652">
        <ele>1673.1999511719</ele>
        <time>2019-02-10T07:23:02.000Z</time>
      </trkpt>
      <trkpt lat="44.12553" lon="7.26518">
        <ele>1673.4000244141</ele>
        <time>2019-02-10T07:23:04.000Z</time>
      </trkpt>
      <trkpt lat="44.12555" lon="7.26514">
        <ele>1673.8000488281</ele>
        <time>2019-02-10T07:23:07.000Z</time>
      </trkpt>
      <trkpt lat="44.12558" lon="7.26508">
        <ele>1674</ele>
        <time>2019-02-10T07:23:13.000Z</time>
      </trkpt>
      <trkpt lat="44.12562" lon="7.265">
        <ele>1674.1999511719</ele>
        <time>2019-02-10T07:23:20.000Z</time>
      </trkpt>
      <trkpt lat="44.12564" lon="7.26497">
        <ele>1674.4000244141</ele>
        <time>2019-02-10T07:23:23.000Z</time>
      </trkpt>
      <trkpt lat="44.12566" lon="7.26495">
        <ele>1674.5999755859</ele>
        <time>2019-02-10T07:23:25.000Z</time>
      </trkpt>
      <trkpt lat="44.12567" lon="7.26489">
        <ele>1675</ele>
        <time>2019-02-10T07:23:30.000Z</time>
      </trkpt>
      <trkpt lat="44.12567" lon="7.26487">
        <ele>1675</ele>
        <time>2019-02-10T07:23:31.000Z</time>
      </trkpt>
      <trkpt lat="44.1257" lon="7.2648">
        <ele>1675.5999755859</ele>
        <time>2019-02-10T07:23:38.000Z</time>
      </trkpt>
      <trkpt lat="44.1257" lon="7.26477">
        <ele>1675.8000488281</ele>
        <time>2019-02-10T07:23:40.000Z</time>
      </trkpt>
      <trkpt lat="44.12571" lon="7.26475">
        <ele>1676.1999511719</ele>
        <time>2019-02-10T07:23:42.000Z</time>
      </trkpt>
      <trkpt lat="44.12571" lon="7.26459">
        <ele>1677.1999511719</ele>
        <time>2019-02-10T07:23:55.000Z</time>
      </trkpt>
      <trkpt lat="44.12573" lon="7.26447">
        <ele>1678</ele>
        <time>2019-02-10T07:24:05.000Z</time>
      </trkpt>
      <trkpt lat="44.12574" lon="7.26445">
        <ele>1678.1999511719</ele>
        <time>2019-02-10T07:24:07.000Z</time>
      </trkpt>
      <trkpt lat="44.12573" lon="7.26442">
        <ele>1678.1999511719</ele>
        <time>2019-02-10T07:24:09.000Z</time>
      </trkpt>
      <trkpt lat="44.12574" lon="7.26438">
        <ele>1678.8000488281</ele>
        <time>2019-02-10T07:24:13.000Z</time>
      </trkpt>
      <trkpt lat="44.12575" lon="7.26435">
        <ele>1679</ele>
        <time>2019-02-10T07:24:17.000Z</time>
      </trkpt>
      <trkpt lat="44.12575" lon="7.26433">
        <ele>1679.1999511719</ele>
        <time>2019-02-10T07:24:18.000Z</time>
      </trkpt>
      <trkpt lat="44.12575" lon="7.26431">
        <ele>1679.4000244141</ele>
        <time>2019-02-10T07:24:20.000Z</time>
      </trkpt>
      <trkpt lat="44.12575" lon="7.26429">
        <ele>1679.8000488281</ele>
        <time>2019-02-10T07:24:22.000Z</time>
      </trkpt>
      <trkpt lat="44.12575" lon="7.26426">
        <ele>1680</ele>
        <time>2019-02-10T07:24:24.000Z</time>
      </trkpt>
      <trkpt lat="44.12576" lon="7.26424">
        <ele>1680</ele>
        <time>2019-02-10T07:24:26.000Z</time>
      </trkpt>
      <trkpt lat="44.12577" lon="7.2641">
        <ele>1679.8000488281</ele>
        <time>2019-02-10T07:24:35.000Z</time>
      </trkpt>
      <trkpt lat="44.12577" lon="7.26404">
        <ele>1680.1999511719</ele>
        <time>2019-02-10T07:24:40.000Z</time>
      </trkpt>
      <trkpt lat="44.12577" lon="7.26398">
        <ele>1680.5999755859</ele>
        <time>2019-02-10T07:24:45.000Z</time>
      </trkpt>
      <trkpt lat="44.12577" lon="7.26397">
        <ele>1680.5999755859</ele>
        <time>2019-02-10T07:24:46.000Z</time>
      </trkpt>
      <trkpt lat="44.12578" lon="7.26394">
        <ele>1681</ele>
        <time>2019-02-10T07:24:49.000Z</time>
      </trkpt>
      <trkpt lat="44.12578" lon="7.26392">
        <ele>1681.4000244141</ele>
        <time>2019-02-10T07:24:51.000Z</time>
      </trkpt>
      <trkpt lat="44.12578" lon="7.2639">
        <ele>1681.8000488281</ele>
        <time>2019-02-10T07:24:53.000Z</time>
      </trkpt>
      <trkpt lat="44.12578" lon="7.26387">
        <ele>1682</ele>
        <time>2019-02-10T07:24:55.000Z</time>
      </trkpt>
      <trkpt lat="44.12579" lon="7.26386">
        <ele>1682</ele>
        <time>2019-02-10T07:24:56.000Z</time>
      </trkpt>
      <trkpt lat="44.12579" lon="7.26384">
        <ele>1682.1999511719</ele>
        <time>2019-02-10T07:24:58.000Z</time>
      </trkpt>
      <trkpt lat="44.12579" lon="7.26381">
        <ele>1682.5999755859</ele>
        <time>2019-02-10T07:25:01.000Z</time>
      </trkpt>
      <trkpt lat="44.1258" lon="7.26379">
        <ele>1682.8000488281</ele>
        <time>2019-02-10T07:25:03.000Z</time>
      </trkpt>
      <trkpt lat="44.12579" lon="7.26376">
        <ele>1683</ele>
        <time>2019-02-10T07:25:05.000Z</time>
      </trkpt>
      <trkpt lat="44.1258" lon="7.26376">
        <ele>1683</ele>
        <time>2019-02-10T07:25:06.000Z</time>
      </trkpt>
      <trkpt lat="44.1258" lon="7.26362">
        <ele>1683.5999755859</ele>
        <time>2019-02-10T07:25:17.000Z</time>
      </trkpt>
      <trkpt lat="44.1258" lon="7.26361">
        <ele>1683.8000488281</ele>
        <time>2019-02-10T07:25:18.000Z</time>
      </trkpt>
      <trkpt lat="44.12581" lon="7.2634">
        <ele>1684.5999755859</ele>
        <time>2019-02-10T07:25:33.000Z</time>
      </trkpt>
      <trkpt lat="44.1258" lon="7.26329">
        <ele>1685</ele>
        <time>2019-02-10T07:25:42.000Z</time>
      </trkpt>
      <trkpt lat="44.12581" lon="7.26326">
        <ele>1685.4000244141</ele>
        <time>2019-02-10T07:25:45.000Z</time>
      </trkpt>
      <trkpt lat="44.12581" lon="7.26322">
        <ele>1685.5999755859</ele>
        <time>2019-02-10T07:25:48.000Z</time>
      </trkpt>
      <trkpt lat="44.12581" lon="7.26321">
        <ele>1685.8000488281</ele>
        <time>2019-02-10T07:25:49.000Z</time>
      </trkpt>
      <trkpt lat="44.12581" lon="7.26312">
        <ele>1686</ele>
        <time>2019-02-10T07:25:55.000Z</time>
      </trkpt>
      <trkpt lat="44.12584" lon="7.26302">
        <ele>1686.4000244141</ele>
        <time>2019-02-10T07:26:03.000Z</time>
      </trkpt>
      <trkpt lat="44.12585" lon="7.26299">
        <ele>1686.5999755859</ele>
        <time>2019-02-10T07:26:06.000Z</time>
      </trkpt>
      <trkpt lat="44.12585" lon="7.26297">
        <ele>1686.8000488281</ele>
        <time>2019-02-10T07:26:08.000Z</time>
      </trkpt>
      <trkpt lat="44.12585" lon="7.26295">
        <ele>1687</ele>
        <time>2019-02-10T07:26:10.000Z</time>
      </trkpt>
      <trkpt lat="44.12585" lon="7.26291">
        <ele>1687.1999511719</ele>
        <time>2019-02-10T07:26:13.000Z</time>
      </trkpt>
      <trkpt lat="44.12586" lon="7.26276">
        <ele>1687.5999755859</ele>
        <time>2019-02-10T07:26:24.000Z</time>
      </trkpt>
      <trkpt lat="44.12586" lon="7.26273">
        <ele>1687.8000488281</ele>
        <time>2019-02-10T07:26:26.000Z</time>
      </trkpt>
      <trkpt lat="44.12587" lon="7.26269">
        <ele>1688</ele>
        <time>2019-02-10T07:26:29.000Z</time>
      </trkpt>
      <trkpt lat="44.12586" lon="7.26263">
        <ele>1688.4000244141</ele>
        <time>2019-02-10T07:26:33.000Z</time>
      </trkpt>
      <trkpt lat="44.12587" lon="7.26261">
        <ele>1688.5999755859</ele>
        <time>2019-02-10T07:26:35.000Z</time>
      </trkpt>
      <trkpt lat="44.12587" lon="7.2626">
        <ele>1688.5999755859</ele>
        <time>2019-02-10T07:26:36.000Z</time>
      </trkpt>
      <trkpt lat="44.12587" lon="7.26257">
        <ele>1689</ele>
        <time>2019-02-10T07:26:40.000Z</time>
      </trkpt>
      <trkpt lat="44.12588" lon="7.26255">
        <ele>1689</ele>
        <time>2019-02-10T07:26:42.000Z</time>
      </trkpt>
      <trkpt lat="44.12589" lon="7.26248">
        <ele>1689.1999511719</ele>
        <time>2019-02-10T07:26:46.000Z</time>
      </trkpt>
      <trkpt lat="44.12592" lon="7.26238">
        <ele>1689.4000244141</ele>
        <time>2019-02-10T07:26:53.000Z</time>
      </trkpt>
      <trkpt lat="44.12592" lon="7.26232">
        <ele>1690.1999511719</ele>
        <time>2019-02-10T07:26:57.000Z</time>
      </trkpt>
      <trkpt lat="44.12592" lon="7.26231">
        <ele>1690.1999511719</ele>
        <time>2019-02-10T07:26:58.000Z</time>
      </trkpt>
      <trkpt lat="44.12593" lon="7.26227">
        <ele>1690.4000244141</ele>
        <time>2019-02-10T07:27:02.000Z</time>
      </trkpt>
      <trkpt lat="44.12593" lon="7.2622">
        <ele>1691.1999511719</ele>
        <time>2019-02-10T07:27:08.000Z</time>
      </trkpt>
      <trkpt lat="44.12593" lon="7.26219">
        <ele>1691.1999511719</ele>
        <time>2019-02-10T07:27:09.000Z</time>
      </trkpt>
      <trkpt lat="44.12594" lon="7.2621">
        <ele>1692</ele>
        <time>2019-02-10T07:27:16.000Z</time>
      </trkpt>
      <trkpt lat="44.12594" lon="7.26207">
        <ele>1692</ele>
        <time>2019-02-10T07:27:19.000Z</time>
      </trkpt>
      <trkpt lat="44.12595" lon="7.26205">
        <ele>1692.1999511719</ele>
        <time>2019-02-10T07:27:21.000Z</time>
      </trkpt>
      <trkpt lat="44.12595" lon="7.26204">
        <ele>1692.4000244141</ele>
        <time>2019-02-10T07:27:22.000Z</time>
      </trkpt>
      <trkpt lat="44.12596" lon="7.26199">
        <ele>1692.4000244141</ele>
        <time>2019-02-10T07:27:26.000Z</time>
      </trkpt>
      <trkpt lat="44.12596" lon="7.26196">
        <ele>1692.8000488281</ele>
        <time>2019-02-10T07:27:28.000Z</time>
      </trkpt>
      <trkpt lat="44.12597" lon="7.26184">
        <ele>1693.1999511719</ele>
        <time>2019-02-10T07:27:36.000Z</time>
      </trkpt>
      <trkpt lat="44.12598" lon="7.26169">
        <ele>1694.1999511719</ele>
        <time>2019-02-10T07:27:47.000Z</time>
      </trkpt>
      <trkpt lat="44.12599" lon="7.26168">
        <ele>1694.1999511719</ele>
        <time>2019-02-10T07:27:48.000Z</time>
      </trkpt>
      <trkpt lat="44.126" lon="7.26163">
        <ele>1694.5999755859</ele>
        <time>2019-02-10T07:27:53.000Z</time>
      </trkpt>
      <trkpt lat="44.12601" lon="7.26161">
        <ele>1694.8000488281</ele>
        <time>2019-02-10T07:27:55.000Z</time>
      </trkpt>
      <trkpt lat="44.12601" lon="7.26159">
        <ele>1694.8000488281</ele>
        <time>2019-02-10T07:27:57.000Z</time>
      </trkpt>
      <trkpt lat="44.126" lon="7.26155">
        <ele>1695</ele>
        <time>2019-02-10T07:28:02.000Z</time>
      </trkpt>
      <trkpt lat="44.12599" lon="7.26152">
        <ele>1695</ele>
        <time>2019-02-10T07:28:05.000Z</time>
      </trkpt>
      <trkpt lat="44.12598" lon="7.26148">
        <ele>1695.1999511719</ele>
        <time>2019-02-10T07:28:08.000Z</time>
      </trkpt>
      <trkpt lat="44.12598" lon="7.26146">
        <ele>1695.4000244141</ele>
        <time>2019-02-10T07:28:09.000Z</time>
      </trkpt>
      <trkpt lat="44.12597" lon="7.26136">
        <ele>1696</ele>
        <time>2019-02-10T07:28:16.000Z</time>
      </trkpt>
      <trkpt lat="44.12597" lon="7.26131">
        <ele>1696.4000244141</ele>
        <time>2019-02-10T07:28:19.000Z</time>
      </trkpt>
      <trkpt lat="44.12596" lon="7.26128">
        <ele>1696.4000244141</ele>
        <time>2019-02-10T07:28:22.000Z</time>
      </trkpt>
      <trkpt lat="44.12597" lon="7.26124">
        <ele>1697</ele>
        <time>2019-02-10T07:28:26.000Z</time>
      </trkpt>
      <trkpt lat="44.12598" lon="7.26115">
        <ele>1697.4000244141</ele>
        <time>2019-02-10T07:28:33.000Z</time>
      </trkpt>
      <trkpt lat="44.12599" lon="7.26102">
        <ele>1698.4000244141</ele>
        <time>2019-02-10T07:28:43.000Z</time>
      </trkpt>
      <trkpt lat="44.12599" lon="7.26099">
        <ele>1698.4000244141</ele>
        <time>2019-02-10T07:28:45.000Z</time>
      </trkpt>
      <trkpt lat="44.126" lon="7.26093">
        <ele>1698.8000488281</ele>
        <time>2019-02-10T07:28:50.000Z</time>
      </trkpt>
      <trkpt lat="44.12601" lon="7.2609">
        <ele>1698.8000488281</ele>
        <time>2019-02-10T07:28:53.000Z</time>
      </trkpt>
      <trkpt lat="44.12601" lon="7.26089">
        <ele>1699</ele>
        <time>2019-02-10T07:28:54.000Z</time>
      </trkpt>
      <trkpt lat="44.12601" lon="7.26086">
        <ele>1699.4000244141</ele>
        <time>2019-02-10T07:28:56.000Z</time>
      </trkpt>
      <trkpt lat="44.12601" lon="7.26085">
        <ele>1699.4000244141</ele>
        <time>2019-02-10T07:28:57.000Z</time>
      </trkpt>
      <trkpt lat="44.12601" lon="7.26083">
        <ele>1699.8000488281</ele>
        <time>2019-02-10T07:28:59.000Z</time>
      </trkpt>
      <trkpt lat="44.12601" lon="7.2608">
        <ele>1700</ele>
        <time>2019-02-10T07:29:02.000Z</time>
      </trkpt>
      <trkpt lat="44.126" lon="7.26077">
        <ele>1700.1999511719</ele>
        <time>2019-02-10T07:29:04.000Z</time>
      </trkpt>
      <trkpt lat="44.126" lon="7.26076">
        <ele>1700.4000244141</ele>
        <time>2019-02-10T07:29:05.000Z</time>
      </trkpt>
      <trkpt lat="44.126" lon="7.26075">
        <ele>1700.4000244141</ele>
        <time>2019-02-10T07:29:06.000Z</time>
      </trkpt>
      <trkpt lat="44.126" lon="7.26074">
        <ele>1700.5999755859</ele>
        <time>2019-02-10T07:29:07.000Z</time>
      </trkpt>
      <trkpt lat="44.12599" lon="7.26068">
        <ele>1700.5999755859</ele>
        <time>2019-02-10T07:29:12.000Z</time>
      </trkpt>
      <trkpt lat="44.12597" lon="7.26064">
        <ele>1701.1999511719</ele>
        <time>2019-02-10T07:29:16.000Z</time>
      </trkpt>
      <trkpt lat="44.12597" lon="7.26061">
        <ele>1701.5999755859</ele>
        <time>2019-02-10T07:29:20.000Z</time>
      </trkpt>
      <trkpt lat="44.12597" lon="7.26059">
        <ele>1701.5999755859</ele>
        <time>2019-02-10T07:29:23.000Z</time>
      </trkpt>
      <trkpt lat="44.12599" lon="7.26056">
        <ele>1701.8000488281</ele>
        <time>2019-02-10T07:29:31.000Z</time>
      </trkpt>
      <trkpt lat="44.12599" lon="7.26056">
        <ele>1701.8000488281</ele>
        <time>2019-02-10T07:29:34.000Z</time>
      </trkpt>
      <trkpt lat="44.12599" lon="7.26053">
        <ele>1702.1999511719</ele>
        <time>2019-02-10T07:29:50.000Z</time>
      </trkpt>
      <trkpt lat="44.126" lon="7.26053">
        <ele>1702</ele>
        <time>2019-02-10T07:29:52.000Z</time>
      </trkpt>
      <trkpt lat="44.12599" lon="7.26053">
        <ele>1702</ele>
        <time>2019-02-10T07:29:53.000Z</time>
      </trkpt>
      <trkpt lat="44.12599" lon="7.26054">
        <ele>1702</ele>
        <time>2019-02-10T07:29:54.000Z</time>
      </trkpt>
      <trkpt lat="44.12599" lon="7.26055">
        <ele>1702</ele>
        <time>2019-02-10T07:29:55.000Z</time>
      </trkpt>
      <trkpt lat="44.12598" lon="7.26056">
        <ele>1702</ele>
        <time>2019-02-10T07:29:56.000Z</time>
      </trkpt>
      <trkpt lat="44.12598" lon="7.26056">
        <ele>1702</ele>
        <time>2019-02-10T07:29:57.000Z</time>
      </trkpt>
      <trkpt lat="44.12597" lon="7.26057">
        <ele>1702</ele>
        <time>2019-02-10T07:30:02.000Z</time>
      </trkpt>
      <trkpt lat="44.12598" lon="7.26056">
        <ele>1701.8000488281</ele>
        <time>2019-02-10T07:30:04.000Z</time>
      </trkpt>
      <trkpt lat="44.12598" lon="7.26055">
        <ele>1701.8000488281</ele>
        <time>2019-02-10T07:30:09.000Z</time>
      </trkpt>
      <trkpt lat="44.12598" lon="7.26055">
        <ele>1701.8000488281</ele>
        <time>2019-02-10T07:30:10.000Z</time>
      </trkpt>
      <trkpt lat="44.12597" lon="7.26053">
        <ele>1701.8000488281</ele>
        <time>2019-02-10T07:30:20.000Z</time>
      </trkpt>
      <trkpt lat="44.12597" lon="7.26052">
        <ele>1702</ele>
        <time>2019-02-10T07:30:23.000Z</time>
      </trkpt>
      <trkpt lat="44.12597" lon="7.2605">
        <ele>1702</ele>
        <time>2019-02-10T07:30:33.000Z</time>
      </trkpt>
      <trkpt lat="44.12597" lon="7.2605">
        <ele>1702</ele>
        <time>2019-02-10T07:30:34.000Z</time>
      </trkpt>
      <trkpt lat="44.12597" lon="7.2605">
        <ele>1702.1999511719</ele>
        <time>2019-02-10T07:30:35.000Z</time>
      </trkpt>
      <trkpt lat="44.12597" lon="7.2605">
        <ele>1702.1999511719</ele>
        <time>2019-02-10T07:30:36.000Z</time>
      </trkpt>
      <trkpt lat="44.12599" lon="7.2605">
        <ele>1702.1999511719</ele>
        <time>2019-02-10T07:30:38.000Z</time>
      </trkpt>
      <trkpt lat="44.12599" lon="7.2605">
        <ele>1702</ele>
        <time>2019-02-10T07:30:40.000Z</time>
      </trkpt>
      <trkpt lat="44.126" lon="7.26049">
        <ele>1702</ele>
        <time>2019-02-10T07:30:42.000Z</time>
      </trkpt>
      <trkpt lat="44.12601" lon="7.26049">
        <ele>1702</ele>
        <time>2019-02-10T07:30:43.000Z</time>
      </trkpt>
      <trkpt lat="44.12601" lon="7.26049">
        <ele>1702</ele>
        <time>2019-02-10T07:30:44.000Z</time>
      </trkpt>
      <trkpt lat="44.12602" lon="7.26049">
        <ele>1702</ele>
        <time>2019-02-10T07:30:47.000Z</time>
      </trkpt>
      <trkpt lat="44.12602" lon="7.26049">
        <ele>1702</ele>
        <time>2019-02-10T07:30:50.000Z</time>
      </trkpt>
      <trkpt lat="44.12601" lon="7.26048">
        <ele>1702</ele>
        <time>2019-02-10T07:30:52.000Z</time>
      </trkpt>
      <trkpt lat="44.12601" lon="7.26048">
        <ele>1702</ele>
        <time>2019-02-10T07:30:53.000Z</time>
      </trkpt>
      <trkpt lat="44.12601" lon="7.26048">
        <ele>1702</ele>
        <time>2019-02-10T07:30:54.000Z</time>
      </trkpt>
      <trkpt lat="44.12599" lon="7.26048">
        <ele>1702</ele>
        <time>2019-02-10T07:30:56.000Z</time>
      </trkpt>
      <trkpt lat="44.12599" lon="7.26048">
        <ele>1702</ele>
        <time>2019-02-10T07:30:57.000Z</time>
      </trkpt>
      <trkpt lat="44.12599" lon="7.26049">
        <ele>1702</ele>
        <time>2019-02-10T07:30:58.000Z</time>
      </trkpt>
      <trkpt lat="44.12598" lon="7.26049">
        <ele>1702</ele>
        <time>2019-02-10T07:30:59.000Z</time>
      </trkpt>
      <trkpt lat="44.12595" lon="7.2605">
        <ele>1702</ele>
        <time>2019-02-10T07:31:09.000Z</time>
      </trkpt>
      <trkpt lat="44.12593" lon="7.26049">
        <ele>1702</ele>
        <time>2019-02-10T07:31:11.000Z</time>
      </trkpt>
      <trkpt lat="44.12592" lon="7.26049">
        <ele>1702</ele>
        <time>2019-02-10T07:31:12.000Z</time>
      </trkpt>
      <trkpt lat="44.12592" lon="7.2605">
        <ele>1702</ele>
        <time>2019-02-10T07:31:13.000Z</time>
      </trkpt>
      <trkpt lat="44.12593" lon="7.26049">
        <ele>1702</ele>
        <time>2019-02-10T07:31:19.000Z</time>
      </trkpt>
      <trkpt lat="44.12593" lon="7.2605">
        <ele>1702</ele>
        <time>2019-02-10T07:31:21.000Z</time>
      </trkpt>
      <trkpt lat="44.12591" lon="7.2605">
        <ele>1702</ele>
        <time>2019-02-10T07:31:24.000Z</time>
      </trkpt>
      <trkpt lat="44.12594" lon="7.26047">
        <ele>1702</ele>
        <time>2019-02-10T07:31:32.000Z</time>
      </trkpt>
      <trkpt lat="44.12594" lon="7.26047">
        <ele>1702</ele>
        <time>2019-02-10T07:31:34.000Z</time>
      </trkpt>
      <trkpt lat="44.12594" lon="7.26047">
        <ele>1702</ele>
        <time>2019-02-10T07:31:35.000Z</time>
      </trkpt>
      <trkpt lat="44.12594" lon="7.26047">
        <ele>1702</ele>
        <time>2019-02-10T07:31:36.000Z</time>
      </trkpt>
      <trkpt lat="44.12594" lon="7.26048">
        <ele>1702</ele>
        <time>2019-02-10T07:31:38.000Z</time>
      </trkpt>
      <trkpt lat="44.12595" lon="7.26049">
        <ele>1702</ele>
        <time>2019-02-10T07:31:40.000Z</time>
      </trkpt>
      <trkpt lat="44.12596" lon="7.26049">
        <ele>1702</ele>
        <time>2019-02-10T07:31:41.000Z</time>
      </trkpt>
      <trkpt lat="44.12596" lon="7.26049">
        <ele>1702</ele>
        <time>2019-02-10T07:31:42.000Z</time>
      </trkpt>
      <trkpt lat="44.12597" lon="7.26049">
        <ele>1702</ele>
        <time>2019-02-10T07:31:44.000Z</time>
      </trkpt>
      <trkpt lat="44.12598" lon="7.26051">
        <ele>1702</ele>
        <time>2019-02-10T07:31:48.000Z</time>
      </trkpt>
      <trkpt lat="44.12598" lon="7.26051">
        <ele>1702</ele>
        <time>2019-02-10T07:31:49.000Z</time>
      </trkpt>
      <trkpt lat="44.12598" lon="7.26052">
        <ele>1702</ele>
        <time>2019-02-10T07:31:50.000Z</time>
      </trkpt>
      <trkpt lat="44.12598" lon="7.26051">
        <ele>1702</ele>
        <time>2019-02-10T07:31:53.000Z</time>
      </trkpt>
      <trkpt lat="44.12598" lon="7.26051">
        <ele>1702</ele>
        <time>2019-02-10T07:31:55.000Z</time>
      </trkpt>
      <trkpt lat="44.12598" lon="7.26051">
        <ele>1702</ele>
        <time>2019-02-10T07:31:56.000Z</time>
      </trkpt>
      <trkpt lat="44.12598" lon="7.26051">
        <ele>1702</ele>
        <time>2019-02-10T07:31:57.000Z</time>
      </trkpt>
      <trkpt lat="44.12598" lon="7.26051">
        <ele>1702</ele>
        <time>2019-02-10T07:31:58.000Z</time>
      </trkpt>
      <trkpt lat="44.12597" lon="7.26051">
        <ele>1702</ele>
        <time>2019-02-10T07:31:59.000Z</time>
      </trkpt>
      <trkpt lat="44.12597" lon="7.2605">
        <ele>1702</ele>
        <time>2019-02-10T07:32:02.000Z</time>
      </trkpt>
      <trkpt lat="44.12597" lon="7.26051">
        <ele>1702</ele>
        <time>2019-02-10T07:32:05.000Z</time>
      </trkpt>
      <trkpt lat="44.12597" lon="7.26051">
        <ele>1702</ele>
        <time>2019-02-10T07:32:07.000Z</time>
      </trkpt>
      <trkpt lat="44.12598" lon="7.2605">
        <ele>1702</ele>
        <time>2019-02-10T07:32:09.000Z</time>
      </trkpt>
      <trkpt lat="44.12598" lon="7.2605">
        <ele>1702</ele>
        <time>2019-02-10T07:32:10.000Z</time>
      </trkpt>
      <trkpt lat="44.12598" lon="7.26049">
        <ele>1702</ele>
        <time>2019-02-10T07:32:12.000Z</time>
      </trkpt>
      <trkpt lat="44.12598" lon="7.26049">
        <ele>1702</ele>
        <time>2019-02-10T07:32:13.000Z</time>
      </trkpt>
      <trkpt lat="44.12598" lon="7.26049">
        <ele>1702</ele>
        <time>2019-02-10T07:32:14.000Z</time>
      </trkpt>
      <trkpt lat="44.12598" lon="7.26048">
        <ele>1702</ele>
        <time>2019-02-10T07:32:16.000Z</time>
      </trkpt>
      <trkpt lat="44.12598" lon="7.26048">
        <ele>1702</ele>
        <time>2019-02-10T07:32:17.000Z</time>
      </trkpt>
      <trkpt lat="44.12598" lon="7.26048">
        <ele>1702</ele>
        <time>2019-02-10T07:32:18.000Z</time>
      </trkpt>
      <trkpt lat="44.12598" lon="7.26046">
        <ele>1702</ele>
        <time>2019-02-10T07:32:25.000Z</time>
      </trkpt>
      <trkpt lat="44.12598" lon="7.26046">
        <ele>1702</ele>
        <time>2019-02-10T07:32:26.000Z</time>
      </trkpt>
      <trkpt lat="44.12598" lon="7.26046">
        <ele>1702</ele>
        <time>2019-02-10T07:32:28.000Z</time>
      </trkpt>
      <trkpt lat="44.12598" lon="7.26046">
        <ele>1702</ele>
        <time>2019-02-10T07:32:30.000Z</time>
      </trkpt>
      <trkpt lat="44.12598" lon="7.26047">
        <ele>1702</ele>
        <time>2019-02-10T07:32:32.000Z</time>
      </trkpt>
      <trkpt lat="44.12598" lon="7.26047">
        <ele>1702</ele>
        <time>2019-02-10T07:32:33.000Z</time>
      </trkpt>
      <trkpt lat="44.12598" lon="7.26046">
        <ele>1702</ele>
        <time>2019-02-10T07:32:37.000Z</time>
      </trkpt>
      <trkpt lat="44.12598" lon="7.26046">
        <ele>1702</ele>
        <time>2019-02-10T07:32:38.000Z</time>
      </trkpt>
      <trkpt lat="44.12598" lon="7.26046">
        <ele>1702</ele>
        <time>2019-02-10T07:32:40.000Z</time>
      </trkpt>
      <trkpt lat="44.12598" lon="7.26046">
        <ele>1702</ele>
        <time>2019-02-10T07:32:42.000Z</time>
      </trkpt>
      <trkpt lat="44.12598" lon="7.26048">
        <ele>1702</ele>
        <time>2019-02-10T07:32:46.000Z</time>
      </trkpt>
      <trkpt lat="44.126" lon="7.2605">
        <ele>1702</ele>
        <time>2019-02-10T07:32:53.000Z</time>
      </trkpt>
      <trkpt lat="44.12597" lon="7.2605">
        <ele>1702</ele>
        <time>2019-02-10T07:32:58.000Z</time>
      </trkpt>
      <trkpt lat="44.12596" lon="7.26049">
        <ele>1702</ele>
        <time>2019-02-10T07:32:59.000Z</time>
      </trkpt>
      <trkpt lat="44.12594" lon="7.26046">
        <ele>1702</ele>
        <time>2019-02-10T07:33:10.000Z</time>
      </trkpt>
      <trkpt lat="44.12594" lon="7.26046">
        <ele>1702</ele>
        <time>2019-02-10T07:33:11.000Z</time>
      </trkpt>
      <trkpt lat="44.12595" lon="7.26046">
        <ele>1702</ele>
        <time>2019-02-10T07:33:13.000Z</time>
      </trkpt>
      <trkpt lat="44.12596" lon="7.26045">
        <ele>1702</ele>
        <time>2019-02-10T07:33:15.000Z</time>
      </trkpt>
      <trkpt lat="44.12596" lon="7.26045">
        <ele>1702</ele>
        <time>2019-02-10T07:33:16.000Z</time>
      </trkpt>
      <trkpt lat="44.12597" lon="7.26046">
        <ele>1702</ele>
        <time>2019-02-10T07:33:17.000Z</time>
      </trkpt>
      <trkpt lat="44.12597" lon="7.26046">
        <ele>1702</ele>
        <time>2019-02-10T07:33:23.000Z</time>
      </trkpt>
      <trkpt lat="44.12596" lon="7.26046">
        <ele>1702</ele>
        <time>2019-02-10T07:33:26.000Z</time>
      </trkpt>
      <trkpt lat="44.12596" lon="7.26046">
        <ele>1702</ele>
        <time>2019-02-10T07:33:27.000Z</time>
      </trkpt>
      <trkpt lat="44.12595" lon="7.26047">
        <ele>1702</ele>
        <time>2019-02-10T07:33:28.000Z</time>
      </trkpt>
      <trkpt lat="44.12595" lon="7.26047">
        <ele>1702</ele>
        <time>2019-02-10T07:33:29.000Z</time>
      </trkpt>
      <trkpt lat="44.12595" lon="7.26049">
        <ele>1702</ele>
        <time>2019-02-10T07:33:32.000Z</time>
      </trkpt>
      <trkpt lat="44.12594" lon="7.2605">
        <ele>1702</ele>
        <time>2019-02-10T07:33:39.000Z</time>
      </trkpt>
      <trkpt lat="44.12595" lon="7.26048">
        <ele>1702</ele>
        <time>2019-02-10T07:33:41.000Z</time>
      </trkpt>
      <trkpt lat="44.12596" lon="7.26046">
        <ele>1702</ele>
        <time>2019-02-10T07:33:43.000Z</time>
      </trkpt>
      <trkpt lat="44.12596" lon="7.26045">
        <ele>1702</ele>
        <time>2019-02-10T07:33:44.000Z</time>
      </trkpt>
      <trkpt lat="44.12597" lon="7.26044">
        <ele>1702</ele>
        <time>2019-02-10T07:33:46.000Z</time>
      </trkpt>
      <trkpt lat="44.126" lon="7.26039">
        <ele>1702.8000488281</ele>
        <time>2019-02-10T07:33:52.000Z</time>
      </trkpt>
      <trkpt lat="44.12601" lon="7.26035">
        <ele>1703.5999755859</ele>
        <time>2019-02-10T07:33:57.000Z</time>
      </trkpt>
      <trkpt lat="44.126" lon="7.26032">
        <ele>1703.8000488281</ele>
        <time>2019-02-10T07:34:00.000Z</time>
      </trkpt>
      <trkpt lat="44.12602" lon="7.26031">
        <ele>1704.4000244141</ele>
        <time>2019-02-10T07:34:03.000Z</time>
      </trkpt>
      <trkpt lat="44.12603" lon="7.26028">
        <ele>1704.4000244141</ele>
        <time>2019-02-10T07:34:06.000Z</time>
      </trkpt>
      <trkpt lat="44.12604" lon="7.26025">
        <ele>1704.4000244141</ele>
        <time>2019-02-10T07:34:09.000Z</time>
      </trkpt>
      <trkpt lat="44.12606" lon="7.26022">
        <ele>1705</ele>
        <time>2019-02-10T07:34:12.000Z</time>
      </trkpt>
      <trkpt lat="44.12608" lon="7.26012">
        <ele>1705.4000244141</ele>
        <time>2019-02-10T07:34:19.000Z</time>
      </trkpt>
      <trkpt lat="44.12609" lon="7.2601">
        <ele>1705.4000244141</ele>
        <time>2019-02-10T07:34:21.000Z</time>
      </trkpt>
      <trkpt lat="44.1261" lon="7.26007">
        <ele>1705.8000488281</ele>
        <time>2019-02-10T07:34:24.000Z</time>
      </trkpt>
      <trkpt lat="44.12611" lon="7.26005">
        <ele>1706</ele>
        <time>2019-02-10T07:34:26.000Z</time>
      </trkpt>
      <trkpt lat="44.1261" lon="7.26004">
        <ele>1706</ele>
        <time>2019-02-10T07:34:27.000Z</time>
      </trkpt>
      <trkpt lat="44.12612" lon="7.25995">
        <ele>1706.4000244141</ele>
        <time>2019-02-10T07:34:34.000Z</time>
      </trkpt>
      <trkpt lat="44.12614" lon="7.25993">
        <ele>1706.8000488281</ele>
        <time>2019-02-10T07:34:37.000Z</time>
      </trkpt>
      <trkpt lat="44.12615" lon="7.25993">
        <ele>1707</ele>
        <time>2019-02-10T07:34:40.000Z</time>
      </trkpt>
      <trkpt lat="44.12617" lon="7.25992">
        <ele>1707</ele>
        <time>2019-02-10T07:34:43.000Z</time>
      </trkpt>
      <trkpt lat="44.12618" lon="7.25991">
        <ele>1707.1999511719</ele>
        <time>2019-02-10T07:34:44.000Z</time>
      </trkpt>
      <trkpt lat="44.12627" lon="7.2599">
        <ele>1708.1999511719</ele>
        <time>2019-02-10T07:34:55.000Z</time>
      </trkpt>
      <trkpt lat="44.12629" lon="7.25984">
        <ele>1708.4000244141</ele>
        <time>2019-02-10T07:35:00.000Z</time>
      </trkpt>
      <trkpt lat="44.1263" lon="7.25982">
        <ele>1708.5999755859</ele>
        <time>2019-02-10T07:35:02.000Z</time>
      </trkpt>
      <trkpt lat="44.12629" lon="7.25977">
        <ele>1709.1999511719</ele>
        <time>2019-02-10T07:35:07.000Z</time>
      </trkpt>
      <trkpt lat="44.12629" lon="7.25969">
        <ele>1710.1999511719</ele>
        <time>2019-02-10T07:35:16.000Z</time>
      </trkpt>
      <trkpt lat="44.12628" lon="7.25967">
        <ele>1710.5999755859</ele>
        <time>2019-02-10T07:35:19.000Z</time>
      </trkpt>
      <trkpt lat="44.12628" lon="7.25963">
        <ele>1711.1999511719</ele>
        <time>2019-02-10T07:35:27.000Z</time>
      </trkpt>
      <trkpt lat="44.12629" lon="7.25955">
        <ele>1712.4000244141</ele>
        <time>2019-02-10T07:35:36.000Z</time>
      </trkpt>
      <trkpt lat="44.1263" lon="7.25951">
        <ele>1712.8000488281</ele>
        <time>2019-02-10T07:35:40.000Z</time>
      </trkpt>
      <trkpt lat="44.12632" lon="7.25947">
        <ele>1713.4000244141</ele>
        <time>2019-02-10T07:35:44.000Z</time>
      </trkpt>
      <trkpt lat="44.12633" lon="7.25943">
        <ele>1714.5999755859</ele>
        <time>2019-02-10T07:35:52.000Z</time>
      </trkpt>
      <trkpt lat="44.12634" lon="7.2593">
        <ele>1715.5999755859</ele>
        <time>2019-02-10T07:36:04.000Z</time>
      </trkpt>
      <trkpt lat="44.12631" lon="7.2592">
        <ele>1716.5999755859</ele>
        <time>2019-02-10T07:36:18.000Z</time>
      </trkpt>
      <trkpt lat="44.12627" lon="7.25913">
        <ele>1717.8000488281</ele>
        <time>2019-02-10T07:36:27.000Z</time>
      </trkpt>
      <trkpt lat="44.12626" lon="7.25909">
        <ele>1718.8000488281</ele>
        <time>2019-02-10T07:36:34.000Z</time>
      </trkpt>
      <trkpt lat="44.12626" lon="7.25901">
        <ele>1720</ele>
        <time>2019-02-10T07:36:42.000Z</time>
      </trkpt>
      <trkpt lat="44.12626" lon="7.25898">
        <ele>1720.8000488281</ele>
        <time>2019-02-10T07:36:51.000Z</time>
      </trkpt>
      <trkpt lat="44.12625" lon="7.25893">
        <ele>1721</ele>
        <time>2019-02-10T07:36:57.000Z</time>
      </trkpt>
      <trkpt lat="44.12624" lon="7.25891">
        <ele>1721</ele>
        <time>2019-02-10T07:37:00.000Z</time>
      </trkpt>
      <trkpt lat="44.12622" lon="7.25883">
        <ele>1722</ele>
        <time>2019-02-10T07:37:09.000Z</time>
      </trkpt>
      <trkpt lat="44.12621" lon="7.25882">
        <ele>1722.1999511719</ele>
        <time>2019-02-10T07:37:11.000Z</time>
      </trkpt>
      <trkpt lat="44.12621" lon="7.25878">
        <ele>1722.5999755859</ele>
        <time>2019-02-10T07:37:15.000Z</time>
      </trkpt>
      <trkpt lat="44.12621" lon="7.25875">
        <ele>1722.5999755859</ele>
        <time>2019-02-10T07:37:17.000Z</time>
      </trkpt>
      <trkpt lat="44.12621" lon="7.25873">
        <ele>1723</ele>
        <time>2019-02-10T07:37:20.000Z</time>
      </trkpt>
      <trkpt lat="44.12621" lon="7.25872">
        <ele>1723.1999511719</ele>
        <time>2019-02-10T07:37:21.000Z</time>
      </trkpt>
      <trkpt lat="44.12617" lon="7.25865">
        <ele>1724.1999511719</ele>
        <time>2019-02-10T07:37:30.000Z</time>
      </trkpt>
      <trkpt lat="44.12616" lon="7.2586">
        <ele>1725.4000244141</ele>
        <time>2019-02-10T07:37:36.000Z</time>
      </trkpt>
      <trkpt lat="44.12613" lon="7.2585">
        <ele>1726.4000244141</ele>
        <time>2019-02-10T07:37:46.000Z</time>
      </trkpt>
      <trkpt lat="44.12612" lon="7.25848">
        <ele>1726.8000488281</ele>
        <time>2019-02-10T07:37:49.000Z</time>
      </trkpt>
      <trkpt lat="44.12612" lon="7.25844">
        <ele>1727</ele>
        <time>2019-02-10T07:37:53.000Z</time>
      </trkpt>
      <trkpt lat="44.12612" lon="7.25843">
        <ele>1727.1999511719</ele>
        <time>2019-02-10T07:37:54.000Z</time>
      </trkpt>
      <trkpt lat="44.12612" lon="7.25839">
        <ele>1727.4000244141</ele>
        <time>2019-02-10T07:37:57.000Z</time>
      </trkpt>
      <trkpt lat="44.12609" lon="7.25822">
        <ele>1728.5999755859</ele>
        <time>2019-02-10T07:38:12.000Z</time>
      </trkpt>
      <trkpt lat="44.1261" lon="7.25809">
        <ele>1729.5999755859</ele>
        <time>2019-02-10T07:38:26.000Z</time>
      </trkpt>
      <trkpt lat="44.12613" lon="7.25795">
        <ele>1730.5999755859</ele>
        <time>2019-02-10T07:38:37.000Z</time>
      </trkpt>
      <trkpt lat="44.12616" lon="7.25786">
        <ele>1731.8000488281</ele>
        <time>2019-02-10T07:38:47.000Z</time>
      </trkpt>
      <trkpt lat="44.12619" lon="7.25785">
        <ele>1732.4000244141</ele>
        <time>2019-02-10T07:38:50.000Z</time>
      </trkpt>
      <trkpt lat="44.12621" lon="7.25782">
        <ele>1732.8000488281</ele>
        <time>2019-02-10T07:38:54.000Z</time>
      </trkpt>
      <trkpt lat="44.12629" lon="7.25773">
        <ele>1733.4000244141</ele>
        <time>2019-02-10T07:39:07.000Z</time>
      </trkpt>
      <trkpt lat="44.1263" lon="7.25773">
        <ele>1734</ele>
        <time>2019-02-10T07:39:09.000Z</time>
      </trkpt>
      <trkpt lat="44.12643" lon="7.25776">
        <ele>1735</ele>
        <time>2019-02-10T07:39:22.000Z</time>
      </trkpt>
      <trkpt lat="44.12649" lon="7.2577">
        <ele>1736</ele>
        <time>2019-02-10T07:39:28.000Z</time>
      </trkpt>
      <trkpt lat="44.12652" lon="7.25766">
        <ele>1736.1999511719</ele>
        <time>2019-02-10T07:39:31.000Z</time>
      </trkpt>
      <trkpt lat="44.12652" lon="7.25765">
        <ele>1736.4000244141</ele>
        <time>2019-02-10T07:39:32.000Z</time>
      </trkpt>
      <trkpt lat="44.12657" lon="7.25762">
        <ele>1737</ele>
        <time>2019-02-10T07:39:38.000Z</time>
      </trkpt>
      <trkpt lat="44.12658" lon="7.25756">
        <ele>1737.5999755859</ele>
        <time>2019-02-10T07:39:44.000Z</time>
      </trkpt>
      <trkpt lat="44.1266" lon="7.25751">
        <ele>1738.1999511719</ele>
        <time>2019-02-10T07:39:50.000Z</time>
      </trkpt>
      <trkpt lat="44.12665" lon="7.25747">
        <ele>1739.1999511719</ele>
        <time>2019-02-10T07:40:01.000Z</time>
      </trkpt>
      <trkpt lat="44.12669" lon="7.25743">
        <ele>1740.4000244141</ele>
        <time>2019-02-10T07:40:07.000Z</time>
      </trkpt>
      <trkpt lat="44.12674" lon="7.25734">
        <ele>1741.4000244141</ele>
        <time>2019-02-10T07:40:15.000Z</time>
      </trkpt>
      <trkpt lat="44.12676" lon="7.25732">
        <ele>1742</ele>
        <time>2019-02-10T07:40:19.000Z</time>
      </trkpt>
      <trkpt lat="44.12676" lon="7.25733">
        <ele>1742</ele>
        <time>2019-02-10T07:40:21.000Z</time>
      </trkpt>
      <trkpt lat="44.12675" lon="7.25731">
        <ele>1741.8000488281</ele>
        <time>2019-02-10T07:40:31.000Z</time>
      </trkpt>
      <trkpt lat="44.12673" lon="7.25731">
        <ele>1741.8000488281</ele>
        <time>2019-02-10T07:40:35.000Z</time>
      </trkpt>
      <trkpt lat="44.12672" lon="7.25731">
        <ele>1741.8000488281</ele>
        <time>2019-02-10T07:40:36.000Z</time>
      </trkpt>
      <trkpt lat="44.12672" lon="7.25734">
        <ele>1742</ele>
        <time>2019-02-10T07:40:39.000Z</time>
      </trkpt>
      <trkpt lat="44.12672" lon="7.25734">
        <ele>1742</ele>
        <time>2019-02-10T07:40:40.000Z</time>
      </trkpt>
      <trkpt lat="44.12676" lon="7.25734">
        <ele>1742</ele>
        <time>2019-02-10T07:40:45.000Z</time>
      </trkpt>
      <trkpt lat="44.12675" lon="7.25728">
        <ele>1742.5999755859</ele>
        <time>2019-02-10T07:40:49.000Z</time>
      </trkpt>
      <trkpt lat="44.12675" lon="7.25728">
        <ele>1742.8000488281</ele>
        <time>2019-02-10T07:40:52.000Z</time>
      </trkpt>
      <trkpt lat="44.12672" lon="7.2573">
        <ele>1743.4000244141</ele>
        <time>2019-02-10T07:41:01.000Z</time>
      </trkpt>
      <trkpt lat="44.12671" lon="7.25731">
        <ele>1743.4000244141</ele>
        <time>2019-02-10T07:41:05.000Z</time>
      </trkpt>
      <trkpt lat="44.12671" lon="7.2573">
        <ele>1743.5999755859</ele>
        <time>2019-02-10T07:41:09.000Z</time>
      </trkpt>
      <trkpt lat="44.12671" lon="7.2573">
        <ele>1743.5999755859</ele>
        <time>2019-02-10T07:41:10.000Z</time>
      </trkpt>
      <trkpt lat="44.12672" lon="7.25729">
        <ele>1743.8000488281</ele>
        <time>2019-02-10T07:41:12.000Z</time>
      </trkpt>
      <trkpt lat="44.12672" lon="7.2573">
        <ele>1743.8000488281</ele>
        <time>2019-02-10T07:41:13.000Z</time>
      </trkpt>
      <trkpt lat="44.12672" lon="7.25731">
        <ele>1744.1999511719</ele>
        <time>2019-02-10T07:41:15.000Z</time>
      </trkpt>
      <trkpt lat="44.12672" lon="7.25731">
        <ele>1744.1999511719</ele>
        <time>2019-02-10T07:41:17.000Z</time>
      </trkpt>
      <trkpt lat="44.12674" lon="7.25729">
        <ele>1744.1999511719</ele>
        <time>2019-02-10T07:41:19.000Z</time>
      </trkpt>
      <trkpt lat="44.12675" lon="7.25728">
        <ele>1744.4000244141</ele>
        <time>2019-02-10T07:41:21.000Z</time>
      </trkpt>
      <trkpt lat="44.12675" lon="7.25727">
        <ele>1744.8000488281</ele>
        <time>2019-02-10T07:41:22.000Z</time>
      </trkpt>
      <trkpt lat="44.12678" lon="7.25722">
        <ele>1745.5999755859</ele>
        <time>2019-02-10T07:41:27.000Z</time>
      </trkpt>
      <trkpt lat="44.12679" lon="7.25722">
        <ele>1745.8000488281</ele>
        <time>2019-02-10T07:41:28.000Z</time>
      </trkpt>
      <trkpt lat="44.12681" lon="7.2572">
        <ele>1746.4000244141</ele>
        <time>2019-02-10T07:41:32.000Z</time>
      </trkpt>
      <trkpt lat="44.12681" lon="7.25713">
        <ele>1746.8000488281</ele>
        <time>2019-02-10T07:41:37.000Z</time>
      </trkpt>
      <trkpt lat="44.12681" lon="7.2571">
        <ele>1747.1999511719</ele>
        <time>2019-02-10T07:41:39.000Z</time>
      </trkpt>
      <trkpt lat="44.12682" lon="7.2571">
        <ele>1747.5999755859</ele>
        <time>2019-02-10T07:41:41.000Z</time>
      </trkpt>
      <trkpt lat="44.12682" lon="7.25709">
        <ele>1747.8000488281</ele>
        <time>2019-02-10T07:41:44.000Z</time>
      </trkpt>
      <trkpt lat="44.12686" lon="7.25711">
        <ele>1748.1999511719</ele>
        <time>2019-02-10T07:41:54.000Z</time>
      </trkpt>
      <trkpt lat="44.12689" lon="7.25711">
        <ele>1748.1999511719</ele>
        <time>2019-02-10T07:42:03.000Z</time>
      </trkpt>
      <trkpt lat="44.12689" lon="7.25711">
        <ele>1748.1999511719</ele>
        <time>2019-02-10T07:42:04.000Z</time>
      </trkpt>
      <trkpt lat="44.12689" lon="7.25712">
        <ele>1748.1999511719</ele>
        <time>2019-02-10T07:42:11.000Z</time>
      </trkpt>
      <trkpt lat="44.12689" lon="7.25713">
        <ele>1748.1999511719</ele>
        <time>2019-02-10T07:42:13.000Z</time>
      </trkpt>
      <trkpt lat="44.12685" lon="7.25719">
        <ele>1748.5999755859</ele>
        <time>2019-02-10T07:42:21.000Z</time>
      </trkpt>
      <trkpt lat="44.12684" lon="7.25717">
        <ele>1748.5999755859</ele>
        <time>2019-02-10T07:42:23.000Z</time>
      </trkpt>
      <trkpt lat="44.12685" lon="7.25717">
        <ele>1748.5999755859</ele>
        <time>2019-02-10T07:42:24.000Z</time>
      </trkpt>
      <trkpt lat="44.12682" lon="7.25714">
        <ele>1748.5999755859</ele>
        <time>2019-02-10T07:42:29.000Z</time>
      </trkpt>
      <trkpt lat="44.12682" lon="7.25716">
        <ele>1748.4000244141</ele>
        <time>2019-02-10T07:42:30.000Z</time>
      </trkpt>
      <trkpt lat="44.12685" lon="7.25717">
        <ele>1748.4000244141</ele>
        <time>2019-02-10T07:42:34.000Z</time>
      </trkpt>
      <trkpt lat="44.12685" lon="7.25717">
        <ele>1748.4000244141</ele>
        <time>2019-02-10T07:42:35.000Z</time>
      </trkpt>
      <trkpt lat="44.12685" lon="7.25717">
        <ele>1748.4000244141</ele>
        <time>2019-02-10T07:42:36.000Z</time>
      </trkpt>
      <trkpt lat="44.12685" lon="7.25717">
        <ele>1748.4000244141</ele>
        <time>2019-02-10T07:42:37.000Z</time>
      </trkpt>
      <trkpt lat="44.12684" lon="7.25717">
        <ele>1748.4000244141</ele>
        <time>2019-02-10T07:42:39.000Z</time>
      </trkpt>
      <trkpt lat="44.12685" lon="7.25716">
        <ele>1748.4000244141</ele>
        <time>2019-02-10T07:42:43.000Z</time>
      </trkpt>
      <trkpt lat="44.12685" lon="7.25714">
        <ele>1748.1999511719</ele>
        <time>2019-02-10T07:42:49.000Z</time>
      </trkpt>
      <trkpt lat="44.12685" lon="7.25714">
        <ele>1748.1999511719</ele>
        <time>2019-02-10T07:42:50.000Z</time>
      </trkpt>
      <trkpt lat="44.12685" lon="7.25714">
        <ele>1748.1999511719</ele>
        <time>2019-02-10T07:42:51.000Z</time>
      </trkpt>
      <trkpt lat="44.12685" lon="7.25714">
        <ele>1748.1999511719</ele>
        <time>2019-02-10T07:42:55.000Z</time>
      </trkpt>
      <trkpt lat="44.12684" lon="7.25714">
        <ele>1748.1999511719</ele>
        <time>2019-02-10T07:42:58.000Z</time>
      </trkpt>
      <trkpt lat="44.12684" lon="7.25715">
        <ele>1748.1999511719</ele>
        <time>2019-02-10T07:42:59.000Z</time>
      </trkpt>
      <trkpt lat="44.12683" lon="7.25715">
        <ele>1748.1999511719</ele>
        <time>2019-02-10T07:43:01.000Z</time>
      </trkpt>
      <trkpt lat="44.12683" lon="7.25716">
        <ele>1748.1999511719</ele>
        <time>2019-02-10T07:43:02.000Z</time>
      </trkpt>
      <trkpt lat="44.12683" lon="7.25716">
        <ele>1748.1999511719</ele>
        <time>2019-02-10T07:43:03.000Z</time>
      </trkpt>
      <trkpt lat="44.12683" lon="7.25716">
        <ele>1748.1999511719</ele>
        <time>2019-02-10T07:43:04.000Z</time>
      </trkpt>
      <trkpt lat="44.12683" lon="7.25716">
        <ele>1748.1999511719</ele>
        <time>2019-02-10T07:43:05.000Z</time>
      </trkpt>
      <trkpt lat="44.1268" lon="7.25718">
        <ele>1748.1999511719</ele>
        <time>2019-02-10T07:43:13.000Z</time>
      </trkpt>
      <trkpt lat="44.12679" lon="7.2572">
        <ele>1748.1999511719</ele>
        <time>2019-02-10T07:43:23.000Z</time>
      </trkpt>
      <trkpt lat="44.12683" lon="7.25714">
        <ele>1748.1999511719</ele>
        <time>2019-02-10T07:43:39.000Z</time>
      </trkpt>
      <trkpt lat="44.12681" lon="7.25717">
        <ele>1748.1999511719</ele>
        <time>2019-02-10T07:43:40.000Z</time>
      </trkpt>
      <trkpt lat="44.12683" lon="7.25715">
        <ele>1748.1999511719</ele>
        <time>2019-02-10T07:43:48.000Z</time>
      </trkpt>
      <trkpt lat="44.12683" lon="7.25715">
        <ele>1748.1999511719</ele>
        <time>2019-02-10T07:43:49.000Z</time>
      </trkpt>
      <trkpt lat="44.12684" lon="7.25715">
        <ele>1748.1999511719</ele>
        <time>2019-02-10T07:43:50.000Z</time>
      </trkpt>
      <trkpt lat="44.12688" lon="7.25716">
        <ele>1748.1999511719</ele>
        <time>2019-02-10T07:43:53.000Z</time>
      </trkpt>
      <trkpt lat="44.12689" lon="7.25716">
        <ele>1748.1999511719</ele>
        <time>2019-02-10T07:43:54.000Z</time>
      </trkpt>
      <trkpt lat="44.1269" lon="7.25716">
        <ele>1748.1999511719</ele>
        <time>2019-02-10T07:43:55.000Z</time>
      </trkpt>
      <trkpt lat="44.12692" lon="7.25716">
        <ele>1748.1999511719</ele>
        <time>2019-02-10T07:43:57.000Z</time>
      </trkpt>
      <trkpt lat="44.12693" lon="7.25715">
        <ele>1748.1999511719</ele>
        <time>2019-02-10T07:43:59.000Z</time>
      </trkpt>
      <trkpt lat="44.12694" lon="7.25711">
        <ele>1748.1999511719</ele>
        <time>2019-02-10T07:44:02.000Z</time>
      </trkpt>
      <trkpt lat="44.12693" lon="7.25708">
        <ele>1748.1999511719</ele>
        <time>2019-02-10T07:44:04.000Z</time>
      </trkpt>
      <trkpt lat="44.12693" lon="7.25706">
        <ele>1749</ele>
        <time>2019-02-10T07:44:06.000Z</time>
      </trkpt>
      <trkpt lat="44.12693" lon="7.25706">
        <ele>1749</ele>
        <time>2019-02-10T07:44:07.000Z</time>
      </trkpt>
      <trkpt lat="44.12692" lon="7.25704">
        <ele>1749.5999755859</ele>
        <time>2019-02-10T07:44:09.000Z</time>
      </trkpt>
      <trkpt lat="44.12691" lon="7.25702">
        <ele>1749.4000244141</ele>
        <time>2019-02-10T07:44:11.000Z</time>
      </trkpt>
      <trkpt lat="44.12691" lon="7.25698">
        <ele>1750.1999511719</ele>
        <time>2019-02-10T07:44:14.000Z</time>
      </trkpt>
      <trkpt lat="44.12691" lon="7.25697">
        <ele>1750.4000244141</ele>
        <time>2019-02-10T07:44:15.000Z</time>
      </trkpt>
      <trkpt lat="44.12691" lon="7.25694">
        <ele>1750.8000488281</ele>
        <time>2019-02-10T07:44:18.000Z</time>
      </trkpt>
      <trkpt lat="44.12691" lon="7.25691">
        <ele>1751.1999511719</ele>
        <time>2019-02-10T07:44:22.000Z</time>
      </trkpt>
      <trkpt lat="44.12691" lon="7.25691">
        <ele>1751.4000244141</ele>
        <time>2019-02-10T07:44:23.000Z</time>
      </trkpt>
      <trkpt lat="44.12692" lon="7.25688">
        <ele>1752.1999511719</ele>
        <time>2019-02-10T07:44:26.000Z</time>
      </trkpt>
      <trkpt lat="44.12692" lon="7.25687">
        <ele>1752.4000244141</ele>
        <time>2019-02-10T07:44:27.000Z</time>
      </trkpt>
      <trkpt lat="44.12695" lon="7.25682">
        <ele>1753.1999511719</ele>
        <time>2019-02-10T07:44:31.000Z</time>
      </trkpt>
      <trkpt lat="44.12696" lon="7.2568">
        <ele>1753.5999755859</ele>
        <time>2019-02-10T07:44:33.000Z</time>
      </trkpt>
      <trkpt lat="44.12698" lon="7.25676">
        <ele>1754</ele>
        <time>2019-02-10T07:44:36.000Z</time>
      </trkpt>
      <trkpt lat="44.12698" lon="7.25674">
        <ele>1754.5999755859</ele>
        <time>2019-02-10T07:44:38.000Z</time>
      </trkpt>
      <trkpt lat="44.12699" lon="7.25673">
        <ele>1754.8000488281</ele>
        <time>2019-02-10T07:44:39.000Z</time>
      </trkpt>
      <trkpt lat="44.12699" lon="7.25671">
        <ele>1755.1999511719</ele>
        <time>2019-02-10T07:44:41.000Z</time>
      </trkpt>
      <trkpt lat="44.127" lon="7.25669">
        <ele>1755.1999511719</ele>
        <time>2019-02-10T07:44:43.000Z</time>
      </trkpt>
      <trkpt lat="44.127" lon="7.25667">
        <ele>1755.5999755859</ele>
        <time>2019-02-10T07:44:46.000Z</time>
      </trkpt>
      <trkpt lat="44.127" lon="7.25666">
        <ele>1755.8000488281</ele>
        <time>2019-02-10T07:44:47.000Z</time>
      </trkpt>
      <trkpt lat="44.127" lon="7.25657">
        <ele>1756.5999755859</ele>
        <time>2019-02-10T07:44:55.000Z</time>
      </trkpt>
      <trkpt lat="44.127" lon="7.25655">
        <ele>1756.8000488281</ele>
        <time>2019-02-10T07:44:56.000Z</time>
      </trkpt>
      <trkpt lat="44.127" lon="7.25653">
        <ele>1757.1999511719</ele>
        <time>2019-02-10T07:44:58.000Z</time>
      </trkpt>
      <trkpt lat="44.12699" lon="7.25647">
        <ele>1757.8000488281</ele>
        <time>2019-02-10T07:45:04.000Z</time>
      </trkpt>
      <trkpt lat="44.127" lon="7.25646">
        <ele>1758</ele>
        <time>2019-02-10T07:45:05.000Z</time>
      </trkpt>
      <trkpt lat="44.127" lon="7.25645">
        <ele>1758</ele>
        <time>2019-02-10T07:45:06.000Z</time>
      </trkpt>
      <trkpt lat="44.127" lon="7.25641">
        <ele>1758.5999755859</ele>
        <time>2019-02-10T07:45:10.000Z</time>
      </trkpt>
      <trkpt lat="44.12701" lon="7.25638">
        <ele>1758.8000488281</ele>
        <time>2019-02-10T07:45:12.000Z</time>
      </trkpt>
      <trkpt lat="44.12701" lon="7.25636">
        <ele>1759</ele>
        <time>2019-02-10T07:45:13.000Z</time>
      </trkpt>
      <trkpt lat="44.12703" lon="7.25631">
        <ele>1759.1999511719</ele>
        <time>2019-02-10T07:45:18.000Z</time>
      </trkpt>
      <trkpt lat="44.12704" lon="7.25625">
        <ele>1759.5999755859</ele>
        <time>2019-02-10T07:45:24.000Z</time>
      </trkpt>
      <trkpt lat="44.12708" lon="7.25611">
        <ele>1760</ele>
        <time>2019-02-10T07:45:37.000Z</time>
      </trkpt>
      <trkpt lat="44.12708" lon="7.25609">
        <ele>1760</ele>
        <time>2019-02-10T07:45:38.000Z</time>
      </trkpt>
      <trkpt lat="44.12709" lon="7.25605">
        <ele>1760.5999755859</ele>
        <time>2019-02-10T07:45:42.000Z</time>
      </trkpt>
      <trkpt lat="44.12709" lon="7.256">
        <ele>1760.8000488281</ele>
        <time>2019-02-10T07:45:46.000Z</time>
      </trkpt>
      <trkpt lat="44.1271" lon="7.25598">
        <ele>1760.8000488281</ele>
        <time>2019-02-10T07:45:48.000Z</time>
      </trkpt>
      <trkpt lat="44.1271" lon="7.25597">
        <ele>1761</ele>
        <time>2019-02-10T07:45:50.000Z</time>
      </trkpt>
      <trkpt lat="44.1271" lon="7.25595">
        <ele>1761.1999511719</ele>
        <time>2019-02-10T07:45:52.000Z</time>
      </trkpt>
      <trkpt lat="44.12713" lon="7.25588">
        <ele>1762.1999511719</ele>
        <time>2019-02-10T07:46:00.000Z</time>
      </trkpt>
      <trkpt lat="44.12715" lon="7.25573">
        <ele>1763.1999511719</ele>
        <time>2019-02-10T07:46:17.000Z</time>
      </trkpt>
      <trkpt lat="44.12716" lon="7.25568">
        <ele>1763.8000488281</ele>
        <time>2019-02-10T07:46:22.000Z</time>
      </trkpt>
      <trkpt lat="44.12716" lon="7.25565">
        <ele>1764.4000244141</ele>
        <time>2019-02-10T07:46:27.000Z</time>
      </trkpt>
      <trkpt lat="44.12716" lon="7.25562">
        <ele>1765</ele>
        <time>2019-02-10T07:46:33.000Z</time>
      </trkpt>
      <trkpt lat="44.12716" lon="7.25561">
        <ele>1765.1999511719</ele>
        <time>2019-02-10T07:46:36.000Z</time>
      </trkpt>
      <trkpt lat="44.12716" lon="7.2556">
        <ele>1765.1999511719</ele>
        <time>2019-02-10T07:46:38.000Z</time>
      </trkpt>
      <trkpt lat="44.12717" lon="7.25556">
        <ele>1765.4000244141</ele>
        <time>2019-02-10T07:46:42.000Z</time>
      </trkpt>
      <trkpt lat="44.12715" lon="7.25551">
        <ele>1765.8000488281</ele>
        <time>2019-02-10T07:46:47.000Z</time>
      </trkpt>
      <trkpt lat="44.12714" lon="7.25548">
        <ele>1766.4000244141</ele>
        <time>2019-02-10T07:46:51.000Z</time>
      </trkpt>
      <trkpt lat="44.12714" lon="7.25547">
        <ele>1766.8000488281</ele>
        <time>2019-02-10T07:46:53.000Z</time>
      </trkpt>
      <trkpt lat="44.12713" lon="7.25541">
        <ele>1767.5999755859</ele>
        <time>2019-02-10T07:47:01.000Z</time>
      </trkpt>
      <trkpt lat="44.12715" lon="7.25535">
        <ele>1768.5999755859</ele>
        <time>2019-02-10T07:47:06.000Z</time>
      </trkpt>
      <trkpt lat="44.12717" lon="7.25529">
        <ele>1769.8000488281</ele>
        <time>2019-02-10T07:47:17.000Z</time>
      </trkpt>
      <trkpt lat="44.12716" lon="7.25524">
        <ele>1770.1999511719</ele>
        <time>2019-02-10T07:47:22.000Z</time>
      </trkpt>
      <trkpt lat="44.12716" lon="7.25519">
        <ele>1770.8000488281</ele>
        <time>2019-02-10T07:47:27.000Z</time>
      </trkpt>
      <trkpt lat="44.12718" lon="7.25514">
        <ele>1771.8000488281</ele>
        <time>2019-02-10T07:47:34.000Z</time>
      </trkpt>
      <trkpt lat="44.12719" lon="7.25508">
        <ele>1772.5999755859</ele>
        <time>2019-02-10T07:47:40.000Z</time>
      </trkpt>
      <trkpt lat="44.12719" lon="7.25506">
        <ele>1773</ele>
        <time>2019-02-10T07:47:43.000Z</time>
      </trkpt>
      <trkpt lat="44.12718" lon="7.25501">
        <ele>1774</ele>
        <time>2019-02-10T07:47:50.000Z</time>
      </trkpt>
      <trkpt lat="44.12717" lon="7.25498">
        <ele>1775</ele>
        <time>2019-02-10T07:47:56.000Z</time>
      </trkpt>
      <trkpt lat="44.12717" lon="7.25494">
        <ele>1776</ele>
        <time>2019-02-10T07:48:04.000Z</time>
      </trkpt>
      <trkpt lat="44.12715" lon="7.25493">
        <ele>1776.8000488281</ele>
        <time>2019-02-10T07:48:08.000Z</time>
      </trkpt>
      <trkpt lat="44.12715" lon="7.25493">
        <ele>1777.1999511719</ele>
        <time>2019-02-10T07:48:10.000Z</time>
      </trkpt>
      <trkpt lat="44.12713" lon="7.2549">
        <ele>1778.1999511719</ele>
        <time>2019-02-10T07:48:18.000Z</time>
      </trkpt>
      <trkpt lat="44.12711" lon="7.25488">
        <ele>1779.4000244141</ele>
        <time>2019-02-10T07:48:22.000Z</time>
      </trkpt>
      <trkpt lat="44.1271" lon="7.25485">
        <ele>1780.4000244141</ele>
        <time>2019-02-10T07:48:26.000Z</time>
      </trkpt>
      <trkpt lat="44.12708" lon="7.2548">
        <ele>1781.5999755859</ele>
        <time>2019-02-10T07:48:34.000Z</time>
      </trkpt>
      <trkpt lat="44.12713" lon="7.25475">
        <ele>1782.1999511719</ele>
        <time>2019-02-10T07:48:45.000Z</time>
      </trkpt>
      <trkpt lat="44.12716" lon="7.25471">
        <ele>1782.5999755859</ele>
        <time>2019-02-10T07:48:49.000Z</time>
      </trkpt>
      <trkpt lat="44.12719" lon="7.25468">
        <ele>1783.8000488281</ele>
        <time>2019-02-10T07:48:55.000Z</time>
      </trkpt>
      <trkpt lat="44.12719" lon="7.25462">
        <ele>1784.8000488281</ele>
        <time>2019-02-10T07:49:02.000Z</time>
      </trkpt>
      <trkpt lat="44.1272" lon="7.25457">
        <ele>1786</ele>
        <time>2019-02-10T07:49:09.000Z</time>
      </trkpt>
      <trkpt lat="44.12723" lon="7.25448">
        <ele>1787</ele>
        <time>2019-02-10T07:49:19.000Z</time>
      </trkpt>
      <trkpt lat="44.12726" lon="7.25442">
        <ele>1788</ele>
        <time>2019-02-10T07:49:27.000Z</time>
      </trkpt>
      <trkpt lat="44.1273" lon="7.25434">
        <ele>1789.1999511719</ele>
        <time>2019-02-10T07:49:35.000Z</time>
      </trkpt>
      <trkpt lat="44.12734" lon="7.25426">
        <ele>1790.1999511719</ele>
        <time>2019-02-10T07:49:43.000Z</time>
      </trkpt>
      <trkpt lat="44.12734" lon="7.25425">
        <ele>1790.1999511719</ele>
        <time>2019-02-10T07:49:44.000Z</time>
      </trkpt>
      <trkpt lat="44.12734" lon="7.25422">
        <ele>1791</ele>
        <time>2019-02-10T07:49:47.000Z</time>
      </trkpt>
      <trkpt lat="44.12735" lon="7.25419">
        <ele>1791.4000244141</ele>
        <time>2019-02-10T07:49:51.000Z</time>
      </trkpt>
      <trkpt lat="44.12738" lon="7.25413">
        <ele>1792.1999511719</ele>
        <time>2019-02-10T07:49:57.000Z</time>
      </trkpt>
      <trkpt lat="44.12738" lon="7.25411">
        <ele>1792.4000244141</ele>
        <time>2019-02-10T07:49:58.000Z</time>
      </trkpt>
      <trkpt lat="44.12739" lon="7.25409">
        <ele>1792.4000244141</ele>
        <time>2019-02-10T07:50:00.000Z</time>
      </trkpt>
      <trkpt lat="44.12741" lon="7.25407">
        <ele>1792.5999755859</ele>
        <time>2019-02-10T07:50:03.000Z</time>
      </trkpt>
      <trkpt lat="44.12742" lon="7.25405">
        <ele>1792.8000488281</ele>
        <time>2019-02-10T07:50:06.000Z</time>
      </trkpt>
      <trkpt lat="44.12745" lon="7.254">
        <ele>1793.4000244141</ele>
        <time>2019-02-10T07:50:11.000Z</time>
      </trkpt>
      <trkpt lat="44.12747" lon="7.25398">
        <ele>1793.5999755859</ele>
        <time>2019-02-10T07:50:14.000Z</time>
      </trkpt>
      <trkpt lat="44.12748" lon="7.25398">
        <ele>1793.8000488281</ele>
        <time>2019-02-10T07:50:15.000Z</time>
      </trkpt>
      <trkpt lat="44.1275" lon="7.25396">
        <ele>1794</ele>
        <time>2019-02-10T07:50:18.000Z</time>
      </trkpt>
      <trkpt lat="44.12752" lon="7.25392">
        <ele>1794.5999755859</ele>
        <time>2019-02-10T07:50:23.000Z</time>
      </trkpt>
      <trkpt lat="44.12755" lon="7.25386">
        <ele>1795.5999755859</ele>
        <time>2019-02-10T07:50:31.000Z</time>
      </trkpt>
      <trkpt lat="44.12755" lon="7.25385">
        <ele>1795.5999755859</ele>
        <time>2019-02-10T07:50:32.000Z</time>
      </trkpt>
      <trkpt lat="44.12757" lon="7.25376">
        <ele>1796.8000488281</ele>
        <time>2019-02-10T07:50:44.000Z</time>
      </trkpt>
      <trkpt lat="44.12762" lon="7.25365">
        <ele>1797.8000488281</ele>
        <time>2019-02-10T07:51:03.000Z</time>
      </trkpt>
      <trkpt lat="44.12765" lon="7.25363">
        <ele>1797.8000488281</ele>
        <time>2019-02-10T07:51:07.000Z</time>
      </trkpt>
      <trkpt lat="44.1277" lon="7.25356">
        <ele>1798.8000488281</ele>
        <time>2019-02-10T07:51:21.000Z</time>
      </trkpt>
      <trkpt lat="44.12768" lon="7.25342">
        <ele>1799.8000488281</ele>
        <time>2019-02-10T07:51:47.000Z</time>
      </trkpt>
      <trkpt lat="44.12768" lon="7.25342">
        <ele>1799.8000488281</ele>
        <time>2019-02-10T07:51:48.000Z</time>
      </trkpt>
      <trkpt lat="44.12769" lon="7.2534">
        <ele>1800.4000244141</ele>
        <time>2019-02-10T07:51:51.000Z</time>
      </trkpt>
      <trkpt lat="44.12769" lon="7.25337">
        <ele>1800.5999755859</ele>
        <time>2019-02-10T07:51:57.000Z</time>
      </trkpt>
      <trkpt lat="44.1277" lon="7.25326">
        <ele>1800.5999755859</ele>
        <time>2019-02-10T07:52:15.000Z</time>
      </trkpt>
      <trkpt lat="44.12772" lon="7.25326">
        <ele>1800.4000244141</ele>
        <time>2019-02-10T07:52:18.000Z</time>
      </trkpt>
      <trkpt lat="44.12777" lon="7.25327">
        <ele>1800.4000244141</ele>
        <time>2019-02-10T07:52:24.000Z</time>
      </trkpt>
      <trkpt lat="44.12777" lon="7.25327">
        <ele>1800.4000244141</ele>
        <time>2019-02-10T07:52:25.000Z</time>
      </trkpt>
      <trkpt lat="44.12777" lon="7.25327">
        <ele>1800.4000244141</ele>
        <time>2019-02-10T07:52:26.000Z</time>
      </trkpt>
      <trkpt lat="44.12777" lon="7.25327">
        <ele>1800.5999755859</ele>
        <time>2019-02-10T07:52:27.000Z</time>
      </trkpt>
      <trkpt lat="44.12778" lon="7.25327">
        <ele>1800.4000244141</ele>
        <time>2019-02-10T07:52:28.000Z</time>
      </trkpt>
      <trkpt lat="44.12778" lon="7.25327">
        <ele>1800.4000244141</ele>
        <time>2019-02-10T07:52:29.000Z</time>
      </trkpt>
      <trkpt lat="44.12778" lon="7.25327">
        <ele>1800.5999755859</ele>
        <time>2019-02-10T07:52:30.000Z</time>
      </trkpt>
      <trkpt lat="44.12779" lon="7.25328">
        <ele>1800.5999755859</ele>
        <time>2019-02-10T07:52:33.000Z</time>
      </trkpt>
      <trkpt lat="44.12781" lon="7.25327">
        <ele>1800.5999755859</ele>
        <time>2019-02-10T07:52:39.000Z</time>
      </trkpt>
      <trkpt lat="44.12781" lon="7.25327">
        <ele>1800.5999755859</ele>
        <time>2019-02-10T07:52:40.000Z</time>
      </trkpt>
      <trkpt lat="44.1278" lon="7.25327">
        <ele>1800.5999755859</ele>
        <time>2019-02-10T07:52:41.000Z</time>
      </trkpt>
      <trkpt lat="44.1278" lon="7.25328">
        <ele>1800.5999755859</ele>
        <time>2019-02-10T07:52:45.000Z</time>
      </trkpt>
      <trkpt lat="44.1278" lon="7.25327">
        <ele>1800.5999755859</ele>
        <time>2019-02-10T07:52:48.000Z</time>
      </trkpt>
      <trkpt lat="44.1278" lon="7.25327">
        <ele>1800.5999755859</ele>
        <time>2019-02-10T07:52:50.000Z</time>
      </trkpt>
      <trkpt lat="44.1278" lon="7.25328">
        <ele>1800.5999755859</ele>
        <time>2019-02-10T07:52:51.000Z</time>
      </trkpt>
      <trkpt lat="44.1278" lon="7.25327">
        <ele>1800.5999755859</ele>
        <time>2019-02-10T07:52:52.000Z</time>
      </trkpt>
      <trkpt lat="44.1278" lon="7.25327">
        <ele>1800.5999755859</ele>
        <time>2019-02-10T07:52:53.000Z</time>
      </trkpt>
      <trkpt lat="44.1278" lon="7.25326">
        <ele>1800.5999755859</ele>
        <time>2019-02-10T07:52:55.000Z</time>
      </trkpt>
      <trkpt lat="44.12779" lon="7.25326">
        <ele>1800.5999755859</ele>
        <time>2019-02-10T07:52:56.000Z</time>
      </trkpt>
      <trkpt lat="44.12779" lon="7.25325">
        <ele>1801</ele>
        <time>2019-02-10T07:53:00.000Z</time>
      </trkpt>
      <trkpt lat="44.12778" lon="7.25325">
        <ele>1801.4000244141</ele>
        <time>2019-02-10T07:53:01.000Z</time>
      </trkpt>
      <trkpt lat="44.12778" lon="7.25325">
        <ele>1801.1999511719</ele>
        <time>2019-02-10T07:53:03.000Z</time>
      </trkpt>
      <trkpt lat="44.12776" lon="7.25325">
        <ele>1801.4000244141</ele>
        <time>2019-02-10T07:53:11.000Z</time>
      </trkpt>
      <trkpt lat="44.12777" lon="7.25324">
        <ele>1801.4000244141</ele>
        <time>2019-02-10T07:53:13.000Z</time>
      </trkpt>
      <trkpt lat="44.12776" lon="7.25323">
        <ele>1801.4000244141</ele>
        <time>2019-02-10T07:53:14.000Z</time>
      </trkpt>
      <trkpt lat="44.12773" lon="7.25319">
        <ele>1802.1999511719</ele>
        <time>2019-02-10T07:53:21.000Z</time>
      </trkpt>
      <trkpt lat="44.12772" lon="7.25318">
        <ele>1802.8000488281</ele>
        <time>2019-02-10T07:53:25.000Z</time>
      </trkpt>
      <trkpt lat="44.1277" lon="7.25317">
        <ele>1802.8000488281</ele>
        <time>2019-02-10T07:53:28.000Z</time>
      </trkpt>
      <trkpt lat="44.1277" lon="7.25317">
        <ele>1802.8000488281</ele>
        <time>2019-02-10T07:53:29.000Z</time>
      </trkpt>
      <trkpt lat="44.12764" lon="7.25321">
        <ele>1803.1999511719</ele>
        <time>2019-02-10T07:53:41.000Z</time>
      </trkpt>
      <trkpt lat="44.12762" lon="7.25323">
        <ele>1803.1999511719</ele>
        <time>2019-02-10T07:53:43.000Z</time>
      </trkpt>
      <trkpt lat="44.12761" lon="7.25322">
        <ele>1803.1999511719</ele>
        <time>2019-02-10T07:53:45.000Z</time>
      </trkpt>
      <trkpt lat="44.12761" lon="7.25322">
        <ele>1803.5999755859</ele>
        <time>2019-02-10T07:53:49.000Z</time>
      </trkpt>
      <trkpt lat="44.12759" lon="7.25326">
        <ele>1804</ele>
        <time>2019-02-10T07:53:52.000Z</time>
      </trkpt>
      <trkpt lat="44.12757" lon="7.25324">
        <ele>1804.4000244141</ele>
        <time>2019-02-10T07:53:55.000Z</time>
      </trkpt>
      <trkpt lat="44.12762" lon="7.25319">
        <ele>1804.8000488281</ele>
        <time>2019-02-10T07:54:00.000Z</time>
      </trkpt>
      <trkpt lat="44.12763" lon="7.25319">
        <ele>1804.8000488281</ele>
        <time>2019-02-10T07:54:03.000Z</time>
      </trkpt>
      <trkpt lat="44.12769" lon="7.2532">
        <ele>1804.8000488281</ele>
        <time>2019-02-10T07:54:11.000Z</time>
      </trkpt>
      <trkpt lat="44.12769" lon="7.25322">
        <ele>1804.8000488281</ele>
        <time>2019-02-10T07:54:13.000Z</time>
      </trkpt>
      <trkpt lat="44.1277" lon="7.25323">
        <ele>1804.8000488281</ele>
        <time>2019-02-10T07:54:16.000Z</time>
      </trkpt>
      <trkpt lat="44.1277" lon="7.25325">
        <ele>1804.8000488281</ele>
        <time>2019-02-10T07:54:21.000Z</time>
      </trkpt>
      <trkpt lat="44.12767" lon="7.25324">
        <ele>1804.8000488281</ele>
        <time>2019-02-10T07:54:27.000Z</time>
      </trkpt>
      <trkpt lat="44.12763" lon="7.2532">
        <ele>1804.8000488281</ele>
        <time>2019-02-10T07:54:31.000Z</time>
      </trkpt>
      <trkpt lat="44.12763" lon="7.25317">
        <ele>1804.8000488281</ele>
        <time>2019-02-10T07:54:35.000Z</time>
      </trkpt>
      <trkpt lat="44.12763" lon="7.25317">
        <ele>1804.8000488281</ele>
        <time>2019-02-10T07:54:37.000Z</time>
      </trkpt>
      <trkpt lat="44.12766" lon="7.25313">
        <ele>1804.8000488281</ele>
        <time>2019-02-10T07:54:39.000Z</time>
      </trkpt>
      <trkpt lat="44.12768" lon="7.25312">
        <ele>1804.8000488281</ele>
        <time>2019-02-10T07:54:41.000Z</time>
      </trkpt>
      <trkpt lat="44.12769" lon="7.25311">
        <ele>1804.8000488281</ele>
        <time>2019-02-10T07:54:42.000Z</time>
      </trkpt>
      <trkpt lat="44.1277" lon="7.25311">
        <ele>1805</ele>
        <time>2019-02-10T07:54:43.000Z</time>
      </trkpt>
      <trkpt lat="44.12772" lon="7.25308">
        <ele>1805.1999511719</ele>
        <time>2019-02-10T07:54:46.000Z</time>
      </trkpt>
      <trkpt lat="44.12772" lon="7.25306">
        <ele>1805.4000244141</ele>
        <time>2019-02-10T07:54:49.000Z</time>
      </trkpt>
      <trkpt lat="44.12772" lon="7.25302">
        <ele>1805.5999755859</ele>
        <time>2019-02-10T07:54:53.000Z</time>
      </trkpt>
      <trkpt lat="44.12773" lon="7.253">
        <ele>1805.5999755859</ele>
        <time>2019-02-10T07:54:57.000Z</time>
      </trkpt>
      <trkpt lat="44.12773" lon="7.25299">
        <ele>1805.5999755859</ele>
        <time>2019-02-10T07:54:58.000Z</time>
      </trkpt>
      <trkpt lat="44.12774" lon="7.25299">
        <ele>1805.5999755859</ele>
        <time>2019-02-10T07:54:59.000Z</time>
      </trkpt>
      <trkpt lat="44.12782" lon="7.25299">
        <ele>1805.8000488281</ele>
        <time>2019-02-10T07:55:09.000Z</time>
      </trkpt>
      <trkpt lat="44.12783" lon="7.253">
        <ele>1806</ele>
        <time>2019-02-10T07:55:12.000Z</time>
      </trkpt>
      <trkpt lat="44.12783" lon="7.25299">
        <ele>1806.4000244141</ele>
        <time>2019-02-10T07:55:14.000Z</time>
      </trkpt>
      <trkpt lat="44.12783" lon="7.25299">
        <ele>1806.4000244141</ele>
        <time>2019-02-10T07:55:15.000Z</time>
      </trkpt>
      <trkpt lat="44.12786" lon="7.25297">
        <ele>1807</ele>
        <time>2019-02-10T07:55:21.000Z</time>
      </trkpt>
      <trkpt lat="44.12789" lon="7.25296">
        <ele>1807.4000244141</ele>
        <time>2019-02-10T07:55:27.000Z</time>
      </trkpt>
      <trkpt lat="44.1279" lon="7.25296">
        <ele>1807.5999755859</ele>
        <time>2019-02-10T07:55:28.000Z</time>
      </trkpt>
      <trkpt lat="44.12793" lon="7.25291">
        <ele>1808.1999511719</ele>
        <time>2019-02-10T07:55:36.000Z</time>
      </trkpt>
      <trkpt lat="44.12797" lon="7.25289">
        <ele>1808.4000244141</ele>
        <time>2019-02-10T07:55:42.000Z</time>
      </trkpt>
      <trkpt lat="44.128" lon="7.25284">
        <ele>1809.1999511719</ele>
        <time>2019-02-10T07:55:49.000Z</time>
      </trkpt>
      <trkpt lat="44.128" lon="7.25285">
        <ele>1809.5999755859</ele>
        <time>2019-02-10T07:55:51.000Z</time>
      </trkpt>
      <trkpt lat="44.12797" lon="7.2528">
        <ele>1810.5999755859</ele>
        <time>2019-02-10T07:55:59.000Z</time>
      </trkpt>
      <trkpt lat="44.12797" lon="7.25279">
        <ele>1810.5999755859</ele>
        <time>2019-02-10T07:56:01.000Z</time>
      </trkpt>
      <trkpt lat="44.12797" lon="7.25277">
        <ele>1810.8000488281</ele>
        <time>2019-02-10T07:56:04.000Z</time>
      </trkpt>
      <trkpt lat="44.12799" lon="7.25275">
        <ele>1811.5999755859</ele>
        <time>2019-02-10T07:56:08.000Z</time>
      </trkpt>
      <trkpt lat="44.12802" lon="7.25272">
        <ele>1812.1999511719</ele>
        <time>2019-02-10T07:56:12.000Z</time>
      </trkpt>
      <trkpt lat="44.12804" lon="7.25268">
        <ele>1812.5999755859</ele>
        <time>2019-02-10T07:56:16.000Z</time>
      </trkpt>
      <trkpt lat="44.12808" lon="7.25264">
        <ele>1813.4000244141</ele>
        <time>2019-02-10T07:56:22.000Z</time>
      </trkpt>
      <trkpt lat="44.12809" lon="7.25263">
        <ele>1813.5999755859</ele>
        <time>2019-02-10T07:56:24.000Z</time>
      </trkpt>
      <trkpt lat="44.12809" lon="7.25262">
        <ele>1813.8000488281</ele>
        <time>2019-02-10T07:56:26.000Z</time>
      </trkpt>
      <trkpt lat="44.12809" lon="7.25261">
        <ele>1814</ele>
        <time>2019-02-10T07:56:28.000Z</time>
      </trkpt>
      <trkpt lat="44.12809" lon="7.25259">
        <ele>1814.4000244141</ele>
        <time>2019-02-10T07:56:31.000Z</time>
      </trkpt>
      <trkpt lat="44.12809" lon="7.25258">
        <ele>1815</ele>
        <time>2019-02-10T07:56:33.000Z</time>
      </trkpt>
      <trkpt lat="44.12809" lon="7.25257">
        <ele>1815.1999511719</ele>
        <time>2019-02-10T07:56:34.000Z</time>
      </trkpt>
      <trkpt lat="44.1281" lon="7.25255">
        <ele>1815.8000488281</ele>
        <time>2019-02-10T07:56:37.000Z</time>
      </trkpt>
      <trkpt lat="44.12811" lon="7.25254">
        <ele>1816</ele>
        <time>2019-02-10T07:56:38.000Z</time>
      </trkpt>
      <trkpt lat="44.12816" lon="7.2525">
        <ele>1816.8000488281</ele>
        <time>2019-02-10T07:56:46.000Z</time>
      </trkpt>
      <trkpt lat="44.12818" lon="7.25249">
        <ele>1817</ele>
        <time>2019-02-10T07:56:48.000Z</time>
      </trkpt>
      <trkpt lat="44.12819" lon="7.25239">
        <ele>1818.1999511719</ele>
        <time>2019-02-10T07:56:59.000Z</time>
      </trkpt>
      <trkpt lat="44.1282" lon="7.25234">
        <ele>1819.4000244141</ele>
        <time>2019-02-10T07:57:08.000Z</time>
      </trkpt>
      <trkpt lat="44.12821" lon="7.2523">
        <ele>1820.4000244141</ele>
        <time>2019-02-10T07:57:13.000Z</time>
      </trkpt>
      <trkpt lat="44.12822" lon="7.25229">
        <ele>1820.4000244141</ele>
        <time>2019-02-10T07:57:15.000Z</time>
      </trkpt>
      <trkpt lat="44.12827" lon="7.25225">
        <ele>1821.4000244141</ele>
        <time>2019-02-10T07:57:24.000Z</time>
      </trkpt>
      <trkpt lat="44.12828" lon="7.25223">
        <ele>1821.5999755859</ele>
        <time>2019-02-10T07:57:26.000Z</time>
      </trkpt>
      <trkpt lat="44.12832" lon="7.25216">
        <ele>1822.5999755859</ele>
        <time>2019-02-10T07:57:33.000Z</time>
      </trkpt>
      <trkpt lat="44.12834" lon="7.25211">
        <ele>1823.4000244141</ele>
        <time>2019-02-10T07:57:38.000Z</time>
      </trkpt>
      <trkpt lat="44.12835" lon="7.25209">
        <ele>1823.4000244141</ele>
        <time>2019-02-10T07:57:40.000Z</time>
      </trkpt>
      <trkpt lat="44.12837" lon="7.25204">
        <ele>1823.8000488281</ele>
        <time>2019-02-10T07:57:46.000Z</time>
      </trkpt>
      <trkpt lat="44.12839" lon="7.252">
        <ele>1824.1999511719</ele>
        <time>2019-02-10T07:57:53.000Z</time>
      </trkpt>
      <trkpt lat="44.12842" lon="7.25195">
        <ele>1824.8000488281</ele>
        <time>2019-02-10T07:57:59.000Z</time>
      </trkpt>
      <trkpt lat="44.12843" lon="7.2519">
        <ele>1825.1999511719</ele>
        <time>2019-02-10T07:58:03.000Z</time>
      </trkpt>
      <trkpt lat="44.12845" lon="7.25187">
        <ele>1825.1999511719</ele>
        <time>2019-02-10T07:58:07.000Z</time>
      </trkpt>
      <trkpt lat="44.12845" lon="7.25186">
        <ele>1825.4000244141</ele>
        <time>2019-02-10T07:58:09.000Z</time>
      </trkpt>
      <trkpt lat="44.12846" lon="7.25184">
        <ele>1825.5999755859</ele>
        <time>2019-02-10T07:58:11.000Z</time>
      </trkpt>
      <trkpt lat="44.12847" lon="7.25182">
        <ele>1825.5999755859</ele>
        <time>2019-02-10T07:58:15.000Z</time>
      </trkpt>
      <trkpt lat="44.12848" lon="7.25178">
        <ele>1825.8000488281</ele>
        <time>2019-02-10T07:58:20.000Z</time>
      </trkpt>
      <trkpt lat="44.12851" lon="7.2517">
        <ele>1827</ele>
        <time>2019-02-10T07:58:30.000Z</time>
      </trkpt>
      <trkpt lat="44.12855" lon="7.25161">
        <ele>1828</ele>
        <time>2019-02-10T07:58:45.000Z</time>
      </trkpt>
      <trkpt lat="44.12856" lon="7.25153">
        <ele>1829.1999511719</ele>
        <time>2019-02-10T07:58:53.000Z</time>
      </trkpt>
      <trkpt lat="44.12857" lon="7.25148">
        <ele>1829.8000488281</ele>
        <time>2019-02-10T07:58:59.000Z</time>
      </trkpt>
      <trkpt lat="44.12858" lon="7.25144">
        <ele>1830.1999511719</ele>
        <time>2019-02-10T07:59:04.000Z</time>
      </trkpt>
      <trkpt lat="44.12858" lon="7.25143">
        <ele>1830.1999511719</ele>
        <time>2019-02-10T07:59:05.000Z</time>
      </trkpt>
      <trkpt lat="44.12858" lon="7.25135">
        <ele>1831.4000244141</ele>
        <time>2019-02-10T07:59:14.000Z</time>
      </trkpt>
      <trkpt lat="44.12856" lon="7.25131">
        <ele>1832.1999511719</ele>
        <time>2019-02-10T07:59:22.000Z</time>
      </trkpt>
      <trkpt lat="44.12856" lon="7.2513">
        <ele>1832.4000244141</ele>
        <time>2019-02-10T07:59:23.000Z</time>
      </trkpt>
      <trkpt lat="44.12859" lon="7.25123">
        <ele>1833.4000244141</ele>
        <time>2019-02-10T07:59:32.000Z</time>
      </trkpt>
      <trkpt lat="44.12861" lon="7.25112">
        <ele>1834.5999755859</ele>
        <time>2019-02-10T07:59:41.000Z</time>
      </trkpt>
      <trkpt lat="44.12869" lon="7.251">
        <ele>1835.5999755859</ele>
        <time>2019-02-10T07:59:55.000Z</time>
      </trkpt>
      <trkpt lat="44.12878" lon="7.25096">
        <ele>1836.4000244141</ele>
        <time>2019-02-10T08:00:05.000Z</time>
      </trkpt>
      <trkpt lat="44.1288" lon="7.25094">
        <ele>1836.5999755859</ele>
        <time>2019-02-10T08:00:08.000Z</time>
      </trkpt>
      <trkpt lat="44.12881" lon="7.25093">
        <ele>1836.5999755859</ele>
        <time>2019-02-10T08:00:09.000Z</time>
      </trkpt>
      <trkpt lat="44.12883" lon="7.25087">
        <ele>1837.1999511719</ele>
        <time>2019-02-10T08:00:14.000Z</time>
      </trkpt>
      <trkpt lat="44.12884" lon="7.25083">
        <ele>1837.5999755859</ele>
        <time>2019-02-10T08:00:19.000Z</time>
      </trkpt>
      <trkpt lat="44.12887" lon="7.25079">
        <ele>1838</ele>
        <time>2019-02-10T08:00:25.000Z</time>
      </trkpt>
      <trkpt lat="44.1289" lon="7.25078">
        <ele>1838.8000488281</ele>
        <time>2019-02-10T08:00:32.000Z</time>
      </trkpt>
      <trkpt lat="44.12892" lon="7.25073">
        <ele>1839.8000488281</ele>
        <time>2019-02-10T08:00:41.000Z</time>
      </trkpt>
      <trkpt lat="44.12893" lon="7.25072">
        <ele>1840</ele>
        <time>2019-02-10T08:00:43.000Z</time>
      </trkpt>
      <trkpt lat="44.12895" lon="7.25066">
        <ele>1840.8000488281</ele>
        <time>2019-02-10T08:00:49.000Z</time>
      </trkpt>
      <trkpt lat="44.12899" lon="7.25056">
        <ele>1842</ele>
        <time>2019-02-10T08:00:59.000Z</time>
      </trkpt>
      <trkpt lat="44.12902" lon="7.25051">
        <ele>1842.8000488281</ele>
        <time>2019-02-10T08:01:04.000Z</time>
      </trkpt>
      <trkpt lat="44.12902" lon="7.2505">
        <ele>1843</ele>
        <time>2019-02-10T08:01:05.000Z</time>
      </trkpt>
      <trkpt lat="44.12902" lon="7.25049">
        <ele>1843</ele>
        <time>2019-02-10T08:01:06.000Z</time>
      </trkpt>
      <trkpt lat="44.12903" lon="7.25043">
        <ele>1844</ele>
        <time>2019-02-10T08:01:16.000Z</time>
      </trkpt>
      <trkpt lat="44.12903" lon="7.25039">
        <ele>1845</ele>
        <time>2019-02-10T08:01:22.000Z</time>
      </trkpt>
      <trkpt lat="44.12905" lon="7.25034">
        <ele>1846.1999511719</ele>
        <time>2019-02-10T08:01:29.000Z</time>
      </trkpt>
      <trkpt lat="44.12909" lon="7.25028">
        <ele>1847.1999511719</ele>
        <time>2019-02-10T08:01:38.000Z</time>
      </trkpt>
      <trkpt lat="44.1291" lon="7.25026">
        <ele>1847.5999755859</ele>
        <time>2019-02-10T08:01:41.000Z</time>
      </trkpt>
      <trkpt lat="44.12912" lon="7.25021">
        <ele>1848.4000244141</ele>
        <time>2019-02-10T08:01:49.000Z</time>
      </trkpt>
      <trkpt lat="44.12919" lon="7.25011">
        <ele>1849.4000244141</ele>
        <time>2019-02-10T08:02:03.000Z</time>
      </trkpt>
      <trkpt lat="44.12921" lon="7.25005">
        <ele>1850.5999755859</ele>
        <time>2019-02-10T08:02:10.000Z</time>
      </trkpt>
      <trkpt lat="44.12925" lon="7.24999">
        <ele>1851.5999755859</ele>
        <time>2019-02-10T08:02:16.000Z</time>
      </trkpt>
      <trkpt lat="44.12927" lon="7.24992">
        <ele>1852.5999755859</ele>
        <time>2019-02-10T08:02:25.000Z</time>
      </trkpt>
      <trkpt lat="44.12928" lon="7.2499">
        <ele>1852.8000488281</ele>
        <time>2019-02-10T08:02:27.000Z</time>
      </trkpt>
      <trkpt lat="44.12931" lon="7.24984">
        <ele>1853.8000488281</ele>
        <time>2019-02-10T08:02:38.000Z</time>
      </trkpt>
      <trkpt lat="44.12938" lon="7.24972">
        <ele>1855</ele>
        <time>2019-02-10T08:02:54.000Z</time>
      </trkpt>
      <trkpt lat="44.12943" lon="7.24965">
        <ele>1856</ele>
        <time>2019-02-10T08:03:02.000Z</time>
      </trkpt>
      <trkpt lat="44.12945" lon="7.24961">
        <ele>1856.5999755859</ele>
        <time>2019-02-10T08:03:08.000Z</time>
      </trkpt>
      <trkpt lat="44.12949" lon="7.24957">
        <ele>1857</ele>
        <time>2019-02-10T08:03:13.000Z</time>
      </trkpt>
      <trkpt lat="44.12953" lon="7.24953">
        <ele>1858</ele>
        <time>2019-02-10T08:03:20.000Z</time>
      </trkpt>
      <trkpt lat="44.12956" lon="7.24945">
        <ele>1859.1999511719</ele>
        <time>2019-02-10T08:03:30.000Z</time>
      </trkpt>
      <trkpt lat="44.12956" lon="7.24939">
        <ele>1860.1999511719</ele>
        <time>2019-02-10T08:03:38.000Z</time>
      </trkpt>
      <trkpt lat="44.1296" lon="7.24936">
        <ele>1861.1999511719</ele>
        <time>2019-02-10T08:03:43.000Z</time>
      </trkpt>
      <trkpt lat="44.12965" lon="7.24935">
        <ele>1861.8000488281</ele>
        <time>2019-02-10T08:03:50.000Z</time>
      </trkpt>
      <trkpt lat="44.12967" lon="7.24934">
        <ele>1862.4000244141</ele>
        <time>2019-02-10T08:03:55.000Z</time>
      </trkpt>
      <trkpt lat="44.12975" lon="7.24929">
        <ele>1863.4000244141</ele>
        <time>2019-02-10T08:04:07.000Z</time>
      </trkpt>
      <trkpt lat="44.12983" lon="7.24922">
        <ele>1864.5999755859</ele>
        <time>2019-02-10T08:04:22.000Z</time>
      </trkpt>
      <trkpt lat="44.12988" lon="7.24916">
        <ele>1865.5999755859</ele>
        <time>2019-02-10T08:04:29.000Z</time>
      </trkpt>
      <trkpt lat="44.12993" lon="7.24915">
        <ele>1866.5999755859</ele>
        <time>2019-02-10T08:04:40.000Z</time>
      </trkpt>
      <trkpt lat="44.12997" lon="7.24914">
        <ele>1867</ele>
        <time>2019-02-10T08:04:45.000Z</time>
      </trkpt>
      <trkpt lat="44.12999" lon="7.24909">
        <ele>1867.5999755859</ele>
        <time>2019-02-10T08:04:51.000Z</time>
      </trkpt>
      <trkpt lat="44.13004" lon="7.24905">
        <ele>1868.8000488281</ele>
        <time>2019-02-10T08:04:59.000Z</time>
      </trkpt>
      <trkpt lat="44.13005" lon="7.24904">
        <ele>1869</ele>
        <time>2019-02-10T08:05:01.000Z</time>
      </trkpt>
      <trkpt lat="44.13009" lon="7.24903">
        <ele>1869.8000488281</ele>
        <time>2019-02-10T08:05:08.000Z</time>
      </trkpt>
      <trkpt lat="44.13011" lon="7.24899">
        <ele>1870.8000488281</ele>
        <time>2019-02-10T08:05:15.000Z</time>
      </trkpt>
      <trkpt lat="44.13011" lon="7.24897">
        <ele>1871.1999511719</ele>
        <time>2019-02-10T08:05:18.000Z</time>
      </trkpt>
      <trkpt lat="44.13012" lon="7.24895">
        <ele>1871.8000488281</ele>
        <time>2019-02-10T08:05:21.000Z</time>
      </trkpt>
      <trkpt lat="44.13013" lon="7.24893">
        <ele>1872.4000244141</ele>
        <time>2019-02-10T08:05:24.000Z</time>
      </trkpt>
      <trkpt lat="44.13013" lon="7.2489">
        <ele>1873</ele>
        <time>2019-02-10T08:05:28.000Z</time>
      </trkpt>
      <trkpt lat="44.13016" lon="7.24887">
        <ele>1874</ele>
        <time>2019-02-10T08:05:37.000Z</time>
      </trkpt>
      <trkpt lat="44.1302" lon="7.24878">
        <ele>1875</ele>
        <time>2019-02-10T08:05:47.000Z</time>
      </trkpt>
      <trkpt lat="44.13023" lon="7.24873">
        <ele>1876.1999511719</ele>
        <time>2019-02-10T08:05:53.000Z</time>
      </trkpt>
      <trkpt lat="44.13028" lon="7.2487">
        <ele>1877.4000244141</ele>
        <time>2019-02-10T08:06:02.000Z</time>
      </trkpt>
      <trkpt lat="44.13031" lon="7.24867">
        <ele>1877.8000488281</ele>
        <time>2019-02-10T08:06:08.000Z</time>
      </trkpt>
      <trkpt lat="44.13033" lon="7.24863">
        <ele>1878.5999755859</ele>
        <time>2019-02-10T08:06:13.000Z</time>
      </trkpt>
      <trkpt lat="44.13037" lon="7.24857">
        <ele>1879.5999755859</ele>
        <time>2019-02-10T08:06:20.000Z</time>
      </trkpt>
      <trkpt lat="44.13038" lon="7.24853">
        <ele>1880.1999511719</ele>
        <time>2019-02-10T08:06:26.000Z</time>
      </trkpt>
      <trkpt lat="44.1304" lon="7.24852">
        <ele>1880.5999755859</ele>
        <time>2019-02-10T08:06:30.000Z</time>
      </trkpt>
      <trkpt lat="44.13044" lon="7.24852">
        <ele>1881.8000488281</ele>
        <time>2019-02-10T08:06:40.000Z</time>
      </trkpt>
      <trkpt lat="44.13055" lon="7.24833">
        <ele>1882.4000244141</ele>
        <time>2019-02-10T08:07:00.000Z</time>
      </trkpt>
      <trkpt lat="44.13056" lon="7.24832">
        <ele>1882.4000244141</ele>
        <time>2019-02-10T08:07:02.000Z</time>
      </trkpt>
      <trkpt lat="44.13057" lon="7.24831">
        <ele>1882.4000244141</ele>
        <time>2019-02-10T08:07:03.000Z</time>
      </trkpt>
      <trkpt lat="44.13058" lon="7.24827">
        <ele>1882.8000488281</ele>
        <time>2019-02-10T08:07:08.000Z</time>
      </trkpt>
      <trkpt lat="44.13058" lon="7.24825">
        <ele>1882.8000488281</ele>
        <time>2019-02-10T08:07:10.000Z</time>
      </trkpt>
      <trkpt lat="44.1306" lon="7.24818">
        <ele>1883.1999511719</ele>
        <time>2019-02-10T08:07:15.000Z</time>
      </trkpt>
      <trkpt lat="44.13064" lon="7.24816">
        <ele>1883.4000244141</ele>
        <time>2019-02-10T08:07:19.000Z</time>
      </trkpt>
      <trkpt lat="44.13069" lon="7.24817">
        <ele>1883.8000488281</ele>
        <time>2019-02-10T08:07:28.000Z</time>
      </trkpt>
      <trkpt lat="44.13078" lon="7.24808">
        <ele>1885</ele>
        <time>2019-02-10T08:07:41.000Z</time>
      </trkpt>
      <trkpt lat="44.13082" lon="7.24803">
        <ele>1886</ele>
        <time>2019-02-10T08:07:48.000Z</time>
      </trkpt>
      <trkpt lat="44.13089" lon="7.24793">
        <ele>1887</ele>
        <time>2019-02-10T08:07:59.000Z</time>
      </trkpt>
      <trkpt lat="44.13089" lon="7.24793">
        <ele>1887</ele>
        <time>2019-02-10T08:08:00.000Z</time>
      </trkpt>
      <trkpt lat="44.13091" lon="7.2479">
        <ele>1887.5999755859</ele>
        <time>2019-02-10T08:08:04.000Z</time>
      </trkpt>
      <trkpt lat="44.13092" lon="7.24787">
        <ele>1887.8000488281</ele>
        <time>2019-02-10T08:08:06.000Z</time>
      </trkpt>
      <trkpt lat="44.13093" lon="7.24784">
        <ele>1888</ele>
        <time>2019-02-10T08:08:10.000Z</time>
      </trkpt>
      <trkpt lat="44.13092" lon="7.24778">
        <ele>1888.5999755859</ele>
        <time>2019-02-10T08:08:14.000Z</time>
      </trkpt>
      <trkpt lat="44.13092" lon="7.24775">
        <ele>1888.8000488281</ele>
        <time>2019-02-10T08:08:17.000Z</time>
      </trkpt>
      <trkpt lat="44.13093" lon="7.24772">
        <ele>1889</ele>
        <time>2019-02-10T08:08:21.000Z</time>
      </trkpt>
      <trkpt lat="44.13097" lon="7.24762">
        <ele>1890.1999511719</ele>
        <time>2019-02-10T08:08:32.000Z</time>
      </trkpt>
      <trkpt lat="44.13099" lon="7.2476">
        <ele>1890.4000244141</ele>
        <time>2019-02-10T08:08:35.000Z</time>
      </trkpt>
      <trkpt lat="44.13099" lon="7.24759">
        <ele>1890.4000244141</ele>
        <time>2019-02-10T08:08:36.000Z</time>
      </trkpt>
      <trkpt lat="44.13101" lon="7.24755">
        <ele>1891.1999511719</ele>
        <time>2019-02-10T08:08:41.000Z</time>
      </trkpt>
      <trkpt lat="44.13102" lon="7.24752">
        <ele>1891.8000488281</ele>
        <time>2019-02-10T08:08:47.000Z</time>
      </trkpt>
      <trkpt lat="44.13102" lon="7.2475">
        <ele>1892</ele>
        <time>2019-02-10T08:08:48.000Z</time>
      </trkpt>
      <trkpt lat="44.13102" lon="7.2475">
        <ele>1892</ele>
        <time>2019-02-10T08:08:49.000Z</time>
      </trkpt>
      <trkpt lat="44.13103" lon="7.24748">
        <ele>1892.1999511719</ele>
        <time>2019-02-10T08:08:51.000Z</time>
      </trkpt>
      <trkpt lat="44.13108" lon="7.24739">
        <ele>1893.1999511719</ele>
        <time>2019-02-10T08:09:03.000Z</time>
      </trkpt>
      <trkpt lat="44.13109" lon="7.24737">
        <ele>1893.4000244141</ele>
        <time>2019-02-10T08:09:05.000Z</time>
      </trkpt>
      <trkpt lat="44.13115" lon="7.24725">
        <ele>1894.4000244141</ele>
        <time>2019-02-10T08:09:20.000Z</time>
      </trkpt>
      <trkpt lat="44.13117" lon="7.24722">
        <ele>1895.1999511719</ele>
        <time>2019-02-10T08:09:24.000Z</time>
      </trkpt>
      <trkpt lat="44.13119" lon="7.24719">
        <ele>1895.5999755859</ele>
        <time>2019-02-10T08:09:26.000Z</time>
      </trkpt>
      <trkpt lat="44.1312" lon="7.24716">
        <ele>1896.4000244141</ele>
        <time>2019-02-10T08:09:32.000Z</time>
      </trkpt>
      <trkpt lat="44.13121" lon="7.24714">
        <ele>1896.5999755859</ele>
        <time>2019-02-10T08:09:34.000Z</time>
      </trkpt>
      <trkpt lat="44.13123" lon="7.2471">
        <ele>1897.8000488281</ele>
        <time>2019-02-10T08:09:44.000Z</time>
      </trkpt>
      <trkpt lat="44.13123" lon="7.24714">
        <ele>1897.5999755859</ele>
        <time>2019-02-10T08:09:53.000Z</time>
      </trkpt>
      <trkpt lat="44.13126" lon="7.24715">
        <ele>1897.5999755859</ele>
        <time>2019-02-10T08:09:56.000Z</time>
      </trkpt>
      <trkpt lat="44.13123" lon="7.24721">
        <ele>1897.5999755859</ele>
        <time>2019-02-10T08:10:03.000Z</time>
      </trkpt>
      <trkpt lat="44.13124" lon="7.24723">
        <ele>1897.5999755859</ele>
        <time>2019-02-10T08:10:05.000Z</time>
      </trkpt>
      <trkpt lat="44.13125" lon="7.24724">
        <ele>1897.5999755859</ele>
        <time>2019-02-10T08:10:06.000Z</time>
      </trkpt>
      <trkpt lat="44.13123" lon="7.24725">
        <ele>1897.5999755859</ele>
        <time>2019-02-10T08:10:07.000Z</time>
      </trkpt>
      <trkpt lat="44.13126" lon="7.24727">
        <ele>1897.5999755859</ele>
        <time>2019-02-10T08:10:16.000Z</time>
      </trkpt>
      <trkpt lat="44.13126" lon="7.24727">
        <ele>1897.5999755859</ele>
        <time>2019-02-10T08:10:17.000Z</time>
      </trkpt>
      <trkpt lat="44.13126" lon="7.24722">
        <ele>1897.8000488281</ele>
        <time>2019-02-10T08:10:26.000Z</time>
      </trkpt>
      <trkpt lat="44.13124" lon="7.24721">
        <ele>1898</ele>
        <time>2019-02-10T08:10:28.000Z</time>
      </trkpt>
      <trkpt lat="44.13124" lon="7.2472">
        <ele>1898</ele>
        <time>2019-02-10T08:10:29.000Z</time>
      </trkpt>
      <trkpt lat="44.13124" lon="7.2472">
        <ele>1898</ele>
        <time>2019-02-10T08:10:30.000Z</time>
      </trkpt>
      <trkpt lat="44.13123" lon="7.2472">
        <ele>1898</ele>
        <time>2019-02-10T08:10:31.000Z</time>
      </trkpt>
      <trkpt lat="44.13123" lon="7.2472">
        <ele>1898</ele>
        <time>2019-02-10T08:10:32.000Z</time>
      </trkpt>
      <trkpt lat="44.13122" lon="7.24721">
        <ele>1898</ele>
        <time>2019-02-10T08:10:33.000Z</time>
      </trkpt>
      <trkpt lat="44.13122" lon="7.24721">
        <ele>1897.8000488281</ele>
        <time>2019-02-10T08:10:34.000Z</time>
      </trkpt>
      <trkpt lat="44.13124" lon="7.24718">
        <ele>1897.5999755859</ele>
        <time>2019-02-10T08:10:37.000Z</time>
      </trkpt>
      <trkpt lat="44.13125" lon="7.24717">
        <ele>1897.5999755859</ele>
        <time>2019-02-10T08:10:38.000Z</time>
      </trkpt>
      <trkpt lat="44.13126" lon="7.24716">
        <ele>1897.5999755859</ele>
        <time>2019-02-10T08:10:39.000Z</time>
      </trkpt>
      <trkpt lat="44.13127" lon="7.24715">
        <ele>1897.5999755859</ele>
        <time>2019-02-10T08:10:40.000Z</time>
      </trkpt>
      <trkpt lat="44.13129" lon="7.24713">
        <ele>1897.8000488281</ele>
        <time>2019-02-10T08:10:42.000Z</time>
      </trkpt>
      <trkpt lat="44.13129" lon="7.24712">
        <ele>1897.8000488281</ele>
        <time>2019-02-10T08:10:44.000Z</time>
      </trkpt>
      <trkpt lat="44.13131" lon="7.2471">
        <ele>1898</ele>
        <time>2019-02-10T08:10:49.000Z</time>
      </trkpt>
      <trkpt lat="44.13136" lon="7.24702">
        <ele>1898.8000488281</ele>
        <time>2019-02-10T08:10:58.000Z</time>
      </trkpt>
      <trkpt lat="44.13139" lon="7.247">
        <ele>1899</ele>
        <time>2019-02-10T08:11:02.000Z</time>
      </trkpt>
      <trkpt lat="44.1314" lon="7.247">
        <ele>1899</ele>
        <time>2019-02-10T08:11:05.000Z</time>
      </trkpt>
      <trkpt lat="44.13141" lon="7.24698">
        <ele>1899</ele>
        <time>2019-02-10T08:11:07.000Z</time>
      </trkpt>
      <trkpt lat="44.13142" lon="7.24695">
        <ele>1899.4000244141</ele>
        <time>2019-02-10T08:11:11.000Z</time>
      </trkpt>
      <trkpt lat="44.13143" lon="7.24694">
        <ele>1899.4000244141</ele>
        <time>2019-02-10T08:11:13.000Z</time>
      </trkpt>
      <trkpt lat="44.13144" lon="7.24693">
        <ele>1899.4000244141</ele>
        <time>2019-02-10T08:11:17.000Z</time>
      </trkpt>
      <trkpt lat="44.13145" lon="7.24692">
        <ele>1899.4000244141</ele>
        <time>2019-02-10T08:11:20.000Z</time>
      </trkpt>
      <trkpt lat="44.13145" lon="7.24692">
        <ele>1899.4000244141</ele>
        <time>2019-02-10T08:11:23.000Z</time>
      </trkpt>
      <trkpt lat="44.13145" lon="7.24692">
        <ele>1899.4000244141</ele>
        <time>2019-02-10T08:11:25.000Z</time>
      </trkpt>
      <trkpt lat="44.13148" lon="7.24688">
        <ele>1900</ele>
        <time>2019-02-10T08:11:32.000Z</time>
      </trkpt>
      <trkpt lat="44.13149" lon="7.24688">
        <ele>1900</ele>
        <time>2019-02-10T08:11:33.000Z</time>
      </trkpt>
      <trkpt lat="44.13149" lon="7.24687">
        <ele>1900.1999511719</ele>
        <time>2019-02-10T08:11:34.000Z</time>
      </trkpt>
      <trkpt lat="44.1315" lon="7.24687">
        <ele>1900.4000244141</ele>
        <time>2019-02-10T08:11:35.000Z</time>
      </trkpt>
      <trkpt lat="44.13151" lon="7.24686">
        <ele>1900.4000244141</ele>
        <time>2019-02-10T08:11:40.000Z</time>
      </trkpt>
      <trkpt lat="44.13152" lon="7.24685">
        <ele>1900.4000244141</ele>
        <time>2019-02-10T08:11:43.000Z</time>
      </trkpt>
      <trkpt lat="44.13152" lon="7.24684">
        <ele>1900.5999755859</ele>
        <time>2019-02-10T08:11:44.000Z</time>
      </trkpt>
      <trkpt lat="44.13155" lon="7.24683">
        <ele>1900.5999755859</ele>
        <time>2019-02-10T08:11:48.000Z</time>
      </trkpt>
      <trkpt lat="44.13159" lon="7.24679">
        <ele>1901</ele>
        <time>2019-02-10T08:11:55.000Z</time>
      </trkpt>
      <trkpt lat="44.1316" lon="7.24678">
        <ele>1901.1999511719</ele>
        <time>2019-02-10T08:11:57.000Z</time>
      </trkpt>
      <trkpt lat="44.13161" lon="7.24677">
        <ele>1901.4000244141</ele>
        <time>2019-02-10T08:11:59.000Z</time>
      </trkpt>
      <trkpt lat="44.13162" lon="7.24677">
        <ele>1901.8000488281</ele>
        <time>2019-02-10T08:12:02.000Z</time>
      </trkpt>
      <trkpt lat="44.13164" lon="7.24676">
        <ele>1902</ele>
        <time>2019-02-10T08:12:05.000Z</time>
      </trkpt>
      <trkpt lat="44.13168" lon="7.24671">
        <ele>1903</ele>
        <time>2019-02-10T08:12:14.000Z</time>
      </trkpt>
      <trkpt lat="44.13168" lon="7.24671">
        <ele>1903</ele>
        <time>2019-02-10T08:12:15.000Z</time>
      </trkpt>
      <trkpt lat="44.13171" lon="7.24671">
        <ele>1903.5999755859</ele>
        <time>2019-02-10T08:12:26.000Z</time>
      </trkpt>
      <trkpt lat="44.13172" lon="7.24669">
        <ele>1904</ele>
        <time>2019-02-10T08:12:28.000Z</time>
      </trkpt>
      <trkpt lat="44.13173" lon="7.24669">
        <ele>1904</ele>
        <time>2019-02-10T08:12:29.000Z</time>
      </trkpt>
      <trkpt lat="44.13173" lon="7.24668">
        <ele>1904.1999511719</ele>
        <time>2019-02-10T08:12:30.000Z</time>
      </trkpt>
      <trkpt lat="44.13176" lon="7.24664">
        <ele>1904.8000488281</ele>
        <time>2019-02-10T08:12:36.000Z</time>
      </trkpt>
      <trkpt lat="44.13178" lon="7.24663">
        <ele>1905</ele>
        <time>2019-02-10T08:12:38.000Z</time>
      </trkpt>
      <trkpt lat="44.13179" lon="7.24663">
        <ele>1905</ele>
        <time>2019-02-10T08:12:39.000Z</time>
      </trkpt>
      <trkpt lat="44.13182" lon="7.24659">
        <ele>1905.5999755859</ele>
        <time>2019-02-10T08:12:45.000Z</time>
      </trkpt>
      <trkpt lat="44.13184" lon="7.24655">
        <ele>1906.1999511719</ele>
        <time>2019-02-10T08:12:48.000Z</time>
      </trkpt>
      <trkpt lat="44.13184" lon="7.24655">
        <ele>1906.1999511719</ele>
        <time>2019-02-10T08:12:49.000Z</time>
      </trkpt>
      <trkpt lat="44.13187" lon="7.24648">
        <ele>1907</ele>
        <time>2019-02-10T08:12:57.000Z</time>
      </trkpt>
      <trkpt lat="44.13189" lon="7.24647">
        <ele>1907.1999511719</ele>
        <time>2019-02-10T08:12:59.000Z</time>
      </trkpt>
      <trkpt lat="44.13194" lon="7.24634">
        <ele>1908.1999511719</ele>
        <time>2019-02-10T08:13:08.000Z</time>
      </trkpt>
      <trkpt lat="44.13194" lon="7.24632">
        <ele>1908.4000244141</ele>
        <time>2019-02-10T08:13:09.000Z</time>
      </trkpt>
      <trkpt lat="44.13199" lon="7.24629">
        <ele>1909</ele>
        <time>2019-02-10T08:13:15.000Z</time>
      </trkpt>
      <trkpt lat="44.13199" lon="7.24629">
        <ele>1909.1999511719</ele>
        <time>2019-02-10T08:13:16.000Z</time>
      </trkpt>
      <trkpt lat="44.13201" lon="7.24627">
        <ele>1909.4000244141</ele>
        <time>2019-02-10T08:13:18.000Z</time>
      </trkpt>
      <trkpt lat="44.13202" lon="7.24627">
        <ele>1909.4000244141</ele>
        <time>2019-02-10T08:13:19.000Z</time>
      </trkpt>
      <trkpt lat="44.13202" lon="7.24626">
        <ele>1909.5999755859</ele>
        <time>2019-02-10T08:13:20.000Z</time>
      </trkpt>
      <trkpt lat="44.13206" lon="7.24625">
        <ele>1910.1999511719</ele>
        <time>2019-02-10T08:13:26.000Z</time>
      </trkpt>
      <trkpt lat="44.13208" lon="7.24625">
        <ele>1910.4000244141</ele>
        <time>2019-02-10T08:13:28.000Z</time>
      </trkpt>
      <trkpt lat="44.1321" lon="7.24625">
        <ele>1910.8000488281</ele>
        <time>2019-02-10T08:13:31.000Z</time>
      </trkpt>
      <trkpt lat="44.13212" lon="7.24625">
        <ele>1911.4000244141</ele>
        <time>2019-02-10T08:13:35.000Z</time>
      </trkpt>
      <trkpt lat="44.13221" lon="7.24618">
        <ele>1912.5999755859</ele>
        <time>2019-02-10T08:13:45.000Z</time>
      </trkpt>
      <trkpt lat="44.13225" lon="7.24616">
        <ele>1913.5999755859</ele>
        <time>2019-02-10T08:13:51.000Z</time>
      </trkpt>
      <trkpt lat="44.1323" lon="7.24609">
        <ele>1914.5999755859</ele>
        <time>2019-02-10T08:14:01.000Z</time>
      </trkpt>
      <trkpt lat="44.13234" lon="7.246">
        <ele>1915.5999755859</ele>
        <time>2019-02-10T08:14:10.000Z</time>
      </trkpt>
      <trkpt lat="44.13235" lon="7.246">
        <ele>1915.8000488281</ele>
        <time>2019-02-10T08:14:11.000Z</time>
      </trkpt>
      <trkpt lat="44.13236" lon="7.24597">
        <ele>1915.8000488281</ele>
        <time>2019-02-10T08:14:14.000Z</time>
      </trkpt>
      <trkpt lat="44.13236" lon="7.24593">
        <ele>1916.4000244141</ele>
        <time>2019-02-10T08:14:18.000Z</time>
      </trkpt>
      <trkpt lat="44.13236" lon="7.24591">
        <ele>1916.8000488281</ele>
        <time>2019-02-10T08:14:20.000Z</time>
      </trkpt>
      <trkpt lat="44.13237" lon="7.24589">
        <ele>1917.4000244141</ele>
        <time>2019-02-10T08:14:23.000Z</time>
      </trkpt>
      <trkpt lat="44.13237" lon="7.24588">
        <ele>1917.8000488281</ele>
        <time>2019-02-10T08:14:26.000Z</time>
      </trkpt>
      <trkpt lat="44.13237" lon="7.24579">
        <ele>1919</ele>
        <time>2019-02-10T08:14:37.000Z</time>
      </trkpt>
      <trkpt lat="44.13241" lon="7.24563">
        <ele>1919.5999755859</ele>
        <time>2019-02-10T08:14:50.000Z</time>
      </trkpt>
      <trkpt lat="44.13241" lon="7.2456">
        <ele>1920</ele>
        <time>2019-02-10T08:14:52.000Z</time>
      </trkpt>
      <trkpt lat="44.13248" lon="7.24548">
        <ele>1921.1999511719</ele>
        <time>2019-02-10T08:15:04.000Z</time>
      </trkpt>
      <trkpt lat="44.13254" lon="7.24543">
        <ele>1922</ele>
        <time>2019-02-10T08:15:13.000Z</time>
      </trkpt>
      <trkpt lat="44.13257" lon="7.2454">
        <ele>1922.1999511719</ele>
        <time>2019-02-10T08:15:16.000Z</time>
      </trkpt>
      <trkpt lat="44.13257" lon="7.24539">
        <ele>1922.4000244141</ele>
        <time>2019-02-10T08:15:18.000Z</time>
      </trkpt>
      <trkpt lat="44.13259" lon="7.24533">
        <ele>1923.4000244141</ele>
        <time>2019-02-10T08:15:24.000Z</time>
      </trkpt>
      <trkpt lat="44.13259" lon="7.24523">
        <ele>1924.1999511719</ele>
        <time>2019-02-10T08:15:33.000Z</time>
      </trkpt>
      <trkpt lat="44.1326" lon="7.24521">
        <ele>1924.4000244141</ele>
        <time>2019-02-10T08:15:34.000Z</time>
      </trkpt>
      <trkpt lat="44.13263" lon="7.24508">
        <ele>1925</ele>
        <time>2019-02-10T08:15:43.000Z</time>
      </trkpt>
      <trkpt lat="44.13266" lon="7.24504">
        <ele>1925.4000244141</ele>
        <time>2019-02-10T08:15:48.000Z</time>
      </trkpt>
      <trkpt lat="44.13268" lon="7.24502">
        <ele>1925.4000244141</ele>
        <time>2019-02-10T08:15:51.000Z</time>
      </trkpt>
      <trkpt lat="44.1327" lon="7.24494">
        <ele>1926.4000244141</ele>
        <time>2019-02-10T08:16:00.000Z</time>
      </trkpt>
      <trkpt lat="44.13272" lon="7.24483">
        <ele>1927.4000244141</ele>
        <time>2019-02-10T08:16:12.000Z</time>
      </trkpt>
      <trkpt lat="44.13273" lon="7.24473">
        <ele>1928.5999755859</ele>
        <time>2019-02-10T08:16:25.000Z</time>
      </trkpt>
      <trkpt lat="44.13277" lon="7.24451">
        <ele>1929.8000488281</ele>
        <time>2019-02-10T08:16:40.000Z</time>
      </trkpt>
      <trkpt lat="44.1328" lon="7.24447">
        <ele>1930.4000244141</ele>
        <time>2019-02-10T08:16:48.000Z</time>
      </trkpt>
      <trkpt lat="44.13282" lon="7.24443">
        <ele>1930.8000488281</ele>
        <time>2019-02-10T08:16:53.000Z</time>
      </trkpt>
      <trkpt lat="44.13283" lon="7.24438">
        <ele>1931.1999511719</ele>
        <time>2019-02-10T08:16:57.000Z</time>
      </trkpt>
      <trkpt lat="44.13285" lon="7.24433">
        <ele>1931.8000488281</ele>
        <time>2019-02-10T08:17:03.000Z</time>
      </trkpt>
      <trkpt lat="44.13286" lon="7.2443">
        <ele>1932.1999511719</ele>
        <time>2019-02-10T08:17:06.000Z</time>
      </trkpt>
      <trkpt lat="44.13289" lon="7.24424">
        <ele>1932.8000488281</ele>
        <time>2019-02-10T08:17:13.000Z</time>
      </trkpt>
      <trkpt lat="44.1329" lon="7.2442">
        <ele>1933</ele>
        <time>2019-02-10T08:17:18.000Z</time>
      </trkpt>
      <trkpt lat="44.13291" lon="7.24417">
        <ele>1933</ele>
        <time>2019-02-10T08:17:22.000Z</time>
      </trkpt>
      <trkpt lat="44.13295" lon="7.24407">
        <ele>1932.8000488281</ele>
        <time>2019-02-10T08:17:32.000Z</time>
      </trkpt>
      <trkpt lat="44.133" lon="7.24394">
        <ele>1933.8000488281</ele>
        <time>2019-02-10T08:17:45.000Z</time>
      </trkpt>
      <trkpt lat="44.13302" lon="7.2438">
        <ele>1934.8000488281</ele>
        <time>2019-02-10T08:17:57.000Z</time>
      </trkpt>
      <trkpt lat="44.13302" lon="7.24374">
        <ele>1935.4000244141</ele>
        <time>2019-02-10T08:18:03.000Z</time>
      </trkpt>
      <trkpt lat="44.13302" lon="7.24373">
        <ele>1935.5999755859</ele>
        <time>2019-02-10T08:18:04.000Z</time>
      </trkpt>
      <trkpt lat="44.13302" lon="7.24372">
        <ele>1936</ele>
        <time>2019-02-10T08:18:06.000Z</time>
      </trkpt>
      <trkpt lat="44.13302" lon="7.24366">
        <ele>1936.8000488281</ele>
        <time>2019-02-10T08:18:13.000Z</time>
      </trkpt>
      <trkpt lat="44.13302" lon="7.24365">
        <ele>1937</ele>
        <time>2019-02-10T08:18:15.000Z</time>
      </trkpt>
      <trkpt lat="44.13303" lon="7.24342">
        <ele>1938</ele>
        <time>2019-02-10T08:18:30.000Z</time>
      </trkpt>
      <trkpt lat="44.13303" lon="7.2434">
        <ele>1938.1999511719</ele>
        <time>2019-02-10T08:18:31.000Z</time>
      </trkpt>
      <trkpt lat="44.13303" lon="7.24339">
        <ele>1938.1999511719</ele>
        <time>2019-02-10T08:18:33.000Z</time>
      </trkpt>
      <trkpt lat="44.13303" lon="7.24328">
        <ele>1939</ele>
        <time>2019-02-10T08:18:45.000Z</time>
      </trkpt>
      <trkpt lat="44.13303" lon="7.24327">
        <ele>1939.1999511719</ele>
        <time>2019-02-10T08:18:46.000Z</time>
      </trkpt>
      <trkpt lat="44.13304" lon="7.24315">
        <ele>1940.1999511719</ele>
        <time>2019-02-10T08:18:55.000Z</time>
      </trkpt>
      <trkpt lat="44.13307" lon="7.24304">
        <ele>1941.1999511719</ele>
        <time>2019-02-10T08:19:06.000Z</time>
      </trkpt>
      <trkpt lat="44.13307" lon="7.24304">
        <ele>1941.1999511719</ele>
        <time>2019-02-10T08:19:07.000Z</time>
      </trkpt>
      <trkpt lat="44.13317" lon="7.24289">
        <ele>1942.1999511719</ele>
        <time>2019-02-10T08:19:25.000Z</time>
      </trkpt>
      <trkpt lat="44.13322" lon="7.24279">
        <ele>1943.4000244141</ele>
        <time>2019-02-10T08:19:35.000Z</time>
      </trkpt>
      <trkpt lat="44.13327" lon="7.24274">
        <ele>1944.4000244141</ele>
        <time>2019-02-10T08:19:45.000Z</time>
      </trkpt>
      <trkpt lat="44.1333" lon="7.24269">
        <ele>1945.5999755859</ele>
        <time>2019-02-10T08:19:54.000Z</time>
      </trkpt>
      <trkpt lat="44.13333" lon="7.24263">
        <ele>1946.5999755859</ele>
        <time>2019-02-10T08:20:03.000Z</time>
      </trkpt>
      <trkpt lat="44.13342" lon="7.24255">
        <ele>1947.5999755859</ele>
        <time>2019-02-10T08:20:18.000Z</time>
      </trkpt>
      <trkpt lat="44.13343" lon="7.24255">
        <ele>1947.5999755859</ele>
        <time>2019-02-10T08:20:19.000Z</time>
      </trkpt>
      <trkpt lat="44.13344" lon="7.24243">
        <ele>1948.5999755859</ele>
        <time>2019-02-10T08:20:30.000Z</time>
      </trkpt>
      <trkpt lat="44.13348" lon="7.24235">
        <ele>1949.5999755859</ele>
        <time>2019-02-10T08:20:40.000Z</time>
      </trkpt>
      <trkpt lat="44.1335" lon="7.24233">
        <ele>1949.8000488281</ele>
        <time>2019-02-10T08:20:43.000Z</time>
      </trkpt>
      <trkpt lat="44.13354" lon="7.24227">
        <ele>1950.5999755859</ele>
        <time>2019-02-10T08:20:51.000Z</time>
      </trkpt>
      <trkpt lat="44.13354" lon="7.24226">
        <ele>1950.5999755859</ele>
        <time>2019-02-10T08:20:52.000Z</time>
      </trkpt>
      <trkpt lat="44.13351" lon="7.24217">
        <ele>1951.5999755859</ele>
        <time>2019-02-10T08:21:03.000Z</time>
      </trkpt>
      <trkpt lat="44.13352" lon="7.24215">
        <ele>1951.8000488281</ele>
        <time>2019-02-10T08:21:06.000Z</time>
      </trkpt>
      <trkpt lat="44.13357" lon="7.24214">
        <ele>1952.5999755859</ele>
        <time>2019-02-10T08:21:13.000Z</time>
      </trkpt>
      <trkpt lat="44.1336" lon="7.24221">
        <ele>1953.1999511719</ele>
        <time>2019-02-10T08:21:18.000Z</time>
      </trkpt>
      <trkpt lat="44.13362" lon="7.24222">
        <ele>1953.8000488281</ele>
        <time>2019-02-10T08:21:21.000Z</time>
      </trkpt>
      <trkpt lat="44.13366" lon="7.24218">
        <ele>1954.8000488281</ele>
        <time>2019-02-10T08:21:33.000Z</time>
      </trkpt>
      <trkpt lat="44.13368" lon="7.24212">
        <ele>1956</ele>
        <time>2019-02-10T08:21:38.000Z</time>
      </trkpt>
      <trkpt lat="44.13369" lon="7.24205">
        <ele>1956.5999755859</ele>
        <time>2019-02-10T08:21:42.000Z</time>
      </trkpt>
      <trkpt lat="44.13369" lon="7.24202">
        <ele>1957</ele>
        <time>2019-02-10T08:21:45.000Z</time>
      </trkpt>
      <trkpt lat="44.13371" lon="7.242">
        <ele>1957.5999755859</ele>
        <time>2019-02-10T08:21:49.000Z</time>
      </trkpt>
      <trkpt lat="44.13371" lon="7.24198">
        <ele>1958.1999511719</ele>
        <time>2019-02-10T08:21:53.000Z</time>
      </trkpt>
      <trkpt lat="44.13375" lon="7.24194">
        <ele>1959.1999511719</ele>
        <time>2019-02-10T08:22:01.000Z</time>
      </trkpt>
      <trkpt lat="44.13379" lon="7.24191">
        <ele>1960.1999511719</ele>
        <time>2019-02-10T08:22:09.000Z</time>
      </trkpt>
      <trkpt lat="44.13387" lon="7.24177">
        <ele>1961.4000244141</ele>
        <time>2019-02-10T08:22:24.000Z</time>
      </trkpt>
      <trkpt lat="44.13387" lon="7.24176">
        <ele>1961.5999755859</ele>
        <time>2019-02-10T08:22:25.000Z</time>
      </trkpt>
      <trkpt lat="44.13388" lon="7.24175">
        <ele>1961.8000488281</ele>
        <time>2019-02-10T08:22:27.000Z</time>
      </trkpt>
      <trkpt lat="44.13391" lon="7.24163">
        <ele>1962.4000244141</ele>
        <time>2019-02-10T08:22:36.000Z</time>
      </trkpt>
      <trkpt lat="44.13393" lon="7.24154">
        <ele>1963.5999755859</ele>
        <time>2019-02-10T08:22:44.000Z</time>
      </trkpt>
      <trkpt lat="44.13396" lon="7.24146">
        <ele>1964.5999755859</ele>
        <time>2019-02-10T08:22:53.000Z</time>
      </trkpt>
      <trkpt lat="44.13397" lon="7.24138">
        <ele>1965.5999755859</ele>
        <time>2019-02-10T08:23:03.000Z</time>
      </trkpt>
      <trkpt lat="44.13401" lon="7.24128">
        <ele>1966.5999755859</ele>
        <time>2019-02-10T08:23:15.000Z</time>
      </trkpt>
      <trkpt lat="44.13403" lon="7.24126">
        <ele>1966.8000488281</ele>
        <time>2019-02-10T08:23:17.000Z</time>
      </trkpt>
      <trkpt lat="44.13404" lon="7.24125">
        <ele>1967</ele>
        <time>2019-02-10T08:23:18.000Z</time>
      </trkpt>
      <trkpt lat="44.13404" lon="7.24124">
        <ele>1967.1999511719</ele>
        <time>2019-02-10T08:23:19.000Z</time>
      </trkpt>
      <trkpt lat="44.13408" lon="7.24122">
        <ele>1967.8000488281</ele>
        <time>2019-02-10T08:23:24.000Z</time>
      </trkpt>
      <trkpt lat="44.1341" lon="7.24119">
        <ele>1968.1999511719</ele>
        <time>2019-02-10T08:23:27.000Z</time>
      </trkpt>
      <trkpt lat="44.13412" lon="7.24114">
        <ele>1968.4000244141</ele>
        <time>2019-02-10T08:23:31.000Z</time>
      </trkpt>
      <trkpt lat="44.13414" lon="7.24109">
        <ele>1968.8000488281</ele>
        <time>2019-02-10T08:23:36.000Z</time>
      </trkpt>
      <trkpt lat="44.13415" lon="7.24108">
        <ele>1968.8000488281</ele>
        <time>2019-02-10T08:23:37.000Z</time>
      </trkpt>
      <trkpt lat="44.13415" lon="7.24107">
        <ele>1969</ele>
        <time>2019-02-10T08:23:39.000Z</time>
      </trkpt>
      <trkpt lat="44.13416" lon="7.24106">
        <ele>1969.1999511719</ele>
        <time>2019-02-10T08:23:41.000Z</time>
      </trkpt>
      <trkpt lat="44.13417" lon="7.24104">
        <ele>1970</ele>
        <time>2019-02-10T08:23:44.000Z</time>
      </trkpt>
      <trkpt lat="44.13417" lon="7.24102">
        <ele>1970.1999511719</ele>
        <time>2019-02-10T08:23:46.000Z</time>
      </trkpt>
      <trkpt lat="44.13417" lon="7.24101">
        <ele>1970.4000244141</ele>
        <time>2019-02-10T08:23:48.000Z</time>
      </trkpt>
      <trkpt lat="44.13417" lon="7.24099">
        <ele>1970.4000244141</ele>
        <time>2019-02-10T08:23:49.000Z</time>
      </trkpt>
      <trkpt lat="44.13419" lon="7.24092">
        <ele>1971</ele>
        <time>2019-02-10T08:23:56.000Z</time>
      </trkpt>
      <trkpt lat="44.13419" lon="7.24086">
        <ele>1972</ele>
        <time>2019-02-10T08:24:03.000Z</time>
      </trkpt>
      <trkpt lat="44.13419" lon="7.24084">
        <ele>1972.1999511719</ele>
        <time>2019-02-10T08:24:04.000Z</time>
      </trkpt>
      <trkpt lat="44.13419" lon="7.24081">
        <ele>1972.5999755859</ele>
        <time>2019-02-10T08:24:07.000Z</time>
      </trkpt>
      <trkpt lat="44.13418" lon="7.24079">
        <ele>1973</ele>
        <time>2019-02-10T08:24:12.000Z</time>
      </trkpt>
      <trkpt lat="44.13418" lon="7.24079">
        <ele>1973.1999511719</ele>
        <time>2019-02-10T08:24:13.000Z</time>
      </trkpt>
      <trkpt lat="44.13419" lon="7.24077">
        <ele>1973.5999755859</ele>
        <time>2019-02-10T08:24:16.000Z</time>
      </trkpt>
      <trkpt lat="44.13419" lon="7.24073">
        <ele>1974</ele>
        <time>2019-02-10T08:24:19.000Z</time>
      </trkpt>
      <trkpt lat="44.1342" lon="7.24072">
        <ele>1974.1999511719</ele>
        <time>2019-02-10T08:24:20.000Z</time>
      </trkpt>
      <trkpt lat="44.13421" lon="7.24066">
        <ele>1974.8000488281</ele>
        <time>2019-02-10T08:24:26.000Z</time>
      </trkpt>
      <trkpt lat="44.13422" lon="7.24065">
        <ele>1975</ele>
        <time>2019-02-10T08:24:27.000Z</time>
      </trkpt>
      <trkpt lat="44.13423" lon="7.24064">
        <ele>1975.4000244141</ele>
        <time>2019-02-10T08:24:30.000Z</time>
      </trkpt>
      <trkpt lat="44.13425" lon="7.24059">
        <ele>1976.4000244141</ele>
        <time>2019-02-10T08:24:35.000Z</time>
      </trkpt>
      <trkpt lat="44.13426" lon="7.24054">
        <ele>1977</ele>
        <time>2019-02-10T08:24:42.000Z</time>
      </trkpt>
      <trkpt lat="44.13426" lon="7.24048">
        <ele>1977.4000244141</ele>
        <time>2019-02-10T08:24:47.000Z</time>
      </trkpt>
      <trkpt lat="44.13426" lon="7.24046">
        <ele>1977.4000244141</ele>
        <time>2019-02-10T08:24:48.000Z</time>
      </trkpt>
      <trkpt lat="44.13428" lon="7.24041">
        <ele>1977.8000488281</ele>
        <time>2019-02-10T08:24:52.000Z</time>
      </trkpt>
      <trkpt lat="44.13429" lon="7.24036">
        <ele>1978.1999511719</ele>
        <time>2019-02-10T08:24:55.000Z</time>
      </trkpt>
      <trkpt lat="44.13429" lon="7.24032">
        <ele>1978.5999755859</ele>
        <time>2019-02-10T08:24:58.000Z</time>
      </trkpt>
      <trkpt lat="44.13429" lon="7.24025">
        <ele>1979.5999755859</ele>
        <time>2019-02-10T08:25:07.000Z</time>
      </trkpt>
      <trkpt lat="44.1343" lon="7.2402">
        <ele>1980.4000244141</ele>
        <time>2019-02-10T08:25:13.000Z</time>
      </trkpt>
      <trkpt lat="44.1343" lon="7.24019">
        <ele>1980.5999755859</ele>
        <time>2019-02-10T08:25:14.000Z</time>
      </trkpt>
      <trkpt lat="44.13432" lon="7.24016">
        <ele>1981.4000244141</ele>
        <time>2019-02-10T08:25:23.000Z</time>
      </trkpt>
      <trkpt lat="44.13434" lon="7.24012">
        <ele>1981.5999755859</ele>
        <time>2019-02-10T08:25:27.000Z</time>
      </trkpt>
      <trkpt lat="44.13435" lon="7.24011">
        <ele>1981.8000488281</ele>
        <time>2019-02-10T08:25:28.000Z</time>
      </trkpt>
      <trkpt lat="44.13436" lon="7.24007">
        <ele>1982.1999511719</ele>
        <time>2019-02-10T08:25:32.000Z</time>
      </trkpt>
      <trkpt lat="44.13434" lon="7.24003">
        <ele>1982.5999755859</ele>
        <time>2019-02-10T08:25:36.000Z</time>
      </trkpt>
      <trkpt lat="44.13432" lon="7.23987">
        <ele>1983.8000488281</ele>
        <time>2019-02-10T08:25:48.000Z</time>
      </trkpt>
      <trkpt lat="44.13433" lon="7.23983">
        <ele>1984.5999755859</ele>
        <time>2019-02-10T08:25:54.000Z</time>
      </trkpt>
      <trkpt lat="44.13433" lon="7.23982">
        <ele>1984.5999755859</ele>
        <time>2019-02-10T08:25:55.000Z</time>
      </trkpt>
      <trkpt lat="44.13433" lon="7.2398">
        <ele>1984.5999755859</ele>
        <time>2019-02-10T08:25:56.000Z</time>
      </trkpt>
      <trkpt lat="44.13434" lon="7.23979">
        <ele>1984.8000488281</ele>
        <time>2019-02-10T08:25:57.000Z</time>
      </trkpt>
      <trkpt lat="44.13434" lon="7.23978">
        <ele>1984.8000488281</ele>
        <time>2019-02-10T08:25:58.000Z</time>
      </trkpt>
      <trkpt lat="44.13434" lon="7.23977">
        <ele>1984.8000488281</ele>
        <time>2019-02-10T08:25:59.000Z</time>
      </trkpt>
      <trkpt lat="44.13434" lon="7.23972">
        <ele>1985</ele>
        <time>2019-02-10T08:26:04.000Z</time>
      </trkpt>
      <trkpt lat="44.13434" lon="7.23966">
        <ele>1985</ele>
        <time>2019-02-10T08:26:09.000Z</time>
      </trkpt>
      <trkpt lat="44.13434" lon="7.23961">
        <ele>1985.1999511719</ele>
        <time>2019-02-10T08:26:13.000Z</time>
      </trkpt>
      <trkpt lat="44.13435" lon="7.23957">
        <ele>1985.4000244141</ele>
        <time>2019-02-10T08:26:16.000Z</time>
      </trkpt>
      <trkpt lat="44.13435" lon="7.23947">
        <ele>1985.8000488281</ele>
        <time>2019-02-10T08:26:25.000Z</time>
      </trkpt>
      <trkpt lat="44.13439" lon="7.23941">
        <ele>1986.8000488281</ele>
        <time>2019-02-10T08:26:33.000Z</time>
      </trkpt>
      <trkpt lat="44.13439" lon="7.2394">
        <ele>1987</ele>
        <time>2019-02-10T08:26:35.000Z</time>
      </trkpt>
      <trkpt lat="44.13441" lon="7.23928">
        <ele>1987.5999755859</ele>
        <time>2019-02-10T08:26:46.000Z</time>
      </trkpt>
      <trkpt lat="44.13443" lon="7.23923">
        <ele>1988</ele>
        <time>2019-02-10T08:26:50.000Z</time>
      </trkpt>
      <trkpt lat="44.13444" lon="7.23917">
        <ele>1988.1999511719</ele>
        <time>2019-02-10T08:26:56.000Z</time>
      </trkpt>
      <trkpt lat="44.13447" lon="7.23913">
        <ele>1988.8000488281</ele>
        <time>2019-02-10T08:27:01.000Z</time>
      </trkpt>
      <trkpt lat="44.13448" lon="7.23911">
        <ele>1989.1999511719</ele>
        <time>2019-02-10T08:27:03.000Z</time>
      </trkpt>
      <trkpt lat="44.13451" lon="7.239">
        <ele>1989.5999755859</ele>
        <time>2019-02-10T08:27:12.000Z</time>
      </trkpt>
      <trkpt lat="44.13454" lon="7.2389">
        <ele>1989.8000488281</ele>
        <time>2019-02-10T08:27:23.000Z</time>
      </trkpt>
      <trkpt lat="44.13455" lon="7.23886">
        <ele>1989.8000488281</ele>
        <time>2019-02-10T08:27:28.000Z</time>
      </trkpt>
      <trkpt lat="44.13457" lon="7.23884">
        <ele>1989.8000488281</ele>
        <time>2019-02-10T08:27:32.000Z</time>
      </trkpt>
      <trkpt lat="44.13458" lon="7.23881">
        <ele>1990.1999511719</ele>
        <time>2019-02-10T08:27:35.000Z</time>
      </trkpt>
      <trkpt lat="44.13459" lon="7.23876">
        <ele>1990.1999511719</ele>
        <time>2019-02-10T08:27:39.000Z</time>
      </trkpt>
      <trkpt lat="44.13463" lon="7.23871">
        <ele>1990.5999755859</ele>
        <time>2019-02-10T08:27:45.000Z</time>
      </trkpt>
      <trkpt lat="44.13465" lon="7.23867">
        <ele>1990.5999755859</ele>
        <time>2019-02-10T08:27:50.000Z</time>
      </trkpt>
      <trkpt lat="44.13466" lon="7.23864">
        <ele>1991.1999511719</ele>
        <time>2019-02-10T08:27:54.000Z</time>
      </trkpt>
      <trkpt lat="44.13466" lon="7.23863">
        <ele>1991.1999511719</ele>
        <time>2019-02-10T08:27:55.000Z</time>
      </trkpt>
      <trkpt lat="44.13467" lon="7.23854">
        <ele>1992.1999511719</ele>
        <time>2019-02-10T08:28:06.000Z</time>
      </trkpt>
      <trkpt lat="44.13468" lon="7.23853">
        <ele>1992.4000244141</ele>
        <time>2019-02-10T08:28:07.000Z</time>
      </trkpt>
      <trkpt lat="44.13476" lon="7.23839">
        <ele>1993.4000244141</ele>
        <time>2019-02-10T08:28:21.000Z</time>
      </trkpt>
      <trkpt lat="44.13478" lon="7.23836">
        <ele>1993.5999755859</ele>
        <time>2019-02-10T08:28:25.000Z</time>
      </trkpt>
      <trkpt lat="44.1348" lon="7.23829">
        <ele>1994.4000244141</ele>
        <time>2019-02-10T08:28:34.000Z</time>
      </trkpt>
      <trkpt lat="44.1348" lon="7.23829">
        <ele>1994.4000244141</ele>
        <time>2019-02-10T08:28:35.000Z</time>
      </trkpt>
      <trkpt lat="44.13481" lon="7.23826">
        <ele>1994.5999755859</ele>
        <time>2019-02-10T08:28:39.000Z</time>
      </trkpt>
      <trkpt lat="44.13482" lon="7.23823">
        <ele>1994.8000488281</ele>
        <time>2019-02-10T08:28:43.000Z</time>
      </trkpt>
      <trkpt lat="44.13483" lon="7.23822">
        <ele>1994.8000488281</ele>
        <time>2019-02-10T08:28:44.000Z</time>
      </trkpt>
      <trkpt lat="44.13483" lon="7.2382">
        <ele>1995</ele>
        <time>2019-02-10T08:28:46.000Z</time>
      </trkpt>
      <trkpt lat="44.13486" lon="7.2381">
        <ele>1995.1999511719</ele>
        <time>2019-02-10T08:28:52.000Z</time>
      </trkpt>
      <trkpt lat="44.13488" lon="7.23804">
        <ele>1995.4000244141</ele>
        <time>2019-02-10T08:28:58.000Z</time>
      </trkpt>
      <trkpt lat="44.13491" lon="7.23799">
        <ele>1996.4000244141</ele>
        <time>2019-02-10T08:29:06.000Z</time>
      </trkpt>
      <trkpt lat="44.13493" lon="7.23795">
        <ele>1996.8000488281</ele>
        <time>2019-02-10T08:29:10.000Z</time>
      </trkpt>
      <trkpt lat="44.13498" lon="7.23783">
        <ele>1997</ele>
        <time>2019-02-10T08:29:22.000Z</time>
      </trkpt>
      <trkpt lat="44.135" lon="7.23781">
        <ele>1997.5999755859</ele>
        <time>2019-02-10T08:29:27.000Z</time>
      </trkpt>
      <trkpt lat="44.13501" lon="7.23779">
        <ele>1997.8000488281</ele>
        <time>2019-02-10T08:29:30.000Z</time>
      </trkpt>
      <trkpt lat="44.13505" lon="7.23773">
        <ele>1998.1999511719</ele>
        <time>2019-02-10T08:29:36.000Z</time>
      </trkpt>
      <trkpt lat="44.13506" lon="7.23771">
        <ele>1998.4000244141</ele>
        <time>2019-02-10T08:29:39.000Z</time>
      </trkpt>
      <trkpt lat="44.13507" lon="7.23771">
        <ele>1998.5999755859</ele>
        <time>2019-02-10T08:29:40.000Z</time>
      </trkpt>
      <trkpt lat="44.13507" lon="7.2377">
        <ele>1998.5999755859</ele>
        <time>2019-02-10T08:29:41.000Z</time>
      </trkpt>
      <trkpt lat="44.13514" lon="7.23762">
        <ele>1999.4000244141</ele>
        <time>2019-02-10T08:29:51.000Z</time>
      </trkpt>
      <trkpt lat="44.13515" lon="7.2376">
        <ele>1999.4000244141</ele>
        <time>2019-02-10T08:29:52.000Z</time>
      </trkpt>
      <trkpt lat="44.13515" lon="7.23759">
        <ele>1999.5999755859</ele>
        <time>2019-02-10T08:29:53.000Z</time>
      </trkpt>
      <trkpt lat="44.13516" lon="7.23758">
        <ele>1999.5999755859</ele>
        <time>2019-02-10T08:29:54.000Z</time>
      </trkpt>
      <trkpt lat="44.13516" lon="7.23756">
        <ele>1999.5999755859</ele>
        <time>2019-02-10T08:29:55.000Z</time>
      </trkpt>
      <trkpt lat="44.13517" lon="7.23754">
        <ele>1999.8000488281</ele>
        <time>2019-02-10T08:29:57.000Z</time>
      </trkpt>
      <trkpt lat="44.13519" lon="7.2375">
        <ele>2000.4000244141</ele>
        <time>2019-02-10T08:30:01.000Z</time>
      </trkpt>
      <trkpt lat="44.13519" lon="7.23747">
        <ele>2000.5999755859</ele>
        <time>2019-02-10T08:30:03.000Z</time>
      </trkpt>
      <trkpt lat="44.13519" lon="7.23745">
        <ele>2000.5999755859</ele>
        <time>2019-02-10T08:30:06.000Z</time>
      </trkpt>
      <trkpt lat="44.1352" lon="7.23743">
        <ele>2001</ele>
        <time>2019-02-10T08:30:08.000Z</time>
      </trkpt>
      <trkpt lat="44.1352" lon="7.2374">
        <ele>2001.8000488281</ele>
        <time>2019-02-10T08:30:12.000Z</time>
      </trkpt>
      <trkpt lat="44.13521" lon="7.23727">
        <ele>2002.5999755859</ele>
        <time>2019-02-10T08:30:28.000Z</time>
      </trkpt>
      <trkpt lat="44.13522" lon="7.23723">
        <ele>2002.8000488281</ele>
        <time>2019-02-10T08:30:31.000Z</time>
      </trkpt>
      <trkpt lat="44.13524" lon="7.23719">
        <ele>2003.1999511719</ele>
        <time>2019-02-10T08:30:36.000Z</time>
      </trkpt>
      <trkpt lat="44.13525" lon="7.23717">
        <ele>2003.4000244141</ele>
        <time>2019-02-10T08:30:38.000Z</time>
      </trkpt>
      <trkpt lat="44.13525" lon="7.23714">
        <ele>2003.8000488281</ele>
        <time>2019-02-10T08:30:41.000Z</time>
      </trkpt>
      <trkpt lat="44.13526" lon="7.23708">
        <ele>2004.5999755859</ele>
        <time>2019-02-10T08:30:48.000Z</time>
      </trkpt>
      <trkpt lat="44.13526" lon="7.23708">
        <ele>2004.8000488281</ele>
        <time>2019-02-10T08:30:49.000Z</time>
      </trkpt>
      <trkpt lat="44.13527" lon="7.23707">
        <ele>2004.8000488281</ele>
        <time>2019-02-10T08:30:50.000Z</time>
      </trkpt>
      <trkpt lat="44.13531" lon="7.23695">
        <ele>2005.8000488281</ele>
        <time>2019-02-10T08:31:02.000Z</time>
      </trkpt>
      <trkpt lat="44.1353" lon="7.2369">
        <ele>2005.8000488281</ele>
        <time>2019-02-10T08:31:06.000Z</time>
      </trkpt>
      <trkpt lat="44.13533" lon="7.23679">
        <ele>2007</ele>
        <time>2019-02-10T08:31:23.000Z</time>
      </trkpt>
      <trkpt lat="44.13533" lon="7.23678">
        <ele>2007</ele>
        <time>2019-02-10T08:31:24.000Z</time>
      </trkpt>
      <trkpt lat="44.13534" lon="7.23676">
        <ele>2007.1999511719</ele>
        <time>2019-02-10T08:31:27.000Z</time>
      </trkpt>
      <trkpt lat="44.13536" lon="7.23672">
        <ele>2007.4000244141</ele>
        <time>2019-02-10T08:31:30.000Z</time>
      </trkpt>
      <trkpt lat="44.13538" lon="7.23669">
        <ele>2007.5999755859</ele>
        <time>2019-02-10T08:31:33.000Z</time>
      </trkpt>
      <trkpt lat="44.13538" lon="7.23668">
        <ele>2007.5999755859</ele>
        <time>2019-02-10T08:31:34.000Z</time>
      </trkpt>
      <trkpt lat="44.1354" lon="7.23664">
        <ele>2007.8000488281</ele>
        <time>2019-02-10T08:31:37.000Z</time>
      </trkpt>
      <trkpt lat="44.1354" lon="7.23661">
        <ele>2007.8000488281</ele>
        <time>2019-02-10T08:31:39.000Z</time>
      </trkpt>
      <trkpt lat="44.13541" lon="7.2366">
        <ele>2008</ele>
        <time>2019-02-10T08:31:40.000Z</time>
      </trkpt>
      <trkpt lat="44.13545" lon="7.2365">
        <ele>2008.5999755859</ele>
        <time>2019-02-10T08:31:50.000Z</time>
      </trkpt>
      <trkpt lat="44.13545" lon="7.23649">
        <ele>2008.8000488281</ele>
        <time>2019-02-10T08:31:51.000Z</time>
      </trkpt>
      <trkpt lat="44.13545" lon="7.23645">
        <ele>2009</ele>
        <time>2019-02-10T08:31:55.000Z</time>
      </trkpt>
      <trkpt lat="44.13545" lon="7.23644">
        <ele>2009.1999511719</ele>
        <time>2019-02-10T08:31:56.000Z</time>
      </trkpt>
      <trkpt lat="44.13546" lon="7.23643">
        <ele>2009.1999511719</ele>
        <time>2019-02-10T08:31:57.000Z</time>
      </trkpt>
      <trkpt lat="44.13546" lon="7.23642">
        <ele>2009.4000244141</ele>
        <time>2019-02-10T08:31:58.000Z</time>
      </trkpt>
      <trkpt lat="44.13547" lon="7.2364">
        <ele>2009.5999755859</ele>
        <time>2019-02-10T08:32:00.000Z</time>
      </trkpt>
      <trkpt lat="44.13549" lon="7.23634">
        <ele>2010</ele>
        <time>2019-02-10T08:32:06.000Z</time>
      </trkpt>
      <trkpt lat="44.13549" lon="7.23633">
        <ele>2010.1999511719</ele>
        <time>2019-02-10T08:32:07.000Z</time>
      </trkpt>
      <trkpt lat="44.13551" lon="7.23631">
        <ele>2010.4000244141</ele>
        <time>2019-02-10T08:32:09.000Z</time>
      </trkpt>
      <trkpt lat="44.13551" lon="7.23629">
        <ele>2010.4000244141</ele>
        <time>2019-02-10T08:32:10.000Z</time>
      </trkpt>
      <trkpt lat="44.13552" lon="7.23624">
        <ele>2010.8000488281</ele>
        <time>2019-02-10T08:32:15.000Z</time>
      </trkpt>
      <trkpt lat="44.13552" lon="7.2362">
        <ele>2011.1999511719</ele>
        <time>2019-02-10T08:32:19.000Z</time>
      </trkpt>
      <trkpt lat="44.13553" lon="7.23618">
        <ele>2011.1999511719</ele>
        <time>2019-02-10T08:32:20.000Z</time>
      </trkpt>
      <trkpt lat="44.13555" lon="7.23615">
        <ele>2011.5999755859</ele>
        <time>2019-02-10T08:32:24.000Z</time>
      </trkpt>
      <trkpt lat="44.13557" lon="7.23613">
        <ele>2012.1999511719</ele>
        <time>2019-02-10T08:32:30.000Z</time>
      </trkpt>
      <trkpt lat="44.1356" lon="7.23609">
        <ele>2012.5999755859</ele>
        <time>2019-02-10T08:32:36.000Z</time>
      </trkpt>
      <trkpt lat="44.13563" lon="7.23601">
        <ele>2013.1999511719</ele>
        <time>2019-02-10T08:32:45.000Z</time>
      </trkpt>
      <trkpt lat="44.13563" lon="7.23598">
        <ele>2013.5999755859</ele>
        <time>2019-02-10T08:32:48.000Z</time>
      </trkpt>
      <trkpt lat="44.13564" lon="7.23597">
        <ele>2013.8000488281</ele>
        <time>2019-02-10T08:32:51.000Z</time>
      </trkpt>
      <trkpt lat="44.13566" lon="7.23594">
        <ele>2014.4000244141</ele>
        <time>2019-02-10T08:32:56.000Z</time>
      </trkpt>
      <trkpt lat="44.1357" lon="7.23582">
        <ele>2015.4000244141</ele>
        <time>2019-02-10T08:33:07.000Z</time>
      </trkpt>
      <trkpt lat="44.13571" lon="7.2358">
        <ele>2015.5999755859</ele>
        <time>2019-02-10T08:33:09.000Z</time>
      </trkpt>
      <trkpt lat="44.13571" lon="7.23577">
        <ele>2015.8000488281</ele>
        <time>2019-02-10T08:33:11.000Z</time>
      </trkpt>
      <trkpt lat="44.13572" lon="7.23576">
        <ele>2016</ele>
        <time>2019-02-10T08:33:13.000Z</time>
      </trkpt>
      <trkpt lat="44.13573" lon="7.23575">
        <ele>2016.4000244141</ele>
        <time>2019-02-10T08:33:17.000Z</time>
      </trkpt>
      <trkpt lat="44.13578" lon="7.23564">
        <ele>2017.4000244141</ele>
        <time>2019-02-10T08:33:27.000Z</time>
      </trkpt>
      <trkpt lat="44.13582" lon="7.23557">
        <ele>2018.4000244141</ele>
        <time>2019-02-10T08:33:38.000Z</time>
      </trkpt>
      <trkpt lat="44.13583" lon="7.23553">
        <ele>2019</ele>
        <time>2019-02-10T08:33:43.000Z</time>
      </trkpt>
      <trkpt lat="44.13584" lon="7.23551">
        <ele>2019.5999755859</ele>
        <time>2019-02-10T08:33:47.000Z</time>
      </trkpt>
      <trkpt lat="44.13585" lon="7.2355">
        <ele>2019.8000488281</ele>
        <time>2019-02-10T08:33:49.000Z</time>
      </trkpt>
      <trkpt lat="44.13586" lon="7.23543">
        <ele>2020.5999755859</ele>
        <time>2019-02-10T08:33:57.000Z</time>
      </trkpt>
      <trkpt lat="44.13586" lon="7.23533">
        <ele>2021.5999755859</ele>
        <time>2019-02-10T08:34:05.000Z</time>
      </trkpt>
      <trkpt lat="44.13586" lon="7.23525">
        <ele>2022.8000488281</ele>
        <time>2019-02-10T08:34:13.000Z</time>
      </trkpt>
      <trkpt lat="44.13586" lon="7.2352">
        <ele>2023.4000244141</ele>
        <time>2019-02-10T08:34:20.000Z</time>
      </trkpt>
      <trkpt lat="44.13586" lon="7.23519">
        <ele>2023.4000244141</ele>
        <time>2019-02-10T08:34:22.000Z</time>
      </trkpt>
      <trkpt lat="44.13585" lon="7.23516">
        <ele>2023.8000488281</ele>
        <time>2019-02-10T08:34:26.000Z</time>
      </trkpt>
      <trkpt lat="44.13587" lon="7.2351">
        <ele>2024.4000244141</ele>
        <time>2019-02-10T08:34:32.000Z</time>
      </trkpt>
      <trkpt lat="44.13588" lon="7.23509">
        <ele>2024.5999755859</ele>
        <time>2019-02-10T08:34:33.000Z</time>
      </trkpt>
      <trkpt lat="44.13588" lon="7.23507">
        <ele>2025</ele>
        <time>2019-02-10T08:34:36.000Z</time>
      </trkpt>
      <trkpt lat="44.13589" lon="7.23503">
        <ele>2026</ele>
        <time>2019-02-10T08:34:41.000Z</time>
      </trkpt>
      <trkpt lat="44.13592" lon="7.23499">
        <ele>2027</ele>
        <time>2019-02-10T08:34:48.000Z</time>
      </trkpt>
      <trkpt lat="44.13595" lon="7.2349">
        <ele>2028.1999511719</ele>
        <time>2019-02-10T08:34:58.000Z</time>
      </trkpt>
      <trkpt lat="44.13595" lon="7.23482">
        <ele>2029.1999511719</ele>
        <time>2019-02-10T08:35:07.000Z</time>
      </trkpt>
      <trkpt lat="44.13596" lon="7.23476">
        <ele>2030.1999511719</ele>
        <time>2019-02-10T08:35:15.000Z</time>
      </trkpt>
      <trkpt lat="44.13596" lon="7.23472">
        <ele>2031</ele>
        <time>2019-02-10T08:35:19.000Z</time>
      </trkpt>
      <trkpt lat="44.13596" lon="7.2347">
        <ele>2031.5999755859</ele>
        <time>2019-02-10T08:35:21.000Z</time>
      </trkpt>
      <trkpt lat="44.13597" lon="7.23464">
        <ele>2032.4000244141</ele>
        <time>2019-02-10T08:35:26.000Z</time>
      </trkpt>
      <trkpt lat="44.13598" lon="7.23463">
        <ele>2032.5999755859</ele>
        <time>2019-02-10T08:35:27.000Z</time>
      </trkpt>
      <trkpt lat="44.13599" lon="7.23453">
        <ele>2033.5999755859</ele>
        <time>2019-02-10T08:35:35.000Z</time>
      </trkpt>
      <trkpt lat="44.13599" lon="7.2345">
        <ele>2034.5999755859</ele>
        <time>2019-02-10T08:35:42.000Z</time>
      </trkpt>
      <trkpt lat="44.136" lon="7.23441">
        <ele>2035.8000488281</ele>
        <time>2019-02-10T08:35:54.000Z</time>
      </trkpt>
      <trkpt lat="44.136" lon="7.23435">
        <ele>2036.8000488281</ele>
        <time>2019-02-10T08:36:01.000Z</time>
      </trkpt>
      <trkpt lat="44.13602" lon="7.23432">
        <ele>2038</ele>
        <time>2019-02-10T08:36:07.000Z</time>
      </trkpt>
      <trkpt lat="44.13605" lon="7.23426">
        <ele>2039</ele>
        <time>2019-02-10T08:36:16.000Z</time>
      </trkpt>
      <trkpt lat="44.13607" lon="7.2342">
        <ele>2039.5999755859</ele>
        <time>2019-02-10T08:36:23.000Z</time>
      </trkpt>
      <trkpt lat="44.13608" lon="7.23417">
        <ele>2040.1999511719</ele>
        <time>2019-02-10T08:36:26.000Z</time>
      </trkpt>
      <trkpt lat="44.13609" lon="7.23414">
        <ele>2040.8000488281</ele>
        <time>2019-02-10T08:36:32.000Z</time>
      </trkpt>
      <trkpt lat="44.13611" lon="7.23408">
        <ele>2041.1999511719</ele>
        <time>2019-02-10T08:36:38.000Z</time>
      </trkpt>
      <trkpt lat="44.13613" lon="7.23399">
        <ele>2041.1999511719</ele>
        <time>2019-02-10T08:36:44.000Z</time>
      </trkpt>
      <trkpt lat="44.13621" lon="7.23391">
        <ele>2041.5999755859</ele>
        <time>2019-02-10T08:36:56.000Z</time>
      </trkpt>
      <trkpt lat="44.13623" lon="7.2339">
        <ele>2042</ele>
        <time>2019-02-10T08:36:59.000Z</time>
      </trkpt>
      <trkpt lat="44.13624" lon="7.23388">
        <ele>2042.1999511719</ele>
        <time>2019-02-10T08:37:02.000Z</time>
      </trkpt>
      <trkpt lat="44.13624" lon="7.23386">
        <ele>2042.4000244141</ele>
        <time>2019-02-10T08:37:03.000Z</time>
      </trkpt>
      <trkpt lat="44.13625" lon="7.23383">
        <ele>2042.5999755859</ele>
        <time>2019-02-10T08:37:07.000Z</time>
      </trkpt>
      <trkpt lat="44.13626" lon="7.23383">
        <ele>2042.5999755859</ele>
        <time>2019-02-10T08:37:08.000Z</time>
      </trkpt>
      <trkpt lat="44.13626" lon="7.23382">
        <ele>2042.5999755859</ele>
        <time>2019-02-10T08:37:09.000Z</time>
      </trkpt>
      <trkpt lat="44.13627" lon="7.23381">
        <ele>2042.8000488281</ele>
        <time>2019-02-10T08:37:11.000Z</time>
      </trkpt>
      <trkpt lat="44.13627" lon="7.2338">
        <ele>2042.8000488281</ele>
        <time>2019-02-10T08:37:12.000Z</time>
      </trkpt>
      <trkpt lat="44.13629" lon="7.23378">
        <ele>2043</ele>
        <time>2019-02-10T08:37:14.000Z</time>
      </trkpt>
      <trkpt lat="44.13629" lon="7.23378">
        <ele>2043.1999511719</ele>
        <time>2019-02-10T08:37:15.000Z</time>
      </trkpt>
      <trkpt lat="44.13629" lon="7.23378">
        <ele>2043.1999511719</ele>
        <time>2019-02-10T08:37:16.000Z</time>
      </trkpt>
      <trkpt lat="44.13629" lon="7.23377">
        <ele>2043.4000244141</ele>
        <time>2019-02-10T08:37:17.000Z</time>
      </trkpt>
      <trkpt lat="44.13631" lon="7.23375">
        <ele>2044.1999511719</ele>
        <time>2019-02-10T08:37:21.000Z</time>
      </trkpt>
      <trkpt lat="44.13633" lon="7.23372">
        <ele>2044.5999755859</ele>
        <time>2019-02-10T08:37:24.000Z</time>
      </trkpt>
      <trkpt lat="44.13635" lon="7.23369">
        <ele>2044.8000488281</ele>
        <time>2019-02-10T08:37:28.000Z</time>
      </trkpt>
      <trkpt lat="44.13638" lon="7.23365">
        <ele>2045.5999755859</ele>
        <time>2019-02-10T08:37:34.000Z</time>
      </trkpt>
      <trkpt lat="44.13642" lon="7.2336">
        <ele>2045.8000488281</ele>
        <time>2019-02-10T08:37:42.000Z</time>
      </trkpt>
      <trkpt lat="44.13643" lon="7.23359">
        <ele>2045.5999755859</ele>
        <time>2019-02-10T08:37:43.000Z</time>
      </trkpt>
      <trkpt lat="44.13652" lon="7.23356">
        <ele>2045</ele>
        <time>2019-02-10T08:37:52.000Z</time>
      </trkpt>
      <trkpt lat="44.13653" lon="7.23356">
        <ele>2045</ele>
        <time>2019-02-10T08:37:53.000Z</time>
      </trkpt>
      <trkpt lat="44.13654" lon="7.23355">
        <ele>2045</ele>
        <time>2019-02-10T08:37:54.000Z</time>
      </trkpt>
      <trkpt lat="44.13659" lon="7.23352">
        <ele>2045</ele>
        <time>2019-02-10T08:38:01.000Z</time>
      </trkpt>
      <trkpt lat="44.13661" lon="7.23352">
        <ele>2045</ele>
        <time>2019-02-10T08:38:04.000Z</time>
      </trkpt>
      <trkpt lat="44.13663" lon="7.23344">
        <ele>2046.5999755859</ele>
        <time>2019-02-10T08:38:17.000Z</time>
      </trkpt>
      <trkpt lat="44.13664" lon="7.2334">
        <ele>2047.5999755859</ele>
        <time>2019-02-10T08:38:23.000Z</time>
      </trkpt>
      <trkpt lat="44.13666" lon="7.23331">
        <ele>2048.8000488281</ele>
        <time>2019-02-10T08:38:29.000Z</time>
      </trkpt>
      <trkpt lat="44.13669" lon="7.2333">
        <ele>2049.1999511719</ele>
        <time>2019-02-10T08:38:34.000Z</time>
      </trkpt>
      <trkpt lat="44.1367" lon="7.23329">
        <ele>2049.6000976562</ele>
        <time>2019-02-10T08:38:36.000Z</time>
      </trkpt>
      <trkpt lat="44.13671" lon="7.23329">
        <ele>2049.8000488281</ele>
        <time>2019-02-10T08:38:37.000Z</time>
      </trkpt>
      <trkpt lat="44.13674" lon="7.23327">
        <ele>2050.1999511719</ele>
        <time>2019-02-10T08:38:41.000Z</time>
      </trkpt>
      <trkpt lat="44.13682" lon="7.23325">
        <ele>2050.1999511719</ele>
        <time>2019-02-10T08:38:49.000Z</time>
      </trkpt>
      <trkpt lat="44.13687" lon="7.23324">
        <ele>2050.1999511719</ele>
        <time>2019-02-10T08:38:54.000Z</time>
      </trkpt>
      <trkpt lat="44.13688" lon="7.23326">
        <ele>2050.3999023438</ele>
        <time>2019-02-10T08:38:57.000Z</time>
      </trkpt>
      <trkpt lat="44.13688" lon="7.23327">
        <ele>2050.6000976562</ele>
        <time>2019-02-10T08:38:58.000Z</time>
      </trkpt>
      <trkpt lat="44.1369" lon="7.23336">
        <ele>2050.8000488281</ele>
        <time>2019-02-10T08:39:05.000Z</time>
      </trkpt>
      <trkpt lat="44.13697" lon="7.23339">
        <ele>2050.8000488281</ele>
        <time>2019-02-10T08:39:13.000Z</time>
      </trkpt>
      <trkpt lat="44.13698" lon="7.2334">
        <ele>2050.8000488281</ele>
        <time>2019-02-10T08:39:14.000Z</time>
      </trkpt>
      <trkpt lat="44.13705" lon="7.23342">
        <ele>2051.1999511719</ele>
        <time>2019-02-10T08:39:21.000Z</time>
      </trkpt>
      <trkpt lat="44.13709" lon="7.23344">
        <ele>2051.1999511719</ele>
        <time>2019-02-10T08:39:26.000Z</time>
      </trkpt>
      <trkpt lat="44.13714" lon="7.23345">
        <ele>2051.3999023438</ele>
        <time>2019-02-10T08:39:33.000Z</time>
      </trkpt>
      <trkpt lat="44.13718" lon="7.23347">
        <ele>2051.3999023438</ele>
        <time>2019-02-10T08:39:38.000Z</time>
      </trkpt>
      <trkpt lat="44.13721" lon="7.23349">
        <ele>2051.6000976562</ele>
        <time>2019-02-10T08:39:42.000Z</time>
      </trkpt>
      <trkpt lat="44.13726" lon="7.23351">
        <ele>2052</ele>
        <time>2019-02-10T08:39:48.000Z</time>
      </trkpt>
      <trkpt lat="44.13734" lon="7.23354">
        <ele>2052.6000976562</ele>
        <time>2019-02-10T08:39:59.000Z</time>
      </trkpt>
      <trkpt lat="44.13735" lon="7.23356">
        <ele>2052.8000488281</ele>
        <time>2019-02-10T08:40:01.000Z</time>
      </trkpt>
      <trkpt lat="44.13738" lon="7.23358">
        <ele>2053</ele>
        <time>2019-02-10T08:40:03.000Z</time>
      </trkpt>
      <trkpt lat="44.13739" lon="7.23359">
        <ele>2053</ele>
        <time>2019-02-10T08:40:04.000Z</time>
      </trkpt>
      <trkpt lat="44.1374" lon="7.23362">
        <ele>2053</ele>
        <time>2019-02-10T08:40:07.000Z</time>
      </trkpt>
      <trkpt lat="44.1374" lon="7.23363">
        <ele>2053.1999511719</ele>
        <time>2019-02-10T08:40:09.000Z</time>
      </trkpt>
      <trkpt lat="44.13744" lon="7.2337">
        <ele>2054</ele>
        <time>2019-02-10T08:40:17.000Z</time>
      </trkpt>
      <trkpt lat="44.13744" lon="7.23374">
        <ele>2054.6000976562</ele>
        <time>2019-02-10T08:40:21.000Z</time>
      </trkpt>
      <trkpt lat="44.13744" lon="7.23375">
        <ele>2054.6000976562</ele>
        <time>2019-02-10T08:40:22.000Z</time>
      </trkpt>
      <trkpt lat="44.13745" lon="7.2338">
        <ele>2055</ele>
        <time>2019-02-10T08:40:26.000Z</time>
      </trkpt>
      <trkpt lat="44.13745" lon="7.23381">
        <ele>2055.1999511719</ele>
        <time>2019-02-10T08:40:27.000Z</time>
      </trkpt>
      <trkpt lat="44.13747" lon="7.23389">
        <ele>2056.1999511719</ele>
        <time>2019-02-10T08:40:36.000Z</time>
      </trkpt>
      <trkpt lat="44.13748" lon="7.23398">
        <ele>2057.1999511719</ele>
        <time>2019-02-10T08:40:45.000Z</time>
      </trkpt>
      <trkpt lat="44.13742" lon="7.23412">
        <ele>2058.3999023438</ele>
        <time>2019-02-10T08:40:56.000Z</time>
      </trkpt>
      <trkpt lat="44.13739" lon="7.23422">
        <ele>2059.3999023438</ele>
        <time>2019-02-10T08:41:07.000Z</time>
      </trkpt>
      <trkpt lat="44.13741" lon="7.23426">
        <ele>2059.8000488281</ele>
        <time>2019-02-10T08:41:12.000Z</time>
      </trkpt>
      <trkpt lat="44.13742" lon="7.23427">
        <ele>2059.8000488281</ele>
        <time>2019-02-10T08:41:13.000Z</time>
      </trkpt>
      <trkpt lat="44.13748" lon="7.23432">
        <ele>2060.6000976562</ele>
        <time>2019-02-10T08:41:22.000Z</time>
      </trkpt>
      <trkpt lat="44.13755" lon="7.23442">
        <ele>2061.6000976562</ele>
        <time>2019-02-10T08:41:37.000Z</time>
      </trkpt>
      <trkpt lat="44.13759" lon="7.23446">
        <ele>2061.8000488281</ele>
        <time>2019-02-10T08:41:45.000Z</time>
      </trkpt>
      <trkpt lat="44.13762" lon="7.23458">
        <ele>2062.6000976562</ele>
        <time>2019-02-10T08:41:55.000Z</time>
      </trkpt>
      <trkpt lat="44.13763" lon="7.23462">
        <ele>2062.8000488281</ele>
        <time>2019-02-10T08:41:58.000Z</time>
      </trkpt>
      <trkpt lat="44.13762" lon="7.23464">
        <ele>2063</ele>
        <time>2019-02-10T08:42:00.000Z</time>
      </trkpt>
      <trkpt lat="44.13765" lon="7.23469">
        <ele>2063.6000976562</ele>
        <time>2019-02-10T08:42:05.000Z</time>
      </trkpt>
      <trkpt lat="44.13765" lon="7.2347">
        <ele>2063.6000976562</ele>
        <time>2019-02-10T08:42:06.000Z</time>
      </trkpt>
      <trkpt lat="44.13765" lon="7.23476">
        <ele>2064</ele>
        <time>2019-02-10T08:42:12.000Z</time>
      </trkpt>
      <trkpt lat="44.13764" lon="7.2348">
        <ele>2064.3999023438</ele>
        <time>2019-02-10T08:42:15.000Z</time>
      </trkpt>
      <trkpt lat="44.13764" lon="7.23483">
        <ele>2064.8000488281</ele>
        <time>2019-02-10T08:42:18.000Z</time>
      </trkpt>
      <trkpt lat="44.13763" lon="7.23484">
        <ele>2064.8000488281</ele>
        <time>2019-02-10T08:42:19.000Z</time>
      </trkpt>
      <trkpt lat="44.13762" lon="7.23491">
        <ele>2065.1999511719</ele>
        <time>2019-02-10T08:42:23.000Z</time>
      </trkpt>
      <trkpt lat="44.13763" lon="7.23494">
        <ele>2065.3999023438</ele>
        <time>2019-02-10T08:42:26.000Z</time>
      </trkpt>
      <trkpt lat="44.13763" lon="7.23495">
        <ele>2065.3999023438</ele>
        <time>2019-02-10T08:42:28.000Z</time>
      </trkpt>
      <trkpt lat="44.13763" lon="7.235">
        <ele>2065.6000976562</ele>
        <time>2019-02-10T08:42:33.000Z</time>
      </trkpt>
      <trkpt lat="44.13763" lon="7.23502">
        <ele>2065.8000488281</ele>
        <time>2019-02-10T08:42:34.000Z</time>
      </trkpt>
      <trkpt lat="44.13763" lon="7.23505">
        <ele>2066.1999511719</ele>
        <time>2019-02-10T08:42:37.000Z</time>
      </trkpt>
      <trkpt lat="44.13763" lon="7.23506">
        <ele>2066.1999511719</ele>
        <time>2019-02-10T08:42:38.000Z</time>
      </trkpt>
      <trkpt lat="44.13762" lon="7.23509">
        <ele>2066.1999511719</ele>
        <time>2019-02-10T08:42:40.000Z</time>
      </trkpt>
      <trkpt lat="44.13761" lon="7.23512">
        <ele>2066.3999023438</ele>
        <time>2019-02-10T08:42:43.000Z</time>
      </trkpt>
      <trkpt lat="44.13762" lon="7.23516">
        <ele>2066.8000488281</ele>
        <time>2019-02-10T08:42:47.000Z</time>
      </trkpt>
      <trkpt lat="44.13761" lon="7.23519">
        <ele>2066.8000488281</ele>
        <time>2019-02-10T08:42:49.000Z</time>
      </trkpt>
      <trkpt lat="44.13761" lon="7.23522">
        <ele>2067.1999511719</ele>
        <time>2019-02-10T08:42:51.000Z</time>
      </trkpt>
      <trkpt lat="44.13763" lon="7.23528">
        <ele>2067.8000488281</ele>
        <time>2019-02-10T08:42:56.000Z</time>
      </trkpt>
      <trkpt lat="44.13762" lon="7.2353">
        <ele>2067.8000488281</ele>
        <time>2019-02-10T08:42:58.000Z</time>
      </trkpt>
      <trkpt lat="44.13762" lon="7.2353">
        <ele>2067.8000488281</ele>
        <time>2019-02-10T08:42:59.000Z</time>
      </trkpt>
      <trkpt lat="44.13762" lon="7.23532">
        <ele>2068</ele>
        <time>2019-02-10T08:43:01.000Z</time>
      </trkpt>
      <trkpt lat="44.13762" lon="7.23533">
        <ele>2068</ele>
        <time>2019-02-10T08:43:02.000Z</time>
      </trkpt>
      <trkpt lat="44.13763" lon="7.23534">
        <ele>2068.1999511719</ele>
        <time>2019-02-10T08:43:04.000Z</time>
      </trkpt>
      <trkpt lat="44.13763" lon="7.23535">
        <ele>2068.1999511719</ele>
        <time>2019-02-10T08:43:05.000Z</time>
      </trkpt>
      <trkpt lat="44.13762" lon="7.23541">
        <ele>2068.6000976562</ele>
        <time>2019-02-10T08:43:09.000Z</time>
      </trkpt>
      <trkpt lat="44.13762" lon="7.23544">
        <ele>2068.6000976562</ele>
        <time>2019-02-10T08:43:13.000Z</time>
      </trkpt>
      <trkpt lat="44.13763" lon="7.23546">
        <ele>2068.8000488281</ele>
        <time>2019-02-10T08:43:16.000Z</time>
      </trkpt>
      <trkpt lat="44.13763" lon="7.23547">
        <ele>2069</ele>
        <time>2019-02-10T08:43:17.000Z</time>
      </trkpt>
      <trkpt lat="44.13766" lon="7.23549">
        <ele>2069.1999511719</ele>
        <time>2019-02-10T08:43:21.000Z</time>
      </trkpt>
      <trkpt lat="44.1377" lon="7.23554">
        <ele>2069.6000976562</ele>
        <time>2019-02-10T08:43:28.000Z</time>
      </trkpt>
      <trkpt lat="44.13771" lon="7.23556">
        <ele>2070</ele>
        <time>2019-02-10T08:43:31.000Z</time>
      </trkpt>
      <trkpt lat="44.13779" lon="7.23573">
        <ele>2070.3999023438</ele>
        <time>2019-02-10T08:43:51.000Z</time>
      </trkpt>
      <trkpt lat="44.13781" lon="7.23589">
        <ele>2071</ele>
        <time>2019-02-10T08:44:26.000Z</time>
      </trkpt>
      <trkpt lat="44.13791" lon="7.23588">
        <ele>2071.1999511719</ele>
        <time>2019-02-10T08:44:36.000Z</time>
      </trkpt>
      <trkpt lat="44.13784" lon="7.23596">
        <ele>2071.1999511719</ele>
        <time>2019-02-10T08:44:46.000Z</time>
      </trkpt>
      <trkpt lat="44.13787" lon="7.23595">
        <ele>2071.3999023438</ele>
        <time>2019-02-10T08:45:14.000Z</time>
      </trkpt>
      <trkpt lat="44.13787" lon="7.23594">
        <ele>2071.3999023438</ele>
        <time>2019-02-10T08:45:19.000Z</time>
      </trkpt>
      <trkpt lat="44.13787" lon="7.2359">
        <ele>2071.3999023438</ele>
        <time>2019-02-10T08:45:22.000Z</time>
      </trkpt>
      <trkpt lat="44.13786" lon="7.2359">
        <ele>2071.3999023438</ele>
        <time>2019-02-10T08:45:26.000Z</time>
      </trkpt>
      <trkpt lat="44.13786" lon="7.2359">
        <ele>2071.3999023438</ele>
        <time>2019-02-10T08:45:27.000Z</time>
      </trkpt>
      <trkpt lat="44.13786" lon="7.2359">
        <ele>2071.3999023438</ele>
        <time>2019-02-10T08:45:28.000Z</time>
      </trkpt>
      <trkpt lat="44.13786" lon="7.2359">
        <ele>2071.3999023438</ele>
        <time>2019-02-10T08:45:29.000Z</time>
      </trkpt>
      <trkpt lat="44.13786" lon="7.23589">
        <ele>2071.3999023438</ele>
        <time>2019-02-10T08:45:32.000Z</time>
      </trkpt>
      <trkpt lat="44.13786" lon="7.23588">
        <ele>2071.3999023438</ele>
        <time>2019-02-10T08:45:33.000Z</time>
      </trkpt>
      <trkpt lat="44.13785" lon="7.23585">
        <ele>2071.3999023438</ele>
        <time>2019-02-10T08:45:35.000Z</time>
      </trkpt>
      <trkpt lat="44.13785" lon="7.23584">
        <ele>2071.6000976562</ele>
        <time>2019-02-10T08:45:37.000Z</time>
      </trkpt>
      <trkpt lat="44.13782" lon="7.23578">
        <ele>2071.3999023438</ele>
        <time>2019-02-10T08:45:43.000Z</time>
      </trkpt>
      <trkpt lat="44.13781" lon="7.23576">
        <ele>2071</ele>
        <time>2019-02-10T08:45:49.000Z</time>
      </trkpt>
      <trkpt lat="44.13782" lon="7.23573">
        <ele>2070.8000488281</ele>
        <time>2019-02-10T08:45:58.000Z</time>
      </trkpt>
      <trkpt lat="44.13777" lon="7.23575">
        <ele>2070.6000976562</ele>
        <time>2019-02-10T08:46:24.000Z</time>
      </trkpt>
      <trkpt lat="44.13775" lon="7.23575">
        <ele>2070.6000976562</ele>
        <time>2019-02-10T08:46:27.000Z</time>
      </trkpt>
      <trkpt lat="44.1378" lon="7.23576">
        <ele>2070.6000976562</ele>
        <time>2019-02-10T08:46:45.000Z</time>
      </trkpt>
      <trkpt lat="44.1378" lon="7.23576">
        <ele>2070.6000976562</ele>
        <time>2019-02-10T08:46:51.000Z</time>
      </trkpt>
      <trkpt lat="44.1378" lon="7.23576">
        <ele>2070.6000976562</ele>
        <time>2019-02-10T08:46:54.000Z</time>
      </trkpt>
      <trkpt lat="44.1378" lon="7.23576">
        <ele>2070.6000976562</ele>
        <time>2019-02-10T08:46:56.000Z</time>
      </trkpt>
      <trkpt lat="44.1378" lon="7.23575">
        <ele>2070.3999023438</ele>
        <time>2019-02-10T08:47:04.000Z</time>
      </trkpt>
      <trkpt lat="44.1378" lon="7.23575">
        <ele>2070.3999023438</ele>
        <time>2019-02-10T08:47:05.000Z</time>
      </trkpt>
      <trkpt lat="44.1378" lon="7.23575">
        <ele>2070.3999023438</ele>
        <time>2019-02-10T08:47:06.000Z</time>
      </trkpt>
      <trkpt lat="44.1378" lon="7.23574">
        <ele>2070.3999023438</ele>
        <time>2019-02-10T08:47:08.000Z</time>
      </trkpt>
      <trkpt lat="44.1378" lon="7.23568">
        <ele>2070.3999023438</ele>
        <time>2019-02-10T08:47:16.000Z</time>
      </trkpt>
      <trkpt lat="44.1378" lon="7.23568">
        <ele>2070.3999023438</ele>
        <time>2019-02-10T08:47:18.000Z</time>
      </trkpt>
      <trkpt lat="44.13781" lon="7.23568">
        <ele>2070.3999023438</ele>
        <time>2019-02-10T08:47:20.000Z</time>
      </trkpt>
      <trkpt lat="44.13778" lon="7.23562">
        <ele>2070.6000976562</ele>
        <time>2019-02-10T08:47:27.000Z</time>
      </trkpt>
      <trkpt lat="44.13777" lon="7.23561">
        <ele>2070.8000488281</ele>
        <time>2019-02-10T08:47:29.000Z</time>
      </trkpt>
      <trkpt lat="44.13775" lon="7.2356">
        <ele>2071</ele>
        <time>2019-02-10T08:47:32.000Z</time>
      </trkpt>
      <trkpt lat="44.13774" lon="7.23558">
        <ele>2071</ele>
        <time>2019-02-10T08:47:34.000Z</time>
      </trkpt>
      <trkpt lat="44.13773" lon="7.23557">
        <ele>2071</ele>
        <time>2019-02-10T08:47:36.000Z</time>
      </trkpt>
      <trkpt lat="44.13774" lon="7.23557">
        <ele>2071</ele>
        <time>2019-02-10T08:47:51.000Z</time>
      </trkpt>
      <trkpt lat="44.13774" lon="7.23557">
        <ele>2071</ele>
        <time>2019-02-10T08:47:57.000Z</time>
      </trkpt>
      <trkpt lat="44.13774" lon="7.23558">
        <ele>2071</ele>
        <time>2019-02-10T08:48:05.000Z</time>
      </trkpt>
      <trkpt lat="44.13775" lon="7.23558">
        <ele>2070.8000488281</ele>
        <time>2019-02-10T08:48:12.000Z</time>
      </trkpt>
      <trkpt lat="44.13775" lon="7.23558">
        <ele>2070.6000976562</ele>
        <time>2019-02-10T08:48:13.000Z</time>
      </trkpt>
      <trkpt lat="44.13775" lon="7.23558">
        <ele>2070.6000976562</ele>
        <time>2019-02-10T08:48:14.000Z</time>
      </trkpt>
      <trkpt lat="44.13774" lon="7.23556">
        <ele>2070.6000976562</ele>
        <time>2019-02-10T08:48:31.000Z</time>
      </trkpt>
      <trkpt lat="44.13774" lon="7.23556">
        <ele>2070.6000976562</ele>
        <time>2019-02-10T08:48:33.000Z</time>
      </trkpt>
      <trkpt lat="44.13774" lon="7.23555">
        <ele>2070.6000976562</ele>
        <time>2019-02-10T08:48:39.000Z</time>
      </trkpt>
      <trkpt lat="44.13774" lon="7.23555">
        <ele>2070.8000488281</ele>
        <time>2019-02-10T08:48:43.000Z</time>
      </trkpt>
      <trkpt lat="44.13774" lon="7.23555">
        <ele>2070.8000488281</ele>
        <time>2019-02-10T08:48:44.000Z</time>
      </trkpt>
      <trkpt lat="44.13774" lon="7.23554">
        <ele>2070.3999023438</ele>
        <time>2019-02-10T08:48:49.000Z</time>
      </trkpt>
      <trkpt lat="44.13774" lon="7.23553">
        <ele>2070.6000976562</ele>
        <time>2019-02-10T08:48:57.000Z</time>
      </trkpt>
      <trkpt lat="44.13774" lon="7.23553">
        <ele>2070.6000976562</ele>
        <time>2019-02-10T08:48:58.000Z</time>
      </trkpt>
      <trkpt lat="44.13773" lon="7.2355">
        <ele>2070.6000976562</ele>
        <time>2019-02-10T08:49:17.000Z</time>
      </trkpt>
      <trkpt lat="44.13773" lon="7.2355">
        <ele>2070.6000976562</ele>
        <time>2019-02-10T08:49:19.000Z</time>
      </trkpt>
      <trkpt lat="44.13772" lon="7.2355">
        <ele>2070.3999023438</ele>
        <time>2019-02-10T08:49:32.000Z</time>
      </trkpt>
      <trkpt lat="44.13772" lon="7.23549">
        <ele>2070.6000976562</ele>
        <time>2019-02-10T08:49:36.000Z</time>
      </trkpt>
      <trkpt lat="44.13772" lon="7.23549">
        <ele>2070.6000976562</ele>
        <time>2019-02-10T08:49:37.000Z</time>
      </trkpt>
      <trkpt lat="44.13772" lon="7.23549">
        <ele>2070.6000976562</ele>
        <time>2019-02-10T08:49:39.000Z</time>
      </trkpt>
      <trkpt lat="44.13772" lon="7.23549">
        <ele>2070.6000976562</ele>
        <time>2019-02-10T08:49:40.000Z</time>
      </trkpt>
      <trkpt lat="44.13773" lon="7.23551">
        <ele>2070.8000488281</ele>
        <time>2019-02-10T08:49:43.000Z</time>
      </trkpt>
      <trkpt lat="44.13774" lon="7.23554">
        <ele>2071</ele>
        <time>2019-02-10T08:49:48.000Z</time>
      </trkpt>
      <trkpt lat="44.13774" lon="7.23554">
        <ele>2071</ele>
        <time>2019-02-10T08:49:50.000Z</time>
      </trkpt>
      <trkpt lat="44.13774" lon="7.23554">
        <ele>2071</ele>
        <time>2019-02-10T08:49:51.000Z</time>
      </trkpt>
      <trkpt lat="44.13773" lon="7.2355">
        <ele>2070.8000488281</ele>
        <time>2019-02-10T08:50:05.000Z</time>
      </trkpt>
      <trkpt lat="44.13773" lon="7.2355">
        <ele>2070.8000488281</ele>
        <time>2019-02-10T08:50:06.000Z</time>
      </trkpt>
      <trkpt lat="44.13773" lon="7.2355">
        <ele>2070.8000488281</ele>
        <time>2019-02-10T08:50:08.000Z</time>
      </trkpt>
      <trkpt lat="44.13773" lon="7.2355">
        <ele>2070.8000488281</ele>
        <time>2019-02-10T08:50:09.000Z</time>
      </trkpt>
      <trkpt lat="44.13773" lon="7.2355">
        <ele>2070.8000488281</ele>
        <time>2019-02-10T08:50:11.000Z</time>
      </trkpt>
      <trkpt lat="44.13773" lon="7.2355">
        <ele>2070.8000488281</ele>
        <time>2019-02-10T08:50:12.000Z</time>
      </trkpt>
      <trkpt lat="44.13773" lon="7.2355">
        <ele>2070.8000488281</ele>
        <time>2019-02-10T08:50:14.000Z</time>
      </trkpt>
      <trkpt lat="44.13773" lon="7.2355">
        <ele>2070.8000488281</ele>
        <time>2019-02-10T08:50:15.000Z</time>
      </trkpt>
      <trkpt lat="44.13775" lon="7.23554">
        <ele>2070.8000488281</ele>
        <time>2019-02-10T08:50:20.000Z</time>
      </trkpt>
      <trkpt lat="44.13775" lon="7.23555">
        <ele>2070.8000488281</ele>
        <time>2019-02-10T08:50:21.000Z</time>
      </trkpt>
      <trkpt lat="44.13774" lon="7.23555">
        <ele>2070.8000488281</ele>
        <time>2019-02-10T08:50:26.000Z</time>
      </trkpt>
      <trkpt lat="44.13774" lon="7.23555">
        <ele>2070.8000488281</ele>
        <time>2019-02-10T08:50:30.000Z</time>
      </trkpt>
      <trkpt lat="44.13775" lon="7.23555">
        <ele>2070.8000488281</ele>
        <time>2019-02-10T08:50:31.000Z</time>
      </trkpt>
      <trkpt lat="44.13775" lon="7.23555">
        <ele>2070.8000488281</ele>
        <time>2019-02-10T08:50:33.000Z</time>
      </trkpt>
      <trkpt lat="44.13775" lon="7.23555">
        <ele>2070.8000488281</ele>
        <time>2019-02-10T08:50:34.000Z</time>
      </trkpt>
      <trkpt lat="44.13776" lon="7.23554">
        <ele>2070.8000488281</ele>
        <time>2019-02-10T08:50:48.000Z</time>
      </trkpt>
      <trkpt lat="44.13775" lon="7.23554">
        <ele>2070.8000488281</ele>
        <time>2019-02-10T08:50:57.000Z</time>
      </trkpt>
      <trkpt lat="44.13775" lon="7.23555">
        <ele>2070.8000488281</ele>
        <time>2019-02-10T08:51:00.000Z</time>
      </trkpt>
      <trkpt lat="44.13775" lon="7.23555">
        <ele>2070.8000488281</ele>
        <time>2019-02-10T08:51:01.000Z</time>
      </trkpt>
      <trkpt lat="44.13775" lon="7.23555">
        <ele>2070.8000488281</ele>
        <time>2019-02-10T08:51:02.000Z</time>
      </trkpt>
      <trkpt lat="44.13775" lon="7.23555">
        <ele>2070.8000488281</ele>
        <time>2019-02-10T08:51:03.000Z</time>
      </trkpt>
      <trkpt lat="44.13775" lon="7.23555">
        <ele>2070.8000488281</ele>
        <time>2019-02-10T08:51:04.000Z</time>
      </trkpt>
      <trkpt lat="44.13775" lon="7.23555">
        <ele>2070.8000488281</ele>
        <time>2019-02-10T08:51:05.000Z</time>
      </trkpt>
      <trkpt lat="44.13775" lon="7.23555">
        <ele>2070.8000488281</ele>
        <time>2019-02-10T08:51:06.000Z</time>
      </trkpt>
      <trkpt lat="44.13774" lon="7.2355">
        <ele>2070.8000488281</ele>
        <time>2019-02-10T08:51:22.000Z</time>
      </trkpt>
      <trkpt lat="44.13774" lon="7.2355">
        <ele>2070.8000488281</ele>
        <time>2019-02-10T08:51:23.000Z</time>
      </trkpt>
      <trkpt lat="44.13774" lon="7.2355">
        <ele>2070.8000488281</ele>
        <time>2019-02-10T08:51:24.000Z</time>
      </trkpt>
      <trkpt lat="44.13774" lon="7.2355">
        <ele>2070.8000488281</ele>
        <time>2019-02-10T08:51:26.000Z</time>
      </trkpt>
      <trkpt lat="44.13774" lon="7.2355">
        <ele>2070.8000488281</ele>
        <time>2019-02-10T08:51:28.000Z</time>
      </trkpt>
      <trkpt lat="44.13775" lon="7.23549">
        <ele>2070.8000488281</ele>
        <time>2019-02-10T08:51:38.000Z</time>
      </trkpt>
      <trkpt lat="44.13775" lon="7.23549">
        <ele>2070.8000488281</ele>
        <time>2019-02-10T08:51:40.000Z</time>
      </trkpt>
      <trkpt lat="44.13775" lon="7.23549">
        <ele>2070.8000488281</ele>
        <time>2019-02-10T08:51:48.000Z</time>
      </trkpt>
      <trkpt lat="44.13775" lon="7.23549">
        <ele>2070.8000488281</ele>
        <time>2019-02-10T08:51:50.000Z</time>
      </trkpt>
      <trkpt lat="44.13775" lon="7.23549">
        <ele>2070.8000488281</ele>
        <time>2019-02-10T08:51:51.000Z</time>
      </trkpt>
      <trkpt lat="44.13775" lon="7.23549">
        <ele>2070.8000488281</ele>
        <time>2019-02-10T08:51:55.000Z</time>
      </trkpt>
      <trkpt lat="44.13775" lon="7.23549">
        <ele>2070.8000488281</ele>
        <time>2019-02-10T08:51:58.000Z</time>
      </trkpt>
      <trkpt lat="44.13775" lon="7.23549">
        <ele>2070.8000488281</ele>
        <time>2019-02-10T08:51:59.000Z</time>
      </trkpt>
      <trkpt lat="44.13774" lon="7.23552">
        <ele>2070.8000488281</ele>
        <time>2019-02-10T08:52:03.000Z</time>
      </trkpt>
      <trkpt lat="44.13774" lon="7.23553">
        <ele>2070.8000488281</ele>
        <time>2019-02-10T08:52:04.000Z</time>
      </trkpt>
      <trkpt lat="44.13775" lon="7.23556">
        <ele>2070.8000488281</ele>
        <time>2019-02-10T08:52:09.000Z</time>
      </trkpt>
      <trkpt lat="44.13775" lon="7.23557">
        <ele>2070.8000488281</ele>
        <time>2019-02-10T08:52:14.000Z</time>
      </trkpt>
      <trkpt lat="44.13775" lon="7.23557">
        <ele>2070.8000488281</ele>
        <time>2019-02-10T08:52:17.000Z</time>
      </trkpt>
      <trkpt lat="44.13776" lon="7.23558">
        <ele>2070.8000488281</ele>
        <time>2019-02-10T08:52:24.000Z</time>
      </trkpt>
      <trkpt lat="44.13775" lon="7.2356">
        <ele>2070.8000488281</ele>
        <time>2019-02-10T08:52:54.000Z</time>
      </trkpt>
      <trkpt lat="44.13774" lon="7.23559">
        <ele>2070.8000488281</ele>
        <time>2019-02-10T08:52:56.000Z</time>
      </trkpt>
      <trkpt lat="44.13774" lon="7.2356">
        <ele>2070.8000488281</ele>
        <time>2019-02-10T08:52:57.000Z</time>
      </trkpt>
      <trkpt lat="44.13774" lon="7.23557">
        <ele>2070.8000488281</ele>
        <time>2019-02-10T08:53:04.000Z</time>
      </trkpt>
      <trkpt lat="44.13774" lon="7.23557">
        <ele>2070.8000488281</ele>
        <time>2019-02-10T08:53:07.000Z</time>
      </trkpt>
      <trkpt lat="44.13775" lon="7.23555">
        <ele>2070.8000488281</ele>
        <time>2019-02-10T08:53:18.000Z</time>
      </trkpt>
      <trkpt lat="44.13774" lon="7.23556">
        <ele>2070.8000488281</ele>
        <time>2019-02-10T08:53:33.000Z</time>
      </trkpt>
      <trkpt lat="44.13774" lon="7.23554">
        <ele>2070.8000488281</ele>
        <time>2019-02-10T08:53:38.000Z</time>
      </trkpt>
      <trkpt lat="44.13774" lon="7.23554">
        <ele>2070.8000488281</ele>
        <time>2019-02-10T08:53:42.000Z</time>
      </trkpt>
      <trkpt lat="44.13774" lon="7.23555">
        <ele>2070.8000488281</ele>
        <time>2019-02-10T08:53:47.000Z</time>
      </trkpt>
      <trkpt lat="44.13774" lon="7.23554">
        <ele>2070.8000488281</ele>
        <time>2019-02-10T08:53:48.000Z</time>
      </trkpt>
      <trkpt lat="44.13774" lon="7.23554">
        <ele>2070.8000488281</ele>
        <time>2019-02-10T08:53:54.000Z</time>
      </trkpt>
      <trkpt lat="44.13774" lon="7.23554">
        <ele>2070.8000488281</ele>
        <time>2019-02-10T08:53:57.000Z</time>
      </trkpt>
      <trkpt lat="44.13775" lon="7.23558">
        <ele>2070.8000488281</ele>
        <time>2019-02-10T08:54:03.000Z</time>
      </trkpt>
      <trkpt lat="44.13776" lon="7.23558">
        <ele>2070.8000488281</ele>
        <time>2019-02-10T08:54:05.000Z</time>
      </trkpt>
      <trkpt lat="44.13776" lon="7.23558">
        <ele>2070.8000488281</ele>
        <time>2019-02-10T08:54:06.000Z</time>
      </trkpt>
      <trkpt lat="44.13776" lon="7.23558">
        <ele>2070.8000488281</ele>
        <time>2019-02-10T08:54:07.000Z</time>
      </trkpt>
      <trkpt lat="44.13775" lon="7.23558">
        <ele>2070.8000488281</ele>
        <time>2019-02-10T08:54:08.000Z</time>
      </trkpt>
      <trkpt lat="44.13775" lon="7.23558">
        <ele>2070.8000488281</ele>
        <time>2019-02-10T08:54:10.000Z</time>
      </trkpt>
      <trkpt lat="44.13775" lon="7.23558">
        <ele>2070.8000488281</ele>
        <time>2019-02-10T08:54:11.000Z</time>
      </trkpt>
      <trkpt lat="44.13775" lon="7.23558">
        <ele>2070.8000488281</ele>
        <time>2019-02-10T08:54:13.000Z</time>
      </trkpt>
      <trkpt lat="44.13775" lon="7.23558">
        <ele>2070.8000488281</ele>
        <time>2019-02-10T08:54:14.000Z</time>
      </trkpt>
      <trkpt lat="44.13775" lon="7.23557">
        <ele>2070.8000488281</ele>
        <time>2019-02-10T08:54:17.000Z</time>
      </trkpt>
      <trkpt lat="44.13775" lon="7.23556">
        <ele>2070.8000488281</ele>
        <time>2019-02-10T08:54:19.000Z</time>
      </trkpt>
      <trkpt lat="44.13775" lon="7.23555">
        <ele>2070.8000488281</ele>
        <time>2019-02-10T08:54:22.000Z</time>
      </trkpt>
      <trkpt lat="44.13773" lon="7.23554">
        <ele>2070.8000488281</ele>
        <time>2019-02-10T08:54:26.000Z</time>
      </trkpt>
      <trkpt lat="44.13773" lon="7.23553">
        <ele>2070.8000488281</ele>
        <time>2019-02-10T08:54:33.000Z</time>
      </trkpt>
      <trkpt lat="44.13772" lon="7.23554">
        <ele>2070.8000488281</ele>
        <time>2019-02-10T08:54:38.000Z</time>
      </trkpt>
      <trkpt lat="44.13773" lon="7.23554">
        <ele>2070.8000488281</ele>
        <time>2019-02-10T08:54:42.000Z</time>
      </trkpt>
      <trkpt lat="44.13773" lon="7.23554">
        <ele>2070.8000488281</ele>
        <time>2019-02-10T08:54:43.000Z</time>
      </trkpt>
      <trkpt lat="44.13773" lon="7.23554">
        <ele>2070.8000488281</ele>
        <time>2019-02-10T08:54:45.000Z</time>
      </trkpt>
      <trkpt lat="44.13773" lon="7.23554">
        <ele>2070.8000488281</ele>
        <time>2019-02-10T08:54:46.000Z</time>
      </trkpt>
      <trkpt lat="44.13773" lon="7.23553">
        <ele>2070.8000488281</ele>
        <time>2019-02-10T08:54:48.000Z</time>
      </trkpt>
      <trkpt lat="44.13774" lon="7.23555">
        <ele>2070.8000488281</ele>
        <time>2019-02-10T08:54:53.000Z</time>
      </trkpt>
      <trkpt lat="44.13774" lon="7.23556">
        <ele>2070.8000488281</ele>
        <time>2019-02-10T08:54:57.000Z</time>
      </trkpt>
      <trkpt lat="44.13774" lon="7.23555">
        <ele>2070.8000488281</ele>
        <time>2019-02-10T08:55:04.000Z</time>
      </trkpt>
      <trkpt lat="44.13773" lon="7.23555">
        <ele>2070.8000488281</ele>
        <time>2019-02-10T08:55:07.000Z</time>
      </trkpt>
      <trkpt lat="44.13773" lon="7.23555">
        <ele>2070.8000488281</ele>
        <time>2019-02-10T08:55:09.000Z</time>
      </trkpt>
      <trkpt lat="44.13774" lon="7.23558">
        <ele>2070.8000488281</ele>
        <time>2019-02-10T08:55:12.000Z</time>
      </trkpt>
      <trkpt lat="44.13776" lon="7.23559">
        <ele>2070.8000488281</ele>
        <time>2019-02-10T08:55:21.000Z</time>
      </trkpt>
      <trkpt lat="44.13775" lon="7.23558">
        <ele>2070.8000488281</ele>
        <time>2019-02-10T08:55:24.000Z</time>
      </trkpt>
      <trkpt lat="44.13775" lon="7.23558">
        <ele>2070.8000488281</ele>
        <time>2019-02-10T08:55:25.000Z</time>
      </trkpt>
      <trkpt lat="44.13775" lon="7.23558">
        <ele>2070.8000488281</ele>
        <time>2019-02-10T08:55:26.000Z</time>
      </trkpt>
      <trkpt lat="44.13775" lon="7.23558">
        <ele>2070.8000488281</ele>
        <time>2019-02-10T08:55:28.000Z</time>
      </trkpt>
      <trkpt lat="44.13775" lon="7.23558">
        <ele>2070.8000488281</ele>
        <time>2019-02-10T08:55:30.000Z</time>
      </trkpt>
      <trkpt lat="44.13775" lon="7.23558">
        <ele>2070.8000488281</ele>
        <time>2019-02-10T08:55:31.000Z</time>
      </trkpt>
      <trkpt lat="44.13776" lon="7.23557">
        <ele>2070.8000488281</ele>
        <time>2019-02-10T08:55:42.000Z</time>
      </trkpt>
      <trkpt lat="44.13776" lon="7.23558">
        <ele>2070.8000488281</ele>
        <time>2019-02-10T08:55:44.000Z</time>
      </trkpt>
      <trkpt lat="44.13775" lon="7.23557">
        <ele>2070.8000488281</ele>
        <time>2019-02-10T08:55:46.000Z</time>
      </trkpt>
      <trkpt lat="44.13775" lon="7.23557">
        <ele>2070.8000488281</ele>
        <time>2019-02-10T08:55:47.000Z</time>
      </trkpt>
      <trkpt lat="44.13775" lon="7.23557">
        <ele>2070.8000488281</ele>
        <time>2019-02-10T08:55:49.000Z</time>
      </trkpt>
      <trkpt lat="44.13775" lon="7.23557">
        <ele>2070.8000488281</ele>
        <time>2019-02-10T08:55:50.000Z</time>
      </trkpt>
      <trkpt lat="44.13776" lon="7.23557">
        <ele>2070.8000488281</ele>
        <time>2019-02-10T08:55:51.000Z</time>
      </trkpt>
      <trkpt lat="44.13776" lon="7.23557">
        <ele>2070.8000488281</ele>
        <time>2019-02-10T08:55:52.000Z</time>
      </trkpt>
      <trkpt lat="44.13774" lon="7.23555">
        <ele>2070.8000488281</ele>
        <time>2019-02-10T08:56:05.000Z</time>
      </trkpt>
      <trkpt lat="44.13774" lon="7.23555">
        <ele>2070.8000488281</ele>
        <time>2019-02-10T08:56:06.000Z</time>
      </trkpt>
      <trkpt lat="44.13774" lon="7.23555">
        <ele>2070.8000488281</ele>
        <time>2019-02-10T08:56:08.000Z</time>
      </trkpt>
      <trkpt lat="44.13775" lon="7.23556">
        <ele>2070.8000488281</ele>
        <time>2019-02-10T08:56:17.000Z</time>
      </trkpt>
      <trkpt lat="44.13775" lon="7.23556">
        <ele>2070.8000488281</ele>
        <time>2019-02-10T08:56:19.000Z</time>
      </trkpt>
      <trkpt lat="44.13774" lon="7.23556">
        <ele>2070.8000488281</ele>
        <time>2019-02-10T08:56:24.000Z</time>
      </trkpt>
      <trkpt lat="44.13774" lon="7.23556">
        <ele>2070.8000488281</ele>
        <time>2019-02-10T08:56:26.000Z</time>
      </trkpt>
      <trkpt lat="44.13773" lon="7.23557">
        <ele>2070.8000488281</ele>
        <time>2019-02-10T08:56:28.000Z</time>
      </trkpt>
      <trkpt lat="44.13773" lon="7.23557">
        <ele>2070.8000488281</ele>
        <time>2019-02-10T08:56:30.000Z</time>
      </trkpt>
      <trkpt lat="44.13773" lon="7.23557">
        <ele>2070.8000488281</ele>
        <time>2019-02-10T08:56:31.000Z</time>
      </trkpt>
      <trkpt lat="44.13773" lon="7.23556">
        <ele>2070.8000488281</ele>
        <time>2019-02-10T08:56:33.000Z</time>
      </trkpt>
      <trkpt lat="44.13773" lon="7.23556">
        <ele>2070.8000488281</ele>
        <time>2019-02-10T08:56:36.000Z</time>
      </trkpt>
      <trkpt lat="44.13772" lon="7.23552">
        <ele>2070.8000488281</ele>
        <time>2019-02-10T08:56:42.000Z</time>
      </trkpt>
      <trkpt lat="44.13772" lon="7.23552">
        <ele>2070.8000488281</ele>
        <time>2019-02-10T08:56:43.000Z</time>
      </trkpt>
      <trkpt lat="44.13771" lon="7.23553">
        <ele>2070.8000488281</ele>
        <time>2019-02-10T08:56:50.000Z</time>
      </trkpt>
      <trkpt lat="44.13772" lon="7.23553">
        <ele>2070.8000488281</ele>
        <time>2019-02-10T08:56:52.000Z</time>
      </trkpt>
      <trkpt lat="44.13772" lon="7.23553">
        <ele>2070.8000488281</ele>
        <time>2019-02-10T08:56:53.000Z</time>
      </trkpt>
      <trkpt lat="44.13772" lon="7.23553">
        <ele>2070.8000488281</ele>
        <time>2019-02-10T08:56:54.000Z</time>
      </trkpt>
      <trkpt lat="44.13773" lon="7.23554">
        <ele>2070.8000488281</ele>
        <time>2019-02-10T08:56:56.000Z</time>
      </trkpt>
      <trkpt lat="44.13773" lon="7.23555">
        <ele>2070.8000488281</ele>
        <time>2019-02-10T08:56:57.000Z</time>
      </trkpt>
      <trkpt lat="44.13776" lon="7.23559">
        <ele>2070.8000488281</ele>
        <time>2019-02-10T08:57:06.000Z</time>
      </trkpt>
      <trkpt lat="44.13775" lon="7.23558">
        <ele>2070.8000488281</ele>
        <time>2019-02-10T08:57:11.000Z</time>
      </trkpt>
      <trkpt lat="44.13774" lon="7.23557">
        <ele>2070.8000488281</ele>
        <time>2019-02-10T08:57:14.000Z</time>
      </trkpt>
      <trkpt lat="44.13774" lon="7.23555">
        <ele>2070.8000488281</ele>
        <time>2019-02-10T08:57:28.000Z</time>
      </trkpt>
      <trkpt lat="44.13774" lon="7.23554">
        <ele>2070.8000488281</ele>
        <time>2019-02-10T08:57:30.000Z</time>
      </trkpt>
      <trkpt lat="44.13774" lon="7.23554">
        <ele>2070.8000488281</ele>
        <time>2019-02-10T08:57:31.000Z</time>
      </trkpt>
      <trkpt lat="44.13774" lon="7.23554">
        <ele>2070.8000488281</ele>
        <time>2019-02-10T08:57:32.000Z</time>
      </trkpt>
      <trkpt lat="44.13774" lon="7.23554">
        <ele>2070.8000488281</ele>
        <time>2019-02-10T08:57:33.000Z</time>
      </trkpt>
      <trkpt lat="44.13774" lon="7.23555">
        <ele>2070.8000488281</ele>
        <time>2019-02-10T08:57:35.000Z</time>
      </trkpt>
      <trkpt lat="44.13775" lon="7.23556">
        <ele>2070.8000488281</ele>
        <time>2019-02-10T08:57:37.000Z</time>
      </trkpt>
      <trkpt lat="44.13775" lon="7.23557">
        <ele>2070.8000488281</ele>
        <time>2019-02-10T08:57:42.000Z</time>
      </trkpt>
      <trkpt lat="44.13775" lon="7.23557">
        <ele>2070.8000488281</ele>
        <time>2019-02-10T08:57:46.000Z</time>
      </trkpt>
      <trkpt lat="44.13775" lon="7.23557">
        <ele>2070.8000488281</ele>
        <time>2019-02-10T08:57:47.000Z</time>
      </trkpt>
      <trkpt lat="44.13775" lon="7.23557">
        <ele>2070.8000488281</ele>
        <time>2019-02-10T08:57:50.000Z</time>
      </trkpt>
      <trkpt lat="44.13775" lon="7.23558">
        <ele>2070.8000488281</ele>
        <time>2019-02-10T08:57:54.000Z</time>
      </trkpt>
      <trkpt lat="44.13775" lon="7.23559">
        <ele>2070.8000488281</ele>
        <time>2019-02-10T08:57:56.000Z</time>
      </trkpt>
      <trkpt lat="44.13775" lon="7.2356">
        <ele>2070.8000488281</ele>
        <time>2019-02-10T08:57:57.000Z</time>
      </trkpt>
      <trkpt lat="44.13775" lon="7.2356">
        <ele>2070.8000488281</ele>
        <time>2019-02-10T08:58:00.000Z</time>
      </trkpt>
      <trkpt lat="44.13776" lon="7.2356">
        <ele>2070.8000488281</ele>
        <time>2019-02-10T08:58:02.000Z</time>
      </trkpt>
      <trkpt lat="44.13776" lon="7.2356">
        <ele>2070.8000488281</ele>
        <time>2019-02-10T08:58:04.000Z</time>
      </trkpt>
      <trkpt lat="44.13776" lon="7.2356">
        <ele>2070.8000488281</ele>
        <time>2019-02-10T08:58:05.000Z</time>
      </trkpt>
      <trkpt lat="44.13777" lon="7.2356">
        <ele>2070.8000488281</ele>
        <time>2019-02-10T08:58:07.000Z</time>
      </trkpt>
      <trkpt lat="44.13777" lon="7.2356">
        <ele>2070.8000488281</ele>
        <time>2019-02-10T08:58:09.000Z</time>
      </trkpt>
      <trkpt lat="44.13777" lon="7.2356">
        <ele>2070.8000488281</ele>
        <time>2019-02-10T08:58:10.000Z</time>
      </trkpt>
      <trkpt lat="44.13777" lon="7.2356">
        <ele>2070.8000488281</ele>
        <time>2019-02-10T08:58:12.000Z</time>
      </trkpt>
      <trkpt lat="44.13777" lon="7.2356">
        <ele>2070.8000488281</ele>
        <time>2019-02-10T08:58:14.000Z</time>
      </trkpt>
      <trkpt lat="44.13778" lon="7.23561">
        <ele>2070.8000488281</ele>
        <time>2019-02-10T08:58:17.000Z</time>
      </trkpt>
      <trkpt lat="44.13778" lon="7.23562">
        <ele>2070.8000488281</ele>
        <time>2019-02-10T08:58:18.000Z</time>
      </trkpt>
      <trkpt lat="44.13779" lon="7.23562">
        <ele>2070.8000488281</ele>
        <time>2019-02-10T08:58:19.000Z</time>
      </trkpt>
      <trkpt lat="44.13781" lon="7.23564">
        <ele>2071</ele>
        <time>2019-02-10T08:58:22.000Z</time>
      </trkpt>
      <trkpt lat="44.13783" lon="7.23564">
        <ele>2070.6000976562</ele>
        <time>2019-02-10T08:58:24.000Z</time>
      </trkpt>
      <trkpt lat="44.13789" lon="7.23569">
        <ele>2070.3999023438</ele>
        <time>2019-02-10T08:58:29.000Z</time>
      </trkpt>
      <trkpt lat="44.13793" lon="7.2357">
        <ele>2070</ele>
        <time>2019-02-10T08:58:32.000Z</time>
      </trkpt>
      <trkpt lat="44.13795" lon="7.23571">
        <ele>2069.8000488281</ele>
        <time>2019-02-10T08:58:33.000Z</time>
      </trkpt>
      <trkpt lat="44.13797" lon="7.23571">
        <ele>2069.6000976562</ele>
        <time>2019-02-10T08:58:35.000Z</time>
      </trkpt>
      <trkpt lat="44.13803" lon="7.23569">
        <ele>2069.1999511719</ele>
        <time>2019-02-10T08:58:40.000Z</time>
      </trkpt>
      <trkpt lat="44.13808" lon="7.23566">
        <ele>2068.8000488281</ele>
        <time>2019-02-10T08:58:44.000Z</time>
      </trkpt>
      <trkpt lat="44.13814" lon="7.23561">
        <ele>2068.6000976562</ele>
        <time>2019-02-10T08:58:48.000Z</time>
      </trkpt>
      <trkpt lat="44.13819" lon="7.23557">
        <ele>2067.6000976562</ele>
        <time>2019-02-10T08:58:52.000Z</time>
      </trkpt>
      <trkpt lat="44.13829" lon="7.23541">
        <ele>2066.3999023438</ele>
        <time>2019-02-10T08:59:03.000Z</time>
      </trkpt>
      <trkpt lat="44.13835" lon="7.23532">
        <ele>2065.3999023438</ele>
        <time>2019-02-10T08:59:11.000Z</time>
      </trkpt>
      <trkpt lat="44.13841" lon="7.23521">
        <ele>2064.3999023438</ele>
        <time>2019-02-10T08:59:21.000Z</time>
      </trkpt>
      <trkpt lat="44.13847" lon="7.2351">
        <ele>2063.3999023438</ele>
        <time>2019-02-10T08:59:31.000Z</time>
      </trkpt>
      <trkpt lat="44.13854" lon="7.23494">
        <ele>2062.3999023438</ele>
        <time>2019-02-10T08:59:46.000Z</time>
      </trkpt>
      <trkpt lat="44.13855" lon="7.23492">
        <ele>2062.3999023438</ele>
        <time>2019-02-10T08:59:48.000Z</time>
      </trkpt>
      <trkpt lat="44.13856" lon="7.23491">
        <ele>2062.1999511719</ele>
        <time>2019-02-10T08:59:50.000Z</time>
      </trkpt>
      <trkpt lat="44.13857" lon="7.23487">
        <ele>2061.8000488281</ele>
        <time>2019-02-10T08:59:54.000Z</time>
      </trkpt>
      <trkpt lat="44.13859" lon="7.2348">
        <ele>2061.6000976562</ele>
        <time>2019-02-10T08:59:59.000Z</time>
      </trkpt>
      <trkpt lat="44.1386" lon="7.23479">
        <ele>2061.3999023438</ele>
        <time>2019-02-10T09:00:00.000Z</time>
      </trkpt>
      <trkpt lat="44.13862" lon="7.23476">
        <ele>2061.3999023438</ele>
        <time>2019-02-10T09:00:02.000Z</time>
      </trkpt>
      <trkpt lat="44.13865" lon="7.23472">
        <ele>2060.8000488281</ele>
        <time>2019-02-10T09:00:05.000Z</time>
      </trkpt>
      <trkpt lat="44.13867" lon="7.23469">
        <ele>2060</ele>
        <time>2019-02-10T09:00:08.000Z</time>
      </trkpt>
      <trkpt lat="44.13869" lon="7.23469">
        <ele>2059.8000488281</ele>
        <time>2019-02-10T09:00:10.000Z</time>
      </trkpt>
      <trkpt lat="44.13874" lon="7.23471">
        <ele>2059.1999511719</ele>
        <time>2019-02-10T09:00:16.000Z</time>
      </trkpt>
      <trkpt lat="44.13876" lon="7.23471">
        <ele>2059</ele>
        <time>2019-02-10T09:00:18.000Z</time>
      </trkpt>
      <trkpt lat="44.13896" lon="7.23474">
        <ele>2058.3999023438</ele>
        <time>2019-02-10T09:00:38.000Z</time>
      </trkpt>
      <trkpt lat="44.13901" lon="7.23474">
        <ele>2058</ele>
        <time>2019-02-10T09:00:43.000Z</time>
      </trkpt>
      <trkpt lat="44.13903" lon="7.23473">
        <ele>2057.8000488281</ele>
        <time>2019-02-10T09:00:45.000Z</time>
      </trkpt>
      <trkpt lat="44.13909" lon="7.23469">
        <ele>2057.3999023438</ele>
        <time>2019-02-10T09:00:52.000Z</time>
      </trkpt>
      <trkpt lat="44.13914" lon="7.23463">
        <ele>2056.8000488281</ele>
        <time>2019-02-10T09:00:57.000Z</time>
      </trkpt>
      <trkpt lat="44.13918" lon="7.23459">
        <ele>2056</ele>
        <time>2019-02-10T09:01:01.000Z</time>
      </trkpt>
      <trkpt lat="44.13921" lon="7.23457">
        <ele>2055.8000488281</ele>
        <time>2019-02-10T09:01:04.000Z</time>
      </trkpt>
      <trkpt lat="44.13924" lon="7.23456">
        <ele>2055.3999023438</ele>
        <time>2019-02-10T09:01:07.000Z</time>
      </trkpt>
      <trkpt lat="44.13928" lon="7.23454">
        <ele>2054.8000488281</ele>
        <time>2019-02-10T09:01:11.000Z</time>
      </trkpt>
      <trkpt lat="44.1393" lon="7.23453">
        <ele>2054.3999023438</ele>
        <time>2019-02-10T09:01:13.000Z</time>
      </trkpt>
      <trkpt lat="44.13931" lon="7.23452">
        <ele>2054.1999511719</ele>
        <time>2019-02-10T09:01:15.000Z</time>
      </trkpt>
      <trkpt lat="44.13935" lon="7.23444">
        <ele>2054</ele>
        <time>2019-02-10T09:01:25.000Z</time>
      </trkpt>
      <trkpt lat="44.13936" lon="7.23443">
        <ele>2053.8000488281</ele>
        <time>2019-02-10T09:01:27.000Z</time>
      </trkpt>
      <trkpt lat="44.13943" lon="7.23439">
        <ele>2052.6000976562</ele>
        <time>2019-02-10T09:01:35.000Z</time>
      </trkpt>
      <trkpt lat="44.13949" lon="7.23433">
        <ele>2052.3999023438</ele>
        <time>2019-02-10T09:01:44.000Z</time>
      </trkpt>
      <trkpt lat="44.1395" lon="7.23432">
        <ele>2052.3999023438</ele>
        <time>2019-02-10T09:01:46.000Z</time>
      </trkpt>
      <trkpt lat="44.13956" lon="7.23422">
        <ele>2052.8000488281</ele>
        <time>2019-02-10T09:01:57.000Z</time>
      </trkpt>
      <trkpt lat="44.13963" lon="7.23416">
        <ele>2053.6000976562</ele>
        <time>2019-02-10T09:02:07.000Z</time>
      </trkpt>
      <trkpt lat="44.13966" lon="7.23411">
        <ele>2053.3999023438</ele>
        <time>2019-02-10T09:02:14.000Z</time>
      </trkpt>
      <trkpt lat="44.13971" lon="7.23402">
        <ele>2053.8000488281</ele>
        <time>2019-02-10T09:02:20.000Z</time>
      </trkpt>
      <trkpt lat="44.13977" lon="7.23394">
        <ele>2054.1999511719</ele>
        <time>2019-02-10T09:02:29.000Z</time>
      </trkpt>
      <trkpt lat="44.1398" lon="7.2339">
        <ele>2054.1999511719</ele>
        <time>2019-02-10T09:02:34.000Z</time>
      </trkpt>
      <trkpt lat="44.13984" lon="7.23384">
        <ele>2054.3999023438</ele>
        <time>2019-02-10T09:02:40.000Z</time>
      </trkpt>
      <trkpt lat="44.13987" lon="7.23381">
        <ele>2054.6000976562</ele>
        <time>2019-02-10T09:02:44.000Z</time>
      </trkpt>
      <trkpt lat="44.13988" lon="7.23379">
        <ele>2054.6000976562</ele>
        <time>2019-02-10T09:02:47.000Z</time>
      </trkpt>
      <trkpt lat="44.13988" lon="7.23379">
        <ele>2054.6000976562</ele>
        <time>2019-02-10T09:02:48.000Z</time>
      </trkpt>
      <trkpt lat="44.1399" lon="7.23377">
        <ele>2054.3999023438</ele>
        <time>2019-02-10T09:02:51.000Z</time>
      </trkpt>
      <trkpt lat="44.13992" lon="7.23374">
        <ele>2054.8000488281</ele>
        <time>2019-02-10T09:02:54.000Z</time>
      </trkpt>
      <trkpt lat="44.13993" lon="7.23373">
        <ele>2055</ele>
        <time>2019-02-10T09:02:55.000Z</time>
      </trkpt>
      <trkpt lat="44.13994" lon="7.2337">
        <ele>2055.3999023438</ele>
        <time>2019-02-10T09:02:57.000Z</time>
      </trkpt>
      <trkpt lat="44.13995" lon="7.2337">
        <ele>2055.6000976562</ele>
        <time>2019-02-10T09:02:58.000Z</time>
      </trkpt>
      <trkpt lat="44.13998" lon="7.23366">
        <ele>2055.8000488281</ele>
        <time>2019-02-10T09:03:02.000Z</time>
      </trkpt>
      <trkpt lat="44.13998" lon="7.23365">
        <ele>2055.8000488281</ele>
        <time>2019-02-10T09:03:03.000Z</time>
      </trkpt>
      <trkpt lat="44.14001" lon="7.2336">
        <ele>2055.6000976562</ele>
        <time>2019-02-10T09:03:07.000Z</time>
      </trkpt>
      <trkpt lat="44.14002" lon="7.23357">
        <ele>2055.3999023438</ele>
        <time>2019-02-10T09:03:10.000Z</time>
      </trkpt>
      <trkpt lat="44.1401" lon="7.23343">
        <ele>2054</ele>
        <time>2019-02-10T09:03:21.000Z</time>
      </trkpt>
      <trkpt lat="44.14012" lon="7.23341">
        <ele>2053.8000488281</ele>
        <time>2019-02-10T09:03:23.000Z</time>
      </trkpt>
      <trkpt lat="44.14014" lon="7.23339">
        <ele>2053.3999023438</ele>
        <time>2019-02-10T09:03:25.000Z</time>
      </trkpt>
      <trkpt lat="44.14016" lon="7.23339">
        <ele>2052.8000488281</ele>
        <time>2019-02-10T09:03:27.000Z</time>
      </trkpt>
      <trkpt lat="44.14016" lon="7.23339">
        <ele>2052.6000976562</ele>
        <time>2019-02-10T09:03:28.000Z</time>
      </trkpt>
      <trkpt lat="44.14019" lon="7.2333">
        <ele>2052.3999023438</ele>
        <time>2019-02-10T09:03:33.000Z</time>
      </trkpt>
      <trkpt lat="44.14021" lon="7.23327">
        <ele>2052.1999511719</ele>
        <time>2019-02-10T09:03:35.000Z</time>
      </trkpt>
      <trkpt lat="44.14022" lon="7.23325">
        <ele>2052.1999511719</ele>
        <time>2019-02-10T09:03:36.000Z</time>
      </trkpt>
      <trkpt lat="44.14024" lon="7.23321">
        <ele>2052.1999511719</ele>
        <time>2019-02-10T09:03:39.000Z</time>
      </trkpt>
      <trkpt lat="44.14024" lon="7.2332">
        <ele>2052.1999511719</ele>
        <time>2019-02-10T09:03:40.000Z</time>
      </trkpt>
      <trkpt lat="44.1403" lon="7.23318">
        <ele>2053.1999511719</ele>
        <time>2019-02-10T09:03:48.000Z</time>
      </trkpt>
      <trkpt lat="44.14033" lon="7.23323">
        <ele>2053.6000976562</ele>
        <time>2019-02-10T09:03:52.000Z</time>
      </trkpt>
      <trkpt lat="44.14034" lon="7.23324">
        <ele>2053.8000488281</ele>
        <time>2019-02-10T09:03:54.000Z</time>
      </trkpt>
      <trkpt lat="44.14039" lon="7.23331">
        <ele>2054.1999511719</ele>
        <time>2019-02-10T09:03:59.000Z</time>
      </trkpt>
      <trkpt lat="44.14041" lon="7.23334">
        <ele>2054.1999511719</ele>
        <time>2019-02-10T09:04:01.000Z</time>
      </trkpt>
      <trkpt lat="44.14042" lon="7.23337">
        <ele>2054.3999023438</ele>
        <time>2019-02-10T09:04:03.000Z</time>
      </trkpt>
      <trkpt lat="44.14045" lon="7.23343">
        <ele>2054.8000488281</ele>
        <time>2019-02-10T09:04:07.000Z</time>
      </trkpt>
      <trkpt lat="44.14046" lon="7.23344">
        <ele>2055</ele>
        <time>2019-02-10T09:04:08.000Z</time>
      </trkpt>
      <trkpt lat="44.14046" lon="7.23345">
        <ele>2055</ele>
        <time>2019-02-10T09:04:09.000Z</time>
      </trkpt>
      <trkpt lat="44.14046" lon="7.23348">
        <ele>2055</ele>
        <time>2019-02-10T09:04:11.000Z</time>
      </trkpt>
      <trkpt lat="44.14047" lon="7.23351">
        <ele>2055.1999511719</ele>
        <time>2019-02-10T09:04:13.000Z</time>
      </trkpt>
      <trkpt lat="44.14052" lon="7.2336">
        <ele>2055.8000488281</ele>
        <time>2019-02-10T09:04:22.000Z</time>
      </trkpt>
      <trkpt lat="44.14051" lon="7.23362">
        <ele>2056</ele>
        <time>2019-02-10T09:04:23.000Z</time>
      </trkpt>
      <trkpt lat="44.1405" lon="7.23365">
        <ele>2056.1999511719</ele>
        <time>2019-02-10T09:04:25.000Z</time>
      </trkpt>
      <trkpt lat="44.14051" lon="7.23367">
        <ele>2056.3999023438</ele>
        <time>2019-02-10T09:04:29.000Z</time>
      </trkpt>
      <trkpt lat="44.1405" lon="7.23367">
        <ele>2056.6000976562</ele>
        <time>2019-02-10T09:04:30.000Z</time>
      </trkpt>
      <trkpt lat="44.14058" lon="7.23366">
        <ele>2056.8000488281</ele>
        <time>2019-02-10T09:04:44.000Z</time>
      </trkpt>
      <trkpt lat="44.14062" lon="7.23365">
        <ele>2056.8000488281</ele>
        <time>2019-02-10T09:04:47.000Z</time>
      </trkpt>
      <trkpt lat="44.14055" lon="7.2337">
        <ele>2056.8000488281</ele>
        <time>2019-02-10T09:04:50.000Z</time>
      </trkpt>
      <trkpt lat="44.14049" lon="7.23373">
        <ele>2056.8000488281</ele>
        <time>2019-02-10T09:04:53.000Z</time>
      </trkpt>
      <trkpt lat="44.14048" lon="7.23376">
        <ele>2056.8000488281</ele>
        <time>2019-02-10T09:04:56.000Z</time>
      </trkpt>
      <trkpt lat="44.14047" lon="7.23376">
        <ele>2056.8000488281</ele>
        <time>2019-02-10T09:04:58.000Z</time>
      </trkpt>
      <trkpt lat="44.14047" lon="7.23376">
        <ele>2056.8000488281</ele>
        <time>2019-02-10T09:04:59.000Z</time>
      </trkpt>
      <trkpt lat="44.14049" lon="7.23377">
        <ele>2056.8000488281</ele>
        <time>2019-02-10T09:05:06.000Z</time>
      </trkpt>
      <trkpt lat="44.14051" lon="7.23379">
        <ele>2056.6000976562</ele>
        <time>2019-02-10T09:05:09.000Z</time>
      </trkpt>
      <trkpt lat="44.14051" lon="7.23379">
        <ele>2056.6000976562</ele>
        <time>2019-02-10T09:05:10.000Z</time>
      </trkpt>
      <trkpt lat="44.14051" lon="7.23379">
        <ele>2056.6000976562</ele>
        <time>2019-02-10T09:05:11.000Z</time>
      </trkpt>
      <trkpt lat="44.14051" lon="7.23379">
        <ele>2056.6000976562</ele>
        <time>2019-02-10T09:05:13.000Z</time>
      </trkpt>
      <trkpt lat="44.14052" lon="7.23379">
        <ele>2056.8000488281</ele>
        <time>2019-02-10T09:05:14.000Z</time>
      </trkpt>
      <trkpt lat="44.14051" lon="7.23379">
        <ele>2056.8000488281</ele>
        <time>2019-02-10T09:05:15.000Z</time>
      </trkpt>
      <trkpt lat="44.14051" lon="7.23379">
        <ele>2056.8000488281</ele>
        <time>2019-02-10T09:05:16.000Z</time>
      </trkpt>
      <trkpt lat="44.14051" lon="7.23379">
        <ele>2056.8000488281</ele>
        <time>2019-02-10T09:05:17.000Z</time>
      </trkpt>
      <trkpt lat="44.14051" lon="7.2338">
        <ele>2056.8000488281</ele>
        <time>2019-02-10T09:05:19.000Z</time>
      </trkpt>
      <trkpt lat="44.14051" lon="7.2338">
        <ele>2056.8000488281</ele>
        <time>2019-02-10T09:05:21.000Z</time>
      </trkpt>
      <trkpt lat="44.1405" lon="7.23379">
        <ele>2057</ele>
        <time>2019-02-10T09:05:24.000Z</time>
      </trkpt>
      <trkpt lat="44.14049" lon="7.23379">
        <ele>2057</ele>
        <time>2019-02-10T09:05:26.000Z</time>
      </trkpt>
      <trkpt lat="44.14048" lon="7.23379">
        <ele>2057</ele>
        <time>2019-02-10T09:05:28.000Z</time>
      </trkpt>
      <trkpt lat="44.14048" lon="7.2338">
        <ele>2057</ele>
        <time>2019-02-10T09:05:29.000Z</time>
      </trkpt>
      <trkpt lat="44.14049" lon="7.2338">
        <ele>2057</ele>
        <time>2019-02-10T09:05:30.000Z</time>
      </trkpt>
      <trkpt lat="44.14052" lon="7.23382">
        <ele>2058</ele>
        <time>2019-02-10T09:05:37.000Z</time>
      </trkpt>
      <trkpt lat="44.14059" lon="7.23385">
        <ele>2058.6000976562</ele>
        <time>2019-02-10T09:05:42.000Z</time>
      </trkpt>
      <trkpt lat="44.1406" lon="7.23386">
        <ele>2058.8000488281</ele>
        <time>2019-02-10T09:05:44.000Z</time>
      </trkpt>
      <trkpt lat="44.14061" lon="7.23387">
        <ele>2059</ele>
        <time>2019-02-10T09:05:45.000Z</time>
      </trkpt>
      <trkpt lat="44.14063" lon="7.23388">
        <ele>2059.6000976562</ele>
        <time>2019-02-10T09:05:47.000Z</time>
      </trkpt>
      <trkpt lat="44.14064" lon="7.23389">
        <ele>2059.8000488281</ele>
        <time>2019-02-10T09:05:48.000Z</time>
      </trkpt>
      <trkpt lat="44.14064" lon="7.23389">
        <ele>2059.8000488281</ele>
        <time>2019-02-10T09:05:49.000Z</time>
      </trkpt>
      <trkpt lat="44.14065" lon="7.23391">
        <ele>2060</ele>
        <time>2019-02-10T09:05:51.000Z</time>
      </trkpt>
      <trkpt lat="44.14065" lon="7.23393">
        <ele>2060</ele>
        <time>2019-02-10T09:05:53.000Z</time>
      </trkpt>
      <trkpt lat="44.14065" lon="7.23394">
        <ele>2060.3999023438</ele>
        <time>2019-02-10T09:05:55.000Z</time>
      </trkpt>
      <trkpt lat="44.14066" lon="7.23395">
        <ele>2060.6000976562</ele>
        <time>2019-02-10T09:05:57.000Z</time>
      </trkpt>
      <trkpt lat="44.14067" lon="7.23396">
        <ele>2060.8000488281</ele>
        <time>2019-02-10T09:05:59.000Z</time>
      </trkpt>
      <trkpt lat="44.14068" lon="7.23397">
        <ele>2061</ele>
        <time>2019-02-10T09:06:00.000Z</time>
      </trkpt>
      <trkpt lat="44.14069" lon="7.23398">
        <ele>2061.1999511719</ele>
        <time>2019-02-10T09:06:01.000Z</time>
      </trkpt>
      <trkpt lat="44.14072" lon="7.23402">
        <ele>2061.8000488281</ele>
        <time>2019-02-10T09:06:06.000Z</time>
      </trkpt>
      <trkpt lat="44.14073" lon="7.23403">
        <ele>2062</ele>
        <time>2019-02-10T09:06:07.000Z</time>
      </trkpt>
      <trkpt lat="44.14074" lon="7.23405">
        <ele>2062.1999511719</ele>
        <time>2019-02-10T09:06:09.000Z</time>
      </trkpt>
      <trkpt lat="44.14074" lon="7.23406">
        <ele>2062.3999023438</ele>
        <time>2019-02-10T09:06:10.000Z</time>
      </trkpt>
      <trkpt lat="44.14076" lon="7.23408">
        <ele>2062.6000976562</ele>
        <time>2019-02-10T09:06:12.000Z</time>
      </trkpt>
      <trkpt lat="44.14079" lon="7.23413">
        <ele>2063.1999511719</ele>
        <time>2019-02-10T09:06:17.000Z</time>
      </trkpt>
      <trkpt lat="44.1408" lon="7.23415">
        <ele>2063.3999023438</ele>
        <time>2019-02-10T09:06:19.000Z</time>
      </trkpt>
      <trkpt lat="44.14081" lon="7.23416">
        <ele>2063.6000976562</ele>
        <time>2019-02-10T09:06:21.000Z</time>
      </trkpt>
      <trkpt lat="44.14081" lon="7.23419">
        <ele>2063.8000488281</ele>
        <time>2019-02-10T09:06:23.000Z</time>
      </trkpt>
      <trkpt lat="44.14083" lon="7.23422">
        <ele>2064.6000976562</ele>
        <time>2019-02-10T09:06:27.000Z</time>
      </trkpt>
      <trkpt lat="44.14084" lon="7.23424">
        <ele>2064.8000488281</ele>
        <time>2019-02-10T09:06:29.000Z</time>
      </trkpt>
      <trkpt lat="44.14084" lon="7.23428">
        <ele>2065.1999511719</ele>
        <time>2019-02-10T09:06:33.000Z</time>
      </trkpt>
      <trkpt lat="44.14084" lon="7.23431">
        <ele>2065.3999023438</ele>
        <time>2019-02-10T09:06:35.000Z</time>
      </trkpt>
      <trkpt lat="44.14085" lon="7.23433">
        <ele>2065.6000976562</ele>
        <time>2019-02-10T09:06:37.000Z</time>
      </trkpt>
      <trkpt lat="44.14086" lon="7.23437">
        <ele>2066</ele>
        <time>2019-02-10T09:06:41.000Z</time>
      </trkpt>
      <trkpt lat="44.14088" lon="7.2344">
        <ele>2066.6000976562</ele>
        <time>2019-02-10T09:06:44.000Z</time>
      </trkpt>
      <trkpt lat="44.14089" lon="7.23441">
        <ele>2066.6000976562</ele>
        <time>2019-02-10T09:06:45.000Z</time>
      </trkpt>
      <trkpt lat="44.1409" lon="7.23442">
        <ele>2066.8000488281</ele>
        <time>2019-02-10T09:06:47.000Z</time>
      </trkpt>
      <trkpt lat="44.14091" lon="7.23444">
        <ele>2067.1999511719</ele>
        <time>2019-02-10T09:06:49.000Z</time>
      </trkpt>
      <trkpt lat="44.14092" lon="7.23445">
        <ele>2067.3999023438</ele>
        <time>2019-02-10T09:06:51.000Z</time>
      </trkpt>
      <trkpt lat="44.14094" lon="7.23446">
        <ele>2067.6000976562</ele>
        <time>2019-02-10T09:06:53.000Z</time>
      </trkpt>
      <trkpt lat="44.14095" lon="7.23447">
        <ele>2067.6000976562</ele>
        <time>2019-02-10T09:06:54.000Z</time>
      </trkpt>
      <trkpt lat="44.14096" lon="7.23448">
        <ele>2067.8000488281</ele>
        <time>2019-02-10T09:06:56.000Z</time>
      </trkpt>
      <trkpt lat="44.14098" lon="7.23449">
        <ele>2068</ele>
        <time>2019-02-10T09:06:59.000Z</time>
      </trkpt>
      <trkpt lat="44.14102" lon="7.23452">
        <ele>2068.8000488281</ele>
        <time>2019-02-10T09:07:04.000Z</time>
      </trkpt>
      <trkpt lat="44.14102" lon="7.23453">
        <ele>2068.8000488281</ele>
        <time>2019-02-10T09:07:05.000Z</time>
      </trkpt>
      <trkpt lat="44.14103" lon="7.23456">
        <ele>2069.1999511719</ele>
        <time>2019-02-10T09:07:08.000Z</time>
      </trkpt>
      <trkpt lat="44.14104" lon="7.23458">
        <ele>2069.3999023438</ele>
        <time>2019-02-10T09:07:10.000Z</time>
      </trkpt>
      <trkpt lat="44.14104" lon="7.2346">
        <ele>2069.3999023438</ele>
        <time>2019-02-10T09:07:12.000Z</time>
      </trkpt>
      <trkpt lat="44.14104" lon="7.23463">
        <ele>2069.3999023438</ele>
        <time>2019-02-10T09:07:15.000Z</time>
      </trkpt>
      <trkpt lat="44.14106" lon="7.23467">
        <ele>2069.8000488281</ele>
        <time>2019-02-10T09:07:19.000Z</time>
      </trkpt>
      <trkpt lat="44.14106" lon="7.23468">
        <ele>2070</ele>
        <time>2019-02-10T09:07:20.000Z</time>
      </trkpt>
      <trkpt lat="44.1411" lon="7.23473">
        <ele>2070.6000976562</ele>
        <time>2019-02-10T09:07:24.000Z</time>
      </trkpt>
      <trkpt lat="44.14117" lon="7.2348">
        <ele>2071</ele>
        <time>2019-02-10T09:07:31.000Z</time>
      </trkpt>
      <trkpt lat="44.14119" lon="7.23481">
        <ele>2071</ele>
        <time>2019-02-10T09:07:33.000Z</time>
      </trkpt>
      <trkpt lat="44.14121" lon="7.23481">
        <ele>2071.3999023438</ele>
        <time>2019-02-10T09:07:35.000Z</time>
      </trkpt>
      <trkpt lat="44.14123" lon="7.23482">
        <ele>2071.8000488281</ele>
        <time>2019-02-10T09:07:37.000Z</time>
      </trkpt>
      <trkpt lat="44.14124" lon="7.23483">
        <ele>2072</ele>
        <time>2019-02-10T09:07:40.000Z</time>
      </trkpt>
      <trkpt lat="44.14125" lon="7.23483">
        <ele>2072</ele>
        <time>2019-02-10T09:07:41.000Z</time>
      </trkpt>
      <trkpt lat="44.14127" lon="7.23482">
        <ele>2072</ele>
        <time>2019-02-10T09:07:43.000Z</time>
      </trkpt>
      <trkpt lat="44.14128" lon="7.23481">
        <ele>2072.1999511719</ele>
        <time>2019-02-10T09:07:46.000Z</time>
      </trkpt>
      <trkpt lat="44.1413" lon="7.23479">
        <ele>2073</ele>
        <time>2019-02-10T09:07:50.000Z</time>
      </trkpt>
      <trkpt lat="44.14133" lon="7.23477">
        <ele>2073.3999023438</ele>
        <time>2019-02-10T09:07:53.000Z</time>
      </trkpt>
      <trkpt lat="44.14132" lon="7.23476">
        <ele>2073.3999023438</ele>
        <time>2019-02-10T09:07:55.000Z</time>
      </trkpt>
      <trkpt lat="44.14139" lon="7.23472">
        <ele>2073.8000488281</ele>
        <time>2019-02-10T09:08:08.000Z</time>
      </trkpt>
      <trkpt lat="44.14141" lon="7.23473">
        <ele>2074.1999511719</ele>
        <time>2019-02-10T09:08:10.000Z</time>
      </trkpt>
      <trkpt lat="44.14145" lon="7.23474">
        <ele>2075.1999511719</ele>
        <time>2019-02-10T09:08:17.000Z</time>
      </trkpt>
      <trkpt lat="44.14148" lon="7.23474">
        <ele>2075.3999023438</ele>
        <time>2019-02-10T09:08:21.000Z</time>
      </trkpt>
      <trkpt lat="44.14158" lon="7.23474">
        <ele>2075.6000976562</ele>
        <time>2019-02-10T09:08:32.000Z</time>
      </trkpt>
      <trkpt lat="44.14164" lon="7.23472">
        <ele>2076</ele>
        <time>2019-02-10T09:08:40.000Z</time>
      </trkpt>
      <trkpt lat="44.14168" lon="7.23471">
        <ele>2076.1999511719</ele>
        <time>2019-02-10T09:08:47.000Z</time>
      </trkpt>
      <trkpt lat="44.14169" lon="7.23471">
        <ele>2076.1999511719</ele>
        <time>2019-02-10T09:08:48.000Z</time>
      </trkpt>
      <trkpt lat="44.14178" lon="7.23474">
        <ele>2077.3999023438</ele>
        <time>2019-02-10T09:09:01.000Z</time>
      </trkpt>
      <trkpt lat="44.14183" lon="7.23477">
        <ele>2077.3999023438</ele>
        <time>2019-02-10T09:09:07.000Z</time>
      </trkpt>
      <trkpt lat="44.14186" lon="7.23477">
        <ele>2077</ele>
        <time>2019-02-10T09:09:10.000Z</time>
      </trkpt>
      <trkpt lat="44.14203" lon="7.23486">
        <ele>2078.1999511719</ele>
        <time>2019-02-10T09:09:38.000Z</time>
      </trkpt>
      <trkpt lat="44.14204" lon="7.23486">
        <ele>2078.1999511719</ele>
        <time>2019-02-10T09:09:39.000Z</time>
      </trkpt>
      <trkpt lat="44.14204" lon="7.23487">
        <ele>2078.1999511719</ele>
        <time>2019-02-10T09:09:40.000Z</time>
      </trkpt>
      <trkpt lat="44.14212" lon="7.23491">
        <ele>2077</ele>
        <time>2019-02-10T09:09:47.000Z</time>
      </trkpt>
      <trkpt lat="44.14221" lon="7.23499">
        <ele>2077.1999511719</ele>
        <time>2019-02-10T09:09:57.000Z</time>
      </trkpt>
      <trkpt lat="44.14223" lon="7.23502">
        <ele>2077.6000976562</ele>
        <time>2019-02-10T09:10:00.000Z</time>
      </trkpt>
      <trkpt lat="44.14224" lon="7.23502">
        <ele>2077.8000488281</ele>
        <time>2019-02-10T09:10:01.000Z</time>
      </trkpt>
      <trkpt lat="44.14228" lon="7.23504">
        <ele>2078</ele>
        <time>2019-02-10T09:10:04.000Z</time>
      </trkpt>
      <trkpt lat="44.14235" lon="7.23506">
        <ele>2078.3999023438</ele>
        <time>2019-02-10T09:10:13.000Z</time>
      </trkpt>
      <trkpt lat="44.14239" lon="7.23506">
        <ele>2079.1999511719</ele>
        <time>2019-02-10T09:10:20.000Z</time>
      </trkpt>
      <trkpt lat="44.1424" lon="7.23506">
        <ele>2079.3999023438</ele>
        <time>2019-02-10T09:10:22.000Z</time>
      </trkpt>
      <trkpt lat="44.14247" lon="7.23507">
        <ele>2080.6000976562</ele>
        <time>2019-02-10T09:10:35.000Z</time>
      </trkpt>
      <trkpt lat="44.14251" lon="7.23509">
        <ele>2081</ele>
        <time>2019-02-10T09:10:38.000Z</time>
      </trkpt>
      <trkpt lat="44.14253" lon="7.23511">
        <ele>2081.3999023438</ele>
        <time>2019-02-10T09:10:42.000Z</time>
      </trkpt>
      <trkpt lat="44.14255" lon="7.23513">
        <ele>2081.8000488281</ele>
        <time>2019-02-10T09:10:47.000Z</time>
      </trkpt>
      <trkpt lat="44.14263" lon="7.23515">
        <ele>2083</ele>
        <time>2019-02-10T09:10:58.000Z</time>
      </trkpt>
      <trkpt lat="44.14271" lon="7.23519">
        <ele>2083.6000976562</ele>
        <time>2019-02-10T09:11:07.000Z</time>
      </trkpt>
      <trkpt lat="44.14275" lon="7.23519">
        <ele>2084</ele>
        <time>2019-02-10T09:11:13.000Z</time>
      </trkpt>
      <trkpt lat="44.14279" lon="7.23519">
        <ele>2085.1999511719</ele>
        <time>2019-02-10T09:11:20.000Z</time>
      </trkpt>
      <trkpt lat="44.14288" lon="7.23519">
        <ele>2086.1999511719</ele>
        <time>2019-02-10T09:11:35.000Z</time>
      </trkpt>
      <trkpt lat="44.14296" lon="7.23516">
        <ele>2087.1999511719</ele>
        <time>2019-02-10T09:11:46.000Z</time>
      </trkpt>
      <trkpt lat="44.1431" lon="7.23512">
        <ele>2088.3999023438</ele>
        <time>2019-02-10T09:12:05.000Z</time>
      </trkpt>
      <trkpt lat="44.14321" lon="7.23506">
        <ele>2089.1999511719</ele>
        <time>2019-02-10T09:12:21.000Z</time>
      </trkpt>
      <trkpt lat="44.14323" lon="7.23505">
        <ele>2089.3999023438</ele>
        <time>2019-02-10T09:12:24.000Z</time>
      </trkpt>
      <trkpt lat="44.14335" lon="7.23498">
        <ele>2090.3999023438</ele>
        <time>2019-02-10T09:12:40.000Z</time>
      </trkpt>
      <trkpt lat="44.14348" lon="7.23488">
        <ele>2091.3999023438</ele>
        <time>2019-02-10T09:12:56.000Z</time>
      </trkpt>
      <trkpt lat="44.14353" lon="7.23486">
        <ele>2092.1999511719</ele>
        <time>2019-02-10T09:13:03.000Z</time>
      </trkpt>
      <trkpt lat="44.14363" lon="7.23481">
        <ele>2092.1999511719</ele>
        <time>2019-02-10T09:13:15.000Z</time>
      </trkpt>
      <trkpt lat="44.14368" lon="7.23476">
        <ele>2092.3999023438</ele>
        <time>2019-02-10T09:13:22.000Z</time>
      </trkpt>
      <trkpt lat="44.14371" lon="7.23475">
        <ele>2092.6000976562</ele>
        <time>2019-02-10T09:13:25.000Z</time>
      </trkpt>
      <trkpt lat="44.14373" lon="7.23474">
        <ele>2092.6000976562</ele>
        <time>2019-02-10T09:13:27.000Z</time>
      </trkpt>
      <trkpt lat="44.14381" lon="7.23469">
        <ele>2093.3999023438</ele>
        <time>2019-02-10T09:13:39.000Z</time>
      </trkpt>
      <trkpt lat="44.14388" lon="7.23462">
        <ele>2093.3999023438</ele>
        <time>2019-02-10T09:13:49.000Z</time>
      </trkpt>
      <trkpt lat="44.14389" lon="7.23462">
        <ele>2093.6000976562</ele>
        <time>2019-02-10T09:13:50.000Z</time>
      </trkpt>
      <trkpt lat="44.14391" lon="7.23462">
        <ele>2093.6000976562</ele>
        <time>2019-02-10T09:13:52.000Z</time>
      </trkpt>
      <trkpt lat="44.14396" lon="7.2346">
        <ele>2093.3999023438</ele>
        <time>2019-02-10T09:13:58.000Z</time>
      </trkpt>
      <trkpt lat="44.14403" lon="7.2346">
        <ele>2093.3999023438</ele>
        <time>2019-02-10T09:14:06.000Z</time>
      </trkpt>
      <trkpt lat="44.14405" lon="7.23458">
        <ele>2093.3999023438</ele>
        <time>2019-02-10T09:14:09.000Z</time>
      </trkpt>
      <trkpt lat="44.14406" lon="7.23456">
        <ele>2093.3999023438</ele>
        <time>2019-02-10T09:14:11.000Z</time>
      </trkpt>
      <trkpt lat="44.14417" lon="7.23447">
        <ele>2093.8000488281</ele>
        <time>2019-02-10T09:14:23.000Z</time>
      </trkpt>
      <trkpt lat="44.14418" lon="7.23444">
        <ele>2094</ele>
        <time>2019-02-10T09:14:26.000Z</time>
      </trkpt>
      <trkpt lat="44.14421" lon="7.23439">
        <ele>2094</ele>
        <time>2019-02-10T09:14:34.000Z</time>
      </trkpt>
      <trkpt lat="44.14422" lon="7.23439">
        <ele>2094</ele>
        <time>2019-02-10T09:14:35.000Z</time>
      </trkpt>
      <trkpt lat="44.14428" lon="7.23438">
        <ele>2094</ele>
        <time>2019-02-10T09:14:41.000Z</time>
      </trkpt>
      <trkpt lat="44.1443" lon="7.23438">
        <ele>2094.6000976562</ele>
        <time>2019-02-10T09:14:44.000Z</time>
      </trkpt>
      <trkpt lat="44.1443" lon="7.23437">
        <ele>2094.8000488281</ele>
        <time>2019-02-10T09:14:47.000Z</time>
      </trkpt>
      <trkpt lat="44.14435" lon="7.23437">
        <ele>2095.3999023438</ele>
        <time>2019-02-10T09:14:52.000Z</time>
      </trkpt>
      <trkpt lat="44.14436" lon="7.23437">
        <ele>2095.8000488281</ele>
        <time>2019-02-10T09:14:54.000Z</time>
      </trkpt>
      <trkpt lat="44.14439" lon="7.23437">
        <ele>2096.1999511719</ele>
        <time>2019-02-10T09:14:56.000Z</time>
      </trkpt>
      <trkpt lat="44.14442" lon="7.23437">
        <ele>2096.8000488281</ele>
        <time>2019-02-10T09:14:59.000Z</time>
      </trkpt>
      <trkpt lat="44.14443" lon="7.23437">
        <ele>2096.8000488281</ele>
        <time>2019-02-10T09:15:00.000Z</time>
      </trkpt>
      <trkpt lat="44.1445" lon="7.23437">
        <ele>2097.3999023438</ele>
        <time>2019-02-10T09:15:09.000Z</time>
      </trkpt>
      <trkpt lat="44.14451" lon="7.23438">
        <ele>2097.8000488281</ele>
        <time>2019-02-10T09:15:11.000Z</time>
      </trkpt>
      <trkpt lat="44.14453" lon="7.2344">
        <ele>2097.8000488281</ele>
        <time>2019-02-10T09:15:13.000Z</time>
      </trkpt>
      <trkpt lat="44.14454" lon="7.23442">
        <ele>2097.8000488281</ele>
        <time>2019-02-10T09:15:15.000Z</time>
      </trkpt>
      <trkpt lat="44.14455" lon="7.23444">
        <ele>2098</ele>
        <time>2019-02-10T09:15:17.000Z</time>
      </trkpt>
      <trkpt lat="44.14456" lon="7.23445">
        <ele>2098</ele>
        <time>2019-02-10T09:15:18.000Z</time>
      </trkpt>
      <trkpt lat="44.14457" lon="7.23447">
        <ele>2098</ele>
        <time>2019-02-10T09:15:20.000Z</time>
      </trkpt>
      <trkpt lat="44.14458" lon="7.23449">
        <ele>2098</ele>
        <time>2019-02-10T09:15:22.000Z</time>
      </trkpt>
      <trkpt lat="44.14459" lon="7.2345">
        <ele>2098</ele>
        <time>2019-02-10T09:15:23.000Z</time>
      </trkpt>
      <trkpt lat="44.1446" lon="7.23451">
        <ele>2098</ele>
        <time>2019-02-10T09:15:24.000Z</time>
      </trkpt>
      <trkpt lat="44.14461" lon="7.23453">
        <ele>2097.8000488281</ele>
        <time>2019-02-10T09:15:26.000Z</time>
      </trkpt>
      <trkpt lat="44.14468" lon="7.23457">
        <ele>2097.6000976562</ele>
        <time>2019-02-10T09:15:34.000Z</time>
      </trkpt>
      <trkpt lat="44.14469" lon="7.23458">
        <ele>2097.3999023438</ele>
        <time>2019-02-10T09:15:40.000Z</time>
      </trkpt>
      <trkpt lat="44.14471" lon="7.23461">
        <ele>2097</ele>
        <time>2019-02-10T09:15:46.000Z</time>
      </trkpt>
      <trkpt lat="44.14473" lon="7.23463">
        <ele>2096.8000488281</ele>
        <time>2019-02-10T09:15:49.000Z</time>
      </trkpt>
      <trkpt lat="44.14481" lon="7.23468">
        <ele>2096.3999023438</ele>
        <time>2019-02-10T09:16:01.000Z</time>
      </trkpt>
      <trkpt lat="44.14483" lon="7.23469">
        <ele>2096.6000976562</ele>
        <time>2019-02-10T09:16:03.000Z</time>
      </trkpt>
      <trkpt lat="44.14484" lon="7.23469">
        <ele>2096.6000976562</ele>
        <time>2019-02-10T09:16:06.000Z</time>
      </trkpt>
      <trkpt lat="44.14487" lon="7.23468">
        <ele>2096.6000976562</ele>
        <time>2019-02-10T09:16:09.000Z</time>
      </trkpt>
      <trkpt lat="44.14489" lon="7.23466">
        <ele>2096.6000976562</ele>
        <time>2019-02-10T09:16:12.000Z</time>
      </trkpt>
      <trkpt lat="44.1449" lon="7.23466">
        <ele>2096.6000976562</ele>
        <time>2019-02-10T09:16:13.000Z</time>
      </trkpt>
      <trkpt lat="44.14492" lon="7.23463">
        <ele>2096.3999023438</ele>
        <time>2019-02-10T09:16:16.000Z</time>
      </trkpt>
      <trkpt lat="44.14493" lon="7.23466">
        <ele>2096.3999023438</ele>
        <time>2019-02-10T09:16:20.000Z</time>
      </trkpt>
      <trkpt lat="44.14494" lon="7.2347">
        <ele>2096.6000976562</ele>
        <time>2019-02-10T09:16:22.000Z</time>
      </trkpt>
      <trkpt lat="44.14494" lon="7.23471">
        <ele>2096.3999023438</ele>
        <time>2019-02-10T09:16:24.000Z</time>
      </trkpt>
      <trkpt lat="44.1449" lon="7.23473">
        <ele>2096.1999511719</ele>
        <time>2019-02-10T09:16:38.000Z</time>
      </trkpt>
      <trkpt lat="44.1449" lon="7.23471">
        <ele>2096.1999511719</ele>
        <time>2019-02-10T09:16:40.000Z</time>
      </trkpt>
      <trkpt lat="44.1449" lon="7.23468">
        <ele>2096.1999511719</ele>
        <time>2019-02-10T09:16:42.000Z</time>
      </trkpt>
      <trkpt lat="44.14489" lon="7.23466">
        <ele>2096.1999511719</ele>
        <time>2019-02-10T09:16:43.000Z</time>
      </trkpt>
      <trkpt lat="44.14488" lon="7.23465">
        <ele>2096.1999511719</ele>
        <time>2019-02-10T09:16:44.000Z</time>
      </trkpt>
      <trkpt lat="44.14488" lon="7.23462">
        <ele>2096.1999511719</ele>
        <time>2019-02-10T09:16:48.000Z</time>
      </trkpt>
      <trkpt lat="44.14488" lon="7.23461">
        <ele>2096.1999511719</ele>
        <time>2019-02-10T09:16:50.000Z</time>
      </trkpt>
      <trkpt lat="44.14487" lon="7.2346">
        <ele>2096.3999023438</ele>
        <time>2019-02-10T09:16:53.000Z</time>
      </trkpt>
      <trkpt lat="44.14487" lon="7.23458">
        <ele>2096.3999023438</ele>
        <time>2019-02-10T09:16:57.000Z</time>
      </trkpt>
      <trkpt lat="44.14488" lon="7.23457">
        <ele>2096.1999511719</ele>
        <time>2019-02-10T09:16:59.000Z</time>
      </trkpt>
      <trkpt lat="44.14487" lon="7.23456">
        <ele>2096</ele>
        <time>2019-02-10T09:17:02.000Z</time>
      </trkpt>
      <trkpt lat="44.14487" lon="7.23456">
        <ele>2095.8000488281</ele>
        <time>2019-02-10T09:17:04.000Z</time>
      </trkpt>
      <trkpt lat="44.14487" lon="7.23449">
        <ele>2096.3999023438</ele>
        <time>2019-02-10T09:17:09.000Z</time>
      </trkpt>
      <trkpt lat="44.14487" lon="7.23445">
        <ele>2096.1999511719</ele>
        <time>2019-02-10T09:17:11.000Z</time>
      </trkpt>
      <trkpt lat="44.14487" lon="7.23443">
        <ele>2095.6000976562</ele>
        <time>2019-02-10T09:17:13.000Z</time>
      </trkpt>
      <trkpt lat="44.14486" lon="7.23442">
        <ele>2095.6000976562</ele>
        <time>2019-02-10T09:17:14.000Z</time>
      </trkpt>
      <trkpt lat="44.14485" lon="7.23442">
        <ele>2095.1999511719</ele>
        <time>2019-02-10T09:17:16.000Z</time>
      </trkpt>
      <trkpt lat="44.14485" lon="7.23442">
        <ele>2095.1999511719</ele>
        <time>2019-02-10T09:17:19.000Z</time>
      </trkpt>
      <trkpt lat="44.14485" lon="7.23443">
        <ele>2095.8000488281</ele>
        <time>2019-02-10T09:17:30.000Z</time>
      </trkpt>
      <trkpt lat="44.14485" lon="7.23439">
        <ele>2096</ele>
        <time>2019-02-10T09:17:34.000Z</time>
      </trkpt>
      <trkpt lat="44.14484" lon="7.23434">
        <ele>2096.3999023438</ele>
        <time>2019-02-10T09:17:41.000Z</time>
      </trkpt>
      <trkpt lat="44.14485" lon="7.23433">
        <ele>2096.3999023438</ele>
        <time>2019-02-10T09:17:45.000Z</time>
      </trkpt>
      <trkpt lat="44.14485" lon="7.23433">
        <ele>2096.3999023438</ele>
        <time>2019-02-10T09:17:49.000Z</time>
      </trkpt>
      <trkpt lat="44.14487" lon="7.23435">
        <ele>2096.3999023438</ele>
        <time>2019-02-10T09:17:53.000Z</time>
      </trkpt>
      <trkpt lat="44.14495" lon="7.23438">
        <ele>2096.3999023438</ele>
        <time>2019-02-10T09:18:03.000Z</time>
      </trkpt>
      <trkpt lat="44.14499" lon="7.23439">
        <ele>2096.3999023438</ele>
        <time>2019-02-10T09:18:05.000Z</time>
      </trkpt>
      <trkpt lat="44.145" lon="7.2344">
        <ele>2096.3999023438</ele>
        <time>2019-02-10T09:18:06.000Z</time>
      </trkpt>
      <trkpt lat="44.14505" lon="7.2344">
        <ele>2096.3999023438</ele>
        <time>2019-02-10T09:18:11.000Z</time>
      </trkpt>
      <trkpt lat="44.14507" lon="7.2344">
        <ele>2096.3999023438</ele>
        <time>2019-02-10T09:18:14.000Z</time>
      </trkpt>
      <trkpt lat="44.14508" lon="7.23442">
        <ele>2096.3999023438</ele>
        <time>2019-02-10T09:18:16.000Z</time>
      </trkpt>
      <trkpt lat="44.14508" lon="7.23442">
        <ele>2096.3999023438</ele>
        <time>2019-02-10T09:18:20.000Z</time>
      </trkpt>
      <trkpt lat="44.14508" lon="7.23442">
        <ele>2096.3999023438</ele>
        <time>2019-02-10T09:18:23.000Z</time>
      </trkpt>
      <trkpt lat="44.14508" lon="7.23442">
        <ele>2096.1999511719</ele>
        <time>2019-02-10T09:18:24.000Z</time>
      </trkpt>
      <trkpt lat="44.14504" lon="7.23441">
        <ele>2096.1999511719</ele>
        <time>2019-02-10T09:18:31.000Z</time>
      </trkpt>
      <trkpt lat="44.14504" lon="7.23441">
        <ele>2096.1999511719</ele>
        <time>2019-02-10T09:18:33.000Z</time>
      </trkpt>
      <trkpt lat="44.14502" lon="7.23441">
        <ele>2096.1999511719</ele>
        <time>2019-02-10T09:18:36.000Z</time>
      </trkpt>
      <trkpt lat="44.14498" lon="7.2344">
        <ele>2096.1999511719</ele>
        <time>2019-02-10T09:18:40.000Z</time>
      </trkpt>
      <trkpt lat="44.14494" lon="7.23435">
        <ele>2096</ele>
        <time>2019-02-10T09:18:50.000Z</time>
      </trkpt>
      <trkpt lat="44.14495" lon="7.23435">
        <ele>2096</ele>
        <time>2019-02-10T09:18:52.000Z</time>
      </trkpt>
      <trkpt lat="44.14495" lon="7.23435">
        <ele>2096</ele>
        <time>2019-02-10T09:18:56.000Z</time>
      </trkpt>
      <trkpt lat="44.14495" lon="7.23435">
        <ele>2096</ele>
        <time>2019-02-10T09:18:59.000Z</time>
      </trkpt>
      <trkpt lat="44.14495" lon="7.23435">
        <ele>2096</ele>
        <time>2019-02-10T09:19:00.000Z</time>
      </trkpt>
      <trkpt lat="44.14496" lon="7.23439">
        <ele>2096</ele>
        <time>2019-02-10T09:19:07.000Z</time>
      </trkpt>
      <trkpt lat="44.14493" lon="7.23439">
        <ele>2096</ele>
        <time>2019-02-10T09:19:14.000Z</time>
      </trkpt>
      <trkpt lat="44.14493" lon="7.23438">
        <ele>2096</ele>
        <time>2019-02-10T09:19:17.000Z</time>
      </trkpt>
      <trkpt lat="44.14489" lon="7.23435">
        <ele>2096</ele>
        <time>2019-02-10T09:19:35.000Z</time>
      </trkpt>
      <trkpt lat="44.1449" lon="7.23434">
        <ele>2096</ele>
        <time>2019-02-10T09:19:37.000Z</time>
      </trkpt>
      <trkpt lat="44.1449" lon="7.23431">
        <ele>2096</ele>
        <time>2019-02-10T09:19:40.000Z</time>
      </trkpt>
      <trkpt lat="44.14494" lon="7.23424">
        <ele>2096</ele>
        <time>2019-02-10T09:19:45.000Z</time>
      </trkpt>
      <trkpt lat="44.14494" lon="7.23421">
        <ele>2097</ele>
        <time>2019-02-10T09:19:48.000Z</time>
      </trkpt>
      <trkpt lat="44.14498" lon="7.23411">
        <ele>2096.8000488281</ele>
        <time>2019-02-10T09:19:57.000Z</time>
      </trkpt>
      <trkpt lat="44.14498" lon="7.23409">
        <ele>2096.8000488281</ele>
        <time>2019-02-10T09:19:59.000Z</time>
      </trkpt>
      <trkpt lat="44.14501" lon="7.23404">
        <ele>2097</ele>
        <time>2019-02-10T09:20:05.000Z</time>
      </trkpt>
      <trkpt lat="44.14503" lon="7.23399">
        <ele>2097</ele>
        <time>2019-02-10T09:20:08.000Z</time>
      </trkpt>
      <trkpt lat="44.14504" lon="7.23395">
        <ele>2097.1999511719</ele>
        <time>2019-02-10T09:20:10.000Z</time>
      </trkpt>
      <trkpt lat="44.14506" lon="7.23391">
        <ele>2097.3999023438</ele>
        <time>2019-02-10T09:20:12.000Z</time>
      </trkpt>
      <trkpt lat="44.14509" lon="7.23386">
        <ele>2097.3999023438</ele>
        <time>2019-02-10T09:20:17.000Z</time>
      </trkpt>
      <trkpt lat="44.14512" lon="7.23381">
        <ele>2097.8000488281</ele>
        <time>2019-02-10T09:20:23.000Z</time>
      </trkpt>
      <trkpt lat="44.14513" lon="7.23379">
        <ele>2098</ele>
        <time>2019-02-10T09:20:25.000Z</time>
      </trkpt>
      <trkpt lat="44.14521" lon="7.23361">
        <ele>2098.6000976562</ele>
        <time>2019-02-10T09:20:48.000Z</time>
      </trkpt>
      <trkpt lat="44.14523" lon="7.23357">
        <ele>2099</ele>
        <time>2019-02-10T09:20:52.000Z</time>
      </trkpt>
      <trkpt lat="44.1453" lon="7.23349">
        <ele>2099.8000488281</ele>
        <time>2019-02-10T09:21:06.000Z</time>
      </trkpt>
      <trkpt lat="44.14531" lon="7.23347">
        <ele>2100</ele>
        <time>2019-02-10T09:21:08.000Z</time>
      </trkpt>
      <trkpt lat="44.14533" lon="7.23347">
        <ele>2100.8000488281</ele>
        <time>2019-02-10T09:21:11.000Z</time>
      </trkpt>
      <trkpt lat="44.14538" lon="7.23353">
        <ele>2101</ele>
        <time>2019-02-10T09:21:16.000Z</time>
      </trkpt>
      <trkpt lat="44.14538" lon="7.23354">
        <ele>2101.1999511719</ele>
        <time>2019-02-10T09:21:17.000Z</time>
      </trkpt>
      <trkpt lat="44.14539" lon="7.23356">
        <ele>2101.1999511719</ele>
        <time>2019-02-10T09:21:18.000Z</time>
      </trkpt>
      <trkpt lat="44.14541" lon="7.23358">
        <ele>2101.8000488281</ele>
        <time>2019-02-10T09:21:21.000Z</time>
      </trkpt>
      <trkpt lat="44.14542" lon="7.23359">
        <ele>2102.1999511719</ele>
        <time>2019-02-10T09:21:22.000Z</time>
      </trkpt>
      <trkpt lat="44.14545" lon="7.23363">
        <ele>2102.3999023438</ele>
        <time>2019-02-10T09:21:26.000Z</time>
      </trkpt>
      <trkpt lat="44.14548" lon="7.23365">
        <ele>2103</ele>
        <time>2019-02-10T09:21:29.000Z</time>
      </trkpt>
      <trkpt lat="44.14549" lon="7.23367">
        <ele>2103.1999511719</ele>
        <time>2019-02-10T09:21:32.000Z</time>
      </trkpt>
      <trkpt lat="44.1455" lon="7.2337">
        <ele>2103.3999023438</ele>
        <time>2019-02-10T09:21:35.000Z</time>
      </trkpt>
      <trkpt lat="44.14551" lon="7.23374">
        <ele>2104</ele>
        <time>2019-02-10T09:21:40.000Z</time>
      </trkpt>
      <trkpt lat="44.14552" lon="7.23376">
        <ele>2104.3999023438</ele>
        <time>2019-02-10T09:21:44.000Z</time>
      </trkpt>
      <trkpt lat="44.14556" lon="7.2338">
        <ele>2105.6000976562</ele>
        <time>2019-02-10T09:21:51.000Z</time>
      </trkpt>
      <trkpt lat="44.14564" lon="7.23384">
        <ele>2106.6000976562</ele>
        <time>2019-02-10T09:22:00.000Z</time>
      </trkpt>
      <trkpt lat="44.14565" lon="7.23385">
        <ele>2106.8000488281</ele>
        <time>2019-02-10T09:22:01.000Z</time>
      </trkpt>
      <trkpt lat="44.14566" lon="7.23386">
        <ele>2107</ele>
        <time>2019-02-10T09:22:03.000Z</time>
      </trkpt>
      <trkpt lat="44.14567" lon="7.23388">
        <ele>2107.3999023438</ele>
        <time>2019-02-10T09:22:06.000Z</time>
      </trkpt>
      <trkpt lat="44.14568" lon="7.23391">
        <ele>2107.8000488281</ele>
        <time>2019-02-10T09:22:09.000Z</time>
      </trkpt>
      <trkpt lat="44.14569" lon="7.23395">
        <ele>2109</ele>
        <time>2019-02-10T09:22:15.000Z</time>
      </trkpt>
      <trkpt lat="44.1457" lon="7.234">
        <ele>2110</ele>
        <time>2019-02-10T09:22:21.000Z</time>
      </trkpt>
      <trkpt lat="44.14579" lon="7.23407">
        <ele>2111</ele>
        <time>2019-02-10T09:22:32.000Z</time>
      </trkpt>
      <trkpt lat="44.14583" lon="7.23415">
        <ele>2111.8000488281</ele>
        <time>2019-02-10T09:22:44.000Z</time>
      </trkpt>
      <trkpt lat="44.14583" lon="7.23417">
        <ele>2111.6000976562</ele>
        <time>2019-02-10T09:22:48.000Z</time>
      </trkpt>
      <trkpt lat="44.14583" lon="7.23417">
        <ele>2111.6000976562</ele>
        <time>2019-02-10T09:22:50.000Z</time>
      </trkpt>
      <trkpt lat="44.14583" lon="7.23418">
        <ele>2112.1999511719</ele>
        <time>2019-02-10T09:22:52.000Z</time>
      </trkpt>
      <trkpt lat="44.14585" lon="7.23421">
        <ele>2113.1999511719</ele>
        <time>2019-02-10T09:22:59.000Z</time>
      </trkpt>
      <trkpt lat="44.14589" lon="7.23423">
        <ele>2114.1999511719</ele>
        <time>2019-02-10T09:23:05.000Z</time>
      </trkpt>
      <trkpt lat="44.14591" lon="7.23425">
        <ele>2115.1999511719</ele>
        <time>2019-02-10T09:23:11.000Z</time>
      </trkpt>
      <trkpt lat="44.14596" lon="7.23422">
        <ele>2116.3999023438</ele>
        <time>2019-02-10T09:23:20.000Z</time>
      </trkpt>
      <trkpt lat="44.146" lon="7.23421">
        <ele>2117.3999023438</ele>
        <time>2019-02-10T09:23:25.000Z</time>
      </trkpt>
      <trkpt lat="44.14604" lon="7.23421">
        <ele>2118.6000976562</ele>
        <time>2019-02-10T09:23:34.000Z</time>
      </trkpt>
      <trkpt lat="44.14608" lon="7.23421">
        <ele>2119.8000488281</ele>
        <time>2019-02-10T09:23:41.000Z</time>
      </trkpt>
      <trkpt lat="44.1461" lon="7.23419">
        <ele>2120.6000976562</ele>
        <time>2019-02-10T09:23:53.000Z</time>
      </trkpt>
      <trkpt lat="44.1461" lon="7.23418">
        <ele>2120.8000488281</ele>
        <time>2019-02-10T09:23:54.000Z</time>
      </trkpt>
      <trkpt lat="44.14611" lon="7.23418">
        <ele>2121</ele>
        <time>2019-02-10T09:23:55.000Z</time>
      </trkpt>
      <trkpt lat="44.14613" lon="7.23417">
        <ele>2121.8000488281</ele>
        <time>2019-02-10T09:24:00.000Z</time>
      </trkpt>
      <trkpt lat="44.14618" lon="7.23413">
        <ele>2122.8000488281</ele>
        <time>2019-02-10T09:24:08.000Z</time>
      </trkpt>
      <trkpt lat="44.14623" lon="7.2341">
        <ele>2123.8000488281</ele>
        <time>2019-02-10T09:24:19.000Z</time>
      </trkpt>
      <trkpt lat="44.14626" lon="7.23416">
        <ele>2124.8000488281</ele>
        <time>2019-02-10T09:24:28.000Z</time>
      </trkpt>
      <trkpt lat="44.1463" lon="7.23424">
        <ele>2126</ele>
        <time>2019-02-10T09:24:36.000Z</time>
      </trkpt>
      <trkpt lat="44.14632" lon="7.23432">
        <ele>2127</ele>
        <time>2019-02-10T09:24:45.000Z</time>
      </trkpt>
      <trkpt lat="44.14628" lon="7.23434">
        <ele>2127.3999023438</ele>
        <time>2019-02-10T09:24:55.000Z</time>
      </trkpt>
      <trkpt lat="44.14631" lon="7.23435">
        <ele>2127.3999023438</ele>
        <time>2019-02-10T09:25:04.000Z</time>
      </trkpt>
      <trkpt lat="44.14632" lon="7.23435">
        <ele>2127.3999023438</ele>
        <time>2019-02-10T09:25:10.000Z</time>
      </trkpt>
      <trkpt lat="44.14633" lon="7.23436">
        <ele>2127.3999023438</ele>
        <time>2019-02-10T09:25:12.000Z</time>
      </trkpt>
      <trkpt lat="44.14632" lon="7.2344">
        <ele>2127.3999023438</ele>
        <time>2019-02-10T09:25:17.000Z</time>
      </trkpt>
      <trkpt lat="44.14632" lon="7.2344">
        <ele>2127.3999023438</ele>
        <time>2019-02-10T09:25:18.000Z</time>
      </trkpt>
      <trkpt lat="44.14634" lon="7.23439">
        <ele>2127.3999023438</ele>
        <time>2019-02-10T09:25:21.000Z</time>
      </trkpt>
      <trkpt lat="44.14634" lon="7.23437">
        <ele>2127.3999023438</ele>
        <time>2019-02-10T09:25:28.000Z</time>
      </trkpt>
      <trkpt lat="44.14634" lon="7.23437">
        <ele>2127.3999023438</ele>
        <time>2019-02-10T09:25:30.000Z</time>
      </trkpt>
      <trkpt lat="44.14634" lon="7.23436">
        <ele>2127.3999023438</ele>
        <time>2019-02-10T09:25:35.000Z</time>
      </trkpt>
      <trkpt lat="44.14633" lon="7.23436">
        <ele>2127.3999023438</ele>
        <time>2019-02-10T09:25:36.000Z</time>
      </trkpt>
      <trkpt lat="44.14632" lon="7.23435">
        <ele>2127.3999023438</ele>
        <time>2019-02-10T09:25:39.000Z</time>
      </trkpt>
      <trkpt lat="44.14632" lon="7.23435">
        <ele>2127.3999023438</ele>
        <time>2019-02-10T09:25:40.000Z</time>
      </trkpt>
      <trkpt lat="44.14631" lon="7.23436">
        <ele>2127.1999511719</ele>
        <time>2019-02-10T09:25:45.000Z</time>
      </trkpt>
      <trkpt lat="44.14631" lon="7.23436">
        <ele>2127.1999511719</ele>
        <time>2019-02-10T09:25:46.000Z</time>
      </trkpt>
      <trkpt lat="44.14632" lon="7.23436">
        <ele>2127.3999023438</ele>
        <time>2019-02-10T09:25:48.000Z</time>
      </trkpt>
      <trkpt lat="44.14633" lon="7.23436">
        <ele>2127.3999023438</ele>
        <time>2019-02-10T09:25:51.000Z</time>
      </trkpt>
      <trkpt lat="44.14631" lon="7.2344">
        <ele>2127.6000976562</ele>
        <time>2019-02-10T09:25:55.000Z</time>
      </trkpt>
      <trkpt lat="44.1463" lon="7.2344">
        <ele>2127.6000976562</ele>
        <time>2019-02-10T09:25:56.000Z</time>
      </trkpt>
      <trkpt lat="44.1463" lon="7.23441">
        <ele>2127.6000976562</ele>
        <time>2019-02-10T09:25:58.000Z</time>
      </trkpt>
      <trkpt lat="44.1463" lon="7.23441">
        <ele>2127.8000488281</ele>
        <time>2019-02-10T09:25:59.000Z</time>
      </trkpt>
      <trkpt lat="44.1463" lon="7.23441">
        <ele>2127.8000488281</ele>
        <time>2019-02-10T09:26:00.000Z</time>
      </trkpt>
      <trkpt lat="44.1463" lon="7.23443">
        <ele>2127.8000488281</ele>
        <time>2019-02-10T09:26:02.000Z</time>
      </trkpt>
      <trkpt lat="44.1463" lon="7.23445">
        <ele>2127.8000488281</ele>
        <time>2019-02-10T09:26:04.000Z</time>
      </trkpt>
      <trkpt lat="44.1463" lon="7.23445">
        <ele>2128</ele>
        <time>2019-02-10T09:26:07.000Z</time>
      </trkpt>
      <trkpt lat="44.1463" lon="7.23446">
        <ele>2128.1999511719</ele>
        <time>2019-02-10T09:26:08.000Z</time>
      </trkpt>
      <trkpt lat="44.14631" lon="7.23446">
        <ele>2128.6000976562</ele>
        <time>2019-02-10T09:26:10.000Z</time>
      </trkpt>
      <trkpt lat="44.1463" lon="7.2345">
        <ele>2129.1999511719</ele>
        <time>2019-02-10T09:26:16.000Z</time>
      </trkpt>
      <trkpt lat="44.1463" lon="7.23452">
        <ele>2129.3999023438</ele>
        <time>2019-02-10T09:26:18.000Z</time>
      </trkpt>
      <trkpt lat="44.1463" lon="7.23453">
        <ele>2129.3999023438</ele>
        <time>2019-02-10T09:26:20.000Z</time>
      </trkpt>
      <trkpt lat="44.14629" lon="7.23457">
        <ele>2130.3999023438</ele>
        <time>2019-02-10T09:26:27.000Z</time>
      </trkpt>
      <trkpt lat="44.14629" lon="7.23458">
        <ele>2131.1999511719</ele>
        <time>2019-02-10T09:26:31.000Z</time>
      </trkpt>
      <trkpt lat="44.14629" lon="7.23457">
        <ele>2131.6000976562</ele>
        <time>2019-02-10T09:26:33.000Z</time>
      </trkpt>
      <trkpt lat="44.14632" lon="7.23456">
        <ele>2131.8000488281</ele>
        <time>2019-02-10T09:26:36.000Z</time>
      </trkpt>
      <trkpt lat="44.14635" lon="7.23454">
        <ele>2132.6000976562</ele>
        <time>2019-02-10T09:26:42.000Z</time>
      </trkpt>
      <trkpt lat="44.14638" lon="7.23452">
        <ele>2133.8000488281</ele>
        <time>2019-02-10T09:26:47.000Z</time>
      </trkpt>
      <trkpt lat="44.14642" lon="7.23451">
        <ele>2134.6000976562</ele>
        <time>2019-02-10T09:26:54.000Z</time>
      </trkpt>
      <trkpt lat="44.14644" lon="7.23452">
        <ele>2134.8000488281</ele>
        <time>2019-02-10T09:26:57.000Z</time>
      </trkpt>
      <trkpt lat="44.14647" lon="7.23453">
        <ele>2136.1999511719</ele>
        <time>2019-02-10T09:27:01.000Z</time>
      </trkpt>
      <trkpt lat="44.14651" lon="7.2345">
        <ele>2137</ele>
        <time>2019-02-10T09:27:08.000Z</time>
      </trkpt>
      <trkpt lat="44.14651" lon="7.2345">
        <ele>2137.1999511719</ele>
        <time>2019-02-10T09:27:09.000Z</time>
      </trkpt>
      <trkpt lat="44.14654" lon="7.23449">
        <ele>2138.3999023438</ele>
        <time>2019-02-10T09:27:17.000Z</time>
      </trkpt>
      <trkpt lat="44.14656" lon="7.23447">
        <ele>2139.3999023438</ele>
        <time>2019-02-10T09:27:21.000Z</time>
      </trkpt>
      <trkpt lat="44.14663" lon="7.23451">
        <ele>2140.6000976562</ele>
        <time>2019-02-10T09:27:31.000Z</time>
      </trkpt>
      <trkpt lat="44.14664" lon="7.23455">
        <ele>2141.8000488281</ele>
        <time>2019-02-10T09:27:37.000Z</time>
      </trkpt>
      <trkpt lat="44.14661" lon="7.23467">
        <ele>2142.8000488281</ele>
        <time>2019-02-10T09:27:49.000Z</time>
      </trkpt>
      <trkpt lat="44.14661" lon="7.23471">
        <ele>2143.8000488281</ele>
        <time>2019-02-10T09:27:54.000Z</time>
      </trkpt>
      <trkpt lat="44.1466" lon="7.23471">
        <ele>2143.8000488281</ele>
        <time>2019-02-10T09:27:56.000Z</time>
      </trkpt>
      <trkpt lat="44.14669" lon="7.23467">
        <ele>2144.6000976562</ele>
        <time>2019-02-10T09:28:07.000Z</time>
      </trkpt>
      <trkpt lat="44.1467" lon="7.23463">
        <ele>2145</ele>
        <time>2019-02-10T09:28:13.000Z</time>
      </trkpt>
      <trkpt lat="44.14671" lon="7.2346">
        <ele>2146</ele>
        <time>2019-02-10T09:28:17.000Z</time>
      </trkpt>
      <trkpt lat="44.14671" lon="7.23458">
        <ele>2146.1999511719</ele>
        <time>2019-02-10T09:28:18.000Z</time>
      </trkpt>
      <trkpt lat="44.14672" lon="7.23457">
        <ele>2147.1999511719</ele>
        <time>2019-02-10T09:28:24.000Z</time>
      </trkpt>
      <trkpt lat="44.14676" lon="7.23463">
        <ele>2148.3999023438</ele>
        <time>2019-02-10T09:28:30.000Z</time>
      </trkpt>
      <trkpt lat="44.14674" lon="7.2347">
        <ele>2149.3999023438</ele>
        <time>2019-02-10T09:28:38.000Z</time>
      </trkpt>
      <trkpt lat="44.14676" lon="7.23477">
        <ele>2150.3999023438</ele>
        <time>2019-02-10T09:28:45.000Z</time>
      </trkpt>
      <trkpt lat="44.14678" lon="7.23485">
        <ele>2151.6000976562</ele>
        <time>2019-02-10T09:28:52.000Z</time>
      </trkpt>
      <trkpt lat="44.14682" lon="7.23489">
        <ele>2152.6000976562</ele>
        <time>2019-02-10T09:29:08.000Z</time>
      </trkpt>
      <trkpt lat="44.14684" lon="7.23488">
        <ele>2153.3999023438</ele>
        <time>2019-02-10T09:29:11.000Z</time>
      </trkpt>
      <trkpt lat="44.14684" lon="7.23487">
        <ele>2153.6000976562</ele>
        <time>2019-02-10T09:29:12.000Z</time>
      </trkpt>
      <trkpt lat="44.14685" lon="7.23486">
        <ele>2154.8000488281</ele>
        <time>2019-02-10T09:29:16.000Z</time>
      </trkpt>
      <trkpt lat="44.14692" lon="7.23478">
        <ele>2155.3999023438</ele>
        <time>2019-02-10T09:29:22.000Z</time>
      </trkpt>
      <trkpt lat="44.14694" lon="7.23475">
        <ele>2155.6000976562</ele>
        <time>2019-02-10T09:29:34.000Z</time>
      </trkpt>
      <trkpt lat="44.14696" lon="7.23476">
        <ele>2156</ele>
        <time>2019-02-10T09:29:37.000Z</time>
      </trkpt>
      <trkpt lat="44.14695" lon="7.23477">
        <ele>2156.1999511719</ele>
        <time>2019-02-10T09:29:40.000Z</time>
      </trkpt>
      <trkpt lat="44.14693" lon="7.23477">
        <ele>2156.1999511719</ele>
        <time>2019-02-10T09:29:49.000Z</time>
      </trkpt>
      <trkpt lat="44.14694" lon="7.23479">
        <ele>2156.3999023438</ele>
        <time>2019-02-10T09:29:51.000Z</time>
      </trkpt>
      <trkpt lat="44.14697" lon="7.23481">
        <ele>2156.1999511719</ele>
        <time>2019-02-10T09:30:02.000Z</time>
      </trkpt>
      <trkpt lat="44.14698" lon="7.23481">
        <ele>2156.1999511719</ele>
        <time>2019-02-10T09:30:04.000Z</time>
      </trkpt>
      <trkpt lat="44.14698" lon="7.23482">
        <ele>2157.1999511719</ele>
        <time>2019-02-10T09:30:08.000Z</time>
      </trkpt>
      <trkpt lat="44.14699" lon="7.23481">
        <ele>2158.1999511719</ele>
        <time>2019-02-10T09:30:11.000Z</time>
      </trkpt>
      <trkpt lat="44.147" lon="7.2348">
        <ele>2158.8000488281</ele>
        <time>2019-02-10T09:30:14.000Z</time>
      </trkpt>
      <trkpt lat="44.14707" lon="7.23477">
        <ele>2159.3999023438</ele>
        <time>2019-02-10T09:30:27.000Z</time>
      </trkpt>
      <trkpt lat="44.14705" lon="7.23481">
        <ele>2160.3999023438</ele>
        <time>2019-02-10T09:30:33.000Z</time>
      </trkpt>
      <trkpt lat="44.14702" lon="7.2349">
        <ele>2160.3999023438</ele>
        <time>2019-02-10T09:30:49.000Z</time>
      </trkpt>
      <trkpt lat="44.14701" lon="7.23492">
        <ele>2160.6000976562</ele>
        <time>2019-02-10T09:30:54.000Z</time>
      </trkpt>
      <trkpt lat="44.147" lon="7.23496">
        <ele>2160.8000488281</ele>
        <time>2019-02-10T09:30:57.000Z</time>
      </trkpt>
      <trkpt lat="44.147" lon="7.23497">
        <ele>2160.8000488281</ele>
        <time>2019-02-10T09:30:58.000Z</time>
      </trkpt>
      <trkpt lat="44.147" lon="7.23497">
        <ele>2161</ele>
        <time>2019-02-10T09:30:59.000Z</time>
      </trkpt>
      <trkpt lat="44.147" lon="7.23499">
        <ele>2161.1999511719</ele>
        <time>2019-02-10T09:31:01.000Z</time>
      </trkpt>
      <trkpt lat="44.14699" lon="7.23501">
        <ele>2161.3999023438</ele>
        <time>2019-02-10T09:31:03.000Z</time>
      </trkpt>
      <trkpt lat="44.147" lon="7.23504">
        <ele>2161.8000488281</ele>
        <time>2019-02-10T09:31:06.000Z</time>
      </trkpt>
      <trkpt lat="44.14699" lon="7.23506">
        <ele>2162</ele>
        <time>2019-02-10T09:31:07.000Z</time>
      </trkpt>
      <trkpt lat="44.14699" lon="7.23507">
        <ele>2162.1999511719</ele>
        <time>2019-02-10T09:31:08.000Z</time>
      </trkpt>
      <trkpt lat="44.14698" lon="7.23508">
        <ele>2162.1999511719</ele>
        <time>2019-02-10T09:31:09.000Z</time>
      </trkpt>
      <trkpt lat="44.14697" lon="7.23511">
        <ele>2162.6000976562</ele>
        <time>2019-02-10T09:31:13.000Z</time>
      </trkpt>
      <trkpt lat="44.14692" lon="7.2352">
        <ele>2163.3999023438</ele>
        <time>2019-02-10T09:31:20.000Z</time>
      </trkpt>
      <trkpt lat="44.14692" lon="7.23521">
        <ele>2163.6000976562</ele>
        <time>2019-02-10T09:31:22.000Z</time>
      </trkpt>
      <trkpt lat="44.14693" lon="7.23523">
        <ele>2164.1999511719</ele>
        <time>2019-02-10T09:31:25.000Z</time>
      </trkpt>
      <trkpt lat="44.14697" lon="7.23522">
        <ele>2164.6000976562</ele>
        <time>2019-02-10T09:31:29.000Z</time>
      </trkpt>
      <trkpt lat="44.14703" lon="7.23521">
        <ele>2165.8000488281</ele>
        <time>2019-02-10T09:31:36.000Z</time>
      </trkpt>
      <trkpt lat="44.14701" lon="7.23527">
        <ele>2167</ele>
        <time>2019-02-10T09:31:42.000Z</time>
      </trkpt>
      <trkpt lat="44.147" lon="7.23533">
        <ele>2167.3999023438</ele>
        <time>2019-02-10T09:31:47.000Z</time>
      </trkpt>
      <trkpt lat="44.14697" lon="7.23538">
        <ele>2167.8000488281</ele>
        <time>2019-02-10T09:31:52.000Z</time>
      </trkpt>
      <trkpt lat="44.14695" lon="7.2354">
        <ele>2168</ele>
        <time>2019-02-10T09:31:54.000Z</time>
      </trkpt>
      <trkpt lat="44.14691" lon="7.23543">
        <ele>2168.8000488281</ele>
        <time>2019-02-10T09:31:58.000Z</time>
      </trkpt>
      <trkpt lat="44.1469" lon="7.23543">
        <ele>2169</ele>
        <time>2019-02-10T09:31:59.000Z</time>
      </trkpt>
      <trkpt lat="44.1469" lon="7.23544">
        <ele>2169</ele>
        <time>2019-02-10T09:32:00.000Z</time>
      </trkpt>
      <trkpt lat="44.1469" lon="7.23546">
        <ele>2169.3999023438</ele>
        <time>2019-02-10T09:32:02.000Z</time>
      </trkpt>
      <trkpt lat="44.14688" lon="7.23549">
        <ele>2170.3999023438</ele>
        <time>2019-02-10T09:32:06.000Z</time>
      </trkpt>
      <trkpt lat="44.14685" lon="7.23551">
        <ele>2171.3999023438</ele>
        <time>2019-02-10T09:32:10.000Z</time>
      </trkpt>
      <trkpt lat="44.14684" lon="7.23552">
        <ele>2171.3999023438</ele>
        <time>2019-02-10T09:32:11.000Z</time>
      </trkpt>
      <trkpt lat="44.14684" lon="7.23555">
        <ele>2171.6000976562</ele>
        <time>2019-02-10T09:32:13.000Z</time>
      </trkpt>
      <trkpt lat="44.14686" lon="7.23556">
        <ele>2172</ele>
        <time>2019-02-10T09:32:17.000Z</time>
      </trkpt>
      <trkpt lat="44.14686" lon="7.23556">
        <ele>2172.3999023438</ele>
        <time>2019-02-10T09:32:19.000Z</time>
      </trkpt>
      <trkpt lat="44.14698" lon="7.23555">
        <ele>2173.8000488281</ele>
        <time>2019-02-10T09:32:28.000Z</time>
      </trkpt>
      <trkpt lat="44.14704" lon="7.23555">
        <ele>2174.6000976562</ele>
        <time>2019-02-10T09:32:36.000Z</time>
      </trkpt>
      <trkpt lat="44.14704" lon="7.23556">
        <ele>2174.8000488281</ele>
        <time>2019-02-10T09:32:37.000Z</time>
      </trkpt>
      <trkpt lat="44.14707" lon="7.23556">
        <ele>2176</ele>
        <time>2019-02-10T09:32:42.000Z</time>
      </trkpt>
      <trkpt lat="44.14711" lon="7.23557">
        <ele>2177.1999511719</ele>
        <time>2019-02-10T09:32:45.000Z</time>
      </trkpt>
      <trkpt lat="44.14716" lon="7.23556">
        <ele>2178</ele>
        <time>2019-02-10T09:32:51.000Z</time>
      </trkpt>
      <trkpt lat="44.14717" lon="7.23556">
        <ele>2178.1999511719</ele>
        <time>2019-02-10T09:32:52.000Z</time>
      </trkpt>
      <trkpt lat="44.14719" lon="7.23556">
        <ele>2178.6000976562</ele>
        <time>2019-02-10T09:32:55.000Z</time>
      </trkpt>
      <trkpt lat="44.14719" lon="7.23557">
        <ele>2179.1999511719</ele>
        <time>2019-02-10T09:32:57.000Z</time>
      </trkpt>
      <trkpt lat="44.14722" lon="7.23567">
        <ele>2180.3999023438</ele>
        <time>2019-02-10T09:33:07.000Z</time>
      </trkpt>
      <trkpt lat="44.14722" lon="7.23572">
        <ele>2181.3999023438</ele>
        <time>2019-02-10T09:33:15.000Z</time>
      </trkpt>
      <trkpt lat="44.14725" lon="7.23571">
        <ele>2182.6000976562</ele>
        <time>2019-02-10T09:33:20.000Z</time>
      </trkpt>
      <trkpt lat="44.14727" lon="7.23568">
        <ele>2183.6000976562</ele>
        <time>2019-02-10T09:33:26.000Z</time>
      </trkpt>
      <trkpt lat="44.14732" lon="7.23566">
        <ele>2184.6000976562</ele>
        <time>2019-02-10T09:33:32.000Z</time>
      </trkpt>
      <trkpt lat="44.14737" lon="7.23566">
        <ele>2186</ele>
        <time>2019-02-10T09:33:38.000Z</time>
      </trkpt>
      <trkpt lat="44.14741" lon="7.23567">
        <ele>2187</ele>
        <time>2019-02-10T09:33:48.000Z</time>
      </trkpt>
      <trkpt lat="44.14749" lon="7.23568">
        <ele>2187.6000976562</ele>
        <time>2019-02-10T09:33:59.000Z</time>
      </trkpt>
      <trkpt lat="44.14751" lon="7.23569">
        <ele>2188.1999511719</ele>
        <time>2019-02-10T09:34:02.000Z</time>
      </trkpt>
      <trkpt lat="44.14753" lon="7.23567">
        <ele>2189.3999023438</ele>
        <time>2019-02-10T09:34:06.000Z</time>
      </trkpt>
      <trkpt lat="44.14756" lon="7.23562">
        <ele>2189.1999511719</ele>
        <time>2019-02-10T09:34:25.000Z</time>
      </trkpt>
      <trkpt lat="44.14756" lon="7.23562">
        <ele>2189.1999511719</ele>
        <time>2019-02-10T09:34:28.000Z</time>
      </trkpt>
      <trkpt lat="44.14759" lon="7.23562">
        <ele>2189.6000976562</ele>
        <time>2019-02-10T09:34:32.000Z</time>
      </trkpt>
      <trkpt lat="44.1476" lon="7.23563">
        <ele>2190.1999511719</ele>
        <time>2019-02-10T09:34:35.000Z</time>
      </trkpt>
      <trkpt lat="44.14759" lon="7.23564">
        <ele>2190.3999023438</ele>
        <time>2019-02-10T09:34:37.000Z</time>
      </trkpt>
      <trkpt lat="44.14758" lon="7.23566">
        <ele>2190.3999023438</ele>
        <time>2019-02-10T09:34:47.000Z</time>
      </trkpt>
      <trkpt lat="44.14759" lon="7.23567">
        <ele>2190.6000976562</ele>
        <time>2019-02-10T09:34:51.000Z</time>
      </trkpt>
      <trkpt lat="44.14759" lon="7.23566">
        <ele>2190.3999023438</ele>
        <time>2019-02-10T09:34:56.000Z</time>
      </trkpt>
      <trkpt lat="44.14759" lon="7.23566">
        <ele>2190.3999023438</ele>
        <time>2019-02-10T09:34:57.000Z</time>
      </trkpt>
      <trkpt lat="44.1476" lon="7.23566">
        <ele>2190.3999023438</ele>
        <time>2019-02-10T09:34:59.000Z</time>
      </trkpt>
      <trkpt lat="44.14764" lon="7.23568">
        <ele>2191</ele>
        <time>2019-02-10T09:35:04.000Z</time>
      </trkpt>
      <trkpt lat="44.14766" lon="7.23569">
        <ele>2191</ele>
        <time>2019-02-10T09:35:06.000Z</time>
      </trkpt>
      <trkpt lat="44.14767" lon="7.2357">
        <ele>2191</ele>
        <time>2019-02-10T09:35:07.000Z</time>
      </trkpt>
      <trkpt lat="44.14767" lon="7.23571">
        <ele>2191</ele>
        <time>2019-02-10T09:35:08.000Z</time>
      </trkpt>
      <trkpt lat="44.14767" lon="7.23573">
        <ele>2191.3999023438</ele>
        <time>2019-02-10T09:35:11.000Z</time>
      </trkpt>
      <trkpt lat="44.14767" lon="7.23574">
        <ele>2191.8000488281</ele>
        <time>2019-02-10T09:35:12.000Z</time>
      </trkpt>
      <trkpt lat="44.14772" lon="7.23577">
        <ele>2192.6000976562</ele>
        <time>2019-02-10T09:35:17.000Z</time>
      </trkpt>
      <trkpt lat="44.14776" lon="7.23579">
        <ele>2192.8000488281</ele>
        <time>2019-02-10T09:35:20.000Z</time>
      </trkpt>
      <trkpt lat="44.14777" lon="7.2358">
        <ele>2193</ele>
        <time>2019-02-10T09:35:21.000Z</time>
      </trkpt>
      <trkpt lat="44.1478" lon="7.23581">
        <ele>2193.3999023438</ele>
        <time>2019-02-10T09:35:24.000Z</time>
      </trkpt>
      <trkpt lat="44.14781" lon="7.23584">
        <ele>2194</ele>
        <time>2019-02-10T09:35:29.000Z</time>
      </trkpt>
      <trkpt lat="44.14782" lon="7.23589">
        <ele>2194.6000976562</ele>
        <time>2019-02-10T09:35:35.000Z</time>
      </trkpt>
      <trkpt lat="44.14786" lon="7.23598">
        <ele>2195</ele>
        <time>2019-02-10T09:35:45.000Z</time>
      </trkpt>
      <trkpt lat="44.14789" lon="7.236">
        <ele>2195.1999511719</ele>
        <time>2019-02-10T09:35:48.000Z</time>
      </trkpt>
      <trkpt lat="44.14793" lon="7.23602">
        <ele>2195.3999023438</ele>
        <time>2019-02-10T09:35:51.000Z</time>
      </trkpt>
      <trkpt lat="44.14794" lon="7.23603">
        <ele>2195.8000488281</ele>
        <time>2019-02-10T09:35:53.000Z</time>
      </trkpt>
      <trkpt lat="44.14795" lon="7.23604">
        <ele>2196</ele>
        <time>2019-02-10T09:35:56.000Z</time>
      </trkpt>
      <trkpt lat="44.14798" lon="7.23605">
        <ele>2197.1999511719</ele>
        <time>2019-02-10T09:36:03.000Z</time>
      </trkpt>
      <trkpt lat="44.148" lon="7.23606">
        <ele>2197.8000488281</ele>
        <time>2019-02-10T09:36:07.000Z</time>
      </trkpt>
      <trkpt lat="44.14804" lon="7.23609">
        <ele>2198.1999511719</ele>
        <time>2019-02-10T09:36:11.000Z</time>
      </trkpt>
      <trkpt lat="44.14811" lon="7.23618">
        <ele>2199.3999023438</ele>
        <time>2019-02-10T09:36:22.000Z</time>
      </trkpt>
      <trkpt lat="44.1482" lon="7.23621">
        <ele>2200.3999023438</ele>
        <time>2019-02-10T09:36:28.000Z</time>
      </trkpt>
      <trkpt lat="44.14824" lon="7.23623">
        <ele>2200.6000976562</ele>
        <time>2019-02-10T09:36:31.000Z</time>
      </trkpt>
      <trkpt lat="44.14828" lon="7.23628">
        <ele>2201.1999511719</ele>
        <time>2019-02-10T09:36:38.000Z</time>
      </trkpt>
      <trkpt lat="44.14828" lon="7.2363">
        <ele>2201.6000976562</ele>
        <time>2019-02-10T09:36:40.000Z</time>
      </trkpt>
      <trkpt lat="44.14832" lon="7.23634">
        <ele>2202.3999023438</ele>
        <time>2019-02-10T09:36:52.000Z</time>
      </trkpt>
      <trkpt lat="44.14832" lon="7.23633">
        <ele>2202.6000976562</ele>
        <time>2019-02-10T09:36:53.000Z</time>
      </trkpt>
      <trkpt lat="44.14832" lon="7.23631">
        <ele>2203</ele>
        <time>2019-02-10T09:36:56.000Z</time>
      </trkpt>
      <trkpt lat="44.14833" lon="7.2363">
        <ele>2203.1999511719</ele>
        <time>2019-02-10T09:36:57.000Z</time>
      </trkpt>
      <trkpt lat="44.14836" lon="7.23626">
        <ele>2203.6000976562</ele>
        <time>2019-02-10T09:37:01.000Z</time>
      </trkpt>
      <trkpt lat="44.14841" lon="7.23618">
        <ele>2204.8000488281</ele>
        <time>2019-02-10T09:37:11.000Z</time>
      </trkpt>
      <trkpt lat="44.14852" lon="7.2362">
        <ele>2205.1999511719</ele>
        <time>2019-02-10T09:37:20.000Z</time>
      </trkpt>
      <trkpt lat="44.14856" lon="7.23623">
        <ele>2205.1999511719</ele>
        <time>2019-02-10T09:37:23.000Z</time>
      </trkpt>
      <trkpt lat="44.14865" lon="7.23627">
        <ele>2205</ele>
        <time>2019-02-10T09:37:32.000Z</time>
      </trkpt>
      <trkpt lat="44.14866" lon="7.2363">
        <ele>2205.6000976562</ele>
        <time>2019-02-10T09:37:36.000Z</time>
      </trkpt>
      <trkpt lat="44.14866" lon="7.2363">
        <ele>2205.8000488281</ele>
        <time>2019-02-10T09:37:37.000Z</time>
      </trkpt>
      <trkpt lat="44.14876" lon="7.23633">
        <ele>2207</ele>
        <time>2019-02-10T09:37:49.000Z</time>
      </trkpt>
      <trkpt lat="44.14882" lon="7.23642">
        <ele>2208</ele>
        <time>2019-02-10T09:38:04.000Z</time>
      </trkpt>
      <trkpt lat="44.1488" lon="7.2365">
        <ele>2208.8000488281</ele>
        <time>2019-02-10T09:38:12.000Z</time>
      </trkpt>
      <trkpt lat="44.1488" lon="7.23652">
        <ele>2209.1999511719</ele>
        <time>2019-02-10T09:38:14.000Z</time>
      </trkpt>
      <trkpt lat="44.14882" lon="7.23655">
        <ele>2209.6000976562</ele>
        <time>2019-02-10T09:38:18.000Z</time>
      </trkpt>
      <trkpt lat="44.14884" lon="7.23657">
        <ele>2210.1999511719</ele>
        <time>2019-02-10T09:38:21.000Z</time>
      </trkpt>
      <trkpt lat="44.14884" lon="7.23662">
        <ele>2211</ele>
        <time>2019-02-10T09:38:36.000Z</time>
      </trkpt>
      <trkpt lat="44.14882" lon="7.23662">
        <ele>2211.1999511719</ele>
        <time>2019-02-10T09:38:43.000Z</time>
      </trkpt>
      <trkpt lat="44.14883" lon="7.23664">
        <ele>2211.1999511719</ele>
        <time>2019-02-10T09:38:50.000Z</time>
      </trkpt>
      <trkpt lat="44.14884" lon="7.23665">
        <ele>2211.1999511719</ele>
        <time>2019-02-10T09:38:52.000Z</time>
      </trkpt>
      <trkpt lat="44.14888" lon="7.23667">
        <ele>2211.3999023438</ele>
        <time>2019-02-10T09:38:57.000Z</time>
      </trkpt>
      <trkpt lat="44.14888" lon="7.23667">
        <ele>2211.3999023438</ele>
        <time>2019-02-10T09:38:58.000Z</time>
      </trkpt>
      <trkpt lat="44.14891" lon="7.23669">
        <ele>2211.6000976562</ele>
        <time>2019-02-10T09:39:01.000Z</time>
      </trkpt>
      <trkpt lat="44.14891" lon="7.23669">
        <ele>2211.6000976562</ele>
        <time>2019-02-10T09:39:02.000Z</time>
      </trkpt>
      <trkpt lat="44.14892" lon="7.2367">
        <ele>2211.8000488281</ele>
        <time>2019-02-10T09:39:03.000Z</time>
      </trkpt>
      <trkpt lat="44.14893" lon="7.23671">
        <ele>2211.8000488281</ele>
        <time>2019-02-10T09:39:04.000Z</time>
      </trkpt>
      <trkpt lat="44.14893" lon="7.23672">
        <ele>2211.8000488281</ele>
        <time>2019-02-10T09:39:05.000Z</time>
      </trkpt>
      <trkpt lat="44.14894" lon="7.23673">
        <ele>2211.8000488281</ele>
        <time>2019-02-10T09:39:07.000Z</time>
      </trkpt>
      <trkpt lat="44.14897" lon="7.23674">
        <ele>2212</ele>
        <time>2019-02-10T09:39:10.000Z</time>
      </trkpt>
      <trkpt lat="44.14899" lon="7.23676">
        <ele>2212.1999511719</ele>
        <time>2019-02-10T09:39:13.000Z</time>
      </trkpt>
      <trkpt lat="44.14899" lon="7.23678">
        <ele>2212.3999023438</ele>
        <time>2019-02-10T09:39:16.000Z</time>
      </trkpt>
      <trkpt lat="44.14901" lon="7.2368">
        <ele>2212.6000976562</ele>
        <time>2019-02-10T09:39:19.000Z</time>
      </trkpt>
      <trkpt lat="44.14901" lon="7.2368">
        <ele>2212.6000976562</ele>
        <time>2019-02-10T09:39:20.000Z</time>
      </trkpt>
      <trkpt lat="44.14901" lon="7.23682">
        <ele>2212.8000488281</ele>
        <time>2019-02-10T09:39:24.000Z</time>
      </trkpt>
      <trkpt lat="44.14902" lon="7.23684">
        <ele>2213.3999023438</ele>
        <time>2019-02-10T09:39:27.000Z</time>
      </trkpt>
      <trkpt lat="44.14903" lon="7.2369">
        <ele>2213.8000488281</ele>
        <time>2019-02-10T09:39:31.000Z</time>
      </trkpt>
      <trkpt lat="44.14904" lon="7.23691">
        <ele>2214.1999511719</ele>
        <time>2019-02-10T09:39:33.000Z</time>
      </trkpt>
      <trkpt lat="44.14904" lon="7.23691">
        <ele>2214.3999023438</ele>
        <time>2019-02-10T09:39:34.000Z</time>
      </trkpt>
      <trkpt lat="44.14907" lon="7.23694">
        <ele>2214.8000488281</ele>
        <time>2019-02-10T09:39:39.000Z</time>
      </trkpt>
      <trkpt lat="44.14913" lon="7.23698">
        <ele>2215.3999023438</ele>
        <time>2019-02-10T09:39:45.000Z</time>
      </trkpt>
      <trkpt lat="44.14914" lon="7.23698">
        <ele>2215.8000488281</ele>
        <time>2019-02-10T09:39:48.000Z</time>
      </trkpt>
      <trkpt lat="44.14915" lon="7.237">
        <ele>2216.6000976562</ele>
        <time>2019-02-10T09:39:51.000Z</time>
      </trkpt>
      <trkpt lat="44.14919" lon="7.23703">
        <ele>2217.6000976562</ele>
        <time>2019-02-10T09:39:57.000Z</time>
      </trkpt>
      <trkpt lat="44.14926" lon="7.2371">
        <ele>2218.6000976562</ele>
        <time>2019-02-10T09:40:05.000Z</time>
      </trkpt>
      <trkpt lat="44.14926" lon="7.2371">
        <ele>2218.8000488281</ele>
        <time>2019-02-10T09:40:06.000Z</time>
      </trkpt>
      <trkpt lat="44.14927" lon="7.23711">
        <ele>2219</ele>
        <time>2019-02-10T09:40:07.000Z</time>
      </trkpt>
      <trkpt lat="44.14927" lon="7.23712">
        <ele>2219.1999511719</ele>
        <time>2019-02-10T09:40:09.000Z</time>
      </trkpt>
      <trkpt lat="44.14928" lon="7.23713">
        <ele>2219.3999023438</ele>
        <time>2019-02-10T09:40:11.000Z</time>
      </trkpt>
      <trkpt lat="44.1493" lon="7.23714">
        <ele>2219.8000488281</ele>
        <time>2019-02-10T09:40:13.000Z</time>
      </trkpt>
      <trkpt lat="44.14934" lon="7.23716">
        <ele>2220.8000488281</ele>
        <time>2019-02-10T09:40:20.000Z</time>
      </trkpt>
      <trkpt lat="44.14936" lon="7.23718">
        <ele>2221.1999511719</ele>
        <time>2019-02-10T09:40:23.000Z</time>
      </trkpt>
      <trkpt lat="44.14936" lon="7.23718">
        <ele>2221.1999511719</ele>
        <time>2019-02-10T09:40:24.000Z</time>
      </trkpt>
      <trkpt lat="44.1494" lon="7.23719">
        <ele>2221.8000488281</ele>
        <time>2019-02-10T09:40:31.000Z</time>
      </trkpt>
      <trkpt lat="44.14946" lon="7.23719">
        <ele>2222.6000976562</ele>
        <time>2019-02-10T09:40:50.000Z</time>
      </trkpt>
      <trkpt lat="44.14948" lon="7.2372">
        <ele>2222.8000488281</ele>
        <time>2019-02-10T09:40:52.000Z</time>
      </trkpt>
      <trkpt lat="44.1495" lon="7.23721">
        <ele>2223</ele>
        <time>2019-02-10T09:40:54.000Z</time>
      </trkpt>
      <trkpt lat="44.14955" lon="7.23724">
        <ele>2223.1999511719</ele>
        <time>2019-02-10T09:40:58.000Z</time>
      </trkpt>
      <trkpt lat="44.14957" lon="7.23727">
        <ele>2223.6000976562</ele>
        <time>2019-02-10T09:41:03.000Z</time>
      </trkpt>
      <trkpt lat="44.14959" lon="7.23729">
        <ele>2224</ele>
        <time>2019-02-10T09:41:07.000Z</time>
      </trkpt>
      <trkpt lat="44.1496" lon="7.23734">
        <ele>2225</ele>
        <time>2019-02-10T09:41:14.000Z</time>
      </trkpt>
      <trkpt lat="44.14962" lon="7.23739">
        <ele>2226.1999511719</ele>
        <time>2019-02-10T09:41:20.000Z</time>
      </trkpt>
      <trkpt lat="44.14963" lon="7.23743">
        <ele>2226.6000976562</ele>
        <time>2019-02-10T09:41:26.000Z</time>
      </trkpt>
      <trkpt lat="44.14967" lon="7.23748">
        <ele>2227.1999511719</ele>
        <time>2019-02-10T09:41:31.000Z</time>
      </trkpt>
      <trkpt lat="44.14972" lon="7.23751">
        <ele>2227.8000488281</ele>
        <time>2019-02-10T09:41:37.000Z</time>
      </trkpt>
      <trkpt lat="44.14975" lon="7.23752">
        <ele>2228.1999511719</ele>
        <time>2019-02-10T09:41:41.000Z</time>
      </trkpt>
      <trkpt lat="44.14975" lon="7.23756">
        <ele>2229.1999511719</ele>
        <time>2019-02-10T09:41:50.000Z</time>
      </trkpt>
      <trkpt lat="44.14976" lon="7.23763">
        <ele>2230.1999511719</ele>
        <time>2019-02-10T09:41:58.000Z</time>
      </trkpt>
      <trkpt lat="44.14977" lon="7.23763">
        <ele>2230.1999511719</ele>
        <time>2019-02-10T09:42:00.000Z</time>
      </trkpt>
      <trkpt lat="44.14979" lon="7.23764">
        <ele>2230.6000976562</ele>
        <time>2019-02-10T09:42:03.000Z</time>
      </trkpt>
      <trkpt lat="44.14984" lon="7.23767">
        <ele>2231.3999023438</ele>
        <time>2019-02-10T09:42:09.000Z</time>
      </trkpt>
      <trkpt lat="44.1499" lon="7.23771">
        <ele>2231.6000976562</ele>
        <time>2019-02-10T09:42:14.000Z</time>
      </trkpt>
      <trkpt lat="44.15004" lon="7.23778">
        <ele>2232.3999023438</ele>
        <time>2019-02-10T09:42:27.000Z</time>
      </trkpt>
      <trkpt lat="44.15007" lon="7.2378">
        <ele>2233.3999023438</ele>
        <time>2019-02-10T09:42:32.000Z</time>
      </trkpt>
      <trkpt lat="44.15008" lon="7.2378">
        <ele>2233.6000976562</ele>
        <time>2019-02-10T09:42:33.000Z</time>
      </trkpt>
      <trkpt lat="44.15009" lon="7.23784">
        <ele>2233.8000488281</ele>
        <time>2019-02-10T09:42:39.000Z</time>
      </trkpt>
      <trkpt lat="44.15015" lon="7.23787">
        <ele>2234.6000976562</ele>
        <time>2019-02-10T09:42:45.000Z</time>
      </trkpt>
      <trkpt lat="44.15016" lon="7.23787">
        <ele>2235</ele>
        <time>2019-02-10T09:42:47.000Z</time>
      </trkpt>
      <trkpt lat="44.15016" lon="7.23789">
        <ele>2235.6000976562</ele>
        <time>2019-02-10T09:42:59.000Z</time>
      </trkpt>
      <trkpt lat="44.15018" lon="7.23791">
        <ele>2236.1999511719</ele>
        <time>2019-02-10T09:43:02.000Z</time>
      </trkpt>
      <trkpt lat="44.1502" lon="7.23797">
        <ele>2236.6000976562</ele>
        <time>2019-02-10T09:43:09.000Z</time>
      </trkpt>
      <trkpt lat="44.15032" lon="7.23802">
        <ele>2237.3999023438</ele>
        <time>2019-02-10T09:43:20.000Z</time>
      </trkpt>
      <trkpt lat="44.15033" lon="7.23802">
        <ele>2237.3999023438</ele>
        <time>2019-02-10T09:43:21.000Z</time>
      </trkpt>
      <trkpt lat="44.15035" lon="7.23803">
        <ele>2237.8000488281</ele>
        <time>2019-02-10T09:43:23.000Z</time>
      </trkpt>
      <trkpt lat="44.15039" lon="7.23807">
        <ele>2238</ele>
        <time>2019-02-10T09:43:28.000Z</time>
      </trkpt>
      <trkpt lat="44.15039" lon="7.23808">
        <ele>2238.3999023438</ele>
        <time>2019-02-10T09:43:31.000Z</time>
      </trkpt>
      <trkpt lat="44.15042" lon="7.2381">
        <ele>2238.8000488281</ele>
        <time>2019-02-10T09:43:35.000Z</time>
      </trkpt>
      <trkpt lat="44.15041" lon="7.23812">
        <ele>2239</ele>
        <time>2019-02-10T09:43:38.000Z</time>
      </trkpt>
      <trkpt lat="44.15041" lon="7.23817">
        <ele>2239.8000488281</ele>
        <time>2019-02-10T09:43:47.000Z</time>
      </trkpt>
      <trkpt lat="44.15053" lon="7.23816">
        <ele>2239.6000976562</ele>
        <time>2019-02-10T09:44:08.000Z</time>
      </trkpt>
      <trkpt lat="44.15059" lon="7.23818">
        <ele>2239.6000976562</ele>
        <time>2019-02-10T09:44:14.000Z</time>
      </trkpt>
      <trkpt lat="44.15061" lon="7.23819">
        <ele>2239.6000976562</ele>
        <time>2019-02-10T09:44:15.000Z</time>
      </trkpt>
      <trkpt lat="44.15063" lon="7.2382">
        <ele>2239.6000976562</ele>
        <time>2019-02-10T09:44:16.000Z</time>
      </trkpt>
      <trkpt lat="44.15064" lon="7.23822">
        <ele>2239.8000488281</ele>
        <time>2019-02-10T09:44:18.000Z</time>
      </trkpt>
      <trkpt lat="44.15063" lon="7.23823">
        <ele>2239.8000488281</ele>
        <time>2019-02-10T09:44:19.000Z</time>
      </trkpt>
      <trkpt lat="44.15064" lon="7.23824">
        <ele>2239.8000488281</ele>
        <time>2019-02-10T09:44:21.000Z</time>
      </trkpt>
      <trkpt lat="44.15066" lon="7.23825">
        <ele>2240.1999511719</ele>
        <time>2019-02-10T09:44:25.000Z</time>
      </trkpt>
      <trkpt lat="44.15069" lon="7.23825">
        <ele>2240.8000488281</ele>
        <time>2019-02-10T09:44:30.000Z</time>
      </trkpt>
      <trkpt lat="44.15072" lon="7.23827">
        <ele>2242</ele>
        <time>2019-02-10T09:44:40.000Z</time>
      </trkpt>
      <trkpt lat="44.15072" lon="7.23828">
        <ele>2242.1999511719</ele>
        <time>2019-02-10T09:44:41.000Z</time>
      </trkpt>
      <trkpt lat="44.15079" lon="7.23829">
        <ele>2243</ele>
        <time>2019-02-10T09:44:47.000Z</time>
      </trkpt>
      <trkpt lat="44.15081" lon="7.2383">
        <ele>2243</ele>
        <time>2019-02-10T09:44:48.000Z</time>
      </trkpt>
      <trkpt lat="44.15085" lon="7.23833">
        <ele>2244.1999511719</ele>
        <time>2019-02-10T09:44:56.000Z</time>
      </trkpt>
      <trkpt lat="44.15093" lon="7.23833">
        <ele>2245.3999023438</ele>
        <time>2019-02-10T09:45:04.000Z</time>
      </trkpt>
      <trkpt lat="44.15096" lon="7.23832">
        <ele>2246</ele>
        <time>2019-02-10T09:45:07.000Z</time>
      </trkpt>
      <trkpt lat="44.15099" lon="7.23832">
        <ele>2246.6000976562</ele>
        <time>2019-02-10T09:45:10.000Z</time>
      </trkpt>
      <trkpt lat="44.151" lon="7.23833">
        <ele>2246.8000488281</ele>
        <time>2019-02-10T09:45:13.000Z</time>
      </trkpt>
      <trkpt lat="44.15099" lon="7.23835">
        <ele>2247.6000976562</ele>
        <time>2019-02-10T09:45:21.000Z</time>
      </trkpt>
      <trkpt lat="44.15101" lon="7.23836">
        <ele>2248.8000488281</ele>
        <time>2019-02-10T09:45:27.000Z</time>
      </trkpt>
      <trkpt lat="44.15101" lon="7.23838">
        <ele>2249</ele>
        <time>2019-02-10T09:45:33.000Z</time>
      </trkpt>
      <trkpt lat="44.15109" lon="7.23843">
        <ele>2249.8000488281</ele>
        <time>2019-02-10T09:45:44.000Z</time>
      </trkpt>
      <trkpt lat="44.15113" lon="7.23846">
        <ele>2250.8000488281</ele>
        <time>2019-02-10T09:45:49.000Z</time>
      </trkpt>
      <trkpt lat="44.15113" lon="7.23847">
        <ele>2251.8000488281</ele>
        <time>2019-02-10T09:45:55.000Z</time>
      </trkpt>
      <trkpt lat="44.15117" lon="7.23846">
        <ele>2252.6000976562</ele>
        <time>2019-02-10T09:46:02.000Z</time>
      </trkpt>
      <trkpt lat="44.15116" lon="7.23845">
        <ele>2253</ele>
        <time>2019-02-10T09:46:05.000Z</time>
      </trkpt>
      <trkpt lat="44.15119" lon="7.23844">
        <ele>2254</ele>
        <time>2019-02-10T09:46:14.000Z</time>
      </trkpt>
      <trkpt lat="44.15121" lon="7.23844">
        <ele>2255</ele>
        <time>2019-02-10T09:46:19.000Z</time>
      </trkpt>
      <trkpt lat="44.15119" lon="7.23852">
        <ele>2256.1999511719</ele>
        <time>2019-02-10T09:46:31.000Z</time>
      </trkpt>
      <trkpt lat="44.15119" lon="7.2386">
        <ele>2257.3999023438</ele>
        <time>2019-02-10T09:46:40.000Z</time>
      </trkpt>
      <trkpt lat="44.1512" lon="7.23866">
        <ele>2258.3999023438</ele>
        <time>2019-02-10T09:46:48.000Z</time>
      </trkpt>
      <trkpt lat="44.15119" lon="7.23871">
        <ele>2259.3999023438</ele>
        <time>2019-02-10T09:46:53.000Z</time>
      </trkpt>
      <trkpt lat="44.15118" lon="7.23878">
        <ele>2260</ele>
        <time>2019-02-10T09:46:59.000Z</time>
      </trkpt>
      <trkpt lat="44.15118" lon="7.23879">
        <ele>2260.3999023438</ele>
        <time>2019-02-10T09:47:02.000Z</time>
      </trkpt>
      <trkpt lat="44.15118" lon="7.23879">
        <ele>2260.3999023438</ele>
        <time>2019-02-10T09:47:03.000Z</time>
      </trkpt>
      <trkpt lat="44.15117" lon="7.23886">
        <ele>2260.1999511719</ele>
        <time>2019-02-10T09:47:17.000Z</time>
      </trkpt>
      <trkpt lat="44.15118" lon="7.23887">
        <ele>2260.1999511719</ele>
        <time>2019-02-10T09:47:18.000Z</time>
      </trkpt>
      <trkpt lat="44.15118" lon="7.23889">
        <ele>2260.6000976562</ele>
        <time>2019-02-10T09:47:21.000Z</time>
      </trkpt>
      <trkpt lat="44.15121" lon="7.23891">
        <ele>2261.6000976562</ele>
        <time>2019-02-10T09:47:29.000Z</time>
      </trkpt>
      <trkpt lat="44.15124" lon="7.23887">
        <ele>2262.6000976562</ele>
        <time>2019-02-10T09:47:35.000Z</time>
      </trkpt>
      <trkpt lat="44.15126" lon="7.23881">
        <ele>2263.8000488281</ele>
        <time>2019-02-10T09:47:41.000Z</time>
      </trkpt>
      <trkpt lat="44.15128" lon="7.23878">
        <ele>2264.6000976562</ele>
        <time>2019-02-10T09:47:48.000Z</time>
      </trkpt>
      <trkpt lat="44.15129" lon="7.23878">
        <ele>2264.8000488281</ele>
        <time>2019-02-10T09:47:49.000Z</time>
      </trkpt>
      <trkpt lat="44.1513" lon="7.23877">
        <ele>2264.8000488281</ele>
        <time>2019-02-10T09:47:50.000Z</time>
      </trkpt>
      <trkpt lat="44.1513" lon="7.23878">
        <ele>2265.3999023438</ele>
        <time>2019-02-10T09:47:52.000Z</time>
      </trkpt>
      <trkpt lat="44.1513" lon="7.23878">
        <ele>2266</ele>
        <time>2019-02-10T09:47:55.000Z</time>
      </trkpt>
      <trkpt lat="44.15133" lon="7.2388">
        <ele>2265.6000976562</ele>
        <time>2019-02-10T09:48:13.000Z</time>
      </trkpt>
      <trkpt lat="44.15134" lon="7.23881">
        <ele>2265.3999023438</ele>
        <time>2019-02-10T09:48:16.000Z</time>
      </trkpt>
      <trkpt lat="44.15132" lon="7.23879">
        <ele>2265.1999511719</ele>
        <time>2019-02-10T09:48:24.000Z</time>
      </trkpt>
      <trkpt lat="44.1513" lon="7.23875">
        <ele>2265.1999511719</ele>
        <time>2019-02-10T09:48:31.000Z</time>
      </trkpt>
      <trkpt lat="44.15131" lon="7.23873">
        <ele>2265.1999511719</ele>
        <time>2019-02-10T09:48:33.000Z</time>
      </trkpt>
      <trkpt lat="44.15133" lon="7.2387">
        <ele>2265.8000488281</ele>
        <time>2019-02-10T09:48:36.000Z</time>
      </trkpt>
      <trkpt lat="44.15137" lon="7.23867">
        <ele>2266</ele>
        <time>2019-02-10T09:48:40.000Z</time>
      </trkpt>
      <trkpt lat="44.15139" lon="7.23866">
        <ele>2266.6000976562</ele>
        <time>2019-02-10T09:48:43.000Z</time>
      </trkpt>
      <trkpt lat="44.15139" lon="7.23865">
        <ele>2267</ele>
        <time>2019-02-10T09:48:44.000Z</time>
      </trkpt>
      <trkpt lat="44.1514" lon="7.23863">
        <ele>2267.3999023438</ele>
        <time>2019-02-10T09:48:48.000Z</time>
      </trkpt>
      <trkpt lat="44.15142" lon="7.23862">
        <ele>2268.1999511719</ele>
        <time>2019-02-10T09:48:51.000Z</time>
      </trkpt>
      <trkpt lat="44.15148" lon="7.23856">
        <ele>2269.1999511719</ele>
        <time>2019-02-10T09:49:00.000Z</time>
      </trkpt>
      <trkpt lat="44.15148" lon="7.23856">
        <ele>2269.3999023438</ele>
        <time>2019-02-10T09:49:01.000Z</time>
      </trkpt>
      <trkpt lat="44.15149" lon="7.23856">
        <ele>2269.6000976562</ele>
        <time>2019-02-10T09:49:03.000Z</time>
      </trkpt>
      <trkpt lat="44.15151" lon="7.23857">
        <ele>2270.1999511719</ele>
        <time>2019-02-10T09:49:06.000Z</time>
      </trkpt>
      <trkpt lat="44.15151" lon="7.23855">
        <ele>2270.3999023438</ele>
        <time>2019-02-10T09:49:08.000Z</time>
      </trkpt>
      <trkpt lat="44.1515" lon="7.23855">
        <ele>2270.6000976562</ele>
        <time>2019-02-10T09:49:12.000Z</time>
      </trkpt>
      <trkpt lat="44.1515" lon="7.23859">
        <ele>2270.3999023438</ele>
        <time>2019-02-10T09:49:26.000Z</time>
      </trkpt>
      <trkpt lat="44.15151" lon="7.23866">
        <ele>2271.6000976562</ele>
        <time>2019-02-10T09:49:37.000Z</time>
      </trkpt>
      <trkpt lat="44.15153" lon="7.23867">
        <ele>2272.1999511719</ele>
        <time>2019-02-10T09:49:55.000Z</time>
      </trkpt>
      <trkpt lat="44.15153" lon="7.23867">
        <ele>2272.3999023438</ele>
        <time>2019-02-10T09:49:57.000Z</time>
      </trkpt>
      <trkpt lat="44.15153" lon="7.23867">
        <ele>2272.3999023438</ele>
        <time>2019-02-10T09:50:01.000Z</time>
      </trkpt>
      <trkpt lat="44.15152" lon="7.23867">
        <ele>2272.6000976562</ele>
        <time>2019-02-10T09:50:05.000Z</time>
      </trkpt>
      <trkpt lat="44.15153" lon="7.23866">
        <ele>2272.6000976562</ele>
        <time>2019-02-10T09:50:11.000Z</time>
      </trkpt>
      <trkpt lat="44.15153" lon="7.23867">
        <ele>2272.6000976562</ele>
        <time>2019-02-10T09:50:14.000Z</time>
      </trkpt>
      <trkpt lat="44.15152" lon="7.23877">
        <ele>2273.6000976562</ele>
        <time>2019-02-10T09:50:25.000Z</time>
      </trkpt>
      <trkpt lat="44.15154" lon="7.2388">
        <ele>2274.6000976562</ele>
        <time>2019-02-10T09:50:29.000Z</time>
      </trkpt>
      <trkpt lat="44.15154" lon="7.23881">
        <ele>2274.8000488281</ele>
        <time>2019-02-10T09:50:30.000Z</time>
      </trkpt>
      <trkpt lat="44.15155" lon="7.23884">
        <ele>2275.6000976562</ele>
        <time>2019-02-10T09:50:34.000Z</time>
      </trkpt>
      <trkpt lat="44.15156" lon="7.23884">
        <ele>2275.8000488281</ele>
        <time>2019-02-10T09:50:35.000Z</time>
      </trkpt>
      <trkpt lat="44.15158" lon="7.23889">
        <ele>2276.8000488281</ele>
        <time>2019-02-10T09:50:41.000Z</time>
      </trkpt>
      <trkpt lat="44.15158" lon="7.2389">
        <ele>2277</ele>
        <time>2019-02-10T09:50:42.000Z</time>
      </trkpt>
      <trkpt lat="44.15158" lon="7.2389">
        <ele>2277.1999511719</ele>
        <time>2019-02-10T09:50:43.000Z</time>
      </trkpt>
      <trkpt lat="44.15157" lon="7.23894">
        <ele>2277.6000976562</ele>
        <time>2019-02-10T09:50:47.000Z</time>
      </trkpt>
      <trkpt lat="44.15157" lon="7.23895">
        <ele>2277.8000488281</ele>
        <time>2019-02-10T09:50:48.000Z</time>
      </trkpt>
      <trkpt lat="44.15157" lon="7.23896">
        <ele>2278</ele>
        <time>2019-02-10T09:50:49.000Z</time>
      </trkpt>
      <trkpt lat="44.15158" lon="7.23898">
        <ele>2278.3999023438</ele>
        <time>2019-02-10T09:50:52.000Z</time>
      </trkpt>
      <trkpt lat="44.15158" lon="7.23899">
        <ele>2278.6000976562</ele>
        <time>2019-02-10T09:50:53.000Z</time>
      </trkpt>
      <trkpt lat="44.15157" lon="7.23901">
        <ele>2279</ele>
        <time>2019-02-10T09:50:56.000Z</time>
      </trkpt>
      <trkpt lat="44.15157" lon="7.23904">
        <ele>2280</ele>
        <time>2019-02-10T09:51:01.000Z</time>
      </trkpt>
      <trkpt lat="44.15157" lon="7.23905">
        <ele>2280.8000488281</ele>
        <time>2019-02-10T09:51:04.000Z</time>
      </trkpt>
      <trkpt lat="44.15157" lon="7.23906">
        <ele>2281.1999511719</ele>
        <time>2019-02-10T09:51:07.000Z</time>
      </trkpt>
      <trkpt lat="44.15157" lon="7.23906">
        <ele>2281.1999511719</ele>
        <time>2019-02-10T09:51:08.000Z</time>
      </trkpt>
      <trkpt lat="44.15158" lon="7.23906">
        <ele>2281.3999023438</ele>
        <time>2019-02-10T09:51:09.000Z</time>
      </trkpt>
      <trkpt lat="44.15158" lon="7.23907">
        <ele>2282.1999511719</ele>
        <time>2019-02-10T09:51:14.000Z</time>
      </trkpt>
      <trkpt lat="44.15158" lon="7.23909">
        <ele>2283.1999511719</ele>
        <time>2019-02-10T09:51:23.000Z</time>
      </trkpt>
      <trkpt lat="44.15158" lon="7.2391">
        <ele>2283.3999023438</ele>
        <time>2019-02-10T09:51:29.000Z</time>
      </trkpt>
      <trkpt lat="44.15159" lon="7.2391">
        <ele>2283.3999023438</ele>
        <time>2019-02-10T09:51:34.000Z</time>
      </trkpt>
      <trkpt lat="44.15158" lon="7.23914">
        <ele>2283.6000976562</ele>
        <time>2019-02-10T09:51:40.000Z</time>
      </trkpt>
      <trkpt lat="44.15158" lon="7.23918">
        <ele>2284.3999023438</ele>
        <time>2019-02-10T09:51:45.000Z</time>
      </trkpt>
      <trkpt lat="44.15157" lon="7.23924">
        <ele>2285.6000976562</ele>
        <time>2019-02-10T09:51:52.000Z</time>
      </trkpt>
      <trkpt lat="44.15157" lon="7.23927">
        <ele>2286.3999023438</ele>
        <time>2019-02-10T09:51:57.000Z</time>
      </trkpt>
      <trkpt lat="44.15157" lon="7.23928">
        <ele>2286.6000976562</ele>
        <time>2019-02-10T09:51:58.000Z</time>
      </trkpt>
      <trkpt lat="44.15156" lon="7.23928">
        <ele>2286.6000976562</ele>
        <time>2019-02-10T09:51:59.000Z</time>
      </trkpt>
      <trkpt lat="44.15155" lon="7.23933">
        <ele>2287.8000488281</ele>
        <time>2019-02-10T09:52:06.000Z</time>
      </trkpt>
      <trkpt lat="44.15155" lon="7.23936">
        <ele>2289</ele>
        <time>2019-02-10T09:52:12.000Z</time>
      </trkpt>
      <trkpt lat="44.15152" lon="7.23946">
        <ele>2289.8000488281</ele>
        <time>2019-02-10T09:52:26.000Z</time>
      </trkpt>
      <trkpt lat="44.15152" lon="7.23947">
        <ele>2290</ele>
        <time>2019-02-10T09:52:27.000Z</time>
      </trkpt>
      <trkpt lat="44.15152" lon="7.23955">
        <ele>2291</ele>
        <time>2019-02-10T09:52:39.000Z</time>
      </trkpt>
      <trkpt lat="44.15151" lon="7.23958">
        <ele>2292.1999511719</ele>
        <time>2019-02-10T09:52:44.000Z</time>
      </trkpt>
      <trkpt lat="44.15153" lon="7.23964">
        <ele>2293.3999023438</ele>
        <time>2019-02-10T09:52:54.000Z</time>
      </trkpt>
      <trkpt lat="44.15155" lon="7.23967">
        <ele>2294.3999023438</ele>
        <time>2019-02-10T09:52:59.000Z</time>
      </trkpt>
      <trkpt lat="44.15156" lon="7.23972">
        <ele>2295.6000976562</ele>
        <time>2019-02-10T09:53:05.000Z</time>
      </trkpt>
      <trkpt lat="44.15155" lon="7.23975">
        <ele>2296.8000488281</ele>
        <time>2019-02-10T09:53:09.000Z</time>
      </trkpt>
      <trkpt lat="44.15155" lon="7.23978">
        <ele>2298</ele>
        <time>2019-02-10T09:53:14.000Z</time>
      </trkpt>
      <trkpt lat="44.15155" lon="7.23981">
        <ele>2299</ele>
        <time>2019-02-10T09:53:21.000Z</time>
      </trkpt>
      <trkpt lat="44.15154" lon="7.23983">
        <ele>2299</ele>
        <time>2019-02-10T09:53:25.000Z</time>
      </trkpt>
      <trkpt lat="44.15153" lon="7.23989">
        <ele>2299.6000976562</ele>
        <time>2019-02-10T09:53:35.000Z</time>
      </trkpt>
      <trkpt lat="44.15152" lon="7.2399">
        <ele>2300.1999511719</ele>
        <time>2019-02-10T09:53:37.000Z</time>
      </trkpt>
      <trkpt lat="44.15151" lon="7.23993">
        <ele>2301.3999023438</ele>
        <time>2019-02-10T09:53:41.000Z</time>
      </trkpt>
      <trkpt lat="44.1515" lon="7.23995">
        <ele>2301.8000488281</ele>
        <time>2019-02-10T09:53:43.000Z</time>
      </trkpt>
      <trkpt lat="44.15149" lon="7.23998">
        <ele>2302.6000976562</ele>
        <time>2019-02-10T09:53:47.000Z</time>
      </trkpt>
      <trkpt lat="44.15149" lon="7.23999">
        <ele>2303</ele>
        <time>2019-02-10T09:53:48.000Z</time>
      </trkpt>
      <trkpt lat="44.15148" lon="7.24001">
        <ele>2303.8000488281</ele>
        <time>2019-02-10T09:53:50.000Z</time>
      </trkpt>
      <trkpt lat="44.15149" lon="7.24003">
        <ele>2304.8000488281</ele>
        <time>2019-02-10T09:53:55.000Z</time>
      </trkpt>
      <trkpt lat="44.1515" lon="7.24002">
        <ele>2304.1999511719</ele>
        <time>2019-02-10T09:54:03.000Z</time>
      </trkpt>
      <trkpt lat="44.15154" lon="7.23999">
        <ele>2305.6000976562</ele>
        <time>2019-02-10T09:54:16.000Z</time>
      </trkpt>
      <trkpt lat="44.15154" lon="7.23999">
        <ele>2305.8000488281</ele>
        <time>2019-02-10T09:54:17.000Z</time>
      </trkpt>
      <trkpt lat="44.15158" lon="7.23999">
        <ele>2306.3999023438</ele>
        <time>2019-02-10T09:54:26.000Z</time>
      </trkpt>
      <trkpt lat="44.15156" lon="7.23999">
        <ele>2306.8000488281</ele>
        <time>2019-02-10T09:54:28.000Z</time>
      </trkpt>
      <trkpt lat="44.15154" lon="7.24">
        <ele>2307.3999023438</ele>
        <time>2019-02-10T09:54:34.000Z</time>
      </trkpt>
      <trkpt lat="44.15154" lon="7.24">
        <ele>2307.8000488281</ele>
        <time>2019-02-10T09:54:37.000Z</time>
      </trkpt>
      <trkpt lat="44.15157" lon="7.23999">
        <ele>2308.8000488281</ele>
        <time>2019-02-10T09:54:44.000Z</time>
      </trkpt>
      <trkpt lat="44.15158" lon="7.23995">
        <ele>2309.3999023438</ele>
        <time>2019-02-10T09:54:52.000Z</time>
      </trkpt>
      <trkpt lat="44.15157" lon="7.23996">
        <ele>2309.1999511719</ele>
        <time>2019-02-10T09:54:57.000Z</time>
      </trkpt>
      <trkpt lat="44.15159" lon="7.23997">
        <ele>2308.8000488281</ele>
        <time>2019-02-10T09:55:04.000Z</time>
      </trkpt>
      <trkpt lat="44.15159" lon="7.23997">
        <ele>2308.8000488281</ele>
        <time>2019-02-10T09:55:07.000Z</time>
      </trkpt>
      <trkpt lat="44.15159" lon="7.23997">
        <ele>2309</ele>
        <time>2019-02-10T09:55:11.000Z</time>
      </trkpt>
      <trkpt lat="44.15158" lon="7.23997">
        <ele>2308.8000488281</ele>
        <time>2019-02-10T09:55:13.000Z</time>
      </trkpt>
      <trkpt lat="44.15159" lon="7.23997">
        <ele>2309.1999511719</ele>
        <time>2019-02-10T09:55:20.000Z</time>
      </trkpt>
      <trkpt lat="44.1516" lon="7.23997">
        <ele>2310</ele>
        <time>2019-02-10T09:55:26.000Z</time>
      </trkpt>
      <trkpt lat="44.1516" lon="7.23997">
        <ele>2310.1999511719</ele>
        <time>2019-02-10T09:55:29.000Z</time>
      </trkpt>
      <trkpt lat="44.15161" lon="7.23997">
        <ele>2310.1999511719</ele>
        <time>2019-02-10T09:55:32.000Z</time>
      </trkpt>
      <trkpt lat="44.15161" lon="7.23997">
        <ele>2310.6000976562</ele>
        <time>2019-02-10T09:55:47.000Z</time>
      </trkpt>
      <trkpt lat="44.15161" lon="7.23997">
        <ele>2310.6000976562</ele>
        <time>2019-02-10T09:55:48.000Z</time>
      </trkpt>
      <trkpt lat="44.15161" lon="7.23997">
        <ele>2310.6000976562</ele>
        <time>2019-02-10T09:55:49.000Z</time>
      </trkpt>
      <trkpt lat="44.1516" lon="7.23997">
        <ele>2310.3999023438</ele>
        <time>2019-02-10T09:55:50.000Z</time>
      </trkpt>
      <trkpt lat="44.15159" lon="7.23998">
        <ele>2309.8000488281</ele>
        <time>2019-02-10T09:55:55.000Z</time>
      </trkpt>
      <trkpt lat="44.1516" lon="7.23999">
        <ele>2309</ele>
        <time>2019-02-10T09:56:11.000Z</time>
      </trkpt>
      <trkpt lat="44.1516" lon="7.23999">
        <ele>2309</ele>
        <time>2019-02-10T09:56:13.000Z</time>
      </trkpt>
      <trkpt lat="44.15161" lon="7.23998">
        <ele>2309</ele>
        <time>2019-02-10T09:56:14.000Z</time>
      </trkpt>
      <trkpt lat="44.15161" lon="7.23998">
        <ele>2309.1999511719</ele>
        <time>2019-02-10T09:56:15.000Z</time>
      </trkpt>
      <trkpt lat="44.15161" lon="7.23998">
        <ele>2309.1999511719</ele>
        <time>2019-02-10T09:56:16.000Z</time>
      </trkpt>
      <trkpt lat="44.15162" lon="7.23998">
        <ele>2309.1999511719</ele>
        <time>2019-02-10T09:56:17.000Z</time>
      </trkpt>
      <trkpt lat="44.15162" lon="7.23998">
        <ele>2309.1999511719</ele>
        <time>2019-02-10T09:56:20.000Z</time>
      </trkpt>
      <trkpt lat="44.15163" lon="7.23998">
        <ele>2309.3999023438</ele>
        <time>2019-02-10T09:56:26.000Z</time>
      </trkpt>
      <trkpt lat="44.15162" lon="7.23997">
        <ele>2309.6000976562</ele>
        <time>2019-02-10T09:56:30.000Z</time>
      </trkpt>
      <trkpt lat="44.15162" lon="7.23997">
        <ele>2309.8000488281</ele>
        <time>2019-02-10T09:56:32.000Z</time>
      </trkpt>
      <trkpt lat="44.15163" lon="7.23997">
        <ele>2310</ele>
        <time>2019-02-10T09:56:33.000Z</time>
      </trkpt>
      <trkpt lat="44.15162" lon="7.23997">
        <ele>2310.6000976562</ele>
        <time>2019-02-10T09:56:36.000Z</time>
      </trkpt>
      <trkpt lat="44.15162" lon="7.23997">
        <ele>2311.1999511719</ele>
        <time>2019-02-10T09:56:38.000Z</time>
      </trkpt>
      <trkpt lat="44.15162" lon="7.23997">
        <ele>2311.8000488281</ele>
        <time>2019-02-10T09:56:42.000Z</time>
      </trkpt>
      <trkpt lat="44.15162" lon="7.23998">
        <ele>2311.8000488281</ele>
        <time>2019-02-10T09:56:44.000Z</time>
      </trkpt>
      <trkpt lat="44.15161" lon="7.23999">
        <ele>2311</ele>
        <time>2019-02-10T09:56:48.000Z</time>
      </trkpt>
      <trkpt lat="44.15159" lon="7.24001">
        <ele>2311.1999511719</ele>
        <time>2019-02-10T09:56:54.000Z</time>
      </trkpt>
      <trkpt lat="44.15158" lon="7.24004">
        <ele>2311.8000488281</ele>
        <time>2019-02-10T09:56:58.000Z</time>
      </trkpt>
      <trkpt lat="44.15158" lon="7.24005">
        <ele>2312.1999511719</ele>
        <time>2019-02-10T09:57:01.000Z</time>
      </trkpt>
      <trkpt lat="44.15159" lon="7.24004">
        <ele>2312.3999023438</ele>
        <time>2019-02-10T09:57:04.000Z</time>
      </trkpt>
      <trkpt lat="44.15159" lon="7.24004">
        <ele>2312.3999023438</ele>
        <time>2019-02-10T09:57:09.000Z</time>
      </trkpt>
      <trkpt lat="44.15159" lon="7.24004">
        <ele>2312</ele>
        <time>2019-02-10T09:57:13.000Z</time>
      </trkpt>
      <trkpt lat="44.15164" lon="7.23999">
        <ele>2313.3999023438</ele>
        <time>2019-02-10T09:57:28.000Z</time>
      </trkpt>
      <trkpt lat="44.15166" lon="7.23998">
        <ele>2314.1999511719</ele>
        <time>2019-02-10T09:57:31.000Z</time>
      </trkpt>
      <trkpt lat="44.15166" lon="7.23998">
        <ele>2314.6000976562</ele>
        <time>2019-02-10T09:57:32.000Z</time>
      </trkpt>
      <trkpt lat="44.15166" lon="7.23998">
        <ele>2314.8000488281</ele>
        <time>2019-02-10T09:57:33.000Z</time>
      </trkpt>
      <trkpt lat="44.15168" lon="7.23997">
        <ele>2315.6000976562</ele>
        <time>2019-02-10T09:57:37.000Z</time>
      </trkpt>
      <trkpt lat="44.15166" lon="7.24007">
        <ele>2315.8000488281</ele>
        <time>2019-02-10T09:57:52.000Z</time>
      </trkpt>
      <trkpt lat="44.15165" lon="7.24009">
        <ele>2316.1999511719</ele>
        <time>2019-02-10T09:57:55.000Z</time>
      </trkpt>
      <trkpt lat="44.15164" lon="7.24011">
        <ele>2316.8000488281</ele>
        <time>2019-02-10T09:57:57.000Z</time>
      </trkpt>
      <trkpt lat="44.15164" lon="7.24014">
        <ele>2317.8000488281</ele>
        <time>2019-02-10T09:58:01.000Z</time>
      </trkpt>
      <trkpt lat="44.15164" lon="7.24016">
        <ele>2319</ele>
        <time>2019-02-10T09:58:06.000Z</time>
      </trkpt>
      <trkpt lat="44.15167" lon="7.24018">
        <ele>2320</ele>
        <time>2019-02-10T09:58:28.000Z</time>
      </trkpt>
      <trkpt lat="44.15167" lon="7.24014">
        <ele>2321</ele>
        <time>2019-02-10T09:58:40.000Z</time>
      </trkpt>
      <trkpt lat="44.15166" lon="7.24021">
        <ele>2321.6000976562</ele>
        <time>2019-02-10T09:58:55.000Z</time>
      </trkpt>
      <trkpt lat="44.15165" lon="7.24022">
        <ele>2321</ele>
        <time>2019-02-10T09:59:00.000Z</time>
      </trkpt>
      <trkpt lat="44.15164" lon="7.24024">
        <ele>2320.6000976562</ele>
        <time>2019-02-10T09:59:03.000Z</time>
      </trkpt>
      <trkpt lat="44.15164" lon="7.24027">
        <ele>2320.6000976562</ele>
        <time>2019-02-10T09:59:06.000Z</time>
      </trkpt>
      <trkpt lat="44.15164" lon="7.24029">
        <ele>2320.6000976562</ele>
        <time>2019-02-10T09:59:07.000Z</time>
      </trkpt>
      <trkpt lat="44.15164" lon="7.2403">
        <ele>2320.6000976562</ele>
        <time>2019-02-10T09:59:08.000Z</time>
      </trkpt>
      <trkpt lat="44.15165" lon="7.24031">
        <ele>2320.8000488281</ele>
        <time>2019-02-10T09:59:09.000Z</time>
      </trkpt>
      <trkpt lat="44.15166" lon="7.24032">
        <ele>2321</ele>
        <time>2019-02-10T09:59:12.000Z</time>
      </trkpt>
      <trkpt lat="44.15167" lon="7.24033">
        <ele>2320</ele>
        <time>2019-02-10T09:59:27.000Z</time>
      </trkpt>
      <trkpt lat="44.15167" lon="7.24032">
        <ele>2320.1999511719</ele>
        <time>2019-02-10T09:59:33.000Z</time>
      </trkpt>
      <trkpt lat="44.15166" lon="7.24031">
        <ele>2321</ele>
        <time>2019-02-10T09:59:38.000Z</time>
      </trkpt>
      <trkpt lat="44.15166" lon="7.24031">
        <ele>2320</ele>
        <time>2019-02-10T09:59:44.000Z</time>
      </trkpt>
      <trkpt lat="44.15166" lon="7.24031">
        <ele>2320.1999511719</ele>
        <time>2019-02-10T09:59:46.000Z</time>
      </trkpt>
      <trkpt lat="44.15169" lon="7.24038">
        <ele>2320</ele>
        <time>2019-02-10T09:59:55.000Z</time>
      </trkpt>
      <trkpt lat="44.15171" lon="7.24041">
        <ele>2319</ele>
        <time>2019-02-10T10:00:19.000Z</time>
      </trkpt>
      <trkpt lat="44.15171" lon="7.24041">
        <ele>2318.6000976562</ele>
        <time>2019-02-10T10:00:24.000Z</time>
      </trkpt>
      <trkpt lat="44.1517" lon="7.24041">
        <ele>2318.8000488281</ele>
        <time>2019-02-10T10:00:26.000Z</time>
      </trkpt>
      <trkpt lat="44.15169" lon="7.24041">
        <ele>2319</ele>
        <time>2019-02-10T10:00:28.000Z</time>
      </trkpt>
      <trkpt lat="44.15169" lon="7.24041">
        <ele>2319.3999023438</ele>
        <time>2019-02-10T10:00:29.000Z</time>
      </trkpt>
      <trkpt lat="44.15169" lon="7.24041">
        <ele>2319.6000976562</ele>
        <time>2019-02-10T10:00:30.000Z</time>
      </trkpt>
      <trkpt lat="44.15169" lon="7.24041">
        <ele>2319.8000488281</ele>
        <time>2019-02-10T10:00:32.000Z</time>
      </trkpt>
      <trkpt lat="44.15169" lon="7.24042">
        <ele>2319.8000488281</ele>
        <time>2019-02-10T10:00:34.000Z</time>
      </trkpt>
      <trkpt lat="44.15168" lon="7.24043">
        <ele>2319.6000976562</ele>
        <time>2019-02-10T10:00:36.000Z</time>
      </trkpt>
      <trkpt lat="44.15167" lon="7.24043">
        <ele>2319.6000976562</ele>
        <time>2019-02-10T10:00:39.000Z</time>
      </trkpt>
      <trkpt lat="44.15167" lon="7.24041">
        <ele>2319.3999023438</ele>
        <time>2019-02-10T10:00:46.000Z</time>
      </trkpt>
      <trkpt lat="44.15167" lon="7.24041">
        <ele>2319.3999023438</ele>
        <time>2019-02-10T10:00:47.000Z</time>
      </trkpt>
      <trkpt lat="44.15166" lon="7.24042">
        <ele>2319.3999023438</ele>
        <time>2019-02-10T10:00:48.000Z</time>
      </trkpt>
      <trkpt lat="44.15168" lon="7.24042">
        <ele>2319.3999023438</ele>
        <time>2019-02-10T10:00:51.000Z</time>
      </trkpt>
      <trkpt lat="44.15168" lon="7.24043">
        <ele>2319.3999023438</ele>
        <time>2019-02-10T10:00:54.000Z</time>
      </trkpt>
      <trkpt lat="44.15168" lon="7.24043">
        <ele>2319.6000976562</ele>
        <time>2019-02-10T10:00:55.000Z</time>
      </trkpt>
      <trkpt lat="44.15168" lon="7.24044">
        <ele>2319.6000976562</ele>
        <time>2019-02-10T10:00:57.000Z</time>
      </trkpt>
      <trkpt lat="44.15168" lon="7.24043">
        <ele>2319.8000488281</ele>
        <time>2019-02-10T10:01:00.000Z</time>
      </trkpt>
      <trkpt lat="44.15167" lon="7.24044">
        <ele>2319.8000488281</ele>
        <time>2019-02-10T10:01:04.000Z</time>
      </trkpt>
      <trkpt lat="44.15167" lon="7.24044">
        <ele>2320</ele>
        <time>2019-02-10T10:01:06.000Z</time>
      </trkpt>
      <trkpt lat="44.15166" lon="7.24042">
        <ele>2319.8000488281</ele>
        <time>2019-02-10T10:01:13.000Z</time>
      </trkpt>
      <trkpt lat="44.15166" lon="7.24042">
        <ele>2319.8000488281</ele>
        <time>2019-02-10T10:01:16.000Z</time>
      </trkpt>
      <trkpt lat="44.15166" lon="7.24042">
        <ele>2319.6000976562</ele>
        <time>2019-02-10T10:01:17.000Z</time>
      </trkpt>
      <trkpt lat="44.15166" lon="7.24042">
        <ele>2319.1999511719</ele>
        <time>2019-02-10T10:01:25.000Z</time>
      </trkpt>
      <trkpt lat="44.15166" lon="7.24042">
        <ele>2319.3999023438</ele>
        <time>2019-02-10T10:01:26.000Z</time>
      </trkpt>
      <trkpt lat="44.15166" lon="7.24042">
        <ele>2319.6000976562</ele>
        <time>2019-02-10T10:01:29.000Z</time>
      </trkpt>
      <trkpt lat="44.15167" lon="7.24041">
        <ele>2319.1999511719</ele>
        <time>2019-02-10T10:01:32.000Z</time>
      </trkpt>
      <trkpt lat="44.15168" lon="7.24042">
        <ele>2319</ele>
        <time>2019-02-10T10:01:36.000Z</time>
      </trkpt>
      <trkpt lat="44.15168" lon="7.24042">
        <ele>2318.8000488281</ele>
        <time>2019-02-10T10:01:37.000Z</time>
      </trkpt>
      <trkpt lat="44.15168" lon="7.24042">
        <ele>2319</ele>
        <time>2019-02-10T10:01:39.000Z</time>
      </trkpt>
      <trkpt lat="44.15167" lon="7.24043">
        <ele>2318.8000488281</ele>
        <time>2019-02-10T10:01:41.000Z</time>
      </trkpt>
      <trkpt lat="44.15167" lon="7.24043">
        <ele>2319</ele>
        <time>2019-02-10T10:01:42.000Z</time>
      </trkpt>
      <trkpt lat="44.15167" lon="7.24045">
        <ele>2319.6000976562</ele>
        <time>2019-02-10T10:01:46.000Z</time>
      </trkpt>
      <trkpt lat="44.15167" lon="7.24044">
        <ele>2320</ele>
        <time>2019-02-10T10:01:48.000Z</time>
      </trkpt>
      <trkpt lat="44.15171" lon="7.24042">
        <ele>2320.1999511719</ele>
        <time>2019-02-10T10:01:59.000Z</time>
      </trkpt>
      <trkpt lat="44.15171" lon="7.24042">
        <ele>2320.3999023438</ele>
        <time>2019-02-10T10:02:00.000Z</time>
      </trkpt>
      <trkpt lat="44.1517" lon="7.24042">
        <ele>2320.3999023438</ele>
        <time>2019-02-10T10:02:01.000Z</time>
      </trkpt>
      <trkpt lat="44.1517" lon="7.24043">
        <ele>2320.3999023438</ele>
        <time>2019-02-10T10:02:04.000Z</time>
      </trkpt>
      <trkpt lat="44.15169" lon="7.24043">
        <ele>2320.1999511719</ele>
        <time>2019-02-10T10:02:07.000Z</time>
      </trkpt>
      <trkpt lat="44.15169" lon="7.24043">
        <ele>2320.3999023438</ele>
        <time>2019-02-10T10:02:09.000Z</time>
      </trkpt>
      <trkpt lat="44.15168" lon="7.24043">
        <ele>2320.6000976562</ele>
        <time>2019-02-10T10:02:11.000Z</time>
      </trkpt>
      <trkpt lat="44.15167" lon="7.24043">
        <ele>2320</ele>
        <time>2019-02-10T10:02:20.000Z</time>
      </trkpt>
      <trkpt lat="44.15167" lon="7.24043">
        <ele>2319.8000488281</ele>
        <time>2019-02-10T10:02:23.000Z</time>
      </trkpt>
      <trkpt lat="44.15167" lon="7.24042">
        <ele>2319.3999023438</ele>
        <time>2019-02-10T10:02:28.000Z</time>
      </trkpt>
      <trkpt lat="44.15167" lon="7.24042">
        <ele>2319.8000488281</ele>
        <time>2019-02-10T10:02:34.000Z</time>
      </trkpt>
      <trkpt lat="44.15166" lon="7.24043">
        <ele>2320</ele>
        <time>2019-02-10T10:02:43.000Z</time>
      </trkpt>
      <trkpt lat="44.15165" lon="7.24044">
        <ele>2320.3999023438</ele>
        <time>2019-02-10T10:02:47.000Z</time>
      </trkpt>
      <trkpt lat="44.15165" lon="7.24045">
        <ele>2320.3999023438</ele>
        <time>2019-02-10T10:02:52.000Z</time>
      </trkpt>
      <trkpt lat="44.15167" lon="7.24043">
        <ele>2320.6000976562</ele>
        <time>2019-02-10T10:03:01.000Z</time>
      </trkpt>
      <trkpt lat="44.15166" lon="7.24043">
        <ele>2320.6000976562</ele>
        <time>2019-02-10T10:03:03.000Z</time>
      </trkpt>
      <trkpt lat="44.15166" lon="7.24043">
        <ele>2320.6000976562</ele>
        <time>2019-02-10T10:03:04.000Z</time>
      </trkpt>
      <trkpt lat="44.15167" lon="7.24042">
        <ele>2320.6000976562</ele>
        <time>2019-02-10T10:03:06.000Z</time>
      </trkpt>
      <trkpt lat="44.15168" lon="7.2404">
        <ele>2320.6000976562</ele>
        <time>2019-02-10T10:03:23.000Z</time>
      </trkpt>
      <trkpt lat="44.15166" lon="7.24042">
        <ele>2320.6000976562</ele>
        <time>2019-02-10T10:03:33.000Z</time>
      </trkpt>
      <trkpt lat="44.15168" lon="7.24043">
        <ele>2320.6000976562</ele>
        <time>2019-02-10T10:03:39.000Z</time>
      </trkpt>
      <trkpt lat="44.1517" lon="7.24043">
        <ele>2320.6000976562</ele>
        <time>2019-02-10T10:03:56.000Z</time>
      </trkpt>
      <trkpt lat="44.15171" lon="7.24043">
        <ele>2320.6000976562</ele>
        <time>2019-02-10T10:03:58.000Z</time>
      </trkpt>
      <trkpt lat="44.15173" lon="7.24045">
        <ele>2320.6000976562</ele>
        <time>2019-02-10T10:04:03.000Z</time>
      </trkpt>
      <trkpt lat="44.15175" lon="7.24049">
        <ele>2320.6000976562</ele>
        <time>2019-02-10T10:04:13.000Z</time>
      </trkpt>
      <trkpt lat="44.15176" lon="7.2405">
        <ele>2320.6000976562</ele>
        <time>2019-02-10T10:04:20.000Z</time>
      </trkpt>
      <trkpt lat="44.15176" lon="7.2405">
        <ele>2320.6000976562</ele>
        <time>2019-02-10T10:04:22.000Z</time>
      </trkpt>
      <trkpt lat="44.15175" lon="7.24049">
        <ele>2320.6000976562</ele>
        <time>2019-02-10T10:04:27.000Z</time>
      </trkpt>
      <trkpt lat="44.15176" lon="7.24054">
        <ele>2320.6000976562</ele>
        <time>2019-02-10T10:04:45.000Z</time>
      </trkpt>
      <trkpt lat="44.15177" lon="7.24057">
        <ele>2319.8000488281</ele>
        <time>2019-02-10T10:04:47.000Z</time>
      </trkpt>
      <trkpt lat="44.15187" lon="7.24068">
        <ele>2319</ele>
        <time>2019-02-10T10:04:59.000Z</time>
      </trkpt>
      <trkpt lat="44.15194" lon="7.24074">
        <ele>2318</ele>
        <time>2019-02-10T10:05:09.000Z</time>
      </trkpt>
      <trkpt lat="44.15195" lon="7.24075">
        <ele>2318</ele>
        <time>2019-02-10T10:05:10.000Z</time>
      </trkpt>
      <trkpt lat="44.15197" lon="7.24077">
        <ele>2317.8000488281</ele>
        <time>2019-02-10T10:05:13.000Z</time>
      </trkpt>
      <trkpt lat="44.15198" lon="7.24078">
        <ele>2317.8000488281</ele>
        <time>2019-02-10T10:05:14.000Z</time>
      </trkpt>
      <trkpt lat="44.15198" lon="7.24079">
        <ele>2317.8000488281</ele>
        <time>2019-02-10T10:05:15.000Z</time>
      </trkpt>
      <trkpt lat="44.15199" lon="7.24079">
        <ele>2318</ele>
        <time>2019-02-10T10:05:16.000Z</time>
      </trkpt>
      <trkpt lat="44.15199" lon="7.2408">
        <ele>2318</ele>
        <time>2019-02-10T10:05:17.000Z</time>
      </trkpt>
      <trkpt lat="44.15197" lon="7.24081">
        <ele>2319</ele>
        <time>2019-02-10T10:05:23.000Z</time>
      </trkpt>
      <trkpt lat="44.15201" lon="7.24084">
        <ele>2319</ele>
        <time>2019-02-10T10:05:30.000Z</time>
      </trkpt>
      <trkpt lat="44.15205" lon="7.24092">
        <ele>2320</ele>
        <time>2019-02-10T10:05:39.000Z</time>
      </trkpt>
      <trkpt lat="44.15207" lon="7.24093">
        <ele>2320.1999511719</ele>
        <time>2019-02-10T10:05:41.000Z</time>
      </trkpt>
      <trkpt lat="44.15208" lon="7.24094">
        <ele>2320.6000976562</ele>
        <time>2019-02-10T10:05:43.000Z</time>
      </trkpt>
      <trkpt lat="44.15212" lon="7.24098">
        <ele>2321.1999511719</ele>
        <time>2019-02-10T10:05:54.000Z</time>
      </trkpt>
      <trkpt lat="44.15214" lon="7.241">
        <ele>2321.8000488281</ele>
        <time>2019-02-10T10:06:00.000Z</time>
      </trkpt>
      <trkpt lat="44.15215" lon="7.24102">
        <ele>2322</ele>
        <time>2019-02-10T10:06:04.000Z</time>
      </trkpt>
      <trkpt lat="44.15215" lon="7.24102">
        <ele>2322.1999511719</ele>
        <time>2019-02-10T10:06:06.000Z</time>
      </trkpt>
      <trkpt lat="44.15216" lon="7.24102">
        <ele>2323.1999511719</ele>
        <time>2019-02-10T10:06:20.000Z</time>
      </trkpt>
      <trkpt lat="44.15219" lon="7.24106">
        <ele>2323.6000976562</ele>
        <time>2019-02-10T10:06:28.000Z</time>
      </trkpt>
      <trkpt lat="44.15223" lon="7.24109">
        <ele>2324.1999511719</ele>
        <time>2019-02-10T10:06:38.000Z</time>
      </trkpt>
      <trkpt lat="44.15227" lon="7.24113">
        <ele>2325.1999511719</ele>
        <time>2019-02-10T10:06:45.000Z</time>
      </trkpt>
      <trkpt lat="44.1523" lon="7.24117">
        <ele>2326.1999511719</ele>
        <time>2019-02-10T10:06:52.000Z</time>
      </trkpt>
      <trkpt lat="44.15231" lon="7.24118">
        <ele>2326.3999023438</ele>
        <time>2019-02-10T10:06:53.000Z</time>
      </trkpt>
      <trkpt lat="44.15232" lon="7.24121">
        <ele>2327.6000976562</ele>
        <time>2019-02-10T10:06:59.000Z</time>
      </trkpt>
      <trkpt lat="44.15235" lon="7.24126">
        <ele>2328.6000976562</ele>
        <time>2019-02-10T10:07:07.000Z</time>
      </trkpt>
      <trkpt lat="44.15238" lon="7.24128">
        <ele>2329.3999023438</ele>
        <time>2019-02-10T10:07:13.000Z</time>
      </trkpt>
      <trkpt lat="44.1524" lon="7.24129">
        <ele>2329.8000488281</ele>
        <time>2019-02-10T10:07:16.000Z</time>
      </trkpt>
      <trkpt lat="44.15243" lon="7.2413">
        <ele>2330.8000488281</ele>
        <time>2019-02-10T10:07:22.000Z</time>
      </trkpt>
      <trkpt lat="44.15246" lon="7.24134">
        <ele>2331.8000488281</ele>
        <time>2019-02-10T10:07:31.000Z</time>
      </trkpt>
      <trkpt lat="44.15247" lon="7.24138">
        <ele>2333</ele>
        <time>2019-02-10T10:07:38.000Z</time>
      </trkpt>
      <trkpt lat="44.15247" lon="7.24142">
        <ele>2334</ele>
        <time>2019-02-10T10:07:44.000Z</time>
      </trkpt>
      <trkpt lat="44.15248" lon="7.24147">
        <ele>2335.1999511719</ele>
        <time>2019-02-10T10:07:50.000Z</time>
      </trkpt>
      <trkpt lat="44.15245" lon="7.24156">
        <ele>2335.8000488281</ele>
        <time>2019-02-10T10:08:00.000Z</time>
      </trkpt>
      <trkpt lat="44.15245" lon="7.24156">
        <ele>2336</ele>
        <time>2019-02-10T10:08:02.000Z</time>
      </trkpt>
      <trkpt lat="44.15244" lon="7.24156">
        <ele>2336.3999023438</ele>
        <time>2019-02-10T10:08:03.000Z</time>
      </trkpt>
      <trkpt lat="44.15246" lon="7.24156">
        <ele>2336.8000488281</ele>
        <time>2019-02-10T10:08:34.000Z</time>
      </trkpt>
      <trkpt lat="44.15246" lon="7.24156">
        <ele>2336.8000488281</ele>
        <time>2019-02-10T10:08:35.000Z</time>
      </trkpt>
      <trkpt lat="44.15246" lon="7.2416">
        <ele>2336.8000488281</ele>
        <time>2019-02-10T10:08:40.000Z</time>
      </trkpt>
      <trkpt lat="44.15246" lon="7.2416">
        <ele>2337</ele>
        <time>2019-02-10T10:08:41.000Z</time>
      </trkpt>
      <trkpt lat="44.15245" lon="7.2416">
        <ele>2337.1999511719</ele>
        <time>2019-02-10T10:08:43.000Z</time>
      </trkpt>
      <trkpt lat="44.15245" lon="7.24161">
        <ele>2337.3999023438</ele>
        <time>2019-02-10T10:08:46.000Z</time>
      </trkpt>
      <trkpt lat="44.15245" lon="7.24164">
        <ele>2337.3999023438</ele>
        <time>2019-02-10T10:08:47.000Z</time>
      </trkpt>
      <trkpt lat="44.15244" lon="7.24172">
        <ele>2338.3999023438</ele>
        <time>2019-02-10T10:08:55.000Z</time>
      </trkpt>
      <trkpt lat="44.15243" lon="7.24182">
        <ele>2339.1999511719</ele>
        <time>2019-02-10T10:09:04.000Z</time>
      </trkpt>
      <trkpt lat="44.15243" lon="7.24185">
        <ele>2339.3999023438</ele>
        <time>2019-02-10T10:09:08.000Z</time>
      </trkpt>
      <trkpt lat="44.15242" lon="7.24188">
        <ele>2340</ele>
        <time>2019-02-10T10:09:12.000Z</time>
      </trkpt>
      <trkpt lat="44.15242" lon="7.24192">
        <ele>2340.6000976562</ele>
        <time>2019-02-10T10:09:16.000Z</time>
      </trkpt>
      <trkpt lat="44.15242" lon="7.24197">
        <ele>2341.8000488281</ele>
        <time>2019-02-10T10:09:22.000Z</time>
      </trkpt>
      <trkpt lat="44.15241" lon="7.24202">
        <ele>2342.8000488281</ele>
        <time>2019-02-10T10:09:26.000Z</time>
      </trkpt>
      <trkpt lat="44.15242" lon="7.24207">
        <ele>2343.6000976562</ele>
        <time>2019-02-10T10:09:30.000Z</time>
      </trkpt>
      <trkpt lat="44.15242" lon="7.24209">
        <ele>2344</ele>
        <time>2019-02-10T10:09:32.000Z</time>
      </trkpt>
      <trkpt lat="44.15243" lon="7.24213">
        <ele>2344.6000976562</ele>
        <time>2019-02-10T10:09:36.000Z</time>
      </trkpt>
      <trkpt lat="44.15243" lon="7.24214">
        <ele>2344.6000976562</ele>
        <time>2019-02-10T10:09:37.000Z</time>
      </trkpt>
      <trkpt lat="44.15244" lon="7.24215">
        <ele>2345</ele>
        <time>2019-02-10T10:09:40.000Z</time>
      </trkpt>
      <trkpt lat="44.15249" lon="7.24225">
        <ele>2345.8000488281</ele>
        <time>2019-02-10T10:09:49.000Z</time>
      </trkpt>
      <trkpt lat="44.1525" lon="7.24229">
        <ele>2346</ele>
        <time>2019-02-10T10:09:52.000Z</time>
      </trkpt>
      <trkpt lat="44.15251" lon="7.24231">
        <ele>2346.3999023438</ele>
        <time>2019-02-10T10:09:54.000Z</time>
      </trkpt>
      <trkpt lat="44.15251" lon="7.24233">
        <ele>2346.6000976562</ele>
        <time>2019-02-10T10:09:55.000Z</time>
      </trkpt>
      <trkpt lat="44.15251" lon="7.24234">
        <ele>2346.6000976562</ele>
        <time>2019-02-10T10:09:56.000Z</time>
      </trkpt>
      <trkpt lat="44.15252" lon="7.24238">
        <ele>2347</ele>
        <time>2019-02-10T10:10:00.000Z</time>
      </trkpt>
      <trkpt lat="44.15252" lon="7.24242">
        <ele>2347.1999511719</ele>
        <time>2019-02-10T10:10:04.000Z</time>
      </trkpt>
      <trkpt lat="44.1525" lon="7.24247">
        <ele>2348</ele>
        <time>2019-02-10T10:10:15.000Z</time>
      </trkpt>
      <trkpt lat="44.15248" lon="7.24251">
        <ele>2348</ele>
        <time>2019-02-10T10:10:20.000Z</time>
      </trkpt>
      <trkpt lat="44.15248" lon="7.24251">
        <ele>2348</ele>
        <time>2019-02-10T10:10:21.000Z</time>
      </trkpt>
      <trkpt lat="44.15246" lon="7.24257">
        <ele>2348</ele>
        <time>2019-02-10T10:10:25.000Z</time>
      </trkpt>
      <trkpt lat="44.15243" lon="7.24262">
        <ele>2347.6000976562</ele>
        <time>2019-02-10T10:10:30.000Z</time>
      </trkpt>
      <trkpt lat="44.15242" lon="7.24268">
        <ele>2347</ele>
        <time>2019-02-10T10:10:35.000Z</time>
      </trkpt>
      <trkpt lat="44.15242" lon="7.24276">
        <ele>2346.1999511719</ele>
        <time>2019-02-10T10:10:41.000Z</time>
      </trkpt>
      <trkpt lat="44.15242" lon="7.24278">
        <ele>2346</ele>
        <time>2019-02-10T10:10:43.000Z</time>
      </trkpt>
      <trkpt lat="44.15242" lon="7.24285">
        <ele>2345.1999511719</ele>
        <time>2019-02-10T10:10:46.000Z</time>
      </trkpt>
      <trkpt lat="44.15242" lon="7.24289">
        <ele>2344.8000488281</ele>
        <time>2019-02-10T10:10:47.000Z</time>
      </trkpt>
      <trkpt lat="44.15242" lon="7.24297">
        <ele>2343.6000976562</ele>
        <time>2019-02-10T10:10:49.000Z</time>
      </trkpt>
      <trkpt lat="44.15241" lon="7.24302">
        <ele>2342.1999511719</ele>
        <time>2019-02-10T10:10:51.000Z</time>
      </trkpt>
      <trkpt lat="44.15241" lon="7.24303">
        <ele>2342</ele>
        <time>2019-02-10T10:10:52.000Z</time>
      </trkpt>
      <trkpt lat="44.15241" lon="7.24303">
        <ele>2341.3999023438</ele>
        <time>2019-02-10T10:10:54.000Z</time>
      </trkpt>
      <trkpt lat="44.15241" lon="7.24306">
        <ele>2341.3999023438</ele>
        <time>2019-02-10T10:10:56.000Z</time>
      </trkpt>
      <trkpt lat="44.15241" lon="7.24307">
        <ele>2341.1999511719</ele>
        <time>2019-02-10T10:10:57.000Z</time>
      </trkpt>
      <trkpt lat="44.1524" lon="7.24309">
        <ele>2341.1999511719</ele>
        <time>2019-02-10T10:11:00.000Z</time>
      </trkpt>
      <trkpt lat="44.15238" lon="7.24318">
        <ele>2341.1999511719</ele>
        <time>2019-02-10T10:11:04.000Z</time>
      </trkpt>
      <trkpt lat="44.15239" lon="7.24324">
        <ele>2341.1999511719</ele>
        <time>2019-02-10T10:11:07.000Z</time>
      </trkpt>
      <trkpt lat="44.15239" lon="7.24325">
        <ele>2341.1999511719</ele>
        <time>2019-02-10T10:11:08.000Z</time>
      </trkpt>
      <trkpt lat="44.15239" lon="7.24326">
        <ele>2341.3999023438</ele>
        <time>2019-02-10T10:11:09.000Z</time>
      </trkpt>
      <trkpt lat="44.15241" lon="7.24328">
        <ele>2341.8000488281</ele>
        <time>2019-02-10T10:11:11.000Z</time>
      </trkpt>
      <trkpt lat="44.15242" lon="7.2433">
        <ele>2342</ele>
        <time>2019-02-10T10:11:13.000Z</time>
      </trkpt>
      <trkpt lat="44.15243" lon="7.24331">
        <ele>2342.3999023438</ele>
        <time>2019-02-10T10:11:15.000Z</time>
      </trkpt>
      <trkpt lat="44.15244" lon="7.24332">
        <ele>2342.8000488281</ele>
        <time>2019-02-10T10:11:16.000Z</time>
      </trkpt>
      <trkpt lat="44.15245" lon="7.24334">
        <ele>2343.1999511719</ele>
        <time>2019-02-10T10:11:18.000Z</time>
      </trkpt>
      <trkpt lat="44.15246" lon="7.24335">
        <ele>2343.6000976562</ele>
        <time>2019-02-10T10:11:20.000Z</time>
      </trkpt>
      <trkpt lat="44.15251" lon="7.24336">
        <ele>2344.6000976562</ele>
        <time>2019-02-10T10:11:26.000Z</time>
      </trkpt>
      <trkpt lat="44.15251" lon="7.24335">
        <ele>2344.8000488281</ele>
        <time>2019-02-10T10:11:27.000Z</time>
      </trkpt>
      <trkpt lat="44.15256" lon="7.24336">
        <ele>2345.8000488281</ele>
        <time>2019-02-10T10:11:36.000Z</time>
      </trkpt>
      <trkpt lat="44.15262" lon="7.24336">
        <ele>2346.8000488281</ele>
        <time>2019-02-10T10:11:43.000Z</time>
      </trkpt>
      <trkpt lat="44.15263" lon="7.24347">
        <ele>2348</ele>
        <time>2019-02-10T10:11:52.000Z</time>
      </trkpt>
      <trkpt lat="44.15265" lon="7.24382">
        <ele>2347.6000976562</ele>
        <time>2019-02-10T10:12:12.000Z</time>
      </trkpt>
      <trkpt lat="44.15265" lon="7.24385">
        <ele>2347.6000976562</ele>
        <time>2019-02-10T10:12:14.000Z</time>
      </trkpt>
      <trkpt lat="44.15262" lon="7.24403">
        <ele>2347.3999023438</ele>
        <time>2019-02-10T10:12:27.000Z</time>
      </trkpt>
      <trkpt lat="44.1526" lon="7.24421">
        <ele>2348.6000976562</ele>
        <time>2019-02-10T10:12:42.000Z</time>
      </trkpt>
      <trkpt lat="44.15259" lon="7.24428">
        <ele>2348.6000976562</ele>
        <time>2019-02-10T10:12:46.000Z</time>
      </trkpt>
      <trkpt lat="44.15259" lon="7.24441">
        <ele>2348.8000488281</ele>
        <time>2019-02-10T10:12:56.000Z</time>
      </trkpt>
      <trkpt lat="44.15259" lon="7.24447">
        <ele>2348.8000488281</ele>
        <time>2019-02-10T10:13:00.000Z</time>
      </trkpt>
      <trkpt lat="44.15257" lon="7.24467">
        <ele>2348.3999023438</ele>
        <time>2019-02-10T10:13:11.000Z</time>
      </trkpt>
      <trkpt lat="44.15255" lon="7.24483">
        <ele>2348.1999511719</ele>
        <time>2019-02-10T10:13:21.000Z</time>
      </trkpt>
      <trkpt lat="44.15255" lon="7.2449">
        <ele>2348.6000976562</ele>
        <time>2019-02-10T10:13:27.000Z</time>
      </trkpt>
      <trkpt lat="44.15254" lon="7.24492">
        <ele>2348.8000488281</ele>
        <time>2019-02-10T10:13:29.000Z</time>
      </trkpt>
      <trkpt lat="44.15253" lon="7.24493">
        <ele>2349</ele>
        <time>2019-02-10T10:13:30.000Z</time>
      </trkpt>
      <trkpt lat="44.15251" lon="7.24499">
        <ele>2349.6000976562</ele>
        <time>2019-02-10T10:13:35.000Z</time>
      </trkpt>
      <trkpt lat="44.1525" lon="7.24501">
        <ele>2350</ele>
        <time>2019-02-10T10:13:37.000Z</time>
      </trkpt>
      <trkpt lat="44.1525" lon="7.24503">
        <ele>2350.3999023438</ele>
        <time>2019-02-10T10:13:40.000Z</time>
      </trkpt>
      <trkpt lat="44.1525" lon="7.24505">
        <ele>2351</ele>
        <time>2019-02-10T10:13:42.000Z</time>
      </trkpt>
      <trkpt lat="44.1525" lon="7.24507">
        <ele>2351</ele>
        <time>2019-02-10T10:13:43.000Z</time>
      </trkpt>
      <trkpt lat="44.1525" lon="7.24509">
        <ele>2351.3999023438</ele>
        <time>2019-02-10T10:13:45.000Z</time>
      </trkpt>
      <trkpt lat="44.1525" lon="7.24511">
        <ele>2351.8000488281</ele>
        <time>2019-02-10T10:13:47.000Z</time>
      </trkpt>
      <trkpt lat="44.1525" lon="7.24511">
        <ele>2351.8000488281</ele>
        <time>2019-02-10T10:13:48.000Z</time>
      </trkpt>
      <trkpt lat="44.1525" lon="7.24511">
        <ele>2351.8000488281</ele>
        <time>2019-02-10T10:13:49.000Z</time>
      </trkpt>
      <trkpt lat="44.15251" lon="7.24512">
        <ele>2351.8000488281</ele>
        <time>2019-02-10T10:13:51.000Z</time>
      </trkpt>
      <trkpt lat="44.1525" lon="7.24516">
        <ele>2352</ele>
        <time>2019-02-10T10:13:57.000Z</time>
      </trkpt>
      <trkpt lat="44.1525" lon="7.24518">
        <ele>2352.6000976562</ele>
        <time>2019-02-10T10:14:01.000Z</time>
      </trkpt>
      <trkpt lat="44.15249" lon="7.24527">
        <ele>2353</ele>
        <time>2019-02-10T10:14:09.000Z</time>
      </trkpt>
      <trkpt lat="44.15249" lon="7.24529">
        <ele>2353</ele>
        <time>2019-02-10T10:14:10.000Z</time>
      </trkpt>
      <trkpt lat="44.15248" lon="7.24532">
        <ele>2353</ele>
        <time>2019-02-10T10:14:13.000Z</time>
      </trkpt>
      <trkpt lat="44.15248" lon="7.24539">
        <ele>2353.3999023438</ele>
        <time>2019-02-10T10:14:19.000Z</time>
      </trkpt>
      <trkpt lat="44.15248" lon="7.2454">
        <ele>2353.3999023438</ele>
        <time>2019-02-10T10:14:20.000Z</time>
      </trkpt>
      <trkpt lat="44.15248" lon="7.24542">
        <ele>2353.3999023438</ele>
        <time>2019-02-10T10:14:21.000Z</time>
      </trkpt>
      <trkpt lat="44.15247" lon="7.24546">
        <ele>2353.6000976562</ele>
        <time>2019-02-10T10:14:24.000Z</time>
      </trkpt>
      <trkpt lat="44.15248" lon="7.24548">
        <ele>2353.6000976562</ele>
        <time>2019-02-10T10:14:25.000Z</time>
      </trkpt>
      <trkpt lat="44.15248" lon="7.24553">
        <ele>2354.3999023438</ele>
        <time>2019-02-10T10:14:30.000Z</time>
      </trkpt>
      <trkpt lat="44.15248" lon="7.24564">
        <ele>2355.3999023438</ele>
        <time>2019-02-10T10:14:39.000Z</time>
      </trkpt>
      <trkpt lat="44.15247" lon="7.24571">
        <ele>2355.8000488281</ele>
        <time>2019-02-10T10:14:44.000Z</time>
      </trkpt>
      <trkpt lat="44.15248" lon="7.24571">
        <ele>2356</ele>
        <time>2019-02-10T10:14:45.000Z</time>
      </trkpt>
      <trkpt lat="44.15248" lon="7.24571">
        <ele>2356.3999023438</ele>
        <time>2019-02-10T10:14:47.000Z</time>
      </trkpt>
      <trkpt lat="44.15248" lon="7.24571">
        <ele>2356.3999023438</ele>
        <time>2019-02-10T10:14:48.000Z</time>
      </trkpt>
      <trkpt lat="44.15248" lon="7.24572">
        <ele>2356.6000976562</ele>
        <time>2019-02-10T10:14:50.000Z</time>
      </trkpt>
      <trkpt lat="44.15248" lon="7.24572">
        <ele>2356.6000976562</ele>
        <time>2019-02-10T10:14:52.000Z</time>
      </trkpt>
      <trkpt lat="44.15247" lon="7.24577">
        <ele>2356.6000976562</ele>
        <time>2019-02-10T10:14:57.000Z</time>
      </trkpt>
      <trkpt lat="44.15247" lon="7.24578">
        <ele>2356.8000488281</ele>
        <time>2019-02-10T10:14:58.000Z</time>
      </trkpt>
      <trkpt lat="44.15246" lon="7.24581">
        <ele>2357.3999023438</ele>
        <time>2019-02-10T10:15:01.000Z</time>
      </trkpt>
      <trkpt lat="44.15245" lon="7.24583">
        <ele>2357.6000976562</ele>
        <time>2019-02-10T10:15:03.000Z</time>
      </trkpt>
      <trkpt lat="44.15244" lon="7.24585">
        <ele>2357.8000488281</ele>
        <time>2019-02-10T10:15:05.000Z</time>
      </trkpt>
      <trkpt lat="44.15244" lon="7.24588">
        <ele>2358</ele>
        <time>2019-02-10T10:15:08.000Z</time>
      </trkpt>
      <trkpt lat="44.15242" lon="7.24594">
        <ele>2358.3999023438</ele>
        <time>2019-02-10T10:15:13.000Z</time>
      </trkpt>
      <trkpt lat="44.1524" lon="7.24597">
        <ele>2358.6000976562</ele>
        <time>2019-02-10T10:15:15.000Z</time>
      </trkpt>
      <trkpt lat="44.15239" lon="7.24599">
        <ele>2358.6000976562</ele>
        <time>2019-02-10T10:15:17.000Z</time>
      </trkpt>
      <trkpt lat="44.15237" lon="7.24602">
        <ele>2359.1999511719</ele>
        <time>2019-02-10T10:15:22.000Z</time>
      </trkpt>
      <trkpt lat="44.15235" lon="7.24605">
        <ele>2359.6000976562</ele>
        <time>2019-02-10T10:15:25.000Z</time>
      </trkpt>
      <trkpt lat="44.15234" lon="7.24606">
        <ele>2359.6000976562</ele>
        <time>2019-02-10T10:15:26.000Z</time>
      </trkpt>
      <trkpt lat="44.15233" lon="7.24608">
        <ele>2360</ele>
        <time>2019-02-10T10:15:31.000Z</time>
      </trkpt>
      <trkpt lat="44.15231" lon="7.24611">
        <ele>2360.1999511719</ele>
        <time>2019-02-10T10:15:49.000Z</time>
      </trkpt>
      <trkpt lat="44.15228" lon="7.24611">
        <ele>2360.1999511719</ele>
        <time>2019-02-10T10:15:56.000Z</time>
      </trkpt>
      <trkpt lat="44.15228" lon="7.24611">
        <ele>2360.1999511719</ele>
        <time>2019-02-10T10:15:59.000Z</time>
      </trkpt>
      <trkpt lat="44.15228" lon="7.24611">
        <ele>2360.1999511719</ele>
        <time>2019-02-10T10:16:01.000Z</time>
      </trkpt>
      <trkpt lat="44.15229" lon="7.24615">
        <ele>2360.1999511719</ele>
        <time>2019-02-10T10:16:10.000Z</time>
      </trkpt>
      <trkpt lat="44.1523" lon="7.24615">
        <ele>2360.3999023438</ele>
        <time>2019-02-10T10:16:14.000Z</time>
      </trkpt>
      <trkpt lat="44.1523" lon="7.24614">
        <ele>2360.3999023438</ele>
        <time>2019-02-10T10:16:21.000Z</time>
      </trkpt>
      <trkpt lat="44.1523" lon="7.24614">
        <ele>2360.8000488281</ele>
        <time>2019-02-10T10:16:27.000Z</time>
      </trkpt>
      <trkpt lat="44.1523" lon="7.24614">
        <ele>2361</ele>
        <time>2019-02-10T10:16:29.000Z</time>
      </trkpt>
      <trkpt lat="44.15229" lon="7.24611">
        <ele>2361</ele>
        <time>2019-02-10T10:16:49.000Z</time>
      </trkpt>
      <trkpt lat="44.15229" lon="7.24611">
        <ele>2360.8000488281</ele>
        <time>2019-02-10T10:16:51.000Z</time>
      </trkpt>
      <trkpt lat="44.15231" lon="7.24614">
        <ele>2360.8000488281</ele>
        <time>2019-02-10T10:16:59.000Z</time>
      </trkpt>
      <trkpt lat="44.15231" lon="7.24613">
        <ele>2360.8000488281</ele>
        <time>2019-02-10T10:17:05.000Z</time>
      </trkpt>
      <trkpt lat="44.1523" lon="7.24612">
        <ele>2360.8000488281</ele>
        <time>2019-02-10T10:17:10.000Z</time>
      </trkpt>
      <trkpt lat="44.1523" lon="7.24612">
        <ele>2360.8000488281</ele>
        <time>2019-02-10T10:17:12.000Z</time>
      </trkpt>
      <trkpt lat="44.1523" lon="7.24612">
        <ele>2360.8000488281</ele>
        <time>2019-02-10T10:17:14.000Z</time>
      </trkpt>
      <trkpt lat="44.1523" lon="7.24612">
        <ele>2360.8000488281</ele>
        <time>2019-02-10T10:17:17.000Z</time>
      </trkpt>
      <trkpt lat="44.1523" lon="7.24612">
        <ele>2360.8000488281</ele>
        <time>2019-02-10T10:17:21.000Z</time>
      </trkpt>
      <trkpt lat="44.15229" lon="7.24611">
        <ele>2360.8000488281</ele>
        <time>2019-02-10T10:17:23.000Z</time>
      </trkpt>
      <trkpt lat="44.1523" lon="7.2461">
        <ele>2360.8000488281</ele>
        <time>2019-02-10T10:17:27.000Z</time>
      </trkpt>
      <trkpt lat="44.1523" lon="7.2461">
        <ele>2360.8000488281</ele>
        <time>2019-02-10T10:17:29.000Z</time>
      </trkpt>
      <trkpt lat="44.1523" lon="7.2461">
        <ele>2360.8000488281</ele>
        <time>2019-02-10T10:17:30.000Z</time>
      </trkpt>
      <trkpt lat="44.15227" lon="7.24609">
        <ele>2360.8000488281</ele>
        <time>2019-02-10T10:17:34.000Z</time>
      </trkpt>
      <trkpt lat="44.15228" lon="7.2461">
        <ele>2360.8000488281</ele>
        <time>2019-02-10T10:17:38.000Z</time>
      </trkpt>
      <trkpt lat="44.15228" lon="7.2461">
        <ele>2360.8000488281</ele>
        <time>2019-02-10T10:17:39.000Z</time>
      </trkpt>
      <trkpt lat="44.15229" lon="7.24611">
        <ele>2360.8000488281</ele>
        <time>2019-02-10T10:17:41.000Z</time>
      </trkpt>
      <trkpt lat="44.15228" lon="7.24616">
        <ele>2360.8000488281</ele>
        <time>2019-02-10T10:17:48.000Z</time>
      </trkpt>
      <trkpt lat="44.15226" lon="7.24624">
        <ele>2360.8000488281</ele>
        <time>2019-02-10T10:17:56.000Z</time>
      </trkpt>
      <trkpt lat="44.15226" lon="7.24626">
        <ele>2360.8000488281</ele>
        <time>2019-02-10T10:17:57.000Z</time>
      </trkpt>
      <trkpt lat="44.15225" lon="7.24629">
        <ele>2360.6000976562</ele>
        <time>2019-02-10T10:17:59.000Z</time>
      </trkpt>
      <trkpt lat="44.15224" lon="7.24632">
        <ele>2360.3999023438</ele>
        <time>2019-02-10T10:18:02.000Z</time>
      </trkpt>
      <trkpt lat="44.15224" lon="7.24633">
        <ele>2360.6000976562</ele>
        <time>2019-02-10T10:18:03.000Z</time>
      </trkpt>
      <trkpt lat="44.15221" lon="7.2464">
        <ele>2360.3999023438</ele>
        <time>2019-02-10T10:18:07.000Z</time>
      </trkpt>
      <trkpt lat="44.15219" lon="7.24643">
        <ele>2359.8000488281</ele>
        <time>2019-02-10T10:18:10.000Z</time>
      </trkpt>
      <trkpt lat="44.15218" lon="7.24644">
        <ele>2359.1999511719</ele>
        <time>2019-02-10T10:18:12.000Z</time>
      </trkpt>
      <trkpt lat="44.15215" lon="7.24646">
        <ele>2358.8000488281</ele>
        <time>2019-02-10T10:18:15.000Z</time>
      </trkpt>
      <trkpt lat="44.15214" lon="7.24647">
        <ele>2358.8000488281</ele>
        <time>2019-02-10T10:18:17.000Z</time>
      </trkpt>
      <trkpt lat="44.15213" lon="7.24651">
        <ele>2358.8000488281</ele>
        <time>2019-02-10T10:18:21.000Z</time>
      </trkpt>
      <trkpt lat="44.15212" lon="7.24659">
        <ele>2358.6000976562</ele>
        <time>2019-02-10T10:18:27.000Z</time>
      </trkpt>
      <trkpt lat="44.15211" lon="7.24669">
        <ele>2358</ele>
        <time>2019-02-10T10:18:33.000Z</time>
      </trkpt>
      <trkpt lat="44.15209" lon="7.24676">
        <ele>2357.6000976562</ele>
        <time>2019-02-10T10:18:39.000Z</time>
      </trkpt>
      <trkpt lat="44.15209" lon="7.24677">
        <ele>2357.6000976562</ele>
        <time>2019-02-10T10:18:41.000Z</time>
      </trkpt>
      <trkpt lat="44.15208" lon="7.24677">
        <ele>2358</ele>
        <time>2019-02-10T10:18:45.000Z</time>
      </trkpt>
      <trkpt lat="44.15208" lon="7.24682">
        <ele>2358.3999023438</ele>
        <time>2019-02-10T10:18:50.000Z</time>
      </trkpt>
      <trkpt lat="44.15207" lon="7.24689">
        <ele>2358.6000976562</ele>
        <time>2019-02-10T10:18:59.000Z</time>
      </trkpt>
      <trkpt lat="44.15207" lon="7.24689">
        <ele>2358.6000976562</ele>
        <time>2019-02-10T10:19:00.000Z</time>
      </trkpt>
      <trkpt lat="44.15206" lon="7.2469">
        <ele>2358.8000488281</ele>
        <time>2019-02-10T10:19:01.000Z</time>
      </trkpt>
      <trkpt lat="44.15206" lon="7.24691">
        <ele>2359</ele>
        <time>2019-02-10T10:19:02.000Z</time>
      </trkpt>
      <trkpt lat="44.15205" lon="7.24693">
        <ele>2359.1999511719</ele>
        <time>2019-02-10T10:19:04.000Z</time>
      </trkpt>
      <trkpt lat="44.15203" lon="7.24701">
        <ele>2359.6000976562</ele>
        <time>2019-02-10T10:19:10.000Z</time>
      </trkpt>
      <trkpt lat="44.15202" lon="7.24706">
        <ele>2359.6000976562</ele>
        <time>2019-02-10T10:19:13.000Z</time>
      </trkpt>
      <trkpt lat="44.15201" lon="7.24709">
        <ele>2360.1999511719</ele>
        <time>2019-02-10T10:19:17.000Z</time>
      </trkpt>
      <trkpt lat="44.152" lon="7.24714">
        <ele>2360.8000488281</ele>
        <time>2019-02-10T10:19:23.000Z</time>
      </trkpt>
      <trkpt lat="44.15201" lon="7.24726">
        <ele>2361.8000488281</ele>
        <time>2019-02-10T10:19:37.000Z</time>
      </trkpt>
      <trkpt lat="44.15199" lon="7.24732">
        <ele>2362.6000976562</ele>
        <time>2019-02-10T10:19:44.000Z</time>
      </trkpt>
      <trkpt lat="44.15198" lon="7.24736">
        <ele>2362.8000488281</ele>
        <time>2019-02-10T10:19:49.000Z</time>
      </trkpt>
      <trkpt lat="44.15196" lon="7.24746">
        <ele>2364</ele>
        <time>2019-02-10T10:20:00.000Z</time>
      </trkpt>
      <trkpt lat="44.15195" lon="7.24752">
        <ele>2364.6000976562</ele>
        <time>2019-02-10T10:20:12.000Z</time>
      </trkpt>
      <trkpt lat="44.15195" lon="7.24752">
        <ele>2364.6000976562</ele>
        <time>2019-02-10T10:20:13.000Z</time>
      </trkpt>
      <trkpt lat="44.15195" lon="7.24759">
        <ele>2364.8000488281</ele>
        <time>2019-02-10T10:20:21.000Z</time>
      </trkpt>
      <trkpt lat="44.15195" lon="7.2476">
        <ele>2365</ele>
        <time>2019-02-10T10:20:22.000Z</time>
      </trkpt>
      <trkpt lat="44.15197" lon="7.2476">
        <ele>2365.6000976562</ele>
        <time>2019-02-10T10:20:44.000Z</time>
      </trkpt>
      <trkpt lat="44.15196" lon="7.24766">
        <ele>2366</ele>
        <time>2019-02-10T10:20:58.000Z</time>
      </trkpt>
      <trkpt lat="44.15196" lon="7.24773">
        <ele>2366.3999023438</ele>
        <time>2019-02-10T10:21:03.000Z</time>
      </trkpt>
      <trkpt lat="44.15195" lon="7.24774">
        <ele>2366.6000976562</ele>
        <time>2019-02-10T10:21:04.000Z</time>
      </trkpt>
      <trkpt lat="44.15195" lon="7.24776">
        <ele>2367</ele>
        <time>2019-02-10T10:21:06.000Z</time>
      </trkpt>
      <trkpt lat="44.15195" lon="7.24777">
        <ele>2367.1999511719</ele>
        <time>2019-02-10T10:21:07.000Z</time>
      </trkpt>
      <trkpt lat="44.15194" lon="7.24782">
        <ele>2367.6000976562</ele>
        <time>2019-02-10T10:21:11.000Z</time>
      </trkpt>
      <trkpt lat="44.15193" lon="7.24783">
        <ele>2367.6000976562</ele>
        <time>2019-02-10T10:21:12.000Z</time>
      </trkpt>
      <trkpt lat="44.15192" lon="7.24785">
        <ele>2367.8000488281</ele>
        <time>2019-02-10T10:21:14.000Z</time>
      </trkpt>
      <trkpt lat="44.15189" lon="7.2479">
        <ele>2368</ele>
        <time>2019-02-10T10:21:18.000Z</time>
      </trkpt>
      <trkpt lat="44.15188" lon="7.24791">
        <ele>2368.1999511719</ele>
        <time>2019-02-10T10:21:19.000Z</time>
      </trkpt>
      <trkpt lat="44.15188" lon="7.24793">
        <ele>2368.3999023438</ele>
        <time>2019-02-10T10:21:21.000Z</time>
      </trkpt>
      <trkpt lat="44.15184" lon="7.24799">
        <ele>2369.1999511719</ele>
        <time>2019-02-10T10:21:27.000Z</time>
      </trkpt>
      <trkpt lat="44.15184" lon="7.248">
        <ele>2369.3999023438</ele>
        <time>2019-02-10T10:21:28.000Z</time>
      </trkpt>
      <trkpt lat="44.15183" lon="7.24803">
        <ele>2370</ele>
        <time>2019-02-10T10:21:31.000Z</time>
      </trkpt>
      <trkpt lat="44.15181" lon="7.24809">
        <ele>2370.6000976562</ele>
        <time>2019-02-10T10:21:36.000Z</time>
      </trkpt>
      <trkpt lat="44.15181" lon="7.2481">
        <ele>2371.1999511719</ele>
        <time>2019-02-10T10:21:38.000Z</time>
      </trkpt>
      <trkpt lat="44.15179" lon="7.24812">
        <ele>2371.6000976562</ele>
        <time>2019-02-10T10:21:41.000Z</time>
      </trkpt>
      <trkpt lat="44.15179" lon="7.24813">
        <ele>2371.8000488281</ele>
        <time>2019-02-10T10:21:42.000Z</time>
      </trkpt>
      <trkpt lat="44.15177" lon="7.24818">
        <ele>2372.1999511719</ele>
        <time>2019-02-10T10:21:48.000Z</time>
      </trkpt>
      <trkpt lat="44.15176" lon="7.24818">
        <ele>2372.3999023438</ele>
        <time>2019-02-10T10:21:49.000Z</time>
      </trkpt>
      <trkpt lat="44.15175" lon="7.2482">
        <ele>2373</ele>
        <time>2019-02-10T10:21:51.000Z</time>
      </trkpt>
      <trkpt lat="44.15172" lon="7.24824">
        <ele>2373.8000488281</ele>
        <time>2019-02-10T10:21:55.000Z</time>
      </trkpt>
      <trkpt lat="44.15171" lon="7.24826">
        <ele>2374</ele>
        <time>2019-02-10T10:21:57.000Z</time>
      </trkpt>
      <trkpt lat="44.15172" lon="7.24829">
        <ele>2374.1999511719</ele>
        <time>2019-02-10T10:22:01.000Z</time>
      </trkpt>
      <trkpt lat="44.15169" lon="7.24837">
        <ele>2375</ele>
        <time>2019-02-10T10:22:11.000Z</time>
      </trkpt>
      <trkpt lat="44.15166" lon="7.24842">
        <ele>2376</ele>
        <time>2019-02-10T10:22:20.000Z</time>
      </trkpt>
      <trkpt lat="44.15165" lon="7.24848">
        <ele>2377.1999511719</ele>
        <time>2019-02-10T10:22:27.000Z</time>
      </trkpt>
      <trkpt lat="44.15163" lon="7.24856">
        <ele>2378.1999511719</ele>
        <time>2019-02-10T10:22:36.000Z</time>
      </trkpt>
      <trkpt lat="44.15162" lon="7.2486">
        <ele>2379.1999511719</ele>
        <time>2019-02-10T10:22:43.000Z</time>
      </trkpt>
      <trkpt lat="44.15159" lon="7.24868">
        <ele>2380.3999023438</ele>
        <time>2019-02-10T10:22:51.000Z</time>
      </trkpt>
      <trkpt lat="44.15157" lon="7.24874">
        <ele>2381.3999023438</ele>
        <time>2019-02-10T10:22:57.000Z</time>
      </trkpt>
      <trkpt lat="44.15154" lon="7.24882">
        <ele>2382.3999023438</ele>
        <time>2019-02-10T10:23:06.000Z</time>
      </trkpt>
      <trkpt lat="44.15152" lon="7.24888">
        <ele>2383.3999023438</ele>
        <time>2019-02-10T10:23:13.000Z</time>
      </trkpt>
      <trkpt lat="44.1515" lon="7.24892">
        <ele>2384.6000976562</ele>
        <time>2019-02-10T10:23:20.000Z</time>
      </trkpt>
      <trkpt lat="44.15149" lon="7.24893">
        <ele>2384.8000488281</ele>
        <time>2019-02-10T10:23:28.000Z</time>
      </trkpt>
      <trkpt lat="44.15145" lon="7.24898">
        <ele>2385.6000976562</ele>
        <time>2019-02-10T10:23:36.000Z</time>
      </trkpt>
      <trkpt lat="44.15142" lon="7.24902">
        <ele>2386.8000488281</ele>
        <time>2019-02-10T10:23:41.000Z</time>
      </trkpt>
      <trkpt lat="44.1514" lon="7.24907">
        <ele>2387.8000488281</ele>
        <time>2019-02-10T10:23:48.000Z</time>
      </trkpt>
      <trkpt lat="44.15139" lon="7.24908">
        <ele>2388.8000488281</ele>
        <time>2019-02-10T10:23:53.000Z</time>
      </trkpt>
      <trkpt lat="44.15134" lon="7.24916">
        <ele>2390</ele>
        <time>2019-02-10T10:24:03.000Z</time>
      </trkpt>
      <trkpt lat="44.15131" lon="7.24919">
        <ele>2391</ele>
        <time>2019-02-10T10:24:09.000Z</time>
      </trkpt>
      <trkpt lat="44.15127" lon="7.24923">
        <ele>2392.1999511719</ele>
        <time>2019-02-10T10:24:17.000Z</time>
      </trkpt>
      <trkpt lat="44.15124" lon="7.24927">
        <ele>2393.3999023438</ele>
        <time>2019-02-10T10:24:22.000Z</time>
      </trkpt>
      <trkpt lat="44.1512" lon="7.2493">
        <ele>2394.1999511719</ele>
        <time>2019-02-10T10:24:28.000Z</time>
      </trkpt>
      <trkpt lat="44.15119" lon="7.24931">
        <ele>2394.3999023438</ele>
        <time>2019-02-10T10:24:29.000Z</time>
      </trkpt>
      <trkpt lat="44.15118" lon="7.24934">
        <ele>2395.6000976562</ele>
        <time>2019-02-10T10:24:34.000Z</time>
      </trkpt>
      <trkpt lat="44.15115" lon="7.24941">
        <ele>2396.6000976562</ele>
        <time>2019-02-10T10:24:41.000Z</time>
      </trkpt>
      <trkpt lat="44.15116" lon="7.24944">
        <ele>2397.8000488281</ele>
        <time>2019-02-10T10:24:48.000Z</time>
      </trkpt>
      <trkpt lat="44.15118" lon="7.24942">
        <ele>2398.8000488281</ele>
        <time>2019-02-10T10:24:59.000Z</time>
      </trkpt>
      <trkpt lat="44.15118" lon="7.24944">
        <ele>2399.1999511719</ele>
        <time>2019-02-10T10:25:06.000Z</time>
      </trkpt>
      <trkpt lat="44.15118" lon="7.24944">
        <ele>2399.1999511719</ele>
        <time>2019-02-10T10:25:10.000Z</time>
      </trkpt>
      <trkpt lat="44.15118" lon="7.24943">
        <ele>2399.3999023438</ele>
        <time>2019-02-10T10:25:12.000Z</time>
      </trkpt>
      <trkpt lat="44.15119" lon="7.2494">
        <ele>2399.8000488281</ele>
        <time>2019-02-10T10:25:17.000Z</time>
      </trkpt>
      <trkpt lat="44.15119" lon="7.24939">
        <ele>2400</ele>
        <time>2019-02-10T10:25:20.000Z</time>
      </trkpt>
      <trkpt lat="44.15118" lon="7.24939">
        <ele>2400</ele>
        <time>2019-02-10T10:25:21.000Z</time>
      </trkpt>
      <trkpt lat="44.1512" lon="7.24938">
        <ele>2398.8000488281</ele>
        <time>2019-02-10T10:25:36.000Z</time>
      </trkpt>
      <trkpt lat="44.15121" lon="7.24943">
        <ele>2399</ele>
        <time>2019-02-10T10:25:40.000Z</time>
      </trkpt>
      <trkpt lat="44.15122" lon="7.24944">
        <ele>2399.3999023438</ele>
        <time>2019-02-10T10:25:42.000Z</time>
      </trkpt>
      <trkpt lat="44.15123" lon="7.24946">
        <ele>2400</ele>
        <time>2019-02-10T10:25:44.000Z</time>
      </trkpt>
      <trkpt lat="44.15127" lon="7.24949">
        <ele>2400.6000976562</ele>
        <time>2019-02-10T10:25:49.000Z</time>
      </trkpt>
      <trkpt lat="44.15128" lon="7.24949">
        <ele>2400.8000488281</ele>
        <time>2019-02-10T10:25:51.000Z</time>
      </trkpt>
      <trkpt lat="44.15128" lon="7.2495">
        <ele>2401</ele>
        <time>2019-02-10T10:25:52.000Z</time>
      </trkpt>
      <trkpt lat="44.15131" lon="7.24954">
        <ele>2402</ele>
        <time>2019-02-10T10:25:59.000Z</time>
      </trkpt>
      <trkpt lat="44.15134" lon="7.24956">
        <ele>2403.1999511719</ele>
        <time>2019-02-10T10:26:04.000Z</time>
      </trkpt>
      <trkpt lat="44.15135" lon="7.24957">
        <ele>2403.3999023438</ele>
        <time>2019-02-10T10:26:06.000Z</time>
      </trkpt>
      <trkpt lat="44.15136" lon="7.24958">
        <ele>2403.6000976562</ele>
        <time>2019-02-10T10:26:08.000Z</time>
      </trkpt>
      <trkpt lat="44.15135" lon="7.24959">
        <ele>2404.1999511719</ele>
        <time>2019-02-10T10:26:11.000Z</time>
      </trkpt>
      <trkpt lat="44.15127" lon="7.24967">
        <ele>2405.1999511719</ele>
        <time>2019-02-10T10:26:33.000Z</time>
      </trkpt>
      <trkpt lat="44.15125" lon="7.24969">
        <ele>2405.8000488281</ele>
        <time>2019-02-10T10:26:37.000Z</time>
      </trkpt>
      <trkpt lat="44.15123" lon="7.24971">
        <ele>2406.3999023438</ele>
        <time>2019-02-10T10:26:40.000Z</time>
      </trkpt>
      <trkpt lat="44.15121" lon="7.24973">
        <ele>2407.3999023438</ele>
        <time>2019-02-10T10:26:44.000Z</time>
      </trkpt>
      <trkpt lat="44.15119" lon="7.24976">
        <ele>2408.1999511719</ele>
        <time>2019-02-10T10:26:48.000Z</time>
      </trkpt>
      <trkpt lat="44.15118" lon="7.24976">
        <ele>2408.6000976562</ele>
        <time>2019-02-10T10:26:49.000Z</time>
      </trkpt>
      <trkpt lat="44.15117" lon="7.24977">
        <ele>2408.6000976562</ele>
        <time>2019-02-10T10:26:50.000Z</time>
      </trkpt>
      <trkpt lat="44.15116" lon="7.24978">
        <ele>2409</ele>
        <time>2019-02-10T10:26:52.000Z</time>
      </trkpt>
      <trkpt lat="44.15115" lon="7.24978">
        <ele>2409.3999023438</ele>
        <time>2019-02-10T10:26:54.000Z</time>
      </trkpt>
      <trkpt lat="44.15116" lon="7.24978">
        <ele>2409.6000976562</ele>
        <time>2019-02-10T10:26:57.000Z</time>
      </trkpt>
      <trkpt lat="44.15122" lon="7.24978">
        <ele>2410</ele>
        <time>2019-02-10T10:27:23.000Z</time>
      </trkpt>
      <trkpt lat="44.15123" lon="7.24979">
        <ele>2410.8000488281</ele>
        <time>2019-02-10T10:27:27.000Z</time>
      </trkpt>
      <trkpt lat="44.15126" lon="7.24981">
        <ele>2411.8000488281</ele>
        <time>2019-02-10T10:27:35.000Z</time>
      </trkpt>
      <trkpt lat="44.15128" lon="7.24983">
        <ele>2413</ele>
        <time>2019-02-10T10:27:41.000Z</time>
      </trkpt>
      <trkpt lat="44.1513" lon="7.24985">
        <ele>2414.1999511719</ele>
        <time>2019-02-10T10:27:45.000Z</time>
      </trkpt>
      <trkpt lat="44.15132" lon="7.24986">
        <ele>2415.3999023438</ele>
        <time>2019-02-10T10:27:51.000Z</time>
      </trkpt>
      <trkpt lat="44.15136" lon="7.24989">
        <ele>2416.6000976562</ele>
        <time>2019-02-10T10:28:01.000Z</time>
      </trkpt>
      <trkpt lat="44.15139" lon="7.2499">
        <ele>2417.6000976562</ele>
        <time>2019-02-10T10:28:08.000Z</time>
      </trkpt>
      <trkpt lat="44.15141" lon="7.24991">
        <ele>2418.6000976562</ele>
        <time>2019-02-10T10:28:13.000Z</time>
      </trkpt>
      <trkpt lat="44.15143" lon="7.24994">
        <ele>2419.8000488281</ele>
        <time>2019-02-10T10:28:19.000Z</time>
      </trkpt>
      <trkpt lat="44.15144" lon="7.24999">
        <ele>2420.8000488281</ele>
        <time>2019-02-10T10:28:25.000Z</time>
      </trkpt>
      <trkpt lat="44.15145" lon="7.25003">
        <ele>2422</ele>
        <time>2019-02-10T10:28:30.000Z</time>
      </trkpt>
      <trkpt lat="44.15145" lon="7.25007">
        <ele>2423</ele>
        <time>2019-02-10T10:28:35.000Z</time>
      </trkpt>
      <trkpt lat="44.15145" lon="7.2501">
        <ele>2424.1999511719</ele>
        <time>2019-02-10T10:28:40.000Z</time>
      </trkpt>
      <trkpt lat="44.15142" lon="7.25015">
        <ele>2425.1999511719</ele>
        <time>2019-02-10T10:28:47.000Z</time>
      </trkpt>
      <trkpt lat="44.15139" lon="7.25018">
        <ele>2426.3999023438</ele>
        <time>2019-02-10T10:28:52.000Z</time>
      </trkpt>
      <trkpt lat="44.15137" lon="7.25021">
        <ele>2427.3999023438</ele>
        <time>2019-02-10T10:28:56.000Z</time>
      </trkpt>
      <trkpt lat="44.15136" lon="7.25024">
        <ele>2428.6000976562</ele>
        <time>2019-02-10T10:29:01.000Z</time>
      </trkpt>
      <trkpt lat="44.15132" lon="7.25028">
        <ele>2429.6000976562</ele>
        <time>2019-02-10T10:29:07.000Z</time>
      </trkpt>
      <trkpt lat="44.1513" lon="7.25032">
        <ele>2430.8000488281</ele>
        <time>2019-02-10T10:29:11.000Z</time>
      </trkpt>
      <trkpt lat="44.15126" lon="7.25038">
        <ele>2432</ele>
        <time>2019-02-10T10:29:19.000Z</time>
      </trkpt>
      <trkpt lat="44.15124" lon="7.2504">
        <ele>2433</ele>
        <time>2019-02-10T10:29:26.000Z</time>
      </trkpt>
      <trkpt lat="44.1512" lon="7.25042">
        <ele>2433</ele>
        <time>2019-02-10T10:29:32.000Z</time>
      </trkpt>
      <trkpt lat="44.1512" lon="7.25044">
        <ele>2433.1999511719</ele>
        <time>2019-02-10T10:29:45.000Z</time>
      </trkpt>
      <trkpt lat="44.15121" lon="7.25044">
        <ele>2433.1999511719</ele>
        <time>2019-02-10T10:29:48.000Z</time>
      </trkpt>
      <trkpt lat="44.15122" lon="7.25042">
        <ele>2433</ele>
        <time>2019-02-10T10:29:52.000Z</time>
      </trkpt>
      <trkpt lat="44.15123" lon="7.25043">
        <ele>2433.1999511719</ele>
        <time>2019-02-10T10:29:59.000Z</time>
      </trkpt>
      <trkpt lat="44.15122" lon="7.25045">
        <ele>2433.1999511719</ele>
        <time>2019-02-10T10:30:01.000Z</time>
      </trkpt>
      <trkpt lat="44.1512" lon="7.25046">
        <ele>2433.1999511719</ele>
        <time>2019-02-10T10:30:03.000Z</time>
      </trkpt>
      <trkpt lat="44.1512" lon="7.25046">
        <ele>2433.1999511719</ele>
        <time>2019-02-10T10:30:08.000Z</time>
      </trkpt>
      <trkpt lat="44.1512" lon="7.25045">
        <ele>2433.1999511719</ele>
        <time>2019-02-10T10:30:13.000Z</time>
      </trkpt>
      <trkpt lat="44.15119" lon="7.25044">
        <ele>2433.1999511719</ele>
        <time>2019-02-10T10:30:26.000Z</time>
      </trkpt>
      <trkpt lat="44.15118" lon="7.25044">
        <ele>2433.1999511719</ele>
        <time>2019-02-10T10:30:35.000Z</time>
      </trkpt>
      <trkpt lat="44.15121" lon="7.25041">
        <ele>2433.1999511719</ele>
        <time>2019-02-10T10:30:41.000Z</time>
      </trkpt>
      <trkpt lat="44.15122" lon="7.2504">
        <ele>2433</ele>
        <time>2019-02-10T10:30:43.000Z</time>
      </trkpt>
      <trkpt lat="44.15122" lon="7.25037">
        <ele>2432.8000488281</ele>
        <time>2019-02-10T10:30:46.000Z</time>
      </trkpt>
      <trkpt lat="44.15123" lon="7.25035">
        <ele>2432.8000488281</ele>
        <time>2019-02-10T10:30:48.000Z</time>
      </trkpt>
      <trkpt lat="44.15125" lon="7.25034">
        <ele>2432.8000488281</ele>
        <time>2019-02-10T10:30:51.000Z</time>
      </trkpt>
      <trkpt lat="44.15128" lon="7.25034">
        <ele>2432.6000976562</ele>
        <time>2019-02-10T10:30:56.000Z</time>
      </trkpt>
      <trkpt lat="44.15131" lon="7.25036">
        <ele>2432.6000976562</ele>
        <time>2019-02-10T10:31:00.000Z</time>
      </trkpt>
      <trkpt lat="44.15128" lon="7.25038">
        <ele>2434</ele>
        <time>2019-02-10T10:31:08.000Z</time>
      </trkpt>
      <trkpt lat="44.15127" lon="7.25039">
        <ele>2433.8000488281</ele>
        <time>2019-02-10T10:31:10.000Z</time>
      </trkpt>
      <trkpt lat="44.15124" lon="7.2504">
        <ele>2432.8000488281</ele>
        <time>2019-02-10T10:31:15.000Z</time>
      </trkpt>
      <trkpt lat="44.15124" lon="7.2504">
        <ele>2432.8000488281</ele>
        <time>2019-02-10T10:31:16.000Z</time>
      </trkpt>
      <trkpt lat="44.15124" lon="7.2504">
        <ele>2433.3999023438</ele>
        <time>2019-02-10T10:31:20.000Z</time>
      </trkpt>
      <trkpt lat="44.15124" lon="7.2504">
        <ele>2433.8000488281</ele>
        <time>2019-02-10T10:31:22.000Z</time>
      </trkpt>
      <trkpt lat="44.15125" lon="7.2504">
        <ele>2434</ele>
        <time>2019-02-10T10:31:23.000Z</time>
      </trkpt>
      <trkpt lat="44.15127" lon="7.25041">
        <ele>2433.3999023438</ele>
        <time>2019-02-10T10:31:35.000Z</time>
      </trkpt>
      <trkpt lat="44.15128" lon="7.25041">
        <ele>2433.6000976562</ele>
        <time>2019-02-10T10:31:40.000Z</time>
      </trkpt>
      <trkpt lat="44.15128" lon="7.25041">
        <ele>2433.3999023438</ele>
        <time>2019-02-10T10:31:41.000Z</time>
      </trkpt>
      <trkpt lat="44.15128" lon="7.25041">
        <ele>2433.1999511719</ele>
        <time>2019-02-10T10:31:44.000Z</time>
      </trkpt>
      <trkpt lat="44.15128" lon="7.25042">
        <ele>2433</ele>
        <time>2019-02-10T10:31:46.000Z</time>
      </trkpt>
      <trkpt lat="44.15128" lon="7.25043">
        <ele>2433.1999511719</ele>
        <time>2019-02-10T10:31:49.000Z</time>
      </trkpt>
      <trkpt lat="44.15127" lon="7.25044">
        <ele>2433</ele>
        <time>2019-02-10T10:31:50.000Z</time>
      </trkpt>
      <trkpt lat="44.15126" lon="7.25046">
        <ele>2433.1999511719</ele>
        <time>2019-02-10T10:31:52.000Z</time>
      </trkpt>
      <trkpt lat="44.15126" lon="7.25048">
        <ele>2433.6000976562</ele>
        <time>2019-02-10T10:31:54.000Z</time>
      </trkpt>
      <trkpt lat="44.15126" lon="7.25048">
        <ele>2433.8000488281</ele>
        <time>2019-02-10T10:31:55.000Z</time>
      </trkpt>
      <trkpt lat="44.15126" lon="7.25049">
        <ele>2434</ele>
        <time>2019-02-10T10:31:57.000Z</time>
      </trkpt>
      <trkpt lat="44.15125" lon="7.25051">
        <ele>2434.3999023438</ele>
        <time>2019-02-10T10:31:59.000Z</time>
      </trkpt>
      <trkpt lat="44.15124" lon="7.25052">
        <ele>2434.3999023438</ele>
        <time>2019-02-10T10:32:01.000Z</time>
      </trkpt>
      <trkpt lat="44.15124" lon="7.25054">
        <ele>2434.6000976562</ele>
        <time>2019-02-10T10:32:04.000Z</time>
      </trkpt>
      <trkpt lat="44.15122" lon="7.25057">
        <ele>2434.8000488281</ele>
        <time>2019-02-10T10:32:06.000Z</time>
      </trkpt>
      <trkpt lat="44.15121" lon="7.25059">
        <ele>2435</ele>
        <time>2019-02-10T10:32:08.000Z</time>
      </trkpt>
      <trkpt lat="44.15121" lon="7.25059">
        <ele>2435.1999511719</ele>
        <time>2019-02-10T10:32:10.000Z</time>
      </trkpt>
      <trkpt lat="44.1512" lon="7.25063">
        <ele>2436</ele>
        <time>2019-02-10T10:32:14.000Z</time>
      </trkpt>
      <trkpt lat="44.15118" lon="7.25063">
        <ele>2436.1999511719</ele>
        <time>2019-02-10T10:32:18.000Z</time>
      </trkpt>
      <trkpt lat="44.15117" lon="7.25065">
        <ele>2436.1999511719</ele>
        <time>2019-02-10T10:32:21.000Z</time>
      </trkpt>
      <trkpt lat="44.15113" lon="7.25072">
        <ele>2437</ele>
        <time>2019-02-10T10:32:31.000Z</time>
      </trkpt>
      <trkpt lat="44.1511" lon="7.25076">
        <ele>2437.1999511719</ele>
        <time>2019-02-10T10:32:36.000Z</time>
      </trkpt>
      <trkpt lat="44.15101" lon="7.2509">
        <ele>2437.3999023438</ele>
        <time>2019-02-10T10:32:58.000Z</time>
      </trkpt>
      <trkpt lat="44.15092" lon="7.25106">
        <ele>2437.8000488281</ele>
        <time>2019-02-10T10:33:17.000Z</time>
      </trkpt>
      <trkpt lat="44.1509" lon="7.2511">
        <ele>2437.8000488281</ele>
        <time>2019-02-10T10:33:21.000Z</time>
      </trkpt>
      <trkpt lat="44.15089" lon="7.25114">
        <ele>2438.1999511719</ele>
        <time>2019-02-10T10:33:26.000Z</time>
      </trkpt>
      <trkpt lat="44.15084" lon="7.25117">
        <ele>2439.1999511719</ele>
        <time>2019-02-10T10:33:34.000Z</time>
      </trkpt>
      <trkpt lat="44.15078" lon="7.25126">
        <ele>2439.8000488281</ele>
        <time>2019-02-10T10:33:43.000Z</time>
      </trkpt>
      <trkpt lat="44.15076" lon="7.25129">
        <ele>2440</ele>
        <time>2019-02-10T10:33:47.000Z</time>
      </trkpt>
      <trkpt lat="44.15079" lon="7.25131">
        <ele>2440.1999511719</ele>
        <time>2019-02-10T10:33:55.000Z</time>
      </trkpt>
      <trkpt lat="44.1507" lon="7.25142">
        <ele>2441</ele>
        <time>2019-02-10T10:34:08.000Z</time>
      </trkpt>
      <trkpt lat="44.15066" lon="7.25152">
        <ele>2441.1999511719</ele>
        <time>2019-02-10T10:34:19.000Z</time>
      </trkpt>
      <trkpt lat="44.15064" lon="7.25168">
        <ele>2442</ele>
        <time>2019-02-10T10:34:39.000Z</time>
      </trkpt>
      <trkpt lat="44.15065" lon="7.25177">
        <ele>2441.8000488281</ele>
        <time>2019-02-10T10:34:52.000Z</time>
      </trkpt>
      <trkpt lat="44.15064" lon="7.25183">
        <ele>2441.8000488281</ele>
        <time>2019-02-10T10:35:00.000Z</time>
      </trkpt>
      <trkpt lat="44.15066" lon="7.25188">
        <ele>2441.6000976562</ele>
        <time>2019-02-10T10:35:07.000Z</time>
      </trkpt>
      <trkpt lat="44.15062" lon="7.252">
        <ele>2441.6000976562</ele>
        <time>2019-02-10T10:35:23.000Z</time>
      </trkpt>
      <trkpt lat="44.15062" lon="7.25204">
        <ele>2442</ele>
        <time>2019-02-10T10:35:28.000Z</time>
      </trkpt>
      <trkpt lat="44.15062" lon="7.25207">
        <ele>2442.1999511719</ele>
        <time>2019-02-10T10:35:32.000Z</time>
      </trkpt>
      <trkpt lat="44.15061" lon="7.25215">
        <ele>2443.1999511719</ele>
        <time>2019-02-10T10:35:42.000Z</time>
      </trkpt>
      <trkpt lat="44.15061" lon="7.2522">
        <ele>2443.1999511719</ele>
        <time>2019-02-10T10:35:46.000Z</time>
      </trkpt>
      <trkpt lat="44.15061" lon="7.25241">
        <ele>2443.6000976562</ele>
        <time>2019-02-10T10:36:11.000Z</time>
      </trkpt>
      <trkpt lat="44.15059" lon="7.25251">
        <ele>2442.8000488281</ele>
        <time>2019-02-10T10:36:25.000Z</time>
      </trkpt>
      <trkpt lat="44.15058" lon="7.25256">
        <ele>2442.1999511719</ele>
        <time>2019-02-10T10:36:31.000Z</time>
      </trkpt>
      <trkpt lat="44.15055" lon="7.2527">
        <ele>2441</ele>
        <time>2019-02-10T10:36:36.000Z</time>
      </trkpt>
      <trkpt lat="44.15051" lon="7.25282">
        <ele>2439.8000488281</ele>
        <time>2019-02-10T10:36:39.000Z</time>
      </trkpt>
      <trkpt lat="44.15048" lon="7.2529">
        <ele>2438.1999511719</ele>
        <time>2019-02-10T10:36:42.000Z</time>
      </trkpt>
      <trkpt lat="44.15046" lon="7.25295">
        <ele>2437</ele>
        <time>2019-02-10T10:36:45.000Z</time>
      </trkpt>
      <trkpt lat="44.15045" lon="7.25297">
        <ele>2436.8000488281</ele>
        <time>2019-02-10T10:36:47.000Z</time>
      </trkpt>
      <trkpt lat="44.15042" lon="7.25302">
        <ele>2436</ele>
        <time>2019-02-10T10:36:52.000Z</time>
      </trkpt>
      <trkpt lat="44.15042" lon="7.25302">
        <ele>2436</ele>
        <time>2019-02-10T10:36:53.000Z</time>
      </trkpt>
      <trkpt lat="44.15039" lon="7.25304">
        <ele>2436</ele>
        <time>2019-02-10T10:36:56.000Z</time>
      </trkpt>
      <trkpt lat="44.15037" lon="7.25309">
        <ele>2436</ele>
        <time>2019-02-10T10:37:01.000Z</time>
      </trkpt>
      <trkpt lat="44.15035" lon="7.25313">
        <ele>2436.6000976562</ele>
        <time>2019-02-10T10:37:06.000Z</time>
      </trkpt>
      <trkpt lat="44.15034" lon="7.25314">
        <ele>2436.6000976562</ele>
        <time>2019-02-10T10:37:07.000Z</time>
      </trkpt>
      <trkpt lat="44.15034" lon="7.25317">
        <ele>2437</ele>
        <time>2019-02-10T10:37:10.000Z</time>
      </trkpt>
      <trkpt lat="44.15034" lon="7.25323">
        <ele>2437.1999511719</ele>
        <time>2019-02-10T10:37:17.000Z</time>
      </trkpt>
      <trkpt lat="44.15032" lon="7.25329">
        <ele>2437.1999511719</ele>
        <time>2019-02-10T10:37:23.000Z</time>
      </trkpt>
      <trkpt lat="44.15031" lon="7.25347">
        <ele>2437</ele>
        <time>2019-02-10T10:37:42.000Z</time>
      </trkpt>
      <trkpt lat="44.1503" lon="7.25363">
        <ele>2437.1999511719</ele>
        <time>2019-02-10T10:37:55.000Z</time>
      </trkpt>
      <trkpt lat="44.15028" lon="7.25375">
        <ele>2437.3999023438</ele>
        <time>2019-02-10T10:38:06.000Z</time>
      </trkpt>
      <trkpt lat="44.15027" lon="7.25379">
        <ele>2437.3999023438</ele>
        <time>2019-02-10T10:38:09.000Z</time>
      </trkpt>
      <trkpt lat="44.15027" lon="7.25385">
        <ele>2437.1999511719</ele>
        <time>2019-02-10T10:38:13.000Z</time>
      </trkpt>
      <trkpt lat="44.15027" lon="7.25392">
        <ele>2436.6000976562</ele>
        <time>2019-02-10T10:38:18.000Z</time>
      </trkpt>
      <trkpt lat="44.15027" lon="7.25396">
        <ele>2436.1999511719</ele>
        <time>2019-02-10T10:38:22.000Z</time>
      </trkpt>
      <trkpt lat="44.15027" lon="7.25397">
        <ele>2435.8000488281</ele>
        <time>2019-02-10T10:38:23.000Z</time>
      </trkpt>
      <trkpt lat="44.15027" lon="7.25402">
        <ele>2436</ele>
        <time>2019-02-10T10:38:33.000Z</time>
      </trkpt>
      <trkpt lat="44.15029" lon="7.25401">
        <ele>2436.1999511719</ele>
        <time>2019-02-10T10:38:39.000Z</time>
      </trkpt>
      <trkpt lat="44.15018" lon="7.25403">
        <ele>2436.1999511719</ele>
        <time>2019-02-10T10:38:46.000Z</time>
      </trkpt>
      <trkpt lat="44.15018" lon="7.25404">
        <ele>2436.1999511719</ele>
        <time>2019-02-10T10:38:50.000Z</time>
      </trkpt>
      <trkpt lat="44.1502" lon="7.25404">
        <ele>2436.1999511719</ele>
        <time>2019-02-10T10:38:53.000Z</time>
      </trkpt>
      <trkpt lat="44.15021" lon="7.25404">
        <ele>2436.1999511719</ele>
        <time>2019-02-10T10:38:54.000Z</time>
      </trkpt>
      <trkpt lat="44.15023" lon="7.25404">
        <ele>2436.1999511719</ele>
        <time>2019-02-10T10:38:55.000Z</time>
      </trkpt>
      <trkpt lat="44.15025" lon="7.25403">
        <ele>2436.1999511719</ele>
        <time>2019-02-10T10:38:57.000Z</time>
      </trkpt>
      <trkpt lat="44.15026" lon="7.25404">
        <ele>2436.1999511719</ele>
        <time>2019-02-10T10:39:01.000Z</time>
      </trkpt>
      <trkpt lat="44.15026" lon="7.25404">
        <ele>2436.1999511719</ele>
        <time>2019-02-10T10:39:02.000Z</time>
      </trkpt>
      <trkpt lat="44.15026" lon="7.25404">
        <ele>2436</ele>
        <time>2019-02-10T10:39:04.000Z</time>
      </trkpt>
      <trkpt lat="44.15027" lon="7.25404">
        <ele>2435.6000976562</ele>
        <time>2019-02-10T10:39:10.000Z</time>
      </trkpt>
      <trkpt lat="44.15028" lon="7.25405">
        <ele>2435.3999023438</ele>
        <time>2019-02-10T10:39:12.000Z</time>
      </trkpt>
      <trkpt lat="44.15028" lon="7.25405">
        <ele>2435.1999511719</ele>
        <time>2019-02-10T10:39:14.000Z</time>
      </trkpt>
      <trkpt lat="44.15028" lon="7.25405">
        <ele>2435.1999511719</ele>
        <time>2019-02-10T10:39:15.000Z</time>
      </trkpt>
      <trkpt lat="44.15028" lon="7.25405">
        <ele>2435</ele>
        <time>2019-02-10T10:39:16.000Z</time>
      </trkpt>
      <trkpt lat="44.15027" lon="7.25405">
        <ele>2435</ele>
        <time>2019-02-10T10:39:17.000Z</time>
      </trkpt>
      <trkpt lat="44.15027" lon="7.25405">
        <ele>2435</ele>
        <time>2019-02-10T10:39:20.000Z</time>
      </trkpt>
      <trkpt lat="44.15027" lon="7.25405">
        <ele>2435.3999023438</ele>
        <time>2019-02-10T10:39:22.000Z</time>
      </trkpt>
      <trkpt lat="44.15026" lon="7.25404">
        <ele>2435.6000976562</ele>
        <time>2019-02-10T10:39:26.000Z</time>
      </trkpt>
      <trkpt lat="44.15026" lon="7.25404">
        <ele>2435.6000976562</ele>
        <time>2019-02-10T10:39:27.000Z</time>
      </trkpt>
      <trkpt lat="44.15026" lon="7.25405">
        <ele>2435.6000976562</ele>
        <time>2019-02-10T10:39:28.000Z</time>
      </trkpt>
      <trkpt lat="44.15025" lon="7.25405">
        <ele>2435.3999023438</ele>
        <time>2019-02-10T10:39:30.000Z</time>
      </trkpt>
      <trkpt lat="44.15024" lon="7.25405">
        <ele>2435.3999023438</ele>
        <time>2019-02-10T10:39:31.000Z</time>
      </trkpt>
      <trkpt lat="44.15023" lon="7.25404">
        <ele>2435.1999511719</ele>
        <time>2019-02-10T10:39:40.000Z</time>
      </trkpt>
      <trkpt lat="44.15023" lon="7.25404">
        <ele>2435.1999511719</ele>
        <time>2019-02-10T10:39:41.000Z</time>
      </trkpt>
      <trkpt lat="44.15023" lon="7.25404">
        <ele>2435.3999023438</ele>
        <time>2019-02-10T10:39:53.000Z</time>
      </trkpt>
      <trkpt lat="44.15023" lon="7.25404">
        <ele>2435.3999023438</ele>
        <time>2019-02-10T10:39:55.000Z</time>
      </trkpt>
      <trkpt lat="44.15024" lon="7.25403">
        <ele>2435.1999511719</ele>
        <time>2019-02-10T10:39:57.000Z</time>
      </trkpt>
      <trkpt lat="44.15024" lon="7.25403">
        <ele>2435.1999511719</ele>
        <time>2019-02-10T10:39:58.000Z</time>
      </trkpt>
      <trkpt lat="44.15026" lon="7.25403">
        <ele>2435.1999511719</ele>
        <time>2019-02-10T10:40:01.000Z</time>
      </trkpt>
      <trkpt lat="44.15026" lon="7.25404">
        <ele>2435.1999511719</ele>
        <time>2019-02-10T10:40:03.000Z</time>
      </trkpt>
      <trkpt lat="44.15026" lon="7.25404">
        <ele>2435.6000976562</ele>
        <time>2019-02-10T10:40:08.000Z</time>
      </trkpt>
      <trkpt lat="44.15025" lon="7.25404">
        <ele>2436</ele>
        <time>2019-02-10T10:40:12.000Z</time>
      </trkpt>
      <trkpt lat="44.15025" lon="7.25404">
        <ele>2436</ele>
        <time>2019-02-10T10:40:14.000Z</time>
      </trkpt>
      <trkpt lat="44.15025" lon="7.25404">
        <ele>2436</ele>
        <time>2019-02-10T10:40:15.000Z</time>
      </trkpt>
      <trkpt lat="44.15025" lon="7.25404">
        <ele>2436</ele>
        <time>2019-02-10T10:40:16.000Z</time>
      </trkpt>
      <trkpt lat="44.15025" lon="7.25404">
        <ele>2436</ele>
        <time>2019-02-10T10:40:19.000Z</time>
      </trkpt>
      <trkpt lat="44.15025" lon="7.25404">
        <ele>2435.8000488281</ele>
        <time>2019-02-10T10:40:21.000Z</time>
      </trkpt>
      <trkpt lat="44.15026" lon="7.25405">
        <ele>2435.6000976562</ele>
        <time>2019-02-10T10:40:26.000Z</time>
      </trkpt>
      <trkpt lat="44.15024" lon="7.25405">
        <ele>2435.8000488281</ele>
        <time>2019-02-10T10:40:30.000Z</time>
      </trkpt>
      <trkpt lat="44.15023" lon="7.25404">
        <ele>2435.6000976562</ele>
        <time>2019-02-10T10:40:35.000Z</time>
      </trkpt>
      <trkpt lat="44.15024" lon="7.25404">
        <ele>2435.8000488281</ele>
        <time>2019-02-10T10:40:37.000Z</time>
      </trkpt>
      <trkpt lat="44.15024" lon="7.25404">
        <ele>2435.3999023438</ele>
        <time>2019-02-10T10:40:40.000Z</time>
      </trkpt>
      <trkpt lat="44.15025" lon="7.25402">
        <ele>2434.8000488281</ele>
        <time>2019-02-10T10:40:48.000Z</time>
      </trkpt>
      <trkpt lat="44.15025" lon="7.25403">
        <ele>2434.6000976562</ele>
        <time>2019-02-10T10:40:52.000Z</time>
      </trkpt>
      <trkpt lat="44.15025" lon="7.25404">
        <ele>2434.6000976562</ele>
        <time>2019-02-10T10:40:55.000Z</time>
      </trkpt>
      <trkpt lat="44.15024" lon="7.25404">
        <ele>2434.6000976562</ele>
        <time>2019-02-10T10:41:07.000Z</time>
      </trkpt>
      <trkpt lat="44.15025" lon="7.25403">
        <ele>2434.3999023438</ele>
        <time>2019-02-10T10:41:09.000Z</time>
      </trkpt>
      <trkpt lat="44.15025" lon="7.25403">
        <ele>2434.6000976562</ele>
        <time>2019-02-10T10:41:11.000Z</time>
      </trkpt>
      <trkpt lat="44.15025" lon="7.25403">
        <ele>2434.6000976562</ele>
        <time>2019-02-10T10:41:14.000Z</time>
      </trkpt>
      <trkpt lat="44.15025" lon="7.25403">
        <ele>2434.3999023438</ele>
        <time>2019-02-10T10:41:16.000Z</time>
      </trkpt>
      <trkpt lat="44.15025" lon="7.25402">
        <ele>2434.3999023438</ele>
        <time>2019-02-10T10:41:17.000Z</time>
      </trkpt>
      <trkpt lat="44.15026" lon="7.25402">
        <ele>2434.3999023438</ele>
        <time>2019-02-10T10:41:20.000Z</time>
      </trkpt>
      <trkpt lat="44.15026" lon="7.25402">
        <ele>2434.6000976562</ele>
        <time>2019-02-10T10:41:24.000Z</time>
      </trkpt>
      <trkpt lat="44.15025" lon="7.25402">
        <ele>2434.6000976562</ele>
        <time>2019-02-10T10:41:25.000Z</time>
      </trkpt>
      <trkpt lat="44.15025" lon="7.25402">
        <ele>2434.6000976562</ele>
        <time>2019-02-10T10:41:26.000Z</time>
      </trkpt>
      <trkpt lat="44.15025" lon="7.25402">
        <ele>2434.6000976562</ele>
        <time>2019-02-10T10:41:27.000Z</time>
      </trkpt>
      <trkpt lat="44.15024" lon="7.25403">
        <ele>2434.6000976562</ele>
        <time>2019-02-10T10:41:30.000Z</time>
      </trkpt>
      <trkpt lat="44.15024" lon="7.25401">
        <ele>2434.6000976562</ele>
        <time>2019-02-10T10:41:40.000Z</time>
      </trkpt>
      <trkpt lat="44.15023" lon="7.25403">
        <ele>2434.3999023438</ele>
        <time>2019-02-10T10:41:47.000Z</time>
      </trkpt>
      <trkpt lat="44.15023" lon="7.25403">
        <ele>2434.3999023438</ele>
        <time>2019-02-10T10:41:48.000Z</time>
      </trkpt>
      <trkpt lat="44.15022" lon="7.25403">
        <ele>2434.3999023438</ele>
        <time>2019-02-10T10:41:49.000Z</time>
      </trkpt>
      <trkpt lat="44.15021" lon="7.25403">
        <ele>2434.3999023438</ele>
        <time>2019-02-10T10:41:52.000Z</time>
      </trkpt>
      <trkpt lat="44.15021" lon="7.25403">
        <ele>2434.3999023438</ele>
        <time>2019-02-10T10:41:54.000Z</time>
      </trkpt>
      <trkpt lat="44.15021" lon="7.25403">
        <ele>2434.1999511719</ele>
        <time>2019-02-10T10:41:55.000Z</time>
      </trkpt>
      <trkpt lat="44.15021" lon="7.25403">
        <ele>2434.1999511719</ele>
        <time>2019-02-10T10:41:56.000Z</time>
      </trkpt>
      <trkpt lat="44.15021" lon="7.25403">
        <ele>2434.1999511719</ele>
        <time>2019-02-10T10:41:58.000Z</time>
      </trkpt>
      <trkpt lat="44.15021" lon="7.25403">
        <ele>2434.3999023438</ele>
        <time>2019-02-10T10:42:03.000Z</time>
      </trkpt>
      <trkpt lat="44.15021" lon="7.25403">
        <ele>2434.6000976562</ele>
        <time>2019-02-10T10:42:05.000Z</time>
      </trkpt>
      <trkpt lat="44.15021" lon="7.25403">
        <ele>2434.8000488281</ele>
        <time>2019-02-10T10:42:06.000Z</time>
      </trkpt>
      <trkpt lat="44.15021" lon="7.25403">
        <ele>2435</ele>
        <time>2019-02-10T10:42:10.000Z</time>
      </trkpt>
      <trkpt lat="44.15021" lon="7.25403">
        <ele>2434.6000976562</ele>
        <time>2019-02-10T10:42:13.000Z</time>
      </trkpt>
      <trkpt lat="44.15022" lon="7.25403">
        <ele>2434.3999023438</ele>
        <time>2019-02-10T10:42:19.000Z</time>
      </trkpt>
      <trkpt lat="44.15022" lon="7.25403">
        <ele>2434.1999511719</ele>
        <time>2019-02-10T10:42:20.000Z</time>
      </trkpt>
      <trkpt lat="44.15022" lon="7.25403">
        <ele>2434.1999511719</ele>
        <time>2019-02-10T10:42:21.000Z</time>
      </trkpt>
      <trkpt lat="44.15022" lon="7.25403">
        <ele>2434.1999511719</ele>
        <time>2019-02-10T10:42:28.000Z</time>
      </trkpt>
      <trkpt lat="44.15022" lon="7.25402">
        <ele>2434.1999511719</ele>
        <time>2019-02-10T10:42:30.000Z</time>
      </trkpt>
      <trkpt lat="44.15025" lon="7.25401">
        <ele>2434.3999023438</ele>
        <time>2019-02-10T10:42:37.000Z</time>
      </trkpt>
      <trkpt lat="44.15026" lon="7.25401">
        <ele>2434.6000976562</ele>
        <time>2019-02-10T10:42:39.000Z</time>
      </trkpt>
      <trkpt lat="44.15026" lon="7.254">
        <ele>2434.8000488281</ele>
        <time>2019-02-10T10:42:41.000Z</time>
      </trkpt>
      <trkpt lat="44.15026" lon="7.254">
        <ele>2435</ele>
        <time>2019-02-10T10:42:42.000Z</time>
      </trkpt>
      <trkpt lat="44.15026" lon="7.25401">
        <ele>2435</ele>
        <time>2019-02-10T10:42:45.000Z</time>
      </trkpt>
      <trkpt lat="44.15026" lon="7.25401">
        <ele>2435</ele>
        <time>2019-02-10T10:42:46.000Z</time>
      </trkpt>
      <trkpt lat="44.15026" lon="7.25401">
        <ele>2434.6000976562</ele>
        <time>2019-02-10T10:42:52.000Z</time>
      </trkpt>
      <trkpt lat="44.15026" lon="7.25401">
        <ele>2434.6000976562</ele>
        <time>2019-02-10T10:42:57.000Z</time>
      </trkpt>
      <trkpt lat="44.15026" lon="7.25401">
        <ele>2435.1999511719</ele>
        <time>2019-02-10T10:43:01.000Z</time>
      </trkpt>
      <trkpt lat="44.15026" lon="7.25401">
        <ele>2435</ele>
        <time>2019-02-10T10:43:03.000Z</time>
      </trkpt>
      <trkpt lat="44.15024" lon="7.25402">
        <ele>2435</ele>
        <time>2019-02-10T10:43:18.000Z</time>
      </trkpt>
      <trkpt lat="44.15024" lon="7.25402">
        <ele>2434.8000488281</ele>
        <time>2019-02-10T10:43:28.000Z</time>
      </trkpt>
      <trkpt lat="44.15024" lon="7.25402">
        <ele>2434.6000976562</ele>
        <time>2019-02-10T10:43:32.000Z</time>
      </trkpt>
      <trkpt lat="44.15024" lon="7.25402">
        <ele>2434.6000976562</ele>
        <time>2019-02-10T10:43:34.000Z</time>
      </trkpt>
      <trkpt lat="44.15024" lon="7.25402">
        <ele>2434.6000976562</ele>
        <time>2019-02-10T10:43:38.000Z</time>
      </trkpt>
      <trkpt lat="44.15023" lon="7.25404">
        <ele>2435.6000976562</ele>
        <time>2019-02-10T10:43:43.000Z</time>
      </trkpt>
      <trkpt lat="44.15022" lon="7.25404">
        <ele>2435.6000976562</ele>
        <time>2019-02-10T10:43:44.000Z</time>
      </trkpt>
      <trkpt lat="44.15022" lon="7.25405">
        <ele>2435.6000976562</ele>
        <time>2019-02-10T10:43:45.000Z</time>
      </trkpt>
      <trkpt lat="44.15022" lon="7.25405">
        <ele>2435.6000976562</ele>
        <time>2019-02-10T10:43:46.000Z</time>
      </trkpt>
      <trkpt lat="44.15023" lon="7.25404">
        <ele>2435.6000976562</ele>
        <time>2019-02-10T10:43:48.000Z</time>
      </trkpt>
      <trkpt lat="44.15024" lon="7.25403">
        <ele>2435.6000976562</ele>
        <time>2019-02-10T10:43:52.000Z</time>
      </trkpt>
      <trkpt lat="44.15024" lon="7.25403">
        <ele>2435.6000976562</ele>
        <time>2019-02-10T10:43:53.000Z</time>
      </trkpt>
      <trkpt lat="44.15024" lon="7.25403">
        <ele>2435.6000976562</ele>
        <time>2019-02-10T10:43:54.000Z</time>
      </trkpt>
      <trkpt lat="44.15024" lon="7.25403">
        <ele>2435.6000976562</ele>
        <time>2019-02-10T10:43:56.000Z</time>
      </trkpt>
      <trkpt lat="44.15024" lon="7.25403">
        <ele>2435.6000976562</ele>
        <time>2019-02-10T10:43:58.000Z</time>
      </trkpt>
      <trkpt lat="44.15024" lon="7.25404">
        <ele>2435.6000976562</ele>
        <time>2019-02-10T10:44:01.000Z</time>
      </trkpt>
      <trkpt lat="44.15024" lon="7.25405">
        <ele>2435.6000976562</ele>
        <time>2019-02-10T10:44:08.000Z</time>
      </trkpt>
      <trkpt lat="44.15024" lon="7.25405">
        <ele>2435.6000976562</ele>
        <time>2019-02-10T10:44:12.000Z</time>
      </trkpt>
      <trkpt lat="44.15024" lon="7.25405">
        <ele>2435.6000976562</ele>
        <time>2019-02-10T10:44:13.000Z</time>
      </trkpt>
      <trkpt lat="44.15024" lon="7.25406">
        <ele>2435.6000976562</ele>
        <time>2019-02-10T10:44:14.000Z</time>
      </trkpt>
      <trkpt lat="44.15024" lon="7.25406">
        <ele>2435.6000976562</ele>
        <time>2019-02-10T10:44:17.000Z</time>
      </trkpt>
      <trkpt lat="44.15024" lon="7.25406">
        <ele>2435.6000976562</ele>
        <time>2019-02-10T10:44:19.000Z</time>
      </trkpt>
      <trkpt lat="44.15023" lon="7.25406">
        <ele>2435.6000976562</ele>
        <time>2019-02-10T10:44:20.000Z</time>
      </trkpt>
      <trkpt lat="44.15023" lon="7.25406">
        <ele>2435.6000976562</ele>
        <time>2019-02-10T10:44:21.000Z</time>
      </trkpt>
      <trkpt lat="44.15023" lon="7.25406">
        <ele>2435.6000976562</ele>
        <time>2019-02-10T10:44:23.000Z</time>
      </trkpt>
      <trkpt lat="44.15023" lon="7.25406">
        <ele>2435.6000976562</ele>
        <time>2019-02-10T10:44:24.000Z</time>
      </trkpt>
      <trkpt lat="44.15023" lon="7.25406">
        <ele>2435.6000976562</ele>
        <time>2019-02-10T10:44:27.000Z</time>
      </trkpt>
      <trkpt lat="44.15023" lon="7.25406">
        <ele>2435.6000976562</ele>
        <time>2019-02-10T10:44:28.000Z</time>
      </trkpt>
      <trkpt lat="44.15023" lon="7.25406">
        <ele>2435.6000976562</ele>
        <time>2019-02-10T10:44:29.000Z</time>
      </trkpt>
      <trkpt lat="44.15023" lon="7.25405">
        <ele>2435.6000976562</ele>
        <time>2019-02-10T10:44:32.000Z</time>
      </trkpt>
      <trkpt lat="44.15023" lon="7.25404">
        <ele>2435.6000976562</ele>
        <time>2019-02-10T10:44:35.000Z</time>
      </trkpt>
      <trkpt lat="44.15023" lon="7.25404">
        <ele>2435.6000976562</ele>
        <time>2019-02-10T10:44:36.000Z</time>
      </trkpt>
      <trkpt lat="44.15023" lon="7.25404">
        <ele>2435.6000976562</ele>
        <time>2019-02-10T10:44:37.000Z</time>
      </trkpt>
      <trkpt lat="44.15023" lon="7.25404">
        <ele>2435.6000976562</ele>
        <time>2019-02-10T10:44:38.000Z</time>
      </trkpt>
      <trkpt lat="44.15023" lon="7.25403">
        <ele>2435.6000976562</ele>
        <time>2019-02-10T10:44:40.000Z</time>
      </trkpt>
      <trkpt lat="44.15023" lon="7.25403">
        <ele>2435.6000976562</ele>
        <time>2019-02-10T10:44:45.000Z</time>
      </trkpt>
      <trkpt lat="44.15023" lon="7.25403">
        <ele>2435.6000976562</ele>
        <time>2019-02-10T10:44:48.000Z</time>
      </trkpt>
      <trkpt lat="44.15023" lon="7.25403">
        <ele>2435.6000976562</ele>
        <time>2019-02-10T10:44:50.000Z</time>
      </trkpt>
      <trkpt lat="44.15022" lon="7.25402">
        <ele>2435.6000976562</ele>
        <time>2019-02-10T10:44:52.000Z</time>
      </trkpt>
      <trkpt lat="44.15022" lon="7.25402">
        <ele>2435.6000976562</ele>
        <time>2019-02-10T10:44:55.000Z</time>
      </trkpt>
      <trkpt lat="44.15022" lon="7.25402">
        <ele>2435.6000976562</ele>
        <time>2019-02-10T10:44:59.000Z</time>
      </trkpt>
      <trkpt lat="44.15022" lon="7.25403">
        <ele>2435.6000976562</ele>
        <time>2019-02-10T10:45:02.000Z</time>
      </trkpt>
      <trkpt lat="44.15022" lon="7.25402">
        <ele>2435.6000976562</ele>
        <time>2019-02-10T10:45:05.000Z</time>
      </trkpt>
      <trkpt lat="44.15023" lon="7.25403">
        <ele>2435.6000976562</ele>
        <time>2019-02-10T10:45:12.000Z</time>
      </trkpt>
      <trkpt lat="44.15023" lon="7.25403">
        <ele>2435.6000976562</ele>
        <time>2019-02-10T10:45:16.000Z</time>
      </trkpt>
      <trkpt lat="44.15023" lon="7.25402">
        <ele>2435.6000976562</ele>
        <time>2019-02-10T10:45:17.000Z</time>
      </trkpt>
      <trkpt lat="44.15023" lon="7.25402">
        <ele>2435.6000976562</ele>
        <time>2019-02-10T10:45:24.000Z</time>
      </trkpt>
      <trkpt lat="44.15023" lon="7.25402">
        <ele>2435.6000976562</ele>
        <time>2019-02-10T10:45:25.000Z</time>
      </trkpt>
      <trkpt lat="44.15023" lon="7.25402">
        <ele>2435.6000976562</ele>
        <time>2019-02-10T10:45:28.000Z</time>
      </trkpt>
      <trkpt lat="44.15023" lon="7.25402">
        <ele>2435.6000976562</ele>
        <time>2019-02-10T10:45:29.000Z</time>
      </trkpt>
      <trkpt lat="44.15023" lon="7.25403">
        <ele>2435.6000976562</ele>
        <time>2019-02-10T10:45:32.000Z</time>
      </trkpt>
      <trkpt lat="44.15023" lon="7.25403">
        <ele>2435.6000976562</ele>
        <time>2019-02-10T10:45:33.000Z</time>
      </trkpt>
      <trkpt lat="44.15023" lon="7.25403">
        <ele>2435.6000976562</ele>
        <time>2019-02-10T10:45:36.000Z</time>
      </trkpt>
      <trkpt lat="44.15023" lon="7.25402">
        <ele>2435.6000976562</ele>
        <time>2019-02-10T10:45:37.000Z</time>
      </trkpt>
      <trkpt lat="44.15023" lon="7.25402">
        <ele>2435.6000976562</ele>
        <time>2019-02-10T10:45:40.000Z</time>
      </trkpt>
      <trkpt lat="44.15023" lon="7.25402">
        <ele>2435.6000976562</ele>
        <time>2019-02-10T10:45:41.000Z</time>
      </trkpt>
      <trkpt lat="44.15023" lon="7.25402">
        <ele>2435.6000976562</ele>
        <time>2019-02-10T10:45:42.000Z</time>
      </trkpt>
      <trkpt lat="44.15023" lon="7.25403">
        <ele>2435.6000976562</ele>
        <time>2019-02-10T10:45:48.000Z</time>
      </trkpt>
      <trkpt lat="44.15023" lon="7.25403">
        <ele>2435.6000976562</ele>
        <time>2019-02-10T10:45:51.000Z</time>
      </trkpt>
      <trkpt lat="44.15023" lon="7.25403">
        <ele>2435.6000976562</ele>
        <time>2019-02-10T10:45:54.000Z</time>
      </trkpt>
      <trkpt lat="44.15023" lon="7.25403">
        <ele>2435.6000976562</ele>
        <time>2019-02-10T10:45:57.000Z</time>
      </trkpt>
      <trkpt lat="44.15023" lon="7.25403">
        <ele>2435.6000976562</ele>
        <time>2019-02-10T10:46:00.000Z</time>
      </trkpt>
      <trkpt lat="44.15023" lon="7.25403">
        <ele>2435.6000976562</ele>
        <time>2019-02-10T10:46:02.000Z</time>
      </trkpt>
      <trkpt lat="44.15023" lon="7.25403">
        <ele>2435.6000976562</ele>
        <time>2019-02-10T10:46:04.000Z</time>
      </trkpt>
      <trkpt lat="44.15023" lon="7.25403">
        <ele>2435.6000976562</ele>
        <time>2019-02-10T10:46:05.000Z</time>
      </trkpt>
      <trkpt lat="44.15022" lon="7.25403">
        <ele>2435.6000976562</ele>
        <time>2019-02-10T10:46:17.000Z</time>
      </trkpt>
      <trkpt lat="44.15022" lon="7.25402">
        <ele>2435.6000976562</ele>
        <time>2019-02-10T10:46:19.000Z</time>
      </trkpt>
      <trkpt lat="44.15022" lon="7.25402">
        <ele>2435.6000976562</ele>
        <time>2019-02-10T10:46:20.000Z</time>
      </trkpt>
      <trkpt lat="44.15023" lon="7.25402">
        <ele>2435.6000976562</ele>
        <time>2019-02-10T10:46:22.000Z</time>
      </trkpt>
      <trkpt lat="44.15023" lon="7.25402">
        <ele>2435.6000976562</ele>
        <time>2019-02-10T10:46:23.000Z</time>
      </trkpt>
      <trkpt lat="44.15023" lon="7.25402">
        <ele>2435.6000976562</ele>
        <time>2019-02-10T10:46:24.000Z</time>
      </trkpt>
      <trkpt lat="44.15023" lon="7.25402">
        <ele>2435.6000976562</ele>
        <time>2019-02-10T10:46:26.000Z</time>
      </trkpt>
      <trkpt lat="44.15023" lon="7.25403">
        <ele>2435.6000976562</ele>
        <time>2019-02-10T10:46:33.000Z</time>
      </trkpt>
      <trkpt lat="44.15021" lon="7.25404">
        <ele>2435.6000976562</ele>
        <time>2019-02-10T10:46:35.000Z</time>
      </trkpt>
      <trkpt lat="44.15021" lon="7.25404">
        <ele>2435.6000976562</ele>
        <time>2019-02-10T10:46:37.000Z</time>
      </trkpt>
      <trkpt lat="44.1502" lon="7.25405">
        <ele>2435.6000976562</ele>
        <time>2019-02-10T10:46:39.000Z</time>
      </trkpt>
      <trkpt lat="44.15027" lon="7.25403">
        <ele>2435.6000976562</ele>
        <time>2019-02-10T10:46:45.000Z</time>
      </trkpt>
      <trkpt lat="44.15028" lon="7.25402">
        <ele>2435.6000976562</ele>
        <time>2019-02-10T10:46:50.000Z</time>
      </trkpt>
      <trkpt lat="44.15027" lon="7.25402">
        <ele>2435.6000976562</ele>
        <time>2019-02-10T10:46:52.000Z</time>
      </trkpt>
      <trkpt lat="44.15026" lon="7.25404">
        <ele>2435.6000976562</ele>
        <time>2019-02-10T10:47:01.000Z</time>
      </trkpt>
      <trkpt lat="44.15028" lon="7.25402">
        <ele>2435.6000976562</ele>
        <time>2019-02-10T10:47:14.000Z</time>
      </trkpt>
      <trkpt lat="44.15036" lon="7.254">
        <ele>2435.6000976562</ele>
        <time>2019-02-10T10:47:18.000Z</time>
      </trkpt>
      <trkpt lat="44.15037" lon="7.25399">
        <ele>2436</ele>
        <time>2019-02-10T10:47:20.000Z</time>
      </trkpt>
      <trkpt lat="44.15035" lon="7.254">
        <ele>2436.1999511719</ele>
        <time>2019-02-10T10:47:28.000Z</time>
      </trkpt>
      <trkpt lat="44.15032" lon="7.25401">
        <ele>2435.8000488281</ele>
        <time>2019-02-10T10:47:32.000Z</time>
      </trkpt>
      <trkpt lat="44.1503" lon="7.25402">
        <ele>2435.8000488281</ele>
        <time>2019-02-10T10:47:40.000Z</time>
      </trkpt>
      <trkpt lat="44.15028" lon="7.25404">
        <ele>2435.8000488281</ele>
        <time>2019-02-10T10:47:44.000Z</time>
      </trkpt>
      <trkpt lat="44.15025" lon="7.25408">
        <ele>2435.8000488281</ele>
        <time>2019-02-10T10:47:50.000Z</time>
      </trkpt>
      <trkpt lat="44.15023" lon="7.25412">
        <ele>2435.8000488281</ele>
        <time>2019-02-10T10:47:54.000Z</time>
      </trkpt>
      <trkpt lat="44.15022" lon="7.25415">
        <ele>2435.8000488281</ele>
        <time>2019-02-10T10:47:57.000Z</time>
      </trkpt>
      <trkpt lat="44.15018" lon="7.25419">
        <ele>2435.8000488281</ele>
        <time>2019-02-10T10:48:01.000Z</time>
      </trkpt>
      <trkpt lat="44.15016" lon="7.2542">
        <ele>2435.8000488281</ele>
        <time>2019-02-10T10:48:03.000Z</time>
      </trkpt>
      <trkpt lat="44.15013" lon="7.2543">
        <ele>2435</ele>
        <time>2019-02-10T10:48:11.000Z</time>
      </trkpt>
      <trkpt lat="44.15011" lon="7.25432">
        <ele>2434.8000488281</ele>
        <time>2019-02-10T10:48:14.000Z</time>
      </trkpt>
      <trkpt lat="44.1501" lon="7.25435">
        <ele>2434.8000488281</ele>
        <time>2019-02-10T10:48:17.000Z</time>
      </trkpt>
      <trkpt lat="44.1501" lon="7.25437">
        <ele>2434.6000976562</ele>
        <time>2019-02-10T10:48:19.000Z</time>
      </trkpt>
      <trkpt lat="44.15008" lon="7.25442">
        <ele>2434.3999023438</ele>
        <time>2019-02-10T10:48:23.000Z</time>
      </trkpt>
      <trkpt lat="44.15004" lon="7.25448">
        <ele>2434.1999511719</ele>
        <time>2019-02-10T10:48:29.000Z</time>
      </trkpt>
      <trkpt lat="44.15002" lon="7.25451">
        <ele>2434.3999023438</ele>
        <time>2019-02-10T10:48:32.000Z</time>
      </trkpt>
      <trkpt lat="44.15" lon="7.25457">
        <ele>2434.3999023438</ele>
        <time>2019-02-10T10:48:37.000Z</time>
      </trkpt>
      <trkpt lat="44.15" lon="7.25458">
        <ele>2434.3999023438</ele>
        <time>2019-02-10T10:48:38.000Z</time>
      </trkpt>
      <trkpt lat="44.15" lon="7.25459">
        <ele>2434.3999023438</ele>
        <time>2019-02-10T10:48:39.000Z</time>
      </trkpt>
      <trkpt lat="44.14999" lon="7.25461">
        <ele>2434.3999023438</ele>
        <time>2019-02-10T10:48:41.000Z</time>
      </trkpt>
      <trkpt lat="44.14991" lon="7.25475">
        <ele>2435</ele>
        <time>2019-02-10T10:48:53.000Z</time>
      </trkpt>
      <trkpt lat="44.1499" lon="7.25478">
        <ele>2435.1999511719</ele>
        <time>2019-02-10T10:48:56.000Z</time>
      </trkpt>
      <trkpt lat="44.14989" lon="7.25485">
        <ele>2435.6000976562</ele>
        <time>2019-02-10T10:49:02.000Z</time>
      </trkpt>
      <trkpt lat="44.14989" lon="7.25488">
        <ele>2435.8000488281</ele>
        <time>2019-02-10T10:49:05.000Z</time>
      </trkpt>
      <trkpt lat="44.14987" lon="7.2549">
        <ele>2436</ele>
        <time>2019-02-10T10:49:07.000Z</time>
      </trkpt>
      <trkpt lat="44.14987" lon="7.2549">
        <ele>2436.1999511719</ele>
        <time>2019-02-10T10:49:08.000Z</time>
      </trkpt>
      <trkpt lat="44.14979" lon="7.25496">
        <ele>2436.1999511719</ele>
        <time>2019-02-10T10:49:11.000Z</time>
      </trkpt>
      <trkpt lat="44.14976" lon="7.255">
        <ele>2436.6000976562</ele>
        <time>2019-02-10T10:49:17.000Z</time>
      </trkpt>
      <trkpt lat="44.14974" lon="7.25501">
        <ele>2437.1999511719</ele>
        <time>2019-02-10T10:49:22.000Z</time>
      </trkpt>
      <trkpt lat="44.14968" lon="7.25506">
        <ele>2438.1999511719</ele>
        <time>2019-02-10T10:49:30.000Z</time>
      </trkpt>
      <trkpt lat="44.14968" lon="7.25506">
        <ele>2439.1999511719</ele>
        <time>2019-02-10T10:49:37.000Z</time>
      </trkpt>
      <trkpt lat="44.14968" lon="7.25507">
        <ele>2440.1999511719</ele>
        <time>2019-02-10T10:49:45.000Z</time>
      </trkpt>
      <trkpt lat="44.14964" lon="7.25513">
        <ele>2441.3999023438</ele>
        <time>2019-02-10T10:49:54.000Z</time>
      </trkpt>
      <trkpt lat="44.14965" lon="7.25513">
        <ele>2441.3999023438</ele>
        <time>2019-02-10T10:49:55.000Z</time>
      </trkpt>
      <trkpt lat="44.14965" lon="7.25513">
        <ele>2442</ele>
        <time>2019-02-10T10:49:57.000Z</time>
      </trkpt>
      <trkpt lat="44.14964" lon="7.25513">
        <ele>2442.3999023438</ele>
        <time>2019-02-10T10:49:58.000Z</time>
      </trkpt>
      <trkpt lat="44.14964" lon="7.25511">
        <ele>2443</ele>
        <time>2019-02-10T10:50:04.000Z</time>
      </trkpt>
      <trkpt lat="44.14963" lon="7.25512">
        <ele>2443.3999023438</ele>
        <time>2019-02-10T10:50:06.000Z</time>
      </trkpt>
      <trkpt lat="44.1496" lon="7.25513">
        <ele>2444.6000976562</ele>
        <time>2019-02-10T10:50:11.000Z</time>
      </trkpt>
      <trkpt lat="44.14955" lon="7.25517">
        <ele>2445.8000488281</ele>
        <time>2019-02-10T10:50:20.000Z</time>
      </trkpt>
      <trkpt lat="44.14953" lon="7.25518">
        <ele>2446</ele>
        <time>2019-02-10T10:50:22.000Z</time>
      </trkpt>
      <trkpt lat="44.14945" lon="7.25518">
        <ele>2446.6000976562</ele>
        <time>2019-02-10T10:50:32.000Z</time>
      </trkpt>
      <trkpt lat="44.14944" lon="7.25518">
        <ele>2446.6000976562</ele>
        <time>2019-02-10T10:50:33.000Z</time>
      </trkpt>
      <trkpt lat="44.14943" lon="7.25518">
        <ele>2446.6000976562</ele>
        <time>2019-02-10T10:50:34.000Z</time>
      </trkpt>
      <trkpt lat="44.14944" lon="7.25517">
        <ele>2446.8000488281</ele>
        <time>2019-02-10T10:50:35.000Z</time>
      </trkpt>
      <trkpt lat="44.14944" lon="7.25516">
        <ele>2446.8000488281</ele>
        <time>2019-02-10T10:50:36.000Z</time>
      </trkpt>
      <trkpt lat="44.14939" lon="7.25518">
        <ele>2447.8000488281</ele>
        <time>2019-02-10T10:50:45.000Z</time>
      </trkpt>
      <trkpt lat="44.14925" lon="7.25523">
        <ele>2449</ele>
        <time>2019-02-10T10:50:57.000Z</time>
      </trkpt>
      <trkpt lat="44.14921" lon="7.25525">
        <ele>2449.6000976562</ele>
        <time>2019-02-10T10:51:05.000Z</time>
      </trkpt>
      <trkpt lat="44.14921" lon="7.25525">
        <ele>2450</ele>
        <time>2019-02-10T10:51:07.000Z</time>
      </trkpt>
      <trkpt lat="44.14919" lon="7.25527">
        <ele>2451.1999511719</ele>
        <time>2019-02-10T10:51:16.000Z</time>
      </trkpt>
      <trkpt lat="44.14912" lon="7.25531">
        <ele>2452.1999511719</ele>
        <time>2019-02-10T10:51:31.000Z</time>
      </trkpt>
      <trkpt lat="44.14911" lon="7.25533">
        <ele>2453.1999511719</ele>
        <time>2019-02-10T10:51:40.000Z</time>
      </trkpt>
      <trkpt lat="44.14911" lon="7.25535">
        <ele>2453.8000488281</ele>
        <time>2019-02-10T10:51:50.000Z</time>
      </trkpt>
      <trkpt lat="44.1491" lon="7.25537">
        <ele>2453.8000488281</ele>
        <time>2019-02-10T10:51:54.000Z</time>
      </trkpt>
      <trkpt lat="44.1491" lon="7.2554">
        <ele>2454.3999023438</ele>
        <time>2019-02-10T10:51:58.000Z</time>
      </trkpt>
      <trkpt lat="44.14909" lon="7.25542">
        <ele>2454.6000976562</ele>
        <time>2019-02-10T10:52:01.000Z</time>
      </trkpt>
      <trkpt lat="44.14907" lon="7.25544">
        <ele>2455.1999511719</ele>
        <time>2019-02-10T10:52:06.000Z</time>
      </trkpt>
      <trkpt lat="44.14906" lon="7.25545">
        <ele>2455.3999023438</ele>
        <time>2019-02-10T10:52:07.000Z</time>
      </trkpt>
      <trkpt lat="44.14907" lon="7.25547">
        <ele>2456</ele>
        <time>2019-02-10T10:52:12.000Z</time>
      </trkpt>
      <trkpt lat="44.14906" lon="7.25549">
        <ele>2456.3999023438</ele>
        <time>2019-02-10T10:52:16.000Z</time>
      </trkpt>
      <trkpt lat="44.14904" lon="7.2555">
        <ele>2456.6000976562</ele>
        <time>2019-02-10T10:52:22.000Z</time>
      </trkpt>
      <trkpt lat="44.14899" lon="7.25545">
        <ele>2457.3999023438</ele>
        <time>2019-02-10T10:52:41.000Z</time>
      </trkpt>
      <trkpt lat="44.14895" lon="7.25548">
        <ele>2458.3999023438</ele>
        <time>2019-02-10T10:52:49.000Z</time>
      </trkpt>
      <trkpt lat="44.14893" lon="7.2555">
        <ele>2459.6000976562</ele>
        <time>2019-02-10T10:52:55.000Z</time>
      </trkpt>
      <trkpt lat="44.1489" lon="7.25554">
        <ele>2460.8000488281</ele>
        <time>2019-02-10T10:53:00.000Z</time>
      </trkpt>
      <trkpt lat="44.14888" lon="7.25558">
        <ele>2461.8000488281</ele>
        <time>2019-02-10T10:53:06.000Z</time>
      </trkpt>
      <trkpt lat="44.14885" lon="7.25561">
        <ele>2462.8000488281</ele>
        <time>2019-02-10T10:53:12.000Z</time>
      </trkpt>
      <trkpt lat="44.14883" lon="7.25563">
        <ele>2463.8000488281</ele>
        <time>2019-02-10T10:53:16.000Z</time>
      </trkpt>
      <trkpt lat="44.14881" lon="7.25564">
        <ele>2464.6000976562</ele>
        <time>2019-02-10T10:53:33.000Z</time>
      </trkpt>
      <trkpt lat="44.14883" lon="7.25563">
        <ele>2464.6000976562</ele>
        <time>2019-02-10T10:53:45.000Z</time>
      </trkpt>
      <trkpt lat="44.14882" lon="7.25563">
        <ele>2464.1999511719</ele>
        <time>2019-02-10T10:53:49.000Z</time>
      </trkpt>
      <trkpt lat="44.14881" lon="7.25562">
        <ele>2464</ele>
        <time>2019-02-10T10:53:51.000Z</time>
      </trkpt>
      <trkpt lat="44.14881" lon="7.25562">
        <ele>2463.8000488281</ele>
        <time>2019-02-10T10:53:53.000Z</time>
      </trkpt>
      <trkpt lat="44.14881" lon="7.25563">
        <ele>2464</ele>
        <time>2019-02-10T10:53:55.000Z</time>
      </trkpt>
      <trkpt lat="44.14883" lon="7.25564">
        <ele>2464</ele>
        <time>2019-02-10T10:54:06.000Z</time>
      </trkpt>
      <trkpt lat="44.14883" lon="7.25565">
        <ele>2463.6000976562</ele>
        <time>2019-02-10T10:54:12.000Z</time>
      </trkpt>
      <trkpt lat="44.14882" lon="7.25565">
        <ele>2463.6000976562</ele>
        <time>2019-02-10T10:54:15.000Z</time>
      </trkpt>
      <trkpt lat="44.14882" lon="7.25565">
        <ele>2463.6000976562</ele>
        <time>2019-02-10T10:54:16.000Z</time>
      </trkpt>
      <trkpt lat="44.14882" lon="7.25564">
        <ele>2463.6000976562</ele>
        <time>2019-02-10T10:54:17.000Z</time>
      </trkpt>
      <trkpt lat="44.14881" lon="7.25563">
        <ele>2463.3999023438</ele>
        <time>2019-02-10T10:54:27.000Z</time>
      </trkpt>
      <trkpt lat="44.14881" lon="7.25563">
        <ele>2463.6000976562</ele>
        <time>2019-02-10T10:54:28.000Z</time>
      </trkpt>
      <trkpt lat="44.1488" lon="7.25563">
        <ele>2463.6000976562</ele>
        <time>2019-02-10T10:54:33.000Z</time>
      </trkpt>
      <trkpt lat="44.1488" lon="7.25563">
        <ele>2463.6000976562</ele>
        <time>2019-02-10T10:54:34.000Z</time>
      </trkpt>
      <trkpt lat="44.1488" lon="7.25563">
        <ele>2463.3999023438</ele>
        <time>2019-02-10T10:54:37.000Z</time>
      </trkpt>
      <trkpt lat="44.14881" lon="7.25564">
        <ele>2463.1999511719</ele>
        <time>2019-02-10T10:54:40.000Z</time>
      </trkpt>
      <trkpt lat="44.14881" lon="7.25564">
        <ele>2463</ele>
        <time>2019-02-10T10:54:41.000Z</time>
      </trkpt>
      <trkpt lat="44.14881" lon="7.25563">
        <ele>2463.3999023438</ele>
        <time>2019-02-10T10:54:47.000Z</time>
      </trkpt>
      <trkpt lat="44.14882" lon="7.25563">
        <ele>2463.3999023438</ele>
        <time>2019-02-10T10:54:49.000Z</time>
      </trkpt>
      <trkpt lat="44.14882" lon="7.25563">
        <ele>2463.3999023438</ele>
        <time>2019-02-10T10:54:51.000Z</time>
      </trkpt>
      <trkpt lat="44.14882" lon="7.25563">
        <ele>2463.1999511719</ele>
        <time>2019-02-10T10:54:53.000Z</time>
      </trkpt>
      <trkpt lat="44.14883" lon="7.25563">
        <ele>2462.8000488281</ele>
        <time>2019-02-10T10:54:55.000Z</time>
      </trkpt>
      <trkpt lat="44.14883" lon="7.25563">
        <ele>2462.8000488281</ele>
        <time>2019-02-10T10:54:56.000Z</time>
      </trkpt>
      <trkpt lat="44.14883" lon="7.25563">
        <ele>2463</ele>
        <time>2019-02-10T10:55:00.000Z</time>
      </trkpt>
      <trkpt lat="44.14883" lon="7.25562">
        <ele>2463</ele>
        <time>2019-02-10T10:55:02.000Z</time>
      </trkpt>
      <trkpt lat="44.14883" lon="7.25561">
        <ele>2463</ele>
        <time>2019-02-10T10:55:06.000Z</time>
      </trkpt>
      <trkpt lat="44.14881" lon="7.25561">
        <ele>2463.1999511719</ele>
        <time>2019-02-10T10:55:16.000Z</time>
      </trkpt>
      <trkpt lat="44.14881" lon="7.25561">
        <ele>2463.1999511719</ele>
        <time>2019-02-10T10:55:18.000Z</time>
      </trkpt>
      <trkpt lat="44.1488" lon="7.2556">
        <ele>2463.1999511719</ele>
        <time>2019-02-10T10:55:20.000Z</time>
      </trkpt>
      <trkpt lat="44.14881" lon="7.25561">
        <ele>2463.1999511719</ele>
        <time>2019-02-10T10:55:29.000Z</time>
      </trkpt>
      <trkpt lat="44.14881" lon="7.25561">
        <ele>2463.1999511719</ele>
        <time>2019-02-10T10:55:31.000Z</time>
      </trkpt>
      <trkpt lat="44.14882" lon="7.25561">
        <ele>2463.1999511719</ele>
        <time>2019-02-10T10:55:37.000Z</time>
      </trkpt>
      <trkpt lat="44.14882" lon="7.25563">
        <ele>2463.1999511719</ele>
        <time>2019-02-10T10:55:45.000Z</time>
      </trkpt>
      <trkpt lat="44.14881" lon="7.25564">
        <ele>2463.1999511719</ele>
        <time>2019-02-10T10:55:52.000Z</time>
      </trkpt>
      <trkpt lat="44.14882" lon="7.25563">
        <ele>2463.1999511719</ele>
        <time>2019-02-10T10:55:59.000Z</time>
      </trkpt>
      <trkpt lat="44.1488" lon="7.25561">
        <ele>2463.1999511719</ele>
        <time>2019-02-10T10:56:10.000Z</time>
      </trkpt>
      <trkpt lat="44.1488" lon="7.25561">
        <ele>2463.1999511719</ele>
        <time>2019-02-10T10:56:11.000Z</time>
      </trkpt>
      <trkpt lat="44.1488" lon="7.25562">
        <ele>2463.1999511719</ele>
        <time>2019-02-10T10:56:13.000Z</time>
      </trkpt>
      <trkpt lat="44.1488" lon="7.25562">
        <ele>2463.1999511719</ele>
        <time>2019-02-10T10:56:15.000Z</time>
      </trkpt>
      <trkpt lat="44.14881" lon="7.25565">
        <ele>2463.1999511719</ele>
        <time>2019-02-10T10:56:22.000Z</time>
      </trkpt>
      <trkpt lat="44.1488" lon="7.25566">
        <ele>2463.1999511719</ele>
        <time>2019-02-10T10:56:24.000Z</time>
      </trkpt>
      <trkpt lat="44.14878" lon="7.25565">
        <ele>2463.1999511719</ele>
        <time>2019-02-10T10:56:34.000Z</time>
      </trkpt>
      <trkpt lat="44.14878" lon="7.25564">
        <ele>2463.1999511719</ele>
        <time>2019-02-10T10:56:41.000Z</time>
      </trkpt>
      <trkpt lat="44.14878" lon="7.25563">
        <ele>2463.1999511719</ele>
        <time>2019-02-10T10:56:43.000Z</time>
      </trkpt>
      <trkpt lat="44.14879" lon="7.25562">
        <ele>2463.1999511719</ele>
        <time>2019-02-10T10:56:47.000Z</time>
      </trkpt>
      <trkpt lat="44.1488" lon="7.25562">
        <ele>2463.1999511719</ele>
        <time>2019-02-10T10:56:51.000Z</time>
      </trkpt>
      <trkpt lat="44.14881" lon="7.25561">
        <ele>2463.1999511719</ele>
        <time>2019-02-10T10:56:57.000Z</time>
      </trkpt>
      <trkpt lat="44.14881" lon="7.25562">
        <ele>2463.1999511719</ele>
        <time>2019-02-10T10:57:07.000Z</time>
      </trkpt>
      <trkpt lat="44.14881" lon="7.25562">
        <ele>2463.1999511719</ele>
        <time>2019-02-10T10:57:13.000Z</time>
      </trkpt>
      <trkpt lat="44.14881" lon="7.25564">
        <ele>2463.1999511719</ele>
        <time>2019-02-10T10:57:19.000Z</time>
      </trkpt>
      <trkpt lat="44.14881" lon="7.25565">
        <ele>2463.1999511719</ele>
        <time>2019-02-10T10:57:21.000Z</time>
      </trkpt>
      <trkpt lat="44.14881" lon="7.25565">
        <ele>2463.1999511719</ele>
        <time>2019-02-10T10:57:24.000Z</time>
      </trkpt>
      <trkpt lat="44.1488" lon="7.25565">
        <ele>2463.1999511719</ele>
        <time>2019-02-10T10:57:28.000Z</time>
      </trkpt>
      <trkpt lat="44.1488" lon="7.25565">
        <ele>2463.1999511719</ele>
        <time>2019-02-10T10:57:30.000Z</time>
      </trkpt>
      <trkpt lat="44.1488" lon="7.25565">
        <ele>2463.1999511719</ele>
        <time>2019-02-10T10:57:34.000Z</time>
      </trkpt>
      <trkpt lat="44.14882" lon="7.25562">
        <ele>2463.1999511719</ele>
        <time>2019-02-10T10:57:41.000Z</time>
      </trkpt>
      <trkpt lat="44.14882" lon="7.25561">
        <ele>2463.1999511719</ele>
        <time>2019-02-10T10:57:47.000Z</time>
      </trkpt>
      <trkpt lat="44.14882" lon="7.25561">
        <ele>2463.1999511719</ele>
        <time>2019-02-10T10:57:48.000Z</time>
      </trkpt>
      <trkpt lat="44.14882" lon="7.2556">
        <ele>2463.1999511719</ele>
        <time>2019-02-10T10:57:49.000Z</time>
      </trkpt>
      <trkpt lat="44.14881" lon="7.2556">
        <ele>2463.1999511719</ele>
        <time>2019-02-10T10:57:57.000Z</time>
      </trkpt>
      <trkpt lat="44.14881" lon="7.2556">
        <ele>2463.1999511719</ele>
        <time>2019-02-10T10:57:59.000Z</time>
      </trkpt>
      <trkpt lat="44.14882" lon="7.25559">
        <ele>2463.1999511719</ele>
        <time>2019-02-10T10:58:01.000Z</time>
      </trkpt>
      <trkpt lat="44.14881" lon="7.25559">
        <ele>2463.1999511719</ele>
        <time>2019-02-10T10:58:13.000Z</time>
      </trkpt>
      <trkpt lat="44.14881" lon="7.25559">
        <ele>2463.1999511719</ele>
        <time>2019-02-10T10:58:15.000Z</time>
      </trkpt>
      <trkpt lat="44.1488" lon="7.25559">
        <ele>2463.1999511719</ele>
        <time>2019-02-10T10:58:22.000Z</time>
      </trkpt>
      <trkpt lat="44.14881" lon="7.2556">
        <ele>2463.1999511719</ele>
        <time>2019-02-10T10:58:26.000Z</time>
      </trkpt>
      <trkpt lat="44.14882" lon="7.2556">
        <ele>2463.1999511719</ele>
        <time>2019-02-10T10:58:28.000Z</time>
      </trkpt>
      <trkpt lat="44.14881" lon="7.2556">
        <ele>2463.1999511719</ele>
        <time>2019-02-10T10:58:33.000Z</time>
      </trkpt>
      <trkpt lat="44.14881" lon="7.2556">
        <ele>2463.1999511719</ele>
        <time>2019-02-10T10:58:37.000Z</time>
      </trkpt>
      <trkpt lat="44.14881" lon="7.2556">
        <ele>2463.1999511719</ele>
        <time>2019-02-10T10:58:40.000Z</time>
      </trkpt>
      <trkpt lat="44.14881" lon="7.2556">
        <ele>2463.1999511719</ele>
        <time>2019-02-10T10:58:44.000Z</time>
      </trkpt>
      <trkpt lat="44.14881" lon="7.2556">
        <ele>2463.1999511719</ele>
        <time>2019-02-10T10:58:45.000Z</time>
      </trkpt>
      <trkpt lat="44.14881" lon="7.2556">
        <ele>2463.1999511719</ele>
        <time>2019-02-10T10:58:47.000Z</time>
      </trkpt>
      <trkpt lat="44.14881" lon="7.2556">
        <ele>2463.1999511719</ele>
        <time>2019-02-10T10:58:49.000Z</time>
      </trkpt>
      <trkpt lat="44.14881" lon="7.2556">
        <ele>2463.1999511719</ele>
        <time>2019-02-10T10:58:57.000Z</time>
      </trkpt>
      <trkpt lat="44.14881" lon="7.25562">
        <ele>2463.1999511719</ele>
        <time>2019-02-10T10:59:04.000Z</time>
      </trkpt>
      <trkpt lat="44.14881" lon="7.25562">
        <ele>2463.1999511719</ele>
        <time>2019-02-10T10:59:07.000Z</time>
      </trkpt>
      <trkpt lat="44.14881" lon="7.25563">
        <ele>2463.1999511719</ele>
        <time>2019-02-10T10:59:09.000Z</time>
      </trkpt>
      <trkpt lat="44.1488" lon="7.25563">
        <ele>2463.1999511719</ele>
        <time>2019-02-10T10:59:13.000Z</time>
      </trkpt>
      <trkpt lat="44.1488" lon="7.25563">
        <ele>2463.1999511719</ele>
        <time>2019-02-10T10:59:14.000Z</time>
      </trkpt>
      <trkpt lat="44.1488" lon="7.25562">
        <ele>2463.1999511719</ele>
        <time>2019-02-10T10:59:25.000Z</time>
      </trkpt>
      <trkpt lat="44.1488" lon="7.25562">
        <ele>2463.1999511719</ele>
        <time>2019-02-10T10:59:28.000Z</time>
      </trkpt>
      <trkpt lat="44.1488" lon="7.25563">
        <ele>2463.1999511719</ele>
        <time>2019-02-10T10:59:29.000Z</time>
      </trkpt>
      <trkpt lat="44.14879" lon="7.25562">
        <ele>2463.1999511719</ele>
        <time>2019-02-10T10:59:30.000Z</time>
      </trkpt>
      <trkpt lat="44.14879" lon="7.25565">
        <ele>2463.1999511719</ele>
        <time>2019-02-10T10:59:36.000Z</time>
      </trkpt>
      <trkpt lat="44.14876" lon="7.25568">
        <ele>2463.1999511719</ele>
        <time>2019-02-10T10:59:42.000Z</time>
      </trkpt>
      <trkpt lat="44.14875" lon="7.25569">
        <ele>2463.1999511719</ele>
        <time>2019-02-10T10:59:44.000Z</time>
      </trkpt>
      <trkpt lat="44.14873" lon="7.25569">
        <ele>2463.1999511719</ele>
        <time>2019-02-10T10:59:47.000Z</time>
      </trkpt>
      <trkpt lat="44.14872" lon="7.25569">
        <ele>2463.1999511719</ele>
        <time>2019-02-10T10:59:49.000Z</time>
      </trkpt>
      <trkpt lat="44.14872" lon="7.25568">
        <ele>2463.1999511719</ele>
        <time>2019-02-10T10:59:54.000Z</time>
      </trkpt>
      <trkpt lat="44.14868" lon="7.25571">
        <ele>2463.1999511719</ele>
        <time>2019-02-10T11:00:06.000Z</time>
      </trkpt>
      <trkpt lat="44.14868" lon="7.25572">
        <ele>2463.1999511719</ele>
        <time>2019-02-10T11:00:10.000Z</time>
      </trkpt>
      <trkpt lat="44.14869" lon="7.25573">
        <ele>2472.1999511719</ele>
        <time>2019-02-10T11:00:14.000Z</time>
      </trkpt>
      <trkpt lat="44.14867" lon="7.25573">
        <ele>2470.1999511719</ele>
        <time>2019-02-10T11:00:19.000Z</time>
      </trkpt>
      <trkpt lat="44.14865" lon="7.25574">
        <ele>2471.3999023438</ele>
        <time>2019-02-10T11:00:21.000Z</time>
      </trkpt>
      <trkpt lat="44.14864" lon="7.25577">
        <ele>2472.3999023438</ele>
        <time>2019-02-10T11:00:28.000Z</time>
      </trkpt>
      <trkpt lat="44.14863" lon="7.25578">
        <ele>2473.3999023438</ele>
        <time>2019-02-10T11:00:39.000Z</time>
      </trkpt>
      <trkpt lat="44.14867" lon="7.25575">
        <ele>2473.3999023438</ele>
        <time>2019-02-10T11:00:43.000Z</time>
      </trkpt>
      <trkpt lat="44.14868" lon="7.25573">
        <ele>2473.3999023438</ele>
        <time>2019-02-10T11:00:47.000Z</time>
      </trkpt>
      <trkpt lat="44.14864" lon="7.25575">
        <ele>2473.6000976562</ele>
        <time>2019-02-10T11:00:50.000Z</time>
      </trkpt>
      <trkpt lat="44.14864" lon="7.25576">
        <ele>2473.6000976562</ele>
        <time>2019-02-10T11:00:51.000Z</time>
      </trkpt>
      <trkpt lat="44.14864" lon="7.25576">
        <ele>2473.8000488281</ele>
        <time>2019-02-10T11:00:52.000Z</time>
      </trkpt>
      <trkpt lat="44.14865" lon="7.25575">
        <ele>2474.3999023438</ele>
        <time>2019-02-10T11:00:56.000Z</time>
      </trkpt>
      <trkpt lat="44.14866" lon="7.25574">
        <ele>2475</ele>
        <time>2019-02-10T11:00:59.000Z</time>
      </trkpt>
      <trkpt lat="44.14867" lon="7.25575">
        <ele>2475.3999023438</ele>
        <time>2019-02-10T11:01:01.000Z</time>
      </trkpt>
      <trkpt lat="44.14868" lon="7.25574">
        <ele>2475.6000976562</ele>
        <time>2019-02-10T11:01:02.000Z</time>
      </trkpt>
      <trkpt lat="44.14868" lon="7.25574">
        <ele>2475.8000488281</ele>
        <time>2019-02-10T11:01:03.000Z</time>
      </trkpt>
      <trkpt lat="44.14868" lon="7.25574">
        <ele>2475.8000488281</ele>
        <time>2019-02-10T11:01:04.000Z</time>
      </trkpt>
      <trkpt lat="44.14868" lon="7.25575">
        <ele>2475.8000488281</ele>
        <time>2019-02-10T11:01:06.000Z</time>
      </trkpt>
      <trkpt lat="44.14867" lon="7.25575">
        <ele>2475.3999023438</ele>
        <time>2019-02-10T11:01:09.000Z</time>
      </trkpt>
      <trkpt lat="44.14867" lon="7.25575">
        <ele>2474.8000488281</ele>
        <time>2019-02-10T11:01:11.000Z</time>
      </trkpt>
      <trkpt lat="44.14866" lon="7.25576">
        <ele>2474.6000976562</ele>
        <time>2019-02-10T11:01:12.000Z</time>
      </trkpt>
      <trkpt lat="44.14866" lon="7.25576">
        <ele>2474.1999511719</ele>
        <time>2019-02-10T11:01:13.000Z</time>
      </trkpt>
      <trkpt lat="44.14866" lon="7.25576">
        <ele>2474</ele>
        <time>2019-02-10T11:01:15.000Z</time>
      </trkpt>
      <trkpt lat="44.14867" lon="7.25575">
        <ele>2473.8000488281</ele>
        <time>2019-02-10T11:01:19.000Z</time>
      </trkpt>
      <trkpt lat="44.14865" lon="7.25574">
        <ele>2473.3999023438</ele>
        <time>2019-02-10T11:01:22.000Z</time>
      </trkpt>
      <trkpt lat="44.14861" lon="7.25572">
        <ele>2472.3999023438</ele>
        <time>2019-02-10T11:01:27.000Z</time>
      </trkpt>
      <trkpt lat="44.14866" lon="7.25575">
        <ele>2472</ele>
        <time>2019-02-10T11:01:36.000Z</time>
      </trkpt>
      <trkpt lat="44.14868" lon="7.25575">
        <ele>2471.6000976562</ele>
        <time>2019-02-10T11:01:41.000Z</time>
      </trkpt>
      <trkpt lat="44.14867" lon="7.25574">
        <ele>2471.8000488281</ele>
        <time>2019-02-10T11:01:43.000Z</time>
      </trkpt>
      <trkpt lat="44.14865" lon="7.25575">
        <ele>2471.6000976562</ele>
        <time>2019-02-10T11:01:46.000Z</time>
      </trkpt>
      <trkpt lat="44.14865" lon="7.25575">
        <ele>2471.6000976562</ele>
        <time>2019-02-10T11:01:47.000Z</time>
      </trkpt>
      <trkpt lat="44.14864" lon="7.25575">
        <ele>2471.6000976562</ele>
        <time>2019-02-10T11:01:48.000Z</time>
      </trkpt>
      <trkpt lat="44.14864" lon="7.25576">
        <ele>2471.6000976562</ele>
        <time>2019-02-10T11:01:51.000Z</time>
      </trkpt>
      <trkpt lat="44.14863" lon="7.25576">
        <ele>2471.8000488281</ele>
        <time>2019-02-10T11:01:54.000Z</time>
      </trkpt>
      <trkpt lat="44.14863" lon="7.25576">
        <ele>2471.8000488281</ele>
        <time>2019-02-10T11:01:55.000Z</time>
      </trkpt>
      <trkpt lat="44.14863" lon="7.25576">
        <ele>2471.8000488281</ele>
        <time>2019-02-10T11:01:56.000Z</time>
      </trkpt>
      <trkpt lat="44.14863" lon="7.25575">
        <ele>2471.8000488281</ele>
        <time>2019-02-10T11:01:57.000Z</time>
      </trkpt>
      <trkpt lat="44.14864" lon="7.25575">
        <ele>2471.8000488281</ele>
        <time>2019-02-10T11:01:58.000Z</time>
      </trkpt>
      <trkpt lat="44.14865" lon="7.25574">
        <ele>2471.6000976562</ele>
        <time>2019-02-10T11:02:02.000Z</time>
      </trkpt>
      <trkpt lat="44.14866" lon="7.25575">
        <ele>2471.3999023438</ele>
        <time>2019-02-10T11:02:11.000Z</time>
      </trkpt>
      <trkpt lat="44.14866" lon="7.25575">
        <ele>2471.3999023438</ele>
        <time>2019-02-10T11:02:12.000Z</time>
      </trkpt>
      <trkpt lat="44.14867" lon="7.25576">
        <ele>2471.3999023438</ele>
        <time>2019-02-10T11:02:13.000Z</time>
      </trkpt>
      <trkpt lat="44.14868" lon="7.25576">
        <ele>2471.3999023438</ele>
        <time>2019-02-10T11:02:14.000Z</time>
      </trkpt>
      <trkpt lat="44.14868" lon="7.25576">
        <ele>2471.3999023438</ele>
        <time>2019-02-10T11:02:15.000Z</time>
      </trkpt>
      <trkpt lat="44.14869" lon="7.25577">
        <ele>2471.3999023438</ele>
        <time>2019-02-10T11:02:18.000Z</time>
      </trkpt>
      <trkpt lat="44.14871" lon="7.2558">
        <ele>2471.8000488281</ele>
        <time>2019-02-10T11:02:23.000Z</time>
      </trkpt>
      <trkpt lat="44.14871" lon="7.25584">
        <ele>2472.8000488281</ele>
        <time>2019-02-10T11:02:28.000Z</time>
      </trkpt>
      <trkpt lat="44.1487" lon="7.25586">
        <ele>2473</ele>
        <time>2019-02-10T11:02:30.000Z</time>
      </trkpt>
      <trkpt lat="44.1487" lon="7.25586">
        <ele>2473.3999023438</ele>
        <time>2019-02-10T11:02:33.000Z</time>
      </trkpt>
      <trkpt lat="44.14869" lon="7.25589">
        <ele>2473.8000488281</ele>
        <time>2019-02-10T11:02:36.000Z</time>
      </trkpt>
      <trkpt lat="44.14869" lon="7.25593">
        <ele>2474.6000976562</ele>
        <time>2019-02-10T11:02:43.000Z</time>
      </trkpt>
      <trkpt lat="44.1487" lon="7.25598">
        <ele>2474.8000488281</ele>
        <time>2019-02-10T11:02:47.000Z</time>
      </trkpt>
      <trkpt lat="44.1487" lon="7.25602">
        <ele>2474.6000976562</ele>
        <time>2019-02-10T11:02:52.000Z</time>
      </trkpt>
      <trkpt lat="44.14868" lon="7.25603">
        <ele>2474.6000976562</ele>
        <time>2019-02-10T11:02:56.000Z</time>
      </trkpt>
      <trkpt lat="44.1487" lon="7.25606">
        <ele>2474.8000488281</ele>
        <time>2019-02-10T11:03:01.000Z</time>
      </trkpt>
      <trkpt lat="44.14869" lon="7.25617">
        <ele>2475.1999511719</ele>
        <time>2019-02-10T11:03:12.000Z</time>
      </trkpt>
      <trkpt lat="44.14868" lon="7.25618">
        <ele>2475.3999023438</ele>
        <time>2019-02-10T11:03:14.000Z</time>
      </trkpt>
      <trkpt lat="44.14868" lon="7.25617">
        <ele>2475.8000488281</ele>
        <time>2019-02-10T11:03:17.000Z</time>
      </trkpt>
      <trkpt lat="44.14866" lon="7.25631">
        <ele>2476.8000488281</ele>
        <time>2019-02-10T11:03:40.000Z</time>
      </trkpt>
      <trkpt lat="44.14862" lon="7.25635">
        <ele>2476.8000488281</ele>
        <time>2019-02-10T11:03:51.000Z</time>
      </trkpt>
      <trkpt lat="44.14862" lon="7.25638">
        <ele>2477.8000488281</ele>
        <time>2019-02-10T11:04:05.000Z</time>
      </trkpt>
      <trkpt lat="44.14863" lon="7.25648">
        <ele>2479</ele>
        <time>2019-02-10T11:04:14.000Z</time>
      </trkpt>
      <trkpt lat="44.14863" lon="7.2565">
        <ele>2480.1999511719</ele>
        <time>2019-02-10T11:04:20.000Z</time>
      </trkpt>
      <trkpt lat="44.14859" lon="7.25659">
        <ele>2481.1999511719</ele>
        <time>2019-02-10T11:04:34.000Z</time>
      </trkpt>
      <trkpt lat="44.14859" lon="7.25663">
        <ele>2482.1999511719</ele>
        <time>2019-02-10T11:04:46.000Z</time>
      </trkpt>
      <trkpt lat="44.14858" lon="7.25668">
        <ele>2483.1999511719</ele>
        <time>2019-02-10T11:04:55.000Z</time>
      </trkpt>
      <trkpt lat="44.14857" lon="7.25673">
        <ele>2483.8000488281</ele>
        <time>2019-02-10T11:05:01.000Z</time>
      </trkpt>
      <trkpt lat="44.14857" lon="7.25675">
        <ele>2484.1999511719</ele>
        <time>2019-02-10T11:05:04.000Z</time>
      </trkpt>
      <trkpt lat="44.14853" lon="7.25677">
        <ele>2485.3999023438</ele>
        <time>2019-02-10T11:05:12.000Z</time>
      </trkpt>
      <trkpt lat="44.14853" lon="7.25683">
        <ele>2486.3999023438</ele>
        <time>2019-02-10T11:05:23.000Z</time>
      </trkpt>
      <trkpt lat="44.14851" lon="7.25687">
        <ele>2487.3999023438</ele>
        <time>2019-02-10T11:05:29.000Z</time>
      </trkpt>
      <trkpt lat="44.1485" lon="7.25694">
        <ele>2488.1999511719</ele>
        <time>2019-02-10T11:05:36.000Z</time>
      </trkpt>
      <trkpt lat="44.1485" lon="7.25696">
        <ele>2488.3999023438</ele>
        <time>2019-02-10T11:05:38.000Z</time>
      </trkpt>
      <trkpt lat="44.1485" lon="7.257">
        <ele>2489.6000976562</ele>
        <time>2019-02-10T11:05:44.000Z</time>
      </trkpt>
      <trkpt lat="44.14849" lon="7.25698">
        <ele>2490.6000976562</ele>
        <time>2019-02-10T11:05:50.000Z</time>
      </trkpt>
      <trkpt lat="44.14852" lon="7.25702">
        <ele>2491.8000488281</ele>
        <time>2019-02-10T11:06:06.000Z</time>
      </trkpt>
      <trkpt lat="44.1485" lon="7.25701">
        <ele>2492.1999511719</ele>
        <time>2019-02-10T11:06:22.000Z</time>
      </trkpt>
      <trkpt lat="44.1485" lon="7.25701">
        <ele>2492</ele>
        <time>2019-02-10T11:06:25.000Z</time>
      </trkpt>
      <trkpt lat="44.14851" lon="7.25702">
        <ele>2492</ele>
        <time>2019-02-10T11:06:31.000Z</time>
      </trkpt>
      <trkpt lat="44.1485" lon="7.25703">
        <ele>2492.3999023438</ele>
        <time>2019-02-10T11:06:34.000Z</time>
      </trkpt>
      <trkpt lat="44.14849" lon="7.25703">
        <ele>2493</ele>
        <time>2019-02-10T11:06:38.000Z</time>
      </trkpt>
      <trkpt lat="44.1485" lon="7.25707">
        <ele>2492.8000488281</ele>
        <time>2019-02-10T11:06:55.000Z</time>
      </trkpt>
      <trkpt lat="44.14846" lon="7.25701">
        <ele>2493.6000976562</ele>
        <time>2019-02-10T11:07:08.000Z</time>
      </trkpt>
      <trkpt lat="44.14845" lon="7.25699">
        <ele>2494</ele>
        <time>2019-02-10T11:07:11.000Z</time>
      </trkpt>
      <trkpt lat="44.14844" lon="7.25698">
        <ele>2494.1999511719</ele>
        <time>2019-02-10T11:07:12.000Z</time>
      </trkpt>
      <trkpt lat="44.14844" lon="7.25695">
        <ele>2495</ele>
        <time>2019-02-10T11:07:15.000Z</time>
      </trkpt>
      <trkpt lat="44.14843" lon="7.25693">
        <ele>2495.6000976562</ele>
        <time>2019-02-10T11:07:17.000Z</time>
      </trkpt>
      <trkpt lat="44.14842" lon="7.25691">
        <ele>2496</ele>
        <time>2019-02-10T11:07:20.000Z</time>
      </trkpt>
      <trkpt lat="44.14842" lon="7.25691">
        <ele>2496.1999511719</ele>
        <time>2019-02-10T11:07:21.000Z</time>
      </trkpt>
      <trkpt lat="44.14842" lon="7.2569">
        <ele>2497.1999511719</ele>
        <time>2019-02-10T11:07:24.000Z</time>
      </trkpt>
      <trkpt lat="44.14841" lon="7.25691">
        <ele>2498.1999511719</ele>
        <time>2019-02-10T11:07:28.000Z</time>
      </trkpt>
      <trkpt lat="44.14842" lon="7.25691">
        <ele>2498.3999023438</ele>
        <time>2019-02-10T11:07:33.000Z</time>
      </trkpt>
      <trkpt lat="44.14839" lon="7.25707">
        <ele>2499.1999511719</ele>
        <time>2019-02-10T11:07:53.000Z</time>
      </trkpt>
      <trkpt lat="44.14839" lon="7.25708">
        <ele>2499.3999023438</ele>
        <time>2019-02-10T11:07:54.000Z</time>
      </trkpt>
      <trkpt lat="44.14838" lon="7.25709">
        <ele>2500</ele>
        <time>2019-02-10T11:08:00.000Z</time>
      </trkpt>
      <trkpt lat="44.14838" lon="7.2571">
        <ele>2500.3999023438</ele>
        <time>2019-02-10T11:08:01.000Z</time>
      </trkpt>
      <trkpt lat="44.14839" lon="7.25715">
        <ele>2501.1999511719</ele>
        <time>2019-02-10T11:08:08.000Z</time>
      </trkpt>
      <trkpt lat="44.14839" lon="7.25716">
        <ele>2501.3999023438</ele>
        <time>2019-02-10T11:08:10.000Z</time>
      </trkpt>
      <trkpt lat="44.14841" lon="7.25717">
        <ele>2502</ele>
        <time>2019-02-10T11:08:13.000Z</time>
      </trkpt>
      <trkpt lat="44.14842" lon="7.25716">
        <ele>2502.3999023438</ele>
        <time>2019-02-10T11:08:20.000Z</time>
      </trkpt>
      <trkpt lat="44.14842" lon="7.25715">
        <ele>2502.3999023438</ele>
        <time>2019-02-10T11:08:21.000Z</time>
      </trkpt>
      <trkpt lat="44.14842" lon="7.25715">
        <ele>2502.3999023438</ele>
        <time>2019-02-10T11:08:22.000Z</time>
      </trkpt>
      <trkpt lat="44.14837" lon="7.25708">
        <ele>2503.3999023438</ele>
        <time>2019-02-10T11:08:32.000Z</time>
      </trkpt>
      <trkpt lat="44.14836" lon="7.25708">
        <ele>2503.3999023438</ele>
        <time>2019-02-10T11:08:33.000Z</time>
      </trkpt>
      <trkpt lat="44.14835" lon="7.25707">
        <ele>2503.6000976562</ele>
        <time>2019-02-10T11:08:34.000Z</time>
      </trkpt>
      <trkpt lat="44.14834" lon="7.25702">
        <ele>2504.6000976562</ele>
        <time>2019-02-10T11:08:39.000Z</time>
      </trkpt>
      <trkpt lat="44.14833" lon="7.25699">
        <ele>2505.6000976562</ele>
        <time>2019-02-10T11:08:45.000Z</time>
      </trkpt>
      <trkpt lat="44.14832" lon="7.25694">
        <ele>2506.6000976562</ele>
        <time>2019-02-10T11:08:56.000Z</time>
      </trkpt>
      <trkpt lat="44.14831" lon="7.2569">
        <ele>2507.8000488281</ele>
        <time>2019-02-10T11:09:07.000Z</time>
      </trkpt>
      <trkpt lat="44.14831" lon="7.25688">
        <ele>2508.3999023438</ele>
        <time>2019-02-10T11:09:13.000Z</time>
      </trkpt>
      <trkpt lat="44.1483" lon="7.25688">
        <ele>2508.1999511719</ele>
        <time>2019-02-10T11:09:18.000Z</time>
      </trkpt>
      <trkpt lat="44.14829" lon="7.25688">
        <ele>2508.1999511719</ele>
        <time>2019-02-10T11:09:22.000Z</time>
      </trkpt>
      <trkpt lat="44.14829" lon="7.2569">
        <ele>2508</ele>
        <time>2019-02-10T11:09:25.000Z</time>
      </trkpt>
      <trkpt lat="44.14829" lon="7.25689">
        <ele>2508</ele>
        <time>2019-02-10T11:09:27.000Z</time>
      </trkpt>
      <trkpt lat="44.14829" lon="7.2569">
        <ele>2507.8000488281</ele>
        <time>2019-02-10T11:09:30.000Z</time>
      </trkpt>
      <trkpt lat="44.1483" lon="7.25691">
        <ele>2507.8000488281</ele>
        <time>2019-02-10T11:09:33.000Z</time>
      </trkpt>
      <trkpt lat="44.14831" lon="7.25692">
        <ele>2507.8000488281</ele>
        <time>2019-02-10T11:09:36.000Z</time>
      </trkpt>
      <trkpt lat="44.14832" lon="7.25692">
        <ele>2507.8000488281</ele>
        <time>2019-02-10T11:09:39.000Z</time>
      </trkpt>
      <trkpt lat="44.14833" lon="7.25692">
        <ele>2507.8000488281</ele>
        <time>2019-02-10T11:09:41.000Z</time>
      </trkpt>
      <trkpt lat="44.14832" lon="7.25693">
        <ele>2508</ele>
        <time>2019-02-10T11:09:47.000Z</time>
      </trkpt>
      <trkpt lat="44.14831" lon="7.25691">
        <ele>2507.8000488281</ele>
        <time>2019-02-10T11:09:52.000Z</time>
      </trkpt>
      <trkpt lat="44.1483" lon="7.25692">
        <ele>2507.6000976562</ele>
        <time>2019-02-10T11:09:56.000Z</time>
      </trkpt>
      <trkpt lat="44.1483" lon="7.25691">
        <ele>2507.6000976562</ele>
        <time>2019-02-10T11:09:57.000Z</time>
      </trkpt>
      <trkpt lat="44.1483" lon="7.25691">
        <ele>2507.6000976562</ele>
        <time>2019-02-10T11:09:58.000Z</time>
      </trkpt>
      <trkpt lat="44.1483" lon="7.2569">
        <ele>2507.6000976562</ele>
        <time>2019-02-10T11:09:59.000Z</time>
      </trkpt>
      <trkpt lat="44.1483" lon="7.25689">
        <ele>2507.6000976562</ele>
        <time>2019-02-10T11:10:01.000Z</time>
      </trkpt>
      <trkpt lat="44.1483" lon="7.25686">
        <ele>2508.1999511719</ele>
        <time>2019-02-10T11:10:16.000Z</time>
      </trkpt>
      <trkpt lat="44.1483" lon="7.25686">
        <ele>2508.1999511719</ele>
        <time>2019-02-10T11:10:21.000Z</time>
      </trkpt>
      <trkpt lat="44.1483" lon="7.25686">
        <ele>2508.1999511719</ele>
        <time>2019-02-10T11:10:23.000Z</time>
      </trkpt>
      <trkpt lat="44.14829" lon="7.25686">
        <ele>2508</ele>
        <time>2019-02-10T11:10:29.000Z</time>
      </trkpt>
      <trkpt lat="44.14824" lon="7.25695">
        <ele>2508.8000488281</ele>
        <time>2019-02-10T11:10:48.000Z</time>
      </trkpt>
      <trkpt lat="44.14825" lon="7.25701">
        <ele>2509.8000488281</ele>
        <time>2019-02-10T11:10:55.000Z</time>
      </trkpt>
      <trkpt lat="44.14825" lon="7.25702">
        <ele>2510</ele>
        <time>2019-02-10T11:10:56.000Z</time>
      </trkpt>
      <trkpt lat="44.14823" lon="7.25709">
        <ele>2511</ele>
        <time>2019-02-10T11:11:02.000Z</time>
      </trkpt>
      <trkpt lat="44.14823" lon="7.25711">
        <ele>2511.3999023438</ele>
        <time>2019-02-10T11:11:04.000Z</time>
      </trkpt>
      <trkpt lat="44.1482" lon="7.25721">
        <ele>2512</ele>
        <time>2019-02-10T11:11:13.000Z</time>
      </trkpt>
      <trkpt lat="44.1482" lon="7.25722">
        <ele>2512.1999511719</ele>
        <time>2019-02-10T11:11:14.000Z</time>
      </trkpt>
      <trkpt lat="44.14819" lon="7.25722">
        <ele>2512.3999023438</ele>
        <time>2019-02-10T11:11:16.000Z</time>
      </trkpt>
      <trkpt lat="44.14819" lon="7.25724">
        <ele>2512.3999023438</ele>
        <time>2019-02-10T11:11:20.000Z</time>
      </trkpt>
      <trkpt lat="44.14819" lon="7.2573">
        <ele>2512.3999023438</ele>
        <time>2019-02-10T11:11:30.000Z</time>
      </trkpt>
      <trkpt lat="44.14818" lon="7.25728">
        <ele>2513.1999511719</ele>
        <time>2019-02-10T11:11:36.000Z</time>
      </trkpt>
      <trkpt lat="44.14819" lon="7.25728">
        <ele>2514.1999511719</ele>
        <time>2019-02-10T11:11:45.000Z</time>
      </trkpt>
      <trkpt lat="44.14817" lon="7.25723">
        <ele>2515.1999511719</ele>
        <time>2019-02-10T11:12:01.000Z</time>
      </trkpt>
      <trkpt lat="44.14816" lon="7.25721">
        <ele>2516.3999023438</ele>
        <time>2019-02-10T11:12:06.000Z</time>
      </trkpt>
      <trkpt lat="44.14814" lon="7.25717">
        <ele>2517.3999023438</ele>
        <time>2019-02-10T11:12:12.000Z</time>
      </trkpt>
      <trkpt lat="44.14813" lon="7.25712">
        <ele>2518.3999023438</ele>
        <time>2019-02-10T11:12:20.000Z</time>
      </trkpt>
      <trkpt lat="44.14811" lon="7.25707">
        <ele>2519.8000488281</ele>
        <time>2019-02-10T11:12:28.000Z</time>
      </trkpt>
      <trkpt lat="44.1481" lon="7.25704">
        <ele>2520.8000488281</ele>
        <time>2019-02-10T11:12:34.000Z</time>
      </trkpt>
      <trkpt lat="44.14809" lon="7.25698">
        <ele>2521.8000488281</ele>
        <time>2019-02-10T11:12:41.000Z</time>
      </trkpt>
      <trkpt lat="44.14808" lon="7.25695">
        <ele>2522.6000976562</ele>
        <time>2019-02-10T11:12:45.000Z</time>
      </trkpt>
      <trkpt lat="44.14807" lon="7.25694">
        <ele>2522.8000488281</ele>
        <time>2019-02-10T11:12:46.000Z</time>
      </trkpt>
      <trkpt lat="44.14805" lon="7.2569">
        <ele>2524.1999511719</ele>
        <time>2019-02-10T11:12:51.000Z</time>
      </trkpt>
      <trkpt lat="44.14803" lon="7.25686">
        <ele>2524.8000488281</ele>
        <time>2019-02-10T11:12:54.000Z</time>
      </trkpt>
      <trkpt lat="44.14802" lon="7.25685">
        <ele>2525.1999511719</ele>
        <time>2019-02-10T11:12:56.000Z</time>
      </trkpt>
      <trkpt lat="44.148" lon="7.25683">
        <ele>2526.3999023438</ele>
        <time>2019-02-10T11:13:01.000Z</time>
      </trkpt>
      <trkpt lat="44.14799" lon="7.25683">
        <ele>2526.6000976562</ele>
        <time>2019-02-10T11:13:02.000Z</time>
      </trkpt>
      <trkpt lat="44.14797" lon="7.25685">
        <ele>2527.1999511719</ele>
        <time>2019-02-10T11:13:06.000Z</time>
      </trkpt>
      <trkpt lat="44.14796" lon="7.25686">
        <ele>2527.3999023438</ele>
        <time>2019-02-10T11:13:08.000Z</time>
      </trkpt>
      <trkpt lat="44.14793" lon="7.25689">
        <ele>2527.6000976562</ele>
        <time>2019-02-10T11:13:11.000Z</time>
      </trkpt>
      <trkpt lat="44.1479" lon="7.25688">
        <ele>2528</ele>
        <time>2019-02-10T11:13:14.000Z</time>
      </trkpt>
      <trkpt lat="44.14789" lon="7.25688">
        <ele>2528.3999023438</ele>
        <time>2019-02-10T11:13:16.000Z</time>
      </trkpt>
      <trkpt lat="44.14789" lon="7.25687">
        <ele>2528.6000976562</ele>
        <time>2019-02-10T11:13:18.000Z</time>
      </trkpt>
      <trkpt lat="44.14786" lon="7.25688">
        <ele>2529.6000976562</ele>
        <time>2019-02-10T11:13:24.000Z</time>
      </trkpt>
      <trkpt lat="44.14785" lon="7.2569">
        <ele>2530.6000976562</ele>
        <time>2019-02-10T11:13:30.000Z</time>
      </trkpt>
      <trkpt lat="44.14788" lon="7.25695">
        <ele>2531.8000488281</ele>
        <time>2019-02-10T11:13:46.000Z</time>
      </trkpt>
      <trkpt lat="44.14786" lon="7.25697">
        <ele>2532.1999511719</ele>
        <time>2019-02-10T11:13:50.000Z</time>
      </trkpt>
      <trkpt lat="44.14786" lon="7.25697">
        <ele>2532.1999511719</ele>
        <time>2019-02-10T11:13:51.000Z</time>
      </trkpt>
      <trkpt lat="44.14785" lon="7.257">
        <ele>2532.6000976562</ele>
        <time>2019-02-10T11:13:55.000Z</time>
      </trkpt>
      <trkpt lat="44.14785" lon="7.25701">
        <ele>2532.8000488281</ele>
        <time>2019-02-10T11:13:56.000Z</time>
      </trkpt>
      <trkpt lat="44.14781" lon="7.25707">
        <ele>2533.8000488281</ele>
        <time>2019-02-10T11:14:02.000Z</time>
      </trkpt>
      <trkpt lat="44.14781" lon="7.25708">
        <ele>2534</ele>
        <time>2019-02-10T11:14:03.000Z</time>
      </trkpt>
      <trkpt lat="44.14779" lon="7.25712">
        <ele>2534.8000488281</ele>
        <time>2019-02-10T11:14:07.000Z</time>
      </trkpt>
      <trkpt lat="44.14778" lon="7.25719">
        <ele>2535.8000488281</ele>
        <time>2019-02-10T11:14:17.000Z</time>
      </trkpt>
      <trkpt lat="44.14777" lon="7.25722">
        <ele>2537</ele>
        <time>2019-02-10T11:14:22.000Z</time>
      </trkpt>
      <trkpt lat="44.14776" lon="7.25726">
        <ele>2538</ele>
        <time>2019-02-10T11:14:29.000Z</time>
      </trkpt>
      <trkpt lat="44.14773" lon="7.2573">
        <ele>2539</ele>
        <time>2019-02-10T11:14:37.000Z</time>
      </trkpt>
      <trkpt lat="44.14773" lon="7.25731">
        <ele>2539.1999511719</ele>
        <time>2019-02-10T11:14:38.000Z</time>
      </trkpt>
      <trkpt lat="44.14766" lon="7.25731">
        <ele>2540.3999023438</ele>
        <time>2019-02-10T11:14:46.000Z</time>
      </trkpt>
      <trkpt lat="44.14765" lon="7.25733">
        <ele>2541.6000976562</ele>
        <time>2019-02-10T11:14:56.000Z</time>
      </trkpt>
      <trkpt lat="44.14765" lon="7.25733">
        <ele>2542.6000976562</ele>
        <time>2019-02-10T11:15:00.000Z</time>
      </trkpt>
      <trkpt lat="44.14765" lon="7.25733">
        <ele>2543.6000976562</ele>
        <time>2019-02-10T11:15:04.000Z</time>
      </trkpt>
      <trkpt lat="44.14765" lon="7.25733">
        <ele>2543.8000488281</ele>
        <time>2019-02-10T11:15:05.000Z</time>
      </trkpt>
      <trkpt lat="44.14766" lon="7.25733">
        <ele>2544.8000488281</ele>
        <time>2019-02-10T11:15:10.000Z</time>
      </trkpt>
      <trkpt lat="44.14767" lon="7.25734">
        <ele>2545</ele>
        <time>2019-02-10T11:15:11.000Z</time>
      </trkpt>
      <trkpt lat="44.14767" lon="7.25734">
        <ele>2545</ele>
        <time>2019-02-10T11:15:12.000Z</time>
      </trkpt>
      <trkpt lat="44.14768" lon="7.25735">
        <ele>2543.8000488281</ele>
        <time>2019-02-10T11:15:15.000Z</time>
      </trkpt>
      <trkpt lat="44.14769" lon="7.25735">
        <ele>2542.6000976562</ele>
        <time>2019-02-10T11:15:18.000Z</time>
      </trkpt>
      <trkpt lat="44.1477" lon="7.25733">
        <ele>2541.1999511719</ele>
        <time>2019-02-10T11:15:21.000Z</time>
      </trkpt>
      <trkpt lat="44.1477" lon="7.25731">
        <ele>2540.1999511719</ele>
        <time>2019-02-10T11:15:23.000Z</time>
      </trkpt>
      <trkpt lat="44.1477" lon="7.25731">
        <ele>2540</ele>
        <time>2019-02-10T11:15:24.000Z</time>
      </trkpt>
      <trkpt lat="44.14771" lon="7.25733">
        <ele>2539.6000976562</ele>
        <time>2019-02-10T11:15:26.000Z</time>
      </trkpt>
      <trkpt lat="44.14771" lon="7.25736">
        <ele>2539.6000976562</ele>
        <time>2019-02-10T11:15:29.000Z</time>
      </trkpt>
      <trkpt lat="44.1477" lon="7.25736">
        <ele>2540.6000976562</ele>
        <time>2019-02-10T11:15:34.000Z</time>
      </trkpt>
      <trkpt lat="44.14772" lon="7.2574">
        <ele>2540.6000976562</ele>
        <time>2019-02-10T11:15:40.000Z</time>
      </trkpt>
      <trkpt lat="44.14768" lon="7.25743">
        <ele>2541</ele>
        <time>2019-02-10T11:15:46.000Z</time>
      </trkpt>
      <trkpt lat="44.14766" lon="7.25745">
        <ele>2541.8000488281</ele>
        <time>2019-02-10T11:15:50.000Z</time>
      </trkpt>
      <trkpt lat="44.14765" lon="7.25746">
        <ele>2542</ele>
        <time>2019-02-10T11:15:51.000Z</time>
      </trkpt>
      <trkpt lat="44.14765" lon="7.25747">
        <ele>2542.8000488281</ele>
        <time>2019-02-10T11:15:53.000Z</time>
      </trkpt>
      <trkpt lat="44.14765" lon="7.25748">
        <ele>2543.1999511719</ele>
        <time>2019-02-10T11:15:55.000Z</time>
      </trkpt>
      <trkpt lat="44.14766" lon="7.2575">
        <ele>2543.1999511719</ele>
        <time>2019-02-10T11:15:56.000Z</time>
      </trkpt>
      <trkpt lat="44.14764" lon="7.25752">
        <ele>2543</ele>
        <time>2019-02-10T11:16:00.000Z</time>
      </trkpt>
      <trkpt lat="44.14764" lon="7.25753">
        <ele>2543</ele>
        <time>2019-02-10T11:16:02.000Z</time>
      </trkpt>
      <trkpt lat="44.14764" lon="7.25754">
        <ele>2543.1999511719</ele>
        <time>2019-02-10T11:16:03.000Z</time>
      </trkpt>
      <trkpt lat="44.14763" lon="7.25754">
        <ele>2543.3999023438</ele>
        <time>2019-02-10T11:16:04.000Z</time>
      </trkpt>
      <trkpt lat="44.14761" lon="7.25756">
        <ele>2544.3999023438</ele>
        <time>2019-02-10T11:16:08.000Z</time>
      </trkpt>
      <trkpt lat="44.14759" lon="7.2576">
        <ele>2545.6000976562</ele>
        <time>2019-02-10T11:16:13.000Z</time>
      </trkpt>
      <trkpt lat="44.14758" lon="7.25761">
        <ele>2546.1999511719</ele>
        <time>2019-02-10T11:16:17.000Z</time>
      </trkpt>
      <trkpt lat="44.14758" lon="7.25758">
        <ele>2546.3999023438</ele>
        <time>2019-02-10T11:16:21.000Z</time>
      </trkpt>
      <trkpt lat="44.14758" lon="7.25757">
        <ele>2546.8000488281</ele>
        <time>2019-02-10T11:16:25.000Z</time>
      </trkpt>
      <trkpt lat="44.14759" lon="7.25754">
        <ele>2546.1999511719</ele>
        <time>2019-02-10T11:16:34.000Z</time>
      </trkpt>
      <trkpt lat="44.14759" lon="7.25756">
        <ele>2546</ele>
        <time>2019-02-10T11:16:43.000Z</time>
      </trkpt>
      <trkpt lat="44.14759" lon="7.25756">
        <ele>2545.6000976562</ele>
        <time>2019-02-10T11:16:46.000Z</time>
      </trkpt>
      <trkpt lat="44.14759" lon="7.25758">
        <ele>2547</ele>
        <time>2019-02-10T11:16:53.000Z</time>
      </trkpt>
      <trkpt lat="44.1476" lon="7.25761">
        <ele>2547.8000488281</ele>
        <time>2019-02-10T11:16:56.000Z</time>
      </trkpt>
      <trkpt lat="44.14761" lon="7.2576">
        <ele>2548</ele>
        <time>2019-02-10T11:16:59.000Z</time>
      </trkpt>
      <trkpt lat="44.14763" lon="7.25761">
        <ele>2546.6000976562</ele>
        <time>2019-02-10T11:17:04.000Z</time>
      </trkpt>
      <trkpt lat="44.14765" lon="7.25762">
        <ele>2545.8000488281</ele>
        <time>2019-02-10T11:17:06.000Z</time>
      </trkpt>
      <trkpt lat="44.14766" lon="7.25763">
        <ele>2545.6000976562</ele>
        <time>2019-02-10T11:17:07.000Z</time>
      </trkpt>
      <trkpt lat="44.14766" lon="7.25763">
        <ele>2545.1999511719</ele>
        <time>2019-02-10T11:17:08.000Z</time>
      </trkpt>
      <trkpt lat="44.14768" lon="7.25759">
        <ele>2544.3999023438</ele>
        <time>2019-02-10T11:17:13.000Z</time>
      </trkpt>
      <trkpt lat="44.14767" lon="7.25757">
        <ele>2544.1999511719</ele>
        <time>2019-02-10T11:17:16.000Z</time>
      </trkpt>
      <trkpt lat="44.14771" lon="7.25762">
        <ele>2545.8000488281</ele>
        <time>2019-02-10T11:17:19.000Z</time>
      </trkpt>
      <trkpt lat="44.1477" lon="7.2576">
        <ele>2547</ele>
        <time>2019-02-10T11:17:22.000Z</time>
      </trkpt>
      <trkpt lat="44.14772" lon="7.2576">
        <ele>2547.6000976562</ele>
        <time>2019-02-10T11:17:24.000Z</time>
      </trkpt>
      <trkpt lat="44.14773" lon="7.25761">
        <ele>2547.6000976562</ele>
        <time>2019-02-10T11:17:25.000Z</time>
      </trkpt>
      <trkpt lat="44.14774" lon="7.25763">
        <ele>2548.1999511719</ele>
        <time>2019-02-10T11:17:29.000Z</time>
      </trkpt>
      <trkpt lat="44.14773" lon="7.25762">
        <ele>2548.3999023438</ele>
        <time>2019-02-10T11:17:31.000Z</time>
      </trkpt>
      <trkpt lat="44.14773" lon="7.25761">
        <ele>2548</ele>
        <time>2019-02-10T11:17:35.000Z</time>
      </trkpt>
      <trkpt lat="44.14773" lon="7.25761">
        <ele>2548.3999023438</ele>
        <time>2019-02-10T11:17:39.000Z</time>
      </trkpt>
      <trkpt lat="44.14772" lon="7.25761">
        <ele>2548.6000976562</ele>
        <time>2019-02-10T11:17:40.000Z</time>
      </trkpt>
      <trkpt lat="44.14771" lon="7.2576">
        <ele>2548.6000976562</ele>
        <time>2019-02-10T11:17:43.000Z</time>
      </trkpt>
      <trkpt lat="44.1477" lon="7.25761">
        <ele>2548.6000976562</ele>
        <time>2019-02-10T11:17:44.000Z</time>
      </trkpt>
      <trkpt lat="44.14768" lon="7.25761">
        <ele>2548.6000976562</ele>
        <time>2019-02-10T11:17:45.000Z</time>
      </trkpt>
      <trkpt lat="44.14768" lon="7.25762">
        <ele>2548.6000976562</ele>
        <time>2019-02-10T11:17:46.000Z</time>
      </trkpt>
      <trkpt lat="44.14765" lon="7.25765">
        <ele>2548.8000488281</ele>
        <time>2019-02-10T11:17:49.000Z</time>
      </trkpt>
      <trkpt lat="44.14764" lon="7.25768">
        <ele>2548.8000488281</ele>
        <time>2019-02-10T11:17:52.000Z</time>
      </trkpt>
      <trkpt lat="44.14761" lon="7.25775">
        <ele>2549.3999023438</ele>
        <time>2019-02-10T11:17:57.000Z</time>
      </trkpt>
      <trkpt lat="44.1476" lon="7.25776">
        <ele>2549.6000976562</ele>
        <time>2019-02-10T11:17:58.000Z</time>
      </trkpt>
      <trkpt lat="44.1476" lon="7.25781">
        <ele>2549.3999023438</ele>
        <time>2019-02-10T11:18:02.000Z</time>
      </trkpt>
      <trkpt lat="44.1476" lon="7.25783">
        <ele>2550</ele>
        <time>2019-02-10T11:18:04.000Z</time>
      </trkpt>
      <trkpt lat="44.1476" lon="7.25784">
        <ele>2550.1999511719</ele>
        <time>2019-02-10T11:18:05.000Z</time>
      </trkpt>
      <trkpt lat="44.14759" lon="7.25786">
        <ele>2550.3999023438</ele>
        <time>2019-02-10T11:18:06.000Z</time>
      </trkpt>
      <trkpt lat="44.14759" lon="7.25787">
        <ele>2550.6000976562</ele>
        <time>2019-02-10T11:18:08.000Z</time>
      </trkpt>
      <trkpt lat="44.14759" lon="7.25789">
        <ele>2551</ele>
        <time>2019-02-10T11:18:10.000Z</time>
      </trkpt>
      <trkpt lat="44.14759" lon="7.2579">
        <ele>2551.3999023438</ele>
        <time>2019-02-10T11:18:11.000Z</time>
      </trkpt>
      <trkpt lat="44.14758" lon="7.25792">
        <ele>2551.8000488281</ele>
        <time>2019-02-10T11:18:13.000Z</time>
      </trkpt>
      <trkpt lat="44.14757" lon="7.25795">
        <ele>2552.6000976562</ele>
        <time>2019-02-10T11:18:15.000Z</time>
      </trkpt>
      <trkpt lat="44.14757" lon="7.25796">
        <ele>2553.6000976562</ele>
        <time>2019-02-10T11:18:17.000Z</time>
      </trkpt>
      <trkpt lat="44.14757" lon="7.25798">
        <ele>2554</ele>
        <time>2019-02-10T11:18:18.000Z</time>
      </trkpt>
      <trkpt lat="44.14757" lon="7.258">
        <ele>2554</ele>
        <time>2019-02-10T11:18:20.000Z</time>
      </trkpt>
      <trkpt lat="44.14757" lon="7.25804">
        <ele>2553</ele>
        <time>2019-02-10T11:18:23.000Z</time>
      </trkpt>
      <trkpt lat="44.14759" lon="7.25809">
        <ele>2552.8000488281</ele>
        <time>2019-02-10T11:18:27.000Z</time>
      </trkpt>
      <trkpt lat="44.1476" lon="7.25811">
        <ele>2552.6000976562</ele>
        <time>2019-02-10T11:18:29.000Z</time>
      </trkpt>
      <trkpt lat="44.14761" lon="7.25819">
        <ele>2553.3999023438</ele>
        <time>2019-02-10T11:18:38.000Z</time>
      </trkpt>
      <trkpt lat="44.14761" lon="7.25821">
        <ele>2553.8000488281</ele>
        <time>2019-02-10T11:18:41.000Z</time>
      </trkpt>
      <trkpt lat="44.14763" lon="7.25824">
        <ele>2554</ele>
        <time>2019-02-10T11:18:44.000Z</time>
      </trkpt>
      <trkpt lat="44.14762" lon="7.25829">
        <ele>2555.1999511719</ele>
        <time>2019-02-10T11:18:49.000Z</time>
      </trkpt>
      <trkpt lat="44.14763" lon="7.25838">
        <ele>2556</ele>
        <time>2019-02-10T11:18:58.000Z</time>
      </trkpt>
      <trkpt lat="44.14762" lon="7.25839">
        <ele>2556.1999511719</ele>
        <time>2019-02-10T11:18:59.000Z</time>
      </trkpt>
      <trkpt lat="44.1476" lon="7.25842">
        <ele>2557.1999511719</ele>
        <time>2019-02-10T11:19:03.000Z</time>
      </trkpt>
      <trkpt lat="44.1476" lon="7.25843">
        <ele>2557.3999023438</ele>
        <time>2019-02-10T11:19:04.000Z</time>
      </trkpt>
      <trkpt lat="44.1476" lon="7.25843">
        <ele>2557.6000976562</ele>
        <time>2019-02-10T11:19:05.000Z</time>
      </trkpt>
      <trkpt lat="44.1476" lon="7.25844">
        <ele>2557.8000488281</ele>
        <time>2019-02-10T11:19:06.000Z</time>
      </trkpt>
      <trkpt lat="44.1476" lon="7.25844">
        <ele>2558</ele>
        <time>2019-02-10T11:19:07.000Z</time>
      </trkpt>
      <trkpt lat="44.1476" lon="7.25847">
        <ele>2558.3999023438</ele>
        <time>2019-02-10T11:19:10.000Z</time>
      </trkpt>
      <trkpt lat="44.1476" lon="7.25849">
        <ele>2558.6000976562</ele>
        <time>2019-02-10T11:19:11.000Z</time>
      </trkpt>
      <trkpt lat="44.1476" lon="7.25853">
        <ele>2558.8000488281</ele>
        <time>2019-02-10T11:19:14.000Z</time>
      </trkpt>
      <trkpt lat="44.14759" lon="7.25856">
        <ele>2559.1999511719</ele>
        <time>2019-02-10T11:19:16.000Z</time>
      </trkpt>
      <trkpt lat="44.14758" lon="7.25859">
        <ele>2559.3999023438</ele>
        <time>2019-02-10T11:19:18.000Z</time>
      </trkpt>
      <trkpt lat="44.14758" lon="7.2586">
        <ele>2559.6000976562</ele>
        <time>2019-02-10T11:19:19.000Z</time>
      </trkpt>
      <trkpt lat="44.14759" lon="7.25865">
        <ele>2559.8000488281</ele>
        <time>2019-02-10T11:19:23.000Z</time>
      </trkpt>
      <trkpt lat="44.14759" lon="7.25868">
        <ele>2560</ele>
        <time>2019-02-10T11:19:26.000Z</time>
      </trkpt>
      <trkpt lat="44.1476" lon="7.2587">
        <ele>2560.6000976562</ele>
        <time>2019-02-10T11:19:29.000Z</time>
      </trkpt>
      <trkpt lat="44.1476" lon="7.25872">
        <ele>2561</ele>
        <time>2019-02-10T11:19:32.000Z</time>
      </trkpt>
      <trkpt lat="44.14758" lon="7.25878">
        <ele>2561.6000976562</ele>
        <time>2019-02-10T11:19:37.000Z</time>
      </trkpt>
      <trkpt lat="44.14756" lon="7.25883">
        <ele>2562.1999511719</ele>
        <time>2019-02-10T11:19:42.000Z</time>
      </trkpt>
      <trkpt lat="44.14754" lon="7.25887">
        <ele>2562.6000976562</ele>
        <time>2019-02-10T11:19:45.000Z</time>
      </trkpt>
      <trkpt lat="44.14753" lon="7.25891">
        <ele>2563.6000976562</ele>
        <time>2019-02-10T11:19:49.000Z</time>
      </trkpt>
      <trkpt lat="44.14753" lon="7.25893">
        <ele>2563.8000488281</ele>
        <time>2019-02-10T11:19:50.000Z</time>
      </trkpt>
      <trkpt lat="44.14753" lon="7.25894">
        <ele>2564.1999511719</ele>
        <time>2019-02-10T11:19:52.000Z</time>
      </trkpt>
      <trkpt lat="44.14751" lon="7.25903">
        <ele>2564.8000488281</ele>
        <time>2019-02-10T11:19:59.000Z</time>
      </trkpt>
      <trkpt lat="44.14751" lon="7.25907">
        <ele>2565.6000976562</ele>
        <time>2019-02-10T11:20:03.000Z</time>
      </trkpt>
      <trkpt lat="44.14752" lon="7.2591">
        <ele>2565.8000488281</ele>
        <time>2019-02-10T11:20:06.000Z</time>
      </trkpt>
      <trkpt lat="44.14752" lon="7.25913">
        <ele>2566.1999511719</ele>
        <time>2019-02-10T11:20:09.000Z</time>
      </trkpt>
      <trkpt lat="44.14752" lon="7.25913">
        <ele>2567</ele>
        <time>2019-02-10T11:20:20.000Z</time>
      </trkpt>
      <trkpt lat="44.14751" lon="7.25921">
        <ele>2568.1999511719</ele>
        <time>2019-02-10T11:20:27.000Z</time>
      </trkpt>
      <trkpt lat="44.14749" lon="7.25926">
        <ele>2568.3999023438</ele>
        <time>2019-02-10T11:20:31.000Z</time>
      </trkpt>
      <trkpt lat="44.14748" lon="7.25928">
        <ele>2568.3999023438</ele>
        <time>2019-02-10T11:20:34.000Z</time>
      </trkpt>
      <trkpt lat="44.14748" lon="7.25931">
        <ele>2569.3999023438</ele>
        <time>2019-02-10T11:20:39.000Z</time>
      </trkpt>
      <trkpt lat="44.14748" lon="7.25932">
        <ele>2570.6000976562</ele>
        <time>2019-02-10T11:20:42.000Z</time>
      </trkpt>
      <trkpt lat="44.1475" lon="7.25934">
        <ele>2570.8000488281</ele>
        <time>2019-02-10T11:20:45.000Z</time>
      </trkpt>
      <trkpt lat="44.1475" lon="7.25935">
        <ele>2570.8000488281</ele>
        <time>2019-02-10T11:20:46.000Z</time>
      </trkpt>
      <trkpt lat="44.14752" lon="7.25938">
        <ele>2571.8000488281</ele>
        <time>2019-02-10T11:20:51.000Z</time>
      </trkpt>
      <trkpt lat="44.14753" lon="7.25945">
        <ele>2573</ele>
        <time>2019-02-10T11:21:00.000Z</time>
      </trkpt>
      <trkpt lat="44.14751" lon="7.25952">
        <ele>2574</ele>
        <time>2019-02-10T11:21:11.000Z</time>
      </trkpt>
      <trkpt lat="44.14751" lon="7.25955">
        <ele>2575.1999511719</ele>
        <time>2019-02-10T11:21:19.000Z</time>
      </trkpt>
      <trkpt lat="44.14752" lon="7.25962">
        <ele>2575.1999511719</ele>
        <time>2019-02-10T11:21:27.000Z</time>
      </trkpt>
      <trkpt lat="44.14752" lon="7.2597">
        <ele>2576.1999511719</ele>
        <time>2019-02-10T11:21:40.000Z</time>
      </trkpt>
      <trkpt lat="44.14755" lon="7.25973">
        <ele>2576.6000976562</ele>
        <time>2019-02-10T11:21:44.000Z</time>
      </trkpt>
      <trkpt lat="44.14758" lon="7.25979">
        <ele>2577.1999511719</ele>
        <time>2019-02-10T11:21:54.000Z</time>
      </trkpt>
      <trkpt lat="44.14758" lon="7.25982">
        <ele>2578.1999511719</ele>
        <time>2019-02-10T11:22:02.000Z</time>
      </trkpt>
      <trkpt lat="44.14756" lon="7.25984">
        <ele>2579.3999023438</ele>
        <time>2019-02-10T11:22:09.000Z</time>
      </trkpt>
      <trkpt lat="44.14756" lon="7.25984">
        <ele>2580.6000976562</ele>
        <time>2019-02-10T11:22:13.000Z</time>
      </trkpt>
      <trkpt lat="44.14759" lon="7.25985">
        <ele>2580.6000976562</ele>
        <time>2019-02-10T11:22:18.000Z</time>
      </trkpt>
      <trkpt lat="44.14759" lon="7.25986">
        <ele>2580.3999023438</ele>
        <time>2019-02-10T11:22:19.000Z</time>
      </trkpt>
      <trkpt lat="44.14762" lon="7.25988">
        <ele>2580.6000976562</ele>
        <time>2019-02-10T11:22:25.000Z</time>
      </trkpt>
      <trkpt lat="44.14758" lon="7.2599">
        <ele>2580.8000488281</ele>
        <time>2019-02-10T11:22:40.000Z</time>
      </trkpt>
      <trkpt lat="44.14757" lon="7.25992">
        <ele>2580.6000976562</ele>
        <time>2019-02-10T11:22:43.000Z</time>
      </trkpt>
      <trkpt lat="44.14759" lon="7.25993">
        <ele>2580.6000976562</ele>
        <time>2019-02-10T11:22:47.000Z</time>
      </trkpt>
      <trkpt lat="44.14761" lon="7.25996">
        <ele>2580.3999023438</ele>
        <time>2019-02-10T11:22:52.000Z</time>
      </trkpt>
      <trkpt lat="44.1476" lon="7.25995">
        <ele>2580.3999023438</ele>
        <time>2019-02-10T11:22:54.000Z</time>
      </trkpt>
      <trkpt lat="44.14761" lon="7.25994">
        <ele>2580.8000488281</ele>
        <time>2019-02-10T11:22:57.000Z</time>
      </trkpt>
      <trkpt lat="44.1476" lon="7.25993">
        <ele>2581</ele>
        <time>2019-02-10T11:22:59.000Z</time>
      </trkpt>
      <trkpt lat="44.14762" lon="7.25993">
        <ele>2581.3999023438</ele>
        <time>2019-02-10T11:23:05.000Z</time>
      </trkpt>
      <trkpt lat="44.14762" lon="7.25994">
        <ele>2581.8000488281</ele>
        <time>2019-02-10T11:23:09.000Z</time>
      </trkpt>
      <trkpt lat="44.14763" lon="7.25996">
        <ele>2581.8000488281</ele>
        <time>2019-02-10T11:23:11.000Z</time>
      </trkpt>
      <trkpt lat="44.14762" lon="7.26005">
        <ele>2582.3999023438</ele>
        <time>2019-02-10T11:23:22.000Z</time>
      </trkpt>
      <trkpt lat="44.14763" lon="7.26004">
        <ele>2582.3999023438</ele>
        <time>2019-02-10T11:23:26.000Z</time>
      </trkpt>
      <trkpt lat="44.14763" lon="7.26004">
        <ele>2582.3999023438</ele>
        <time>2019-02-10T11:23:28.000Z</time>
      </trkpt>
      <trkpt lat="44.14763" lon="7.26004">
        <ele>2582.3999023438</ele>
        <time>2019-02-10T11:23:29.000Z</time>
      </trkpt>
      <trkpt lat="44.14761" lon="7.25999">
        <ele>2582.3999023438</ele>
        <time>2019-02-10T11:23:35.000Z</time>
      </trkpt>
      <trkpt lat="44.14758" lon="7.2599">
        <ele>2582.3999023438</ele>
        <time>2019-02-10T11:23:43.000Z</time>
      </trkpt>
      <trkpt lat="44.14758" lon="7.2599">
        <ele>2582.6000976562</ele>
        <time>2019-02-10T11:23:45.000Z</time>
      </trkpt>
      <trkpt lat="44.14758" lon="7.2599">
        <ele>2582.6000976562</ele>
        <time>2019-02-10T11:23:47.000Z</time>
      </trkpt>
      <trkpt lat="44.14758" lon="7.2599">
        <ele>2582.8000488281</ele>
        <time>2019-02-10T11:23:48.000Z</time>
      </trkpt>
      <trkpt lat="44.14758" lon="7.25989">
        <ele>2582.8000488281</ele>
        <time>2019-02-10T11:23:49.000Z</time>
      </trkpt>
      <trkpt lat="44.14758" lon="7.25989">
        <ele>2582.8000488281</ele>
        <time>2019-02-10T11:23:50.000Z</time>
      </trkpt>
      <trkpt lat="44.14758" lon="7.25989">
        <ele>2582.8000488281</ele>
        <time>2019-02-10T11:23:51.000Z</time>
      </trkpt>
      <trkpt lat="44.14757" lon="7.2599">
        <ele>2582.8000488281</ele>
        <time>2019-02-10T11:23:54.000Z</time>
      </trkpt>
      <trkpt lat="44.14756" lon="7.2599">
        <ele>2582.8000488281</ele>
        <time>2019-02-10T11:23:57.000Z</time>
      </trkpt>
      <trkpt lat="44.14755" lon="7.2599">
        <ele>2582.8000488281</ele>
        <time>2019-02-10T11:23:58.000Z</time>
      </trkpt>
      <trkpt lat="44.14754" lon="7.25989">
        <ele>2583.1999511719</ele>
        <time>2019-02-10T11:24:04.000Z</time>
      </trkpt>
      <trkpt lat="44.14755" lon="7.25989">
        <ele>2583.3999023438</ele>
        <time>2019-02-10T11:24:08.000Z</time>
      </trkpt>
      <trkpt lat="44.14756" lon="7.25989">
        <ele>2583.3999023438</ele>
        <time>2019-02-10T11:24:10.000Z</time>
      </trkpt>
      <trkpt lat="44.14757" lon="7.25988">
        <ele>2583.6000976562</ele>
        <time>2019-02-10T11:24:13.000Z</time>
      </trkpt>
      <trkpt lat="44.14757" lon="7.25988">
        <ele>2583.6000976562</ele>
        <time>2019-02-10T11:24:14.000Z</time>
      </trkpt>
      <trkpt lat="44.14763" lon="7.25988">
        <ele>2583</ele>
        <time>2019-02-10T11:24:21.000Z</time>
      </trkpt>
      <trkpt lat="44.14767" lon="7.25989">
        <ele>2583</ele>
        <time>2019-02-10T11:24:24.000Z</time>
      </trkpt>
      <trkpt lat="44.14763" lon="7.25988">
        <ele>2582.8000488281</ele>
        <time>2019-02-10T11:24:36.000Z</time>
      </trkpt>
      <trkpt lat="44.14763" lon="7.25988">
        <ele>2582.8000488281</ele>
        <time>2019-02-10T11:24:37.000Z</time>
      </trkpt>
      <trkpt lat="44.14761" lon="7.25988">
        <ele>2582.6000976562</ele>
        <time>2019-02-10T11:24:39.000Z</time>
      </trkpt>
      <trkpt lat="44.14757" lon="7.25986">
        <ele>2582.6000976562</ele>
        <time>2019-02-10T11:24:43.000Z</time>
      </trkpt>
      <trkpt lat="44.1476" lon="7.25985">
        <ele>2582.6000976562</ele>
        <time>2019-02-10T11:24:50.000Z</time>
      </trkpt>
      <trkpt lat="44.1476" lon="7.25984">
        <ele>2582.6000976562</ele>
        <time>2019-02-10T11:24:52.000Z</time>
      </trkpt>
      <trkpt lat="44.14761" lon="7.25984">
        <ele>2582.8000488281</ele>
        <time>2019-02-10T11:24:59.000Z</time>
      </trkpt>
      <trkpt lat="44.14761" lon="7.25984">
        <ele>2582.8000488281</ele>
        <time>2019-02-10T11:25:02.000Z</time>
      </trkpt>
      <trkpt lat="44.14761" lon="7.25984">
        <ele>2582.6000976562</ele>
        <time>2019-02-10T11:25:06.000Z</time>
      </trkpt>
      <trkpt lat="44.14761" lon="7.25984">
        <ele>2582.6000976562</ele>
        <time>2019-02-10T11:25:07.000Z</time>
      </trkpt>
      <trkpt lat="44.14761" lon="7.25984">
        <ele>2582.6000976562</ele>
        <time>2019-02-10T11:25:11.000Z</time>
      </trkpt>
      <trkpt lat="44.14761" lon="7.25985">
        <ele>2582.8000488281</ele>
        <time>2019-02-10T11:25:12.000Z</time>
      </trkpt>
      <trkpt lat="44.14761" lon="7.25985">
        <ele>2583</ele>
        <time>2019-02-10T11:25:14.000Z</time>
      </trkpt>
      <trkpt lat="44.14761" lon="7.25985">
        <ele>2583.1999511719</ele>
        <time>2019-02-10T11:25:16.000Z</time>
      </trkpt>
      <trkpt lat="44.14761" lon="7.25985">
        <ele>2583.6000976562</ele>
        <time>2019-02-10T11:25:19.000Z</time>
      </trkpt>
      <trkpt lat="44.14761" lon="7.25985">
        <ele>2583.8000488281</ele>
        <time>2019-02-10T11:25:20.000Z</time>
      </trkpt>
      <trkpt lat="44.14761" lon="7.25985">
        <ele>2584</ele>
        <time>2019-02-10T11:25:22.000Z</time>
      </trkpt>
      <trkpt lat="44.14761" lon="7.25985">
        <ele>2584</ele>
        <time>2019-02-10T11:25:23.000Z</time>
      </trkpt>
      <trkpt lat="44.1476" lon="7.25986">
        <ele>2584.1999511719</ele>
        <time>2019-02-10T11:25:24.000Z</time>
      </trkpt>
      <trkpt lat="44.1476" lon="7.25987">
        <ele>2584.3999023438</ele>
        <time>2019-02-10T11:25:26.000Z</time>
      </trkpt>
      <trkpt lat="44.1476" lon="7.25987">
        <ele>2584.8000488281</ele>
        <time>2019-02-10T11:25:27.000Z</time>
      </trkpt>
      <trkpt lat="44.1476" lon="7.25987">
        <ele>2585</ele>
        <time>2019-02-10T11:25:28.000Z</time>
      </trkpt>
      <trkpt lat="44.14759" lon="7.25988">
        <ele>2585.1999511719</ele>
        <time>2019-02-10T11:25:30.000Z</time>
      </trkpt>
      <trkpt lat="44.14758" lon="7.25989">
        <ele>2585</ele>
        <time>2019-02-10T11:25:34.000Z</time>
      </trkpt>
      <trkpt lat="44.14757" lon="7.25989">
        <ele>2583.6000976562</ele>
        <time>2019-02-10T11:25:42.000Z</time>
      </trkpt>
      <trkpt lat="44.14757" lon="7.25989">
        <ele>2583.3999023438</ele>
        <time>2019-02-10T11:25:43.000Z</time>
      </trkpt>
      <trkpt lat="44.14757" lon="7.25989">
        <ele>2583</ele>
        <time>2019-02-10T11:25:47.000Z</time>
      </trkpt>
      <trkpt lat="44.14757" lon="7.25989">
        <ele>2582.8000488281</ele>
        <time>2019-02-10T11:25:50.000Z</time>
      </trkpt>
      <trkpt lat="44.14757" lon="7.25989">
        <ele>2582.8000488281</ele>
        <time>2019-02-10T11:25:51.000Z</time>
      </trkpt>
      <trkpt lat="44.14757" lon="7.25989">
        <ele>2582.6000976562</ele>
        <time>2019-02-10T11:25:52.000Z</time>
      </trkpt>
      <trkpt lat="44.14757" lon="7.25989">
        <ele>2582.6000976562</ele>
        <time>2019-02-10T11:25:53.000Z</time>
      </trkpt>
      <trkpt lat="44.14757" lon="7.25989">
        <ele>2582.6000976562</ele>
        <time>2019-02-10T11:25:54.000Z</time>
      </trkpt>
      <trkpt lat="44.14757" lon="7.25988">
        <ele>2582.8000488281</ele>
        <time>2019-02-10T11:25:57.000Z</time>
      </trkpt>
      <trkpt lat="44.14757" lon="7.25988">
        <ele>2583</ele>
        <time>2019-02-10T11:25:59.000Z</time>
      </trkpt>
      <trkpt lat="44.14757" lon="7.25988">
        <ele>2583.1999511719</ele>
        <time>2019-02-10T11:26:00.000Z</time>
      </trkpt>
      <trkpt lat="44.14757" lon="7.25988">
        <ele>2583.1999511719</ele>
        <time>2019-02-10T11:26:01.000Z</time>
      </trkpt>
      <trkpt lat="44.14757" lon="7.25988">
        <ele>2582.6000976562</ele>
        <time>2019-02-10T11:26:04.000Z</time>
      </trkpt>
      <trkpt lat="44.14758" lon="7.25987">
        <ele>2582.3999023438</ele>
        <time>2019-02-10T11:26:07.000Z</time>
      </trkpt>
      <trkpt lat="44.14758" lon="7.25987">
        <ele>2582.3999023438</ele>
        <time>2019-02-10T11:26:08.000Z</time>
      </trkpt>
      <trkpt lat="44.14758" lon="7.25987">
        <ele>2582.3999023438</ele>
        <time>2019-02-10T11:26:09.000Z</time>
      </trkpt>
      <trkpt lat="44.14758" lon="7.25987">
        <ele>2582.1999511719</ele>
        <time>2019-02-10T11:26:13.000Z</time>
      </trkpt>
      <trkpt lat="44.14758" lon="7.25987">
        <ele>2582</ele>
        <time>2019-02-10T11:26:14.000Z</time>
      </trkpt>
      <trkpt lat="44.14758" lon="7.25986">
        <ele>2582</ele>
        <time>2019-02-10T11:26:17.000Z</time>
      </trkpt>
      <trkpt lat="44.1476" lon="7.25985">
        <ele>2582.6000976562</ele>
        <time>2019-02-10T11:26:24.000Z</time>
      </trkpt>
      <trkpt lat="44.1476" lon="7.25985">
        <ele>2582.8000488281</ele>
        <time>2019-02-10T11:26:27.000Z</time>
      </trkpt>
      <trkpt lat="44.1476" lon="7.25985">
        <ele>2582.8000488281</ele>
        <time>2019-02-10T11:26:28.000Z</time>
      </trkpt>
      <trkpt lat="44.1476" lon="7.25985">
        <ele>2582.8000488281</ele>
        <time>2019-02-10T11:26:29.000Z</time>
      </trkpt>
      <trkpt lat="44.1476" lon="7.25986">
        <ele>2582.6000976562</ele>
        <time>2019-02-10T11:26:33.000Z</time>
      </trkpt>
      <trkpt lat="44.1476" lon="7.25986">
        <ele>2582.3999023438</ele>
        <time>2019-02-10T11:26:38.000Z</time>
      </trkpt>
      <trkpt lat="44.14756" lon="7.25986">
        <ele>2582.3999023438</ele>
        <time>2019-02-10T11:26:49.000Z</time>
      </trkpt>
      <trkpt lat="44.14756" lon="7.25986">
        <ele>2582.3999023438</ele>
        <time>2019-02-10T11:26:52.000Z</time>
      </trkpt>
      <trkpt lat="44.14756" lon="7.25986">
        <ele>2582.3999023438</ele>
        <time>2019-02-10T11:26:54.000Z</time>
      </trkpt>
      <trkpt lat="44.14756" lon="7.25986">
        <ele>2582.3999023438</ele>
        <time>2019-02-10T11:26:56.000Z</time>
      </trkpt>
      <trkpt lat="44.14756" lon="7.25986">
        <ele>2582.3999023438</ele>
        <time>2019-02-10T11:27:03.000Z</time>
      </trkpt>
      <trkpt lat="44.14756" lon="7.25986">
        <ele>2582.3999023438</ele>
        <time>2019-02-10T11:27:08.000Z</time>
      </trkpt>
      <trkpt lat="44.14756" lon="7.25986">
        <ele>2582.3999023438</ele>
        <time>2019-02-10T11:27:09.000Z</time>
      </trkpt>
      <trkpt lat="44.14756" lon="7.25985">
        <ele>2582.3999023438</ele>
        <time>2019-02-10T11:27:11.000Z</time>
      </trkpt>
      <trkpt lat="44.14756" lon="7.25985">
        <ele>2582.3999023438</ele>
        <time>2019-02-10T11:27:13.000Z</time>
      </trkpt>
      <trkpt lat="44.14756" lon="7.25985">
        <ele>2582.3999023438</ele>
        <time>2019-02-10T11:27:16.000Z</time>
      </trkpt>
      <trkpt lat="44.14756" lon="7.25985">
        <ele>2582.3999023438</ele>
        <time>2019-02-10T11:27:18.000Z</time>
      </trkpt>
      <trkpt lat="44.14756" lon="7.25985">
        <ele>2582.3999023438</ele>
        <time>2019-02-10T11:27:20.000Z</time>
      </trkpt>
      <trkpt lat="44.14756" lon="7.25987">
        <ele>2582.3999023438</ele>
        <time>2019-02-10T11:27:24.000Z</time>
      </trkpt>
      <trkpt lat="44.1476" lon="7.25991">
        <ele>2582.3999023438</ele>
        <time>2019-02-10T11:27:36.000Z</time>
      </trkpt>
      <trkpt lat="44.14762" lon="7.25989">
        <ele>2582.3999023438</ele>
        <time>2019-02-10T11:27:46.000Z</time>
      </trkpt>
      <trkpt lat="44.14762" lon="7.25989">
        <ele>2582.3999023438</ele>
        <time>2019-02-10T11:27:50.000Z</time>
      </trkpt>
      <trkpt lat="44.14763" lon="7.25989">
        <ele>2582.3999023438</ele>
        <time>2019-02-10T11:27:54.000Z</time>
      </trkpt>
      <trkpt lat="44.14762" lon="7.2599">
        <ele>2582.3999023438</ele>
        <time>2019-02-10T11:27:57.000Z</time>
      </trkpt>
      <trkpt lat="44.14762" lon="7.2599">
        <ele>2582.3999023438</ele>
        <time>2019-02-10T11:28:05.000Z</time>
      </trkpt>
      <trkpt lat="44.14762" lon="7.2599">
        <ele>2582.3999023438</ele>
        <time>2019-02-10T11:28:07.000Z</time>
      </trkpt>
      <trkpt lat="44.14762" lon="7.25991">
        <ele>2582.3999023438</ele>
        <time>2019-02-10T11:28:11.000Z</time>
      </trkpt>
      <trkpt lat="44.14762" lon="7.25991">
        <ele>2582.3999023438</ele>
        <time>2019-02-10T11:28:12.000Z</time>
      </trkpt>
      <trkpt lat="44.14762" lon="7.25991">
        <ele>2582.3999023438</ele>
        <time>2019-02-10T11:28:14.000Z</time>
      </trkpt>
      <trkpt lat="44.14762" lon="7.25991">
        <ele>2582.3999023438</ele>
        <time>2019-02-10T11:28:15.000Z</time>
      </trkpt>
      <trkpt lat="44.14762" lon="7.25991">
        <ele>2582.3999023438</ele>
        <time>2019-02-10T11:28:19.000Z</time>
      </trkpt>
      <trkpt lat="44.14761" lon="7.25992">
        <ele>2582.3999023438</ele>
        <time>2019-02-10T11:28:30.000Z</time>
      </trkpt>
      <trkpt lat="44.14761" lon="7.25992">
        <ele>2582.3999023438</ele>
        <time>2019-02-10T11:28:37.000Z</time>
      </trkpt>
      <trkpt lat="44.14761" lon="7.25992">
        <ele>2582.3999023438</ele>
        <time>2019-02-10T11:28:38.000Z</time>
      </trkpt>
      <trkpt lat="44.14761" lon="7.25992">
        <ele>2586</ele>
        <time>2019-02-10T11:28:49.000Z</time>
      </trkpt>
      <trkpt lat="44.14761" lon="7.25992">
        <ele>2585.3999023438</ele>
        <time>2019-02-10T11:28:51.000Z</time>
      </trkpt>
      <trkpt lat="44.14763" lon="7.25991">
        <ele>2585.3999023438</ele>
        <time>2019-02-10T11:28:57.000Z</time>
      </trkpt>
      <trkpt lat="44.14764" lon="7.25991">
        <ele>2585.3999023438</ele>
        <time>2019-02-10T11:28:58.000Z</time>
      </trkpt>
      <trkpt lat="44.14765" lon="7.25992">
        <ele>2585.6000976562</ele>
        <time>2019-02-10T11:29:01.000Z</time>
      </trkpt>
      <trkpt lat="44.14765" lon="7.25995">
        <ele>2585.6000976562</ele>
        <time>2019-02-10T11:29:10.000Z</time>
      </trkpt>
      <trkpt lat="44.14765" lon="7.25996">
        <ele>2585.6000976562</ele>
        <time>2019-02-10T11:29:12.000Z</time>
      </trkpt>
      <trkpt lat="44.14765" lon="7.25996">
        <ele>2585.6000976562</ele>
        <time>2019-02-10T11:29:14.000Z</time>
      </trkpt>
      <trkpt lat="44.14764" lon="7.25996">
        <ele>2585.3999023438</ele>
        <time>2019-02-10T11:29:16.000Z</time>
      </trkpt>
      <trkpt lat="44.14764" lon="7.25996">
        <ele>2585.1999511719</ele>
        <time>2019-02-10T11:29:18.000Z</time>
      </trkpt>
      <trkpt lat="44.14763" lon="7.25996">
        <ele>2585</ele>
        <time>2019-02-10T11:29:19.000Z</time>
      </trkpt>
      <trkpt lat="44.14763" lon="7.25995">
        <ele>2584.8000488281</ele>
        <time>2019-02-10T11:29:21.000Z</time>
      </trkpt>
      <trkpt lat="44.14762" lon="7.25994">
        <ele>2584.8000488281</ele>
        <time>2019-02-10T11:29:28.000Z</time>
      </trkpt>
      <trkpt lat="44.14761" lon="7.25994">
        <ele>2584.8000488281</ele>
        <time>2019-02-10T11:29:32.000Z</time>
      </trkpt>
      <trkpt lat="44.1476" lon="7.25993">
        <ele>2584.8000488281</ele>
        <time>2019-02-10T11:29:34.000Z</time>
      </trkpt>
      <trkpt lat="44.14759" lon="7.25992">
        <ele>2584.8000488281</ele>
        <time>2019-02-10T11:29:37.000Z</time>
      </trkpt>
      <trkpt lat="44.14759" lon="7.25992">
        <ele>2584.8000488281</ele>
        <time>2019-02-10T11:29:38.000Z</time>
      </trkpt>
      <trkpt lat="44.14759" lon="7.25991">
        <ele>2584.8000488281</ele>
        <time>2019-02-10T11:29:40.000Z</time>
      </trkpt>
      <trkpt lat="44.14759" lon="7.25991">
        <ele>2585.3999023438</ele>
        <time>2019-02-10T11:29:43.000Z</time>
      </trkpt>
      <trkpt lat="44.14759" lon="7.25991">
        <ele>2586</ele>
        <time>2019-02-10T11:29:45.000Z</time>
      </trkpt>
      <trkpt lat="44.14759" lon="7.25991">
        <ele>2586</ele>
        <time>2019-02-10T11:29:47.000Z</time>
      </trkpt>
      <trkpt lat="44.14759" lon="7.25994">
        <ele>2585.6000976562</ele>
        <time>2019-02-10T11:30:06.000Z</time>
      </trkpt>
      <trkpt lat="44.14771" lon="7.25998">
        <ele>2586.1999511719</ele>
        <time>2019-02-10T11:30:18.000Z</time>
      </trkpt>
      <trkpt lat="44.14771" lon="7.25998">
        <ele>2586.3999023438</ele>
        <time>2019-02-10T11:30:19.000Z</time>
      </trkpt>
      <trkpt lat="44.14771" lon="7.25998">
        <ele>2586.3999023438</ele>
        <time>2019-02-10T11:30:20.000Z</time>
      </trkpt>
      <trkpt lat="44.1477" lon="7.25998">
        <ele>2586.3999023438</ele>
        <time>2019-02-10T11:30:22.000Z</time>
      </trkpt>
      <trkpt lat="44.14767" lon="7.25998">
        <ele>2586.3999023438</ele>
        <time>2019-02-10T11:30:26.000Z</time>
      </trkpt>
      <trkpt lat="44.14766" lon="7.25998">
        <ele>2586.3999023438</ele>
        <time>2019-02-10T11:30:27.000Z</time>
      </trkpt>
      <trkpt lat="44.1476" lon="7.25997">
        <ele>2585.8000488281</ele>
        <time>2019-02-10T11:30:32.000Z</time>
      </trkpt>
      <trkpt lat="44.14756" lon="7.25996">
        <ele>2585.1999511719</ele>
        <time>2019-02-10T11:30:36.000Z</time>
      </trkpt>
      <trkpt lat="44.14756" lon="7.25996">
        <ele>2585.1999511719</ele>
        <time>2019-02-10T11:30:37.000Z</time>
      </trkpt>
      <trkpt lat="44.14756" lon="7.25996">
        <ele>2585</ele>
        <time>2019-02-10T11:30:38.000Z</time>
      </trkpt>
      <trkpt lat="44.14756" lon="7.25997">
        <ele>2585</ele>
        <time>2019-02-10T11:30:39.000Z</time>
      </trkpt>
      <trkpt lat="44.14756" lon="7.25997">
        <ele>2585.3999023438</ele>
        <time>2019-02-10T11:30:40.000Z</time>
      </trkpt>
      <trkpt lat="44.14756" lon="7.25998">
        <ele>2585.6000976562</ele>
        <time>2019-02-10T11:30:41.000Z</time>
      </trkpt>
      <trkpt lat="44.14755" lon="7.26001">
        <ele>2586.1999511719</ele>
        <time>2019-02-10T11:30:44.000Z</time>
      </trkpt>
      <trkpt lat="44.14767" lon="7.26005">
        <ele>2586.8000488281</ele>
        <time>2019-02-10T11:30:47.000Z</time>
      </trkpt>
      <trkpt lat="44.14772" lon="7.26008">
        <ele>2587.3999023438</ele>
        <time>2019-02-10T11:30:49.000Z</time>
      </trkpt>
      <trkpt lat="44.14774" lon="7.26011">
        <ele>2588</ele>
        <time>2019-02-10T11:30:52.000Z</time>
      </trkpt>
      <trkpt lat="44.14774" lon="7.26012">
        <ele>2588.3999023438</ele>
        <time>2019-02-10T11:30:53.000Z</time>
      </trkpt>
      <trkpt lat="44.14769" lon="7.26014">
        <ele>2589.6000976562</ele>
        <time>2019-02-10T11:30:56.000Z</time>
      </trkpt>
      <trkpt lat="44.14768" lon="7.26016">
        <ele>2590.1999511719</ele>
        <time>2019-02-10T11:30:59.000Z</time>
      </trkpt>
      <trkpt lat="44.14768" lon="7.26017">
        <ele>2590.3999023438</ele>
        <time>2019-02-10T11:31:02.000Z</time>
      </trkpt>
      <trkpt lat="44.14768" lon="7.26018">
        <ele>2590.3999023438</ele>
        <time>2019-02-10T11:31:05.000Z</time>
      </trkpt>
      <trkpt lat="44.1477" lon="7.26021">
        <ele>2590.6000976562</ele>
        <time>2019-02-10T11:31:08.000Z</time>
      </trkpt>
      <trkpt lat="44.1477" lon="7.26022">
        <ele>2590.6000976562</ele>
        <time>2019-02-10T11:31:09.000Z</time>
      </trkpt>
      <trkpt lat="44.14773" lon="7.26025">
        <ele>2591.1999511719</ele>
        <time>2019-02-10T11:31:13.000Z</time>
      </trkpt>
      <trkpt lat="44.14774" lon="7.26027">
        <ele>2592</ele>
        <time>2019-02-10T11:31:16.000Z</time>
      </trkpt>
      <trkpt lat="44.14774" lon="7.2603">
        <ele>2593.1999511719</ele>
        <time>2019-02-10T11:31:19.000Z</time>
      </trkpt>
      <trkpt lat="44.14774" lon="7.2603">
        <ele>2593.3999023438</ele>
        <time>2019-02-10T11:31:20.000Z</time>
      </trkpt>
      <trkpt lat="44.14776" lon="7.26037">
        <ele>2594.1999511719</ele>
        <time>2019-02-10T11:31:27.000Z</time>
      </trkpt>
      <trkpt lat="44.14776" lon="7.26037">
        <ele>2594.3999023438</ele>
        <time>2019-02-10T11:31:28.000Z</time>
      </trkpt>
      <trkpt lat="44.14776" lon="7.26038">
        <ele>2594.8000488281</ele>
        <time>2019-02-10T11:31:30.000Z</time>
      </trkpt>
      <trkpt lat="44.14777" lon="7.26039">
        <ele>2594.8000488281</ele>
        <time>2019-02-10T11:31:32.000Z</time>
      </trkpt>
      <trkpt lat="44.14779" lon="7.2604">
        <ele>2594.6000976562</ele>
        <time>2019-02-10T11:31:35.000Z</time>
      </trkpt>
      <trkpt lat="44.1478" lon="7.26042">
        <ele>2595.6000976562</ele>
        <time>2019-02-10T11:31:40.000Z</time>
      </trkpt>
      <trkpt lat="44.14779" lon="7.26043">
        <ele>2596.8000488281</ele>
        <time>2019-02-10T11:31:43.000Z</time>
      </trkpt>
      <trkpt lat="44.14777" lon="7.26043">
        <ele>2596.8000488281</ele>
        <time>2019-02-10T11:31:44.000Z</time>
      </trkpt>
      <trkpt lat="44.14773" lon="7.26041">
        <ele>2596.3999023438</ele>
        <time>2019-02-10T11:31:50.000Z</time>
      </trkpt>
      <trkpt lat="44.14768" lon="7.2604">
        <ele>2597.8000488281</ele>
        <time>2019-02-10T11:32:00.000Z</time>
      </trkpt>
      <trkpt lat="44.14768" lon="7.26041">
        <ele>2597.6000976562</ele>
        <time>2019-02-10T11:32:11.000Z</time>
      </trkpt>
      <trkpt lat="44.14767" lon="7.26041">
        <ele>2597.3999023438</ele>
        <time>2019-02-10T11:32:15.000Z</time>
      </trkpt>
      <trkpt lat="44.14767" lon="7.26041">
        <ele>2597.3999023438</ele>
        <time>2019-02-10T11:32:19.000Z</time>
      </trkpt>
      <trkpt lat="44.14762" lon="7.2604">
        <ele>2598.8000488281</ele>
        <time>2019-02-10T11:32:29.000Z</time>
      </trkpt>
      <trkpt lat="44.14762" lon="7.2604">
        <ele>2598.8000488281</ele>
        <time>2019-02-10T11:32:30.000Z</time>
      </trkpt>
      <trkpt lat="44.14759" lon="7.2604">
        <ele>2599</ele>
        <time>2019-02-10T11:32:33.000Z</time>
      </trkpt>
      <trkpt lat="44.14759" lon="7.26041">
        <ele>2599</ele>
        <time>2019-02-10T11:32:35.000Z</time>
      </trkpt>
      <trkpt lat="44.14753" lon="7.26038">
        <ele>2599.3999023438</ele>
        <time>2019-02-10T11:32:44.000Z</time>
      </trkpt>
      <trkpt lat="44.14751" lon="7.26037">
        <ele>2600</ele>
        <time>2019-02-10T11:32:46.000Z</time>
      </trkpt>
      <trkpt lat="44.14749" lon="7.26035">
        <ele>2601</ele>
        <time>2019-02-10T11:32:53.000Z</time>
      </trkpt>
      <trkpt lat="44.1475" lon="7.26034">
        <ele>2602</ele>
        <time>2019-02-10T11:32:58.000Z</time>
      </trkpt>
      <trkpt lat="44.1475" lon="7.26034">
        <ele>2602.1999511719</ele>
        <time>2019-02-10T11:33:02.000Z</time>
      </trkpt>
      <trkpt lat="44.14751" lon="7.26035">
        <ele>2603.1999511719</ele>
        <time>2019-02-10T11:33:12.000Z</time>
      </trkpt>
      <trkpt lat="44.14753" lon="7.2604">
        <ele>2604.3999023438</ele>
        <time>2019-02-10T11:33:23.000Z</time>
      </trkpt>
      <trkpt lat="44.14756" lon="7.26045">
        <ele>2604.8000488281</ele>
        <time>2019-02-10T11:33:32.000Z</time>
      </trkpt>
      <trkpt lat="44.1476" lon="7.26048">
        <ele>2605.3999023438</ele>
        <time>2019-02-10T11:33:37.000Z</time>
      </trkpt>
      <trkpt lat="44.14761" lon="7.26049">
        <ele>2606.3999023438</ele>
        <time>2019-02-10T11:33:41.000Z</time>
      </trkpt>
      <trkpt lat="44.14759" lon="7.2605">
        <ele>2607.8000488281</ele>
        <time>2019-02-10T11:33:47.000Z</time>
      </trkpt>
      <trkpt lat="44.14759" lon="7.2605">
        <ele>2609</ele>
        <time>2019-02-10T11:33:50.000Z</time>
      </trkpt>
      <trkpt lat="44.14757" lon="7.2605">
        <ele>2607.8000488281</ele>
        <time>2019-02-10T11:33:59.000Z</time>
      </trkpt>
      <trkpt lat="44.14753" lon="7.2605">
        <ele>2608.6000976562</ele>
        <time>2019-02-10T11:34:15.000Z</time>
      </trkpt>
      <trkpt lat="44.14752" lon="7.26049">
        <ele>2608.1999511719</ele>
        <time>2019-02-10T11:34:19.000Z</time>
      </trkpt>
      <trkpt lat="44.1475" lon="7.26049">
        <ele>2607.3999023438</ele>
        <time>2019-02-10T11:34:23.000Z</time>
      </trkpt>
      <trkpt lat="44.14744" lon="7.26048">
        <ele>2608.3999023438</ele>
        <time>2019-02-10T11:34:33.000Z</time>
      </trkpt>
      <trkpt lat="44.14742" lon="7.26047">
        <ele>2609.1999511719</ele>
        <time>2019-02-10T11:34:36.000Z</time>
      </trkpt>
      <trkpt lat="44.1474" lon="7.26047">
        <ele>2610.1999511719</ele>
        <time>2019-02-10T11:34:40.000Z</time>
      </trkpt>
      <trkpt lat="44.14736" lon="7.26045">
        <ele>2611.3999023438</ele>
        <time>2019-02-10T11:34:53.000Z</time>
      </trkpt>
      <trkpt lat="44.14729" lon="7.26042">
        <ele>2612.3999023438</ele>
        <time>2019-02-10T11:35:11.000Z</time>
      </trkpt>
      <trkpt lat="44.1473" lon="7.26041">
        <ele>2612.8000488281</ele>
        <time>2019-02-10T11:35:17.000Z</time>
      </trkpt>
      <trkpt lat="44.1473" lon="7.26044">
        <ele>2613</ele>
        <time>2019-02-10T11:35:25.000Z</time>
      </trkpt>
      <trkpt lat="44.14736" lon="7.26045">
        <ele>2613.6000976562</ele>
        <time>2019-02-10T11:35:29.000Z</time>
      </trkpt>
      <trkpt lat="44.14734" lon="7.26045">
        <ele>2614.6000976562</ele>
        <time>2019-02-10T11:35:40.000Z</time>
      </trkpt>
      <trkpt lat="44.14734" lon="7.26045">
        <ele>2614.6000976562</ele>
        <time>2019-02-10T11:35:43.000Z</time>
      </trkpt>
      <trkpt lat="44.14731" lon="7.26045">
        <ele>2613.1999511719</ele>
        <time>2019-02-10T11:35:47.000Z</time>
      </trkpt>
      <trkpt lat="44.14733" lon="7.26048">
        <ele>2613</ele>
        <time>2019-02-10T11:35:50.000Z</time>
      </trkpt>
      <trkpt lat="44.14734" lon="7.26046">
        <ele>2614</ele>
        <time>2019-02-10T11:35:53.000Z</time>
      </trkpt>
      <trkpt lat="44.14734" lon="7.26045">
        <ele>2614.6000976562</ele>
        <time>2019-02-10T11:35:56.000Z</time>
      </trkpt>
      <trkpt lat="44.14732" lon="7.26044">
        <ele>2615.3999023438</ele>
        <time>2019-02-10T11:36:03.000Z</time>
      </trkpt>
      <trkpt lat="44.14732" lon="7.26045">
        <ele>2615.1999511719</ele>
        <time>2019-02-10T11:36:08.000Z</time>
      </trkpt>
      <trkpt lat="44.14732" lon="7.26046">
        <ele>2614.6000976562</ele>
        <time>2019-02-10T11:36:11.000Z</time>
      </trkpt>
      <trkpt lat="44.14733" lon="7.26047">
        <ele>2614.3999023438</ele>
        <time>2019-02-10T11:36:14.000Z</time>
      </trkpt>
      <trkpt lat="44.14733" lon="7.2605">
        <ele>2613.8000488281</ele>
        <time>2019-02-10T11:36:19.000Z</time>
      </trkpt>
      <trkpt lat="44.14733" lon="7.26053">
        <ele>2615.1999511719</ele>
        <time>2019-02-10T11:36:27.000Z</time>
      </trkpt>
      <trkpt lat="44.14734" lon="7.26054">
        <ele>2615.8000488281</ele>
        <time>2019-02-10T11:36:29.000Z</time>
      </trkpt>
      <trkpt lat="44.14734" lon="7.26057">
        <ele>2616.8000488281</ele>
        <time>2019-02-10T11:36:34.000Z</time>
      </trkpt>
      <trkpt lat="44.14738" lon="7.2606">
        <ele>2618</ele>
        <time>2019-02-10T11:36:39.000Z</time>
      </trkpt>
      <trkpt lat="44.14741" lon="7.26062">
        <ele>2619.1999511719</ele>
        <time>2019-02-10T11:36:42.000Z</time>
      </trkpt>
      <trkpt lat="44.14744" lon="7.26064">
        <ele>2620.1999511719</ele>
        <time>2019-02-10T11:36:45.000Z</time>
      </trkpt>
      <trkpt lat="44.14746" lon="7.26067">
        <ele>2621.3999023438</ele>
        <time>2019-02-10T11:36:49.000Z</time>
      </trkpt>
      <trkpt lat="44.14747" lon="7.26069">
        <ele>2622.1999511719</ele>
        <time>2019-02-10T11:36:52.000Z</time>
      </trkpt>
      <trkpt lat="44.14747" lon="7.2607">
        <ele>2622.8000488281</ele>
        <time>2019-02-10T11:36:53.000Z</time>
      </trkpt>
      <trkpt lat="44.14748" lon="7.26071">
        <ele>2622.6000976562</ele>
        <time>2019-02-10T11:36:54.000Z</time>
      </trkpt>
      <trkpt lat="44.14751" lon="7.26073">
        <ele>2622.6000976562</ele>
        <time>2019-02-10T11:36:57.000Z</time>
      </trkpt>
      <trkpt lat="44.14747" lon="7.26072">
        <ele>2623</ele>
        <time>2019-02-10T11:37:01.000Z</time>
      </trkpt>
      <trkpt lat="44.14738" lon="7.26072">
        <ele>2623.8000488281</ele>
        <time>2019-02-10T11:37:28.000Z</time>
      </trkpt>
      <trkpt lat="44.14737" lon="7.26071">
        <ele>2624</ele>
        <time>2019-02-10T11:37:33.000Z</time>
      </trkpt>
      <trkpt lat="44.14732" lon="7.26069">
        <ele>2624.6000976562</ele>
        <time>2019-02-10T11:37:48.000Z</time>
      </trkpt>
      <trkpt lat="44.14731" lon="7.26069">
        <ele>2624.6000976562</ele>
        <time>2019-02-10T11:37:49.000Z</time>
      </trkpt>
      <trkpt lat="44.14729" lon="7.26069">
        <ele>2624.8000488281</ele>
        <time>2019-02-10T11:37:53.000Z</time>
      </trkpt>
      <trkpt lat="44.14725" lon="7.26068">
        <ele>2626</ele>
        <time>2019-02-10T11:38:01.000Z</time>
      </trkpt>
      <trkpt lat="44.14722" lon="7.26067">
        <ele>2627</ele>
        <time>2019-02-10T11:38:14.000Z</time>
      </trkpt>
      <trkpt lat="44.14722" lon="7.26068">
        <ele>2628</ele>
        <time>2019-02-10T11:38:25.000Z</time>
      </trkpt>
      <trkpt lat="44.14724" lon="7.26071">
        <ele>2629.1999511719</ele>
        <time>2019-02-10T11:38:34.000Z</time>
      </trkpt>
      <trkpt lat="44.14727" lon="7.26075">
        <ele>2630.6000976562</ele>
        <time>2019-02-10T11:38:40.000Z</time>
      </trkpt>
      <trkpt lat="44.14727" lon="7.26079">
        <ele>2631.6000976562</ele>
        <time>2019-02-10T11:38:45.000Z</time>
      </trkpt>
      <trkpt lat="44.1473" lon="7.26085">
        <ele>2632.8000488281</ele>
        <time>2019-02-10T11:38:53.000Z</time>
      </trkpt>
      <trkpt lat="44.14731" lon="7.26087">
        <ele>2634</ele>
        <time>2019-02-10T11:38:55.000Z</time>
      </trkpt>
      <trkpt lat="44.14733" lon="7.26093">
        <ele>2634.3999023438</ele>
        <time>2019-02-10T11:39:06.000Z</time>
      </trkpt>
      <trkpt lat="44.14732" lon="7.26094">
        <ele>2635</ele>
        <time>2019-02-10T11:39:07.000Z</time>
      </trkpt>
      <trkpt lat="44.14733" lon="7.26092">
        <ele>2636.1999511719</ele>
        <time>2019-02-10T11:39:11.000Z</time>
      </trkpt>
      <trkpt lat="44.14724" lon="7.26093">
        <ele>2636.8000488281</ele>
        <time>2019-02-10T11:39:29.000Z</time>
      </trkpt>
      <trkpt lat="44.14726" lon="7.261">
        <ele>2637.3999023438</ele>
        <time>2019-02-10T11:39:41.000Z</time>
      </trkpt>
      <trkpt lat="44.14725" lon="7.261">
        <ele>2638</ele>
        <time>2019-02-10T11:39:47.000Z</time>
      </trkpt>
      <trkpt lat="44.14725" lon="7.261">
        <ele>2638</ele>
        <time>2019-02-10T11:39:48.000Z</time>
      </trkpt>
      <trkpt lat="44.14725" lon="7.261">
        <ele>2638.1999511719</ele>
        <time>2019-02-10T11:39:49.000Z</time>
      </trkpt>
      <trkpt lat="44.14725" lon="7.261">
        <ele>2638.1999511719</ele>
        <time>2019-02-10T11:39:50.000Z</time>
      </trkpt>
      <trkpt lat="44.14724" lon="7.261">
        <ele>2638.1999511719</ele>
        <time>2019-02-10T11:39:55.000Z</time>
      </trkpt>
      <trkpt lat="44.14724" lon="7.26099">
        <ele>2638</ele>
        <time>2019-02-10T11:39:57.000Z</time>
      </trkpt>
      <trkpt lat="44.14719" lon="7.26098">
        <ele>2638.3999023438</ele>
        <time>2019-02-10T11:40:06.000Z</time>
      </trkpt>
      <trkpt lat="44.14719" lon="7.26098">
        <ele>2638.6000976562</ele>
        <time>2019-02-10T11:40:13.000Z</time>
      </trkpt>
      <trkpt lat="44.14721" lon="7.261">
        <ele>2637.8000488281</ele>
        <time>2019-02-10T11:40:28.000Z</time>
      </trkpt>
      <trkpt lat="44.14722" lon="7.26101">
        <ele>2637.8000488281</ele>
        <time>2019-02-10T11:40:29.000Z</time>
      </trkpt>
      <trkpt lat="44.14721" lon="7.26104">
        <ele>2639</ele>
        <time>2019-02-10T11:40:44.000Z</time>
      </trkpt>
      <trkpt lat="44.14718" lon="7.26104">
        <ele>2639.3999023438</ele>
        <time>2019-02-10T11:40:51.000Z</time>
      </trkpt>
      <trkpt lat="44.14718" lon="7.26105">
        <ele>2640.6000976562</ele>
        <time>2019-02-10T11:41:06.000Z</time>
      </trkpt>
      <trkpt lat="44.14718" lon="7.26107">
        <ele>2641.8000488281</ele>
        <time>2019-02-10T11:41:10.000Z</time>
      </trkpt>
      <trkpt lat="44.14715" lon="7.26106">
        <ele>2642.1999511719</ele>
        <time>2019-02-10T11:41:44.000Z</time>
      </trkpt>
      <trkpt lat="44.14715" lon="7.26106">
        <ele>2642.8000488281</ele>
        <time>2019-02-10T11:41:49.000Z</time>
      </trkpt>
      <trkpt lat="44.14715" lon="7.26107">
        <ele>2643.8000488281</ele>
        <time>2019-02-10T11:41:53.000Z</time>
      </trkpt>
      <trkpt lat="44.14717" lon="7.26111">
        <ele>2644.3999023438</ele>
        <time>2019-02-10T11:42:04.000Z</time>
      </trkpt>
      <trkpt lat="44.14718" lon="7.26111">
        <ele>2645</ele>
        <time>2019-02-10T11:42:14.000Z</time>
      </trkpt>
      <trkpt lat="44.14707" lon="7.26119">
        <ele>2646</ele>
        <time>2019-02-10T11:42:33.000Z</time>
      </trkpt>
      <trkpt lat="44.14707" lon="7.26122">
        <ele>2646.3999023438</ele>
        <time>2019-02-10T11:42:37.000Z</time>
      </trkpt>
      <trkpt lat="44.14707" lon="7.26123">
        <ele>2646.3999023438</ele>
        <time>2019-02-10T11:42:38.000Z</time>
      </trkpt>
      <trkpt lat="44.14708" lon="7.26126">
        <ele>2646.6000976562</ele>
        <time>2019-02-10T11:42:44.000Z</time>
      </trkpt>
      <trkpt lat="44.14709" lon="7.26127">
        <ele>2646.8000488281</ele>
        <time>2019-02-10T11:42:46.000Z</time>
      </trkpt>
      <trkpt lat="44.14711" lon="7.26127">
        <ele>2647.1999511719</ele>
        <time>2019-02-10T11:42:50.000Z</time>
      </trkpt>
      <trkpt lat="44.14713" lon="7.26125">
        <ele>2647.8000488281</ele>
        <time>2019-02-10T11:42:55.000Z</time>
      </trkpt>
      <trkpt lat="44.14713" lon="7.26124">
        <ele>2648.3999023438</ele>
        <time>2019-02-10T11:42:58.000Z</time>
      </trkpt>
      <trkpt lat="44.14714" lon="7.26123">
        <ele>2649</ele>
        <time>2019-02-10T11:43:13.000Z</time>
      </trkpt>
      <trkpt lat="44.14713" lon="7.26122">
        <ele>2648.3999023438</ele>
        <time>2019-02-10T11:43:23.000Z</time>
      </trkpt>
      <trkpt lat="44.14711" lon="7.2612">
        <ele>2648.3999023438</ele>
        <time>2019-02-10T11:43:27.000Z</time>
      </trkpt>
      <trkpt lat="44.14713" lon="7.2612">
        <ele>2648.3999023438</ele>
        <time>2019-02-10T11:43:31.000Z</time>
      </trkpt>
      <trkpt lat="44.14713" lon="7.2612">
        <ele>2648.6000976562</ele>
        <time>2019-02-10T11:43:34.000Z</time>
      </trkpt>
      <trkpt lat="44.14712" lon="7.26119">
        <ele>2649.3999023438</ele>
        <time>2019-02-10T11:43:38.000Z</time>
      </trkpt>
      <trkpt lat="44.14711" lon="7.26119">
        <ele>2649.3999023438</ele>
        <time>2019-02-10T11:43:42.000Z</time>
      </trkpt>
      <trkpt lat="44.14711" lon="7.26116">
        <ele>2648.8000488281</ele>
        <time>2019-02-10T11:43:47.000Z</time>
      </trkpt>
      <trkpt lat="44.14711" lon="7.26116">
        <ele>2648.3999023438</ele>
        <time>2019-02-10T11:43:49.000Z</time>
      </trkpt>
      <trkpt lat="44.1471" lon="7.26116">
        <ele>2648</ele>
        <time>2019-02-10T11:43:52.000Z</time>
      </trkpt>
      <trkpt lat="44.14711" lon="7.26117">
        <ele>2649.1999511719</ele>
        <time>2019-02-10T11:44:06.000Z</time>
      </trkpt>
      <trkpt lat="44.1471" lon="7.26119">
        <ele>2647.3999023438</ele>
        <time>2019-02-10T11:44:17.000Z</time>
      </trkpt>
      <trkpt lat="44.1471" lon="7.26119">
        <ele>2648.1999511719</ele>
        <time>2019-02-10T11:44:25.000Z</time>
      </trkpt>
      <trkpt lat="44.14712" lon="7.26118">
        <ele>2648.1999511719</ele>
        <time>2019-02-10T11:44:36.000Z</time>
      </trkpt>
      <trkpt lat="44.14714" lon="7.26118">
        <ele>2648.6000976562</ele>
        <time>2019-02-10T11:44:47.000Z</time>
      </trkpt>
      <trkpt lat="44.14713" lon="7.26119">
        <ele>2648.6000976562</ele>
        <time>2019-02-10T11:44:59.000Z</time>
      </trkpt>
      <trkpt lat="44.14712" lon="7.26119">
        <ele>2648.6000976562</ele>
        <time>2019-02-10T11:45:10.000Z</time>
      </trkpt>
      <trkpt lat="44.14713" lon="7.2612">
        <ele>2648.6000976562</ele>
        <time>2019-02-10T11:45:12.000Z</time>
      </trkpt>
      <trkpt lat="44.14714" lon="7.26121">
        <ele>2648.6000976562</ele>
        <time>2019-02-10T11:45:17.000Z</time>
      </trkpt>
      <trkpt lat="44.14714" lon="7.26122">
        <ele>2648.6000976562</ele>
        <time>2019-02-10T11:45:19.000Z</time>
      </trkpt>
      <trkpt lat="44.14715" lon="7.26122">
        <ele>2648.6000976562</ele>
        <time>2019-02-10T11:45:21.000Z</time>
      </trkpt>
      <trkpt lat="44.14715" lon="7.26122">
        <ele>2648.6000976562</ele>
        <time>2019-02-10T11:45:24.000Z</time>
      </trkpt>
      <trkpt lat="44.14714" lon="7.26122">
        <ele>2648.6000976562</ele>
        <time>2019-02-10T11:45:26.000Z</time>
      </trkpt>
      <trkpt lat="44.14712" lon="7.26121">
        <ele>2648.6000976562</ele>
        <time>2019-02-10T11:45:37.000Z</time>
      </trkpt>
      <trkpt lat="44.14712" lon="7.26122">
        <ele>2648.6000976562</ele>
        <time>2019-02-10T11:45:41.000Z</time>
      </trkpt>
      <trkpt lat="44.14712" lon="7.26122">
        <ele>2648.6000976562</ele>
        <time>2019-02-10T11:45:44.000Z</time>
      </trkpt>
      <trkpt lat="44.14712" lon="7.26122">
        <ele>2648.6000976562</ele>
        <time>2019-02-10T11:45:50.000Z</time>
      </trkpt>
      <trkpt lat="44.14713" lon="7.26121">
        <ele>2648.6000976562</ele>
        <time>2019-02-10T11:45:58.000Z</time>
      </trkpt>
      <trkpt lat="44.14713" lon="7.26121">
        <ele>2648.6000976562</ele>
        <time>2019-02-10T11:45:59.000Z</time>
      </trkpt>
      <trkpt lat="44.14714" lon="7.26122">
        <ele>2648.6000976562</ele>
        <time>2019-02-10T11:46:04.000Z</time>
      </trkpt>
      <trkpt lat="44.14715" lon="7.26121">
        <ele>2648.6000976562</ele>
        <time>2019-02-10T11:46:19.000Z</time>
      </trkpt>
      <trkpt lat="44.14716" lon="7.26121">
        <ele>2648.6000976562</ele>
        <time>2019-02-10T11:46:30.000Z</time>
      </trkpt>
      <trkpt lat="44.14716" lon="7.26121">
        <ele>2648.6000976562</ele>
        <time>2019-02-10T11:46:37.000Z</time>
      </trkpt>
      <trkpt lat="44.14716" lon="7.26123">
        <ele>2648.6000976562</ele>
        <time>2019-02-10T11:46:46.000Z</time>
      </trkpt>
      <trkpt lat="44.14719" lon="7.26124">
        <ele>2648.6000976562</ele>
        <time>2019-02-10T11:46:56.000Z</time>
      </trkpt>
      <trkpt lat="44.14718" lon="7.26124">
        <ele>2648.6000976562</ele>
        <time>2019-02-10T11:46:57.000Z</time>
      </trkpt>
      <trkpt lat="44.14718" lon="7.26124">
        <ele>2648.6000976562</ele>
        <time>2019-02-10T11:47:02.000Z</time>
      </trkpt>
      <trkpt lat="44.14717" lon="7.26125">
        <ele>2648.6000976562</ele>
        <time>2019-02-10T11:47:18.000Z</time>
      </trkpt>
      <trkpt lat="44.14719" lon="7.26124">
        <ele>2648.6000976562</ele>
        <time>2019-02-10T11:47:26.000Z</time>
      </trkpt>
      <trkpt lat="44.14718" lon="7.26125">
        <ele>2648.6000976562</ele>
        <time>2019-02-10T11:47:28.000Z</time>
      </trkpt>
      <trkpt lat="44.14717" lon="7.26127">
        <ele>2648.6000976562</ele>
        <time>2019-02-10T11:47:32.000Z</time>
      </trkpt>
      <trkpt lat="44.14716" lon="7.26127">
        <ele>2648.6000976562</ele>
        <time>2019-02-10T11:47:40.000Z</time>
      </trkpt>
      <trkpt lat="44.14716" lon="7.26127">
        <ele>2648.6000976562</ele>
        <time>2019-02-10T11:47:44.000Z</time>
      </trkpt>
      <trkpt lat="44.14715" lon="7.26127">
        <ele>2648.6000976562</ele>
        <time>2019-02-10T11:47:50.000Z</time>
      </trkpt>
      <trkpt lat="44.14715" lon="7.26128">
        <ele>2648.6000976562</ele>
        <time>2019-02-10T11:47:53.000Z</time>
      </trkpt>
      <trkpt lat="44.14716" lon="7.26125">
        <ele>2648.6000976562</ele>
        <time>2019-02-10T11:48:06.000Z</time>
      </trkpt>
      <trkpt lat="44.14714" lon="7.26122">
        <ele>2648.6000976562</ele>
        <time>2019-02-10T11:48:10.000Z</time>
      </trkpt>
      <trkpt lat="44.14714" lon="7.2612">
        <ele>2648.6000976562</ele>
        <time>2019-02-10T11:48:15.000Z</time>
      </trkpt>
      <trkpt lat="44.14713" lon="7.2612">
        <ele>2648.6000976562</ele>
        <time>2019-02-10T11:48:18.000Z</time>
      </trkpt>
      <trkpt lat="44.14713" lon="7.2612">
        <ele>2648.6000976562</ele>
        <time>2019-02-10T11:48:21.000Z</time>
      </trkpt>
      <trkpt lat="44.14713" lon="7.2612">
        <ele>2648.6000976562</ele>
        <time>2019-02-10T11:48:24.000Z</time>
      </trkpt>
      <trkpt lat="44.14712" lon="7.2612">
        <ele>2648.6000976562</ele>
        <time>2019-02-10T11:48:27.000Z</time>
      </trkpt>
      <trkpt lat="44.14712" lon="7.2612">
        <ele>2648.6000976562</ele>
        <time>2019-02-10T11:48:31.000Z</time>
      </trkpt>
      <trkpt lat="44.14712" lon="7.26121">
        <ele>2648.6000976562</ele>
        <time>2019-02-10T11:48:39.000Z</time>
      </trkpt>
      <trkpt lat="44.14713" lon="7.26121">
        <ele>2648.6000976562</ele>
        <time>2019-02-10T11:48:41.000Z</time>
      </trkpt>
      <trkpt lat="44.14713" lon="7.26121">
        <ele>2648.6000976562</ele>
        <time>2019-02-10T11:48:42.000Z</time>
      </trkpt>
      <trkpt lat="44.14713" lon="7.26121">
        <ele>2648.6000976562</ele>
        <time>2019-02-10T11:48:44.000Z</time>
      </trkpt>
      <trkpt lat="44.14714" lon="7.26122">
        <ele>2648.6000976562</ele>
        <time>2019-02-10T11:48:51.000Z</time>
      </trkpt>
      <trkpt lat="44.14714" lon="7.26123">
        <ele>2648.6000976562</ele>
        <time>2019-02-10T11:48:54.000Z</time>
      </trkpt>
      <trkpt lat="44.14713" lon="7.26123">
        <ele>2648.6000976562</ele>
        <time>2019-02-10T11:48:57.000Z</time>
      </trkpt>
      <trkpt lat="44.14714" lon="7.26123">
        <ele>2648.6000976562</ele>
        <time>2019-02-10T11:49:05.000Z</time>
      </trkpt>
      <trkpt lat="44.14714" lon="7.26123">
        <ele>2648.6000976562</ele>
        <time>2019-02-10T11:49:06.000Z</time>
      </trkpt>
      <trkpt lat="44.14715" lon="7.26124">
        <ele>2648.6000976562</ele>
        <time>2019-02-10T11:49:11.000Z</time>
      </trkpt>
      <trkpt lat="44.14715" lon="7.26124">
        <ele>2648.6000976562</ele>
        <time>2019-02-10T11:49:13.000Z</time>
      </trkpt>
      <trkpt lat="44.14717" lon="7.26124">
        <ele>2648.6000976562</ele>
        <time>2019-02-10T11:49:20.000Z</time>
      </trkpt>
      <trkpt lat="44.14717" lon="7.26126">
        <ele>2648.6000976562</ele>
        <time>2019-02-10T11:49:26.000Z</time>
      </trkpt>
      <trkpt lat="44.14717" lon="7.26126">
        <ele>2648.6000976562</ele>
        <time>2019-02-10T11:49:29.000Z</time>
      </trkpt>
      <trkpt lat="44.14717" lon="7.26126">
        <ele>2648.6000976562</ele>
        <time>2019-02-10T11:49:31.000Z</time>
      </trkpt>
      <trkpt lat="44.14717" lon="7.26126">
        <ele>2648.6000976562</ele>
        <time>2019-02-10T11:49:33.000Z</time>
      </trkpt>
      <trkpt lat="44.14717" lon="7.26126">
        <ele>2648.6000976562</ele>
        <time>2019-02-10T11:49:35.000Z</time>
      </trkpt>
      <trkpt lat="44.14718" lon="7.26125">
        <ele>2648.6000976562</ele>
        <time>2019-02-10T11:49:46.000Z</time>
      </trkpt>
      <trkpt lat="44.14718" lon="7.26125">
        <ele>2651.6000976562</ele>
        <time>2019-02-10T11:49:49.000Z</time>
      </trkpt>
      <trkpt lat="44.14718" lon="7.26125">
        <ele>2649.8000488281</ele>
        <time>2019-02-10T11:49:50.000Z</time>
      </trkpt>
      <trkpt lat="44.14718" lon="7.26125">
        <ele>2648.6000976562</ele>
        <time>2019-02-10T11:49:52.000Z</time>
      </trkpt>
      <trkpt lat="44.14716" lon="7.26125">
        <ele>2649.3999023438</ele>
        <time>2019-02-10T11:50:08.000Z</time>
      </trkpt>
      <trkpt lat="44.14716" lon="7.26125">
        <ele>2649.6000976562</ele>
        <time>2019-02-10T11:50:12.000Z</time>
      </trkpt>
      <trkpt lat="44.14716" lon="7.26125">
        <ele>2649.6000976562</ele>
        <time>2019-02-10T11:50:13.000Z</time>
      </trkpt>
      <trkpt lat="44.14715" lon="7.26125">
        <ele>2649.8000488281</ele>
        <time>2019-02-10T11:50:17.000Z</time>
      </trkpt>
      <trkpt lat="44.14714" lon="7.26126">
        <ele>2649.1999511719</ele>
        <time>2019-02-10T11:50:21.000Z</time>
      </trkpt>
      <trkpt lat="44.14714" lon="7.26128">
        <ele>2648.8000488281</ele>
        <time>2019-02-10T11:50:29.000Z</time>
      </trkpt>
      <trkpt lat="44.14713" lon="7.26128">
        <ele>2648.6000976562</ele>
        <time>2019-02-10T11:50:32.000Z</time>
      </trkpt>
      <trkpt lat="44.14713" lon="7.26127">
        <ele>2648</ele>
        <time>2019-02-10T11:50:45.000Z</time>
      </trkpt>
      <trkpt lat="44.14714" lon="7.26127">
        <ele>2648</ele>
        <time>2019-02-10T11:50:57.000Z</time>
      </trkpt>
      <trkpt lat="44.14713" lon="7.26128">
        <ele>2648</ele>
        <time>2019-02-10T11:51:01.000Z</time>
      </trkpt>
      <trkpt lat="44.14713" lon="7.26128">
        <ele>2647.8000488281</ele>
        <time>2019-02-10T11:51:06.000Z</time>
      </trkpt>
      <trkpt lat="44.14713" lon="7.26128">
        <ele>2647.6000976562</ele>
        <time>2019-02-10T11:51:08.000Z</time>
      </trkpt>
      <trkpt lat="44.14713" lon="7.26128">
        <ele>2647.6000976562</ele>
        <time>2019-02-10T11:51:09.000Z</time>
      </trkpt>
      <trkpt lat="44.14713" lon="7.26128">
        <ele>2647.3999023438</ele>
        <time>2019-02-10T11:51:12.000Z</time>
      </trkpt>
      <trkpt lat="44.14714" lon="7.26129">
        <ele>2647.6000976562</ele>
        <time>2019-02-10T11:51:15.000Z</time>
      </trkpt>
      <trkpt lat="44.14712" lon="7.2613">
        <ele>2648.8000488281</ele>
        <time>2019-02-10T11:51:30.000Z</time>
      </trkpt>
      <trkpt lat="44.14712" lon="7.26128">
        <ele>2648.6000976562</ele>
        <time>2019-02-10T11:51:38.000Z</time>
      </trkpt>
      <trkpt lat="44.14713" lon="7.26127">
        <ele>2649</ele>
        <time>2019-02-10T11:51:45.000Z</time>
      </trkpt>
      <trkpt lat="44.14713" lon="7.26127">
        <ele>2649.1999511719</ele>
        <time>2019-02-10T11:51:52.000Z</time>
      </trkpt>
      <trkpt lat="44.14714" lon="7.26127">
        <ele>2649.3999023438</ele>
        <time>2019-02-10T11:51:56.000Z</time>
      </trkpt>
      <trkpt lat="44.14714" lon="7.26127">
        <ele>2649.3999023438</ele>
        <time>2019-02-10T11:51:59.000Z</time>
      </trkpt>
      <trkpt lat="44.14714" lon="7.26127">
        <ele>2649.8000488281</ele>
        <time>2019-02-10T11:52:02.000Z</time>
      </trkpt>
      <trkpt lat="44.14713" lon="7.26127">
        <ele>2650.1999511719</ele>
        <time>2019-02-10T11:52:06.000Z</time>
      </trkpt>
      <trkpt lat="44.14711" lon="7.26126">
        <ele>2649.3999023438</ele>
        <time>2019-02-10T11:52:17.000Z</time>
      </trkpt>
      <trkpt lat="44.14711" lon="7.26126">
        <ele>2649.3999023438</ele>
        <time>2019-02-10T11:52:18.000Z</time>
      </trkpt>
      <trkpt lat="44.1471" lon="7.26126">
        <ele>2649.6000976562</ele>
        <time>2019-02-10T11:52:24.000Z</time>
      </trkpt>
      <trkpt lat="44.14707" lon="7.26127">
        <ele>2649.6000976562</ele>
        <time>2019-02-10T11:52:29.000Z</time>
      </trkpt>
      <trkpt lat="44.14706" lon="7.26126">
        <ele>2649</ele>
        <time>2019-02-10T11:52:33.000Z</time>
      </trkpt>
      <trkpt lat="44.14707" lon="7.26125">
        <ele>2648.8000488281</ele>
        <time>2019-02-10T11:52:38.000Z</time>
      </trkpt>
      <trkpt lat="44.14707" lon="7.26125">
        <ele>2648.6000976562</ele>
        <time>2019-02-10T11:52:41.000Z</time>
      </trkpt>
      <trkpt lat="44.14707" lon="7.26126">
        <ele>2648.6000976562</ele>
        <time>2019-02-10T11:52:46.000Z</time>
      </trkpt>
      <trkpt lat="44.14707" lon="7.26126">
        <ele>2648.3999023438</ele>
        <time>2019-02-10T11:52:49.000Z</time>
      </trkpt>
      <trkpt lat="44.14707" lon="7.26126">
        <ele>2647.8000488281</ele>
        <time>2019-02-10T11:52:55.000Z</time>
      </trkpt>
      <trkpt lat="44.14707" lon="7.26126">
        <ele>2647.8000488281</ele>
        <time>2019-02-10T11:52:56.000Z</time>
      </trkpt>
      <trkpt lat="44.14707" lon="7.26126">
        <ele>2647.8000488281</ele>
        <time>2019-02-10T11:52:57.000Z</time>
      </trkpt>
      <trkpt lat="44.14704" lon="7.26125">
        <ele>2648.3999023438</ele>
        <time>2019-02-10T11:53:01.000Z</time>
      </trkpt>
      <trkpt lat="44.14705" lon="7.26124">
        <ele>2648</ele>
        <time>2019-02-10T11:53:12.000Z</time>
      </trkpt>
      <trkpt lat="44.14705" lon="7.26125">
        <ele>2648.1999511719</ele>
        <time>2019-02-10T11:53:15.000Z</time>
      </trkpt>
      <trkpt lat="44.14706" lon="7.26126">
        <ele>2648.3999023438</ele>
        <time>2019-02-10T11:53:20.000Z</time>
      </trkpt>
      <trkpt lat="44.14708" lon="7.26127">
        <ele>2647.8000488281</ele>
        <time>2019-02-10T11:53:25.000Z</time>
      </trkpt>
      <trkpt lat="44.14709" lon="7.26127">
        <ele>2647.8000488281</ele>
        <time>2019-02-10T11:53:26.000Z</time>
      </trkpt>
      <trkpt lat="44.14709" lon="7.26127">
        <ele>2648</ele>
        <time>2019-02-10T11:53:29.000Z</time>
      </trkpt>
      <trkpt lat="44.1471" lon="7.26127">
        <ele>2648.1999511719</ele>
        <time>2019-02-10T11:53:35.000Z</time>
      </trkpt>
      <trkpt lat="44.14709" lon="7.26127">
        <ele>2648.1999511719</ele>
        <time>2019-02-10T11:53:40.000Z</time>
      </trkpt>
      <trkpt lat="44.14709" lon="7.26128">
        <ele>2648.3999023438</ele>
        <time>2019-02-10T11:53:42.000Z</time>
      </trkpt>
      <trkpt lat="44.14709" lon="7.26128">
        <ele>2648.8000488281</ele>
        <time>2019-02-10T11:53:44.000Z</time>
      </trkpt>
      <trkpt lat="44.14708" lon="7.26128">
        <ele>2649</ele>
        <time>2019-02-10T11:53:50.000Z</time>
      </trkpt>
      <trkpt lat="44.14709" lon="7.26128">
        <ele>2648.6000976562</ele>
        <time>2019-02-10T11:53:55.000Z</time>
      </trkpt>
      <trkpt lat="44.14709" lon="7.26128">
        <ele>2648.6000976562</ele>
        <time>2019-02-10T11:53:57.000Z</time>
      </trkpt>
      <trkpt lat="44.1471" lon="7.26127">
        <ele>2648.3999023438</ele>
        <time>2019-02-10T11:54:03.000Z</time>
      </trkpt>
      <trkpt lat="44.1471" lon="7.26127">
        <ele>2648.6000976562</ele>
        <time>2019-02-10T11:54:08.000Z</time>
      </trkpt>
      <trkpt lat="44.14713" lon="7.26124">
        <ele>2649</ele>
        <time>2019-02-10T11:54:31.000Z</time>
      </trkpt>
      <trkpt lat="44.14713" lon="7.26125">
        <ele>2648.8000488281</ele>
        <time>2019-02-10T11:54:35.000Z</time>
      </trkpt>
      <trkpt lat="44.14713" lon="7.26125">
        <ele>2648.8000488281</ele>
        <time>2019-02-10T11:54:36.000Z</time>
      </trkpt>
      <trkpt lat="44.14713" lon="7.26124">
        <ele>2648.6000976562</ele>
        <time>2019-02-10T11:54:40.000Z</time>
      </trkpt>
      <trkpt lat="44.14713" lon="7.26123">
        <ele>2648.3999023438</ele>
        <time>2019-02-10T11:54:43.000Z</time>
      </trkpt>
      <trkpt lat="44.14713" lon="7.26124">
        <ele>2648.6000976562</ele>
        <time>2019-02-10T11:54:45.000Z</time>
      </trkpt>
      <trkpt lat="44.14715" lon="7.26124">
        <ele>2649</ele>
        <time>2019-02-10T11:54:59.000Z</time>
      </trkpt>
      <trkpt lat="44.14715" lon="7.26123">
        <ele>2648.8000488281</ele>
        <time>2019-02-10T11:55:02.000Z</time>
      </trkpt>
      <trkpt lat="44.14715" lon="7.26124">
        <ele>2649</ele>
        <time>2019-02-10T11:55:15.000Z</time>
      </trkpt>
      <trkpt lat="44.14715" lon="7.26124">
        <ele>2649</ele>
        <time>2019-02-10T11:55:17.000Z</time>
      </trkpt>
      <trkpt lat="44.14714" lon="7.26125">
        <ele>2649</ele>
        <time>2019-02-10T11:56:05.000Z</time>
      </trkpt>
      <trkpt lat="44.14714" lon="7.26125">
        <ele>2649</ele>
        <time>2019-02-10T11:56:10.000Z</time>
      </trkpt>
      <trkpt lat="44.14714" lon="7.26126">
        <ele>2649</ele>
        <time>2019-02-10T11:56:13.000Z</time>
      </trkpt>
      <trkpt lat="44.14713" lon="7.26126">
        <ele>2649</ele>
        <time>2019-02-10T11:56:22.000Z</time>
      </trkpt>
      <trkpt lat="44.14713" lon="7.26126">
        <ele>2649</ele>
        <time>2019-02-10T11:56:24.000Z</time>
      </trkpt>
      <trkpt lat="44.14713" lon="7.26126">
        <ele>2649</ele>
        <time>2019-02-10T11:56:26.000Z</time>
      </trkpt>
      <trkpt lat="44.14713" lon="7.26125">
        <ele>2649</ele>
        <time>2019-02-10T11:56:33.000Z</time>
      </trkpt>
      <trkpt lat="44.14713" lon="7.26125">
        <ele>2649</ele>
        <time>2019-02-10T11:56:34.000Z</time>
      </trkpt>
      <trkpt lat="44.14713" lon="7.26126">
        <ele>2649</ele>
        <time>2019-02-10T11:56:38.000Z</time>
      </trkpt>
      <trkpt lat="44.14713" lon="7.26126">
        <ele>2649</ele>
        <time>2019-02-10T11:56:42.000Z</time>
      </trkpt>
      <trkpt lat="44.14713" lon="7.26126">
        <ele>2649</ele>
        <time>2019-02-10T11:56:44.000Z</time>
      </trkpt>
      <trkpt lat="44.14713" lon="7.26126">
        <ele>2649</ele>
        <time>2019-02-10T11:56:48.000Z</time>
      </trkpt>
      <trkpt lat="44.14713" lon="7.26126">
        <ele>2649</ele>
        <time>2019-02-10T11:56:52.000Z</time>
      </trkpt>
      <trkpt lat="44.14713" lon="7.26125">
        <ele>2649</ele>
        <time>2019-02-10T11:56:54.000Z</time>
      </trkpt>
      <trkpt lat="44.14713" lon="7.26125">
        <ele>2649</ele>
        <time>2019-02-10T11:56:56.000Z</time>
      </trkpt>
      <trkpt lat="44.14713" lon="7.26125">
        <ele>2649</ele>
        <time>2019-02-10T11:57:00.000Z</time>
      </trkpt>
      <trkpt lat="44.14712" lon="7.26125">
        <ele>2649</ele>
        <time>2019-02-10T11:57:04.000Z</time>
      </trkpt>
      <trkpt lat="44.14712" lon="7.26125">
        <ele>2649</ele>
        <time>2019-02-10T11:57:05.000Z</time>
      </trkpt>
      <trkpt lat="44.14712" lon="7.26125">
        <ele>2649</ele>
        <time>2019-02-10T11:57:07.000Z</time>
      </trkpt>
      <trkpt lat="44.14712" lon="7.26125">
        <ele>2649</ele>
        <time>2019-02-10T11:57:08.000Z</time>
      </trkpt>
      <trkpt lat="44.14712" lon="7.26125">
        <ele>2649</ele>
        <time>2019-02-10T11:57:09.000Z</time>
      </trkpt>
      <trkpt lat="44.14712" lon="7.26125">
        <ele>2649</ele>
        <time>2019-02-10T11:57:11.000Z</time>
      </trkpt>
      <trkpt lat="44.14712" lon="7.26125">
        <ele>2649</ele>
        <time>2019-02-10T11:57:12.000Z</time>
      </trkpt>
      <trkpt lat="44.14712" lon="7.26125">
        <ele>2649</ele>
        <time>2019-02-10T11:57:14.000Z</time>
      </trkpt>
      <trkpt lat="44.14711" lon="7.26125">
        <ele>2649</ele>
        <time>2019-02-10T11:57:16.000Z</time>
      </trkpt>
      <trkpt lat="44.1471" lon="7.26125">
        <ele>2649</ele>
        <time>2019-02-10T11:57:18.000Z</time>
      </trkpt>
      <trkpt lat="44.14709" lon="7.26125">
        <ele>2649</ele>
        <time>2019-02-10T11:57:22.000Z</time>
      </trkpt>
      <trkpt lat="44.14707" lon="7.26127">
        <ele>2649</ele>
        <time>2019-02-10T11:57:31.000Z</time>
      </trkpt>
      <trkpt lat="44.14707" lon="7.26128">
        <ele>2649</ele>
        <time>2019-02-10T11:57:36.000Z</time>
      </trkpt>
      <trkpt lat="44.14707" lon="7.26128">
        <ele>2649</ele>
        <time>2019-02-10T11:57:38.000Z</time>
      </trkpt>
      <trkpt lat="44.14706" lon="7.26127">
        <ele>2649</ele>
        <time>2019-02-10T11:57:46.000Z</time>
      </trkpt>
      <trkpt lat="44.14707" lon="7.26127">
        <ele>2649</ele>
        <time>2019-02-10T11:57:54.000Z</time>
      </trkpt>
      <trkpt lat="44.14707" lon="7.26127">
        <ele>2649</ele>
        <time>2019-02-10T11:57:55.000Z</time>
      </trkpt>
      <trkpt lat="44.14708" lon="7.26127">
        <ele>2649</ele>
        <time>2019-02-10T11:57:56.000Z</time>
      </trkpt>
      <trkpt lat="44.14708" lon="7.26126">
        <ele>2649</ele>
        <time>2019-02-10T11:57:59.000Z</time>
      </trkpt>
      <trkpt lat="44.1471" lon="7.26126">
        <ele>2649</ele>
        <time>2019-02-10T11:58:04.000Z</time>
      </trkpt>
      <trkpt lat="44.14713" lon="7.26126">
        <ele>2649</ele>
        <time>2019-02-10T11:58:11.000Z</time>
      </trkpt>
      <trkpt lat="44.14713" lon="7.26126">
        <ele>2649</ele>
        <time>2019-02-10T11:58:15.000Z</time>
      </trkpt>
      <trkpt lat="44.14714" lon="7.26126">
        <ele>2649</ele>
        <time>2019-02-10T11:58:22.000Z</time>
      </trkpt>
      <trkpt lat="44.14715" lon="7.26127">
        <ele>2649</ele>
        <time>2019-02-10T11:58:25.000Z</time>
      </trkpt>
      <trkpt lat="44.14715" lon="7.26126">
        <ele>2649</ele>
        <time>2019-02-10T11:58:28.000Z</time>
      </trkpt>
      <trkpt lat="44.14716" lon="7.26126">
        <ele>2649</ele>
        <time>2019-02-10T11:58:31.000Z</time>
      </trkpt>
      <trkpt lat="44.14716" lon="7.26126">
        <ele>2649</ele>
        <time>2019-02-10T11:58:37.000Z</time>
      </trkpt>
      <trkpt lat="44.14717" lon="7.26126">
        <ele>2649</ele>
        <time>2019-02-10T11:58:46.000Z</time>
      </trkpt>
      <trkpt lat="44.14717" lon="7.26126">
        <ele>2649</ele>
        <time>2019-02-10T11:58:53.000Z</time>
      </trkpt>
      <trkpt lat="44.14717" lon="7.26127">
        <ele>2649</ele>
        <time>2019-02-10T11:59:09.000Z</time>
      </trkpt>
      <trkpt lat="44.14716" lon="7.26127">
        <ele>2649</ele>
        <time>2019-02-10T11:59:11.000Z</time>
      </trkpt>
      <trkpt lat="44.14716" lon="7.26127">
        <ele>2649</ele>
        <time>2019-02-10T11:59:12.000Z</time>
      </trkpt>
      <trkpt lat="44.14716" lon="7.26127">
        <ele>2649</ele>
        <time>2019-02-10T11:59:20.000Z</time>
      </trkpt>
      <trkpt lat="44.14716" lon="7.26127">
        <ele>2649</ele>
        <time>2019-02-10T11:59:22.000Z</time>
      </trkpt>
      <trkpt lat="44.14715" lon="7.26127">
        <ele>2649</ele>
        <time>2019-02-10T11:59:23.000Z</time>
      </trkpt>
      <trkpt lat="44.14715" lon="7.26127">
        <ele>2649</ele>
        <time>2019-02-10T11:59:25.000Z</time>
      </trkpt>
      <trkpt lat="44.14716" lon="7.26126">
        <ele>2649</ele>
        <time>2019-02-10T11:59:34.000Z</time>
      </trkpt>
      <trkpt lat="44.14716" lon="7.26126">
        <ele>2649</ele>
        <time>2019-02-10T11:59:40.000Z</time>
      </trkpt>
      <trkpt lat="44.14716" lon="7.26126">
        <ele>2649</ele>
        <time>2019-02-10T11:59:47.000Z</time>
      </trkpt>
      <trkpt lat="44.14715" lon="7.26126">
        <ele>2649</ele>
        <time>2019-02-10T11:59:59.000Z</time>
      </trkpt>
      <trkpt lat="44.14714" lon="7.26126">
        <ele>2649</ele>
        <time>2019-02-10T12:00:01.000Z</time>
      </trkpt>
      <trkpt lat="44.14714" lon="7.26126">
        <ele>2649</ele>
        <time>2019-02-10T12:00:04.000Z</time>
      </trkpt>
      <trkpt lat="44.14715" lon="7.26125">
        <ele>2649</ele>
        <time>2019-02-10T12:00:12.000Z</time>
      </trkpt>
      <trkpt lat="44.14715" lon="7.26125">
        <ele>2649</ele>
        <time>2019-02-10T12:00:14.000Z</time>
      </trkpt>
      <trkpt lat="44.14715" lon="7.26126">
        <ele>2649</ele>
        <time>2019-02-10T12:00:15.000Z</time>
      </trkpt>
      <trkpt lat="44.14714" lon="7.26126">
        <ele>2649</ele>
        <time>2019-02-10T12:00:16.000Z</time>
      </trkpt>
      <trkpt lat="44.14714" lon="7.26127">
        <ele>2649</ele>
        <time>2019-02-10T12:00:23.000Z</time>
      </trkpt>
      <trkpt lat="44.14714" lon="7.26126">
        <ele>2649</ele>
        <time>2019-02-10T12:00:25.000Z</time>
      </trkpt>
      <trkpt lat="44.14714" lon="7.26126">
        <ele>2649</ele>
        <time>2019-02-10T12:00:27.000Z</time>
      </trkpt>
      <trkpt lat="44.14714" lon="7.26129">
        <ele>2649</ele>
        <time>2019-02-10T12:00:37.000Z</time>
      </trkpt>
      <trkpt lat="44.14714" lon="7.26129">
        <ele>2649</ele>
        <time>2019-02-10T12:00:39.000Z</time>
      </trkpt>
      <trkpt lat="44.14713" lon="7.26129">
        <ele>2649</ele>
        <time>2019-02-10T12:00:41.000Z</time>
      </trkpt>
      <trkpt lat="44.14713" lon="7.26127">
        <ele>2649</ele>
        <time>2019-02-10T12:00:57.000Z</time>
      </trkpt>
      <trkpt lat="44.14713" lon="7.26128">
        <ele>2649</ele>
        <time>2019-02-10T12:01:02.000Z</time>
      </trkpt>
      <trkpt lat="44.14713" lon="7.26128">
        <ele>2649</ele>
        <time>2019-02-10T12:01:04.000Z</time>
      </trkpt>
      <trkpt lat="44.14713" lon="7.26128">
        <ele>2649</ele>
        <time>2019-02-10T12:01:07.000Z</time>
      </trkpt>
      <trkpt lat="44.14712" lon="7.26127">
        <ele>2649</ele>
        <time>2019-02-10T12:01:10.000Z</time>
      </trkpt>
      <trkpt lat="44.14712" lon="7.26126">
        <ele>2649</ele>
        <time>2019-02-10T12:01:19.000Z</time>
      </trkpt>
      <trkpt lat="44.14711" lon="7.26126">
        <ele>2649</ele>
        <time>2019-02-10T12:01:29.000Z</time>
      </trkpt>
      <trkpt lat="44.14711" lon="7.26127">
        <ele>2649</ele>
        <time>2019-02-10T12:01:34.000Z</time>
      </trkpt>
      <trkpt lat="44.14711" lon="7.26127">
        <ele>2649</ele>
        <time>2019-02-10T12:01:37.000Z</time>
      </trkpt>
      <trkpt lat="44.14711" lon="7.26127">
        <ele>2649</ele>
        <time>2019-02-10T12:01:39.000Z</time>
      </trkpt>
      <trkpt lat="44.14711" lon="7.26127">
        <ele>2649</ele>
        <time>2019-02-10T12:01:44.000Z</time>
      </trkpt>
      <trkpt lat="44.14711" lon="7.26127">
        <ele>2649</ele>
        <time>2019-02-10T12:01:46.000Z</time>
      </trkpt>
      <trkpt lat="44.14711" lon="7.26127">
        <ele>2649</ele>
        <time>2019-02-10T12:01:47.000Z</time>
      </trkpt>
      <trkpt lat="44.14711" lon="7.26127">
        <ele>2649</ele>
        <time>2019-02-10T12:01:48.000Z</time>
      </trkpt>
      <trkpt lat="44.14711" lon="7.26127">
        <ele>2649</ele>
        <time>2019-02-10T12:01:51.000Z</time>
      </trkpt>
      <trkpt lat="44.14711" lon="7.26127">
        <ele>2649</ele>
        <time>2019-02-10T12:01:52.000Z</time>
      </trkpt>
      <trkpt lat="44.14711" lon="7.26127">
        <ele>2649</ele>
        <time>2019-02-10T12:01:54.000Z</time>
      </trkpt>
      <trkpt lat="44.14711" lon="7.26127">
        <ele>2649</ele>
        <time>2019-02-10T12:01:55.000Z</time>
      </trkpt>
      <trkpt lat="44.14712" lon="7.26127">
        <ele>2649</ele>
        <time>2019-02-10T12:01:58.000Z</time>
      </trkpt>
      <trkpt lat="44.14712" lon="7.26127">
        <ele>2649</ele>
        <time>2019-02-10T12:02:06.000Z</time>
      </trkpt>
      <trkpt lat="44.14712" lon="7.26127">
        <ele>2649</ele>
        <time>2019-02-10T12:02:08.000Z</time>
      </trkpt>
      <trkpt lat="44.14712" lon="7.26126">
        <ele>2649</ele>
        <time>2019-02-10T12:02:10.000Z</time>
      </trkpt>
      <trkpt lat="44.14711" lon="7.26125">
        <ele>2649</ele>
        <time>2019-02-10T12:02:23.000Z</time>
      </trkpt>
      <trkpt lat="44.14711" lon="7.26125">
        <ele>2649</ele>
        <time>2019-02-10T12:02:24.000Z</time>
      </trkpt>
      <trkpt lat="44.14711" lon="7.26125">
        <ele>2649</ele>
        <time>2019-02-10T12:02:25.000Z</time>
      </trkpt>
      <trkpt lat="44.14711" lon="7.26125">
        <ele>2649</ele>
        <time>2019-02-10T12:02:27.000Z</time>
      </trkpt>
      <trkpt lat="44.14711" lon="7.26125">
        <ele>2649</ele>
        <time>2019-02-10T12:02:28.000Z</time>
      </trkpt>
      <trkpt lat="44.14711" lon="7.26125">
        <ele>2649</ele>
        <time>2019-02-10T12:02:29.000Z</time>
      </trkpt>
      <trkpt lat="44.14711" lon="7.26125">
        <ele>2649</ele>
        <time>2019-02-10T12:02:31.000Z</time>
      </trkpt>
      <trkpt lat="44.14712" lon="7.26126">
        <ele>2649</ele>
        <time>2019-02-10T12:02:41.000Z</time>
      </trkpt>
      <trkpt lat="44.14712" lon="7.26127">
        <ele>2649</ele>
        <time>2019-02-10T12:02:44.000Z</time>
      </trkpt>
      <trkpt lat="44.14711" lon="7.26126">
        <ele>2649</ele>
        <time>2019-02-10T12:02:50.000Z</time>
      </trkpt>
      <trkpt lat="44.14711" lon="7.26125">
        <ele>2649</ele>
        <time>2019-02-10T12:02:54.000Z</time>
      </trkpt>
      <trkpt lat="44.14711" lon="7.26125">
        <ele>2649</ele>
        <time>2019-02-10T12:02:56.000Z</time>
      </trkpt>
      <trkpt lat="44.14711" lon="7.26125">
        <ele>2649</ele>
        <time>2019-02-10T12:02:59.000Z</time>
      </trkpt>
      <trkpt lat="44.14711" lon="7.26125">
        <ele>2649</ele>
        <time>2019-02-10T12:03:06.000Z</time>
      </trkpt>
      <trkpt lat="44.1471" lon="7.26126">
        <ele>2649</ele>
        <time>2019-02-10T12:03:07.000Z</time>
      </trkpt>
      <trkpt lat="44.1471" lon="7.26126">
        <ele>2649</ele>
        <time>2019-02-10T12:03:11.000Z</time>
      </trkpt>
      <trkpt lat="44.14711" lon="7.26126">
        <ele>2649</ele>
        <time>2019-02-10T12:03:24.000Z</time>
      </trkpt>
      <trkpt lat="44.14711" lon="7.26126">
        <ele>2649</ele>
        <time>2019-02-10T12:03:28.000Z</time>
      </trkpt>
      <trkpt lat="44.14711" lon="7.26126">
        <ele>2649</ele>
        <time>2019-02-10T12:03:30.000Z</time>
      </trkpt>
      <trkpt lat="44.14711" lon="7.26126">
        <ele>2649</ele>
        <time>2019-02-10T12:03:32.000Z</time>
      </trkpt>
      <trkpt lat="44.14711" lon="7.26126">
        <ele>2649</ele>
        <time>2019-02-10T12:03:33.000Z</time>
      </trkpt>
      <trkpt lat="44.1471" lon="7.26126">
        <ele>2649</ele>
        <time>2019-02-10T12:03:36.000Z</time>
      </trkpt>
      <trkpt lat="44.1471" lon="7.26127">
        <ele>2649</ele>
        <time>2019-02-10T12:03:39.000Z</time>
      </trkpt>
      <trkpt lat="44.1471" lon="7.26126">
        <ele>2649</ele>
        <time>2019-02-10T12:03:42.000Z</time>
      </trkpt>
      <trkpt lat="44.14712" lon="7.26127">
        <ele>2649</ele>
        <time>2019-02-10T12:03:45.000Z</time>
      </trkpt>
      <trkpt lat="44.14712" lon="7.26127">
        <ele>2649</ele>
        <time>2019-02-10T12:03:52.000Z</time>
      </trkpt>
      <trkpt lat="44.14714" lon="7.26125">
        <ele>2649</ele>
        <time>2019-02-10T12:04:02.000Z</time>
      </trkpt>
      <trkpt lat="44.14715" lon="7.26125">
        <ele>2649</ele>
        <time>2019-02-10T12:04:03.000Z</time>
      </trkpt>
      <trkpt lat="44.14713" lon="7.26126">
        <ele>2649</ele>
        <time>2019-02-10T12:04:21.000Z</time>
      </trkpt>
      <trkpt lat="44.14713" lon="7.26126">
        <ele>2649</ele>
        <time>2019-02-10T12:04:22.000Z</time>
      </trkpt>
      <trkpt lat="44.14713" lon="7.26126">
        <ele>2649</ele>
        <time>2019-02-10T12:04:23.000Z</time>
      </trkpt>
      <trkpt lat="44.14713" lon="7.26126">
        <ele>2649</ele>
        <time>2019-02-10T12:04:25.000Z</time>
      </trkpt>
      <trkpt lat="44.14713" lon="7.26125">
        <ele>2649</ele>
        <time>2019-02-10T12:04:26.000Z</time>
      </trkpt>
      <trkpt lat="44.14712" lon="7.26124">
        <ele>2649</ele>
        <time>2019-02-10T12:04:28.000Z</time>
      </trkpt>
      <trkpt lat="44.14712" lon="7.26124">
        <ele>2649</ele>
        <time>2019-02-10T12:04:29.000Z</time>
      </trkpt>
      <trkpt lat="44.14712" lon="7.26124">
        <ele>2649</ele>
        <time>2019-02-10T12:04:30.000Z</time>
      </trkpt>
      <trkpt lat="44.1471" lon="7.26124">
        <ele>2649</ele>
        <time>2019-02-10T12:04:38.000Z</time>
      </trkpt>
      <trkpt lat="44.1471" lon="7.26124">
        <ele>2649</ele>
        <time>2019-02-10T12:04:39.000Z</time>
      </trkpt>
      <trkpt lat="44.1471" lon="7.26124">
        <ele>2649</ele>
        <time>2019-02-10T12:04:41.000Z</time>
      </trkpt>
      <trkpt lat="44.1471" lon="7.26124">
        <ele>2649</ele>
        <time>2019-02-10T12:04:42.000Z</time>
      </trkpt>
      <trkpt lat="44.1471" lon="7.26124">
        <ele>2649</ele>
        <time>2019-02-10T12:04:45.000Z</time>
      </trkpt>
      <trkpt lat="44.1471" lon="7.26125">
        <ele>2649</ele>
        <time>2019-02-10T12:04:51.000Z</time>
      </trkpt>
      <trkpt lat="44.14709" lon="7.26125">
        <ele>2649</ele>
        <time>2019-02-10T12:04:53.000Z</time>
      </trkpt>
      <trkpt lat="44.1471" lon="7.26125">
        <ele>2649</ele>
        <time>2019-02-10T12:04:54.000Z</time>
      </trkpt>
      <trkpt lat="44.1471" lon="7.26125">
        <ele>2649</ele>
        <time>2019-02-10T12:04:55.000Z</time>
      </trkpt>
      <trkpt lat="44.14711" lon="7.26126">
        <ele>2649</ele>
        <time>2019-02-10T12:04:56.000Z</time>
      </trkpt>
      <trkpt lat="44.14712" lon="7.26126">
        <ele>2649</ele>
        <time>2019-02-10T12:04:57.000Z</time>
      </trkpt>
      <trkpt lat="44.14713" lon="7.26127">
        <ele>2649</ele>
        <time>2019-02-10T12:04:58.000Z</time>
      </trkpt>
      <trkpt lat="44.14714" lon="7.26127">
        <ele>2649</ele>
        <time>2019-02-10T12:04:59.000Z</time>
      </trkpt>
      <trkpt lat="44.14714" lon="7.26128">
        <ele>2649</ele>
        <time>2019-02-10T12:05:00.000Z</time>
      </trkpt>
      <trkpt lat="44.14714" lon="7.26128">
        <ele>2649</ele>
        <time>2019-02-10T12:05:01.000Z</time>
      </trkpt>
      <trkpt lat="44.14714" lon="7.26128">
        <ele>2649</ele>
        <time>2019-02-10T12:05:02.000Z</time>
      </trkpt>
      <trkpt lat="44.14713" lon="7.26125">
        <ele>2649</ele>
        <time>2019-02-10T12:05:14.000Z</time>
      </trkpt>
      <trkpt lat="44.14713" lon="7.26125">
        <ele>2649</ele>
        <time>2019-02-10T12:05:16.000Z</time>
      </trkpt>
      <trkpt lat="44.14713" lon="7.26125">
        <ele>2649</ele>
        <time>2019-02-10T12:05:17.000Z</time>
      </trkpt>
      <trkpt lat="44.14712" lon="7.26125">
        <ele>2651.6000976562</ele>
        <time>2019-02-10T12:05:19.000Z</time>
      </trkpt>
      <trkpt lat="44.14712" lon="7.26125">
        <ele>2650.3999023438</ele>
        <time>2019-02-10T12:05:20.000Z</time>
      </trkpt>
      <trkpt lat="44.14712" lon="7.26125">
        <ele>2649.1999511719</ele>
        <time>2019-02-10T12:05:22.000Z</time>
      </trkpt>
      <trkpt lat="44.14712" lon="7.26125">
        <ele>2648.8000488281</ele>
        <time>2019-02-10T12:05:24.000Z</time>
      </trkpt>
      <trkpt lat="44.14712" lon="7.26126">
        <ele>2648.3999023438</ele>
        <time>2019-02-10T12:05:51.000Z</time>
      </trkpt>
      <trkpt lat="44.14712" lon="7.26126">
        <ele>2648.3999023438</ele>
        <time>2019-02-10T12:05:54.000Z</time>
      </trkpt>
      <trkpt lat="44.14713" lon="7.26126">
        <ele>2648.3999023438</ele>
        <time>2019-02-10T12:05:55.000Z</time>
      </trkpt>
      <trkpt lat="44.14713" lon="7.26126">
        <ele>2648.3999023438</ele>
        <time>2019-02-10T12:06:00.000Z</time>
      </trkpt>
      <trkpt lat="44.14713" lon="7.26126">
        <ele>2648.3999023438</ele>
        <time>2019-02-10T12:06:05.000Z</time>
      </trkpt>
      <trkpt lat="44.14713" lon="7.26126">
        <ele>2648.3999023438</ele>
        <time>2019-02-10T12:06:06.000Z</time>
      </trkpt>
      <trkpt lat="44.14713" lon="7.26126">
        <ele>2648.3999023438</ele>
        <time>2019-02-10T12:06:08.000Z</time>
      </trkpt>
      <trkpt lat="44.14713" lon="7.26126">
        <ele>2648.3999023438</ele>
        <time>2019-02-10T12:06:11.000Z</time>
      </trkpt>
      <trkpt lat="44.14713" lon="7.26126">
        <ele>2648.3999023438</ele>
        <time>2019-02-10T12:06:14.000Z</time>
      </trkpt>
      <trkpt lat="44.14713" lon="7.26126">
        <ele>2648.3999023438</ele>
        <time>2019-02-10T12:06:16.000Z</time>
      </trkpt>
      <trkpt lat="44.14714" lon="7.26126">
        <ele>2648.8000488281</ele>
        <time>2019-02-10T12:06:25.000Z</time>
      </trkpt>
      <trkpt lat="44.14715" lon="7.26125">
        <ele>2648.6000976562</ele>
        <time>2019-02-10T12:06:30.000Z</time>
      </trkpt>
      <trkpt lat="44.14715" lon="7.26124">
        <ele>2648.3999023438</ele>
        <time>2019-02-10T12:06:34.000Z</time>
      </trkpt>
      <trkpt lat="44.14715" lon="7.26124">
        <ele>2648.1999511719</ele>
        <time>2019-02-10T12:06:36.000Z</time>
      </trkpt>
      <trkpt lat="44.14715" lon="7.26123">
        <ele>2648.8000488281</ele>
        <time>2019-02-10T12:06:47.000Z</time>
      </trkpt>
      <trkpt lat="44.14714" lon="7.26122">
        <ele>2648.1999511719</ele>
        <time>2019-02-10T12:06:53.000Z</time>
      </trkpt>
      <trkpt lat="44.14714" lon="7.26121">
        <ele>2648.1999511719</ele>
        <time>2019-02-10T12:06:56.000Z</time>
      </trkpt>
      <trkpt lat="44.14714" lon="7.26121">
        <ele>2648.1999511719</ele>
        <time>2019-02-10T12:06:57.000Z</time>
      </trkpt>
      <trkpt lat="44.14714" lon="7.26121">
        <ele>2648.3999023438</ele>
        <time>2019-02-10T12:06:58.000Z</time>
      </trkpt>
      <trkpt lat="44.14714" lon="7.26121">
        <ele>2648.8000488281</ele>
        <time>2019-02-10T12:07:00.000Z</time>
      </trkpt>
      <trkpt lat="44.14714" lon="7.26121">
        <ele>2649</ele>
        <time>2019-02-10T12:07:01.000Z</time>
      </trkpt>
      <trkpt lat="44.14714" lon="7.2612">
        <ele>2649.1999511719</ele>
        <time>2019-02-10T12:07:02.000Z</time>
      </trkpt>
      <trkpt lat="44.14714" lon="7.2612">
        <ele>2650.3999023438</ele>
        <time>2019-02-10T12:07:05.000Z</time>
      </trkpt>
      <trkpt lat="44.14716" lon="7.26118">
        <ele>2650.8000488281</ele>
        <time>2019-02-10T12:07:11.000Z</time>
      </trkpt>
      <trkpt lat="44.14716" lon="7.26117">
        <ele>2650.6000976562</ele>
        <time>2019-02-10T12:07:12.000Z</time>
      </trkpt>
      <trkpt lat="44.14717" lon="7.26115">
        <ele>2649.8000488281</ele>
        <time>2019-02-10T12:07:14.000Z</time>
      </trkpt>
      <trkpt lat="44.14717" lon="7.26115">
        <ele>2649.3999023438</ele>
        <time>2019-02-10T12:07:15.000Z</time>
      </trkpt>
      <trkpt lat="44.14719" lon="7.26113">
        <ele>2648.6000976562</ele>
        <time>2019-02-10T12:07:17.000Z</time>
      </trkpt>
      <trkpt lat="44.14719" lon="7.26113">
        <ele>2648.3999023438</ele>
        <time>2019-02-10T12:07:18.000Z</time>
      </trkpt>
      <trkpt lat="44.14719" lon="7.26113">
        <ele>2648</ele>
        <time>2019-02-10T12:07:19.000Z</time>
      </trkpt>
      <trkpt lat="44.14719" lon="7.26113">
        <ele>2648</ele>
        <time>2019-02-10T12:07:20.000Z</time>
      </trkpt>
      <trkpt lat="44.14719" lon="7.26113">
        <ele>2647.8000488281</ele>
        <time>2019-02-10T12:07:21.000Z</time>
      </trkpt>
      <trkpt lat="44.14719" lon="7.26113">
        <ele>2647.6000976562</ele>
        <time>2019-02-10T12:07:22.000Z</time>
      </trkpt>
      <trkpt lat="44.14719" lon="7.26114">
        <ele>2647.3999023438</ele>
        <time>2019-02-10T12:07:26.000Z</time>
      </trkpt>
      <trkpt lat="44.14719" lon="7.26115">
        <ele>2647.6000976562</ele>
        <time>2019-02-10T12:07:29.000Z</time>
      </trkpt>
      <trkpt lat="44.14718" lon="7.26116">
        <ele>2647.6000976562</ele>
        <time>2019-02-10T12:07:30.000Z</time>
      </trkpt>
      <trkpt lat="44.14717" lon="7.26116">
        <ele>2647.8000488281</ele>
        <time>2019-02-10T12:07:33.000Z</time>
      </trkpt>
      <trkpt lat="44.14717" lon="7.26116">
        <ele>2648</ele>
        <time>2019-02-10T12:07:40.000Z</time>
      </trkpt>
      <trkpt lat="44.14716" lon="7.26116">
        <ele>2648.1999511719</ele>
        <time>2019-02-10T12:07:42.000Z</time>
      </trkpt>
      <trkpt lat="44.14716" lon="7.26118">
        <ele>2649</ele>
        <time>2019-02-10T12:07:50.000Z</time>
      </trkpt>
      <trkpt lat="44.14716" lon="7.26119">
        <ele>2649</ele>
        <time>2019-02-10T12:07:51.000Z</time>
      </trkpt>
      <trkpt lat="44.14716" lon="7.26119">
        <ele>2648.8000488281</ele>
        <time>2019-02-10T12:07:52.000Z</time>
      </trkpt>
      <trkpt lat="44.14716" lon="7.2612">
        <ele>2648.8000488281</ele>
        <time>2019-02-10T12:07:54.000Z</time>
      </trkpt>
      <trkpt lat="44.14715" lon="7.26121">
        <ele>2648.6000976562</ele>
        <time>2019-02-10T12:07:56.000Z</time>
      </trkpt>
      <trkpt lat="44.14715" lon="7.26122">
        <ele>2648.6000976562</ele>
        <time>2019-02-10T12:07:57.000Z</time>
      </trkpt>
      <trkpt lat="44.14715" lon="7.26122">
        <ele>2648.6000976562</ele>
        <time>2019-02-10T12:07:58.000Z</time>
      </trkpt>
      <trkpt lat="44.14715" lon="7.26122">
        <ele>2648.6000976562</ele>
        <time>2019-02-10T12:07:59.000Z</time>
      </trkpt>
      <trkpt lat="44.14714" lon="7.26122">
        <ele>2648.6000976562</ele>
        <time>2019-02-10T12:08:02.000Z</time>
      </trkpt>
      <trkpt lat="44.14714" lon="7.26123">
        <ele>2648.6000976562</ele>
        <time>2019-02-10T12:08:03.000Z</time>
      </trkpt>
      <trkpt lat="44.14714" lon="7.26123">
        <ele>2648.6000976562</ele>
        <time>2019-02-10T12:08:04.000Z</time>
      </trkpt>
      <trkpt lat="44.14714" lon="7.26122">
        <ele>2648.8000488281</ele>
        <time>2019-02-10T12:08:08.000Z</time>
      </trkpt>
      <trkpt lat="44.14714" lon="7.26122">
        <ele>2648.8000488281</ele>
        <time>2019-02-10T12:08:09.000Z</time>
      </trkpt>
      <trkpt lat="44.14715" lon="7.26121">
        <ele>2648.8000488281</ele>
        <time>2019-02-10T12:08:12.000Z</time>
      </trkpt>
      <trkpt lat="44.14715" lon="7.2612">
        <ele>2648.8000488281</ele>
        <time>2019-02-10T12:08:13.000Z</time>
      </trkpt>
      <trkpt lat="44.14715" lon="7.26121">
        <ele>2648.8000488281</ele>
        <time>2019-02-10T12:08:14.000Z</time>
      </trkpt>
      <trkpt lat="44.14715" lon="7.26121">
        <ele>2648.8000488281</ele>
        <time>2019-02-10T12:08:15.000Z</time>
      </trkpt>
      <trkpt lat="44.14715" lon="7.26121">
        <ele>2648.8000488281</ele>
        <time>2019-02-10T12:08:16.000Z</time>
      </trkpt>
      <trkpt lat="44.14715" lon="7.26122">
        <ele>2648.8000488281</ele>
        <time>2019-02-10T12:08:22.000Z</time>
      </trkpt>
      <trkpt lat="44.14715" lon="7.26121">
        <ele>2648.8000488281</ele>
        <time>2019-02-10T12:08:24.000Z</time>
      </trkpt>
      <trkpt lat="44.14715" lon="7.2612">
        <ele>2648.8000488281</ele>
        <time>2019-02-10T12:08:26.000Z</time>
      </trkpt>
      <trkpt lat="44.14716" lon="7.2612">
        <ele>2648.6000976562</ele>
        <time>2019-02-10T12:08:30.000Z</time>
      </trkpt>
      <trkpt lat="44.14716" lon="7.26119">
        <ele>2648.3999023438</ele>
        <time>2019-02-10T12:08:37.000Z</time>
      </trkpt>
      <trkpt lat="44.14715" lon="7.2612">
        <ele>2648.1999511719</ele>
        <time>2019-02-10T12:08:44.000Z</time>
      </trkpt>
      <trkpt lat="44.14714" lon="7.26121">
        <ele>2648.3999023438</ele>
        <time>2019-02-10T12:08:49.000Z</time>
      </trkpt>
      <trkpt lat="44.14714" lon="7.26121">
        <ele>2648.8000488281</ele>
        <time>2019-02-10T12:08:52.000Z</time>
      </trkpt>
      <trkpt lat="44.14714" lon="7.26121">
        <ele>2649</ele>
        <time>2019-02-10T12:08:54.000Z</time>
      </trkpt>
      <trkpt lat="44.14713" lon="7.26119">
        <ele>2649</ele>
        <time>2019-02-10T12:08:56.000Z</time>
      </trkpt>
      <trkpt lat="44.14711" lon="7.2612">
        <ele>2648</ele>
        <time>2019-02-10T12:09:01.000Z</time>
      </trkpt>
      <trkpt lat="44.14711" lon="7.26119">
        <ele>2648</ele>
        <time>2019-02-10T12:09:02.000Z</time>
      </trkpt>
      <trkpt lat="44.14711" lon="7.26116">
        <ele>2647.6000976562</ele>
        <time>2019-02-10T12:09:04.000Z</time>
      </trkpt>
      <trkpt lat="44.14711" lon="7.26115">
        <ele>2647</ele>
        <time>2019-02-10T12:09:06.000Z</time>
      </trkpt>
      <trkpt lat="44.14712" lon="7.26109">
        <ele>2646</ele>
        <time>2019-02-10T12:09:10.000Z</time>
      </trkpt>
      <trkpt lat="44.14713" lon="7.26109">
        <ele>2645.6000976562</ele>
        <time>2019-02-10T12:09:13.000Z</time>
      </trkpt>
      <trkpt lat="44.14713" lon="7.26109">
        <ele>2644.8000488281</ele>
        <time>2019-02-10T12:09:17.000Z</time>
      </trkpt>
      <trkpt lat="44.14714" lon="7.26109">
        <ele>2644.6000976562</ele>
        <time>2019-02-10T12:09:18.000Z</time>
      </trkpt>
      <trkpt lat="44.14717" lon="7.26108">
        <ele>2644</ele>
        <time>2019-02-10T12:09:20.000Z</time>
      </trkpt>
      <trkpt lat="44.14717" lon="7.26107">
        <ele>2643.6000976562</ele>
        <time>2019-02-10T12:09:21.000Z</time>
      </trkpt>
      <trkpt lat="44.14718" lon="7.26106">
        <ele>2643.3999023438</ele>
        <time>2019-02-10T12:09:22.000Z</time>
      </trkpt>
      <trkpt lat="44.14718" lon="7.26106">
        <ele>2642.6000976562</ele>
        <time>2019-02-10T12:09:24.000Z</time>
      </trkpt>
      <trkpt lat="44.14719" lon="7.26104">
        <ele>2641.3999023438</ele>
        <time>2019-02-10T12:09:27.000Z</time>
      </trkpt>
      <trkpt lat="44.14719" lon="7.26104">
        <ele>2641.3999023438</ele>
        <time>2019-02-10T12:09:29.000Z</time>
      </trkpt>
      <trkpt lat="44.1472" lon="7.26099">
        <ele>2640.3999023438</ele>
        <time>2019-02-10T12:09:37.000Z</time>
      </trkpt>
      <trkpt lat="44.14721" lon="7.26095">
        <ele>2639.1999511719</ele>
        <time>2019-02-10T12:09:44.000Z</time>
      </trkpt>
      <trkpt lat="44.14722" lon="7.26095">
        <ele>2638.1999511719</ele>
        <time>2019-02-10T12:09:49.000Z</time>
      </trkpt>
      <trkpt lat="44.14726" lon="7.26091">
        <ele>2637</ele>
        <time>2019-02-10T12:09:54.000Z</time>
      </trkpt>
      <trkpt lat="44.14726" lon="7.26092">
        <ele>2635.8000488281</ele>
        <time>2019-02-10T12:09:57.000Z</time>
      </trkpt>
      <trkpt lat="44.14729" lon="7.26092">
        <ele>2635</ele>
        <time>2019-02-10T12:10:01.000Z</time>
      </trkpt>
      <trkpt lat="44.14729" lon="7.26089">
        <ele>2634.8000488281</ele>
        <time>2019-02-10T12:10:03.000Z</time>
      </trkpt>
      <trkpt lat="44.14728" lon="7.26087">
        <ele>2634</ele>
        <time>2019-02-10T12:10:05.000Z</time>
      </trkpt>
      <trkpt lat="44.14728" lon="7.26087">
        <ele>2633.6000976562</ele>
        <time>2019-02-10T12:10:06.000Z</time>
      </trkpt>
      <trkpt lat="44.14727" lon="7.26084">
        <ele>2632.3999023438</ele>
        <time>2019-02-10T12:10:09.000Z</time>
      </trkpt>
      <trkpt lat="44.14725" lon="7.26078">
        <ele>2631.6000976562</ele>
        <time>2019-02-10T12:10:12.000Z</time>
      </trkpt>
      <trkpt lat="44.14726" lon="7.26076">
        <ele>2631.3999023438</ele>
        <time>2019-02-10T12:10:13.000Z</time>
      </trkpt>
      <trkpt lat="44.14728" lon="7.26072">
        <ele>2630.3999023438</ele>
        <time>2019-02-10T12:10:15.000Z</time>
      </trkpt>
      <trkpt lat="44.14731" lon="7.26072">
        <ele>2628.6000976562</ele>
        <time>2019-02-10T12:10:18.000Z</time>
      </trkpt>
      <trkpt lat="44.14731" lon="7.26072">
        <ele>2629</ele>
        <time>2019-02-10T12:10:20.000Z</time>
      </trkpt>
      <trkpt lat="44.14735" lon="7.26065">
        <ele>2627.1999511719</ele>
        <time>2019-02-10T12:10:36.000Z</time>
      </trkpt>
      <trkpt lat="44.14737" lon="7.26062">
        <ele>2626</ele>
        <time>2019-02-10T12:10:39.000Z</time>
      </trkpt>
      <trkpt lat="44.14739" lon="7.26058">
        <ele>2624.8000488281</ele>
        <time>2019-02-10T12:10:41.000Z</time>
      </trkpt>
      <trkpt lat="44.14741" lon="7.26058">
        <ele>2623.8000488281</ele>
        <time>2019-02-10T12:10:45.000Z</time>
      </trkpt>
      <trkpt lat="44.14741" lon="7.26056">
        <ele>2622.6000976562</ele>
        <time>2019-02-10T12:10:49.000Z</time>
      </trkpt>
      <trkpt lat="44.14741" lon="7.26057">
        <ele>2622.6000976562</ele>
        <time>2019-02-10T12:10:50.000Z</time>
      </trkpt>
      <trkpt lat="44.14741" lon="7.26058">
        <ele>2622.3999023438</ele>
        <time>2019-02-10T12:10:52.000Z</time>
      </trkpt>
      <trkpt lat="44.14742" lon="7.26062">
        <ele>2621.8000488281</ele>
        <time>2019-02-10T12:10:57.000Z</time>
      </trkpt>
      <trkpt lat="44.14743" lon="7.26057">
        <ele>2621.3999023438</ele>
        <time>2019-02-10T12:11:06.000Z</time>
      </trkpt>
      <trkpt lat="44.14747" lon="7.2605">
        <ele>2620.3999023438</ele>
        <time>2019-02-10T12:11:14.000Z</time>
      </trkpt>
      <trkpt lat="44.14747" lon="7.26051">
        <ele>2619.1999511719</ele>
        <time>2019-02-10T12:11:17.000Z</time>
      </trkpt>
      <trkpt lat="44.14748" lon="7.26051">
        <ele>2618.1999511719</ele>
        <time>2019-02-10T12:11:20.000Z</time>
      </trkpt>
      <trkpt lat="44.14748" lon="7.2605">
        <ele>2618</ele>
        <time>2019-02-10T12:11:21.000Z</time>
      </trkpt>
      <trkpt lat="44.14748" lon="7.26051">
        <ele>2616.6000976562</ele>
        <time>2019-02-10T12:11:24.000Z</time>
      </trkpt>
      <trkpt lat="44.14747" lon="7.26052">
        <ele>2615.3999023438</ele>
        <time>2019-02-10T12:11:27.000Z</time>
      </trkpt>
      <trkpt lat="44.14745" lon="7.26051">
        <ele>2614.1999511719</ele>
        <time>2019-02-10T12:11:29.000Z</time>
      </trkpt>
      <trkpt lat="44.14743" lon="7.26047">
        <ele>2612.3999023438</ele>
        <time>2019-02-10T12:11:31.000Z</time>
      </trkpt>
      <trkpt lat="44.14743" lon="7.26046">
        <ele>2611.3999023438</ele>
        <time>2019-02-10T12:11:32.000Z</time>
      </trkpt>
      <trkpt lat="44.14743" lon="7.26042">
        <ele>2610</ele>
        <time>2019-02-10T12:11:34.000Z</time>
      </trkpt>
      <trkpt lat="44.14741" lon="7.26036">
        <ele>2608.8000488281</ele>
        <time>2019-02-10T12:11:36.000Z</time>
      </trkpt>
      <trkpt lat="44.14745" lon="7.26033">
        <ele>2607.6000976562</ele>
        <time>2019-02-10T12:11:38.000Z</time>
      </trkpt>
      <trkpt lat="44.14747" lon="7.26032">
        <ele>2606.6000976562</ele>
        <time>2019-02-10T12:11:39.000Z</time>
      </trkpt>
      <trkpt lat="44.14748" lon="7.2603">
        <ele>2605.3999023438</ele>
        <time>2019-02-10T12:11:40.000Z</time>
      </trkpt>
      <trkpt lat="44.14747" lon="7.26027">
        <ele>2603.8000488281</ele>
        <time>2019-02-10T12:11:41.000Z</time>
      </trkpt>
      <trkpt lat="44.14746" lon="7.26022">
        <ele>2602.3999023438</ele>
        <time>2019-02-10T12:11:42.000Z</time>
      </trkpt>
      <trkpt lat="44.14745" lon="7.26017">
        <ele>2601</ele>
        <time>2019-02-10T12:11:43.000Z</time>
      </trkpt>
      <trkpt lat="44.14744" lon="7.26014">
        <ele>2600</ele>
        <time>2019-02-10T12:11:44.000Z</time>
      </trkpt>
      <trkpt lat="44.14745" lon="7.26013">
        <ele>2599.1999511719</ele>
        <time>2019-02-10T12:11:45.000Z</time>
      </trkpt>
      <trkpt lat="44.14745" lon="7.26012">
        <ele>2598.3999023438</ele>
        <time>2019-02-10T12:11:46.000Z</time>
      </trkpt>
      <trkpt lat="44.14745" lon="7.26011">
        <ele>2596.8000488281</ele>
        <time>2019-02-10T12:11:48.000Z</time>
      </trkpt>
      <trkpt lat="44.14749" lon="7.26007">
        <ele>2596</ele>
        <time>2019-02-10T12:11:51.000Z</time>
      </trkpt>
      <trkpt lat="44.1475" lon="7.26007">
        <ele>2595.6000976562</ele>
        <time>2019-02-10T12:11:52.000Z</time>
      </trkpt>
      <trkpt lat="44.14754" lon="7.26006">
        <ele>2594.1999511719</ele>
        <time>2019-02-10T12:11:54.000Z</time>
      </trkpt>
      <trkpt lat="44.14753" lon="7.25998">
        <ele>2593</ele>
        <time>2019-02-10T12:11:57.000Z</time>
      </trkpt>
      <trkpt lat="44.14753" lon="7.25994">
        <ele>2591.1999511719</ele>
        <time>2019-02-10T12:11:59.000Z</time>
      </trkpt>
      <trkpt lat="44.14752" lon="7.2599">
        <ele>2589.3999023438</ele>
        <time>2019-02-10T12:12:01.000Z</time>
      </trkpt>
      <trkpt lat="44.14751" lon="7.25986">
        <ele>2587.8000488281</ele>
        <time>2019-02-10T12:12:03.000Z</time>
      </trkpt>
      <trkpt lat="44.14749" lon="7.25981">
        <ele>2586.6000976562</ele>
        <time>2019-02-10T12:12:05.000Z</time>
      </trkpt>
      <trkpt lat="44.14749" lon="7.25979">
        <ele>2585.3999023438</ele>
        <time>2019-02-10T12:12:07.000Z</time>
      </trkpt>
      <trkpt lat="44.14748" lon="7.25976">
        <ele>2584.1999511719</ele>
        <time>2019-02-10T12:12:10.000Z</time>
      </trkpt>
      <trkpt lat="44.14747" lon="7.25973">
        <ele>2584</ele>
        <time>2019-02-10T12:12:11.000Z</time>
      </trkpt>
      <trkpt lat="44.14751" lon="7.25968">
        <ele>2583</ele>
        <time>2019-02-10T12:12:13.000Z</time>
      </trkpt>
      <trkpt lat="44.14752" lon="7.25968">
        <ele>2581.3999023438</ele>
        <time>2019-02-10T12:12:15.000Z</time>
      </trkpt>
      <trkpt lat="44.14752" lon="7.25967">
        <ele>2580.1999511719</ele>
        <time>2019-02-10T12:12:18.000Z</time>
      </trkpt>
      <trkpt lat="44.1476" lon="7.2597">
        <ele>2580.3999023438</ele>
        <time>2019-02-10T12:12:33.000Z</time>
      </trkpt>
      <trkpt lat="44.14766" lon="7.25969">
        <ele>2580.3999023438</ele>
        <time>2019-02-10T12:12:35.000Z</time>
      </trkpt>
      <trkpt lat="44.14763" lon="7.25967">
        <ele>2580.3999023438</ele>
        <time>2019-02-10T12:12:41.000Z</time>
      </trkpt>
      <trkpt lat="44.14763" lon="7.25966">
        <ele>2580.1999511719</ele>
        <time>2019-02-10T12:12:46.000Z</time>
      </trkpt>
      <trkpt lat="44.14762" lon="7.25967">
        <ele>2580.3999023438</ele>
        <time>2019-02-10T12:12:48.000Z</time>
      </trkpt>
      <trkpt lat="44.14763" lon="7.25968">
        <ele>2580.3999023438</ele>
        <time>2019-02-10T12:12:49.000Z</time>
      </trkpt>
      <trkpt lat="44.14763" lon="7.25968">
        <ele>2580.3999023438</ele>
        <time>2019-02-10T12:12:50.000Z</time>
      </trkpt>
      <trkpt lat="44.14766" lon="7.2597">
        <ele>2581</ele>
        <time>2019-02-10T12:12:54.000Z</time>
      </trkpt>
      <trkpt lat="44.14766" lon="7.2597">
        <ele>2581.1999511719</ele>
        <time>2019-02-10T12:12:56.000Z</time>
      </trkpt>
      <trkpt lat="44.14766" lon="7.25971">
        <ele>2581.3999023438</ele>
        <time>2019-02-10T12:12:59.000Z</time>
      </trkpt>
      <trkpt lat="44.14766" lon="7.25971">
        <ele>2581.3999023438</ele>
        <time>2019-02-10T12:13:00.000Z</time>
      </trkpt>
      <trkpt lat="44.14765" lon="7.25973">
        <ele>2581.1999511719</ele>
        <time>2019-02-10T12:13:05.000Z</time>
      </trkpt>
      <trkpt lat="44.14764" lon="7.25976">
        <ele>2581</ele>
        <time>2019-02-10T12:13:07.000Z</time>
      </trkpt>
      <trkpt lat="44.14762" lon="7.25975">
        <ele>2581</ele>
        <time>2019-02-10T12:13:08.000Z</time>
      </trkpt>
      <trkpt lat="44.14761" lon="7.25974">
        <ele>2581</ele>
        <time>2019-02-10T12:13:09.000Z</time>
      </trkpt>
      <trkpt lat="44.14761" lon="7.25974">
        <ele>2581</ele>
        <time>2019-02-10T12:13:10.000Z</time>
      </trkpt>
      <trkpt lat="44.14761" lon="7.25973">
        <ele>2581</ele>
        <time>2019-02-10T12:13:13.000Z</time>
      </trkpt>
      <trkpt lat="44.14761" lon="7.25973">
        <ele>2581</ele>
        <time>2019-02-10T12:13:14.000Z</time>
      </trkpt>
      <trkpt lat="44.14758" lon="7.25972">
        <ele>2581.3999023438</ele>
        <time>2019-02-10T12:13:23.000Z</time>
      </trkpt>
      <trkpt lat="44.14756" lon="7.25972">
        <ele>2581.6000976562</ele>
        <time>2019-02-10T12:13:27.000Z</time>
      </trkpt>
      <trkpt lat="44.14756" lon="7.25971">
        <ele>2581.6000976562</ele>
        <time>2019-02-10T12:13:28.000Z</time>
      </trkpt>
      <trkpt lat="44.14756" lon="7.2597">
        <ele>2581.6000976562</ele>
        <time>2019-02-10T12:13:29.000Z</time>
      </trkpt>
      <trkpt lat="44.14755" lon="7.25968">
        <ele>2581.3999023438</ele>
        <time>2019-02-10T12:13:33.000Z</time>
      </trkpt>
      <trkpt lat="44.14756" lon="7.25969">
        <ele>2581.3999023438</ele>
        <time>2019-02-10T12:13:40.000Z</time>
      </trkpt>
      <trkpt lat="44.14755" lon="7.25972">
        <ele>2581.3999023438</ele>
        <time>2019-02-10T12:13:42.000Z</time>
      </trkpt>
      <trkpt lat="44.14749" lon="7.25976">
        <ele>2580.8000488281</ele>
        <time>2019-02-10T12:13:50.000Z</time>
      </trkpt>
      <trkpt lat="44.1475" lon="7.25976">
        <ele>2580.8000488281</ele>
        <time>2019-02-10T12:13:52.000Z</time>
      </trkpt>
      <trkpt lat="44.14751" lon="7.25975">
        <ele>2580.8000488281</ele>
        <time>2019-02-10T12:13:54.000Z</time>
      </trkpt>
      <trkpt lat="44.14752" lon="7.25974">
        <ele>2580.8000488281</ele>
        <time>2019-02-10T12:13:55.000Z</time>
      </trkpt>
      <trkpt lat="44.14752" lon="7.25974">
        <ele>2580.8000488281</ele>
        <time>2019-02-10T12:13:56.000Z</time>
      </trkpt>
      <trkpt lat="44.14753" lon="7.25973">
        <ele>2580.8000488281</ele>
        <time>2019-02-10T12:13:57.000Z</time>
      </trkpt>
      <trkpt lat="44.14754" lon="7.25973">
        <ele>2580.8000488281</ele>
        <time>2019-02-10T12:13:59.000Z</time>
      </trkpt>
      <trkpt lat="44.14753" lon="7.25972">
        <ele>2580.8000488281</ele>
        <time>2019-02-10T12:14:00.000Z</time>
      </trkpt>
      <trkpt lat="44.14753" lon="7.25972">
        <ele>2580.8000488281</ele>
        <time>2019-02-10T12:14:04.000Z</time>
      </trkpt>
      <trkpt lat="44.14754" lon="7.25971">
        <ele>2580.8000488281</ele>
        <time>2019-02-10T12:14:05.000Z</time>
      </trkpt>
      <trkpt lat="44.14754" lon="7.25969">
        <ele>2580.6000976562</ele>
        <time>2019-02-10T12:14:11.000Z</time>
      </trkpt>
      <trkpt lat="44.14756" lon="7.25967">
        <ele>2580.6000976562</ele>
        <time>2019-02-10T12:14:15.000Z</time>
      </trkpt>
      <trkpt lat="44.14759" lon="7.25962">
        <ele>2580.1999511719</ele>
        <time>2019-02-10T12:14:22.000Z</time>
      </trkpt>
      <trkpt lat="44.14762" lon="7.2596">
        <ele>2580.1999511719</ele>
        <time>2019-02-10T12:14:26.000Z</time>
      </trkpt>
      <trkpt lat="44.14781" lon="7.25954">
        <ele>2581.3999023438</ele>
        <time>2019-02-10T12:14:33.000Z</time>
      </trkpt>
      <trkpt lat="44.14782" lon="7.25954">
        <ele>2581.3999023438</ele>
        <time>2019-02-10T12:14:36.000Z</time>
      </trkpt>
      <trkpt lat="44.14783" lon="7.25953">
        <ele>2581.3999023438</ele>
        <time>2019-02-10T12:14:37.000Z</time>
      </trkpt>
      <trkpt lat="44.14784" lon="7.25953">
        <ele>2581.6000976562</ele>
        <time>2019-02-10T12:14:41.000Z</time>
      </trkpt>
      <trkpt lat="44.14783" lon="7.25954">
        <ele>2581.6000976562</ele>
        <time>2019-02-10T12:14:43.000Z</time>
      </trkpt>
      <trkpt lat="44.14782" lon="7.25955">
        <ele>2581.6000976562</ele>
        <time>2019-02-10T12:14:45.000Z</time>
      </trkpt>
      <trkpt lat="44.14782" lon="7.25955">
        <ele>2581.6000976562</ele>
        <time>2019-02-10T12:14:46.000Z</time>
      </trkpt>
      <trkpt lat="44.14781" lon="7.25956">
        <ele>2581.8000488281</ele>
        <time>2019-02-10T12:14:47.000Z</time>
      </trkpt>
      <trkpt lat="44.14778" lon="7.25958">
        <ele>2581.8000488281</ele>
        <time>2019-02-10T12:14:48.000Z</time>
      </trkpt>
      <trkpt lat="44.14779" lon="7.25959">
        <ele>2581.8000488281</ele>
        <time>2019-02-10T12:14:50.000Z</time>
      </trkpt>
      <trkpt lat="44.14779" lon="7.25959">
        <ele>2581.8000488281</ele>
        <time>2019-02-10T12:14:51.000Z</time>
      </trkpt>
      <trkpt lat="44.14779" lon="7.25957">
        <ele>2582</ele>
        <time>2019-02-10T12:14:53.000Z</time>
      </trkpt>
      <trkpt lat="44.14778" lon="7.25957">
        <ele>2582</ele>
        <time>2019-02-10T12:14:54.000Z</time>
      </trkpt>
      <trkpt lat="44.14775" lon="7.25959">
        <ele>2582.3999023438</ele>
        <time>2019-02-10T12:14:57.000Z</time>
      </trkpt>
      <trkpt lat="44.14774" lon="7.2596">
        <ele>2582.6000976562</ele>
        <time>2019-02-10T12:15:00.000Z</time>
      </trkpt>
      <trkpt lat="44.14773" lon="7.25962">
        <ele>2583</ele>
        <time>2019-02-10T12:15:02.000Z</time>
      </trkpt>
      <trkpt lat="44.14772" lon="7.25964">
        <ele>2583.1999511719</ele>
        <time>2019-02-10T12:15:04.000Z</time>
      </trkpt>
      <trkpt lat="44.1476" lon="7.25968">
        <ele>2583.3999023438</ele>
        <time>2019-02-10T12:15:20.000Z</time>
      </trkpt>
      <trkpt lat="44.14758" lon="7.25966">
        <ele>2583.1999511719</ele>
        <time>2019-02-10T12:15:30.000Z</time>
      </trkpt>
      <trkpt lat="44.14758" lon="7.25966">
        <ele>2583.1999511719</ele>
        <time>2019-02-10T12:15:31.000Z</time>
      </trkpt>
      <trkpt lat="44.14759" lon="7.25966">
        <ele>2583.1999511719</ele>
        <time>2019-02-10T12:15:32.000Z</time>
      </trkpt>
      <trkpt lat="44.14759" lon="7.25966">
        <ele>2583.1999511719</ele>
        <time>2019-02-10T12:15:33.000Z</time>
      </trkpt>
      <trkpt lat="44.1476" lon="7.25966">
        <ele>2583.1999511719</ele>
        <time>2019-02-10T12:15:34.000Z</time>
      </trkpt>
      <trkpt lat="44.1476" lon="7.25966">
        <ele>2583.1999511719</ele>
        <time>2019-02-10T12:15:35.000Z</time>
      </trkpt>
      <trkpt lat="44.1476" lon="7.25966">
        <ele>2583.3999023438</ele>
        <time>2019-02-10T12:15:36.000Z</time>
      </trkpt>
      <trkpt lat="44.1476" lon="7.25966">
        <ele>2583.3999023438</ele>
        <time>2019-02-10T12:15:37.000Z</time>
      </trkpt>
      <trkpt lat="44.14758" lon="7.25967">
        <ele>2583.3999023438</ele>
        <time>2019-02-10T12:15:39.000Z</time>
      </trkpt>
      <trkpt lat="44.14757" lon="7.25967">
        <ele>2583.1999511719</ele>
        <time>2019-02-10T12:15:40.000Z</time>
      </trkpt>
      <trkpt lat="44.14758" lon="7.25965">
        <ele>2583.1999511719</ele>
        <time>2019-02-10T12:15:48.000Z</time>
      </trkpt>
      <trkpt lat="44.14759" lon="7.25965">
        <ele>2583.1999511719</ele>
        <time>2019-02-10T12:15:49.000Z</time>
      </trkpt>
      <trkpt lat="44.14759" lon="7.25965">
        <ele>2583.6000976562</ele>
        <time>2019-02-10T12:15:57.000Z</time>
      </trkpt>
      <trkpt lat="44.14759" lon="7.25965">
        <ele>2583.6000976562</ele>
        <time>2019-02-10T12:15:58.000Z</time>
      </trkpt>
      <trkpt lat="44.14759" lon="7.25964">
        <ele>2583.6000976562</ele>
        <time>2019-02-10T12:15:59.000Z</time>
      </trkpt>
      <trkpt lat="44.14758" lon="7.25963">
        <ele>2583.3999023438</ele>
        <time>2019-02-10T12:16:01.000Z</time>
      </trkpt>
      <trkpt lat="44.14758" lon="7.25963">
        <ele>2583.1999511719</ele>
        <time>2019-02-10T12:16:02.000Z</time>
      </trkpt>
      <trkpt lat="44.14758" lon="7.25962">
        <ele>2583.1999511719</ele>
        <time>2019-02-10T12:16:03.000Z</time>
      </trkpt>
      <trkpt lat="44.14757" lon="7.25961">
        <ele>2583</ele>
        <time>2019-02-10T12:16:05.000Z</time>
      </trkpt>
      <trkpt lat="44.14771" lon="7.25953">
        <ele>2582.3999023438</ele>
        <time>2019-02-10T12:16:13.000Z</time>
      </trkpt>
      <trkpt lat="44.14774" lon="7.25952">
        <ele>2582.3999023438</ele>
        <time>2019-02-10T12:16:15.000Z</time>
      </trkpt>
      <trkpt lat="44.14773" lon="7.25951">
        <ele>2582.3999023438</ele>
        <time>2019-02-10T12:16:16.000Z</time>
      </trkpt>
      <trkpt lat="44.14771" lon="7.25953">
        <ele>2582.8000488281</ele>
        <time>2019-02-10T12:16:21.000Z</time>
      </trkpt>
      <trkpt lat="44.14769" lon="7.25955">
        <ele>2582.8000488281</ele>
        <time>2019-02-10T12:16:24.000Z</time>
      </trkpt>
      <trkpt lat="44.14767" lon="7.25958">
        <ele>2582.8000488281</ele>
        <time>2019-02-10T12:16:27.000Z</time>
      </trkpt>
      <trkpt lat="44.14764" lon="7.25961">
        <ele>2582.6000976562</ele>
        <time>2019-02-10T12:16:30.000Z</time>
      </trkpt>
      <trkpt lat="44.14761" lon="7.25963">
        <ele>2582.3999023438</ele>
        <time>2019-02-10T12:16:32.000Z</time>
      </trkpt>
      <trkpt lat="44.1476" lon="7.25964">
        <ele>2582.3999023438</ele>
        <time>2019-02-10T12:16:33.000Z</time>
      </trkpt>
      <trkpt lat="44.14758" lon="7.25966">
        <ele>2582.6000976562</ele>
        <time>2019-02-10T12:16:36.000Z</time>
      </trkpt>
      <trkpt lat="44.14756" lon="7.25968">
        <ele>2582.3999023438</ele>
        <time>2019-02-10T12:16:51.000Z</time>
      </trkpt>
      <trkpt lat="44.14759" lon="7.25966">
        <ele>2582.1999511719</ele>
        <time>2019-02-10T12:17:02.000Z</time>
      </trkpt>
      <trkpt lat="44.14762" lon="7.25966">
        <ele>2582.1999511719</ele>
        <time>2019-02-10T12:17:07.000Z</time>
      </trkpt>
      <trkpt lat="44.14761" lon="7.25967">
        <ele>2582.1999511719</ele>
        <time>2019-02-10T12:17:08.000Z</time>
      </trkpt>
      <trkpt lat="44.1476" lon="7.25966">
        <ele>2582.6000976562</ele>
        <time>2019-02-10T12:17:13.000Z</time>
      </trkpt>
      <trkpt lat="44.1476" lon="7.25965">
        <ele>2582.6000976562</ele>
        <time>2019-02-10T12:17:15.000Z</time>
      </trkpt>
      <trkpt lat="44.14761" lon="7.25964">
        <ele>2582.8000488281</ele>
        <time>2019-02-10T12:17:17.000Z</time>
      </trkpt>
      <trkpt lat="44.14763" lon="7.25964">
        <ele>2582.8000488281</ele>
        <time>2019-02-10T12:17:19.000Z</time>
      </trkpt>
      <trkpt lat="44.14763" lon="7.25964">
        <ele>2582.8000488281</ele>
        <time>2019-02-10T12:17:20.000Z</time>
      </trkpt>
      <trkpt lat="44.14764" lon="7.25963">
        <ele>2583</ele>
        <time>2019-02-10T12:17:24.000Z</time>
      </trkpt>
      <trkpt lat="44.14764" lon="7.25963">
        <ele>2583</ele>
        <time>2019-02-10T12:17:26.000Z</time>
      </trkpt>
      <trkpt lat="44.14764" lon="7.25963">
        <ele>2583</ele>
        <time>2019-02-10T12:17:27.000Z</time>
      </trkpt>
      <trkpt lat="44.14765" lon="7.25962">
        <ele>2583</ele>
        <time>2019-02-10T12:17:31.000Z</time>
      </trkpt>
      <trkpt lat="44.14764" lon="7.25963">
        <ele>2583.3999023438</ele>
        <time>2019-02-10T12:17:34.000Z</time>
      </trkpt>
      <trkpt lat="44.14763" lon="7.25964">
        <ele>2583.3999023438</ele>
        <time>2019-02-10T12:17:35.000Z</time>
      </trkpt>
      <trkpt lat="44.1476" lon="7.25965">
        <ele>2583.6000976562</ele>
        <time>2019-02-10T12:17:40.000Z</time>
      </trkpt>
      <trkpt lat="44.14765" lon="7.25961">
        <ele>2583.6000976562</ele>
        <time>2019-02-10T12:17:55.000Z</time>
      </trkpt>
      <trkpt lat="44.14767" lon="7.25961">
        <ele>2583.6000976562</ele>
        <time>2019-02-10T12:17:56.000Z</time>
      </trkpt>
      <trkpt lat="44.14769" lon="7.25962">
        <ele>2583.6000976562</ele>
        <time>2019-02-10T12:18:02.000Z</time>
      </trkpt>
      <trkpt lat="44.14769" lon="7.25964">
        <ele>2583.1999511719</ele>
        <time>2019-02-10T12:18:09.000Z</time>
      </trkpt>
      <trkpt lat="44.14768" lon="7.25965">
        <ele>2583.1999511719</ele>
        <time>2019-02-10T12:18:10.000Z</time>
      </trkpt>
      <trkpt lat="44.14768" lon="7.25965">
        <ele>2583</ele>
        <time>2019-02-10T12:18:11.000Z</time>
      </trkpt>
      <trkpt lat="44.14769" lon="7.25963">
        <ele>2582.8000488281</ele>
        <time>2019-02-10T12:18:19.000Z</time>
      </trkpt>
      <trkpt lat="44.14769" lon="7.25963">
        <ele>2582.8000488281</ele>
        <time>2019-02-10T12:18:21.000Z</time>
      </trkpt>
      <trkpt lat="44.14769" lon="7.25964">
        <ele>2582.3999023438</ele>
        <time>2019-02-10T12:18:24.000Z</time>
      </trkpt>
      <trkpt lat="44.14769" lon="7.25964">
        <ele>2582.8000488281</ele>
        <time>2019-02-10T12:18:26.000Z</time>
      </trkpt>
      <trkpt lat="44.14768" lon="7.25964">
        <ele>2583</ele>
        <time>2019-02-10T12:18:27.000Z</time>
      </trkpt>
      <trkpt lat="44.14767" lon="7.25964">
        <ele>2583</ele>
        <time>2019-02-10T12:18:28.000Z</time>
      </trkpt>
      <trkpt lat="44.14767" lon="7.25963">
        <ele>2583.1999511719</ele>
        <time>2019-02-10T12:18:31.000Z</time>
      </trkpt>
      <trkpt lat="44.14767" lon="7.25962">
        <ele>2583.1999511719</ele>
        <time>2019-02-10T12:18:32.000Z</time>
      </trkpt>
      <trkpt lat="44.14767" lon="7.25962">
        <ele>2583.1999511719</ele>
        <time>2019-02-10T12:18:34.000Z</time>
      </trkpt>
      <trkpt lat="44.14766" lon="7.25961">
        <ele>2583</ele>
        <time>2019-02-10T12:18:35.000Z</time>
      </trkpt>
      <trkpt lat="44.14766" lon="7.25961">
        <ele>2583</ele>
        <time>2019-02-10T12:18:36.000Z</time>
      </trkpt>
      <trkpt lat="44.14761" lon="7.25962">
        <ele>2582.8000488281</ele>
        <time>2019-02-10T12:18:39.000Z</time>
      </trkpt>
      <trkpt lat="44.14755" lon="7.25963">
        <ele>2582.6000976562</ele>
        <time>2019-02-10T12:18:49.000Z</time>
      </trkpt>
      <trkpt lat="44.14755" lon="7.25964">
        <ele>2582.6000976562</ele>
        <time>2019-02-10T12:18:51.000Z</time>
      </trkpt>
      <trkpt lat="44.14756" lon="7.25964">
        <ele>2582.8000488281</ele>
        <time>2019-02-10T12:18:52.000Z</time>
      </trkpt>
      <trkpt lat="44.14764" lon="7.25969">
        <ele>2583.6000976562</ele>
        <time>2019-02-10T12:19:01.000Z</time>
      </trkpt>
      <trkpt lat="44.14765" lon="7.2597">
        <ele>2583.6000976562</ele>
        <time>2019-02-10T12:19:04.000Z</time>
      </trkpt>
      <trkpt lat="44.14765" lon="7.2597">
        <ele>2583.6000976562</ele>
        <time>2019-02-10T12:19:05.000Z</time>
      </trkpt>
      <trkpt lat="44.14762" lon="7.25973">
        <ele>2583</ele>
        <time>2019-02-10T12:19:16.000Z</time>
      </trkpt>
      <trkpt lat="44.14758" lon="7.2598">
        <ele>2582.6000976562</ele>
        <time>2019-02-10T12:19:31.000Z</time>
      </trkpt>
      <trkpt lat="44.14767" lon="7.25973">
        <ele>2583</ele>
        <time>2019-02-10T12:19:42.000Z</time>
      </trkpt>
      <trkpt lat="44.14767" lon="7.25971">
        <ele>2583.1999511719</ele>
        <time>2019-02-10T12:19:46.000Z</time>
      </trkpt>
      <trkpt lat="44.14766" lon="7.25971">
        <ele>2583.1999511719</ele>
        <time>2019-02-10T12:19:47.000Z</time>
      </trkpt>
      <trkpt lat="44.14767" lon="7.25971">
        <ele>2583.1999511719</ele>
        <time>2019-02-10T12:19:48.000Z</time>
      </trkpt>
      <trkpt lat="44.14767" lon="7.25971">
        <ele>2583.1999511719</ele>
        <time>2019-02-10T12:19:49.000Z</time>
      </trkpt>
      <trkpt lat="44.14767" lon="7.25971">
        <ele>2583</ele>
        <time>2019-02-10T12:19:50.000Z</time>
      </trkpt>
      <trkpt lat="44.14767" lon="7.25972">
        <ele>2583</ele>
        <time>2019-02-10T12:19:51.000Z</time>
      </trkpt>
      <trkpt lat="44.14766" lon="7.25974">
        <ele>2583</ele>
        <time>2019-02-10T12:19:52.000Z</time>
      </trkpt>
      <trkpt lat="44.14773" lon="7.25966">
        <ele>2583</ele>
        <time>2019-02-10T12:19:53.000Z</time>
      </trkpt>
      <trkpt lat="44.14777" lon="7.25964">
        <ele>2582.8000488281</ele>
        <time>2019-02-10T12:19:54.000Z</time>
      </trkpt>
      <trkpt lat="44.14783" lon="7.25958">
        <ele>2582.8000488281</ele>
        <time>2019-02-10T12:19:55.000Z</time>
      </trkpt>
      <trkpt lat="44.1478" lon="7.25957">
        <ele>2582.6000976562</ele>
        <time>2019-02-10T12:19:56.000Z</time>
      </trkpt>
      <trkpt lat="44.14781" lon="7.25957">
        <ele>2582.1999511719</ele>
        <time>2019-02-10T12:19:57.000Z</time>
      </trkpt>
      <trkpt lat="44.14782" lon="7.25956">
        <ele>2582</ele>
        <time>2019-02-10T12:19:58.000Z</time>
      </trkpt>
      <trkpt lat="44.14779" lon="7.25958">
        <ele>2582</ele>
        <time>2019-02-10T12:20:00.000Z</time>
      </trkpt>
      <trkpt lat="44.14774" lon="7.25959">
        <ele>2582.3999023438</ele>
        <time>2019-02-10T12:20:04.000Z</time>
      </trkpt>
      <trkpt lat="44.1477" lon="7.25961">
        <ele>2582.6000976562</ele>
        <time>2019-02-10T12:20:06.000Z</time>
      </trkpt>
      <trkpt lat="44.14752" lon="7.25971">
        <ele>2583</ele>
        <time>2019-02-10T12:20:18.000Z</time>
      </trkpt>
      <trkpt lat="44.14753" lon="7.25974">
        <ele>2583</ele>
        <time>2019-02-10T12:20:20.000Z</time>
      </trkpt>
      <trkpt lat="44.14754" lon="7.25975">
        <ele>2583.1999511719</ele>
        <time>2019-02-10T12:20:23.000Z</time>
      </trkpt>
      <trkpt lat="44.1476" lon="7.25974">
        <ele>2583.3999023438</ele>
        <time>2019-02-10T12:20:25.000Z</time>
      </trkpt>
      <trkpt lat="44.14761" lon="7.25974">
        <ele>2583.3999023438</ele>
        <time>2019-02-10T12:20:27.000Z</time>
      </trkpt>
      <trkpt lat="44.14762" lon="7.25972">
        <ele>2583.3999023438</ele>
        <time>2019-02-10T12:20:30.000Z</time>
      </trkpt>
      <trkpt lat="44.1476" lon="7.2597">
        <ele>2583.1999511719</ele>
        <time>2019-02-10T12:20:37.000Z</time>
      </trkpt>
      <trkpt lat="44.14762" lon="7.25969">
        <ele>2583.1999511719</ele>
        <time>2019-02-10T12:20:39.000Z</time>
      </trkpt>
      <trkpt lat="44.14763" lon="7.25968">
        <ele>2583.1999511719</ele>
        <time>2019-02-10T12:20:40.000Z</time>
      </trkpt>
      <trkpt lat="44.14763" lon="7.25967">
        <ele>2583.1999511719</ele>
        <time>2019-02-10T12:20:41.000Z</time>
      </trkpt>
      <trkpt lat="44.14769" lon="7.25967">
        <ele>2583</ele>
        <time>2019-02-10T12:20:45.000Z</time>
      </trkpt>
      <trkpt lat="44.14771" lon="7.25967">
        <ele>2583</ele>
        <time>2019-02-10T12:20:46.000Z</time>
      </trkpt>
      <trkpt lat="44.14772" lon="7.25966">
        <ele>2583</ele>
        <time>2019-02-10T12:20:47.000Z</time>
      </trkpt>
      <trkpt lat="44.14774" lon="7.25966">
        <ele>2583</ele>
        <time>2019-02-10T12:20:48.000Z</time>
      </trkpt>
      <trkpt lat="44.14779" lon="7.25965">
        <ele>2583</ele>
        <time>2019-02-10T12:20:50.000Z</time>
      </trkpt>
      <trkpt lat="44.14772" lon="7.25972">
        <ele>2582.8000488281</ele>
        <time>2019-02-10T12:20:57.000Z</time>
      </trkpt>
      <trkpt lat="44.14755" lon="7.2598">
        <ele>2582.8000488281</ele>
        <time>2019-02-10T12:21:04.000Z</time>
      </trkpt>
      <trkpt lat="44.14752" lon="7.25978">
        <ele>2582.8000488281</ele>
        <time>2019-02-10T12:21:06.000Z</time>
      </trkpt>
      <trkpt lat="44.14753" lon="7.25978">
        <ele>2583</ele>
        <time>2019-02-10T12:21:07.000Z</time>
      </trkpt>
      <trkpt lat="44.14751" lon="7.25977">
        <ele>2583</ele>
        <time>2019-02-10T12:21:08.000Z</time>
      </trkpt>
      <trkpt lat="44.14751" lon="7.25977">
        <ele>2583</ele>
        <time>2019-02-10T12:21:09.000Z</time>
      </trkpt>
      <trkpt lat="44.14752" lon="7.25975">
        <ele>2583</ele>
        <time>2019-02-10T12:21:11.000Z</time>
      </trkpt>
      <trkpt lat="44.14754" lon="7.25974">
        <ele>2582.8000488281</ele>
        <time>2019-02-10T12:21:13.000Z</time>
      </trkpt>
      <trkpt lat="44.14755" lon="7.25974">
        <ele>2582.8000488281</ele>
        <time>2019-02-10T12:21:14.000Z</time>
      </trkpt>
      <trkpt lat="44.14758" lon="7.25972">
        <ele>2582.8000488281</ele>
        <time>2019-02-10T12:21:16.000Z</time>
      </trkpt>
      <trkpt lat="44.14758" lon="7.25971">
        <ele>2583</ele>
        <time>2019-02-10T12:21:17.000Z</time>
      </trkpt>
      <trkpt lat="44.1476" lon="7.25971">
        <ele>2583</ele>
        <time>2019-02-10T12:21:18.000Z</time>
      </trkpt>
      <trkpt lat="44.1476" lon="7.2597">
        <ele>2583.1999511719</ele>
        <time>2019-02-10T12:21:19.000Z</time>
      </trkpt>
      <trkpt lat="44.14762" lon="7.25969">
        <ele>2582.8000488281</ele>
        <time>2019-02-10T12:21:28.000Z</time>
      </trkpt>
      <trkpt lat="44.14766" lon="7.25967">
        <ele>2582.8000488281</ele>
        <time>2019-02-10T12:21:34.000Z</time>
      </trkpt>
      <trkpt lat="44.14773" lon="7.25958">
        <ele>2582.8000488281</ele>
        <time>2019-02-10T12:21:41.000Z</time>
      </trkpt>
      <trkpt lat="44.14772" lon="7.25958">
        <ele>2582.6000976562</ele>
        <time>2019-02-10T12:21:45.000Z</time>
      </trkpt>
      <trkpt lat="44.14776" lon="7.2596">
        <ele>2582.3999023438</ele>
        <time>2019-02-10T12:21:49.000Z</time>
      </trkpt>
      <trkpt lat="44.1478" lon="7.25962">
        <ele>2582.3999023438</ele>
        <time>2019-02-10T12:21:51.000Z</time>
      </trkpt>
      <trkpt lat="44.14783" lon="7.25962">
        <ele>2582.6000976562</ele>
        <time>2019-02-10T12:21:54.000Z</time>
      </trkpt>
      <trkpt lat="44.14784" lon="7.25962">
        <ele>2583</ele>
        <time>2019-02-10T12:21:56.000Z</time>
      </trkpt>
      <trkpt lat="44.148" lon="7.25952">
        <ele>2583.6000976562</ele>
        <time>2019-02-10T12:21:59.000Z</time>
      </trkpt>
      <trkpt lat="44.14801" lon="7.2595">
        <ele>2583.6000976562</ele>
        <time>2019-02-10T12:22:00.000Z</time>
      </trkpt>
      <trkpt lat="44.148" lon="7.25948">
        <ele>2583.6000976562</ele>
        <time>2019-02-10T12:22:03.000Z</time>
      </trkpt>
      <trkpt lat="44.148" lon="7.25946">
        <ele>2583.6000976562</ele>
        <time>2019-02-10T12:22:09.000Z</time>
      </trkpt>
      <trkpt lat="44.14796" lon="7.25949">
        <ele>2583.3999023438</ele>
        <time>2019-02-10T12:22:14.000Z</time>
      </trkpt>
      <trkpt lat="44.14788" lon="7.25956">
        <ele>2583.1999511719</ele>
        <time>2019-02-10T12:22:20.000Z</time>
      </trkpt>
      <trkpt lat="44.14784" lon="7.25957">
        <ele>2583.1999511719</ele>
        <time>2019-02-10T12:22:21.000Z</time>
      </trkpt>
      <trkpt lat="44.14776" lon="7.25957">
        <ele>2583.3999023438</ele>
        <time>2019-02-10T12:22:24.000Z</time>
      </trkpt>
      <trkpt lat="44.14773" lon="7.25957">
        <ele>2583.3999023438</ele>
        <time>2019-02-10T12:22:25.000Z</time>
      </trkpt>
      <trkpt lat="44.14772" lon="7.25957">
        <ele>2583.3999023438</ele>
        <time>2019-02-10T12:22:26.000Z</time>
      </trkpt>
      <trkpt lat="44.14771" lon="7.25958">
        <ele>2583.1999511719</ele>
        <time>2019-02-10T12:22:27.000Z</time>
      </trkpt>
      <trkpt lat="44.1477" lon="7.25958">
        <ele>2583</ele>
        <time>2019-02-10T12:22:28.000Z</time>
      </trkpt>
      <trkpt lat="44.14769" lon="7.25958">
        <ele>2583</ele>
        <time>2019-02-10T12:22:29.000Z</time>
      </trkpt>
      <trkpt lat="44.14768" lon="7.25958">
        <ele>2583</ele>
        <time>2019-02-10T12:22:30.000Z</time>
      </trkpt>
      <trkpt lat="44.14768" lon="7.25958">
        <ele>2582.8000488281</ele>
        <time>2019-02-10T12:22:31.000Z</time>
      </trkpt>
      <trkpt lat="44.14761" lon="7.25957">
        <ele>2583.3999023438</ele>
        <time>2019-02-10T12:22:43.000Z</time>
      </trkpt>
      <trkpt lat="44.14761" lon="7.25958">
        <ele>2583.3999023438</ele>
        <time>2019-02-10T12:22:44.000Z</time>
      </trkpt>
      <trkpt lat="44.14761" lon="7.25958">
        <ele>2583.3999023438</ele>
        <time>2019-02-10T12:22:45.000Z</time>
      </trkpt>
      <trkpt lat="44.14763" lon="7.25958">
        <ele>2583.3999023438</ele>
        <time>2019-02-10T12:22:48.000Z</time>
      </trkpt>
      <trkpt lat="44.14763" lon="7.25961">
        <ele>2583.3999023438</ele>
        <time>2019-02-10T12:22:51.000Z</time>
      </trkpt>
      <trkpt lat="44.14762" lon="7.25962">
        <ele>2583.3999023438</ele>
        <time>2019-02-10T12:22:52.000Z</time>
      </trkpt>
      <trkpt lat="44.14761" lon="7.25963">
        <ele>2583.3999023438</ele>
        <time>2019-02-10T12:22:53.000Z</time>
      </trkpt>
      <trkpt lat="44.14758" lon="7.25963">
        <ele>2583.3999023438</ele>
        <time>2019-02-10T12:22:55.000Z</time>
      </trkpt>
      <trkpt lat="44.14757" lon="7.25963">
        <ele>2583.3999023438</ele>
        <time>2019-02-10T12:22:57.000Z</time>
      </trkpt>
      <trkpt lat="44.14756" lon="7.25965">
        <ele>2583.6000976562</ele>
        <time>2019-02-10T12:23:00.000Z</time>
      </trkpt>
      <trkpt lat="44.14759" lon="7.25965">
        <ele>2583.8000488281</ele>
        <time>2019-02-10T12:23:02.000Z</time>
      </trkpt>
      <trkpt lat="44.14766" lon="7.25966">
        <ele>2584.3999023438</ele>
        <time>2019-02-10T12:23:06.000Z</time>
      </trkpt>
      <trkpt lat="44.14768" lon="7.25967">
        <ele>2584.3999023438</ele>
        <time>2019-02-10T12:23:07.000Z</time>
      </trkpt>
      <trkpt lat="44.14782" lon="7.25968">
        <ele>2584.1999511719</ele>
        <time>2019-02-10T12:23:14.000Z</time>
      </trkpt>
      <trkpt lat="44.14784" lon="7.25968">
        <ele>2584.1999511719</ele>
        <time>2019-02-10T12:23:15.000Z</time>
      </trkpt>
      <trkpt lat="44.14787" lon="7.25967">
        <ele>2584.1999511719</ele>
        <time>2019-02-10T12:23:17.000Z</time>
      </trkpt>
      <trkpt lat="44.14783" lon="7.25966">
        <ele>2584.6000976562</ele>
        <time>2019-02-10T12:23:26.000Z</time>
      </trkpt>
      <trkpt lat="44.14785" lon="7.2596">
        <ele>2584.3999023438</ele>
        <time>2019-02-10T12:23:28.000Z</time>
      </trkpt>
      <trkpt lat="44.14786" lon="7.25958">
        <ele>2584.1999511719</ele>
        <time>2019-02-10T12:23:29.000Z</time>
      </trkpt>
      <trkpt lat="44.14786" lon="7.25958">
        <ele>2584</ele>
        <time>2019-02-10T12:23:30.000Z</time>
      </trkpt>
      <trkpt lat="44.14786" lon="7.25958">
        <ele>2583.8000488281</ele>
        <time>2019-02-10T12:23:32.000Z</time>
      </trkpt>
      <trkpt lat="44.14782" lon="7.2596">
        <ele>2583.8000488281</ele>
        <time>2019-02-10T12:23:36.000Z</time>
      </trkpt>
      <trkpt lat="44.1478" lon="7.2596">
        <ele>2583.8000488281</ele>
        <time>2019-02-10T12:23:37.000Z</time>
      </trkpt>
      <trkpt lat="44.14776" lon="7.25957">
        <ele>2583.8000488281</ele>
        <time>2019-02-10T12:23:45.000Z</time>
      </trkpt>
      <trkpt lat="44.1478" lon="7.25956">
        <ele>2583.8000488281</ele>
        <time>2019-02-10T12:23:47.000Z</time>
      </trkpt>
      <trkpt lat="44.14781" lon="7.25956">
        <ele>2583.6000976562</ele>
        <time>2019-02-10T12:23:48.000Z</time>
      </trkpt>
      <trkpt lat="44.14782" lon="7.25955">
        <ele>2583.6000976562</ele>
        <time>2019-02-10T12:23:50.000Z</time>
      </trkpt>
      <trkpt lat="44.14782" lon="7.25955">
        <ele>2583.3999023438</ele>
        <time>2019-02-10T12:23:52.000Z</time>
      </trkpt>
      <trkpt lat="44.14781" lon="7.25956">
        <ele>2583.3999023438</ele>
        <time>2019-02-10T12:23:53.000Z</time>
      </trkpt>
      <trkpt lat="44.1478" lon="7.25957">
        <ele>2583.1999511719</ele>
        <time>2019-02-10T12:23:55.000Z</time>
      </trkpt>
      <trkpt lat="44.14777" lon="7.25958">
        <ele>2583</ele>
        <time>2019-02-10T12:23:58.000Z</time>
      </trkpt>
      <trkpt lat="44.14775" lon="7.2596">
        <ele>2583</ele>
        <time>2019-02-10T12:24:00.000Z</time>
      </trkpt>
      <trkpt lat="44.14773" lon="7.25963">
        <ele>2583.1999511719</ele>
        <time>2019-02-10T12:24:02.000Z</time>
      </trkpt>
      <trkpt lat="44.14767" lon="7.25972">
        <ele>2583</ele>
        <time>2019-02-10T12:24:07.000Z</time>
      </trkpt>
      <trkpt lat="44.14764" lon="7.25972">
        <ele>2583</ele>
        <time>2019-02-10T12:24:10.000Z</time>
      </trkpt>
      <trkpt lat="44.14753" lon="7.25972">
        <ele>2583.1999511719</ele>
        <time>2019-02-10T12:24:19.000Z</time>
      </trkpt>
      <trkpt lat="44.14754" lon="7.25971">
        <ele>2583.1999511719</ele>
        <time>2019-02-10T12:24:21.000Z</time>
      </trkpt>
      <trkpt lat="44.14755" lon="7.2597">
        <ele>2583</ele>
        <time>2019-02-10T12:24:23.000Z</time>
      </trkpt>
      <trkpt lat="44.14756" lon="7.25968">
        <ele>2583</ele>
        <time>2019-02-10T12:24:24.000Z</time>
      </trkpt>
      <trkpt lat="44.14758" lon="7.25967">
        <ele>2583</ele>
        <time>2019-02-10T12:24:25.000Z</time>
      </trkpt>
      <trkpt lat="44.14766" lon="7.25965">
        <ele>2583</ele>
        <time>2019-02-10T12:24:27.000Z</time>
      </trkpt>
      <trkpt lat="44.14768" lon="7.25964">
        <ele>2583.1999511719</ele>
        <time>2019-02-10T12:24:29.000Z</time>
      </trkpt>
      <trkpt lat="44.1477" lon="7.25963">
        <ele>2583.1999511719</ele>
        <time>2019-02-10T12:24:31.000Z</time>
      </trkpt>
      <trkpt lat="44.14772" lon="7.25959">
        <ele>2583.1999511719</ele>
        <time>2019-02-10T12:24:43.000Z</time>
      </trkpt>
      <trkpt lat="44.14772" lon="7.2596">
        <ele>2583.3999023438</ele>
        <time>2019-02-10T12:24:45.000Z</time>
      </trkpt>
      <trkpt lat="44.14774" lon="7.25961">
        <ele>2583.3999023438</ele>
        <time>2019-02-10T12:24:52.000Z</time>
      </trkpt>
      <trkpt lat="44.14776" lon="7.2596">
        <ele>2583.1999511719</ele>
        <time>2019-02-10T12:24:54.000Z</time>
      </trkpt>
      <trkpt lat="44.14776" lon="7.2596">
        <ele>2582.8000488281</ele>
        <time>2019-02-10T12:24:56.000Z</time>
      </trkpt>
      <trkpt lat="44.14775" lon="7.25962">
        <ele>2583</ele>
        <time>2019-02-10T12:25:00.000Z</time>
      </trkpt>
      <trkpt lat="44.14774" lon="7.25963">
        <ele>2583.1999511719</ele>
        <time>2019-02-10T12:25:01.000Z</time>
      </trkpt>
      <trkpt lat="44.1477" lon="7.25966">
        <ele>2583</ele>
        <time>2019-02-10T12:25:06.000Z</time>
      </trkpt>
      <trkpt lat="44.14765" lon="7.25966">
        <ele>2582.8000488281</ele>
        <time>2019-02-10T12:25:11.000Z</time>
      </trkpt>
      <trkpt lat="44.14763" lon="7.25965">
        <ele>2582.8000488281</ele>
        <time>2019-02-10T12:25:13.000Z</time>
      </trkpt>
      <trkpt lat="44.14763" lon="7.25965">
        <ele>2582.8000488281</ele>
        <time>2019-02-10T12:25:15.000Z</time>
      </trkpt>
      <trkpt lat="44.14764" lon="7.25964">
        <ele>2582.8000488281</ele>
        <time>2019-02-10T12:25:17.000Z</time>
      </trkpt>
      <trkpt lat="44.1477" lon="7.25961">
        <ele>2582.8000488281</ele>
        <time>2019-02-10T12:25:20.000Z</time>
      </trkpt>
      <trkpt lat="44.14772" lon="7.25958">
        <ele>2582.8000488281</ele>
        <time>2019-02-10T12:25:21.000Z</time>
      </trkpt>
      <trkpt lat="44.14773" lon="7.25953">
        <ele>2582.3999023438</ele>
        <time>2019-02-10T12:25:23.000Z</time>
      </trkpt>
      <trkpt lat="44.14772" lon="7.25951">
        <ele>2582</ele>
        <time>2019-02-10T12:25:24.000Z</time>
      </trkpt>
      <trkpt lat="44.14768" lon="7.2594">
        <ele>2580.6000976562</ele>
        <time>2019-02-10T12:25:27.000Z</time>
      </trkpt>
      <trkpt lat="44.14761" lon="7.2593">
        <ele>2579.1999511719</ele>
        <time>2019-02-10T12:25:30.000Z</time>
      </trkpt>
      <trkpt lat="44.14758" lon="7.25927">
        <ele>2578.6000976562</ele>
        <time>2019-02-10T12:25:32.000Z</time>
      </trkpt>
      <trkpt lat="44.14756" lon="7.25925">
        <ele>2578.3999023438</ele>
        <time>2019-02-10T12:25:33.000Z</time>
      </trkpt>
      <trkpt lat="44.14755" lon="7.25924">
        <ele>2578.3999023438</ele>
        <time>2019-02-10T12:25:34.000Z</time>
      </trkpt>
      <trkpt lat="44.14751" lon="7.25917">
        <ele>2578.1999511719</ele>
        <time>2019-02-10T12:25:36.000Z</time>
      </trkpt>
      <trkpt lat="44.1475" lon="7.25914">
        <ele>2578.1999511719</ele>
        <time>2019-02-10T12:25:37.000Z</time>
      </trkpt>
      <trkpt lat="44.14749" lon="7.25911">
        <ele>2578</ele>
        <time>2019-02-10T12:25:38.000Z</time>
      </trkpt>
      <trkpt lat="44.14749" lon="7.25909">
        <ele>2578</ele>
        <time>2019-02-10T12:25:39.000Z</time>
      </trkpt>
      <trkpt lat="44.14749" lon="7.25896">
        <ele>2577.3999023438</ele>
        <time>2019-02-10T12:25:42.000Z</time>
      </trkpt>
      <trkpt lat="44.14748" lon="7.2589">
        <ele>2577</ele>
        <time>2019-02-10T12:25:44.000Z</time>
      </trkpt>
      <trkpt lat="44.14744" lon="7.25884">
        <ele>2575.6000976562</ele>
        <time>2019-02-10T12:25:47.000Z</time>
      </trkpt>
      <trkpt lat="44.1475" lon="7.25878">
        <ele>2574.3999023438</ele>
        <time>2019-02-10T12:25:49.000Z</time>
      </trkpt>
      <trkpt lat="44.14751" lon="7.25877">
        <ele>2573.3999023438</ele>
        <time>2019-02-10T12:25:50.000Z</time>
      </trkpt>
      <trkpt lat="44.14752" lon="7.25876">
        <ele>2572.3999023438</ele>
        <time>2019-02-10T12:25:51.000Z</time>
      </trkpt>
      <trkpt lat="44.14752" lon="7.25875">
        <ele>2571.3999023438</ele>
        <time>2019-02-10T12:25:53.000Z</time>
      </trkpt>
      <trkpt lat="44.1475" lon="7.25871">
        <ele>2571.1999511719</ele>
        <time>2019-02-10T12:25:55.000Z</time>
      </trkpt>
      <trkpt lat="44.14748" lon="7.25867">
        <ele>2571.1999511719</ele>
        <time>2019-02-10T12:25:56.000Z</time>
      </trkpt>
      <trkpt lat="44.14745" lon="7.25856">
        <ele>2570.3999023438</ele>
        <time>2019-02-10T12:25:59.000Z</time>
      </trkpt>
      <trkpt lat="44.14746" lon="7.2585">
        <ele>2569.8000488281</ele>
        <time>2019-02-10T12:26:00.000Z</time>
      </trkpt>
      <trkpt lat="44.1475" lon="7.25834">
        <ele>2568.6000976562</ele>
        <time>2019-02-10T12:26:03.000Z</time>
      </trkpt>
      <trkpt lat="44.14752" lon="7.2582">
        <ele>2567.8000488281</ele>
        <time>2019-02-10T12:26:06.000Z</time>
      </trkpt>
      <trkpt lat="44.14754" lon="7.25816">
        <ele>2567.6000976562</ele>
        <time>2019-02-10T12:26:07.000Z</time>
      </trkpt>
      <trkpt lat="44.14756" lon="7.25812">
        <ele>2567.3999023438</ele>
        <time>2019-02-10T12:26:08.000Z</time>
      </trkpt>
      <trkpt lat="44.14759" lon="7.25807">
        <ele>2566.6000976562</ele>
        <time>2019-02-10T12:26:10.000Z</time>
      </trkpt>
      <trkpt lat="44.14762" lon="7.25797">
        <ele>2565.1999511719</ele>
        <time>2019-02-10T12:26:12.000Z</time>
      </trkpt>
      <trkpt lat="44.14765" lon="7.25786">
        <ele>2563.8000488281</ele>
        <time>2019-02-10T12:26:14.000Z</time>
      </trkpt>
      <trkpt lat="44.14766" lon="7.25777">
        <ele>2562.3999023438</ele>
        <time>2019-02-10T12:26:16.000Z</time>
      </trkpt>
      <trkpt lat="44.14764" lon="7.25774">
        <ele>2561.8000488281</ele>
        <time>2019-02-10T12:26:17.000Z</time>
      </trkpt>
      <trkpt lat="44.14762" lon="7.2577">
        <ele>2561.1999511719</ele>
        <time>2019-02-10T12:26:18.000Z</time>
      </trkpt>
      <trkpt lat="44.1476" lon="7.25767">
        <ele>2561</ele>
        <time>2019-02-10T12:26:19.000Z</time>
      </trkpt>
      <trkpt lat="44.14762" lon="7.25761">
        <ele>2560.8000488281</ele>
        <time>2019-02-10T12:26:20.000Z</time>
      </trkpt>
      <trkpt lat="44.14764" lon="7.25756">
        <ele>2559.8000488281</ele>
        <time>2019-02-10T12:26:22.000Z</time>
      </trkpt>
      <trkpt lat="44.14766" lon="7.25749">
        <ele>2558.1999511719</ele>
        <time>2019-02-10T12:26:24.000Z</time>
      </trkpt>
      <trkpt lat="44.14769" lon="7.25744">
        <ele>2556.6000976562</ele>
        <time>2019-02-10T12:26:26.000Z</time>
      </trkpt>
      <trkpt lat="44.1477" lon="7.25738">
        <ele>2555.3999023438</ele>
        <time>2019-02-10T12:26:29.000Z</time>
      </trkpt>
      <trkpt lat="44.14769" lon="7.25736">
        <ele>2554.3999023438</ele>
        <time>2019-02-10T12:26:31.000Z</time>
      </trkpt>
      <trkpt lat="44.14769" lon="7.25736">
        <ele>2553.3999023438</ele>
        <time>2019-02-10T12:26:33.000Z</time>
      </trkpt>
      <trkpt lat="44.14772" lon="7.25738">
        <ele>2553.3999023438</ele>
        <time>2019-02-10T12:26:43.000Z</time>
      </trkpt>
      <trkpt lat="44.14773" lon="7.25737">
        <ele>2552.8000488281</ele>
        <time>2019-02-10T12:26:50.000Z</time>
      </trkpt>
      <trkpt lat="44.14774" lon="7.25738">
        <ele>2552.8000488281</ele>
        <time>2019-02-10T12:26:55.000Z</time>
      </trkpt>
      <trkpt lat="44.14775" lon="7.25738">
        <ele>2553</ele>
        <time>2019-02-10T12:26:56.000Z</time>
      </trkpt>
      <trkpt lat="44.14778" lon="7.25734">
        <ele>2553</ele>
        <time>2019-02-10T12:26:58.000Z</time>
      </trkpt>
      <trkpt lat="44.1478" lon="7.25727">
        <ele>2552.1999511719</ele>
        <time>2019-02-10T12:27:00.000Z</time>
      </trkpt>
      <trkpt lat="44.14783" lon="7.25721">
        <ele>2550.8000488281</ele>
        <time>2019-02-10T12:27:02.000Z</time>
      </trkpt>
      <trkpt lat="44.14787" lon="7.25717">
        <ele>2549.3999023438</ele>
        <time>2019-02-10T12:27:04.000Z</time>
      </trkpt>
      <trkpt lat="44.14788" lon="7.25711">
        <ele>2547.3999023438</ele>
        <time>2019-02-10T12:27:06.000Z</time>
      </trkpt>
      <trkpt lat="44.14789" lon="7.25703">
        <ele>2545.6000976562</ele>
        <time>2019-02-10T12:27:08.000Z</time>
      </trkpt>
      <trkpt lat="44.14792" lon="7.25698">
        <ele>2544</ele>
        <time>2019-02-10T12:27:10.000Z</time>
      </trkpt>
      <trkpt lat="44.14794" lon="7.25698">
        <ele>2542.6000976562</ele>
        <time>2019-02-10T12:27:12.000Z</time>
      </trkpt>
      <trkpt lat="44.14796" lon="7.25698">
        <ele>2541.3999023438</ele>
        <time>2019-02-10T12:27:14.000Z</time>
      </trkpt>
      <trkpt lat="44.14797" lon="7.25697">
        <ele>2541.1999511719</ele>
        <time>2019-02-10T12:27:15.000Z</time>
      </trkpt>
      <trkpt lat="44.148" lon="7.25689">
        <ele>2540.1999511719</ele>
        <time>2019-02-10T12:27:21.000Z</time>
      </trkpt>
      <trkpt lat="44.14799" lon="7.25684">
        <ele>2539.6000976562</ele>
        <time>2019-02-10T12:27:25.000Z</time>
      </trkpt>
      <trkpt lat="44.148" lon="7.25678">
        <ele>2539.3999023438</ele>
        <time>2019-02-10T12:27:28.000Z</time>
      </trkpt>
      <trkpt lat="44.148" lon="7.25672">
        <ele>2539</ele>
        <time>2019-02-10T12:27:30.000Z</time>
      </trkpt>
      <trkpt lat="44.148" lon="7.25666">
        <ele>2538</ele>
        <time>2019-02-10T12:27:33.000Z</time>
      </trkpt>
      <trkpt lat="44.14803" lon="7.25653">
        <ele>2536.6000976562</ele>
        <time>2019-02-10T12:27:36.000Z</time>
      </trkpt>
      <trkpt lat="44.14803" lon="7.25649">
        <ele>2535</ele>
        <time>2019-02-10T12:27:38.000Z</time>
      </trkpt>
      <trkpt lat="44.14803" lon="7.25648">
        <ele>2534</ele>
        <time>2019-02-10T12:27:39.000Z</time>
      </trkpt>
      <trkpt lat="44.14804" lon="7.25648">
        <ele>2533.1999511719</ele>
        <time>2019-02-10T12:27:40.000Z</time>
      </trkpt>
      <trkpt lat="44.14804" lon="7.25645">
        <ele>2532</ele>
        <time>2019-02-10T12:27:42.000Z</time>
      </trkpt>
      <trkpt lat="44.14804" lon="7.25636">
        <ele>2531</ele>
        <time>2019-02-10T12:27:45.000Z</time>
      </trkpt>
      <trkpt lat="44.14804" lon="7.25632">
        <ele>2531</ele>
        <time>2019-02-10T12:27:46.000Z</time>
      </trkpt>
      <trkpt lat="44.14805" lon="7.25629">
        <ele>2531</ele>
        <time>2019-02-10T12:27:47.000Z</time>
      </trkpt>
      <trkpt lat="44.1481" lon="7.2563">
        <ele>2530.1999511719</ele>
        <time>2019-02-10T12:27:50.000Z</time>
      </trkpt>
      <trkpt lat="44.14814" lon="7.25631">
        <ele>2529.8000488281</ele>
        <time>2019-02-10T12:27:52.000Z</time>
      </trkpt>
      <trkpt lat="44.14817" lon="7.25627">
        <ele>2528.3999023438</ele>
        <time>2019-02-10T12:27:55.000Z</time>
      </trkpt>
      <trkpt lat="44.1482" lon="7.25621">
        <ele>2527</ele>
        <time>2019-02-10T12:27:57.000Z</time>
      </trkpt>
      <trkpt lat="44.1482" lon="7.2562">
        <ele>2526</ele>
        <time>2019-02-10T12:27:58.000Z</time>
      </trkpt>
      <trkpt lat="44.14821" lon="7.25619">
        <ele>2524.3999023438</ele>
        <time>2019-02-10T12:28:00.000Z</time>
      </trkpt>
      <trkpt lat="44.1482" lon="7.25613">
        <ele>2523.3999023438</ele>
        <time>2019-02-10T12:28:04.000Z</time>
      </trkpt>
      <trkpt lat="44.14819" lon="7.2561">
        <ele>2523</ele>
        <time>2019-02-10T12:28:06.000Z</time>
      </trkpt>
      <trkpt lat="44.14819" lon="7.25605">
        <ele>2522.1999511719</ele>
        <time>2019-02-10T12:28:09.000Z</time>
      </trkpt>
      <trkpt lat="44.14818" lon="7.256">
        <ele>2521.1999511719</ele>
        <time>2019-02-10T12:28:15.000Z</time>
      </trkpt>
      <trkpt lat="44.14816" lon="7.25597">
        <ele>2521</ele>
        <time>2019-02-10T12:28:17.000Z</time>
      </trkpt>
      <trkpt lat="44.14815" lon="7.25596">
        <ele>2520.8000488281</ele>
        <time>2019-02-10T12:28:19.000Z</time>
      </trkpt>
      <trkpt lat="44.14814" lon="7.25594">
        <ele>2520.8000488281</ele>
        <time>2019-02-10T12:28:22.000Z</time>
      </trkpt>
      <trkpt lat="44.14814" lon="7.25593">
        <ele>2520.8000488281</ele>
        <time>2019-02-10T12:28:30.000Z</time>
      </trkpt>
      <trkpt lat="44.14813" lon="7.25593">
        <ele>2520.6000976562</ele>
        <time>2019-02-10T12:28:33.000Z</time>
      </trkpt>
      <trkpt lat="44.14813" lon="7.25591">
        <ele>2520.3999023438</ele>
        <time>2019-02-10T12:28:35.000Z</time>
      </trkpt>
      <trkpt lat="44.14813" lon="7.2559">
        <ele>2520.1999511719</ele>
        <time>2019-02-10T12:28:36.000Z</time>
      </trkpt>
      <trkpt lat="44.14804" lon="7.25583">
        <ele>2519.1999511719</ele>
        <time>2019-02-10T12:28:47.000Z</time>
      </trkpt>
      <trkpt lat="44.14803" lon="7.25583">
        <ele>2517.1999511719</ele>
        <time>2019-02-10T12:28:49.000Z</time>
      </trkpt>
      <trkpt lat="44.14802" lon="7.25582">
        <ele>2516.1999511719</ele>
        <time>2019-02-10T12:28:51.000Z</time>
      </trkpt>
      <trkpt lat="44.148" lon="7.2558">
        <ele>2515.8000488281</ele>
        <time>2019-02-10T12:28:54.000Z</time>
      </trkpt>
      <trkpt lat="44.148" lon="7.25574">
        <ele>2515.3999023438</ele>
        <time>2019-02-10T12:28:57.000Z</time>
      </trkpt>
      <trkpt lat="44.14798" lon="7.25572">
        <ele>2514.6000976562</ele>
        <time>2019-02-10T12:28:58.000Z</time>
      </trkpt>
      <trkpt lat="44.14797" lon="7.25571">
        <ele>2513.3999023438</ele>
        <time>2019-02-10T12:28:59.000Z</time>
      </trkpt>
      <trkpt lat="44.14796" lon="7.25569">
        <ele>2511.8000488281</ele>
        <time>2019-02-10T12:29:00.000Z</time>
      </trkpt>
      <trkpt lat="44.14794" lon="7.25564">
        <ele>2510.1999511719</ele>
        <time>2019-02-10T12:29:02.000Z</time>
      </trkpt>
      <trkpt lat="44.1479" lon="7.25559">
        <ele>2508.8000488281</ele>
        <time>2019-02-10T12:29:04.000Z</time>
      </trkpt>
      <trkpt lat="44.14784" lon="7.25553">
        <ele>2507.3999023438</ele>
        <time>2019-02-10T12:29:06.000Z</time>
      </trkpt>
      <trkpt lat="44.14782" lon="7.25545">
        <ele>2506.1999511719</ele>
        <time>2019-02-10T12:29:08.000Z</time>
      </trkpt>
      <trkpt lat="44.14779" lon="7.25537">
        <ele>2505.6000976562</ele>
        <time>2019-02-10T12:29:10.000Z</time>
      </trkpt>
      <trkpt lat="44.14776" lon="7.2553">
        <ele>2505</ele>
        <time>2019-02-10T12:29:12.000Z</time>
      </trkpt>
      <trkpt lat="44.14773" lon="7.25529">
        <ele>2503.8000488281</ele>
        <time>2019-02-10T12:29:15.000Z</time>
      </trkpt>
      <trkpt lat="44.14773" lon="7.25528">
        <ele>2502.6000976562</ele>
        <time>2019-02-10T12:29:18.000Z</time>
      </trkpt>
      <trkpt lat="44.14773" lon="7.25524">
        <ele>2502</ele>
        <time>2019-02-10T12:29:20.000Z</time>
      </trkpt>
      <trkpt lat="44.14773" lon="7.25522">
        <ele>2501.8000488281</ele>
        <time>2019-02-10T12:29:21.000Z</time>
      </trkpt>
      <trkpt lat="44.14774" lon="7.25522">
        <ele>2501.3999023438</ele>
        <time>2019-02-10T12:29:23.000Z</time>
      </trkpt>
      <trkpt lat="44.14775" lon="7.25517">
        <ele>2500.3999023438</ele>
        <time>2019-02-10T12:29:27.000Z</time>
      </trkpt>
      <trkpt lat="44.14777" lon="7.25514">
        <ele>2500.1999511719</ele>
        <time>2019-02-10T12:29:28.000Z</time>
      </trkpt>
      <trkpt lat="44.14781" lon="7.25513">
        <ele>2499.1999511719</ele>
        <time>2019-02-10T12:29:31.000Z</time>
      </trkpt>
      <trkpt lat="44.14782" lon="7.25513">
        <ele>2498.8000488281</ele>
        <time>2019-02-10T12:29:32.000Z</time>
      </trkpt>
      <trkpt lat="44.14783" lon="7.25511">
        <ele>2498.1999511719</ele>
        <time>2019-02-10T12:29:33.000Z</time>
      </trkpt>
      <trkpt lat="44.14784" lon="7.25508">
        <ele>2496.3999023438</ele>
        <time>2019-02-10T12:29:35.000Z</time>
      </trkpt>
      <trkpt lat="44.14784" lon="7.25507">
        <ele>2495.1999511719</ele>
        <time>2019-02-10T12:29:36.000Z</time>
      </trkpt>
      <trkpt lat="44.14784" lon="7.25506">
        <ele>2494</ele>
        <time>2019-02-10T12:29:38.000Z</time>
      </trkpt>
      <trkpt lat="44.14786" lon="7.25502">
        <ele>2493</ele>
        <time>2019-02-10T12:29:42.000Z</time>
      </trkpt>
      <trkpt lat="44.14787" lon="7.25496">
        <ele>2492.3999023438</ele>
        <time>2019-02-10T12:29:45.000Z</time>
      </trkpt>
      <trkpt lat="44.14789" lon="7.25495">
        <ele>2491.8000488281</ele>
        <time>2019-02-10T12:29:49.000Z</time>
      </trkpt>
      <trkpt lat="44.1479" lon="7.25493">
        <ele>2491</ele>
        <time>2019-02-10T12:29:56.000Z</time>
      </trkpt>
      <trkpt lat="44.1479" lon="7.25493">
        <ele>2490.8000488281</ele>
        <time>2019-02-10T12:29:57.000Z</time>
      </trkpt>
      <trkpt lat="44.1479" lon="7.25493">
        <ele>2490</ele>
        <time>2019-02-10T12:30:07.000Z</time>
      </trkpt>
      <trkpt lat="44.14791" lon="7.25494">
        <ele>2489.8000488281</ele>
        <time>2019-02-10T12:30:10.000Z</time>
      </trkpt>
      <trkpt lat="44.14791" lon="7.25495">
        <ele>2490</ele>
        <time>2019-02-10T12:30:18.000Z</time>
      </trkpt>
      <trkpt lat="44.14791" lon="7.25494">
        <ele>2490.1999511719</ele>
        <time>2019-02-10T12:30:20.000Z</time>
      </trkpt>
      <trkpt lat="44.1479" lon="7.25497">
        <ele>2490.3999023438</ele>
        <time>2019-02-10T12:30:29.000Z</time>
      </trkpt>
      <trkpt lat="44.1479" lon="7.25498">
        <ele>2490.3999023438</ele>
        <time>2019-02-10T12:30:31.000Z</time>
      </trkpt>
      <trkpt lat="44.14788" lon="7.25499">
        <ele>2490.3999023438</ele>
        <time>2019-02-10T12:30:33.000Z</time>
      </trkpt>
      <trkpt lat="44.14787" lon="7.25499">
        <ele>2490.3999023438</ele>
        <time>2019-02-10T12:30:35.000Z</time>
      </trkpt>
      <trkpt lat="44.14786" lon="7.25499">
        <ele>2490.3999023438</ele>
        <time>2019-02-10T12:30:37.000Z</time>
      </trkpt>
      <trkpt lat="44.14786" lon="7.25498">
        <ele>2490.6000976562</ele>
        <time>2019-02-10T12:30:39.000Z</time>
      </trkpt>
      <trkpt lat="44.14787" lon="7.25498">
        <ele>2490.8000488281</ele>
        <time>2019-02-10T12:30:43.000Z</time>
      </trkpt>
      <trkpt lat="44.14787" lon="7.25498">
        <ele>2490.8000488281</ele>
        <time>2019-02-10T12:30:44.000Z</time>
      </trkpt>
      <trkpt lat="44.14786" lon="7.25499">
        <ele>2490.8000488281</ele>
        <time>2019-02-10T12:30:46.000Z</time>
      </trkpt>
      <trkpt lat="44.14785" lon="7.25499">
        <ele>2490.8000488281</ele>
        <time>2019-02-10T12:30:52.000Z</time>
      </trkpt>
      <trkpt lat="44.14783" lon="7.25502">
        <ele>2490.8000488281</ele>
        <time>2019-02-10T12:30:53.000Z</time>
      </trkpt>
      <trkpt lat="44.14782" lon="7.25503">
        <ele>2490.8000488281</ele>
        <time>2019-02-10T12:30:54.000Z</time>
      </trkpt>
      <trkpt lat="44.14787" lon="7.25493">
        <ele>2490.3999023438</ele>
        <time>2019-02-10T12:30:58.000Z</time>
      </trkpt>
      <trkpt lat="44.14787" lon="7.25491">
        <ele>2490</ele>
        <time>2019-02-10T12:30:59.000Z</time>
      </trkpt>
      <trkpt lat="44.14787" lon="7.25489">
        <ele>2489.1999511719</ele>
        <time>2019-02-10T12:31:00.000Z</time>
      </trkpt>
      <trkpt lat="44.14787" lon="7.25485">
        <ele>2488.1999511719</ele>
        <time>2019-02-10T12:31:01.000Z</time>
      </trkpt>
      <trkpt lat="44.14787" lon="7.25476">
        <ele>2486.6000976562</ele>
        <time>2019-02-10T12:31:03.000Z</time>
      </trkpt>
      <trkpt lat="44.14789" lon="7.25464">
        <ele>2484.8000488281</ele>
        <time>2019-02-10T12:31:05.000Z</time>
      </trkpt>
      <trkpt lat="44.14789" lon="7.2546">
        <ele>2483.6000976562</ele>
        <time>2019-02-10T12:31:06.000Z</time>
      </trkpt>
      <trkpt lat="44.14789" lon="7.25455">
        <ele>2481.8000488281</ele>
        <time>2019-02-10T12:31:08.000Z</time>
      </trkpt>
      <trkpt lat="44.14789" lon="7.25451">
        <ele>2480.3999023438</ele>
        <time>2019-02-10T12:31:10.000Z</time>
      </trkpt>
      <trkpt lat="44.14788" lon="7.25445">
        <ele>2479.1999511719</ele>
        <time>2019-02-10T12:31:12.000Z</time>
      </trkpt>
      <trkpt lat="44.14788" lon="7.25434">
        <ele>2477.8000488281</ele>
        <time>2019-02-10T12:31:14.000Z</time>
      </trkpt>
      <trkpt lat="44.14788" lon="7.25422">
        <ele>2476.3999023438</ele>
        <time>2019-02-10T12:31:16.000Z</time>
      </trkpt>
      <trkpt lat="44.14789" lon="7.25413">
        <ele>2476.1999511719</ele>
        <time>2019-02-10T12:31:18.000Z</time>
      </trkpt>
      <trkpt lat="44.1479" lon="7.25409">
        <ele>2476</ele>
        <time>2019-02-10T12:31:19.000Z</time>
      </trkpt>
      <trkpt lat="44.14792" lon="7.25406">
        <ele>2475.8000488281</ele>
        <time>2019-02-10T12:31:20.000Z</time>
      </trkpt>
      <trkpt lat="44.14795" lon="7.25403">
        <ele>2476</ele>
        <time>2019-02-10T12:31:21.000Z</time>
      </trkpt>
      <trkpt lat="44.14795" lon="7.25402">
        <ele>2476.1999511719</ele>
        <time>2019-02-10T12:31:23.000Z</time>
      </trkpt>
      <trkpt lat="44.14795" lon="7.25401">
        <ele>2476.6000976562</ele>
        <time>2019-02-10T12:31:24.000Z</time>
      </trkpt>
      <trkpt lat="44.14795" lon="7.25399">
        <ele>2477</ele>
        <time>2019-02-10T12:31:25.000Z</time>
      </trkpt>
      <trkpt lat="44.14795" lon="7.25398">
        <ele>2477.6000976562</ele>
        <time>2019-02-10T12:31:26.000Z</time>
      </trkpt>
      <trkpt lat="44.14797" lon="7.25396">
        <ele>2478.1999511719</ele>
        <time>2019-02-10T12:31:29.000Z</time>
      </trkpt>
      <trkpt lat="44.14797" lon="7.25393">
        <ele>2478.1999511719</ele>
        <time>2019-02-10T12:31:30.000Z</time>
      </trkpt>
      <trkpt lat="44.14799" lon="7.25386">
        <ele>2478.6000976562</ele>
        <time>2019-02-10T12:31:32.000Z</time>
      </trkpt>
      <trkpt lat="44.148" lon="7.25384">
        <ele>2478.8000488281</ele>
        <time>2019-02-10T12:31:34.000Z</time>
      </trkpt>
      <trkpt lat="44.14801" lon="7.25384">
        <ele>2479</ele>
        <time>2019-02-10T12:31:38.000Z</time>
      </trkpt>
      <trkpt lat="44.148" lon="7.25383">
        <ele>2479.3999023438</ele>
        <time>2019-02-10T12:31:42.000Z</time>
      </trkpt>
      <trkpt lat="44.148" lon="7.25383">
        <ele>2479.6000976562</ele>
        <time>2019-02-10T12:31:43.000Z</time>
      </trkpt>
      <trkpt lat="44.14802" lon="7.25382">
        <ele>2479</ele>
        <time>2019-02-10T12:32:05.000Z</time>
      </trkpt>
      <trkpt lat="44.14803" lon="7.25382">
        <ele>2480</ele>
        <time>2019-02-10T12:32:07.000Z</time>
      </trkpt>
      <trkpt lat="44.14803" lon="7.25383">
        <ele>2481</ele>
        <time>2019-02-10T12:32:09.000Z</time>
      </trkpt>
      <trkpt lat="44.14804" lon="7.25384">
        <ele>2481.3999023438</ele>
        <time>2019-02-10T12:32:11.000Z</time>
      </trkpt>
      <trkpt lat="44.14804" lon="7.25384">
        <ele>2481.3999023438</ele>
        <time>2019-02-10T12:32:13.000Z</time>
      </trkpt>
      <trkpt lat="44.14805" lon="7.25385">
        <ele>2481.3999023438</ele>
        <time>2019-02-10T12:32:19.000Z</time>
      </trkpt>
      <trkpt lat="44.14807" lon="7.25387">
        <ele>2481.3999023438</ele>
        <time>2019-02-10T12:32:21.000Z</time>
      </trkpt>
      <trkpt lat="44.14807" lon="7.25388">
        <ele>2481.3999023438</ele>
        <time>2019-02-10T12:32:26.000Z</time>
      </trkpt>
      <trkpt lat="44.14807" lon="7.25388">
        <ele>2481.3999023438</ele>
        <time>2019-02-10T12:32:27.000Z</time>
      </trkpt>
      <trkpt lat="44.14808" lon="7.25387">
        <ele>2481</ele>
        <time>2019-02-10T12:32:32.000Z</time>
      </trkpt>
      <trkpt lat="44.14808" lon="7.25387">
        <ele>2480.8000488281</ele>
        <time>2019-02-10T12:32:34.000Z</time>
      </trkpt>
      <trkpt lat="44.1481" lon="7.25385">
        <ele>2479.3999023438</ele>
        <time>2019-02-10T12:32:38.000Z</time>
      </trkpt>
      <trkpt lat="44.1481" lon="7.25385">
        <ele>2478.8000488281</ele>
        <time>2019-02-10T12:32:39.000Z</time>
      </trkpt>
      <trkpt lat="44.1481" lon="7.25385">
        <ele>2478.3999023438</ele>
        <time>2019-02-10T12:32:40.000Z</time>
      </trkpt>
      <trkpt lat="44.1481" lon="7.25385">
        <ele>2478.1999511719</ele>
        <time>2019-02-10T12:32:41.000Z</time>
      </trkpt>
      <trkpt lat="44.1481" lon="7.25384">
        <ele>2478.1999511719</ele>
        <time>2019-02-10T12:32:42.000Z</time>
      </trkpt>
      <trkpt lat="44.14811" lon="7.25383">
        <ele>2478.1999511719</ele>
        <time>2019-02-10T12:32:43.000Z</time>
      </trkpt>
      <trkpt lat="44.14812" lon="7.25381">
        <ele>2478.8000488281</ele>
        <time>2019-02-10T12:32:47.000Z</time>
      </trkpt>
      <trkpt lat="44.14813" lon="7.25379">
        <ele>2478.3999023438</ele>
        <time>2019-02-10T12:32:51.000Z</time>
      </trkpt>
      <trkpt lat="44.14812" lon="7.25381">
        <ele>2478.6000976562</ele>
        <time>2019-02-10T12:32:54.000Z</time>
      </trkpt>
      <trkpt lat="44.14812" lon="7.25381">
        <ele>2479.1999511719</ele>
        <time>2019-02-10T12:32:56.000Z</time>
      </trkpt>
      <trkpt lat="44.14811" lon="7.25381">
        <ele>2479.3999023438</ele>
        <time>2019-02-10T12:32:58.000Z</time>
      </trkpt>
      <trkpt lat="44.14811" lon="7.25382">
        <ele>2479.1999511719</ele>
        <time>2019-02-10T12:33:00.000Z</time>
      </trkpt>
      <trkpt lat="44.14809" lon="7.25381">
        <ele>2479.3999023438</ele>
        <time>2019-02-10T12:33:10.000Z</time>
      </trkpt>
      <trkpt lat="44.14807" lon="7.25383">
        <ele>2479.1999511719</ele>
        <time>2019-02-10T12:33:12.000Z</time>
      </trkpt>
      <trkpt lat="44.14807" lon="7.25387">
        <ele>2479.1999511719</ele>
        <time>2019-02-10T12:33:17.000Z</time>
      </trkpt>
      <trkpt lat="44.1481" lon="7.25388">
        <ele>2479.1999511719</ele>
        <time>2019-02-10T12:33:23.000Z</time>
      </trkpt>
      <trkpt lat="44.14811" lon="7.25387">
        <ele>2479.6000976562</ele>
        <time>2019-02-10T12:33:27.000Z</time>
      </trkpt>
      <trkpt lat="44.14811" lon="7.25385">
        <ele>2480</ele>
        <time>2019-02-10T12:33:30.000Z</time>
      </trkpt>
      <trkpt lat="44.14811" lon="7.25384">
        <ele>2480</ele>
        <time>2019-02-10T12:33:32.000Z</time>
      </trkpt>
      <trkpt lat="44.14813" lon="7.25381">
        <ele>2479.8000488281</ele>
        <time>2019-02-10T12:33:34.000Z</time>
      </trkpt>
      <trkpt lat="44.14816" lon="7.25378">
        <ele>2478.8000488281</ele>
        <time>2019-02-10T12:33:37.000Z</time>
      </trkpt>
      <trkpt lat="44.14819" lon="7.25374">
        <ele>2478.1999511719</ele>
        <time>2019-02-10T12:33:39.000Z</time>
      </trkpt>
      <trkpt lat="44.14825" lon="7.25368">
        <ele>2477.3999023438</ele>
        <time>2019-02-10T12:33:42.000Z</time>
      </trkpt>
      <trkpt lat="44.14828" lon="7.25366">
        <ele>2477.1999511719</ele>
        <time>2019-02-10T12:33:43.000Z</time>
      </trkpt>
      <trkpt lat="44.14838" lon="7.25355">
        <ele>2476</ele>
        <time>2019-02-10T12:33:47.000Z</time>
      </trkpt>
      <trkpt lat="44.14845" lon="7.25345">
        <ele>2475.3999023438</ele>
        <time>2019-02-10T12:33:50.000Z</time>
      </trkpt>
      <trkpt lat="44.14853" lon="7.25337">
        <ele>2475</ele>
        <time>2019-02-10T12:33:52.000Z</time>
      </trkpt>
      <trkpt lat="44.14857" lon="7.25334">
        <ele>2474.3999023438</ele>
        <time>2019-02-10T12:33:53.000Z</time>
      </trkpt>
      <trkpt lat="44.1486" lon="7.25332">
        <ele>2473.8000488281</ele>
        <time>2019-02-10T12:33:54.000Z</time>
      </trkpt>
      <trkpt lat="44.14865" lon="7.25326">
        <ele>2472.3999023438</ele>
        <time>2019-02-10T12:33:57.000Z</time>
      </trkpt>
      <trkpt lat="44.14866" lon="7.25322">
        <ele>2471.3999023438</ele>
        <time>2019-02-10T12:33:59.000Z</time>
      </trkpt>
      <trkpt lat="44.14866" lon="7.25318">
        <ele>2470.8000488281</ele>
        <time>2019-02-10T12:34:03.000Z</time>
      </trkpt>
      <trkpt lat="44.14865" lon="7.25314">
        <ele>2471</ele>
        <time>2019-02-10T12:34:07.000Z</time>
      </trkpt>
      <trkpt lat="44.14865" lon="7.25313">
        <ele>2471.1999511719</ele>
        <time>2019-02-10T12:34:09.000Z</time>
      </trkpt>
      <trkpt lat="44.14864" lon="7.25312">
        <ele>2471.3999023438</ele>
        <time>2019-02-10T12:34:13.000Z</time>
      </trkpt>
      <trkpt lat="44.14864" lon="7.25311">
        <ele>2471.3999023438</ele>
        <time>2019-02-10T12:34:15.000Z</time>
      </trkpt>
      <trkpt lat="44.14865" lon="7.25311">
        <ele>2471.3999023438</ele>
        <time>2019-02-10T12:34:17.000Z</time>
      </trkpt>
      <trkpt lat="44.14865" lon="7.25312">
        <ele>2471.3999023438</ele>
        <time>2019-02-10T12:34:19.000Z</time>
      </trkpt>
      <trkpt lat="44.14863" lon="7.25315">
        <ele>2472.1999511719</ele>
        <time>2019-02-10T12:34:35.000Z</time>
      </trkpt>
      <trkpt lat="44.14863" lon="7.25315">
        <ele>2472.3999023438</ele>
        <time>2019-02-10T12:34:37.000Z</time>
      </trkpt>
      <trkpt lat="44.14863" lon="7.25314">
        <ele>2472.1999511719</ele>
        <time>2019-02-10T12:34:47.000Z</time>
      </trkpt>
      <trkpt lat="44.14863" lon="7.25314">
        <ele>2472.1999511719</ele>
        <time>2019-02-10T12:34:49.000Z</time>
      </trkpt>
      <trkpt lat="44.14868" lon="7.25331">
        <ele>2471.6000976562</ele>
        <time>2019-02-10T12:35:00.000Z</time>
      </trkpt>
      <trkpt lat="44.14868" lon="7.25335">
        <ele>2471.1999511719</ele>
        <time>2019-02-10T12:35:01.000Z</time>
      </trkpt>
      <trkpt lat="44.14869" lon="7.2534">
        <ele>2470</ele>
        <time>2019-02-10T12:35:03.000Z</time>
      </trkpt>
      <trkpt lat="44.14869" lon="7.25343">
        <ele>2469.6000976562</ele>
        <time>2019-02-10T12:35:04.000Z</time>
      </trkpt>
      <trkpt lat="44.1487" lon="7.25349">
        <ele>2468.8000488281</ele>
        <time>2019-02-10T12:35:06.000Z</time>
      </trkpt>
      <trkpt lat="44.1487" lon="7.25355">
        <ele>2467.8000488281</ele>
        <time>2019-02-10T12:35:08.000Z</time>
      </trkpt>
      <trkpt lat="44.1487" lon="7.25356">
        <ele>2467.1999511719</ele>
        <time>2019-02-10T12:35:09.000Z</time>
      </trkpt>
      <trkpt lat="44.14871" lon="7.25359">
        <ele>2466.6000976562</ele>
        <time>2019-02-10T12:35:11.000Z</time>
      </trkpt>
      <trkpt lat="44.14872" lon="7.25362">
        <ele>2466.1999511719</ele>
        <time>2019-02-10T12:35:21.000Z</time>
      </trkpt>
      <trkpt lat="44.14874" lon="7.25363">
        <ele>2466.1999511719</ele>
        <time>2019-02-10T12:35:25.000Z</time>
      </trkpt>
      <trkpt lat="44.14874" lon="7.25364">
        <ele>2466.1999511719</ele>
        <time>2019-02-10T12:35:27.000Z</time>
      </trkpt>
      <trkpt lat="44.14874" lon="7.25366">
        <ele>2465.6000976562</ele>
        <time>2019-02-10T12:35:30.000Z</time>
      </trkpt>
      <trkpt lat="44.1488" lon="7.25368">
        <ele>2464.6000976562</ele>
        <time>2019-02-10T12:35:36.000Z</time>
      </trkpt>
      <trkpt lat="44.14882" lon="7.25375">
        <ele>2462.3999023438</ele>
        <time>2019-02-10T12:35:38.000Z</time>
      </trkpt>
      <trkpt lat="44.14883" lon="7.25377">
        <ele>2460.8000488281</ele>
        <time>2019-02-10T12:35:39.000Z</time>
      </trkpt>
      <trkpt lat="44.14885" lon="7.25379">
        <ele>2459.3999023438</ele>
        <time>2019-02-10T12:35:40.000Z</time>
      </trkpt>
      <trkpt lat="44.14888" lon="7.25379">
        <ele>2458.1999511719</ele>
        <time>2019-02-10T12:35:41.000Z</time>
      </trkpt>
      <trkpt lat="44.14892" lon="7.25376">
        <ele>2456.6000976562</ele>
        <time>2019-02-10T12:35:43.000Z</time>
      </trkpt>
      <trkpt lat="44.14893" lon="7.25375">
        <ele>2455.8000488281</ele>
        <time>2019-02-10T12:35:45.000Z</time>
      </trkpt>
      <trkpt lat="44.14892" lon="7.25374">
        <ele>2455.6000976562</ele>
        <time>2019-02-10T12:35:47.000Z</time>
      </trkpt>
      <trkpt lat="44.14892" lon="7.25374">
        <ele>2456</ele>
        <time>2019-02-10T12:35:49.000Z</time>
      </trkpt>
      <trkpt lat="44.1489" lon="7.25372">
        <ele>2456.1999511719</ele>
        <time>2019-02-10T12:36:00.000Z</time>
      </trkpt>
      <trkpt lat="44.1489" lon="7.25373">
        <ele>2456.6000976562</ele>
        <time>2019-02-10T12:36:02.000Z</time>
      </trkpt>
      <trkpt lat="44.1489" lon="7.25372">
        <ele>2456.8000488281</ele>
        <time>2019-02-10T12:36:03.000Z</time>
      </trkpt>
      <trkpt lat="44.14885" lon="7.2537">
        <ele>2456.3999023438</ele>
        <time>2019-02-10T12:36:10.000Z</time>
      </trkpt>
      <trkpt lat="44.14888" lon="7.2537">
        <ele>2456.8000488281</ele>
        <time>2019-02-10T12:36:16.000Z</time>
      </trkpt>
      <trkpt lat="44.14888" lon="7.2537">
        <ele>2456.6000976562</ele>
        <time>2019-02-10T12:36:17.000Z</time>
      </trkpt>
      <trkpt lat="44.14889" lon="7.2537">
        <ele>2455.8000488281</ele>
        <time>2019-02-10T12:36:20.000Z</time>
      </trkpt>
      <trkpt lat="44.14886" lon="7.25369">
        <ele>2455.3999023438</ele>
        <time>2019-02-10T12:36:22.000Z</time>
      </trkpt>
      <trkpt lat="44.14886" lon="7.25369">
        <ele>2455.3999023438</ele>
        <time>2019-02-10T12:36:23.000Z</time>
      </trkpt>
      <trkpt lat="44.14886" lon="7.25369">
        <ele>2455.1999511719</ele>
        <time>2019-02-10T12:36:25.000Z</time>
      </trkpt>
      <trkpt lat="44.14878" lon="7.25366">
        <ele>2455.3999023438</ele>
        <time>2019-02-10T12:36:28.000Z</time>
      </trkpt>
      <trkpt lat="44.14874" lon="7.25366">
        <ele>2455.8000488281</ele>
        <time>2019-02-10T12:36:34.000Z</time>
      </trkpt>
      <trkpt lat="44.14875" lon="7.25366">
        <ele>2455.8000488281</ele>
        <time>2019-02-10T12:36:39.000Z</time>
      </trkpt>
      <trkpt lat="44.14877" lon="7.25366">
        <ele>2455.6000976562</ele>
        <time>2019-02-10T12:36:43.000Z</time>
      </trkpt>
      <trkpt lat="44.14878" lon="7.25367">
        <ele>2455.6000976562</ele>
        <time>2019-02-10T12:36:44.000Z</time>
      </trkpt>
      <trkpt lat="44.14881" lon="7.25366">
        <ele>2455.8000488281</ele>
        <time>2019-02-10T12:36:48.000Z</time>
      </trkpt>
      <trkpt lat="44.1488" lon="7.25366">
        <ele>2455.8000488281</ele>
        <time>2019-02-10T12:36:49.000Z</time>
      </trkpt>
      <trkpt lat="44.1488" lon="7.25366">
        <ele>2455.8000488281</ele>
        <time>2019-02-10T12:36:50.000Z</time>
      </trkpt>
      <trkpt lat="44.14878" lon="7.25365">
        <ele>2455.8000488281</ele>
        <time>2019-02-10T12:36:52.000Z</time>
      </trkpt>
      <trkpt lat="44.1488" lon="7.25365">
        <ele>2455.3999023438</ele>
        <time>2019-02-10T12:36:56.000Z</time>
      </trkpt>
      <trkpt lat="44.14881" lon="7.25365">
        <ele>2455.3999023438</ele>
        <time>2019-02-10T12:36:57.000Z</time>
      </trkpt>
      <trkpt lat="44.14885" lon="7.25366">
        <ele>2455.8000488281</ele>
        <time>2019-02-10T12:37:02.000Z</time>
      </trkpt>
      <trkpt lat="44.14886" lon="7.25366">
        <ele>2456</ele>
        <time>2019-02-10T12:37:03.000Z</time>
      </trkpt>
      <trkpt lat="44.14886" lon="7.25366">
        <ele>2456.1999511719</ele>
        <time>2019-02-10T12:37:06.000Z</time>
      </trkpt>
      <trkpt lat="44.14883" lon="7.25365">
        <ele>2455.3999023438</ele>
        <time>2019-02-10T12:37:11.000Z</time>
      </trkpt>
      <trkpt lat="44.14882" lon="7.25366">
        <ele>2455.3999023438</ele>
        <time>2019-02-10T12:37:13.000Z</time>
      </trkpt>
      <trkpt lat="44.14882" lon="7.25367">
        <ele>2455.3999023438</ele>
        <time>2019-02-10T12:37:17.000Z</time>
      </trkpt>
      <trkpt lat="44.14882" lon="7.25367">
        <ele>2455.3999023438</ele>
        <time>2019-02-10T12:37:18.000Z</time>
      </trkpt>
      <trkpt lat="44.14881" lon="7.25367">
        <ele>2455.3999023438</ele>
        <time>2019-02-10T12:37:19.000Z</time>
      </trkpt>
      <trkpt lat="44.14882" lon="7.25367">
        <ele>2455.1999511719</ele>
        <time>2019-02-10T12:37:21.000Z</time>
      </trkpt>
      <trkpt lat="44.14882" lon="7.25367">
        <ele>2455.1999511719</ele>
        <time>2019-02-10T12:37:22.000Z</time>
      </trkpt>
      <trkpt lat="44.14883" lon="7.25364">
        <ele>2455.3999023438</ele>
        <time>2019-02-10T12:37:26.000Z</time>
      </trkpt>
      <trkpt lat="44.14885" lon="7.25361">
        <ele>2455.3999023438</ele>
        <time>2019-02-10T12:37:29.000Z</time>
      </trkpt>
      <trkpt lat="44.14886" lon="7.25359">
        <ele>2455.1999511719</ele>
        <time>2019-02-10T12:37:30.000Z</time>
      </trkpt>
      <trkpt lat="44.1489" lon="7.25356">
        <ele>2455</ele>
        <time>2019-02-10T12:37:32.000Z</time>
      </trkpt>
      <trkpt lat="44.14893" lon="7.25354">
        <ele>2454.8000488281</ele>
        <time>2019-02-10T12:37:33.000Z</time>
      </trkpt>
      <trkpt lat="44.149" lon="7.25352">
        <ele>2454.3999023438</ele>
        <time>2019-02-10T12:37:35.000Z</time>
      </trkpt>
      <trkpt lat="44.14903" lon="7.2535">
        <ele>2453.6000976562</ele>
        <time>2019-02-10T12:37:36.000Z</time>
      </trkpt>
      <trkpt lat="44.14905" lon="7.25347">
        <ele>2452.8000488281</ele>
        <time>2019-02-10T12:37:37.000Z</time>
      </trkpt>
      <trkpt lat="44.14907" lon="7.2534">
        <ele>2451.3999023438</ele>
        <time>2019-02-10T12:37:39.000Z</time>
      </trkpt>
      <trkpt lat="44.14907" lon="7.25331">
        <ele>2450.8000488281</ele>
        <time>2019-02-10T12:37:41.000Z</time>
      </trkpt>
      <trkpt lat="44.1491" lon="7.25327">
        <ele>2450.1999511719</ele>
        <time>2019-02-10T12:37:43.000Z</time>
      </trkpt>
      <trkpt lat="44.1491" lon="7.25326">
        <ele>2450</ele>
        <time>2019-02-10T12:37:44.000Z</time>
      </trkpt>
      <trkpt lat="44.1491" lon="7.25325">
        <ele>2449.6000976562</ele>
        <time>2019-02-10T12:37:46.000Z</time>
      </trkpt>
      <trkpt lat="44.1491" lon="7.25316">
        <ele>2449.6000976562</ele>
        <time>2019-02-10T12:37:50.000Z</time>
      </trkpt>
      <trkpt lat="44.1491" lon="7.25311">
        <ele>2449.3999023438</ele>
        <time>2019-02-10T12:37:51.000Z</time>
      </trkpt>
      <trkpt lat="44.1491" lon="7.25295">
        <ele>2448.6000976562</ele>
        <time>2019-02-10T12:37:54.000Z</time>
      </trkpt>
      <trkpt lat="44.14913" lon="7.2529">
        <ele>2447.8000488281</ele>
        <time>2019-02-10T12:37:55.000Z</time>
      </trkpt>
      <trkpt lat="44.14916" lon="7.25286">
        <ele>2447</ele>
        <time>2019-02-10T12:37:56.000Z</time>
      </trkpt>
      <trkpt lat="44.14918" lon="7.25283">
        <ele>2446.3999023438</ele>
        <time>2019-02-10T12:37:57.000Z</time>
      </trkpt>
      <trkpt lat="44.14921" lon="7.2528">
        <ele>2446</ele>
        <time>2019-02-10T12:37:58.000Z</time>
      </trkpt>
      <trkpt lat="44.14926" lon="7.25271">
        <ele>2444.6000976562</ele>
        <time>2019-02-10T12:38:02.000Z</time>
      </trkpt>
      <trkpt lat="44.14927" lon="7.25269">
        <ele>2444</ele>
        <time>2019-02-10T12:38:05.000Z</time>
      </trkpt>
      <trkpt lat="44.14927" lon="7.25268">
        <ele>2444</ele>
        <time>2019-02-10T12:38:06.000Z</time>
      </trkpt>
      <trkpt lat="44.1493" lon="7.25266">
        <ele>2444.3999023438</ele>
        <time>2019-02-10T12:38:10.000Z</time>
      </trkpt>
      <trkpt lat="44.14932" lon="7.25264">
        <ele>2444.3999023438</ele>
        <time>2019-02-10T12:38:11.000Z</time>
      </trkpt>
      <trkpt lat="44.14937" lon="7.25258">
        <ele>2444</ele>
        <time>2019-02-10T12:38:13.000Z</time>
      </trkpt>
      <trkpt lat="44.14939" lon="7.25255">
        <ele>2443.6000976562</ele>
        <time>2019-02-10T12:38:14.000Z</time>
      </trkpt>
      <trkpt lat="44.14941" lon="7.25249">
        <ele>2442.1999511719</ele>
        <time>2019-02-10T12:38:16.000Z</time>
      </trkpt>
      <trkpt lat="44.14942" lon="7.25245">
        <ele>2441.1999511719</ele>
        <time>2019-02-10T12:38:17.000Z</time>
      </trkpt>
      <trkpt lat="44.14943" lon="7.25236">
        <ele>2439.1999511719</ele>
        <time>2019-02-10T12:38:19.000Z</time>
      </trkpt>
      <trkpt lat="44.14943" lon="7.25227">
        <ele>2438.1999511719</ele>
        <time>2019-02-10T12:38:22.000Z</time>
      </trkpt>
      <trkpt lat="44.14944" lon="7.25223">
        <ele>2437.6000976562</ele>
        <time>2019-02-10T12:38:24.000Z</time>
      </trkpt>
      <trkpt lat="44.14945" lon="7.25215">
        <ele>2438.8000488281</ele>
        <time>2019-02-10T12:38:29.000Z</time>
      </trkpt>
      <trkpt lat="44.14946" lon="7.2521">
        <ele>2439</ele>
        <time>2019-02-10T12:38:32.000Z</time>
      </trkpt>
      <trkpt lat="44.14946" lon="7.25208">
        <ele>2439.3999023438</ele>
        <time>2019-02-10T12:38:33.000Z</time>
      </trkpt>
      <trkpt lat="44.14946" lon="7.25206">
        <ele>2439</ele>
        <time>2019-02-10T12:38:35.000Z</time>
      </trkpt>
      <trkpt lat="44.14946" lon="7.252">
        <ele>2439</ele>
        <time>2019-02-10T12:38:38.000Z</time>
      </trkpt>
      <trkpt lat="44.14948" lon="7.25192">
        <ele>2438.1999511719</ele>
        <time>2019-02-10T12:38:43.000Z</time>
      </trkpt>
      <trkpt lat="44.14947" lon="7.25174">
        <ele>2437.6000976562</ele>
        <time>2019-02-10T12:38:53.000Z</time>
      </trkpt>
      <trkpt lat="44.14946" lon="7.25171">
        <ele>2437.3999023438</ele>
        <time>2019-02-10T12:38:55.000Z</time>
      </trkpt>
      <trkpt lat="44.14953" lon="7.25158">
        <ele>2438</ele>
        <time>2019-02-10T12:39:02.000Z</time>
      </trkpt>
      <trkpt lat="44.14962" lon="7.25149">
        <ele>2436.6000976562</ele>
        <time>2019-02-10T12:39:05.000Z</time>
      </trkpt>
      <trkpt lat="44.14967" lon="7.25146">
        <ele>2435.6000976562</ele>
        <time>2019-02-10T12:39:06.000Z</time>
      </trkpt>
      <trkpt lat="44.14971" lon="7.25142">
        <ele>2434</ele>
        <time>2019-02-10T12:39:07.000Z</time>
      </trkpt>
      <trkpt lat="44.14973" lon="7.25137">
        <ele>2432.6000976562</ele>
        <time>2019-02-10T12:39:08.000Z</time>
      </trkpt>
      <trkpt lat="44.14974" lon="7.25132">
        <ele>2431.3999023438</ele>
        <time>2019-02-10T12:39:09.000Z</time>
      </trkpt>
      <trkpt lat="44.14973" lon="7.2512">
        <ele>2429.8000488281</ele>
        <time>2019-02-10T12:39:11.000Z</time>
      </trkpt>
      <trkpt lat="44.1497" lon="7.25109">
        <ele>2428.8000488281</ele>
        <time>2019-02-10T12:39:13.000Z</time>
      </trkpt>
      <trkpt lat="44.14968" lon="7.25104">
        <ele>2428.1999511719</ele>
        <time>2019-02-10T12:39:14.000Z</time>
      </trkpt>
      <trkpt lat="44.1496" lon="7.25091">
        <ele>2427.6000976562</ele>
        <time>2019-02-10T12:39:18.000Z</time>
      </trkpt>
      <trkpt lat="44.14952" lon="7.25081">
        <ele>2426.8000488281</ele>
        <time>2019-02-10T12:39:24.000Z</time>
      </trkpt>
      <trkpt lat="44.14951" lon="7.25079">
        <ele>2426.8000488281</ele>
        <time>2019-02-10T12:39:27.000Z</time>
      </trkpt>
      <trkpt lat="44.1495" lon="7.25074">
        <ele>2426.8000488281</ele>
        <time>2019-02-10T12:39:31.000Z</time>
      </trkpt>
      <trkpt lat="44.14949" lon="7.2507">
        <ele>2427.3999023438</ele>
        <time>2019-02-10T12:39:41.000Z</time>
      </trkpt>
      <trkpt lat="44.14946" lon="7.25067">
        <ele>2427.6000976562</ele>
        <time>2019-02-10T12:39:46.000Z</time>
      </trkpt>
      <trkpt lat="44.14946" lon="7.25064">
        <ele>2428.3999023438</ele>
        <time>2019-02-10T12:39:50.000Z</time>
      </trkpt>
      <trkpt lat="44.14945" lon="7.25064">
        <ele>2428.6000976562</ele>
        <time>2019-02-10T12:39:51.000Z</time>
      </trkpt>
      <trkpt lat="44.14945" lon="7.25061">
        <ele>2428.3999023438</ele>
        <time>2019-02-10T12:39:56.000Z</time>
      </trkpt>
      <trkpt lat="44.14944" lon="7.25059">
        <ele>2428.6000976562</ele>
        <time>2019-02-10T12:39:58.000Z</time>
      </trkpt>
      <trkpt lat="44.14943" lon="7.25058">
        <ele>2427.8000488281</ele>
        <time>2019-02-10T12:40:00.000Z</time>
      </trkpt>
      <trkpt lat="44.14941" lon="7.25055">
        <ele>2427.6000976562</ele>
        <time>2019-02-10T12:40:02.000Z</time>
      </trkpt>
      <trkpt lat="44.14939" lon="7.25046">
        <ele>2426.8000488281</ele>
        <time>2019-02-10T12:40:08.000Z</time>
      </trkpt>
      <trkpt lat="44.14939" lon="7.25045">
        <ele>2426.8000488281</ele>
        <time>2019-02-10T12:40:09.000Z</time>
      </trkpt>
      <trkpt lat="44.14938" lon="7.25044">
        <ele>2426.8000488281</ele>
        <time>2019-02-10T12:40:10.000Z</time>
      </trkpt>
      <trkpt lat="44.14938" lon="7.25042">
        <ele>2426.8000488281</ele>
        <time>2019-02-10T12:40:11.000Z</time>
      </trkpt>
      <trkpt lat="44.14936" lon="7.25035">
        <ele>2426.6000976562</ele>
        <time>2019-02-10T12:40:18.000Z</time>
      </trkpt>
      <trkpt lat="44.14935" lon="7.25034">
        <ele>2426.3999023438</ele>
        <time>2019-02-10T12:40:19.000Z</time>
      </trkpt>
      <trkpt lat="44.14935" lon="7.25027">
        <ele>2426.1999511719</ele>
        <time>2019-02-10T12:40:22.000Z</time>
      </trkpt>
      <trkpt lat="44.14933" lon="7.25009">
        <ele>2425.3999023438</ele>
        <time>2019-02-10T12:40:26.000Z</time>
      </trkpt>
      <trkpt lat="44.14934" lon="7.25004">
        <ele>2425</ele>
        <time>2019-02-10T12:40:27.000Z</time>
      </trkpt>
      <trkpt lat="44.14934" lon="7.24999">
        <ele>2424.3999023438</ele>
        <time>2019-02-10T12:40:28.000Z</time>
      </trkpt>
      <trkpt lat="44.14935" lon="7.24995">
        <ele>2424</ele>
        <time>2019-02-10T12:40:29.000Z</time>
      </trkpt>
      <trkpt lat="44.14936" lon="7.24989">
        <ele>2423.1999511719</ele>
        <time>2019-02-10T12:40:31.000Z</time>
      </trkpt>
      <trkpt lat="44.14937" lon="7.24984">
        <ele>2423</ele>
        <time>2019-02-10T12:40:33.000Z</time>
      </trkpt>
      <trkpt lat="44.14943" lon="7.24935">
        <ele>2421.8000488281</ele>
        <time>2019-02-10T12:40:53.000Z</time>
      </trkpt>
      <trkpt lat="44.14942" lon="7.24922">
        <ele>2421.3999023438</ele>
        <time>2019-02-10T12:41:01.000Z</time>
      </trkpt>
      <trkpt lat="44.14942" lon="7.2492">
        <ele>2421.1999511719</ele>
        <time>2019-02-10T12:41:03.000Z</time>
      </trkpt>
      <trkpt lat="44.14943" lon="7.24918">
        <ele>2421</ele>
        <time>2019-02-10T12:41:05.000Z</time>
      </trkpt>
      <trkpt lat="44.14943" lon="7.24915">
        <ele>2421</ele>
        <time>2019-02-10T12:41:08.000Z</time>
      </trkpt>
      <trkpt lat="44.14942" lon="7.24912">
        <ele>2421.1999511719</ele>
        <time>2019-02-10T12:41:11.000Z</time>
      </trkpt>
      <trkpt lat="44.14942" lon="7.24909">
        <ele>2421.1999511719</ele>
        <time>2019-02-10T12:41:14.000Z</time>
      </trkpt>
      <trkpt lat="44.14942" lon="7.24906">
        <ele>2421</ele>
        <time>2019-02-10T12:41:16.000Z</time>
      </trkpt>
      <trkpt lat="44.14942" lon="7.24903">
        <ele>2420.8000488281</ele>
        <time>2019-02-10T12:41:19.000Z</time>
      </trkpt>
      <trkpt lat="44.14942" lon="7.24902">
        <ele>2420.8000488281</ele>
        <time>2019-02-10T12:41:20.000Z</time>
      </trkpt>
      <trkpt lat="44.14943" lon="7.24898">
        <ele>2420.8000488281</ele>
        <time>2019-02-10T12:41:23.000Z</time>
      </trkpt>
      <trkpt lat="44.14947" lon="7.24889">
        <ele>2420.6000976562</ele>
        <time>2019-02-10T12:41:35.000Z</time>
      </trkpt>
      <trkpt lat="44.14949" lon="7.24878">
        <ele>2420.3999023438</ele>
        <time>2019-02-10T12:41:41.000Z</time>
      </trkpt>
      <trkpt lat="44.1495" lon="7.24872">
        <ele>2420</ele>
        <time>2019-02-10T12:41:43.000Z</time>
      </trkpt>
      <trkpt lat="44.1495" lon="7.2487">
        <ele>2419.8000488281</ele>
        <time>2019-02-10T12:41:44.000Z</time>
      </trkpt>
      <trkpt lat="44.1495" lon="7.24867">
        <ele>2419.1999511719</ele>
        <time>2019-02-10T12:41:47.000Z</time>
      </trkpt>
      <trkpt lat="44.1495" lon="7.24867">
        <ele>2418.8000488281</ele>
        <time>2019-02-10T12:41:53.000Z</time>
      </trkpt>
      <trkpt lat="44.1495" lon="7.24867">
        <ele>2418.8000488281</ele>
        <time>2019-02-10T12:41:54.000Z</time>
      </trkpt>
      <trkpt lat="44.1495" lon="7.24867">
        <ele>2418.8000488281</ele>
        <time>2019-02-10T12:41:57.000Z</time>
      </trkpt>
      <trkpt lat="44.1495" lon="7.24867">
        <ele>2419.6000976562</ele>
        <time>2019-02-10T12:42:00.000Z</time>
      </trkpt>
      <trkpt lat="44.14951" lon="7.24867">
        <ele>2419.8000488281</ele>
        <time>2019-02-10T12:42:02.000Z</time>
      </trkpt>
      <trkpt lat="44.14951" lon="7.24867">
        <ele>2419.8000488281</ele>
        <time>2019-02-10T12:42:03.000Z</time>
      </trkpt>
      <trkpt lat="44.14951" lon="7.24867">
        <ele>2419.6000976562</ele>
        <time>2019-02-10T12:42:05.000Z</time>
      </trkpt>
      <trkpt lat="44.14951" lon="7.24867">
        <ele>2419.3999023438</ele>
        <time>2019-02-10T12:42:08.000Z</time>
      </trkpt>
      <trkpt lat="44.14951" lon="7.24867">
        <ele>2419</ele>
        <time>2019-02-10T12:42:10.000Z</time>
      </trkpt>
      <trkpt lat="44.14951" lon="7.24867">
        <ele>2418.8000488281</ele>
        <time>2019-02-10T12:42:12.000Z</time>
      </trkpt>
      <trkpt lat="44.14951" lon="7.24867">
        <ele>2419.3999023438</ele>
        <time>2019-02-10T12:42:18.000Z</time>
      </trkpt>
      <trkpt lat="44.14951" lon="7.24867">
        <ele>2419.6000976562</ele>
        <time>2019-02-10T12:42:19.000Z</time>
      </trkpt>
      <trkpt lat="44.1495" lon="7.24863">
        <ele>2418.1999511719</ele>
        <time>2019-02-10T12:42:26.000Z</time>
      </trkpt>
      <trkpt lat="44.1495" lon="7.24863">
        <ele>2417.8000488281</ele>
        <time>2019-02-10T12:42:27.000Z</time>
      </trkpt>
      <trkpt lat="44.1495" lon="7.24863">
        <ele>2417.3999023438</ele>
        <time>2019-02-10T12:42:29.000Z</time>
      </trkpt>
      <trkpt lat="44.1495" lon="7.24863">
        <ele>2417.8000488281</ele>
        <time>2019-02-10T12:42:31.000Z</time>
      </trkpt>
      <trkpt lat="44.14949" lon="7.24862">
        <ele>2419.1999511719</ele>
        <time>2019-02-10T12:42:34.000Z</time>
      </trkpt>
      <trkpt lat="44.1495" lon="7.24863">
        <ele>2419.3999023438</ele>
        <time>2019-02-10T12:42:35.000Z</time>
      </trkpt>
      <trkpt lat="44.14949" lon="7.24861">
        <ele>2418.8000488281</ele>
        <time>2019-02-10T12:42:39.000Z</time>
      </trkpt>
      <trkpt lat="44.14949" lon="7.24861">
        <ele>2418</ele>
        <time>2019-02-10T12:42:41.000Z</time>
      </trkpt>
      <trkpt lat="44.1495" lon="7.24861">
        <ele>2417.6000976562</ele>
        <time>2019-02-10T12:42:43.000Z</time>
      </trkpt>
      <trkpt lat="44.1495" lon="7.24862">
        <ele>2417.3999023438</ele>
        <time>2019-02-10T12:42:44.000Z</time>
      </trkpt>
      <trkpt lat="44.1495" lon="7.24863">
        <ele>2417.3999023438</ele>
        <time>2019-02-10T12:42:47.000Z</time>
      </trkpt>
      <trkpt lat="44.14952" lon="7.24866">
        <ele>2418.6000976562</ele>
        <time>2019-02-10T12:42:52.000Z</time>
      </trkpt>
      <trkpt lat="44.14952" lon="7.24866">
        <ele>2418.6000976562</ele>
        <time>2019-02-10T12:42:56.000Z</time>
      </trkpt>
      <trkpt lat="44.14952" lon="7.24866">
        <ele>2418.6000976562</ele>
        <time>2019-02-10T12:42:58.000Z</time>
      </trkpt>
      <trkpt lat="44.14952" lon="7.24866">
        <ele>2418.6000976562</ele>
        <time>2019-02-10T12:43:06.000Z</time>
      </trkpt>
      <trkpt lat="44.14952" lon="7.24866">
        <ele>2418.6000976562</ele>
        <time>2019-02-10T12:43:15.000Z</time>
      </trkpt>
      <trkpt lat="44.14952" lon="7.24867">
        <ele>2418.6000976562</ele>
        <time>2019-02-10T12:43:20.000Z</time>
      </trkpt>
      <trkpt lat="44.14952" lon="7.24867">
        <ele>2418.6000976562</ele>
        <time>2019-02-10T12:43:24.000Z</time>
      </trkpt>
      <trkpt lat="44.14951" lon="7.24866">
        <ele>2418.6000976562</ele>
        <time>2019-02-10T12:43:26.000Z</time>
      </trkpt>
      <trkpt lat="44.14952" lon="7.24865">
        <ele>2418.6000976562</ele>
        <time>2019-02-10T12:43:27.000Z</time>
      </trkpt>
      <trkpt lat="44.14951" lon="7.24865">
        <ele>2418.6000976562</ele>
        <time>2019-02-10T12:43:28.000Z</time>
      </trkpt>
      <trkpt lat="44.14952" lon="7.24864">
        <ele>2418.6000976562</ele>
        <time>2019-02-10T12:43:29.000Z</time>
      </trkpt>
      <trkpt lat="44.14953" lon="7.2486">
        <ele>2418.6000976562</ele>
        <time>2019-02-10T12:43:31.000Z</time>
      </trkpt>
      <trkpt lat="44.14956" lon="7.24852">
        <ele>2418.6000976562</ele>
        <time>2019-02-10T12:43:34.000Z</time>
      </trkpt>
      <trkpt lat="44.14956" lon="7.24848">
        <ele>2417.8000488281</ele>
        <time>2019-02-10T12:43:36.000Z</time>
      </trkpt>
      <trkpt lat="44.14956" lon="7.24848">
        <ele>2417.8000488281</ele>
        <time>2019-02-10T12:43:37.000Z</time>
      </trkpt>
      <trkpt lat="44.14956" lon="7.24847">
        <ele>2417.8000488281</ele>
        <time>2019-02-10T12:43:39.000Z</time>
      </trkpt>
      <trkpt lat="44.14956" lon="7.24846">
        <ele>2417.6000976562</ele>
        <time>2019-02-10T12:43:42.000Z</time>
      </trkpt>
      <trkpt lat="44.14955" lon="7.24845">
        <ele>2417.3999023438</ele>
        <time>2019-02-10T12:43:47.000Z</time>
      </trkpt>
      <trkpt lat="44.14955" lon="7.24843">
        <ele>2417</ele>
        <time>2019-02-10T12:43:52.000Z</time>
      </trkpt>
      <trkpt lat="44.14954" lon="7.24842">
        <ele>2417</ele>
        <time>2019-02-10T12:43:59.000Z</time>
      </trkpt>
      <trkpt lat="44.14954" lon="7.24841">
        <ele>2417</ele>
        <time>2019-02-10T12:44:03.000Z</time>
      </trkpt>
      <trkpt lat="44.14955" lon="7.24833">
        <ele>2416.6000976562</ele>
        <time>2019-02-10T12:44:08.000Z</time>
      </trkpt>
      <trkpt lat="44.14956" lon="7.24833">
        <ele>2416.1999511719</ele>
        <time>2019-02-10T12:44:09.000Z</time>
      </trkpt>
      <trkpt lat="44.14956" lon="7.24833">
        <ele>2415.6000976562</ele>
        <time>2019-02-10T12:44:10.000Z</time>
      </trkpt>
      <trkpt lat="44.14957" lon="7.24833">
        <ele>2414.8000488281</ele>
        <time>2019-02-10T12:44:11.000Z</time>
      </trkpt>
      <trkpt lat="44.14959" lon="7.24832">
        <ele>2414</ele>
        <time>2019-02-10T12:44:12.000Z</time>
      </trkpt>
      <trkpt lat="44.14961" lon="7.24829">
        <ele>2413</ele>
        <time>2019-02-10T12:44:14.000Z</time>
      </trkpt>
      <trkpt lat="44.14967" lon="7.24825">
        <ele>2410.8000488281</ele>
        <time>2019-02-10T12:44:16.000Z</time>
      </trkpt>
      <trkpt lat="44.1497" lon="7.24824">
        <ele>2409.1999511719</ele>
        <time>2019-02-10T12:44:17.000Z</time>
      </trkpt>
      <trkpt lat="44.14972" lon="7.24825">
        <ele>2407.6000976562</ele>
        <time>2019-02-10T12:44:18.000Z</time>
      </trkpt>
      <trkpt lat="44.14975" lon="7.24826">
        <ele>2406</ele>
        <time>2019-02-10T12:44:19.000Z</time>
      </trkpt>
      <trkpt lat="44.14978" lon="7.24826">
        <ele>2404.1999511719</ele>
        <time>2019-02-10T12:44:20.000Z</time>
      </trkpt>
      <trkpt lat="44.1498" lon="7.24824">
        <ele>2402.6000976562</ele>
        <time>2019-02-10T12:44:21.000Z</time>
      </trkpt>
      <trkpt lat="44.1498" lon="7.24821">
        <ele>2401.1999511719</ele>
        <time>2019-02-10T12:44:22.000Z</time>
      </trkpt>
      <trkpt lat="44.14979" lon="7.24818">
        <ele>2399.6000976562</ele>
        <time>2019-02-10T12:44:23.000Z</time>
      </trkpt>
      <trkpt lat="44.14979" lon="7.24816">
        <ele>2398.3999023438</ele>
        <time>2019-02-10T12:44:24.000Z</time>
      </trkpt>
      <trkpt lat="44.14977" lon="7.24814">
        <ele>2396.8000488281</ele>
        <time>2019-02-10T12:44:26.000Z</time>
      </trkpt>
      <trkpt lat="44.14977" lon="7.24814">
        <ele>2396.6000976562</ele>
        <time>2019-02-10T12:44:29.000Z</time>
      </trkpt>
      <trkpt lat="44.14979" lon="7.2481">
        <ele>2396.1999511719</ele>
        <time>2019-02-10T12:44:37.000Z</time>
      </trkpt>
      <trkpt lat="44.14978" lon="7.24806">
        <ele>2395.8000488281</ele>
        <time>2019-02-10T12:44:40.000Z</time>
      </trkpt>
      <trkpt lat="44.1498" lon="7.24806">
        <ele>2395.3999023438</ele>
        <time>2019-02-10T12:44:46.000Z</time>
      </trkpt>
      <trkpt lat="44.14976" lon="7.24804">
        <ele>2395.8000488281</ele>
        <time>2019-02-10T12:44:53.000Z</time>
      </trkpt>
      <trkpt lat="44.14972" lon="7.24803">
        <ele>2395.8000488281</ele>
        <time>2019-02-10T12:44:57.000Z</time>
      </trkpt>
      <trkpt lat="44.14972" lon="7.24805">
        <ele>2395.8000488281</ele>
        <time>2019-02-10T12:44:59.000Z</time>
      </trkpt>
      <trkpt lat="44.1497" lon="7.24806">
        <ele>2395.8000488281</ele>
        <time>2019-02-10T12:45:03.000Z</time>
      </trkpt>
      <trkpt lat="44.14971" lon="7.24807">
        <ele>2396</ele>
        <time>2019-02-10T12:45:06.000Z</time>
      </trkpt>
      <trkpt lat="44.1497" lon="7.24807">
        <ele>2396</ele>
        <time>2019-02-10T12:45:08.000Z</time>
      </trkpt>
      <trkpt lat="44.14965" lon="7.24806">
        <ele>2395.8000488281</ele>
        <time>2019-02-10T12:45:14.000Z</time>
      </trkpt>
      <trkpt lat="44.14965" lon="7.24807">
        <ele>2395.8000488281</ele>
        <time>2019-02-10T12:45:16.000Z</time>
      </trkpt>
      <trkpt lat="44.14963" lon="7.24807">
        <ele>2396</ele>
        <time>2019-02-10T12:45:29.000Z</time>
      </trkpt>
      <trkpt lat="44.14966" lon="7.24807">
        <ele>2396</ele>
        <time>2019-02-10T12:45:30.000Z</time>
      </trkpt>
      <trkpt lat="44.1497" lon="7.24808">
        <ele>2396</ele>
        <time>2019-02-10T12:45:32.000Z</time>
      </trkpt>
      <trkpt lat="44.14971" lon="7.24808">
        <ele>2396</ele>
        <time>2019-02-10T12:45:33.000Z</time>
      </trkpt>
      <trkpt lat="44.14972" lon="7.24808">
        <ele>2396</ele>
        <time>2019-02-10T12:45:36.000Z</time>
      </trkpt>
      <trkpt lat="44.14972" lon="7.24808">
        <ele>2396.1999511719</ele>
        <time>2019-02-10T12:45:38.000Z</time>
      </trkpt>
      <trkpt lat="44.14976" lon="7.24808">
        <ele>2396.3999023438</ele>
        <time>2019-02-10T12:45:41.000Z</time>
      </trkpt>
      <trkpt lat="44.14976" lon="7.24807">
        <ele>2396.1999511719</ele>
        <time>2019-02-10T12:45:46.000Z</time>
      </trkpt>
      <trkpt lat="44.1497" lon="7.24805">
        <ele>2396.1999511719</ele>
        <time>2019-02-10T12:45:49.000Z</time>
      </trkpt>
      <trkpt lat="44.1497" lon="7.24805">
        <ele>2396.1999511719</ele>
        <time>2019-02-10T12:45:50.000Z</time>
      </trkpt>
      <trkpt lat="44.14973" lon="7.24803">
        <ele>2395.8000488281</ele>
        <time>2019-02-10T12:45:54.000Z</time>
      </trkpt>
      <trkpt lat="44.14973" lon="7.24799">
        <ele>2395.3999023438</ele>
        <time>2019-02-10T12:45:57.000Z</time>
      </trkpt>
      <trkpt lat="44.14972" lon="7.24794">
        <ele>2395.3999023438</ele>
        <time>2019-02-10T12:46:01.000Z</time>
      </trkpt>
      <trkpt lat="44.14971" lon="7.24793">
        <ele>2395.1999511719</ele>
        <time>2019-02-10T12:46:02.000Z</time>
      </trkpt>
      <trkpt lat="44.14972" lon="7.24789">
        <ele>2395</ele>
        <time>2019-02-10T12:46:04.000Z</time>
      </trkpt>
      <trkpt lat="44.14973" lon="7.24786">
        <ele>2394.6000976562</ele>
        <time>2019-02-10T12:46:06.000Z</time>
      </trkpt>
      <trkpt lat="44.14973" lon="7.24781">
        <ele>2394.1999511719</ele>
        <time>2019-02-10T12:46:08.000Z</time>
      </trkpt>
      <trkpt lat="44.14973" lon="7.2478">
        <ele>2394</ele>
        <time>2019-02-10T12:46:09.000Z</time>
      </trkpt>
      <trkpt lat="44.14974" lon="7.2478">
        <ele>2393.6000976562</ele>
        <time>2019-02-10T12:46:10.000Z</time>
      </trkpt>
      <trkpt lat="44.14974" lon="7.2478">
        <ele>2393.1999511719</ele>
        <time>2019-02-10T12:46:11.000Z</time>
      </trkpt>
      <trkpt lat="44.14976" lon="7.2478">
        <ele>2392.6000976562</ele>
        <time>2019-02-10T12:46:13.000Z</time>
      </trkpt>
      <trkpt lat="44.1498" lon="7.24777">
        <ele>2392.1999511719</ele>
        <time>2019-02-10T12:46:15.000Z</time>
      </trkpt>
      <trkpt lat="44.14982" lon="7.2477">
        <ele>2391</ele>
        <time>2019-02-10T12:46:17.000Z</time>
      </trkpt>
      <trkpt lat="44.14986" lon="7.24762">
        <ele>2389.1999511719</ele>
        <time>2019-02-10T12:46:19.000Z</time>
      </trkpt>
      <trkpt lat="44.14992" lon="7.24759">
        <ele>2387.6000976562</ele>
        <time>2019-02-10T12:46:21.000Z</time>
      </trkpt>
      <trkpt lat="44.14996" lon="7.24755">
        <ele>2386.6000976562</ele>
        <time>2019-02-10T12:46:24.000Z</time>
      </trkpt>
      <trkpt lat="44.14997" lon="7.24754">
        <ele>2386.3999023438</ele>
        <time>2019-02-10T12:46:25.000Z</time>
      </trkpt>
      <trkpt lat="44.14997" lon="7.24754">
        <ele>2386.3999023438</ele>
        <time>2019-02-10T12:46:26.000Z</time>
      </trkpt>
      <trkpt lat="44.14998" lon="7.24752">
        <ele>2386.3999023438</ele>
        <time>2019-02-10T12:46:32.000Z</time>
      </trkpt>
      <trkpt lat="44.14998" lon="7.24751">
        <ele>2386.3999023438</ele>
        <time>2019-02-10T12:46:39.000Z</time>
      </trkpt>
      <trkpt lat="44.14998" lon="7.24751">
        <ele>2386.1999511719</ele>
        <time>2019-02-10T12:46:43.000Z</time>
      </trkpt>
      <trkpt lat="44.14999" lon="7.24753">
        <ele>2386</ele>
        <time>2019-02-10T12:46:52.000Z</time>
      </trkpt>
      <trkpt lat="44.14998" lon="7.24753">
        <ele>2385.8000488281</ele>
        <time>2019-02-10T12:46:54.000Z</time>
      </trkpt>
      <trkpt lat="44.15" lon="7.24753">
        <ele>2386</ele>
        <time>2019-02-10T12:46:59.000Z</time>
      </trkpt>
      <trkpt lat="44.15" lon="7.24752">
        <ele>2386</ele>
        <time>2019-02-10T12:47:05.000Z</time>
      </trkpt>
      <trkpt lat="44.15" lon="7.24751">
        <ele>2385.8000488281</ele>
        <time>2019-02-10T12:47:07.000Z</time>
      </trkpt>
      <trkpt lat="44.15" lon="7.2475">
        <ele>2385.8000488281</ele>
        <time>2019-02-10T12:47:09.000Z</time>
      </trkpt>
      <trkpt lat="44.15001" lon="7.24749">
        <ele>2386</ele>
        <time>2019-02-10T12:47:13.000Z</time>
      </trkpt>
      <trkpt lat="44.15001" lon="7.24749">
        <ele>2386</ele>
        <time>2019-02-10T12:47:16.000Z</time>
      </trkpt>
      <trkpt lat="44.15002" lon="7.2475">
        <ele>2386</ele>
        <time>2019-02-10T12:47:18.000Z</time>
      </trkpt>
      <trkpt lat="44.15" lon="7.24746">
        <ele>2386.1999511719</ele>
        <time>2019-02-10T12:47:25.000Z</time>
      </trkpt>
      <trkpt lat="44.15" lon="7.24746">
        <ele>2386.3999023438</ele>
        <time>2019-02-10T12:47:26.000Z</time>
      </trkpt>
      <trkpt lat="44.15008" lon="7.24747">
        <ele>2386</ele>
        <time>2019-02-10T12:47:30.000Z</time>
      </trkpt>
      <trkpt lat="44.15022" lon="7.24745">
        <ele>2385</ele>
        <time>2019-02-10T12:47:33.000Z</time>
      </trkpt>
      <trkpt lat="44.15033" lon="7.24743">
        <ele>2383.6000976562</ele>
        <time>2019-02-10T12:47:35.000Z</time>
      </trkpt>
      <trkpt lat="44.15039" lon="7.24741">
        <ele>2383</ele>
        <time>2019-02-10T12:47:36.000Z</time>
      </trkpt>
      <trkpt lat="44.15044" lon="7.2474">
        <ele>2382.3999023438</ele>
        <time>2019-02-10T12:47:37.000Z</time>
      </trkpt>
      <trkpt lat="44.15053" lon="7.24736">
        <ele>2381.1999511719</ele>
        <time>2019-02-10T12:47:39.000Z</time>
      </trkpt>
      <trkpt lat="44.1506" lon="7.24734">
        <ele>2380.1999511719</ele>
        <time>2019-02-10T12:47:41.000Z</time>
      </trkpt>
      <trkpt lat="44.15061" lon="7.24734">
        <ele>2380</ele>
        <time>2019-02-10T12:47:42.000Z</time>
      </trkpt>
      <trkpt lat="44.1506" lon="7.24733">
        <ele>2379.8000488281</ele>
        <time>2019-02-10T12:47:43.000Z</time>
      </trkpt>
      <trkpt lat="44.1506" lon="7.24733">
        <ele>2379.6000976562</ele>
        <time>2019-02-10T12:47:45.000Z</time>
      </trkpt>
      <trkpt lat="44.15061" lon="7.24732">
        <ele>2379.6000976562</ele>
        <time>2019-02-10T12:47:47.000Z</time>
      </trkpt>
      <trkpt lat="44.15068" lon="7.24732">
        <ele>2379.1999511719</ele>
        <time>2019-02-10T12:47:56.000Z</time>
      </trkpt>
      <trkpt lat="44.15072" lon="7.24728">
        <ele>2378.6000976562</ele>
        <time>2019-02-10T12:47:59.000Z</time>
      </trkpt>
      <trkpt lat="44.15074" lon="7.24727">
        <ele>2378</ele>
        <time>2019-02-10T12:48:01.000Z</time>
      </trkpt>
      <trkpt lat="44.15076" lon="7.24727">
        <ele>2377.3999023438</ele>
        <time>2019-02-10T12:48:04.000Z</time>
      </trkpt>
      <trkpt lat="44.15083" lon="7.24724">
        <ele>2377.3999023438</ele>
        <time>2019-02-10T12:48:08.000Z</time>
      </trkpt>
      <trkpt lat="44.15089" lon="7.2472">
        <ele>2377</ele>
        <time>2019-02-10T12:48:10.000Z</time>
      </trkpt>
      <trkpt lat="44.15092" lon="7.24718">
        <ele>2376.6000976562</ele>
        <time>2019-02-10T12:48:11.000Z</time>
      </trkpt>
      <trkpt lat="44.15097" lon="7.24711">
        <ele>2375.3999023438</ele>
        <time>2019-02-10T12:48:13.000Z</time>
      </trkpt>
      <trkpt lat="44.15104" lon="7.24704">
        <ele>2374</ele>
        <time>2019-02-10T12:48:15.000Z</time>
      </trkpt>
      <trkpt lat="44.15108" lon="7.24698">
        <ele>2372.3999023438</ele>
        <time>2019-02-10T12:48:17.000Z</time>
      </trkpt>
      <trkpt lat="44.1511" lon="7.24695">
        <ele>2371.1999511719</ele>
        <time>2019-02-10T12:48:19.000Z</time>
      </trkpt>
      <trkpt lat="44.1511" lon="7.24694">
        <ele>2370.6000976562</ele>
        <time>2019-02-10T12:48:20.000Z</time>
      </trkpt>
      <trkpt lat="44.15111" lon="7.24692">
        <ele>2370</ele>
        <time>2019-02-10T12:48:23.000Z</time>
      </trkpt>
      <trkpt lat="44.15113" lon="7.24689">
        <ele>2369.6000976562</ele>
        <time>2019-02-10T12:48:31.000Z</time>
      </trkpt>
      <trkpt lat="44.15112" lon="7.24689">
        <ele>2369.1999511719</ele>
        <time>2019-02-10T12:48:37.000Z</time>
      </trkpt>
      <trkpt lat="44.15112" lon="7.24689">
        <ele>2369.1999511719</ele>
        <time>2019-02-10T12:48:38.000Z</time>
      </trkpt>
      <trkpt lat="44.1511" lon="7.24688">
        <ele>2369.6000976562</ele>
        <time>2019-02-10T12:48:49.000Z</time>
      </trkpt>
      <trkpt lat="44.15111" lon="7.24688">
        <ele>2369.6000976562</ele>
        <time>2019-02-10T12:48:51.000Z</time>
      </trkpt>
      <trkpt lat="44.1511" lon="7.24688">
        <ele>2369.6000976562</ele>
        <time>2019-02-10T12:48:52.000Z</time>
      </trkpt>
      <trkpt lat="44.15109" lon="7.24688">
        <ele>2369.6000976562</ele>
        <time>2019-02-10T12:48:54.000Z</time>
      </trkpt>
      <trkpt lat="44.15109" lon="7.24688">
        <ele>2369.6000976562</ele>
        <time>2019-02-10T12:48:56.000Z</time>
      </trkpt>
      <trkpt lat="44.15109" lon="7.24688">
        <ele>2369.6000976562</ele>
        <time>2019-02-10T12:48:58.000Z</time>
      </trkpt>
      <trkpt lat="44.1511" lon="7.24687">
        <ele>2369.8000488281</ele>
        <time>2019-02-10T12:49:03.000Z</time>
      </trkpt>
      <trkpt lat="44.1511" lon="7.24687">
        <ele>2369.6000976562</ele>
        <time>2019-02-10T12:49:07.000Z</time>
      </trkpt>
      <trkpt lat="44.1511" lon="7.24687">
        <ele>2369.8000488281</ele>
        <time>2019-02-10T12:49:10.000Z</time>
      </trkpt>
      <trkpt lat="44.15111" lon="7.24687">
        <ele>2369.8000488281</ele>
        <time>2019-02-10T12:49:12.000Z</time>
      </trkpt>
      <trkpt lat="44.15112" lon="7.24687">
        <ele>2369.8000488281</ele>
        <time>2019-02-10T12:49:14.000Z</time>
      </trkpt>
      <trkpt lat="44.15111" lon="7.24688">
        <ele>2369.8000488281</ele>
        <time>2019-02-10T12:49:15.000Z</time>
      </trkpt>
      <trkpt lat="44.15109" lon="7.24689">
        <ele>2369.8000488281</ele>
        <time>2019-02-10T12:49:18.000Z</time>
      </trkpt>
      <trkpt lat="44.15108" lon="7.24689">
        <ele>2369.8000488281</ele>
        <time>2019-02-10T12:49:19.000Z</time>
      </trkpt>
      <trkpt lat="44.15111" lon="7.2468">
        <ele>2369.1999511719</ele>
        <time>2019-02-10T12:49:23.000Z</time>
      </trkpt>
      <trkpt lat="44.15112" lon="7.24676">
        <ele>2368.8000488281</ele>
        <time>2019-02-10T12:49:24.000Z</time>
      </trkpt>
      <trkpt lat="44.15111" lon="7.2467">
        <ele>2368.1999511719</ele>
        <time>2019-02-10T12:49:25.000Z</time>
      </trkpt>
      <trkpt lat="44.15109" lon="7.24662">
        <ele>2367.1999511719</ele>
        <time>2019-02-10T12:49:27.000Z</time>
      </trkpt>
      <trkpt lat="44.15109" lon="7.24659">
        <ele>2366.6000976562</ele>
        <time>2019-02-10T12:49:28.000Z</time>
      </trkpt>
      <trkpt lat="44.15108" lon="7.24657">
        <ele>2366</ele>
        <time>2019-02-10T12:49:29.000Z</time>
      </trkpt>
      <trkpt lat="44.15108" lon="7.24654">
        <ele>2365.6000976562</ele>
        <time>2019-02-10T12:49:31.000Z</time>
      </trkpt>
      <trkpt lat="44.15106" lon="7.24647">
        <ele>2365.1999511719</ele>
        <time>2019-02-10T12:49:33.000Z</time>
      </trkpt>
      <trkpt lat="44.15104" lon="7.24645">
        <ele>2365</ele>
        <time>2019-02-10T12:49:34.000Z</time>
      </trkpt>
      <trkpt lat="44.15103" lon="7.24644">
        <ele>2364.6000976562</ele>
        <time>2019-02-10T12:49:35.000Z</time>
      </trkpt>
      <trkpt lat="44.15103" lon="7.24644">
        <ele>2364</ele>
        <time>2019-02-10T12:49:36.000Z</time>
      </trkpt>
      <trkpt lat="44.15103" lon="7.24644">
        <ele>2363.6000976562</ele>
        <time>2019-02-10T12:49:37.000Z</time>
      </trkpt>
      <trkpt lat="44.15103" lon="7.24645">
        <ele>2362.3999023438</ele>
        <time>2019-02-10T12:49:40.000Z</time>
      </trkpt>
      <trkpt lat="44.15104" lon="7.24645">
        <ele>2362</ele>
        <time>2019-02-10T12:49:42.000Z</time>
      </trkpt>
      <trkpt lat="44.15104" lon="7.24645">
        <ele>2362</ele>
        <time>2019-02-10T12:49:47.000Z</time>
      </trkpt>
      <trkpt lat="44.15104" lon="7.24645">
        <ele>2362</ele>
        <time>2019-02-10T12:49:48.000Z</time>
      </trkpt>
      <trkpt lat="44.15104" lon="7.24645">
        <ele>2362</ele>
        <time>2019-02-10T12:49:49.000Z</time>
      </trkpt>
      <trkpt lat="44.15104" lon="7.24645">
        <ele>2362</ele>
        <time>2019-02-10T12:49:50.000Z</time>
      </trkpt>
      <trkpt lat="44.15104" lon="7.24645">
        <ele>2362</ele>
        <time>2019-02-10T12:49:52.000Z</time>
      </trkpt>
      <trkpt lat="44.15097" lon="7.24641">
        <ele>2362.1999511719</ele>
        <time>2019-02-10T12:50:07.000Z</time>
      </trkpt>
      <trkpt lat="44.15087" lon="7.24621">
        <ele>2361.1999511719</ele>
        <time>2019-02-10T12:50:11.000Z</time>
      </trkpt>
      <trkpt lat="44.15083" lon="7.24614">
        <ele>2360.1999511719</ele>
        <time>2019-02-10T12:50:12.000Z</time>
      </trkpt>
      <trkpt lat="44.15078" lon="7.24606">
        <ele>2359</ele>
        <time>2019-02-10T12:50:13.000Z</time>
      </trkpt>
      <trkpt lat="44.15073" lon="7.24598">
        <ele>2356.8000488281</ele>
        <time>2019-02-10T12:50:14.000Z</time>
      </trkpt>
      <trkpt lat="44.15068" lon="7.24591">
        <ele>2354.3999023438</ele>
        <time>2019-02-10T12:50:15.000Z</time>
      </trkpt>
      <trkpt lat="44.15063" lon="7.24585">
        <ele>2352.3999023438</ele>
        <time>2019-02-10T12:50:16.000Z</time>
      </trkpt>
      <trkpt lat="44.1506" lon="7.2458">
        <ele>2351.1999511719</ele>
        <time>2019-02-10T12:50:17.000Z</time>
      </trkpt>
      <trkpt lat="44.15055" lon="7.24571">
        <ele>2349.8000488281</ele>
        <time>2019-02-10T12:50:19.000Z</time>
      </trkpt>
      <trkpt lat="44.15051" lon="7.24571">
        <ele>2348.8000488281</ele>
        <time>2019-02-10T12:50:21.000Z</time>
      </trkpt>
      <trkpt lat="44.15051" lon="7.24572">
        <ele>2348.1999511719</ele>
        <time>2019-02-10T12:50:23.000Z</time>
      </trkpt>
      <trkpt lat="44.15051" lon="7.24572">
        <ele>2347.8000488281</ele>
        <time>2019-02-10T12:50:25.000Z</time>
      </trkpt>
      <trkpt lat="44.15051" lon="7.24572">
        <ele>2347.8000488281</ele>
        <time>2019-02-10T12:50:27.000Z</time>
      </trkpt>
      <trkpt lat="44.15051" lon="7.24571">
        <ele>2347.3999023438</ele>
        <time>2019-02-10T12:50:36.000Z</time>
      </trkpt>
      <trkpt lat="44.15051" lon="7.2457">
        <ele>2347</ele>
        <time>2019-02-10T12:50:41.000Z</time>
      </trkpt>
      <trkpt lat="44.15051" lon="7.2457">
        <ele>2346.8000488281</ele>
        <time>2019-02-10T12:50:44.000Z</time>
      </trkpt>
      <trkpt lat="44.1505" lon="7.24572">
        <ele>2347</ele>
        <time>2019-02-10T12:51:01.000Z</time>
      </trkpt>
      <trkpt lat="44.1505" lon="7.24572">
        <ele>2347.1999511719</ele>
        <time>2019-02-10T12:51:03.000Z</time>
      </trkpt>
      <trkpt lat="44.1505" lon="7.24572">
        <ele>2347.1999511719</ele>
        <time>2019-02-10T12:51:06.000Z</time>
      </trkpt>
      <trkpt lat="44.1505" lon="7.24572">
        <ele>2347.1999511719</ele>
        <time>2019-02-10T12:51:07.000Z</time>
      </trkpt>
      <trkpt lat="44.1505" lon="7.24572">
        <ele>2347.1999511719</ele>
        <time>2019-02-10T12:51:08.000Z</time>
      </trkpt>
      <trkpt lat="44.1505" lon="7.24572">
        <ele>2347.1999511719</ele>
        <time>2019-02-10T12:51:09.000Z</time>
      </trkpt>
      <trkpt lat="44.15051" lon="7.24573">
        <ele>2347.3999023438</ele>
        <time>2019-02-10T12:51:14.000Z</time>
      </trkpt>
      <trkpt lat="44.15051" lon="7.24573">
        <ele>2347.3999023438</ele>
        <time>2019-02-10T12:51:16.000Z</time>
      </trkpt>
      <trkpt lat="44.15052" lon="7.24574">
        <ele>2347.3999023438</ele>
        <time>2019-02-10T12:51:19.000Z</time>
      </trkpt>
      <trkpt lat="44.15052" lon="7.24575">
        <ele>2347.3999023438</ele>
        <time>2019-02-10T12:51:21.000Z</time>
      </trkpt>
      <trkpt lat="44.15051" lon="7.24574">
        <ele>2347.3999023438</ele>
        <time>2019-02-10T12:51:23.000Z</time>
      </trkpt>
      <trkpt lat="44.15034" lon="7.24552">
        <ele>2346.1999511719</ele>
        <time>2019-02-10T12:51:30.000Z</time>
      </trkpt>
      <trkpt lat="44.15023" lon="7.24541">
        <ele>2344.6000976562</ele>
        <time>2019-02-10T12:51:32.000Z</time>
      </trkpt>
      <trkpt lat="44.15017" lon="7.24537">
        <ele>2343.3999023438</ele>
        <time>2019-02-10T12:51:33.000Z</time>
      </trkpt>
      <trkpt lat="44.15012" lon="7.24534">
        <ele>2342.1999511719</ele>
        <time>2019-02-10T12:51:34.000Z</time>
      </trkpt>
      <trkpt lat="44.15007" lon="7.24532">
        <ele>2341.1999511719</ele>
        <time>2019-02-10T12:51:35.000Z</time>
      </trkpt>
      <trkpt lat="44.14998" lon="7.24528">
        <ele>2339.3999023438</ele>
        <time>2019-02-10T12:51:37.000Z</time>
      </trkpt>
      <trkpt lat="44.14988" lon="7.2452">
        <ele>2337.6000976562</ele>
        <time>2019-02-10T12:51:39.000Z</time>
      </trkpt>
      <trkpt lat="44.14989" lon="7.24506">
        <ele>2335.3999023438</ele>
        <time>2019-02-10T12:51:41.000Z</time>
      </trkpt>
      <trkpt lat="44.14992" lon="7.24499">
        <ele>2333.8000488281</ele>
        <time>2019-02-10T12:51:42.000Z</time>
      </trkpt>
      <trkpt lat="44.14993" lon="7.24493">
        <ele>2332.6000976562</ele>
        <time>2019-02-10T12:51:43.000Z</time>
      </trkpt>
      <trkpt lat="44.14991" lon="7.24486">
        <ele>2331.3999023438</ele>
        <time>2019-02-10T12:51:44.000Z</time>
      </trkpt>
      <trkpt lat="44.14983" lon="7.24474">
        <ele>2329.8000488281</ele>
        <time>2019-02-10T12:51:46.000Z</time>
      </trkpt>
      <trkpt lat="44.14971" lon="7.24463">
        <ele>2328.6000976562</ele>
        <time>2019-02-10T12:51:48.000Z</time>
      </trkpt>
      <trkpt lat="44.14965" lon="7.24458">
        <ele>2327.6000976562</ele>
        <time>2019-02-10T12:51:49.000Z</time>
      </trkpt>
      <trkpt lat="44.1496" lon="7.24452">
        <ele>2326.1999511719</ele>
        <time>2019-02-10T12:51:50.000Z</time>
      </trkpt>
      <trkpt lat="44.14955" lon="7.24446">
        <ele>2325</ele>
        <time>2019-02-10T12:51:51.000Z</time>
      </trkpt>
      <trkpt lat="44.14946" lon="7.24437">
        <ele>2323.6000976562</ele>
        <time>2019-02-10T12:51:53.000Z</time>
      </trkpt>
      <trkpt lat="44.14943" lon="7.24434">
        <ele>2323</ele>
        <time>2019-02-10T12:51:54.000Z</time>
      </trkpt>
      <trkpt lat="44.14939" lon="7.24431">
        <ele>2322.3999023438</ele>
        <time>2019-02-10T12:51:55.000Z</time>
      </trkpt>
      <trkpt lat="44.14936" lon="7.24428">
        <ele>2322</ele>
        <time>2019-02-10T12:51:56.000Z</time>
      </trkpt>
      <trkpt lat="44.14935" lon="7.24421">
        <ele>2321.1999511719</ele>
        <time>2019-02-10T12:51:58.000Z</time>
      </trkpt>
      <trkpt lat="44.14935" lon="7.2442">
        <ele>2320.1999511719</ele>
        <time>2019-02-10T12:52:00.000Z</time>
      </trkpt>
      <trkpt lat="44.14936" lon="7.2442">
        <ele>2319.8000488281</ele>
        <time>2019-02-10T12:52:01.000Z</time>
      </trkpt>
      <trkpt lat="44.14937" lon="7.2442">
        <ele>2319.3999023438</ele>
        <time>2019-02-10T12:52:05.000Z</time>
      </trkpt>
      <trkpt lat="44.14937" lon="7.2442">
        <ele>2319.1999511719</ele>
        <time>2019-02-10T12:52:11.000Z</time>
      </trkpt>
      <trkpt lat="44.14937" lon="7.2442">
        <ele>2318.8000488281</ele>
        <time>2019-02-10T12:52:14.000Z</time>
      </trkpt>
      <trkpt lat="44.14938" lon="7.24419">
        <ele>2319</ele>
        <time>2019-02-10T12:52:21.000Z</time>
      </trkpt>
      <trkpt lat="44.14938" lon="7.24419">
        <ele>2319</ele>
        <time>2019-02-10T12:52:23.000Z</time>
      </trkpt>
      <trkpt lat="44.14938" lon="7.24418">
        <ele>2319.1999511719</ele>
        <time>2019-02-10T12:52:28.000Z</time>
      </trkpt>
      <trkpt lat="44.14929" lon="7.24411">
        <ele>2319.1999511719</ele>
        <time>2019-02-10T12:52:32.000Z</time>
      </trkpt>
      <trkpt lat="44.14915" lon="7.24405">
        <ele>2318.1999511719</ele>
        <time>2019-02-10T12:52:34.000Z</time>
      </trkpt>
      <trkpt lat="44.1491" lon="7.24401">
        <ele>2317</ele>
        <time>2019-02-10T12:52:35.000Z</time>
      </trkpt>
      <trkpt lat="44.14905" lon="7.24396">
        <ele>2315.8000488281</ele>
        <time>2019-02-10T12:52:36.000Z</time>
      </trkpt>
      <trkpt lat="44.149" lon="7.24391">
        <ele>2314.3999023438</ele>
        <time>2019-02-10T12:52:37.000Z</time>
      </trkpt>
      <trkpt lat="44.14894" lon="7.24389">
        <ele>2313</ele>
        <time>2019-02-10T12:52:38.000Z</time>
      </trkpt>
      <trkpt lat="44.14889" lon="7.24387">
        <ele>2312</ele>
        <time>2019-02-10T12:52:39.000Z</time>
      </trkpt>
      <trkpt lat="44.14886" lon="7.24383">
        <ele>2311.3999023438</ele>
        <time>2019-02-10T12:52:40.000Z</time>
      </trkpt>
      <trkpt lat="44.14883" lon="7.24379">
        <ele>2311</ele>
        <time>2019-02-10T12:52:41.000Z</time>
      </trkpt>
      <trkpt lat="44.14873" lon="7.24363">
        <ele>2309.6000976562</ele>
        <time>2019-02-10T12:52:44.000Z</time>
      </trkpt>
      <trkpt lat="44.14866" lon="7.24355">
        <ele>2308.3999023438</ele>
        <time>2019-02-10T12:52:46.000Z</time>
      </trkpt>
      <trkpt lat="44.1486" lon="7.24349">
        <ele>2307.8000488281</ele>
        <time>2019-02-10T12:52:48.000Z</time>
      </trkpt>
      <trkpt lat="44.14851" lon="7.24348">
        <ele>2307</ele>
        <time>2019-02-10T12:52:51.000Z</time>
      </trkpt>
      <trkpt lat="44.14843" lon="7.24347">
        <ele>2305.8000488281</ele>
        <time>2019-02-10T12:52:54.000Z</time>
      </trkpt>
      <trkpt lat="44.14836" lon="7.24349">
        <ele>2304.8000488281</ele>
        <time>2019-02-10T12:52:57.000Z</time>
      </trkpt>
      <trkpt lat="44.14833" lon="7.2435">
        <ele>2304.6000976562</ele>
        <time>2019-02-10T12:52:58.000Z</time>
      </trkpt>
      <trkpt lat="44.14827" lon="7.24352">
        <ele>2303.3999023438</ele>
        <time>2019-02-10T12:53:00.000Z</time>
      </trkpt>
      <trkpt lat="44.14821" lon="7.24351">
        <ele>2302.6000976562</ele>
        <time>2019-02-10T12:53:02.000Z</time>
      </trkpt>
      <trkpt lat="44.14818" lon="7.2435">
        <ele>2302</ele>
        <time>2019-02-10T12:53:03.000Z</time>
      </trkpt>
      <trkpt lat="44.14815" lon="7.24348">
        <ele>2300.8000488281</ele>
        <time>2019-02-10T12:53:05.000Z</time>
      </trkpt>
      <trkpt lat="44.14812" lon="7.24347">
        <ele>2299.6000976562</ele>
        <time>2019-02-10T12:53:08.000Z</time>
      </trkpt>
      <trkpt lat="44.14811" lon="7.24345">
        <ele>2298.1999511719</ele>
        <time>2019-02-10T12:53:11.000Z</time>
      </trkpt>
      <trkpt lat="44.14807" lon="7.24345">
        <ele>2297.1999511719</ele>
        <time>2019-02-10T12:53:20.000Z</time>
      </trkpt>
      <trkpt lat="44.14807" lon="7.24347">
        <ele>2297.1999511719</ele>
        <time>2019-02-10T12:53:23.000Z</time>
      </trkpt>
      <trkpt lat="44.148" lon="7.24342">
        <ele>2297.1999511719</ele>
        <time>2019-02-10T12:53:36.000Z</time>
      </trkpt>
      <trkpt lat="44.14789" lon="7.24331">
        <ele>2296.8000488281</ele>
        <time>2019-02-10T12:53:39.000Z</time>
      </trkpt>
      <trkpt lat="44.14783" lon="7.24326">
        <ele>2296</ele>
        <time>2019-02-10T12:53:40.000Z</time>
      </trkpt>
      <trkpt lat="44.14778" lon="7.24319">
        <ele>2294.6000976562</ele>
        <time>2019-02-10T12:53:41.000Z</time>
      </trkpt>
      <trkpt lat="44.14775" lon="7.24312">
        <ele>2293</ele>
        <time>2019-02-10T12:53:42.000Z</time>
      </trkpt>
      <trkpt lat="44.14771" lon="7.24304">
        <ele>2291.8000488281</ele>
        <time>2019-02-10T12:53:43.000Z</time>
      </trkpt>
      <trkpt lat="44.14768" lon="7.24297">
        <ele>2290.8000488281</ele>
        <time>2019-02-10T12:53:44.000Z</time>
      </trkpt>
      <trkpt lat="44.14765" lon="7.24287">
        <ele>2289.3999023438</ele>
        <time>2019-02-10T12:53:46.000Z</time>
      </trkpt>
      <trkpt lat="44.14765" lon="7.24264">
        <ele>2289</ele>
        <time>2019-02-10T12:53:55.000Z</time>
      </trkpt>
      <trkpt lat="44.14765" lon="7.24262">
        <ele>2289</ele>
        <time>2019-02-10T12:53:56.000Z</time>
      </trkpt>
      <trkpt lat="44.14769" lon="7.24257">
        <ele>2288.8000488281</ele>
        <time>2019-02-10T12:54:01.000Z</time>
      </trkpt>
      <trkpt lat="44.14769" lon="7.24253">
        <ele>2288.6000976562</ele>
        <time>2019-02-10T12:54:05.000Z</time>
      </trkpt>
      <trkpt lat="44.14768" lon="7.24252">
        <ele>2288.6000976562</ele>
        <time>2019-02-10T12:54:06.000Z</time>
      </trkpt>
      <trkpt lat="44.14768" lon="7.24251">
        <ele>2288.6000976562</ele>
        <time>2019-02-10T12:54:08.000Z</time>
      </trkpt>
      <trkpt lat="44.14767" lon="7.24248">
        <ele>2288.6000976562</ele>
        <time>2019-02-10T12:54:11.000Z</time>
      </trkpt>
      <trkpt lat="44.14766" lon="7.24248">
        <ele>2288.6000976562</ele>
        <time>2019-02-10T12:54:13.000Z</time>
      </trkpt>
      <trkpt lat="44.14764" lon="7.24243">
        <ele>2288.6000976562</ele>
        <time>2019-02-10T12:54:17.000Z</time>
      </trkpt>
      <trkpt lat="44.14764" lon="7.24242">
        <ele>2288.6000976562</ele>
        <time>2019-02-10T12:54:19.000Z</time>
      </trkpt>
      <trkpt lat="44.14763" lon="7.24241">
        <ele>2289</ele>
        <time>2019-02-10T12:54:21.000Z</time>
      </trkpt>
      <trkpt lat="44.14762" lon="7.24239">
        <ele>2289.3999023438</ele>
        <time>2019-02-10T12:54:24.000Z</time>
      </trkpt>
      <trkpt lat="44.1476" lon="7.24235">
        <ele>2290.3999023438</ele>
        <time>2019-02-10T12:54:36.000Z</time>
      </trkpt>
      <trkpt lat="44.14757" lon="7.24234">
        <ele>2291</ele>
        <time>2019-02-10T12:54:42.000Z</time>
      </trkpt>
      <trkpt lat="44.14754" lon="7.24232">
        <ele>2290.3999023438</ele>
        <time>2019-02-10T12:54:57.000Z</time>
      </trkpt>
      <trkpt lat="44.14754" lon="7.2423">
        <ele>2290.6000976562</ele>
        <time>2019-02-10T12:55:11.000Z</time>
      </trkpt>
      <trkpt lat="44.14754" lon="7.2423">
        <ele>2290.6000976562</ele>
        <time>2019-02-10T12:55:15.000Z</time>
      </trkpt>
      <trkpt lat="44.14754" lon="7.24231">
        <ele>2290.6000976562</ele>
        <time>2019-02-10T12:55:18.000Z</time>
      </trkpt>
      <trkpt lat="44.14752" lon="7.24228">
        <ele>2290.6000976562</ele>
        <time>2019-02-10T12:55:22.000Z</time>
      </trkpt>
      <trkpt lat="44.1475" lon="7.24227">
        <ele>2290.3999023438</ele>
        <time>2019-02-10T12:55:24.000Z</time>
      </trkpt>
      <trkpt lat="44.14751" lon="7.24228">
        <ele>2290.6000976562</ele>
        <time>2019-02-10T12:55:29.000Z</time>
      </trkpt>
      <trkpt lat="44.14751" lon="7.24228">
        <ele>2290.6000976562</ele>
        <time>2019-02-10T12:55:30.000Z</time>
      </trkpt>
      <trkpt lat="44.14751" lon="7.24228">
        <ele>2290.8000488281</ele>
        <time>2019-02-10T12:55:31.000Z</time>
      </trkpt>
      <trkpt lat="44.14752" lon="7.24229">
        <ele>2291</ele>
        <time>2019-02-10T12:55:33.000Z</time>
      </trkpt>
      <trkpt lat="44.14753" lon="7.2423">
        <ele>2291</ele>
        <time>2019-02-10T12:55:36.000Z</time>
      </trkpt>
      <trkpt lat="44.14754" lon="7.2423">
        <ele>2291</ele>
        <time>2019-02-10T12:55:39.000Z</time>
      </trkpt>
      <trkpt lat="44.14755" lon="7.2423">
        <ele>2291.1999511719</ele>
        <time>2019-02-10T12:55:41.000Z</time>
      </trkpt>
      <trkpt lat="44.14755" lon="7.24231">
        <ele>2291.1999511719</ele>
        <time>2019-02-10T12:55:43.000Z</time>
      </trkpt>
      <trkpt lat="44.14755" lon="7.24232">
        <ele>2290.8000488281</ele>
        <time>2019-02-10T12:55:48.000Z</time>
      </trkpt>
      <trkpt lat="44.14755" lon="7.24232">
        <ele>2290.8000488281</ele>
        <time>2019-02-10T12:55:54.000Z</time>
      </trkpt>
      <trkpt lat="44.14755" lon="7.24232">
        <ele>2290.6000976562</ele>
        <time>2019-02-10T12:55:56.000Z</time>
      </trkpt>
      <trkpt lat="44.14756" lon="7.24232">
        <ele>2290.6000976562</ele>
        <time>2019-02-10T12:56:03.000Z</time>
      </trkpt>
      <trkpt lat="44.14757" lon="7.24232">
        <ele>2290.6000976562</ele>
        <time>2019-02-10T12:56:08.000Z</time>
      </trkpt>
      <trkpt lat="44.14755" lon="7.24233">
        <ele>2290.6000976562</ele>
        <time>2019-02-10T12:56:16.000Z</time>
      </trkpt>
      <trkpt lat="44.14755" lon="7.24233">
        <ele>2290.6000976562</ele>
        <time>2019-02-10T12:56:19.000Z</time>
      </trkpt>
      <trkpt lat="44.14752" lon="7.24232">
        <ele>2290.6000976562</ele>
        <time>2019-02-10T12:56:23.000Z</time>
      </trkpt>
      <trkpt lat="44.14751" lon="7.24232">
        <ele>2290.6000976562</ele>
        <time>2019-02-10T12:56:26.000Z</time>
      </trkpt>
      <trkpt lat="44.14743" lon="7.24233">
        <ele>2291.1999511719</ele>
        <time>2019-02-10T12:56:34.000Z</time>
      </trkpt>
      <trkpt lat="44.14742" lon="7.24233">
        <ele>2291.1999511719</ele>
        <time>2019-02-10T12:56:35.000Z</time>
      </trkpt>
      <trkpt lat="44.14738" lon="7.24231">
        <ele>2291.6000976562</ele>
        <time>2019-02-10T12:56:38.000Z</time>
      </trkpt>
      <trkpt lat="44.14736" lon="7.24229">
        <ele>2291.3999023438</ele>
        <time>2019-02-10T12:56:41.000Z</time>
      </trkpt>
      <trkpt lat="44.14734" lon="7.24227">
        <ele>2291.1999511719</ele>
        <time>2019-02-10T12:56:44.000Z</time>
      </trkpt>
      <trkpt lat="44.14731" lon="7.24225">
        <ele>2291.3999023438</ele>
        <time>2019-02-10T12:56:49.000Z</time>
      </trkpt>
      <trkpt lat="44.1473" lon="7.24224">
        <ele>2291.3999023438</ele>
        <time>2019-02-10T12:56:50.000Z</time>
      </trkpt>
      <trkpt lat="44.14729" lon="7.24223">
        <ele>2291.3999023438</ele>
        <time>2019-02-10T12:56:51.000Z</time>
      </trkpt>
      <trkpt lat="44.14728" lon="7.24222">
        <ele>2291.6000976562</ele>
        <time>2019-02-10T12:56:53.000Z</time>
      </trkpt>
      <trkpt lat="44.14727" lon="7.2422">
        <ele>2291.6000976562</ele>
        <time>2019-02-10T12:56:55.000Z</time>
      </trkpt>
      <trkpt lat="44.14726" lon="7.24218">
        <ele>2291.6000976562</ele>
        <time>2019-02-10T12:56:57.000Z</time>
      </trkpt>
      <trkpt lat="44.14724" lon="7.24214">
        <ele>2291.6000976562</ele>
        <time>2019-02-10T12:57:03.000Z</time>
      </trkpt>
      <trkpt lat="44.14721" lon="7.24211">
        <ele>2292.6000976562</ele>
        <time>2019-02-10T12:57:15.000Z</time>
      </trkpt>
      <trkpt lat="44.14716" lon="7.24207">
        <ele>2293</ele>
        <time>2019-02-10T12:57:23.000Z</time>
      </trkpt>
      <trkpt lat="44.14705" lon="7.24198">
        <ele>2293</ele>
        <time>2019-02-10T12:57:33.000Z</time>
      </trkpt>
      <trkpt lat="44.14703" lon="7.24195">
        <ele>2293</ele>
        <time>2019-02-10T12:57:36.000Z</time>
      </trkpt>
      <trkpt lat="44.14703" lon="7.24193">
        <ele>2293</ele>
        <time>2019-02-10T12:57:38.000Z</time>
      </trkpt>
      <trkpt lat="44.147" lon="7.24186">
        <ele>2293.6000976562</ele>
        <time>2019-02-10T12:57:48.000Z</time>
      </trkpt>
      <trkpt lat="44.14699" lon="7.24185">
        <ele>2293.6000976562</ele>
        <time>2019-02-10T12:57:51.000Z</time>
      </trkpt>
      <trkpt lat="44.14698" lon="7.24181">
        <ele>2293.6000976562</ele>
        <time>2019-02-10T12:57:57.000Z</time>
      </trkpt>
      <trkpt lat="44.14697" lon="7.2418">
        <ele>2293.3999023438</ele>
        <time>2019-02-10T12:58:00.000Z</time>
      </trkpt>
      <trkpt lat="44.14692" lon="7.24173">
        <ele>2293.6000976562</ele>
        <time>2019-02-10T12:58:08.000Z</time>
      </trkpt>
      <trkpt lat="44.14679" lon="7.24163">
        <ele>2294</ele>
        <time>2019-02-10T12:58:30.000Z</time>
      </trkpt>
      <trkpt lat="44.14677" lon="7.24161">
        <ele>2294</ele>
        <time>2019-02-10T12:58:32.000Z</time>
      </trkpt>
      <trkpt lat="44.14669" lon="7.24154">
        <ele>2293.6000976562</ele>
        <time>2019-02-10T12:58:38.000Z</time>
      </trkpt>
      <trkpt lat="44.14667" lon="7.24154">
        <ele>2293.1999511719</ele>
        <time>2019-02-10T12:58:40.000Z</time>
      </trkpt>
      <trkpt lat="44.14667" lon="7.24153">
        <ele>2293</ele>
        <time>2019-02-10T12:58:47.000Z</time>
      </trkpt>
      <trkpt lat="44.14669" lon="7.24152">
        <ele>2293.1999511719</ele>
        <time>2019-02-10T12:58:50.000Z</time>
      </trkpt>
      <trkpt lat="44.1467" lon="7.24152">
        <ele>2292.8000488281</ele>
        <time>2019-02-10T12:58:58.000Z</time>
      </trkpt>
      <trkpt lat="44.14669" lon="7.24151">
        <ele>2292.8000488281</ele>
        <time>2019-02-10T12:59:02.000Z</time>
      </trkpt>
      <trkpt lat="44.14669" lon="7.24151">
        <ele>2293</ele>
        <time>2019-02-10T12:59:11.000Z</time>
      </trkpt>
      <trkpt lat="44.14669" lon="7.24151">
        <ele>2293.1999511719</ele>
        <time>2019-02-10T12:59:12.000Z</time>
      </trkpt>
      <trkpt lat="44.14668" lon="7.24151">
        <ele>2293.1999511719</ele>
        <time>2019-02-10T12:59:15.000Z</time>
      </trkpt>
      <trkpt lat="44.14667" lon="7.24151">
        <ele>2293.1999511719</ele>
        <time>2019-02-10T12:59:16.000Z</time>
      </trkpt>
      <trkpt lat="44.14667" lon="7.24152">
        <ele>2293.1999511719</ele>
        <time>2019-02-10T12:59:18.000Z</time>
      </trkpt>
      <trkpt lat="44.14667" lon="7.24151">
        <ele>2293</ele>
        <time>2019-02-10T12:59:21.000Z</time>
      </trkpt>
      <trkpt lat="44.14667" lon="7.24151">
        <ele>2293</ele>
        <time>2019-02-10T12:59:22.000Z</time>
      </trkpt>
      <trkpt lat="44.14667" lon="7.24151">
        <ele>2293.1999511719</ele>
        <time>2019-02-10T12:59:28.000Z</time>
      </trkpt>
      <trkpt lat="44.14667" lon="7.2415">
        <ele>2292.8000488281</ele>
        <time>2019-02-10T12:59:32.000Z</time>
      </trkpt>
      <trkpt lat="44.14667" lon="7.2415">
        <ele>2292.8000488281</ele>
        <time>2019-02-10T12:59:33.000Z</time>
      </trkpt>
      <trkpt lat="44.14666" lon="7.2415">
        <ele>2292.8000488281</ele>
        <time>2019-02-10T12:59:35.000Z</time>
      </trkpt>
      <trkpt lat="44.14666" lon="7.24151">
        <ele>2292.8000488281</ele>
        <time>2019-02-10T12:59:39.000Z</time>
      </trkpt>
      <trkpt lat="44.14669" lon="7.24149">
        <ele>2293</ele>
        <time>2019-02-10T12:59:48.000Z</time>
      </trkpt>
      <trkpt lat="44.1467" lon="7.24149">
        <ele>2293</ele>
        <time>2019-02-10T12:59:50.000Z</time>
      </trkpt>
      <trkpt lat="44.14669" lon="7.2415">
        <ele>2293</ele>
        <time>2019-02-10T12:59:55.000Z</time>
      </trkpt>
      <trkpt lat="44.14669" lon="7.2415">
        <ele>2293</ele>
        <time>2019-02-10T12:59:56.000Z</time>
      </trkpt>
      <trkpt lat="44.14669" lon="7.2415">
        <ele>2293</ele>
        <time>2019-02-10T12:59:58.000Z</time>
      </trkpt>
      <trkpt lat="44.14669" lon="7.24149">
        <ele>2293</ele>
        <time>2019-02-10T13:00:00.000Z</time>
      </trkpt>
      <trkpt lat="44.14669" lon="7.24149">
        <ele>2293</ele>
        <time>2019-02-10T13:00:01.000Z</time>
      </trkpt>
      <trkpt lat="44.14669" lon="7.24149">
        <ele>2293</ele>
        <time>2019-02-10T13:00:07.000Z</time>
      </trkpt>
      <trkpt lat="44.14669" lon="7.24151">
        <ele>2293</ele>
        <time>2019-02-10T13:00:12.000Z</time>
      </trkpt>
      <trkpt lat="44.14669" lon="7.24151">
        <ele>2293</ele>
        <time>2019-02-10T13:00:14.000Z</time>
      </trkpt>
      <trkpt lat="44.14669" lon="7.24151">
        <ele>2293</ele>
        <time>2019-02-10T13:00:19.000Z</time>
      </trkpt>
      <trkpt lat="44.14669" lon="7.24151">
        <ele>2293</ele>
        <time>2019-02-10T13:00:20.000Z</time>
      </trkpt>
      <trkpt lat="44.14669" lon="7.24151">
        <ele>2293</ele>
        <time>2019-02-10T13:00:21.000Z</time>
      </trkpt>
      <trkpt lat="44.14669" lon="7.24151">
        <ele>2293</ele>
        <time>2019-02-10T13:00:22.000Z</time>
      </trkpt>
      <trkpt lat="44.14668" lon="7.24151">
        <ele>2293</ele>
        <time>2019-02-10T13:00:27.000Z</time>
      </trkpt>
      <trkpt lat="44.14667" lon="7.24151">
        <ele>2293</ele>
        <time>2019-02-10T13:00:29.000Z</time>
      </trkpt>
      <trkpt lat="44.14667" lon="7.24151">
        <ele>2293</ele>
        <time>2019-02-10T13:00:34.000Z</time>
      </trkpt>
      <trkpt lat="44.14667" lon="7.24152">
        <ele>2293</ele>
        <time>2019-02-10T13:00:36.000Z</time>
      </trkpt>
      <trkpt lat="44.14666" lon="7.24153">
        <ele>2293</ele>
        <time>2019-02-10T13:00:40.000Z</time>
      </trkpt>
      <trkpt lat="44.14666" lon="7.24153">
        <ele>2293</ele>
        <time>2019-02-10T13:00:42.000Z</time>
      </trkpt>
      <trkpt lat="44.14666" lon="7.24153">
        <ele>2293</ele>
        <time>2019-02-10T13:00:43.000Z</time>
      </trkpt>
      <trkpt lat="44.14666" lon="7.24153">
        <ele>2293</ele>
        <time>2019-02-10T13:00:44.000Z</time>
      </trkpt>
      <trkpt lat="44.14666" lon="7.24153">
        <ele>2293</ele>
        <time>2019-02-10T13:00:46.000Z</time>
      </trkpt>
      <trkpt lat="44.14666" lon="7.24153">
        <ele>2293</ele>
        <time>2019-02-10T13:00:48.000Z</time>
      </trkpt>
      <trkpt lat="44.14666" lon="7.24153">
        <ele>2293</ele>
        <time>2019-02-10T13:00:52.000Z</time>
      </trkpt>
      <trkpt lat="44.14666" lon="7.24153">
        <ele>2293</ele>
        <time>2019-02-10T13:00:53.000Z</time>
      </trkpt>
      <trkpt lat="44.14666" lon="7.24153">
        <ele>2293</ele>
        <time>2019-02-10T13:00:55.000Z</time>
      </trkpt>
      <trkpt lat="44.14666" lon="7.24153">
        <ele>2293</ele>
        <time>2019-02-10T13:00:56.000Z</time>
      </trkpt>
      <trkpt lat="44.14666" lon="7.24153">
        <ele>2293</ele>
        <time>2019-02-10T13:00:57.000Z</time>
      </trkpt>
      <trkpt lat="44.14666" lon="7.24153">
        <ele>2293</ele>
        <time>2019-02-10T13:00:59.000Z</time>
      </trkpt>
      <trkpt lat="44.14666" lon="7.24153">
        <ele>2293</ele>
        <time>2019-02-10T13:01:01.000Z</time>
      </trkpt>
      <trkpt lat="44.14666" lon="7.24153">
        <ele>2293</ele>
        <time>2019-02-10T13:01:02.000Z</time>
      </trkpt>
      <trkpt lat="44.14666" lon="7.24152">
        <ele>2293</ele>
        <time>2019-02-10T13:01:03.000Z</time>
      </trkpt>
      <trkpt lat="44.14666" lon="7.24152">
        <ele>2293</ele>
        <time>2019-02-10T13:01:05.000Z</time>
      </trkpt>
      <trkpt lat="44.14666" lon="7.24151">
        <ele>2293</ele>
        <time>2019-02-10T13:01:11.000Z</time>
      </trkpt>
      <trkpt lat="44.14666" lon="7.24151">
        <ele>2293</ele>
        <time>2019-02-10T13:01:14.000Z</time>
      </trkpt>
      <trkpt lat="44.14666" lon="7.24151">
        <ele>2293</ele>
        <time>2019-02-10T13:01:18.000Z</time>
      </trkpt>
      <trkpt lat="44.14666" lon="7.24152">
        <ele>2293</ele>
        <time>2019-02-10T13:01:21.000Z</time>
      </trkpt>
      <trkpt lat="44.14665" lon="7.24152">
        <ele>2293</ele>
        <time>2019-02-10T13:01:25.000Z</time>
      </trkpt>
      <trkpt lat="44.14665" lon="7.24152">
        <ele>2293</ele>
        <time>2019-02-10T13:01:28.000Z</time>
      </trkpt>
      <trkpt lat="44.14665" lon="7.24152">
        <ele>2293</ele>
        <time>2019-02-10T13:01:32.000Z</time>
      </trkpt>
      <trkpt lat="44.14664" lon="7.24152">
        <ele>2293</ele>
        <time>2019-02-10T13:01:34.000Z</time>
      </trkpt>
      <trkpt lat="44.14664" lon="7.24153">
        <ele>2293</ele>
        <time>2019-02-10T13:01:38.000Z</time>
      </trkpt>
      <trkpt lat="44.14664" lon="7.24153">
        <ele>2293</ele>
        <time>2019-02-10T13:01:39.000Z</time>
      </trkpt>
      <trkpt lat="44.14664" lon="7.24153">
        <ele>2293</ele>
        <time>2019-02-10T13:01:40.000Z</time>
      </trkpt>
      <trkpt lat="44.14664" lon="7.24153">
        <ele>2293</ele>
        <time>2019-02-10T13:01:54.000Z</time>
      </trkpt>
      <trkpt lat="44.14664" lon="7.24153">
        <ele>2293</ele>
        <time>2019-02-10T13:01:56.000Z</time>
      </trkpt>
      <trkpt lat="44.14664" lon="7.24153">
        <ele>2293</ele>
        <time>2019-02-10T13:01:57.000Z</time>
      </trkpt>
      <trkpt lat="44.14666" lon="7.24152">
        <ele>2293</ele>
        <time>2019-02-10T13:02:06.000Z</time>
      </trkpt>
      <trkpt lat="44.14663" lon="7.24145">
        <ele>2293</ele>
        <time>2019-02-10T13:02:11.000Z</time>
      </trkpt>
      <trkpt lat="44.1466" lon="7.24141">
        <ele>2293</ele>
        <time>2019-02-10T13:02:12.000Z</time>
      </trkpt>
      <trkpt lat="44.14653" lon="7.24138">
        <ele>2290.8000488281</ele>
        <time>2019-02-10T13:02:14.000Z</time>
      </trkpt>
      <trkpt lat="44.1465" lon="7.24137">
        <ele>2289</ele>
        <time>2019-02-10T13:02:15.000Z</time>
      </trkpt>
      <trkpt lat="44.14647" lon="7.24135">
        <ele>2288</ele>
        <time>2019-02-10T13:02:16.000Z</time>
      </trkpt>
      <trkpt lat="44.14643" lon="7.24133">
        <ele>2287.3999023438</ele>
        <time>2019-02-10T13:02:17.000Z</time>
      </trkpt>
      <trkpt lat="44.14639" lon="7.24132">
        <ele>2286.1999511719</ele>
        <time>2019-02-10T13:02:18.000Z</time>
      </trkpt>
      <trkpt lat="44.14635" lon="7.2413">
        <ele>2285.3999023438</ele>
        <time>2019-02-10T13:02:19.000Z</time>
      </trkpt>
      <trkpt lat="44.14627" lon="7.24128">
        <ele>2285</ele>
        <time>2019-02-10T13:02:22.000Z</time>
      </trkpt>
      <trkpt lat="44.14626" lon="7.24129">
        <ele>2284.6000976562</ele>
        <time>2019-02-10T13:02:23.000Z</time>
      </trkpt>
      <trkpt lat="44.14625" lon="7.24129">
        <ele>2284.3999023438</ele>
        <time>2019-02-10T13:02:24.000Z</time>
      </trkpt>
      <trkpt lat="44.14625" lon="7.24128">
        <ele>2284</ele>
        <time>2019-02-10T13:02:27.000Z</time>
      </trkpt>
      <trkpt lat="44.14624" lon="7.24127">
        <ele>2284</ele>
        <time>2019-02-10T13:02:30.000Z</time>
      </trkpt>
      <trkpt lat="44.14624" lon="7.24127">
        <ele>2284</ele>
        <time>2019-02-10T13:02:31.000Z</time>
      </trkpt>
      <trkpt lat="44.14623" lon="7.24127">
        <ele>2283.8000488281</ele>
        <time>2019-02-10T13:02:32.000Z</time>
      </trkpt>
      <trkpt lat="44.14623" lon="7.24126">
        <ele>2283.6000976562</ele>
        <time>2019-02-10T13:02:35.000Z</time>
      </trkpt>
      <trkpt lat="44.14623" lon="7.24126">
        <ele>2283.6000976562</ele>
        <time>2019-02-10T13:02:36.000Z</time>
      </trkpt>
      <trkpt lat="44.14623" lon="7.24128">
        <ele>2283.8000488281</ele>
        <time>2019-02-10T13:02:46.000Z</time>
      </trkpt>
      <trkpt lat="44.14623" lon="7.24128">
        <ele>2283.8000488281</ele>
        <time>2019-02-10T13:02:48.000Z</time>
      </trkpt>
      <trkpt lat="44.14623" lon="7.24128">
        <ele>2283.8000488281</ele>
        <time>2019-02-10T13:02:49.000Z</time>
      </trkpt>
      <trkpt lat="44.14622" lon="7.24128">
        <ele>2283.8000488281</ele>
        <time>2019-02-10T13:02:54.000Z</time>
      </trkpt>
      <trkpt lat="44.14622" lon="7.24128">
        <ele>2283.8000488281</ele>
        <time>2019-02-10T13:02:55.000Z</time>
      </trkpt>
      <trkpt lat="44.14622" lon="7.24128">
        <ele>2283.8000488281</ele>
        <time>2019-02-10T13:02:56.000Z</time>
      </trkpt>
      <trkpt lat="44.14622" lon="7.24128">
        <ele>2283.8000488281</ele>
        <time>2019-02-10T13:02:57.000Z</time>
      </trkpt>
      <trkpt lat="44.14621" lon="7.24124">
        <ele>2283.8000488281</ele>
        <time>2019-02-10T13:03:01.000Z</time>
      </trkpt>
      <trkpt lat="44.1462" lon="7.24123">
        <ele>2283.8000488281</ele>
        <time>2019-02-10T13:03:02.000Z</time>
      </trkpt>
      <trkpt lat="44.14619" lon="7.24121">
        <ele>2283</ele>
        <time>2019-02-10T13:03:09.000Z</time>
      </trkpt>
      <trkpt lat="44.14619" lon="7.2412">
        <ele>2282.8000488281</ele>
        <time>2019-02-10T13:03:10.000Z</time>
      </trkpt>
      <trkpt lat="44.1462" lon="7.24117">
        <ele>2282.1999511719</ele>
        <time>2019-02-10T13:03:15.000Z</time>
      </trkpt>
      <trkpt lat="44.14622" lon="7.24115">
        <ele>2282</ele>
        <time>2019-02-10T13:03:17.000Z</time>
      </trkpt>
      <trkpt lat="44.14623" lon="7.24113">
        <ele>2280.8000488281</ele>
        <time>2019-02-10T13:03:19.000Z</time>
      </trkpt>
      <trkpt lat="44.14618" lon="7.24108">
        <ele>2279.1999511719</ele>
        <time>2019-02-10T13:03:22.000Z</time>
      </trkpt>
      <trkpt lat="44.14617" lon="7.24107">
        <ele>2277.6000976562</ele>
        <time>2019-02-10T13:03:24.000Z</time>
      </trkpt>
      <trkpt lat="44.14615" lon="7.24106">
        <ele>2276.3999023438</ele>
        <time>2019-02-10T13:03:26.000Z</time>
      </trkpt>
      <trkpt lat="44.1461" lon="7.24105">
        <ele>2276</ele>
        <time>2019-02-10T13:03:28.000Z</time>
      </trkpt>
      <trkpt lat="44.14607" lon="7.24104">
        <ele>2275.8000488281</ele>
        <time>2019-02-10T13:03:29.000Z</time>
      </trkpt>
      <trkpt lat="44.14604" lon="7.24103">
        <ele>2275.3999023438</ele>
        <time>2019-02-10T13:03:30.000Z</time>
      </trkpt>
      <trkpt lat="44.14601" lon="7.24101">
        <ele>2275</ele>
        <time>2019-02-10T13:03:31.000Z</time>
      </trkpt>
      <trkpt lat="44.146" lon="7.241">
        <ele>2274.3999023438</ele>
        <time>2019-02-10T13:03:32.000Z</time>
      </trkpt>
      <trkpt lat="44.14599" lon="7.24099">
        <ele>2273.8000488281</ele>
        <time>2019-02-10T13:03:33.000Z</time>
      </trkpt>
      <trkpt lat="44.14596" lon="7.24093">
        <ele>2273</ele>
        <time>2019-02-10T13:03:38.000Z</time>
      </trkpt>
      <trkpt lat="44.14594" lon="7.24091">
        <ele>2272.8000488281</ele>
        <time>2019-02-10T13:03:39.000Z</time>
      </trkpt>
      <trkpt lat="44.14593" lon="7.2409">
        <ele>2272.6000976562</ele>
        <time>2019-02-10T13:03:41.000Z</time>
      </trkpt>
      <trkpt lat="44.14597" lon="7.24085">
        <ele>2272.1999511719</ele>
        <time>2019-02-10T13:04:03.000Z</time>
      </trkpt>
      <trkpt lat="44.14598" lon="7.24084">
        <ele>2272.3999023438</ele>
        <time>2019-02-10T13:04:14.000Z</time>
      </trkpt>
      <trkpt lat="44.14598" lon="7.24084">
        <ele>2272.1999511719</ele>
        <time>2019-02-10T13:04:20.000Z</time>
      </trkpt>
      <trkpt lat="44.14597" lon="7.24081">
        <ele>2272.1999511719</ele>
        <time>2019-02-10T13:04:26.000Z</time>
      </trkpt>
      <trkpt lat="44.14599" lon="7.24077">
        <ele>2272.3999023438</ele>
        <time>2019-02-10T13:04:32.000Z</time>
      </trkpt>
      <trkpt lat="44.146" lon="7.24075">
        <ele>2272.6000976562</ele>
        <time>2019-02-10T13:04:43.000Z</time>
      </trkpt>
      <trkpt lat="44.146" lon="7.24076">
        <ele>2272.6000976562</ele>
        <time>2019-02-10T13:04:44.000Z</time>
      </trkpt>
      <trkpt lat="44.14599" lon="7.24076">
        <ele>2272.3999023438</ele>
        <time>2019-02-10T13:04:45.000Z</time>
      </trkpt>
      <trkpt lat="44.14596" lon="7.24077">
        <ele>2272.1999511719</ele>
        <time>2019-02-10T13:04:49.000Z</time>
      </trkpt>
      <trkpt lat="44.14595" lon="7.24074">
        <ele>2272.1999511719</ele>
        <time>2019-02-10T13:04:52.000Z</time>
      </trkpt>
      <trkpt lat="44.14592" lon="7.24071">
        <ele>2272.1999511719</ele>
        <time>2019-02-10T13:04:55.000Z</time>
      </trkpt>
      <trkpt lat="44.1459" lon="7.24069">
        <ele>2271.8000488281</ele>
        <time>2019-02-10T13:04:56.000Z</time>
      </trkpt>
      <trkpt lat="44.14587" lon="7.24065">
        <ele>2270.6000976562</ele>
        <time>2019-02-10T13:04:58.000Z</time>
      </trkpt>
      <trkpt lat="44.14582" lon="7.24056">
        <ele>2268.6000976562</ele>
        <time>2019-02-10T13:05:00.000Z</time>
      </trkpt>
      <trkpt lat="44.14575" lon="7.24047">
        <ele>2269.1999511719</ele>
        <time>2019-02-10T13:05:02.000Z</time>
      </trkpt>
      <trkpt lat="44.14573" lon="7.24044">
        <ele>2269</ele>
        <time>2019-02-10T13:05:03.000Z</time>
      </trkpt>
      <trkpt lat="44.14571" lon="7.24043">
        <ele>2268.3999023438</ele>
        <time>2019-02-10T13:05:05.000Z</time>
      </trkpt>
      <trkpt lat="44.14571" lon="7.24042">
        <ele>2268.3999023438</ele>
        <time>2019-02-10T13:05:06.000Z</time>
      </trkpt>
      <trkpt lat="44.14572" lon="7.24041">
        <ele>2268.3999023438</ele>
        <time>2019-02-10T13:05:08.000Z</time>
      </trkpt>
      <trkpt lat="44.14573" lon="7.24041">
        <ele>2268.3999023438</ele>
        <time>2019-02-10T13:05:13.000Z</time>
      </trkpt>
      <trkpt lat="44.14574" lon="7.24037">
        <ele>2268.1999511719</ele>
        <time>2019-02-10T13:05:21.000Z</time>
      </trkpt>
      <trkpt lat="44.14574" lon="7.24037">
        <ele>2268.1999511719</ele>
        <time>2019-02-10T13:05:22.000Z</time>
      </trkpt>
      <trkpt lat="44.14573" lon="7.24036">
        <ele>2268.1999511719</ele>
        <time>2019-02-10T13:05:23.000Z</time>
      </trkpt>
      <trkpt lat="44.14573" lon="7.24036">
        <ele>2268.1999511719</ele>
        <time>2019-02-10T13:05:24.000Z</time>
      </trkpt>
      <trkpt lat="44.14573" lon="7.24036">
        <ele>2268</ele>
        <time>2019-02-10T13:05:25.000Z</time>
      </trkpt>
      <trkpt lat="44.14573" lon="7.24036">
        <ele>2268</ele>
        <time>2019-02-10T13:05:26.000Z</time>
      </trkpt>
      <trkpt lat="44.14573" lon="7.24036">
        <ele>2268.1999511719</ele>
        <time>2019-02-10T13:05:28.000Z</time>
      </trkpt>
      <trkpt lat="44.14573" lon="7.24036">
        <ele>2268.1999511719</ele>
        <time>2019-02-10T13:05:30.000Z</time>
      </trkpt>
      <trkpt lat="44.14574" lon="7.24035">
        <ele>2268.6000976562</ele>
        <time>2019-02-10T13:05:47.000Z</time>
      </trkpt>
      <trkpt lat="44.14574" lon="7.24035">
        <ele>2268.6000976562</ele>
        <time>2019-02-10T13:05:49.000Z</time>
      </trkpt>
      <trkpt lat="44.14574" lon="7.24035">
        <ele>2268.6000976562</ele>
        <time>2019-02-10T13:05:50.000Z</time>
      </trkpt>
      <trkpt lat="44.14574" lon="7.24035">
        <ele>2268.6000976562</ele>
        <time>2019-02-10T13:05:52.000Z</time>
      </trkpt>
      <trkpt lat="44.14574" lon="7.24035">
        <ele>2268.6000976562</ele>
        <time>2019-02-10T13:05:54.000Z</time>
      </trkpt>
      <trkpt lat="44.14575" lon="7.24034">
        <ele>2268.6000976562</ele>
        <time>2019-02-10T13:05:58.000Z</time>
      </trkpt>
      <trkpt lat="44.14575" lon="7.24034">
        <ele>2268.6000976562</ele>
        <time>2019-02-10T13:05:59.000Z</time>
      </trkpt>
      <trkpt lat="44.14576" lon="7.24036">
        <ele>2268.6000976562</ele>
        <time>2019-02-10T13:06:04.000Z</time>
      </trkpt>
      <trkpt lat="44.14576" lon="7.24036">
        <ele>2269</ele>
        <time>2019-02-10T13:06:11.000Z</time>
      </trkpt>
      <trkpt lat="44.14576" lon="7.24036">
        <ele>2268.8000488281</ele>
        <time>2019-02-10T13:06:15.000Z</time>
      </trkpt>
      <trkpt lat="44.14576" lon="7.24037">
        <ele>2268.6000976562</ele>
        <time>2019-02-10T13:06:18.000Z</time>
      </trkpt>
      <trkpt lat="44.14575" lon="7.24037">
        <ele>2268.6000976562</ele>
        <time>2019-02-10T13:06:19.000Z</time>
      </trkpt>
      <trkpt lat="44.14575" lon="7.24037">
        <ele>2268.6000976562</ele>
        <time>2019-02-10T13:06:23.000Z</time>
      </trkpt>
      <trkpt lat="44.14576" lon="7.24037">
        <ele>2268.6000976562</ele>
        <time>2019-02-10T13:06:26.000Z</time>
      </trkpt>
      <trkpt lat="44.14576" lon="7.24037">
        <ele>2268.6000976562</ele>
        <time>2019-02-10T13:06:29.000Z</time>
      </trkpt>
      <trkpt lat="44.14576" lon="7.24038">
        <ele>2268.6000976562</ele>
        <time>2019-02-10T13:06:30.000Z</time>
      </trkpt>
      <trkpt lat="44.14574" lon="7.24038">
        <ele>2268.6000976562</ele>
        <time>2019-02-10T13:06:33.000Z</time>
      </trkpt>
      <trkpt lat="44.14571" lon="7.24036">
        <ele>2268.6000976562</ele>
        <time>2019-02-10T13:06:39.000Z</time>
      </trkpt>
      <trkpt lat="44.14571" lon="7.24036">
        <ele>2268.6000976562</ele>
        <time>2019-02-10T13:06:40.000Z</time>
      </trkpt>
      <trkpt lat="44.1457" lon="7.24036">
        <ele>2268.6000976562</ele>
        <time>2019-02-10T13:06:42.000Z</time>
      </trkpt>
      <trkpt lat="44.14569" lon="7.24038">
        <ele>2268.6000976562</ele>
        <time>2019-02-10T13:06:47.000Z</time>
      </trkpt>
      <trkpt lat="44.14569" lon="7.24038">
        <ele>2268.6000976562</ele>
        <time>2019-02-10T13:06:50.000Z</time>
      </trkpt>
      <trkpt lat="44.14569" lon="7.24038">
        <ele>2268.6000976562</ele>
        <time>2019-02-10T13:06:54.000Z</time>
      </trkpt>
      <trkpt lat="44.1457" lon="7.24038">
        <ele>2268.6000976562</ele>
        <time>2019-02-10T13:06:56.000Z</time>
      </trkpt>
      <trkpt lat="44.1457" lon="7.24039">
        <ele>2268.6000976562</ele>
        <time>2019-02-10T13:06:58.000Z</time>
      </trkpt>
      <trkpt lat="44.1457" lon="7.24039">
        <ele>2268.6000976562</ele>
        <time>2019-02-10T13:07:01.000Z</time>
      </trkpt>
      <trkpt lat="44.14572" lon="7.2404">
        <ele>2268.6000976562</ele>
        <time>2019-02-10T13:07:12.000Z</time>
      </trkpt>
      <trkpt lat="44.14572" lon="7.2404">
        <ele>2268.6000976562</ele>
        <time>2019-02-10T13:07:13.000Z</time>
      </trkpt>
      <trkpt lat="44.14572" lon="7.2404">
        <ele>2268.6000976562</ele>
        <time>2019-02-10T13:07:14.000Z</time>
      </trkpt>
      <trkpt lat="44.14572" lon="7.2404">
        <ele>2268.6000976562</ele>
        <time>2019-02-10T13:07:16.000Z</time>
      </trkpt>
      <trkpt lat="44.14572" lon="7.2404">
        <ele>2268.6000976562</ele>
        <time>2019-02-10T13:07:17.000Z</time>
      </trkpt>
      <trkpt lat="44.14573" lon="7.2404">
        <ele>2268.6000976562</ele>
        <time>2019-02-10T13:07:20.000Z</time>
      </trkpt>
      <trkpt lat="44.14574" lon="7.24041">
        <ele>2268.6000976562</ele>
        <time>2019-02-10T13:07:32.000Z</time>
      </trkpt>
      <trkpt lat="44.14574" lon="7.24039">
        <ele>2268.6000976562</ele>
        <time>2019-02-10T13:07:35.000Z</time>
      </trkpt>
      <trkpt lat="44.14573" lon="7.24039">
        <ele>2268.6000976562</ele>
        <time>2019-02-10T13:07:43.000Z</time>
      </trkpt>
      <trkpt lat="44.14574" lon="7.24039">
        <ele>2268.6000976562</ele>
        <time>2019-02-10T13:07:46.000Z</time>
      </trkpt>
      <trkpt lat="44.14574" lon="7.24039">
        <ele>2268.6000976562</ele>
        <time>2019-02-10T13:07:48.000Z</time>
      </trkpt>
      <trkpt lat="44.1457" lon="7.24033">
        <ele>2268.6000976562</ele>
        <time>2019-02-10T13:07:58.000Z</time>
      </trkpt>
      <trkpt lat="44.14571" lon="7.24033">
        <ele>2268.6000976562</ele>
        <time>2019-02-10T13:08:02.000Z</time>
      </trkpt>
      <trkpt lat="44.14571" lon="7.24033">
        <ele>2268.6000976562</ele>
        <time>2019-02-10T13:08:03.000Z</time>
      </trkpt>
      <trkpt lat="44.1457" lon="7.24033">
        <ele>2268.6000976562</ele>
        <time>2019-02-10T13:08:04.000Z</time>
      </trkpt>
      <trkpt lat="44.1457" lon="7.24033">
        <ele>2268.6000976562</ele>
        <time>2019-02-10T13:08:07.000Z</time>
      </trkpt>
      <trkpt lat="44.1457" lon="7.24033">
        <ele>2268.6000976562</ele>
        <time>2019-02-10T13:08:08.000Z</time>
      </trkpt>
      <trkpt lat="44.14569" lon="7.24035">
        <ele>2268.6000976562</ele>
        <time>2019-02-10T13:08:15.000Z</time>
      </trkpt>
      <trkpt lat="44.14569" lon="7.24035">
        <ele>2268.6000976562</ele>
        <time>2019-02-10T13:08:18.000Z</time>
      </trkpt>
      <trkpt lat="44.14569" lon="7.24034">
        <ele>2268.6000976562</ele>
        <time>2019-02-10T13:08:19.000Z</time>
      </trkpt>
      <trkpt lat="44.14568" lon="7.24034">
        <ele>2268.6000976562</ele>
        <time>2019-02-10T13:08:24.000Z</time>
      </trkpt>
      <trkpt lat="44.14569" lon="7.24034">
        <ele>2268.6000976562</ele>
        <time>2019-02-10T13:08:27.000Z</time>
      </trkpt>
      <trkpt lat="44.14568" lon="7.24035">
        <ele>2268.6000976562</ele>
        <time>2019-02-10T13:08:34.000Z</time>
      </trkpt>
      <trkpt lat="44.14568" lon="7.24036">
        <ele>2268.6000976562</ele>
        <time>2019-02-10T13:08:35.000Z</time>
      </trkpt>
      <trkpt lat="44.14569" lon="7.24037">
        <ele>2268.6000976562</ele>
        <time>2019-02-10T13:08:38.000Z</time>
      </trkpt>
      <trkpt lat="44.14569" lon="7.24037">
        <ele>2268.6000976562</ele>
        <time>2019-02-10T13:08:42.000Z</time>
      </trkpt>
      <trkpt lat="44.14569" lon="7.24037">
        <ele>2268.6000976562</ele>
        <time>2019-02-10T13:08:44.000Z</time>
      </trkpt>
      <trkpt lat="44.1457" lon="7.24037">
        <ele>2268.6000976562</ele>
        <time>2019-02-10T13:08:45.000Z</time>
      </trkpt>
      <trkpt lat="44.14569" lon="7.24038">
        <ele>2268.6000976562</ele>
        <time>2019-02-10T13:08:46.000Z</time>
      </trkpt>
      <trkpt lat="44.14569" lon="7.24038">
        <ele>2268.6000976562</ele>
        <time>2019-02-10T13:08:47.000Z</time>
      </trkpt>
      <trkpt lat="44.14569" lon="7.24039">
        <ele>2268.6000976562</ele>
        <time>2019-02-10T13:08:51.000Z</time>
      </trkpt>
      <trkpt lat="44.14568" lon="7.2404">
        <ele>2268.6000976562</ele>
        <time>2019-02-10T13:08:53.000Z</time>
      </trkpt>
      <trkpt lat="44.14567" lon="7.2404">
        <ele>2268.6000976562</ele>
        <time>2019-02-10T13:08:56.000Z</time>
      </trkpt>
      <trkpt lat="44.14567" lon="7.2404">
        <ele>2268.6000976562</ele>
        <time>2019-02-10T13:09:02.000Z</time>
      </trkpt>
      <trkpt lat="44.14567" lon="7.24039">
        <ele>2268.6000976562</ele>
        <time>2019-02-10T13:09:13.000Z</time>
      </trkpt>
      <trkpt lat="44.14569" lon="7.24036">
        <ele>2268.6000976562</ele>
        <time>2019-02-10T13:09:17.000Z</time>
      </trkpt>
      <trkpt lat="44.1457" lon="7.24033">
        <ele>2268.6000976562</ele>
        <time>2019-02-10T13:09:20.000Z</time>
      </trkpt>
      <trkpt lat="44.14569" lon="7.24032">
        <ele>2268.6000976562</ele>
        <time>2019-02-10T13:09:25.000Z</time>
      </trkpt>
      <trkpt lat="44.14564" lon="7.24026">
        <ele>2268.6000976562</ele>
        <time>2019-02-10T13:09:32.000Z</time>
      </trkpt>
      <trkpt lat="44.14564" lon="7.24025">
        <ele>2267.3999023438</ele>
        <time>2019-02-10T13:09:34.000Z</time>
      </trkpt>
      <trkpt lat="44.14563" lon="7.24023">
        <ele>2267</ele>
        <time>2019-02-10T13:09:38.000Z</time>
      </trkpt>
      <trkpt lat="44.14562" lon="7.24021">
        <ele>2267</ele>
        <time>2019-02-10T13:09:40.000Z</time>
      </trkpt>
      <trkpt lat="44.14559" lon="7.24019">
        <ele>2266.3999023438</ele>
        <time>2019-02-10T13:09:45.000Z</time>
      </trkpt>
      <trkpt lat="44.14556" lon="7.24018">
        <ele>2266.3999023438</ele>
        <time>2019-02-10T13:09:48.000Z</time>
      </trkpt>
      <trkpt lat="44.14555" lon="7.24018">
        <ele>2266</ele>
        <time>2019-02-10T13:09:55.000Z</time>
      </trkpt>
      <trkpt lat="44.14553" lon="7.24016">
        <ele>2265.8000488281</ele>
        <time>2019-02-10T13:09:57.000Z</time>
      </trkpt>
      <trkpt lat="44.14551" lon="7.24015">
        <ele>2265.1999511719</ele>
        <time>2019-02-10T13:09:59.000Z</time>
      </trkpt>
      <trkpt lat="44.14551" lon="7.24016">
        <ele>2264.3999023438</ele>
        <time>2019-02-10T13:10:01.000Z</time>
      </trkpt>
      <trkpt lat="44.14551" lon="7.24015">
        <ele>2264</ele>
        <time>2019-02-10T13:10:02.000Z</time>
      </trkpt>
      <trkpt lat="44.14555" lon="7.24014">
        <ele>2263.8000488281</ele>
        <time>2019-02-10T13:10:05.000Z</time>
      </trkpt>
      <trkpt lat="44.14557" lon="7.24013">
        <ele>2263.8000488281</ele>
        <time>2019-02-10T13:10:06.000Z</time>
      </trkpt>
      <trkpt lat="44.14559" lon="7.24013">
        <ele>2263.6000976562</ele>
        <time>2019-02-10T13:10:08.000Z</time>
      </trkpt>
      <trkpt lat="44.14559" lon="7.24013">
        <ele>2262.6000976562</ele>
        <time>2019-02-10T13:10:10.000Z</time>
      </trkpt>
      <trkpt lat="44.14567" lon="7.24012">
        <ele>2261.6000976562</ele>
        <time>2019-02-10T13:10:17.000Z</time>
      </trkpt>
      <trkpt lat="44.14568" lon="7.24011">
        <ele>2260.8000488281</ele>
        <time>2019-02-10T13:10:19.000Z</time>
      </trkpt>
      <trkpt lat="44.1457" lon="7.2401">
        <ele>2260.3999023438</ele>
        <time>2019-02-10T13:10:21.000Z</time>
      </trkpt>
      <trkpt lat="44.14573" lon="7.24005">
        <ele>2259.1999511719</ele>
        <time>2019-02-10T13:10:25.000Z</time>
      </trkpt>
      <trkpt lat="44.14575" lon="7.24001">
        <ele>2258</ele>
        <time>2019-02-10T13:10:28.000Z</time>
      </trkpt>
      <trkpt lat="44.14579" lon="7.23995">
        <ele>2257</ele>
        <time>2019-02-10T13:10:30.000Z</time>
      </trkpt>
      <trkpt lat="44.1458" lon="7.23995">
        <ele>2256.6000976562</ele>
        <time>2019-02-10T13:10:31.000Z</time>
      </trkpt>
      <trkpt lat="44.14581" lon="7.23993">
        <ele>2256</ele>
        <time>2019-02-10T13:10:32.000Z</time>
      </trkpt>
      <trkpt lat="44.14581" lon="7.23991">
        <ele>2255.3999023438</ele>
        <time>2019-02-10T13:10:33.000Z</time>
      </trkpt>
      <trkpt lat="44.14583" lon="7.23988">
        <ele>2254.3999023438</ele>
        <time>2019-02-10T13:10:35.000Z</time>
      </trkpt>
      <trkpt lat="44.14584" lon="7.23985">
        <ele>2253</ele>
        <time>2019-02-10T13:10:38.000Z</time>
      </trkpt>
      <trkpt lat="44.14586" lon="7.23982">
        <ele>2251.8000488281</ele>
        <time>2019-02-10T13:10:41.000Z</time>
      </trkpt>
      <trkpt lat="44.14585" lon="7.23981">
        <ele>2250.8000488281</ele>
        <time>2019-02-10T13:10:44.000Z</time>
      </trkpt>
      <trkpt lat="44.14577" lon="7.23978">
        <ele>2250</ele>
        <time>2019-02-10T13:11:01.000Z</time>
      </trkpt>
      <trkpt lat="44.14576" lon="7.23979">
        <ele>2249.8000488281</ele>
        <time>2019-02-10T13:11:04.000Z</time>
      </trkpt>
      <trkpt lat="44.14575" lon="7.2398">
        <ele>2249.6000976562</ele>
        <time>2019-02-10T13:11:12.000Z</time>
      </trkpt>
      <trkpt lat="44.14575" lon="7.2398">
        <ele>2249.8000488281</ele>
        <time>2019-02-10T13:11:16.000Z</time>
      </trkpt>
      <trkpt lat="44.14576" lon="7.23979">
        <ele>2249.6000976562</ele>
        <time>2019-02-10T13:11:25.000Z</time>
      </trkpt>
      <trkpt lat="44.14574" lon="7.23982">
        <ele>2249.3999023438</ele>
        <time>2019-02-10T13:11:35.000Z</time>
      </trkpt>
      <trkpt lat="44.14575" lon="7.23981">
        <ele>2248.8000488281</ele>
        <time>2019-02-10T13:11:54.000Z</time>
      </trkpt>
      <trkpt lat="44.14576" lon="7.23982">
        <ele>2248.6000976562</ele>
        <time>2019-02-10T13:11:57.000Z</time>
      </trkpt>
      <trkpt lat="44.14578" lon="7.23983">
        <ele>2248.6000976562</ele>
        <time>2019-02-10T13:11:59.000Z</time>
      </trkpt>
      <trkpt lat="44.1458" lon="7.23983">
        <ele>2248.8000488281</ele>
        <time>2019-02-10T13:12:02.000Z</time>
      </trkpt>
      <trkpt lat="44.1458" lon="7.23982">
        <ele>2248.6000976562</ele>
        <time>2019-02-10T13:12:14.000Z</time>
      </trkpt>
      <trkpt lat="44.1458" lon="7.23982">
        <ele>2248.6000976562</ele>
        <time>2019-02-10T13:12:16.000Z</time>
      </trkpt>
      <trkpt lat="44.1458" lon="7.23982">
        <ele>2248.6000976562</ele>
        <time>2019-02-10T13:12:17.000Z</time>
      </trkpt>
      <trkpt lat="44.1458" lon="7.23981">
        <ele>2248.6000976562</ele>
        <time>2019-02-10T13:12:18.000Z</time>
      </trkpt>
      <trkpt lat="44.14579" lon="7.23979">
        <ele>2248</ele>
        <time>2019-02-10T13:12:27.000Z</time>
      </trkpt>
      <trkpt lat="44.14579" lon="7.23978">
        <ele>2248</ele>
        <time>2019-02-10T13:12:28.000Z</time>
      </trkpt>
      <trkpt lat="44.14579" lon="7.23978">
        <ele>2248</ele>
        <time>2019-02-10T13:12:29.000Z</time>
      </trkpt>
      <trkpt lat="44.14579" lon="7.23978">
        <ele>2248</ele>
        <time>2019-02-10T13:12:31.000Z</time>
      </trkpt>
      <trkpt lat="44.1458" lon="7.23979">
        <ele>2248</ele>
        <time>2019-02-10T13:12:37.000Z</time>
      </trkpt>
      <trkpt lat="44.14573" lon="7.23978">
        <ele>2247.8000488281</ele>
        <time>2019-02-10T13:12:53.000Z</time>
      </trkpt>
      <trkpt lat="44.1457" lon="7.23979">
        <ele>2247.6000976562</ele>
        <time>2019-02-10T13:12:54.000Z</time>
      </trkpt>
      <trkpt lat="44.14563" lon="7.23977">
        <ele>2246.3999023438</ele>
        <time>2019-02-10T13:12:56.000Z</time>
      </trkpt>
      <trkpt lat="44.14563" lon="7.23975">
        <ele>2245.8000488281</ele>
        <time>2019-02-10T13:12:57.000Z</time>
      </trkpt>
      <trkpt lat="44.14563" lon="7.23972">
        <ele>2245.1999511719</ele>
        <time>2019-02-10T13:12:58.000Z</time>
      </trkpt>
      <trkpt lat="44.14566" lon="7.2397">
        <ele>2244.1999511719</ele>
        <time>2019-02-10T13:13:00.000Z</time>
      </trkpt>
      <trkpt lat="44.14566" lon="7.23969">
        <ele>2243.6000976562</ele>
        <time>2019-02-10T13:13:01.000Z</time>
      </trkpt>
      <trkpt lat="44.14566" lon="7.23966">
        <ele>2242.8000488281</ele>
        <time>2019-02-10T13:13:02.000Z</time>
      </trkpt>
      <trkpt lat="44.14563" lon="7.23959">
        <ele>2241.6000976562</ele>
        <time>2019-02-10T13:13:04.000Z</time>
      </trkpt>
      <trkpt lat="44.14562" lon="7.23958">
        <ele>2240.3999023438</ele>
        <time>2019-02-10T13:13:06.000Z</time>
      </trkpt>
      <trkpt lat="44.14562" lon="7.23958">
        <ele>2239.3999023438</ele>
        <time>2019-02-10T13:13:08.000Z</time>
      </trkpt>
      <trkpt lat="44.1456" lon="7.23952">
        <ele>2238.3999023438</ele>
        <time>2019-02-10T13:13:14.000Z</time>
      </trkpt>
      <trkpt lat="44.1456" lon="7.23951">
        <ele>2237.1999511719</ele>
        <time>2019-02-10T13:13:17.000Z</time>
      </trkpt>
      <trkpt lat="44.14559" lon="7.23947">
        <ele>2236.6000976562</ele>
        <time>2019-02-10T13:13:19.000Z</time>
      </trkpt>
      <trkpt lat="44.14558" lon="7.23945">
        <ele>2236.6000976562</ele>
        <time>2019-02-10T13:13:20.000Z</time>
      </trkpt>
      <trkpt lat="44.14554" lon="7.2394">
        <ele>2236.1999511719</ele>
        <time>2019-02-10T13:13:22.000Z</time>
      </trkpt>
      <trkpt lat="44.1455" lon="7.23939">
        <ele>2235.8000488281</ele>
        <time>2019-02-10T13:13:23.000Z</time>
      </trkpt>
      <trkpt lat="44.14546" lon="7.23939">
        <ele>2234.1999511719</ele>
        <time>2019-02-10T13:13:25.000Z</time>
      </trkpt>
      <trkpt lat="44.14544" lon="7.2394">
        <ele>2233</ele>
        <time>2019-02-10T13:13:27.000Z</time>
      </trkpt>
      <trkpt lat="44.14544" lon="7.23939">
        <ele>2232.3999023438</ele>
        <time>2019-02-10T13:13:29.000Z</time>
      </trkpt>
      <trkpt lat="44.14543" lon="7.23939">
        <ele>2232.1999511719</ele>
        <time>2019-02-10T13:13:32.000Z</time>
      </trkpt>
      <trkpt lat="44.14543" lon="7.23939">
        <ele>2232</ele>
        <time>2019-02-10T13:13:33.000Z</time>
      </trkpt>
      <trkpt lat="44.14543" lon="7.23939">
        <ele>2232</ele>
        <time>2019-02-10T13:13:34.000Z</time>
      </trkpt>
      <trkpt lat="44.14542" lon="7.23938">
        <ele>2231.8000488281</ele>
        <time>2019-02-10T13:13:47.000Z</time>
      </trkpt>
      <trkpt lat="44.14542" lon="7.23937">
        <ele>2231.8000488281</ele>
        <time>2019-02-10T13:13:58.000Z</time>
      </trkpt>
      <trkpt lat="44.14542" lon="7.23937">
        <ele>2231.8000488281</ele>
        <time>2019-02-10T13:13:59.000Z</time>
      </trkpt>
      <trkpt lat="44.14541" lon="7.23938">
        <ele>2232</ele>
        <time>2019-02-10T13:14:11.000Z</time>
      </trkpt>
      <trkpt lat="44.1454" lon="7.23938">
        <ele>2232</ele>
        <time>2019-02-10T13:14:15.000Z</time>
      </trkpt>
      <trkpt lat="44.1454" lon="7.23937">
        <ele>2232</ele>
        <time>2019-02-10T13:14:20.000Z</time>
      </trkpt>
      <trkpt lat="44.14539" lon="7.23936">
        <ele>2232</ele>
        <time>2019-02-10T13:14:21.000Z</time>
      </trkpt>
      <trkpt lat="44.1454" lon="7.23932">
        <ele>2232</ele>
        <time>2019-02-10T13:14:27.000Z</time>
      </trkpt>
      <trkpt lat="44.1454" lon="7.23931">
        <ele>2232</ele>
        <time>2019-02-10T13:14:28.000Z</time>
      </trkpt>
      <trkpt lat="44.1454" lon="7.23926">
        <ele>2231.6000976562</ele>
        <time>2019-02-10T13:14:32.000Z</time>
      </trkpt>
      <trkpt lat="44.14543" lon="7.2393">
        <ele>2231.1999511719</ele>
        <time>2019-02-10T13:14:39.000Z</time>
      </trkpt>
      <trkpt lat="44.14543" lon="7.2393">
        <ele>2231.1999511719</ele>
        <time>2019-02-10T13:14:40.000Z</time>
      </trkpt>
      <trkpt lat="44.14544" lon="7.2393">
        <ele>2231</ele>
        <time>2019-02-10T13:14:41.000Z</time>
      </trkpt>
      <trkpt lat="44.14544" lon="7.23931">
        <ele>2231</ele>
        <time>2019-02-10T13:14:42.000Z</time>
      </trkpt>
      <trkpt lat="44.14544" lon="7.23932">
        <ele>2231</ele>
        <time>2019-02-10T13:14:43.000Z</time>
      </trkpt>
      <trkpt lat="44.14544" lon="7.23932">
        <ele>2231</ele>
        <time>2019-02-10T13:14:44.000Z</time>
      </trkpt>
      <trkpt lat="44.14544" lon="7.23933">
        <ele>2230.8000488281</ele>
        <time>2019-02-10T13:14:46.000Z</time>
      </trkpt>
      <trkpt lat="44.14544" lon="7.23933">
        <ele>2230.8000488281</ele>
        <time>2019-02-10T13:14:47.000Z</time>
      </trkpt>
      <trkpt lat="44.14543" lon="7.23934">
        <ele>2231</ele>
        <time>2019-02-10T13:14:57.000Z</time>
      </trkpt>
      <trkpt lat="44.14543" lon="7.23935">
        <ele>2231</ele>
        <time>2019-02-10T13:14:59.000Z</time>
      </trkpt>
      <trkpt lat="44.14543" lon="7.23935">
        <ele>2231</ele>
        <time>2019-02-10T13:15:01.000Z</time>
      </trkpt>
      <trkpt lat="44.14544" lon="7.23935">
        <ele>2231</ele>
        <time>2019-02-10T13:15:04.000Z</time>
      </trkpt>
      <trkpt lat="44.14544" lon="7.23935">
        <ele>2231</ele>
        <time>2019-02-10T13:15:07.000Z</time>
      </trkpt>
      <trkpt lat="44.14546" lon="7.23936">
        <ele>2231</ele>
        <time>2019-02-10T13:15:12.000Z</time>
      </trkpt>
      <trkpt lat="44.14549" lon="7.23937">
        <ele>2231.8000488281</ele>
        <time>2019-02-10T13:15:24.000Z</time>
      </trkpt>
      <trkpt lat="44.14548" lon="7.23937">
        <ele>2231.8000488281</ele>
        <time>2019-02-10T13:15:26.000Z</time>
      </trkpt>
      <trkpt lat="44.14549" lon="7.23936">
        <ele>2231.6000976562</ele>
        <time>2019-02-10T13:15:30.000Z</time>
      </trkpt>
      <trkpt lat="44.14552" lon="7.23937">
        <ele>2232</ele>
        <time>2019-02-10T13:15:42.000Z</time>
      </trkpt>
      <trkpt lat="44.14547" lon="7.23937">
        <ele>2231.8000488281</ele>
        <time>2019-02-10T13:16:09.000Z</time>
      </trkpt>
      <trkpt lat="44.14547" lon="7.23937">
        <ele>2231.8000488281</ele>
        <time>2019-02-10T13:16:14.000Z</time>
      </trkpt>
      <trkpt lat="44.14548" lon="7.23935">
        <ele>2232.1999511719</ele>
        <time>2019-02-10T13:16:35.000Z</time>
      </trkpt>
      <trkpt lat="44.14549" lon="7.23936">
        <ele>2232.3999023438</ele>
        <time>2019-02-10T13:16:39.000Z</time>
      </trkpt>
      <trkpt lat="44.14553" lon="7.23935">
        <ele>2232.8000488281</ele>
        <time>2019-02-10T13:16:44.000Z</time>
      </trkpt>
      <trkpt lat="44.14555" lon="7.23934">
        <ele>2233</ele>
        <time>2019-02-10T13:16:48.000Z</time>
      </trkpt>
      <trkpt lat="44.14547" lon="7.23932">
        <ele>2233</ele>
        <time>2019-02-10T13:16:54.000Z</time>
      </trkpt>
      <trkpt lat="44.14547" lon="7.23932">
        <ele>2233</ele>
        <time>2019-02-10T13:16:56.000Z</time>
      </trkpt>
      <trkpt lat="44.14549" lon="7.23935">
        <ele>2233.1999511719</ele>
        <time>2019-02-10T13:17:07.000Z</time>
      </trkpt>
      <trkpt lat="44.14548" lon="7.23934">
        <ele>2233.3999023438</ele>
        <time>2019-02-10T13:17:14.000Z</time>
      </trkpt>
      <trkpt lat="44.14548" lon="7.23936">
        <ele>2233.3999023438</ele>
        <time>2019-02-10T13:17:23.000Z</time>
      </trkpt>
      <trkpt lat="44.14546" lon="7.23925">
        <ele>2233</ele>
        <time>2019-02-10T13:17:33.000Z</time>
      </trkpt>
      <trkpt lat="44.14551" lon="7.2392">
        <ele>2231.8000488281</ele>
        <time>2019-02-10T13:17:35.000Z</time>
      </trkpt>
      <trkpt lat="44.14554" lon="7.23917">
        <ele>2230.8000488281</ele>
        <time>2019-02-10T13:17:36.000Z</time>
      </trkpt>
      <trkpt lat="44.14557" lon="7.23913">
        <ele>2229.6000976562</ele>
        <time>2019-02-10T13:17:37.000Z</time>
      </trkpt>
      <trkpt lat="44.14559" lon="7.23909">
        <ele>2228.1999511719</ele>
        <time>2019-02-10T13:17:38.000Z</time>
      </trkpt>
      <trkpt lat="44.14559" lon="7.23904">
        <ele>2226.3999023438</ele>
        <time>2019-02-10T13:17:39.000Z</time>
      </trkpt>
      <trkpt lat="44.14559" lon="7.23898">
        <ele>2225</ele>
        <time>2019-02-10T13:17:40.000Z</time>
      </trkpt>
      <trkpt lat="44.14559" lon="7.23893">
        <ele>2223.6000976562</ele>
        <time>2019-02-10T13:17:41.000Z</time>
      </trkpt>
      <trkpt lat="44.14561" lon="7.23887">
        <ele>2222.3999023438</ele>
        <time>2019-02-10T13:17:42.000Z</time>
      </trkpt>
      <trkpt lat="44.14563" lon="7.23883">
        <ele>2221.8000488281</ele>
        <time>2019-02-10T13:17:43.000Z</time>
      </trkpt>
      <trkpt lat="44.14565" lon="7.23881">
        <ele>2221.3999023438</ele>
        <time>2019-02-10T13:17:44.000Z</time>
      </trkpt>
      <trkpt lat="44.14568" lon="7.23874">
        <ele>2220.3999023438</ele>
        <time>2019-02-10T13:17:47.000Z</time>
      </trkpt>
      <trkpt lat="44.14568" lon="7.23871">
        <ele>2220.3999023438</ele>
        <time>2019-02-10T13:17:49.000Z</time>
      </trkpt>
      <trkpt lat="44.14568" lon="7.23868">
        <ele>2220.3999023438</ele>
        <time>2019-02-10T13:17:51.000Z</time>
      </trkpt>
      <trkpt lat="44.14568" lon="7.23865">
        <ele>2220.1999511719</ele>
        <time>2019-02-10T13:17:53.000Z</time>
      </trkpt>
      <trkpt lat="44.14567" lon="7.23862">
        <ele>2220.1999511719</ele>
        <time>2019-02-10T13:17:55.000Z</time>
      </trkpt>
      <trkpt lat="44.14565" lon="7.23856">
        <ele>2220.1999511719</ele>
        <time>2019-02-10T13:18:05.000Z</time>
      </trkpt>
      <trkpt lat="44.14565" lon="7.23856">
        <ele>2220.1999511719</ele>
        <time>2019-02-10T13:18:06.000Z</time>
      </trkpt>
      <trkpt lat="44.14565" lon="7.23856">
        <ele>2220</ele>
        <time>2019-02-10T13:18:14.000Z</time>
      </trkpt>
      <trkpt lat="44.14565" lon="7.23857">
        <ele>2220.1999511719</ele>
        <time>2019-02-10T13:18:19.000Z</time>
      </trkpt>
      <trkpt lat="44.14565" lon="7.23856">
        <ele>2220.1999511719</ele>
        <time>2019-02-10T13:18:21.000Z</time>
      </trkpt>
      <trkpt lat="44.14565" lon="7.23856">
        <ele>2220.3999023438</ele>
        <time>2019-02-10T13:18:24.000Z</time>
      </trkpt>
      <trkpt lat="44.14565" lon="7.23856">
        <ele>2220.3999023438</ele>
        <time>2019-02-10T13:18:25.000Z</time>
      </trkpt>
      <trkpt lat="44.14566" lon="7.23855">
        <ele>2220.3999023438</ele>
        <time>2019-02-10T13:18:28.000Z</time>
      </trkpt>
      <trkpt lat="44.1457" lon="7.23854">
        <ele>2220.3999023438</ele>
        <time>2019-02-10T13:18:37.000Z</time>
      </trkpt>
      <trkpt lat="44.14569" lon="7.23836">
        <ele>2219.1999511719</ele>
        <time>2019-02-10T13:18:42.000Z</time>
      </trkpt>
      <trkpt lat="44.14568" lon="7.23829">
        <ele>2218</ele>
        <time>2019-02-10T13:18:44.000Z</time>
      </trkpt>
      <trkpt lat="44.14567" lon="7.23822">
        <ele>2216.6000976562</ele>
        <time>2019-02-10T13:18:46.000Z</time>
      </trkpt>
      <trkpt lat="44.14567" lon="7.23818">
        <ele>2216</ele>
        <time>2019-02-10T13:18:47.000Z</time>
      </trkpt>
      <trkpt lat="44.14567" lon="7.23812">
        <ele>2215.3999023438</ele>
        <time>2019-02-10T13:18:48.000Z</time>
      </trkpt>
      <trkpt lat="44.14566" lon="7.23797">
        <ele>2214</ele>
        <time>2019-02-10T13:18:50.000Z</time>
      </trkpt>
      <trkpt lat="44.14565" lon="7.23786">
        <ele>2212.1999511719</ele>
        <time>2019-02-10T13:18:52.000Z</time>
      </trkpt>
      <trkpt lat="44.14564" lon="7.23781">
        <ele>2211.6000976562</ele>
        <time>2019-02-10T13:18:53.000Z</time>
      </trkpt>
      <trkpt lat="44.14564" lon="7.23778">
        <ele>2211.1999511719</ele>
        <time>2019-02-10T13:18:54.000Z</time>
      </trkpt>
      <trkpt lat="44.14562" lon="7.23767">
        <ele>2210.1999511719</ele>
        <time>2019-02-10T13:18:57.000Z</time>
      </trkpt>
      <trkpt lat="44.1456" lon="7.2376">
        <ele>2209.1999511719</ele>
        <time>2019-02-10T13:18:59.000Z</time>
      </trkpt>
      <trkpt lat="44.14558" lon="7.23755">
        <ele>2209</ele>
        <time>2019-02-10T13:19:00.000Z</time>
      </trkpt>
      <trkpt lat="44.14554" lon="7.23742">
        <ele>2207.3999023438</ele>
        <time>2019-02-10T13:19:03.000Z</time>
      </trkpt>
      <trkpt lat="44.14551" lon="7.23725">
        <ele>2206.1999511719</ele>
        <time>2019-02-10T13:19:06.000Z</time>
      </trkpt>
      <trkpt lat="44.14551" lon="7.23721">
        <ele>2205.3999023438</ele>
        <time>2019-02-10T13:19:08.000Z</time>
      </trkpt>
      <trkpt lat="44.14551" lon="7.23719">
        <ele>2205</ele>
        <time>2019-02-10T13:19:10.000Z</time>
      </trkpt>
      <trkpt lat="44.14551" lon="7.23718">
        <ele>2204.8000488281</ele>
        <time>2019-02-10T13:19:12.000Z</time>
      </trkpt>
      <trkpt lat="44.14549" lon="7.23716">
        <ele>2204.6000976562</ele>
        <time>2019-02-10T13:19:14.000Z</time>
      </trkpt>
      <trkpt lat="44.14549" lon="7.23715">
        <ele>2204.3999023438</ele>
        <time>2019-02-10T13:19:15.000Z</time>
      </trkpt>
      <trkpt lat="44.14548" lon="7.23715">
        <ele>2204</ele>
        <time>2019-02-10T13:19:17.000Z</time>
      </trkpt>
      <trkpt lat="44.14548" lon="7.23715">
        <ele>2203.8000488281</ele>
        <time>2019-02-10T13:19:18.000Z</time>
      </trkpt>
      <trkpt lat="44.14545" lon="7.23714">
        <ele>2203.3999023438</ele>
        <time>2019-02-10T13:19:30.000Z</time>
      </trkpt>
      <trkpt lat="44.14543" lon="7.23714">
        <ele>2203.1999511719</ele>
        <time>2019-02-10T13:19:35.000Z</time>
      </trkpt>
      <trkpt lat="44.14541" lon="7.23712">
        <ele>2203</ele>
        <time>2019-02-10T13:19:43.000Z</time>
      </trkpt>
      <trkpt lat="44.14542" lon="7.23713">
        <ele>2203</ele>
        <time>2019-02-10T13:19:47.000Z</time>
      </trkpt>
      <trkpt lat="44.14542" lon="7.23715">
        <ele>2202.8000488281</ele>
        <time>2019-02-10T13:19:51.000Z</time>
      </trkpt>
      <trkpt lat="44.14542" lon="7.23715">
        <ele>2202.3999023438</ele>
        <time>2019-02-10T13:19:55.000Z</time>
      </trkpt>
      <trkpt lat="44.14543" lon="7.23714">
        <ele>2202.8000488281</ele>
        <time>2019-02-10T13:19:58.000Z</time>
      </trkpt>
      <trkpt lat="44.14542" lon="7.23713">
        <ele>2202.8000488281</ele>
        <time>2019-02-10T13:20:07.000Z</time>
      </trkpt>
      <trkpt lat="44.14542" lon="7.23711">
        <ele>2202.8000488281</ele>
        <time>2019-02-10T13:20:13.000Z</time>
      </trkpt>
      <trkpt lat="44.14544" lon="7.23709">
        <ele>2202.6000976562</ele>
        <time>2019-02-10T13:20:25.000Z</time>
      </trkpt>
      <trkpt lat="44.14544" lon="7.23709">
        <ele>2202.6000976562</ele>
        <time>2019-02-10T13:20:29.000Z</time>
      </trkpt>
      <trkpt lat="44.14541" lon="7.23709">
        <ele>2202.8000488281</ele>
        <time>2019-02-10T13:20:35.000Z</time>
      </trkpt>
      <trkpt lat="44.14539" lon="7.23708">
        <ele>2202.8000488281</ele>
        <time>2019-02-10T13:20:37.000Z</time>
      </trkpt>
      <trkpt lat="44.14539" lon="7.23708">
        <ele>2202.6000976562</ele>
        <time>2019-02-10T13:20:39.000Z</time>
      </trkpt>
      <trkpt lat="44.14539" lon="7.23709">
        <ele>2202.3999023438</ele>
        <time>2019-02-10T13:20:41.000Z</time>
      </trkpt>
      <trkpt lat="44.1454" lon="7.2371">
        <ele>2202.3999023438</ele>
        <time>2019-02-10T13:20:43.000Z</time>
      </trkpt>
      <trkpt lat="44.14542" lon="7.23711">
        <ele>2202.3999023438</ele>
        <time>2019-02-10T13:20:46.000Z</time>
      </trkpt>
      <trkpt lat="44.14542" lon="7.23709">
        <ele>2202.3999023438</ele>
        <time>2019-02-10T13:20:56.000Z</time>
      </trkpt>
      <trkpt lat="44.14542" lon="7.23708">
        <ele>2202.6000976562</ele>
        <time>2019-02-10T13:20:58.000Z</time>
      </trkpt>
      <trkpt lat="44.14543" lon="7.23707">
        <ele>2202.6000976562</ele>
        <time>2019-02-10T13:21:03.000Z</time>
      </trkpt>
      <trkpt lat="44.14543" lon="7.23707">
        <ele>2202.6000976562</ele>
        <time>2019-02-10T13:21:05.000Z</time>
      </trkpt>
      <trkpt lat="44.14544" lon="7.23707">
        <ele>2202.3999023438</ele>
        <time>2019-02-10T13:21:08.000Z</time>
      </trkpt>
      <trkpt lat="44.14543" lon="7.23708">
        <ele>2202.3999023438</ele>
        <time>2019-02-10T13:21:16.000Z</time>
      </trkpt>
      <trkpt lat="44.14545" lon="7.23708">
        <ele>2202.3999023438</ele>
        <time>2019-02-10T13:21:19.000Z</time>
      </trkpt>
      <trkpt lat="44.14546" lon="7.23709">
        <ele>2202</ele>
        <time>2019-02-10T13:21:24.000Z</time>
      </trkpt>
      <trkpt lat="44.14546" lon="7.23708">
        <ele>2202</ele>
        <time>2019-02-10T13:21:39.000Z</time>
      </trkpt>
      <trkpt lat="44.14546" lon="7.23709">
        <ele>2202</ele>
        <time>2019-02-10T13:21:42.000Z</time>
      </trkpt>
      <trkpt lat="44.14545" lon="7.2371">
        <ele>2202</ele>
        <time>2019-02-10T13:21:46.000Z</time>
      </trkpt>
      <trkpt lat="44.14545" lon="7.23711">
        <ele>2202</ele>
        <time>2019-02-10T13:21:55.000Z</time>
      </trkpt>
      <trkpt lat="44.14544" lon="7.23714">
        <ele>2202</ele>
        <time>2019-02-10T13:22:11.000Z</time>
      </trkpt>
      <trkpt lat="44.14546" lon="7.23715">
        <ele>2197.1999511719</ele>
        <time>2019-02-10T13:22:23.000Z</time>
      </trkpt>
      <trkpt lat="44.14546" lon="7.23715">
        <ele>2199.6000976562</ele>
        <time>2019-02-10T13:22:24.000Z</time>
      </trkpt>
      <trkpt lat="44.14546" lon="7.23715">
        <ele>2201</ele>
        <time>2019-02-10T13:22:27.000Z</time>
      </trkpt>
      <trkpt lat="44.14545" lon="7.23713">
        <ele>2201.1999511719</ele>
        <time>2019-02-10T13:22:48.000Z</time>
      </trkpt>
      <trkpt lat="44.14545" lon="7.23713">
        <ele>2201.3999023438</ele>
        <time>2019-02-10T13:22:50.000Z</time>
      </trkpt>
      <trkpt lat="44.14545" lon="7.23713">
        <ele>2201.3999023438</ele>
        <time>2019-02-10T13:22:52.000Z</time>
      </trkpt>
      <trkpt lat="44.14543" lon="7.23712">
        <ele>2201.1999511719</ele>
        <time>2019-02-10T13:23:03.000Z</time>
      </trkpt>
      <trkpt lat="44.14543" lon="7.23712">
        <ele>2201.1999511719</ele>
        <time>2019-02-10T13:23:07.000Z</time>
      </trkpt>
      <trkpt lat="44.14544" lon="7.23712">
        <ele>2201.3999023438</ele>
        <time>2019-02-10T13:23:10.000Z</time>
      </trkpt>
      <trkpt lat="44.14544" lon="7.23712">
        <ele>2201.3999023438</ele>
        <time>2019-02-10T13:23:13.000Z</time>
      </trkpt>
      <trkpt lat="44.14545" lon="7.23713">
        <ele>2201.6000976562</ele>
        <time>2019-02-10T13:23:17.000Z</time>
      </trkpt>
      <trkpt lat="44.14544" lon="7.23713">
        <ele>2201.6000976562</ele>
        <time>2019-02-10T13:23:19.000Z</time>
      </trkpt>
      <trkpt lat="44.14544" lon="7.23713">
        <ele>2201.3999023438</ele>
        <time>2019-02-10T13:23:27.000Z</time>
      </trkpt>
      <trkpt lat="44.14544" lon="7.23713">
        <ele>2201.3999023438</ele>
        <time>2019-02-10T13:23:28.000Z</time>
      </trkpt>
      <trkpt lat="44.14544" lon="7.23713">
        <ele>2201.1999511719</ele>
        <time>2019-02-10T13:23:37.000Z</time>
      </trkpt>
      <trkpt lat="44.14544" lon="7.23712">
        <ele>2201.1999511719</ele>
        <time>2019-02-10T13:23:39.000Z</time>
      </trkpt>
      <trkpt lat="44.14545" lon="7.2371">
        <ele>2201.1999511719</ele>
        <time>2019-02-10T13:23:51.000Z</time>
      </trkpt>
      <trkpt lat="44.14545" lon="7.2371">
        <ele>2201.1999511719</ele>
        <time>2019-02-10T13:23:54.000Z</time>
      </trkpt>
      <trkpt lat="44.14546" lon="7.2371">
        <ele>2201.1999511719</ele>
        <time>2019-02-10T13:23:58.000Z</time>
      </trkpt>
      <trkpt lat="44.14547" lon="7.23711">
        <ele>2201.1999511719</ele>
        <time>2019-02-10T13:24:02.000Z</time>
      </trkpt>
      <trkpt lat="44.14548" lon="7.23712">
        <ele>2201.1999511719</ele>
        <time>2019-02-10T13:24:07.000Z</time>
      </trkpt>
      <trkpt lat="44.14547" lon="7.23712">
        <ele>2201.1999511719</ele>
        <time>2019-02-10T13:24:12.000Z</time>
      </trkpt>
      <trkpt lat="44.14546" lon="7.23711">
        <ele>2201.1999511719</ele>
        <time>2019-02-10T13:24:15.000Z</time>
      </trkpt>
      <trkpt lat="44.14547" lon="7.23712">
        <ele>2201</ele>
        <time>2019-02-10T13:24:18.000Z</time>
      </trkpt>
      <trkpt lat="44.14547" lon="7.23712">
        <ele>2201</ele>
        <time>2019-02-10T13:24:21.000Z</time>
      </trkpt>
      <trkpt lat="44.14548" lon="7.23712">
        <ele>2201</ele>
        <time>2019-02-10T13:24:25.000Z</time>
      </trkpt>
      <trkpt lat="44.14551" lon="7.23714">
        <ele>2200.8000488281</ele>
        <time>2019-02-10T13:24:30.000Z</time>
      </trkpt>
      <trkpt lat="44.14554" lon="7.23714">
        <ele>2200.8000488281</ele>
        <time>2019-02-10T13:24:33.000Z</time>
      </trkpt>
      <trkpt lat="44.14554" lon="7.23714">
        <ele>2200.6000976562</ele>
        <time>2019-02-10T13:24:34.000Z</time>
      </trkpt>
      <trkpt lat="44.14554" lon="7.23714">
        <ele>2200.6000976562</ele>
        <time>2019-02-10T13:24:35.000Z</time>
      </trkpt>
      <trkpt lat="44.14555" lon="7.23715">
        <ele>2200.6000976562</ele>
        <time>2019-02-10T13:24:36.000Z</time>
      </trkpt>
      <trkpt lat="44.14555" lon="7.23715">
        <ele>2200.6000976562</ele>
        <time>2019-02-10T13:24:38.000Z</time>
      </trkpt>
      <trkpt lat="44.14555" lon="7.23715">
        <ele>2200.8000488281</ele>
        <time>2019-02-10T13:24:40.000Z</time>
      </trkpt>
      <trkpt lat="44.14554" lon="7.23712">
        <ele>2201.1999511719</ele>
        <time>2019-02-10T13:24:48.000Z</time>
      </trkpt>
      <trkpt lat="44.14553" lon="7.23712">
        <ele>2201.1999511719</ele>
        <time>2019-02-10T13:24:49.000Z</time>
      </trkpt>
      <trkpt lat="44.14552" lon="7.23711">
        <ele>2201.3999023438</ele>
        <time>2019-02-10T13:24:51.000Z</time>
      </trkpt>
      <trkpt lat="44.14548" lon="7.2371">
        <ele>2201</ele>
        <time>2019-02-10T13:25:01.000Z</time>
      </trkpt>
      <trkpt lat="44.14547" lon="7.2371">
        <ele>2201</ele>
        <time>2019-02-10T13:25:04.000Z</time>
      </trkpt>
      <trkpt lat="44.14546" lon="7.2371">
        <ele>2201</ele>
        <time>2019-02-10T13:25:08.000Z</time>
      </trkpt>
      <trkpt lat="44.14546" lon="7.2371">
        <ele>2201</ele>
        <time>2019-02-10T13:25:10.000Z</time>
      </trkpt>
      <trkpt lat="44.14546" lon="7.2371">
        <ele>2201</ele>
        <time>2019-02-10T13:25:12.000Z</time>
      </trkpt>
      <trkpt lat="44.14546" lon="7.2371">
        <ele>2201</ele>
        <time>2019-02-10T13:25:13.000Z</time>
      </trkpt>
      <trkpt lat="44.14546" lon="7.23711">
        <ele>2200.8000488281</ele>
        <time>2019-02-10T13:25:17.000Z</time>
      </trkpt>
      <trkpt lat="44.14546" lon="7.23711">
        <ele>2200.8000488281</ele>
        <time>2019-02-10T13:25:19.000Z</time>
      </trkpt>
      <trkpt lat="44.14545" lon="7.23711">
        <ele>2200.8000488281</ele>
        <time>2019-02-10T13:25:21.000Z</time>
      </trkpt>
      <trkpt lat="44.14545" lon="7.23711">
        <ele>2201</ele>
        <time>2019-02-10T13:25:23.000Z</time>
      </trkpt>
      <trkpt lat="44.14545" lon="7.23711">
        <ele>2201</ele>
        <time>2019-02-10T13:25:24.000Z</time>
      </trkpt>
      <trkpt lat="44.14545" lon="7.23711">
        <ele>2201</ele>
        <time>2019-02-10T13:25:25.000Z</time>
      </trkpt>
      <trkpt lat="44.14544" lon="7.23711">
        <ele>2201.1999511719</ele>
        <time>2019-02-10T13:25:33.000Z</time>
      </trkpt>
      <trkpt lat="44.14544" lon="7.2371">
        <ele>2201.1999511719</ele>
        <time>2019-02-10T13:25:35.000Z</time>
      </trkpt>
      <trkpt lat="44.14545" lon="7.23711">
        <ele>2201.1999511719</ele>
        <time>2019-02-10T13:25:36.000Z</time>
      </trkpt>
      <trkpt lat="44.14545" lon="7.23711">
        <ele>2201.1999511719</ele>
        <time>2019-02-10T13:25:38.000Z</time>
      </trkpt>
      <trkpt lat="44.14547" lon="7.23713">
        <ele>2201.1999511719</ele>
        <time>2019-02-10T13:25:44.000Z</time>
      </trkpt>
      <trkpt lat="44.14547" lon="7.23713">
        <ele>2201.1999511719</ele>
        <time>2019-02-10T13:25:45.000Z</time>
      </trkpt>
      <trkpt lat="44.14547" lon="7.23713">
        <ele>2201.1999511719</ele>
        <time>2019-02-10T13:25:46.000Z</time>
      </trkpt>
      <trkpt lat="44.14547" lon="7.23713">
        <ele>2201.1999511719</ele>
        <time>2019-02-10T13:25:48.000Z</time>
      </trkpt>
      <trkpt lat="44.14547" lon="7.23713">
        <ele>2201.1999511719</ele>
        <time>2019-02-10T13:25:50.000Z</time>
      </trkpt>
      <trkpt lat="44.14548" lon="7.23712">
        <ele>2201.1999511719</ele>
        <time>2019-02-10T13:25:55.000Z</time>
      </trkpt>
      <trkpt lat="44.14548" lon="7.23713">
        <ele>2201.1999511719</ele>
        <time>2019-02-10T13:25:57.000Z</time>
      </trkpt>
      <trkpt lat="44.14548" lon="7.23712">
        <ele>2201.1999511719</ele>
        <time>2019-02-10T13:25:59.000Z</time>
      </trkpt>
      <trkpt lat="44.14547" lon="7.2371">
        <ele>2201.1999511719</ele>
        <time>2019-02-10T13:26:02.000Z</time>
      </trkpt>
      <trkpt lat="44.14547" lon="7.2371">
        <ele>2201.1999511719</ele>
        <time>2019-02-10T13:26:03.000Z</time>
      </trkpt>
      <trkpt lat="44.14547" lon="7.23709">
        <ele>2201.1999511719</ele>
        <time>2019-02-10T13:26:05.000Z</time>
      </trkpt>
      <trkpt lat="44.14547" lon="7.23709">
        <ele>2201.1999511719</ele>
        <time>2019-02-10T13:26:08.000Z</time>
      </trkpt>
      <trkpt lat="44.14547" lon="7.23709">
        <ele>2201.1999511719</ele>
        <time>2019-02-10T13:26:11.000Z</time>
      </trkpt>
      <trkpt lat="44.14547" lon="7.23709">
        <ele>2201.1999511719</ele>
        <time>2019-02-10T13:26:13.000Z</time>
      </trkpt>
      <trkpt lat="44.14547" lon="7.23709">
        <ele>2201.1999511719</ele>
        <time>2019-02-10T13:26:14.000Z</time>
      </trkpt>
      <trkpt lat="44.14545" lon="7.23709">
        <ele>2201.1999511719</ele>
        <time>2019-02-10T13:26:24.000Z</time>
      </trkpt>
      <trkpt lat="44.14545" lon="7.2371">
        <ele>2201.1999511719</ele>
        <time>2019-02-10T13:26:26.000Z</time>
      </trkpt>
      <trkpt lat="44.14545" lon="7.2371">
        <ele>2201.1999511719</ele>
        <time>2019-02-10T13:26:28.000Z</time>
      </trkpt>
      <trkpt lat="44.14545" lon="7.2371">
        <ele>2201.1999511719</ele>
        <time>2019-02-10T13:26:30.000Z</time>
      </trkpt>
      <trkpt lat="44.14546" lon="7.2371">
        <ele>2201.1999511719</ele>
        <time>2019-02-10T13:26:31.000Z</time>
      </trkpt>
      <trkpt lat="44.14546" lon="7.2371">
        <ele>2201.1999511719</ele>
        <time>2019-02-10T13:26:33.000Z</time>
      </trkpt>
      <trkpt lat="44.14547" lon="7.2371">
        <ele>2201.1999511719</ele>
        <time>2019-02-10T13:26:36.000Z</time>
      </trkpt>
      <trkpt lat="44.14547" lon="7.2371">
        <ele>2201.1999511719</ele>
        <time>2019-02-10T13:26:37.000Z</time>
      </trkpt>
      <trkpt lat="44.14547" lon="7.2371">
        <ele>2201.1999511719</ele>
        <time>2019-02-10T13:26:40.000Z</time>
      </trkpt>
      <trkpt lat="44.14546" lon="7.23711">
        <ele>2201.1999511719</ele>
        <time>2019-02-10T13:26:45.000Z</time>
      </trkpt>
      <trkpt lat="44.14546" lon="7.23711">
        <ele>2201.1999511719</ele>
        <time>2019-02-10T13:26:48.000Z</time>
      </trkpt>
      <trkpt lat="44.14546" lon="7.23711">
        <ele>2201.1999511719</ele>
        <time>2019-02-10T13:26:54.000Z</time>
      </trkpt>
      <trkpt lat="44.14546" lon="7.23712">
        <ele>2201.1999511719</ele>
        <time>2019-02-10T13:26:56.000Z</time>
      </trkpt>
      <trkpt lat="44.14546" lon="7.23712">
        <ele>2201.1999511719</ele>
        <time>2019-02-10T13:27:02.000Z</time>
      </trkpt>
      <trkpt lat="44.14546" lon="7.23712">
        <ele>2201.1999511719</ele>
        <time>2019-02-10T13:27:04.000Z</time>
      </trkpt>
      <trkpt lat="44.14544" lon="7.23715">
        <ele>2201.1999511719</ele>
        <time>2019-02-10T13:27:12.000Z</time>
      </trkpt>
      <trkpt lat="44.14544" lon="7.23715">
        <ele>2201.1999511719</ele>
        <time>2019-02-10T13:27:13.000Z</time>
      </trkpt>
      <trkpt lat="44.14544" lon="7.23716">
        <ele>2201.1999511719</ele>
        <time>2019-02-10T13:27:15.000Z</time>
      </trkpt>
      <trkpt lat="44.14544" lon="7.23716">
        <ele>2201.1999511719</ele>
        <time>2019-02-10T13:27:18.000Z</time>
      </trkpt>
      <trkpt lat="44.14544" lon="7.23715">
        <ele>2201.1999511719</ele>
        <time>2019-02-10T13:27:19.000Z</time>
      </trkpt>
      <trkpt lat="44.14544" lon="7.23715">
        <ele>2201.1999511719</ele>
        <time>2019-02-10T13:27:20.000Z</time>
      </trkpt>
      <trkpt lat="44.14544" lon="7.23715">
        <ele>2201.1999511719</ele>
        <time>2019-02-10T13:27:21.000Z</time>
      </trkpt>
      <trkpt lat="44.14544" lon="7.23712">
        <ele>2201.1999511719</ele>
        <time>2019-02-10T13:27:29.000Z</time>
      </trkpt>
      <trkpt lat="44.14544" lon="7.23712">
        <ele>2201.1999511719</ele>
        <time>2019-02-10T13:27:32.000Z</time>
      </trkpt>
      <trkpt lat="44.14545" lon="7.23713">
        <ele>2201.1999511719</ele>
        <time>2019-02-10T13:27:38.000Z</time>
      </trkpt>
      <trkpt lat="44.14545" lon="7.23713">
        <ele>2201.1999511719</ele>
        <time>2019-02-10T13:27:39.000Z</time>
      </trkpt>
      <trkpt lat="44.14545" lon="7.23713">
        <ele>2201.1999511719</ele>
        <time>2019-02-10T13:27:42.000Z</time>
      </trkpt>
      <trkpt lat="44.14545" lon="7.23713">
        <ele>2201.1999511719</ele>
        <time>2019-02-10T13:27:43.000Z</time>
      </trkpt>
      <trkpt lat="44.14545" lon="7.23713">
        <ele>2201.1999511719</ele>
        <time>2019-02-10T13:27:46.000Z</time>
      </trkpt>
      <trkpt lat="44.14545" lon="7.23712">
        <ele>2201.1999511719</ele>
        <time>2019-02-10T13:27:48.000Z</time>
      </trkpt>
      <trkpt lat="44.14545" lon="7.23712">
        <ele>2201.1999511719</ele>
        <time>2019-02-10T13:27:57.000Z</time>
      </trkpt>
      <trkpt lat="44.14545" lon="7.23712">
        <ele>2201.1999511719</ele>
        <time>2019-02-10T13:27:58.000Z</time>
      </trkpt>
      <trkpt lat="44.14545" lon="7.23712">
        <ele>2201.1999511719</ele>
        <time>2019-02-10T13:27:59.000Z</time>
      </trkpt>
      <trkpt lat="44.14545" lon="7.23712">
        <ele>2201.1999511719</ele>
        <time>2019-02-10T13:28:00.000Z</time>
      </trkpt>
      <trkpt lat="44.14545" lon="7.23711">
        <ele>2201.1999511719</ele>
        <time>2019-02-10T13:28:14.000Z</time>
      </trkpt>
      <trkpt lat="44.14545" lon="7.23711">
        <ele>2201.1999511719</ele>
        <time>2019-02-10T13:28:15.000Z</time>
      </trkpt>
      <trkpt lat="44.14546" lon="7.23711">
        <ele>2201.1999511719</ele>
        <time>2019-02-10T13:28:19.000Z</time>
      </trkpt>
      <trkpt lat="44.14546" lon="7.23711">
        <ele>2201.1999511719</ele>
        <time>2019-02-10T13:28:20.000Z</time>
      </trkpt>
      <trkpt lat="44.14546" lon="7.23711">
        <ele>2201.1999511719</ele>
        <time>2019-02-10T13:28:21.000Z</time>
      </trkpt>
      <trkpt lat="44.14546" lon="7.23711">
        <ele>2201.1999511719</ele>
        <time>2019-02-10T13:28:22.000Z</time>
      </trkpt>
      <trkpt lat="44.14546" lon="7.23711">
        <ele>2201.1999511719</ele>
        <time>2019-02-10T13:28:24.000Z</time>
      </trkpt>
      <trkpt lat="44.14546" lon="7.23711">
        <ele>2201.1999511719</ele>
        <time>2019-02-10T13:28:26.000Z</time>
      </trkpt>
      <trkpt lat="44.14546" lon="7.23711">
        <ele>2201.1999511719</ele>
        <time>2019-02-10T13:28:27.000Z</time>
      </trkpt>
      <trkpt lat="44.14546" lon="7.23711">
        <ele>2201.1999511719</ele>
        <time>2019-02-10T13:28:29.000Z</time>
      </trkpt>
      <trkpt lat="44.14546" lon="7.23711">
        <ele>2201.1999511719</ele>
        <time>2019-02-10T13:28:30.000Z</time>
      </trkpt>
      <trkpt lat="44.14547" lon="7.23711">
        <ele>2201.1999511719</ele>
        <time>2019-02-10T13:28:34.000Z</time>
      </trkpt>
      <trkpt lat="44.14548" lon="7.2371">
        <ele>2201.1999511719</ele>
        <time>2019-02-10T13:28:39.000Z</time>
      </trkpt>
      <trkpt lat="44.14547" lon="7.23709">
        <ele>2201.1999511719</ele>
        <time>2019-02-10T13:29:00.000Z</time>
      </trkpt>
      <trkpt lat="44.14547" lon="7.23709">
        <ele>2201.1999511719</ele>
        <time>2019-02-10T13:29:02.000Z</time>
      </trkpt>
      <trkpt lat="44.14547" lon="7.23709">
        <ele>2201.1999511719</ele>
        <time>2019-02-10T13:29:07.000Z</time>
      </trkpt>
      <trkpt lat="44.14547" lon="7.23709">
        <ele>2201.1999511719</ele>
        <time>2019-02-10T13:29:08.000Z</time>
      </trkpt>
      <trkpt lat="44.14547" lon="7.23709">
        <ele>2201.1999511719</ele>
        <time>2019-02-10T13:29:09.000Z</time>
      </trkpt>
      <trkpt lat="44.14546" lon="7.2371">
        <ele>2201.1999511719</ele>
        <time>2019-02-10T13:29:17.000Z</time>
      </trkpt>
      <trkpt lat="44.14546" lon="7.2371">
        <ele>2201.1999511719</ele>
        <time>2019-02-10T13:29:21.000Z</time>
      </trkpt>
      <trkpt lat="44.14546" lon="7.2371">
        <ele>2201.1999511719</ele>
        <time>2019-02-10T13:29:22.000Z</time>
      </trkpt>
      <trkpt lat="44.14545" lon="7.23711">
        <ele>2201.1999511719</ele>
        <time>2019-02-10T13:29:26.000Z</time>
      </trkpt>
      <trkpt lat="44.14545" lon="7.23711">
        <ele>2201.1999511719</ele>
        <time>2019-02-10T13:29:27.000Z</time>
      </trkpt>
      <trkpt lat="44.14546" lon="7.23711">
        <ele>2201.1999511719</ele>
        <time>2019-02-10T13:29:28.000Z</time>
      </trkpt>
      <trkpt lat="44.14545" lon="7.23711">
        <ele>2201.1999511719</ele>
        <time>2019-02-10T13:29:29.000Z</time>
      </trkpt>
      <trkpt lat="44.14546" lon="7.23711">
        <ele>2201.1999511719</ele>
        <time>2019-02-10T13:29:32.000Z</time>
      </trkpt>
      <trkpt lat="44.14548" lon="7.2371">
        <ele>2201.1999511719</ele>
        <time>2019-02-10T13:29:38.000Z</time>
      </trkpt>
      <trkpt lat="44.14548" lon="7.2371">
        <ele>2201.1999511719</ele>
        <time>2019-02-10T13:29:43.000Z</time>
      </trkpt>
      <trkpt lat="44.14549" lon="7.2371">
        <ele>2201.1999511719</ele>
        <time>2019-02-10T13:29:44.000Z</time>
      </trkpt>
      <trkpt lat="44.1455" lon="7.2371">
        <ele>2201.1999511719</ele>
        <time>2019-02-10T13:29:46.000Z</time>
      </trkpt>
      <trkpt lat="44.14551" lon="7.23709">
        <ele>2201.1999511719</ele>
        <time>2019-02-10T13:29:47.000Z</time>
      </trkpt>
      <trkpt lat="44.14553" lon="7.2371">
        <ele>2201.1999511719</ele>
        <time>2019-02-10T13:29:52.000Z</time>
      </trkpt>
      <trkpt lat="44.14552" lon="7.2371">
        <ele>2201.1999511719</ele>
        <time>2019-02-10T13:29:58.000Z</time>
      </trkpt>
      <trkpt lat="44.14551" lon="7.23711">
        <ele>2201.1999511719</ele>
        <time>2019-02-10T13:30:07.000Z</time>
      </trkpt>
      <trkpt lat="44.14551" lon="7.23711">
        <ele>2201.1999511719</ele>
        <time>2019-02-10T13:30:10.000Z</time>
      </trkpt>
      <trkpt lat="44.14551" lon="7.23711">
        <ele>2201.1999511719</ele>
        <time>2019-02-10T13:30:11.000Z</time>
      </trkpt>
      <trkpt lat="44.14551" lon="7.23711">
        <ele>2201.1999511719</ele>
        <time>2019-02-10T13:30:14.000Z</time>
      </trkpt>
      <trkpt lat="44.14551" lon="7.23711">
        <ele>2201.1999511719</ele>
        <time>2019-02-10T13:30:15.000Z</time>
      </trkpt>
      <trkpt lat="44.14551" lon="7.23711">
        <ele>2201.1999511719</ele>
        <time>2019-02-10T13:30:16.000Z</time>
      </trkpt>
      <trkpt lat="44.1455" lon="7.23711">
        <ele>2201.1999511719</ele>
        <time>2019-02-10T13:30:20.000Z</time>
      </trkpt>
      <trkpt lat="44.1455" lon="7.23711">
        <ele>2201.1999511719</ele>
        <time>2019-02-10T13:30:23.000Z</time>
      </trkpt>
      <trkpt lat="44.1455" lon="7.23711">
        <ele>2201.1999511719</ele>
        <time>2019-02-10T13:30:24.000Z</time>
      </trkpt>
      <trkpt lat="44.1455" lon="7.23711">
        <ele>2201.1999511719</ele>
        <time>2019-02-10T13:30:28.000Z</time>
      </trkpt>
      <trkpt lat="44.1455" lon="7.23711">
        <ele>2201.1999511719</ele>
        <time>2019-02-10T13:30:30.000Z</time>
      </trkpt>
      <trkpt lat="44.1455" lon="7.23711">
        <ele>2201.1999511719</ele>
        <time>2019-02-10T13:30:32.000Z</time>
      </trkpt>
      <trkpt lat="44.1455" lon="7.2371">
        <ele>2201.1999511719</ele>
        <time>2019-02-10T13:30:37.000Z</time>
      </trkpt>
      <trkpt lat="44.1455" lon="7.23711">
        <ele>2201.1999511719</ele>
        <time>2019-02-10T13:30:40.000Z</time>
      </trkpt>
      <trkpt lat="44.14549" lon="7.23711">
        <ele>2201.1999511719</ele>
        <time>2019-02-10T13:30:44.000Z</time>
      </trkpt>
      <trkpt lat="44.14548" lon="7.23712">
        <ele>2201.1999511719</ele>
        <time>2019-02-10T13:30:50.000Z</time>
      </trkpt>
      <trkpt lat="44.14547" lon="7.23712">
        <ele>2201.1999511719</ele>
        <time>2019-02-10T13:30:54.000Z</time>
      </trkpt>
      <trkpt lat="44.14546" lon="7.23712">
        <ele>2201.1999511719</ele>
        <time>2019-02-10T13:31:02.000Z</time>
      </trkpt>
      <trkpt lat="44.14546" lon="7.23711">
        <ele>2201.1999511719</ele>
        <time>2019-02-10T13:31:04.000Z</time>
      </trkpt>
      <trkpt lat="44.14546" lon="7.23711">
        <ele>2201.1999511719</ele>
        <time>2019-02-10T13:31:05.000Z</time>
      </trkpt>
      <trkpt lat="44.14546" lon="7.23711">
        <ele>2201.1999511719</ele>
        <time>2019-02-10T13:31:06.000Z</time>
      </trkpt>
      <trkpt lat="44.14546" lon="7.23711">
        <ele>2201.1999511719</ele>
        <time>2019-02-10T13:31:07.000Z</time>
      </trkpt>
      <trkpt lat="44.14546" lon="7.23711">
        <ele>2201.1999511719</ele>
        <time>2019-02-10T13:31:08.000Z</time>
      </trkpt>
      <trkpt lat="44.14546" lon="7.23711">
        <ele>2201.1999511719</ele>
        <time>2019-02-10T13:31:09.000Z</time>
      </trkpt>
      <trkpt lat="44.14547" lon="7.23711">
        <ele>2201.1999511719</ele>
        <time>2019-02-10T13:31:10.000Z</time>
      </trkpt>
      <trkpt lat="44.14547" lon="7.2371">
        <ele>2201.1999511719</ele>
        <time>2019-02-10T13:31:18.000Z</time>
      </trkpt>
      <trkpt lat="44.14549" lon="7.23711">
        <ele>2201.1999511719</ele>
        <time>2019-02-10T13:31:28.000Z</time>
      </trkpt>
      <trkpt lat="44.14549" lon="7.23711">
        <ele>2201.1999511719</ele>
        <time>2019-02-10T13:31:30.000Z</time>
      </trkpt>
      <trkpt lat="44.1455" lon="7.23711">
        <ele>2201.1999511719</ele>
        <time>2019-02-10T13:31:32.000Z</time>
      </trkpt>
      <trkpt lat="44.14549" lon="7.2371">
        <ele>2201.1999511719</ele>
        <time>2019-02-10T13:31:37.000Z</time>
      </trkpt>
      <trkpt lat="44.14549" lon="7.2371">
        <ele>2201.1999511719</ele>
        <time>2019-02-10T13:31:42.000Z</time>
      </trkpt>
      <trkpt lat="44.14549" lon="7.2371">
        <ele>2201.1999511719</ele>
        <time>2019-02-10T13:31:47.000Z</time>
      </trkpt>
      <trkpt lat="44.1455" lon="7.23711">
        <ele>2201.1999511719</ele>
        <time>2019-02-10T13:31:51.000Z</time>
      </trkpt>
      <trkpt lat="44.1455" lon="7.23712">
        <ele>2201.1999511719</ele>
        <time>2019-02-10T13:31:54.000Z</time>
      </trkpt>
      <trkpt lat="44.14548" lon="7.23712">
        <ele>2201.1999511719</ele>
        <time>2019-02-10T13:32:00.000Z</time>
      </trkpt>
      <trkpt lat="44.14548" lon="7.23711">
        <ele>2201.1999511719</ele>
        <time>2019-02-10T13:32:10.000Z</time>
      </trkpt>
      <trkpt lat="44.14547" lon="7.23711">
        <ele>2201.1999511719</ele>
        <time>2019-02-10T13:32:16.000Z</time>
      </trkpt>
      <trkpt lat="44.14547" lon="7.23711">
        <ele>2201.1999511719</ele>
        <time>2019-02-10T13:32:17.000Z</time>
      </trkpt>
      <trkpt lat="44.14546" lon="7.23711">
        <ele>2201.1999511719</ele>
        <time>2019-02-10T13:32:21.000Z</time>
      </trkpt>
      <trkpt lat="44.14546" lon="7.23711">
        <ele>2201.1999511719</ele>
        <time>2019-02-10T13:32:23.000Z</time>
      </trkpt>
      <trkpt lat="44.14546" lon="7.2371">
        <ele>2201.1999511719</ele>
        <time>2019-02-10T13:32:27.000Z</time>
      </trkpt>
      <trkpt lat="44.14546" lon="7.2371">
        <ele>2201.1999511719</ele>
        <time>2019-02-10T13:32:31.000Z</time>
      </trkpt>
      <trkpt lat="44.14546" lon="7.23709">
        <ele>2201.1999511719</ele>
        <time>2019-02-10T13:32:34.000Z</time>
      </trkpt>
      <trkpt lat="44.14546" lon="7.23709">
        <ele>2201.1999511719</ele>
        <time>2019-02-10T13:32:37.000Z</time>
      </trkpt>
      <trkpt lat="44.14547" lon="7.23709">
        <ele>2201.1999511719</ele>
        <time>2019-02-10T13:32:44.000Z</time>
      </trkpt>
      <trkpt lat="44.14547" lon="7.2371">
        <ele>2201.1999511719</ele>
        <time>2019-02-10T13:32:47.000Z</time>
      </trkpt>
      <trkpt lat="44.14547" lon="7.2371">
        <ele>2201.1999511719</ele>
        <time>2019-02-10T13:32:54.000Z</time>
      </trkpt>
      <trkpt lat="44.14547" lon="7.2371">
        <ele>2201.1999511719</ele>
        <time>2019-02-10T13:32:57.000Z</time>
      </trkpt>
      <trkpt lat="44.14547" lon="7.2371">
        <ele>2201.1999511719</ele>
        <time>2019-02-10T13:32:58.000Z</time>
      </trkpt>
      <trkpt lat="44.14546" lon="7.2371">
        <ele>2201.1999511719</ele>
        <time>2019-02-10T13:33:02.000Z</time>
      </trkpt>
      <trkpt lat="44.14546" lon="7.2371">
        <ele>2201.1999511719</ele>
        <time>2019-02-10T13:33:04.000Z</time>
      </trkpt>
      <trkpt lat="44.14546" lon="7.2371">
        <ele>2201.1999511719</ele>
        <time>2019-02-10T13:33:07.000Z</time>
      </trkpt>
      <trkpt lat="44.14546" lon="7.2371">
        <ele>2201.1999511719</ele>
        <time>2019-02-10T13:33:08.000Z</time>
      </trkpt>
      <trkpt lat="44.14544" lon="7.23708">
        <ele>2201.1999511719</ele>
        <time>2019-02-10T13:33:14.000Z</time>
      </trkpt>
      <trkpt lat="44.14543" lon="7.23708">
        <ele>2201.1999511719</ele>
        <time>2019-02-10T13:33:17.000Z</time>
      </trkpt>
      <trkpt lat="44.14543" lon="7.23709">
        <ele>2201.1999511719</ele>
        <time>2019-02-10T13:33:23.000Z</time>
      </trkpt>
      <trkpt lat="44.14543" lon="7.23709">
        <ele>2201.1999511719</ele>
        <time>2019-02-10T13:33:26.000Z</time>
      </trkpt>
      <trkpt lat="44.14543" lon="7.2371">
        <ele>2201.1999511719</ele>
        <time>2019-02-10T13:33:28.000Z</time>
      </trkpt>
      <trkpt lat="44.14544" lon="7.2371">
        <ele>2201.1999511719</ele>
        <time>2019-02-10T13:33:40.000Z</time>
      </trkpt>
      <trkpt lat="44.14544" lon="7.23709">
        <ele>2201.1999511719</ele>
        <time>2019-02-10T13:33:42.000Z</time>
      </trkpt>
      <trkpt lat="44.14544" lon="7.2371">
        <ele>2201.1999511719</ele>
        <time>2019-02-10T13:33:48.000Z</time>
      </trkpt>
      <trkpt lat="44.14545" lon="7.23711">
        <ele>2201.1999511719</ele>
        <time>2019-02-10T13:33:51.000Z</time>
      </trkpt>
      <trkpt lat="44.14546" lon="7.23711">
        <ele>2201.1999511719</ele>
        <time>2019-02-10T13:33:56.000Z</time>
      </trkpt>
      <trkpt lat="44.14546" lon="7.23712">
        <ele>2201.1999511719</ele>
        <time>2019-02-10T13:34:02.000Z</time>
      </trkpt>
      <trkpt lat="44.14546" lon="7.23712">
        <ele>2201.1999511719</ele>
        <time>2019-02-10T13:34:10.000Z</time>
      </trkpt>
      <trkpt lat="44.14546" lon="7.23712">
        <ele>2201.1999511719</ele>
        <time>2019-02-10T13:34:18.000Z</time>
      </trkpt>
      <trkpt lat="44.14545" lon="7.23711">
        <ele>2201.1999511719</ele>
        <time>2019-02-10T13:34:27.000Z</time>
      </trkpt>
      <trkpt lat="44.14545" lon="7.23711">
        <ele>2201.1999511719</ele>
        <time>2019-02-10T13:34:29.000Z</time>
      </trkpt>
      <trkpt lat="44.14544" lon="7.2371">
        <ele>2201.1999511719</ele>
        <time>2019-02-10T13:34:33.000Z</time>
      </trkpt>
      <trkpt lat="44.14545" lon="7.23709">
        <ele>2201.1999511719</ele>
        <time>2019-02-10T13:34:36.000Z</time>
      </trkpt>
      <trkpt lat="44.14545" lon="7.23709">
        <ele>2201.1999511719</ele>
        <time>2019-02-10T13:34:37.000Z</time>
      </trkpt>
      <trkpt lat="44.14545" lon="7.23709">
        <ele>2201.1999511719</ele>
        <time>2019-02-10T13:34:39.000Z</time>
      </trkpt>
      <trkpt lat="44.14545" lon="7.23709">
        <ele>2201.1999511719</ele>
        <time>2019-02-10T13:34:40.000Z</time>
      </trkpt>
      <trkpt lat="44.14545" lon="7.23709">
        <ele>2201.1999511719</ele>
        <time>2019-02-10T13:34:41.000Z</time>
      </trkpt>
      <trkpt lat="44.14545" lon="7.23709">
        <ele>2201.1999511719</ele>
        <time>2019-02-10T13:34:42.000Z</time>
      </trkpt>
      <trkpt lat="44.14545" lon="7.23708">
        <ele>2201.1999511719</ele>
        <time>2019-02-10T13:34:43.000Z</time>
      </trkpt>
      <trkpt lat="44.14544" lon="7.23708">
        <ele>2201.1999511719</ele>
        <time>2019-02-10T13:34:45.000Z</time>
      </trkpt>
      <trkpt lat="44.14544" lon="7.23708">
        <ele>2201.1999511719</ele>
        <time>2019-02-10T13:34:51.000Z</time>
      </trkpt>
      <trkpt lat="44.14544" lon="7.23707">
        <ele>2201.1999511719</ele>
        <time>2019-02-10T13:34:54.000Z</time>
      </trkpt>
      <trkpt lat="44.14544" lon="7.23707">
        <ele>2201.1999511719</ele>
        <time>2019-02-10T13:35:00.000Z</time>
      </trkpt>
      <trkpt lat="44.14545" lon="7.23705">
        <ele>2201.1999511719</ele>
        <time>2019-02-10T13:35:10.000Z</time>
      </trkpt>
      <trkpt lat="44.1454" lon="7.23703">
        <ele>2201.1999511719</ele>
        <time>2019-02-10T13:35:46.000Z</time>
      </trkpt>
      <trkpt lat="44.1454" lon="7.23703">
        <ele>2201.1999511719</ele>
        <time>2019-02-10T13:35:51.000Z</time>
      </trkpt>
      <trkpt lat="44.14541" lon="7.23703">
        <ele>2201.1999511719</ele>
        <time>2019-02-10T13:35:52.000Z</time>
      </trkpt>
      <trkpt lat="44.14543" lon="7.23703">
        <ele>2201.1999511719</ele>
        <time>2019-02-10T13:35:57.000Z</time>
      </trkpt>
      <trkpt lat="44.14543" lon="7.23703">
        <ele>2201.1999511719</ele>
        <time>2019-02-10T13:35:59.000Z</time>
      </trkpt>
      <trkpt lat="44.14544" lon="7.23705">
        <ele>2201.1999511719</ele>
        <time>2019-02-10T13:36:02.000Z</time>
      </trkpt>
      <trkpt lat="44.14544" lon="7.23705">
        <ele>2201.1999511719</ele>
        <time>2019-02-10T13:36:04.000Z</time>
      </trkpt>
      <trkpt lat="44.14544" lon="7.23706">
        <ele>2201.1999511719</ele>
        <time>2019-02-10T13:36:06.000Z</time>
      </trkpt>
      <trkpt lat="44.14544" lon="7.23707">
        <ele>2201.1999511719</ele>
        <time>2019-02-10T13:36:08.000Z</time>
      </trkpt>
      <trkpt lat="44.14545" lon="7.23707">
        <ele>2201.1999511719</ele>
        <time>2019-02-10T13:36:09.000Z</time>
      </trkpt>
      <trkpt lat="44.14546" lon="7.2371">
        <ele>2201.1999511719</ele>
        <time>2019-02-10T13:36:11.000Z</time>
      </trkpt>
      <trkpt lat="44.14546" lon="7.23711">
        <ele>2201.1999511719</ele>
        <time>2019-02-10T13:36:15.000Z</time>
      </trkpt>
      <trkpt lat="44.14546" lon="7.23712">
        <ele>2201.1999511719</ele>
        <time>2019-02-10T13:36:17.000Z</time>
      </trkpt>
      <trkpt lat="44.14546" lon="7.23714">
        <ele>2201.1999511719</ele>
        <time>2019-02-10T13:36:21.000Z</time>
      </trkpt>
      <trkpt lat="44.14544" lon="7.23711">
        <ele>2201.1999511719</ele>
        <time>2019-02-10T13:36:27.000Z</time>
      </trkpt>
      <trkpt lat="44.14544" lon="7.23711">
        <ele>2201.1999511719</ele>
        <time>2019-02-10T13:36:28.000Z</time>
      </trkpt>
      <trkpt lat="44.14543" lon="7.23709">
        <ele>2201.1999511719</ele>
        <time>2019-02-10T13:36:33.000Z</time>
      </trkpt>
      <trkpt lat="44.14543" lon="7.23707">
        <ele>2201.1999511719</ele>
        <time>2019-02-10T13:36:41.000Z</time>
      </trkpt>
      <trkpt lat="44.14542" lon="7.23707">
        <ele>2201.1999511719</ele>
        <time>2019-02-10T13:36:43.000Z</time>
      </trkpt>
      <trkpt lat="44.14542" lon="7.23707">
        <ele>2201.1999511719</ele>
        <time>2019-02-10T13:36:45.000Z</time>
      </trkpt>
      <trkpt lat="44.14541" lon="7.23707">
        <ele>2201.1999511719</ele>
        <time>2019-02-10T13:36:47.000Z</time>
      </trkpt>
      <trkpt lat="44.14542" lon="7.23709">
        <ele>2201.1999511719</ele>
        <time>2019-02-10T13:36:52.000Z</time>
      </trkpt>
      <trkpt lat="44.14542" lon="7.23713">
        <ele>2201.1999511719</ele>
        <time>2019-02-10T13:36:59.000Z</time>
      </trkpt>
      <trkpt lat="44.14543" lon="7.23712">
        <ele>2201.1999511719</ele>
        <time>2019-02-10T13:37:02.000Z</time>
      </trkpt>
      <trkpt lat="44.14544" lon="7.23712">
        <ele>2201.1999511719</ele>
        <time>2019-02-10T13:37:04.000Z</time>
      </trkpt>
      <trkpt lat="44.14546" lon="7.23712">
        <ele>2201.1999511719</ele>
        <time>2019-02-10T13:37:07.000Z</time>
      </trkpt>
      <trkpt lat="44.14546" lon="7.23712">
        <ele>2201.1999511719</ele>
        <time>2019-02-10T13:37:09.000Z</time>
      </trkpt>
      <trkpt lat="44.14546" lon="7.23711">
        <ele>2201.1999511719</ele>
        <time>2019-02-10T13:37:11.000Z</time>
      </trkpt>
      <trkpt lat="44.14545" lon="7.23711">
        <ele>2201.1999511719</ele>
        <time>2019-02-10T13:37:15.000Z</time>
      </trkpt>
      <trkpt lat="44.14545" lon="7.23711">
        <ele>2201.1999511719</ele>
        <time>2019-02-10T13:37:27.000Z</time>
      </trkpt>
      <trkpt lat="44.14545" lon="7.2371">
        <ele>2201.1999511719</ele>
        <time>2019-02-10T13:37:28.000Z</time>
      </trkpt>
      <trkpt lat="44.14547" lon="7.23712">
        <ele>2201.1999511719</ele>
        <time>2019-02-10T13:37:40.000Z</time>
      </trkpt>
      <trkpt lat="44.14546" lon="7.23713">
        <ele>2201.1999511719</ele>
        <time>2019-02-10T13:37:44.000Z</time>
      </trkpt>
      <trkpt lat="44.14546" lon="7.23713">
        <ele>2201.1999511719</ele>
        <time>2019-02-10T13:37:46.000Z</time>
      </trkpt>
      <trkpt lat="44.14546" lon="7.23712">
        <ele>2201.1999511719</ele>
        <time>2019-02-10T13:37:48.000Z</time>
      </trkpt>
      <trkpt lat="44.14545" lon="7.23711">
        <ele>2201.1999511719</ele>
        <time>2019-02-10T13:37:54.000Z</time>
      </trkpt>
      <trkpt lat="44.14544" lon="7.23711">
        <ele>2201.1999511719</ele>
        <time>2019-02-10T13:37:58.000Z</time>
      </trkpt>
      <trkpt lat="44.14546" lon="7.23713">
        <ele>2201.1999511719</ele>
        <time>2019-02-10T13:38:14.000Z</time>
      </trkpt>
      <trkpt lat="44.14545" lon="7.23713">
        <ele>2201.1999511719</ele>
        <time>2019-02-10T13:38:21.000Z</time>
      </trkpt>
      <trkpt lat="44.14545" lon="7.23713">
        <ele>2201.1999511719</ele>
        <time>2019-02-10T13:38:23.000Z</time>
      </trkpt>
      <trkpt lat="44.14544" lon="7.23712">
        <ele>2201.1999511719</ele>
        <time>2019-02-10T13:38:27.000Z</time>
      </trkpt>
      <trkpt lat="44.14544" lon="7.23711">
        <ele>2201.1999511719</ele>
        <time>2019-02-10T13:38:28.000Z</time>
      </trkpt>
      <trkpt lat="44.14545" lon="7.23711">
        <ele>2201.1999511719</ele>
        <time>2019-02-10T13:38:33.000Z</time>
      </trkpt>
      <trkpt lat="44.14545" lon="7.23712">
        <ele>2201.1999511719</ele>
        <time>2019-02-10T13:38:38.000Z</time>
      </trkpt>
      <trkpt lat="44.14545" lon="7.23712">
        <ele>2201.1999511719</ele>
        <time>2019-02-10T13:38:40.000Z</time>
      </trkpt>
      <trkpt lat="44.14545" lon="7.23712">
        <ele>2201.1999511719</ele>
        <time>2019-02-10T13:38:41.000Z</time>
      </trkpt>
      <trkpt lat="44.14545" lon="7.23712">
        <ele>2201.1999511719</ele>
        <time>2019-02-10T13:38:42.000Z</time>
      </trkpt>
      <trkpt lat="44.14545" lon="7.23712">
        <ele>2201.1999511719</ele>
        <time>2019-02-10T13:38:43.000Z</time>
      </trkpt>
      <trkpt lat="44.14545" lon="7.23712">
        <ele>2201.1999511719</ele>
        <time>2019-02-10T13:38:47.000Z</time>
      </trkpt>
      <trkpt lat="44.14545" lon="7.23712">
        <ele>2201.1999511719</ele>
        <time>2019-02-10T13:38:48.000Z</time>
      </trkpt>
      <trkpt lat="44.14544" lon="7.23713">
        <ele>2201.1999511719</ele>
        <time>2019-02-10T13:38:50.000Z</time>
      </trkpt>
      <trkpt lat="44.14545" lon="7.23713">
        <ele>2201.1999511719</ele>
        <time>2019-02-10T13:38:52.000Z</time>
      </trkpt>
      <trkpt lat="44.14544" lon="7.23713">
        <ele>2201.1999511719</ele>
        <time>2019-02-10T13:38:55.000Z</time>
      </trkpt>
      <trkpt lat="44.14544" lon="7.23713">
        <ele>2201.1999511719</ele>
        <time>2019-02-10T13:39:00.000Z</time>
      </trkpt>
      <trkpt lat="44.14544" lon="7.23713">
        <ele>2201.1999511719</ele>
        <time>2019-02-10T13:39:02.000Z</time>
      </trkpt>
      <trkpt lat="44.14543" lon="7.23713">
        <ele>2201.1999511719</ele>
        <time>2019-02-10T13:39:03.000Z</time>
      </trkpt>
      <trkpt lat="44.14543" lon="7.23713">
        <ele>2201.1999511719</ele>
        <time>2019-02-10T13:39:04.000Z</time>
      </trkpt>
      <trkpt lat="44.14541" lon="7.23712">
        <ele>2201.1999511719</ele>
        <time>2019-02-10T13:39:07.000Z</time>
      </trkpt>
      <trkpt lat="44.14541" lon="7.23712">
        <ele>2201.1999511719</ele>
        <time>2019-02-10T13:39:09.000Z</time>
      </trkpt>
      <trkpt lat="44.14541" lon="7.2371">
        <ele>2201.1999511719</ele>
        <time>2019-02-10T13:39:13.000Z</time>
      </trkpt>
      <trkpt lat="44.14541" lon="7.2371">
        <ele>2201.1999511719</ele>
        <time>2019-02-10T13:39:15.000Z</time>
      </trkpt>
      <trkpt lat="44.14542" lon="7.2371">
        <ele>2201.1999511719</ele>
        <time>2019-02-10T13:39:20.000Z</time>
      </trkpt>
      <trkpt lat="44.14542" lon="7.2371">
        <ele>2201.1999511719</ele>
        <time>2019-02-10T13:39:23.000Z</time>
      </trkpt>
      <trkpt lat="44.14541" lon="7.2371">
        <ele>2201.1999511719</ele>
        <time>2019-02-10T13:39:25.000Z</time>
      </trkpt>
      <trkpt lat="44.14542" lon="7.23711">
        <ele>2201.1999511719</ele>
        <time>2019-02-10T13:39:30.000Z</time>
      </trkpt>
      <trkpt lat="44.14542" lon="7.23711">
        <ele>2201.1999511719</ele>
        <time>2019-02-10T13:39:33.000Z</time>
      </trkpt>
      <trkpt lat="44.14541" lon="7.23712">
        <ele>2201.1999511719</ele>
        <time>2019-02-10T13:39:35.000Z</time>
      </trkpt>
      <trkpt lat="44.1454" lon="7.23712">
        <ele>2201.1999511719</ele>
        <time>2019-02-10T13:39:37.000Z</time>
      </trkpt>
      <trkpt lat="44.14539" lon="7.23712">
        <ele>2201.1999511719</ele>
        <time>2019-02-10T13:39:40.000Z</time>
      </trkpt>
      <trkpt lat="44.1454" lon="7.23711">
        <ele>2201.1999511719</ele>
        <time>2019-02-10T13:39:51.000Z</time>
      </trkpt>
      <trkpt lat="44.1454" lon="7.2371">
        <ele>2201.1999511719</ele>
        <time>2019-02-10T13:39:55.000Z</time>
      </trkpt>
      <trkpt lat="44.14536" lon="7.23709">
        <ele>2201.1999511719</ele>
        <time>2019-02-10T13:40:03.000Z</time>
      </trkpt>
      <trkpt lat="44.14537" lon="7.2371">
        <ele>2201.1999511719</ele>
        <time>2019-02-10T13:40:08.000Z</time>
      </trkpt>
      <trkpt lat="44.14537" lon="7.23709">
        <ele>2201.1999511719</ele>
        <time>2019-02-10T13:40:11.000Z</time>
      </trkpt>
      <trkpt lat="44.14537" lon="7.23709">
        <ele>2201.1999511719</ele>
        <time>2019-02-10T13:40:12.000Z</time>
      </trkpt>
      <trkpt lat="44.14537" lon="7.23709">
        <ele>2201.1999511719</ele>
        <time>2019-02-10T13:40:13.000Z</time>
      </trkpt>
      <trkpt lat="44.14538" lon="7.23709">
        <ele>2201.1999511719</ele>
        <time>2019-02-10T13:40:18.000Z</time>
      </trkpt>
      <trkpt lat="44.14538" lon="7.23709">
        <ele>2201.1999511719</ele>
        <time>2019-02-10T13:40:20.000Z</time>
      </trkpt>
      <trkpt lat="44.14538" lon="7.23709">
        <ele>2201.1999511719</ele>
        <time>2019-02-10T13:40:21.000Z</time>
      </trkpt>
      <trkpt lat="44.14538" lon="7.23709">
        <ele>2201.1999511719</ele>
        <time>2019-02-10T13:40:22.000Z</time>
      </trkpt>
      <trkpt lat="44.14538" lon="7.23709">
        <ele>2201.1999511719</ele>
        <time>2019-02-10T13:40:23.000Z</time>
      </trkpt>
      <trkpt lat="44.14538" lon="7.23709">
        <ele>2201.1999511719</ele>
        <time>2019-02-10T13:40:24.000Z</time>
      </trkpt>
      <trkpt lat="44.14538" lon="7.23709">
        <ele>2201.1999511719</ele>
        <time>2019-02-10T13:40:25.000Z</time>
      </trkpt>
      <trkpt lat="44.14539" lon="7.23709">
        <ele>2201.1999511719</ele>
        <time>2019-02-10T13:40:27.000Z</time>
      </trkpt>
      <trkpt lat="44.14539" lon="7.23709">
        <ele>2201.1999511719</ele>
        <time>2019-02-10T13:40:28.000Z</time>
      </trkpt>
      <trkpt lat="44.14539" lon="7.23708">
        <ele>2201.1999511719</ele>
        <time>2019-02-10T13:40:29.000Z</time>
      </trkpt>
      <trkpt lat="44.14539" lon="7.23708">
        <ele>2201.1999511719</ele>
        <time>2019-02-10T13:40:31.000Z</time>
      </trkpt>
      <trkpt lat="44.14539" lon="7.23708">
        <ele>2201.1999511719</ele>
        <time>2019-02-10T13:40:32.000Z</time>
      </trkpt>
      <trkpt lat="44.14539" lon="7.23708">
        <ele>2201.1999511719</ele>
        <time>2019-02-10T13:40:33.000Z</time>
      </trkpt>
      <trkpt lat="44.14539" lon="7.23708">
        <ele>2201.1999511719</ele>
        <time>2019-02-10T13:40:35.000Z</time>
      </trkpt>
      <trkpt lat="44.14539" lon="7.23708">
        <ele>2201.1999511719</ele>
        <time>2019-02-10T13:40:39.000Z</time>
      </trkpt>
      <trkpt lat="44.14539" lon="7.23708">
        <ele>2201.1999511719</ele>
        <time>2019-02-10T13:40:44.000Z</time>
      </trkpt>
      <trkpt lat="44.14539" lon="7.23708">
        <ele>2201.1999511719</ele>
        <time>2019-02-10T13:40:46.000Z</time>
      </trkpt>
      <trkpt lat="44.14539" lon="7.23708">
        <ele>2201.1999511719</ele>
        <time>2019-02-10T13:40:47.000Z</time>
      </trkpt>
      <trkpt lat="44.14541" lon="7.23709">
        <ele>2201.1999511719</ele>
        <time>2019-02-10T13:41:01.000Z</time>
      </trkpt>
      <trkpt lat="44.14544" lon="7.2371">
        <ele>2201.1999511719</ele>
        <time>2019-02-10T13:41:10.000Z</time>
      </trkpt>
      <trkpt lat="44.14544" lon="7.2371">
        <ele>2201.1999511719</ele>
        <time>2019-02-10T13:41:14.000Z</time>
      </trkpt>
      <trkpt lat="44.14543" lon="7.2371">
        <ele>2201.1999511719</ele>
        <time>2019-02-10T13:41:20.000Z</time>
      </trkpt>
      <trkpt lat="44.14543" lon="7.2371">
        <ele>2201.1999511719</ele>
        <time>2019-02-10T13:41:21.000Z</time>
      </trkpt>
      <trkpt lat="44.14542" lon="7.23709">
        <ele>2201.1999511719</ele>
        <time>2019-02-10T13:41:23.000Z</time>
      </trkpt>
      <trkpt lat="44.1454" lon="7.2371">
        <ele>2201.1999511719</ele>
        <time>2019-02-10T13:41:27.000Z</time>
      </trkpt>
      <trkpt lat="44.1454" lon="7.23709">
        <ele>2201.1999511719</ele>
        <time>2019-02-10T13:41:30.000Z</time>
      </trkpt>
      <trkpt lat="44.14539" lon="7.23707">
        <ele>2201.1999511719</ele>
        <time>2019-02-10T13:41:34.000Z</time>
      </trkpt>
      <trkpt lat="44.14539" lon="7.23707">
        <ele>2201.1999511719</ele>
        <time>2019-02-10T13:41:39.000Z</time>
      </trkpt>
      <trkpt lat="44.14539" lon="7.23707">
        <ele>2201.1999511719</ele>
        <time>2019-02-10T13:41:41.000Z</time>
      </trkpt>
      <trkpt lat="44.1454" lon="7.23707">
        <ele>2201.1999511719</ele>
        <time>2019-02-10T13:41:43.000Z</time>
      </trkpt>
      <trkpt lat="44.14541" lon="7.23707">
        <ele>2201.1999511719</ele>
        <time>2019-02-10T13:41:45.000Z</time>
      </trkpt>
      <trkpt lat="44.14542" lon="7.23707">
        <ele>2201.1999511719</ele>
        <time>2019-02-10T13:41:46.000Z</time>
      </trkpt>
      <trkpt lat="44.14542" lon="7.23707">
        <ele>2201.1999511719</ele>
        <time>2019-02-10T13:41:47.000Z</time>
      </trkpt>
      <trkpt lat="44.14542" lon="7.23708">
        <ele>2201.1999511719</ele>
        <time>2019-02-10T13:41:53.000Z</time>
      </trkpt>
      <trkpt lat="44.14543" lon="7.23708">
        <ele>2201.1999511719</ele>
        <time>2019-02-10T13:41:54.000Z</time>
      </trkpt>
      <trkpt lat="44.14544" lon="7.23709">
        <ele>2201.1999511719</ele>
        <time>2019-02-10T13:41:57.000Z</time>
      </trkpt>
      <trkpt lat="44.14544" lon="7.23708">
        <ele>2201.1999511719</ele>
        <time>2019-02-10T13:41:58.000Z</time>
      </trkpt>
      <trkpt lat="44.14541" lon="7.23706">
        <ele>2201.1999511719</ele>
        <time>2019-02-10T13:42:02.000Z</time>
      </trkpt>
      <trkpt lat="44.14542" lon="7.23705">
        <ele>2201.1999511719</ele>
        <time>2019-02-10T13:42:05.000Z</time>
      </trkpt>
      <trkpt lat="44.14542" lon="7.23705">
        <ele>2201.1999511719</ele>
        <time>2019-02-10T13:42:07.000Z</time>
      </trkpt>
      <trkpt lat="44.14542" lon="7.23704">
        <ele>2201.1999511719</ele>
        <time>2019-02-10T13:42:10.000Z</time>
      </trkpt>
      <trkpt lat="44.14543" lon="7.23705">
        <ele>2201.1999511719</ele>
        <time>2019-02-10T13:42:14.000Z</time>
      </trkpt>
      <trkpt lat="44.14543" lon="7.23705">
        <ele>2201.1999511719</ele>
        <time>2019-02-10T13:42:15.000Z</time>
      </trkpt>
      <trkpt lat="44.14543" lon="7.23705">
        <ele>2201.1999511719</ele>
        <time>2019-02-10T13:42:16.000Z</time>
      </trkpt>
      <trkpt lat="44.14543" lon="7.23705">
        <ele>2201.1999511719</ele>
        <time>2019-02-10T13:42:19.000Z</time>
      </trkpt>
      <trkpt lat="44.14541" lon="7.23706">
        <ele>2201.1999511719</ele>
        <time>2019-02-10T13:42:26.000Z</time>
      </trkpt>
      <trkpt lat="44.14541" lon="7.23707">
        <ele>2201.1999511719</ele>
        <time>2019-02-10T13:42:30.000Z</time>
      </trkpt>
      <trkpt lat="44.14541" lon="7.23708">
        <ele>2201.1999511719</ele>
        <time>2019-02-10T13:42:32.000Z</time>
      </trkpt>
      <trkpt lat="44.14542" lon="7.23709">
        <ele>2201.1999511719</ele>
        <time>2019-02-10T13:42:35.000Z</time>
      </trkpt>
      <trkpt lat="44.14542" lon="7.23709">
        <ele>2201.1999511719</ele>
        <time>2019-02-10T13:42:37.000Z</time>
      </trkpt>
      <trkpt lat="44.14542" lon="7.2371">
        <ele>2201.1999511719</ele>
        <time>2019-02-10T13:42:39.000Z</time>
      </trkpt>
      <trkpt lat="44.14542" lon="7.2371">
        <ele>2201.1999511719</ele>
        <time>2019-02-10T13:42:41.000Z</time>
      </trkpt>
      <trkpt lat="44.14542" lon="7.2371">
        <ele>2201.1999511719</ele>
        <time>2019-02-10T13:42:43.000Z</time>
      </trkpt>
      <trkpt lat="44.14542" lon="7.2371">
        <ele>2201.1999511719</ele>
        <time>2019-02-10T13:42:46.000Z</time>
      </trkpt>
      <trkpt lat="44.14541" lon="7.2371">
        <ele>2201.1999511719</ele>
        <time>2019-02-10T13:42:47.000Z</time>
      </trkpt>
      <trkpt lat="44.1454" lon="7.2371">
        <ele>2201.1999511719</ele>
        <time>2019-02-10T13:42:49.000Z</time>
      </trkpt>
      <trkpt lat="44.14539" lon="7.2371">
        <ele>2201.1999511719</ele>
        <time>2019-02-10T13:42:51.000Z</time>
      </trkpt>
      <trkpt lat="44.14539" lon="7.23709">
        <ele>2201.1999511719</ele>
        <time>2019-02-10T13:42:56.000Z</time>
      </trkpt>
      <trkpt lat="44.14539" lon="7.23709">
        <ele>2201.1999511719</ele>
        <time>2019-02-10T13:43:00.000Z</time>
      </trkpt>
      <trkpt lat="44.14539" lon="7.23709">
        <ele>2201.1999511719</ele>
        <time>2019-02-10T13:43:01.000Z</time>
      </trkpt>
      <trkpt lat="44.1454" lon="7.23709">
        <ele>2201.1999511719</ele>
        <time>2019-02-10T13:43:06.000Z</time>
      </trkpt>
      <trkpt lat="44.14541" lon="7.23709">
        <ele>2201.1999511719</ele>
        <time>2019-02-10T13:43:09.000Z</time>
      </trkpt>
      <trkpt lat="44.14541" lon="7.23709">
        <ele>2201.1999511719</ele>
        <time>2019-02-10T13:43:14.000Z</time>
      </trkpt>
      <trkpt lat="44.14541" lon="7.2371">
        <ele>2201.1999511719</ele>
        <time>2019-02-10T13:43:18.000Z</time>
      </trkpt>
      <trkpt lat="44.14541" lon="7.2371">
        <ele>2201.1999511719</ele>
        <time>2019-02-10T13:43:20.000Z</time>
      </trkpt>
      <trkpt lat="44.14541" lon="7.2371">
        <ele>2201.1999511719</ele>
        <time>2019-02-10T13:43:21.000Z</time>
      </trkpt>
      <trkpt lat="44.1454" lon="7.2371">
        <ele>2201.1999511719</ele>
        <time>2019-02-10T13:43:22.000Z</time>
      </trkpt>
      <trkpt lat="44.1454" lon="7.2371">
        <ele>2201.1999511719</ele>
        <time>2019-02-10T13:43:23.000Z</time>
      </trkpt>
      <trkpt lat="44.1454" lon="7.2371">
        <ele>2201.1999511719</ele>
        <time>2019-02-10T13:43:26.000Z</time>
      </trkpt>
      <trkpt lat="44.14541" lon="7.23709">
        <ele>2201.1999511719</ele>
        <time>2019-02-10T13:43:27.000Z</time>
      </trkpt>
      <trkpt lat="44.14541" lon="7.23708">
        <ele>2201.1999511719</ele>
        <time>2019-02-10T13:43:30.000Z</time>
      </trkpt>
      <trkpt lat="44.1454" lon="7.23709">
        <ele>2201.1999511719</ele>
        <time>2019-02-10T13:43:34.000Z</time>
      </trkpt>
      <trkpt lat="44.14537" lon="7.2371">
        <ele>2201.1999511719</ele>
        <time>2019-02-10T13:43:42.000Z</time>
      </trkpt>
      <trkpt lat="44.14535" lon="7.2371">
        <ele>2201.1999511719</ele>
        <time>2019-02-10T13:43:45.000Z</time>
      </trkpt>
      <trkpt lat="44.14538" lon="7.23711">
        <ele>2201.1999511719</ele>
        <time>2019-02-10T13:43:53.000Z</time>
      </trkpt>
      <trkpt lat="44.14539" lon="7.23711">
        <ele>2201.1999511719</ele>
        <time>2019-02-10T13:43:56.000Z</time>
      </trkpt>
      <trkpt lat="44.14539" lon="7.23711">
        <ele>2201.1999511719</ele>
        <time>2019-02-10T13:44:02.000Z</time>
      </trkpt>
      <trkpt lat="44.14538" lon="7.23713">
        <ele>2201.1999511719</ele>
        <time>2019-02-10T13:44:16.000Z</time>
      </trkpt>
      <trkpt lat="44.14538" lon="7.23713">
        <ele>2201.1999511719</ele>
        <time>2019-02-10T13:44:18.000Z</time>
      </trkpt>
      <trkpt lat="44.14538" lon="7.23712">
        <ele>2201.1999511719</ele>
        <time>2019-02-10T13:44:27.000Z</time>
      </trkpt>
      <trkpt lat="44.14539" lon="7.23712">
        <ele>2201.1999511719</ele>
        <time>2019-02-10T13:44:32.000Z</time>
      </trkpt>
      <trkpt lat="44.14538" lon="7.23714">
        <ele>2201.1999511719</ele>
        <time>2019-02-10T13:44:35.000Z</time>
      </trkpt>
      <trkpt lat="44.14537" lon="7.23716">
        <ele>2201.1999511719</ele>
        <time>2019-02-10T13:44:36.000Z</time>
      </trkpt>
      <trkpt lat="44.14536" lon="7.23718">
        <ele>2201.1999511719</ele>
        <time>2019-02-10T13:44:37.000Z</time>
      </trkpt>
      <trkpt lat="44.14536" lon="7.2372">
        <ele>2200.3999023438</ele>
        <time>2019-02-10T13:44:39.000Z</time>
      </trkpt>
      <trkpt lat="44.14536" lon="7.23722">
        <ele>2199.8000488281</ele>
        <time>2019-02-10T13:44:41.000Z</time>
      </trkpt>
      <trkpt lat="44.14535" lon="7.23726">
        <ele>2199.6000976562</ele>
        <time>2019-02-10T13:44:44.000Z</time>
      </trkpt>
      <trkpt lat="44.14535" lon="7.23728">
        <ele>2199.3999023438</ele>
        <time>2019-02-10T13:44:46.000Z</time>
      </trkpt>
      <trkpt lat="44.14535" lon="7.2373">
        <ele>2199</ele>
        <time>2019-02-10T13:44:48.000Z</time>
      </trkpt>
      <trkpt lat="44.14535" lon="7.2373">
        <ele>2198.6000976562</ele>
        <time>2019-02-10T13:44:50.000Z</time>
      </trkpt>
      <trkpt lat="44.14535" lon="7.23731">
        <ele>2198.3999023438</ele>
        <time>2019-02-10T13:44:51.000Z</time>
      </trkpt>
      <trkpt lat="44.14536" lon="7.2373">
        <ele>2198</ele>
        <time>2019-02-10T13:44:53.000Z</time>
      </trkpt>
      <trkpt lat="44.14534" lon="7.23731">
        <ele>2197.3999023438</ele>
        <time>2019-02-10T13:44:57.000Z</time>
      </trkpt>
      <trkpt lat="44.14532" lon="7.23729">
        <ele>2196.8000488281</ele>
        <time>2019-02-10T13:45:16.000Z</time>
      </trkpt>
      <trkpt lat="44.14532" lon="7.23729">
        <ele>2196.6000976562</ele>
        <time>2019-02-10T13:45:20.000Z</time>
      </trkpt>
      <trkpt lat="44.14532" lon="7.23729">
        <ele>2196.8000488281</ele>
        <time>2019-02-10T13:45:27.000Z</time>
      </trkpt>
      <trkpt lat="44.14532" lon="7.23729">
        <ele>2196.8000488281</ele>
        <time>2019-02-10T13:45:28.000Z</time>
      </trkpt>
      <trkpt lat="44.14532" lon="7.23729">
        <ele>2196.8000488281</ele>
        <time>2019-02-10T13:45:29.000Z</time>
      </trkpt>
      <trkpt lat="44.14531" lon="7.23731">
        <ele>2196.6000976562</ele>
        <time>2019-02-10T13:45:32.000Z</time>
      </trkpt>
      <trkpt lat="44.14529" lon="7.23736">
        <ele>2196.3999023438</ele>
        <time>2019-02-10T13:45:34.000Z</time>
      </trkpt>
      <trkpt lat="44.14529" lon="7.23739">
        <ele>2196.1999511719</ele>
        <time>2019-02-10T13:45:35.000Z</time>
      </trkpt>
      <trkpt lat="44.14526" lon="7.23745">
        <ele>2195.1999511719</ele>
        <time>2019-02-10T13:45:38.000Z</time>
      </trkpt>
      <trkpt lat="44.14525" lon="7.23746">
        <ele>2194.6000976562</ele>
        <time>2019-02-10T13:45:40.000Z</time>
      </trkpt>
      <trkpt lat="44.14524" lon="7.23746">
        <ele>2193.8000488281</ele>
        <time>2019-02-10T13:45:42.000Z</time>
      </trkpt>
      <trkpt lat="44.14523" lon="7.23748">
        <ele>2193.3999023438</ele>
        <time>2019-02-10T13:45:44.000Z</time>
      </trkpt>
      <trkpt lat="44.14522" lon="7.2375">
        <ele>2193.1999511719</ele>
        <time>2019-02-10T13:45:45.000Z</time>
      </trkpt>
      <trkpt lat="44.14521" lon="7.23755">
        <ele>2192.8000488281</ele>
        <time>2019-02-10T13:45:47.000Z</time>
      </trkpt>
      <trkpt lat="44.14519" lon="7.23759">
        <ele>2192</ele>
        <time>2019-02-10T13:45:50.000Z</time>
      </trkpt>
      <trkpt lat="44.14519" lon="7.2376">
        <ele>2191.8000488281</ele>
        <time>2019-02-10T13:45:51.000Z</time>
      </trkpt>
      <trkpt lat="44.14515" lon="7.23763">
        <ele>2191.1999511719</ele>
        <time>2019-02-10T13:45:54.000Z</time>
      </trkpt>
      <trkpt lat="44.14508" lon="7.23767">
        <ele>2190.3999023438</ele>
        <time>2019-02-10T13:45:56.000Z</time>
      </trkpt>
      <trkpt lat="44.14498" lon="7.23773">
        <ele>2189.3999023438</ele>
        <time>2019-02-10T13:45:58.000Z</time>
      </trkpt>
      <trkpt lat="44.1449" lon="7.23779">
        <ele>2188.1999511719</ele>
        <time>2019-02-10T13:46:00.000Z</time>
      </trkpt>
      <trkpt lat="44.14485" lon="7.23783">
        <ele>2187.1999511719</ele>
        <time>2019-02-10T13:46:02.000Z</time>
      </trkpt>
      <trkpt lat="44.14475" lon="7.23788">
        <ele>2185.8000488281</ele>
        <time>2019-02-10T13:46:05.000Z</time>
      </trkpt>
      <trkpt lat="44.14465" lon="7.23795">
        <ele>2184.8000488281</ele>
        <time>2019-02-10T13:46:08.000Z</time>
      </trkpt>
      <trkpt lat="44.14462" lon="7.23798">
        <ele>2183.6000976562</ele>
        <time>2019-02-10T13:46:10.000Z</time>
      </trkpt>
      <trkpt lat="44.14461" lon="7.23798">
        <ele>2182.6000976562</ele>
        <time>2019-02-10T13:46:12.000Z</time>
      </trkpt>
      <trkpt lat="44.14459" lon="7.2379">
        <ele>2181.8000488281</ele>
        <time>2019-02-10T13:46:17.000Z</time>
      </trkpt>
      <trkpt lat="44.14463" lon="7.23781">
        <ele>2181.6000976562</ele>
        <time>2019-02-10T13:46:19.000Z</time>
      </trkpt>
      <trkpt lat="44.14469" lon="7.23769">
        <ele>2180.3999023438</ele>
        <time>2019-02-10T13:46:21.000Z</time>
      </trkpt>
      <trkpt lat="44.14472" lon="7.23764">
        <ele>2179.8000488281</ele>
        <time>2019-02-10T13:46:22.000Z</time>
      </trkpt>
      <trkpt lat="44.14473" lon="7.23757">
        <ele>2179.1999511719</ele>
        <time>2019-02-10T13:46:23.000Z</time>
      </trkpt>
      <trkpt lat="44.14475" lon="7.23744">
        <ele>2178.1999511719</ele>
        <time>2019-02-10T13:46:25.000Z</time>
      </trkpt>
      <trkpt lat="44.14477" lon="7.23729">
        <ele>2177</ele>
        <time>2019-02-10T13:46:27.000Z</time>
      </trkpt>
      <trkpt lat="44.14478" lon="7.23718">
        <ele>2175.3999023438</ele>
        <time>2019-02-10T13:46:29.000Z</time>
      </trkpt>
      <trkpt lat="44.14478" lon="7.23713">
        <ele>2174.3999023438</ele>
        <time>2019-02-10T13:46:31.000Z</time>
      </trkpt>
      <trkpt lat="44.14474" lon="7.23711">
        <ele>2173.3999023438</ele>
        <time>2019-02-10T13:46:40.000Z</time>
      </trkpt>
      <trkpt lat="44.14472" lon="7.23714">
        <ele>2173.1999511719</ele>
        <time>2019-02-10T13:46:41.000Z</time>
      </trkpt>
      <trkpt lat="44.14471" lon="7.23717">
        <ele>2172.6000976562</ele>
        <time>2019-02-10T13:46:43.000Z</time>
      </trkpt>
      <trkpt lat="44.14471" lon="7.23718">
        <ele>2172.1999511719</ele>
        <time>2019-02-10T13:46:44.000Z</time>
      </trkpt>
      <trkpt lat="44.14473" lon="7.23722">
        <ele>2171.8000488281</ele>
        <time>2019-02-10T13:47:01.000Z</time>
      </trkpt>
      <trkpt lat="44.14473" lon="7.23722">
        <ele>2172</ele>
        <time>2019-02-10T13:47:02.000Z</time>
      </trkpt>
      <trkpt lat="44.14474" lon="7.23723">
        <ele>2172</ele>
        <time>2019-02-10T13:47:06.000Z</time>
      </trkpt>
      <trkpt lat="44.14473" lon="7.23721">
        <ele>2172.1999511719</ele>
        <time>2019-02-10T13:47:18.000Z</time>
      </trkpt>
      <trkpt lat="44.14473" lon="7.2372">
        <ele>2172.1999511719</ele>
        <time>2019-02-10T13:47:22.000Z</time>
      </trkpt>
      <trkpt lat="44.14473" lon="7.23719">
        <ele>2172.1999511719</ele>
        <time>2019-02-10T13:47:25.000Z</time>
      </trkpt>
      <trkpt lat="44.14473" lon="7.23721">
        <ele>2172.3999023438</ele>
        <time>2019-02-10T13:47:34.000Z</time>
      </trkpt>
      <trkpt lat="44.14472" lon="7.23721">
        <ele>2172.3999023438</ele>
        <time>2019-02-10T13:47:38.000Z</time>
      </trkpt>
      <trkpt lat="44.14472" lon="7.23721">
        <ele>2172.6000976562</ele>
        <time>2019-02-10T13:47:41.000Z</time>
      </trkpt>
      <trkpt lat="44.14472" lon="7.23721">
        <ele>2172.6000976562</ele>
        <time>2019-02-10T13:47:46.000Z</time>
      </trkpt>
      <trkpt lat="44.14472" lon="7.23724">
        <ele>2173</ele>
        <time>2019-02-10T13:47:53.000Z</time>
      </trkpt>
      <trkpt lat="44.14472" lon="7.23724">
        <ele>2173</ele>
        <time>2019-02-10T13:47:54.000Z</time>
      </trkpt>
      <trkpt lat="44.14472" lon="7.23725">
        <ele>2173</ele>
        <time>2019-02-10T13:47:56.000Z</time>
      </trkpt>
      <trkpt lat="44.14473" lon="7.23725">
        <ele>2173</ele>
        <time>2019-02-10T13:47:58.000Z</time>
      </trkpt>
      <trkpt lat="44.14473" lon="7.23726">
        <ele>2173</ele>
        <time>2019-02-10T13:47:59.000Z</time>
      </trkpt>
      <trkpt lat="44.14473" lon="7.23726">
        <ele>2173</ele>
        <time>2019-02-10T13:48:00.000Z</time>
      </trkpt>
      <trkpt lat="44.14473" lon="7.23725">
        <ele>2173</ele>
        <time>2019-02-10T13:48:04.000Z</time>
      </trkpt>
      <trkpt lat="44.14472" lon="7.23725">
        <ele>2173.1999511719</ele>
        <time>2019-02-10T13:48:05.000Z</time>
      </trkpt>
      <trkpt lat="44.14473" lon="7.23725">
        <ele>2173.1999511719</ele>
        <time>2019-02-10T13:48:06.000Z</time>
      </trkpt>
      <trkpt lat="44.14473" lon="7.23724">
        <ele>2173.1999511719</ele>
        <time>2019-02-10T13:48:08.000Z</time>
      </trkpt>
      <trkpt lat="44.14473" lon="7.23723">
        <ele>2173.1999511719</ele>
        <time>2019-02-10T13:48:09.000Z</time>
      </trkpt>
      <trkpt lat="44.14474" lon="7.23721">
        <ele>2173.1999511719</ele>
        <time>2019-02-10T13:48:11.000Z</time>
      </trkpt>
      <trkpt lat="44.14474" lon="7.23721">
        <ele>2173.1999511719</ele>
        <time>2019-02-10T13:48:12.000Z</time>
      </trkpt>
      <trkpt lat="44.14475" lon="7.23722">
        <ele>2173.1999511719</ele>
        <time>2019-02-10T13:48:14.000Z</time>
      </trkpt>
      <trkpt lat="44.14473" lon="7.23722">
        <ele>2173.1999511719</ele>
        <time>2019-02-10T13:48:25.000Z</time>
      </trkpt>
      <trkpt lat="44.14473" lon="7.23723">
        <ele>2173.1999511719</ele>
        <time>2019-02-10T13:48:27.000Z</time>
      </trkpt>
      <trkpt lat="44.14472" lon="7.23724">
        <ele>2173</ele>
        <time>2019-02-10T13:48:29.000Z</time>
      </trkpt>
      <trkpt lat="44.14472" lon="7.23725">
        <ele>2173</ele>
        <time>2019-02-10T13:48:36.000Z</time>
      </trkpt>
      <trkpt lat="44.14472" lon="7.23725">
        <ele>2173</ele>
        <time>2019-02-10T13:48:38.000Z</time>
      </trkpt>
      <trkpt lat="44.14472" lon="7.23725">
        <ele>2173</ele>
        <time>2019-02-10T13:48:39.000Z</time>
      </trkpt>
      <trkpt lat="44.14472" lon="7.23725">
        <ele>2173</ele>
        <time>2019-02-10T13:48:41.000Z</time>
      </trkpt>
      <trkpt lat="44.14472" lon="7.23725">
        <ele>2173</ele>
        <time>2019-02-10T13:48:44.000Z</time>
      </trkpt>
      <trkpt lat="44.14472" lon="7.23725">
        <ele>2173</ele>
        <time>2019-02-10T13:48:45.000Z</time>
      </trkpt>
      <trkpt lat="44.14471" lon="7.23724">
        <ele>2173</ele>
        <time>2019-02-10T13:48:47.000Z</time>
      </trkpt>
      <trkpt lat="44.14469" lon="7.23723">
        <ele>2173</ele>
        <time>2019-02-10T13:48:49.000Z</time>
      </trkpt>
      <trkpt lat="44.14461" lon="7.23717">
        <ele>2172.6000976562</ele>
        <time>2019-02-10T13:48:52.000Z</time>
      </trkpt>
      <trkpt lat="44.14457" lon="7.23715">
        <ele>2172.3999023438</ele>
        <time>2019-02-10T13:48:53.000Z</time>
      </trkpt>
      <trkpt lat="44.14452" lon="7.23714">
        <ele>2171.8000488281</ele>
        <time>2019-02-10T13:48:54.000Z</time>
      </trkpt>
      <trkpt lat="44.14447" lon="7.23714">
        <ele>2171.1999511719</ele>
        <time>2019-02-10T13:48:55.000Z</time>
      </trkpt>
      <trkpt lat="44.14443" lon="7.23713">
        <ele>2170.3999023438</ele>
        <time>2019-02-10T13:48:56.000Z</time>
      </trkpt>
      <trkpt lat="44.14439" lon="7.23711">
        <ele>2169.3999023438</ele>
        <time>2019-02-10T13:48:57.000Z</time>
      </trkpt>
      <trkpt lat="44.14435" lon="7.23708">
        <ele>2168.3999023438</ele>
        <time>2019-02-10T13:48:58.000Z</time>
      </trkpt>
      <trkpt lat="44.14424" lon="7.23702">
        <ele>2166.6000976562</ele>
        <time>2019-02-10T13:49:00.000Z</time>
      </trkpt>
      <trkpt lat="44.14421" lon="7.23698">
        <ele>2165.8000488281</ele>
        <time>2019-02-10T13:49:01.000Z</time>
      </trkpt>
      <trkpt lat="44.14418" lon="7.23693">
        <ele>2165</ele>
        <time>2019-02-10T13:49:02.000Z</time>
      </trkpt>
      <trkpt lat="44.14414" lon="7.23684">
        <ele>2164</ele>
        <time>2019-02-10T13:49:04.000Z</time>
      </trkpt>
      <trkpt lat="44.14409" lon="7.23675">
        <ele>2163</ele>
        <time>2019-02-10T13:49:06.000Z</time>
      </trkpt>
      <trkpt lat="44.14405" lon="7.23665">
        <ele>2162</ele>
        <time>2019-02-10T13:49:08.000Z</time>
      </trkpt>
      <trkpt lat="44.14403" lon="7.23654">
        <ele>2161</ele>
        <time>2019-02-10T13:49:10.000Z</time>
      </trkpt>
      <trkpt lat="44.14402" lon="7.23648">
        <ele>2160.3999023438</ele>
        <time>2019-02-10T13:49:11.000Z</time>
      </trkpt>
      <trkpt lat="44.144" lon="7.23637">
        <ele>2159.1999511719</ele>
        <time>2019-02-10T13:49:13.000Z</time>
      </trkpt>
      <trkpt lat="44.14399" lon="7.23633">
        <ele>2158.3999023438</ele>
        <time>2019-02-10T13:49:15.000Z</time>
      </trkpt>
      <trkpt lat="44.14398" lon="7.23633">
        <ele>2158.1999511719</ele>
        <time>2019-02-10T13:49:16.000Z</time>
      </trkpt>
      <trkpt lat="44.14397" lon="7.23632">
        <ele>2157.8000488281</ele>
        <time>2019-02-10T13:49:18.000Z</time>
      </trkpt>
      <trkpt lat="44.14394" lon="7.23627">
        <ele>2157.3999023438</ele>
        <time>2019-02-10T13:49:22.000Z</time>
      </trkpt>
      <trkpt lat="44.14397" lon="7.23622">
        <ele>2156.8000488281</ele>
        <time>2019-02-10T13:49:25.000Z</time>
      </trkpt>
      <trkpt lat="44.14395" lon="7.23614">
        <ele>2155.6000976562</ele>
        <time>2019-02-10T13:49:28.000Z</time>
      </trkpt>
      <trkpt lat="44.14393" lon="7.23608">
        <ele>2154.6000976562</ele>
        <time>2019-02-10T13:49:30.000Z</time>
      </trkpt>
      <trkpt lat="44.14394" lon="7.23605">
        <ele>2152.8000488281</ele>
        <time>2019-02-10T13:49:32.000Z</time>
      </trkpt>
      <trkpt lat="44.14394" lon="7.23604">
        <ele>2150.8000488281</ele>
        <time>2019-02-10T13:49:34.000Z</time>
      </trkpt>
      <trkpt lat="44.14391" lon="7.23596">
        <ele>2149.8000488281</ele>
        <time>2019-02-10T13:49:37.000Z</time>
      </trkpt>
      <trkpt lat="44.1439" lon="7.23584">
        <ele>2148.1999511719</ele>
        <time>2019-02-10T13:49:40.000Z</time>
      </trkpt>
      <trkpt lat="44.14394" lon="7.23582">
        <ele>2146.3999023438</ele>
        <time>2019-02-10T13:49:42.000Z</time>
      </trkpt>
      <trkpt lat="44.14397" lon="7.23577">
        <ele>2145</ele>
        <time>2019-02-10T13:49:44.000Z</time>
      </trkpt>
      <trkpt lat="44.14393" lon="7.23574">
        <ele>2143.8000488281</ele>
        <time>2019-02-10T13:49:47.000Z</time>
      </trkpt>
      <trkpt lat="44.14386" lon="7.2357">
        <ele>2142.6000976562</ele>
        <time>2019-02-10T13:49:50.000Z</time>
      </trkpt>
      <trkpt lat="44.14381" lon="7.23567">
        <ele>2142.1999511719</ele>
        <time>2019-02-10T13:49:53.000Z</time>
      </trkpt>
      <trkpt lat="44.1438" lon="7.23566">
        <ele>2142</ele>
        <time>2019-02-10T13:49:55.000Z</time>
      </trkpt>
      <trkpt lat="44.1438" lon="7.23566">
        <ele>2141.8000488281</ele>
        <time>2019-02-10T13:50:03.000Z</time>
      </trkpt>
      <trkpt lat="44.14381" lon="7.23565">
        <ele>2142.1999511719</ele>
        <time>2019-02-10T13:50:08.000Z</time>
      </trkpt>
      <trkpt lat="44.14381" lon="7.23564">
        <ele>2142.1999511719</ele>
        <time>2019-02-10T13:50:14.000Z</time>
      </trkpt>
      <trkpt lat="44.14381" lon="7.23563">
        <ele>2142.3999023438</ele>
        <time>2019-02-10T13:50:20.000Z</time>
      </trkpt>
      <trkpt lat="44.1438" lon="7.23563">
        <ele>2142.3999023438</ele>
        <time>2019-02-10T13:50:22.000Z</time>
      </trkpt>
      <trkpt lat="44.1438" lon="7.23562">
        <ele>2142.3999023438</ele>
        <time>2019-02-10T13:50:23.000Z</time>
      </trkpt>
      <trkpt lat="44.14379" lon="7.23561">
        <ele>2142.3999023438</ele>
        <time>2019-02-10T13:50:26.000Z</time>
      </trkpt>
      <trkpt lat="44.14376" lon="7.23557">
        <ele>2142.1999511719</ele>
        <time>2019-02-10T13:50:28.000Z</time>
      </trkpt>
      <trkpt lat="44.14373" lon="7.23554">
        <ele>2142.1999511719</ele>
        <time>2019-02-10T13:50:29.000Z</time>
      </trkpt>
      <trkpt lat="44.1437" lon="7.23552">
        <ele>2141.8000488281</ele>
        <time>2019-02-10T13:50:30.000Z</time>
      </trkpt>
      <trkpt lat="44.14367" lon="7.2355">
        <ele>2141.1999511719</ele>
        <time>2019-02-10T13:50:31.000Z</time>
      </trkpt>
      <trkpt lat="44.14364" lon="7.23549">
        <ele>2140.6000976562</ele>
        <time>2019-02-10T13:50:32.000Z</time>
      </trkpt>
      <trkpt lat="44.14361" lon="7.23549">
        <ele>2139.8000488281</ele>
        <time>2019-02-10T13:50:33.000Z</time>
      </trkpt>
      <trkpt lat="44.1436" lon="7.23548">
        <ele>2139.1999511719</ele>
        <time>2019-02-10T13:50:34.000Z</time>
      </trkpt>
      <trkpt lat="44.14359" lon="7.23548">
        <ele>2138.6000976562</ele>
        <time>2019-02-10T13:50:35.000Z</time>
      </trkpt>
      <trkpt lat="44.14358" lon="7.23548">
        <ele>2138</ele>
        <time>2019-02-10T13:50:36.000Z</time>
      </trkpt>
      <trkpt lat="44.14358" lon="7.23548">
        <ele>2137.3999023438</ele>
        <time>2019-02-10T13:50:39.000Z</time>
      </trkpt>
      <trkpt lat="44.14358" lon="7.23548">
        <ele>2137.1999511719</ele>
        <time>2019-02-10T13:50:51.000Z</time>
      </trkpt>
      <trkpt lat="44.14358" lon="7.23549">
        <ele>2137</ele>
        <time>2019-02-10T13:50:55.000Z</time>
      </trkpt>
      <trkpt lat="44.14357" lon="7.2355">
        <ele>2136.8000488281</ele>
        <time>2019-02-10T13:51:00.000Z</time>
      </trkpt>
      <trkpt lat="44.14356" lon="7.23552">
        <ele>2136.8000488281</ele>
        <time>2019-02-10T13:51:04.000Z</time>
      </trkpt>
      <trkpt lat="44.14356" lon="7.23552">
        <ele>2137</ele>
        <time>2019-02-10T13:51:05.000Z</time>
      </trkpt>
      <trkpt lat="44.14356" lon="7.23552">
        <ele>2137</ele>
        <time>2019-02-10T13:51:06.000Z</time>
      </trkpt>
      <trkpt lat="44.14356" lon="7.23552">
        <ele>2137</ele>
        <time>2019-02-10T13:51:07.000Z</time>
      </trkpt>
      <trkpt lat="44.14356" lon="7.23552">
        <ele>2137</ele>
        <time>2019-02-10T13:51:09.000Z</time>
      </trkpt>
      <trkpt lat="44.14357" lon="7.23552">
        <ele>2137</ele>
        <time>2019-02-10T13:51:17.000Z</time>
      </trkpt>
      <trkpt lat="44.14357" lon="7.23552">
        <ele>2137</ele>
        <time>2019-02-10T13:51:18.000Z</time>
      </trkpt>
      <trkpt lat="44.14357" lon="7.23552">
        <ele>2136.8000488281</ele>
        <time>2019-02-10T13:51:22.000Z</time>
      </trkpt>
      <trkpt lat="44.14357" lon="7.23552">
        <ele>2136.8000488281</ele>
        <time>2019-02-10T13:51:23.000Z</time>
      </trkpt>
      <trkpt lat="44.14357" lon="7.23552">
        <ele>2136.8000488281</ele>
        <time>2019-02-10T13:51:24.000Z</time>
      </trkpt>
      <trkpt lat="44.14357" lon="7.23552">
        <ele>2136.8000488281</ele>
        <time>2019-02-10T13:51:26.000Z</time>
      </trkpt>
      <trkpt lat="44.14357" lon="7.2355">
        <ele>2136.6000976562</ele>
        <time>2019-02-10T13:51:34.000Z</time>
      </trkpt>
      <trkpt lat="44.14357" lon="7.2355">
        <ele>2136.6000976562</ele>
        <time>2019-02-10T13:51:36.000Z</time>
      </trkpt>
      <trkpt lat="44.14357" lon="7.23549">
        <ele>2136.6000976562</ele>
        <time>2019-02-10T13:51:38.000Z</time>
      </trkpt>
      <trkpt lat="44.14357" lon="7.23549">
        <ele>2136.3999023438</ele>
        <time>2019-02-10T13:51:40.000Z</time>
      </trkpt>
      <trkpt lat="44.14356" lon="7.23549">
        <ele>2136.3999023438</ele>
        <time>2019-02-10T13:51:41.000Z</time>
      </trkpt>
      <trkpt lat="44.14356" lon="7.23549">
        <ele>2136.1999511719</ele>
        <time>2019-02-10T13:51:45.000Z</time>
      </trkpt>
      <trkpt lat="44.14356" lon="7.23549">
        <ele>2136.1999511719</ele>
        <time>2019-02-10T13:51:48.000Z</time>
      </trkpt>
      <trkpt lat="44.14356" lon="7.23549">
        <ele>2136.1999511719</ele>
        <time>2019-02-10T13:51:49.000Z</time>
      </trkpt>
      <trkpt lat="44.14357" lon="7.23549">
        <ele>2136.3999023438</ele>
        <time>2019-02-10T13:51:50.000Z</time>
      </trkpt>
      <trkpt lat="44.14356" lon="7.23549">
        <ele>2136.1999511719</ele>
        <time>2019-02-10T13:51:52.000Z</time>
      </trkpt>
      <trkpt lat="44.14357" lon="7.2355">
        <ele>2136.1999511719</ele>
        <time>2019-02-10T13:51:53.000Z</time>
      </trkpt>
      <trkpt lat="44.14357" lon="7.2355">
        <ele>2136.1999511719</ele>
        <time>2019-02-10T13:51:54.000Z</time>
      </trkpt>
      <trkpt lat="44.14356" lon="7.23549">
        <ele>2136</ele>
        <time>2019-02-10T13:51:55.000Z</time>
      </trkpt>
      <trkpt lat="44.14356" lon="7.23549">
        <ele>2136</ele>
        <time>2019-02-10T13:51:56.000Z</time>
      </trkpt>
      <trkpt lat="44.14354" lon="7.23549">
        <ele>2136</ele>
        <time>2019-02-10T13:51:57.000Z</time>
      </trkpt>
      <trkpt lat="44.1435" lon="7.23549">
        <ele>2135.8000488281</ele>
        <time>2019-02-10T13:51:59.000Z</time>
      </trkpt>
      <trkpt lat="44.14343" lon="7.23551">
        <ele>2135.3999023438</ele>
        <time>2019-02-10T13:52:01.000Z</time>
      </trkpt>
      <trkpt lat="44.14338" lon="7.23551">
        <ele>2134.1999511719</ele>
        <time>2019-02-10T13:52:04.000Z</time>
      </trkpt>
      <trkpt lat="44.14338" lon="7.23551">
        <ele>2133.8000488281</ele>
        <time>2019-02-10T13:52:05.000Z</time>
      </trkpt>
      <trkpt lat="44.14338" lon="7.23551">
        <ele>2133.3999023438</ele>
        <time>2019-02-10T13:52:06.000Z</time>
      </trkpt>
      <trkpt lat="44.14338" lon="7.23552">
        <ele>2133</ele>
        <time>2019-02-10T13:52:07.000Z</time>
      </trkpt>
      <trkpt lat="44.14333" lon="7.23552">
        <ele>2132.3999023438</ele>
        <time>2019-02-10T13:52:10.000Z</time>
      </trkpt>
      <trkpt lat="44.14333" lon="7.23551">
        <ele>2132.1999511719</ele>
        <time>2019-02-10T13:52:11.000Z</time>
      </trkpt>
      <trkpt lat="44.14333" lon="7.23552">
        <ele>2131.8000488281</ele>
        <time>2019-02-10T13:52:12.000Z</time>
      </trkpt>
      <trkpt lat="44.14333" lon="7.23552">
        <ele>2131.3999023438</ele>
        <time>2019-02-10T13:52:13.000Z</time>
      </trkpt>
      <trkpt lat="44.14333" lon="7.23552">
        <ele>2131.1999511719</ele>
        <time>2019-02-10T13:52:14.000Z</time>
      </trkpt>
      <trkpt lat="44.14328" lon="7.23552">
        <ele>2131</ele>
        <time>2019-02-10T13:52:17.000Z</time>
      </trkpt>
      <trkpt lat="44.14326" lon="7.23551">
        <ele>2130.8000488281</ele>
        <time>2019-02-10T13:52:18.000Z</time>
      </trkpt>
      <trkpt lat="44.14319" lon="7.23552">
        <ele>2129.6000976562</ele>
        <time>2019-02-10T13:52:21.000Z</time>
      </trkpt>
      <trkpt lat="44.14308" lon="7.23554">
        <ele>2128.3999023438</ele>
        <time>2019-02-10T13:52:24.000Z</time>
      </trkpt>
      <trkpt lat="44.14305" lon="7.23555">
        <ele>2128.1999511719</ele>
        <time>2019-02-10T13:52:25.000Z</time>
      </trkpt>
      <trkpt lat="44.14304" lon="7.23555">
        <ele>2127.1999511719</ele>
        <time>2019-02-10T13:52:27.000Z</time>
      </trkpt>
      <trkpt lat="44.14304" lon="7.23555">
        <ele>2126.6000976562</ele>
        <time>2019-02-10T13:52:28.000Z</time>
      </trkpt>
      <trkpt lat="44.14303" lon="7.23555">
        <ele>2126</ele>
        <time>2019-02-10T13:52:29.000Z</time>
      </trkpt>
      <trkpt lat="44.14302" lon="7.23554">
        <ele>2125.6000976562</ele>
        <time>2019-02-10T13:52:31.000Z</time>
      </trkpt>
      <trkpt lat="44.143" lon="7.23554">
        <ele>2125</ele>
        <time>2019-02-10T13:52:36.000Z</time>
      </trkpt>
      <trkpt lat="44.14299" lon="7.23554">
        <ele>2124.8000488281</ele>
        <time>2019-02-10T13:52:38.000Z</time>
      </trkpt>
      <trkpt lat="44.14297" lon="7.23555">
        <ele>2124.8000488281</ele>
        <time>2019-02-10T13:52:39.000Z</time>
      </trkpt>
      <trkpt lat="44.14294" lon="7.23555">
        <ele>2124.6000976562</ele>
        <time>2019-02-10T13:52:41.000Z</time>
      </trkpt>
      <trkpt lat="44.14292" lon="7.23555">
        <ele>2124.3999023438</ele>
        <time>2019-02-10T13:52:42.000Z</time>
      </trkpt>
      <trkpt lat="44.14285" lon="7.23551">
        <ele>2123.8000488281</ele>
        <time>2019-02-10T13:52:45.000Z</time>
      </trkpt>
      <trkpt lat="44.14279" lon="7.23549">
        <ele>2123</ele>
        <time>2019-02-10T13:52:47.000Z</time>
      </trkpt>
      <trkpt lat="44.14277" lon="7.23548">
        <ele>2122.3999023438</ele>
        <time>2019-02-10T13:52:48.000Z</time>
      </trkpt>
      <trkpt lat="44.14265" lon="7.2354">
        <ele>2121.3999023438</ele>
        <time>2019-02-10T13:52:51.000Z</time>
      </trkpt>
      <trkpt lat="44.14255" lon="7.23535">
        <ele>2120.1999511719</ele>
        <time>2019-02-10T13:52:53.000Z</time>
      </trkpt>
      <trkpt lat="44.14251" lon="7.23533">
        <ele>2119.3999023438</ele>
        <time>2019-02-10T13:52:54.000Z</time>
      </trkpt>
      <trkpt lat="44.14247" lon="7.23532">
        <ele>2118.6000976562</ele>
        <time>2019-02-10T13:52:55.000Z</time>
      </trkpt>
      <trkpt lat="44.14242" lon="7.23529">
        <ele>2117.1999511719</ele>
        <time>2019-02-10T13:52:57.000Z</time>
      </trkpt>
      <trkpt lat="44.14237" lon="7.23527">
        <ele>2115.8000488281</ele>
        <time>2019-02-10T13:52:59.000Z</time>
      </trkpt>
      <trkpt lat="44.14233" lon="7.23527">
        <ele>2114.3999023438</ele>
        <time>2019-02-10T13:53:01.000Z</time>
      </trkpt>
      <trkpt lat="44.14233" lon="7.23527">
        <ele>2114</ele>
        <time>2019-02-10T13:53:02.000Z</time>
      </trkpt>
      <trkpt lat="44.14233" lon="7.23527">
        <ele>2113.3999023438</ele>
        <time>2019-02-10T13:53:03.000Z</time>
      </trkpt>
      <trkpt lat="44.14231" lon="7.23527">
        <ele>2112.3999023438</ele>
        <time>2019-02-10T13:53:07.000Z</time>
      </trkpt>
      <trkpt lat="44.1423" lon="7.23526">
        <ele>2112</ele>
        <time>2019-02-10T13:53:19.000Z</time>
      </trkpt>
      <trkpt lat="44.14229" lon="7.23525">
        <ele>2112.1999511719</ele>
        <time>2019-02-10T13:53:22.000Z</time>
      </trkpt>
      <trkpt lat="44.14229" lon="7.23524">
        <ele>2112.1999511719</ele>
        <time>2019-02-10T13:53:27.000Z</time>
      </trkpt>
      <trkpt lat="44.14229" lon="7.23523">
        <ele>2112.1999511719</ele>
        <time>2019-02-10T13:53:29.000Z</time>
      </trkpt>
      <trkpt lat="44.14228" lon="7.23523">
        <ele>2112.3999023438</ele>
        <time>2019-02-10T13:53:32.000Z</time>
      </trkpt>
      <trkpt lat="44.14228" lon="7.23523">
        <ele>2112.6000976562</ele>
        <time>2019-02-10T13:53:41.000Z</time>
      </trkpt>
      <trkpt lat="44.14228" lon="7.23523">
        <ele>2112.8000488281</ele>
        <time>2019-02-10T13:53:43.000Z</time>
      </trkpt>
      <trkpt lat="44.14228" lon="7.23523">
        <ele>2112.8000488281</ele>
        <time>2019-02-10T13:53:47.000Z</time>
      </trkpt>
      <trkpt lat="44.14229" lon="7.23523">
        <ele>2113.3999023438</ele>
        <time>2019-02-10T13:53:58.000Z</time>
      </trkpt>
      <trkpt lat="44.14229" lon="7.23523">
        <ele>2113.3999023438</ele>
        <time>2019-02-10T13:53:59.000Z</time>
      </trkpt>
      <trkpt lat="44.14229" lon="7.23523">
        <ele>2113.3999023438</ele>
        <time>2019-02-10T13:54:01.000Z</time>
      </trkpt>
      <trkpt lat="44.1423" lon="7.23524">
        <ele>2113.8000488281</ele>
        <time>2019-02-10T13:54:03.000Z</time>
      </trkpt>
      <trkpt lat="44.1423" lon="7.23524">
        <ele>2113.8000488281</ele>
        <time>2019-02-10T13:54:04.000Z</time>
      </trkpt>
      <trkpt lat="44.1423" lon="7.23524">
        <ele>2114</ele>
        <time>2019-02-10T13:54:05.000Z</time>
      </trkpt>
      <trkpt lat="44.14232" lon="7.23526">
        <ele>2114.3999023438</ele>
        <time>2019-02-10T13:54:08.000Z</time>
      </trkpt>
      <trkpt lat="44.14233" lon="7.23526">
        <ele>2114.3999023438</ele>
        <time>2019-02-10T13:54:10.000Z</time>
      </trkpt>
      <trkpt lat="44.14233" lon="7.23526">
        <ele>2114.3999023438</ele>
        <time>2019-02-10T13:54:11.000Z</time>
      </trkpt>
      <trkpt lat="44.14234" lon="7.23528">
        <ele>2114.3999023438</ele>
        <time>2019-02-10T13:54:14.000Z</time>
      </trkpt>
      <trkpt lat="44.14233" lon="7.23526">
        <ele>2114.6000976562</ele>
        <time>2019-02-10T13:54:22.000Z</time>
      </trkpt>
      <trkpt lat="44.14233" lon="7.23528">
        <ele>2114.8000488281</ele>
        <time>2019-02-10T13:54:31.000Z</time>
      </trkpt>
      <trkpt lat="44.14233" lon="7.23529">
        <ele>2114.8000488281</ele>
        <time>2019-02-10T13:54:32.000Z</time>
      </trkpt>
      <trkpt lat="44.14234" lon="7.2353">
        <ele>2114.8000488281</ele>
        <time>2019-02-10T13:54:34.000Z</time>
      </trkpt>
      <trkpt lat="44.1423" lon="7.23531">
        <ele>2115</ele>
        <time>2019-02-10T13:54:48.000Z</time>
      </trkpt>
      <trkpt lat="44.14231" lon="7.23531">
        <ele>2115</ele>
        <time>2019-02-10T13:54:53.000Z</time>
      </trkpt>
      <trkpt lat="44.14231" lon="7.23531">
        <ele>2115</ele>
        <time>2019-02-10T13:54:55.000Z</time>
      </trkpt>
      <trkpt lat="44.14231" lon="7.2353">
        <ele>2115</ele>
        <time>2019-02-10T13:54:58.000Z</time>
      </trkpt>
      <trkpt lat="44.1423" lon="7.23528">
        <ele>2114.8000488281</ele>
        <time>2019-02-10T13:55:00.000Z</time>
      </trkpt>
      <trkpt lat="44.1423" lon="7.23528">
        <ele>2114.8000488281</ele>
        <time>2019-02-10T13:55:01.000Z</time>
      </trkpt>
      <trkpt lat="44.1423" lon="7.23528">
        <ele>2114.8000488281</ele>
        <time>2019-02-10T13:55:02.000Z</time>
      </trkpt>
      <trkpt lat="44.14229" lon="7.23528">
        <ele>2114.8000488281</ele>
        <time>2019-02-10T13:55:03.000Z</time>
      </trkpt>
      <trkpt lat="44.14229" lon="7.23528">
        <ele>2114.6000976562</ele>
        <time>2019-02-10T13:55:05.000Z</time>
      </trkpt>
      <trkpt lat="44.14229" lon="7.23527">
        <ele>2114.6000976562</ele>
        <time>2019-02-10T13:55:06.000Z</time>
      </trkpt>
      <trkpt lat="44.14229" lon="7.23527">
        <ele>2114.6000976562</ele>
        <time>2019-02-10T13:55:09.000Z</time>
      </trkpt>
      <trkpt lat="44.14229" lon="7.23527">
        <ele>2114.6000976562</ele>
        <time>2019-02-10T13:55:13.000Z</time>
      </trkpt>
      <trkpt lat="44.14229" lon="7.23527">
        <ele>2114.6000976562</ele>
        <time>2019-02-10T13:55:14.000Z</time>
      </trkpt>
      <trkpt lat="44.14229" lon="7.23527">
        <ele>2114.6000976562</ele>
        <time>2019-02-10T13:55:18.000Z</time>
      </trkpt>
      <trkpt lat="44.14229" lon="7.23526">
        <ele>2114.6000976562</ele>
        <time>2019-02-10T13:55:19.000Z</time>
      </trkpt>
      <trkpt lat="44.14229" lon="7.23526">
        <ele>2114.6000976562</ele>
        <time>2019-02-10T13:55:21.000Z</time>
      </trkpt>
      <trkpt lat="44.14229" lon="7.23526">
        <ele>2114.6000976562</ele>
        <time>2019-02-10T13:55:23.000Z</time>
      </trkpt>
      <trkpt lat="44.14229" lon="7.23526">
        <ele>2114.6000976562</ele>
        <time>2019-02-10T13:55:24.000Z</time>
      </trkpt>
      <trkpt lat="44.14229" lon="7.23525">
        <ele>2114.6000976562</ele>
        <time>2019-02-10T13:55:28.000Z</time>
      </trkpt>
      <trkpt lat="44.14229" lon="7.23525">
        <ele>2114.6000976562</ele>
        <time>2019-02-10T13:55:29.000Z</time>
      </trkpt>
      <trkpt lat="44.14229" lon="7.23525">
        <ele>2114.6000976562</ele>
        <time>2019-02-10T13:55:33.000Z</time>
      </trkpt>
      <trkpt lat="44.14229" lon="7.23526">
        <ele>2114.6000976562</ele>
        <time>2019-02-10T13:55:39.000Z</time>
      </trkpt>
      <trkpt lat="44.14227" lon="7.23525">
        <ele>2114.6000976562</ele>
        <time>2019-02-10T13:55:43.000Z</time>
      </trkpt>
      <trkpt lat="44.14227" lon="7.23524">
        <ele>2114.6000976562</ele>
        <time>2019-02-10T13:55:44.000Z</time>
      </trkpt>
      <trkpt lat="44.14226" lon="7.23524">
        <ele>2114.6000976562</ele>
        <time>2019-02-10T13:55:47.000Z</time>
      </trkpt>
      <trkpt lat="44.14226" lon="7.23523">
        <ele>2114.6000976562</ele>
        <time>2019-02-10T13:55:49.000Z</time>
      </trkpt>
      <trkpt lat="44.14227" lon="7.23522">
        <ele>2114.6000976562</ele>
        <time>2019-02-10T13:55:51.000Z</time>
      </trkpt>
      <trkpt lat="44.14227" lon="7.23521">
        <ele>2114.6000976562</ele>
        <time>2019-02-10T13:55:56.000Z</time>
      </trkpt>
      <trkpt lat="44.14227" lon="7.23521">
        <ele>2114.6000976562</ele>
        <time>2019-02-10T13:56:00.000Z</time>
      </trkpt>
      <trkpt lat="44.14227" lon="7.23521">
        <ele>2114.6000976562</ele>
        <time>2019-02-10T13:56:02.000Z</time>
      </trkpt>
      <trkpt lat="44.14219" lon="7.23514">
        <ele>2110</ele>
        <time>2019-02-10T13:56:10.000Z</time>
      </trkpt>
      <trkpt lat="44.14215" lon="7.2351">
        <ele>2108.8000488281</ele>
        <time>2019-02-10T13:56:11.000Z</time>
      </trkpt>
      <trkpt lat="44.14206" lon="7.235">
        <ele>2107.3999023438</ele>
        <time>2019-02-10T13:56:13.000Z</time>
      </trkpt>
      <trkpt lat="44.142" lon="7.23495">
        <ele>2106.6000976562</ele>
        <time>2019-02-10T13:56:14.000Z</time>
      </trkpt>
      <trkpt lat="44.14196" lon="7.23492">
        <ele>2106.3999023438</ele>
        <time>2019-02-10T13:56:15.000Z</time>
      </trkpt>
      <trkpt lat="44.14191" lon="7.2349">
        <ele>2106.6000976562</ele>
        <time>2019-02-10T13:56:18.000Z</time>
      </trkpt>
      <trkpt lat="44.1419" lon="7.2349">
        <ele>2106.6000976562</ele>
        <time>2019-02-10T13:56:20.000Z</time>
      </trkpt>
      <trkpt lat="44.14188" lon="7.23489">
        <ele>2106.8000488281</ele>
        <time>2019-02-10T13:56:22.000Z</time>
      </trkpt>
      <trkpt lat="44.14187" lon="7.23487">
        <ele>2106.6000976562</ele>
        <time>2019-02-10T13:56:23.000Z</time>
      </trkpt>
      <trkpt lat="44.14177" lon="7.23484">
        <ele>2106.1999511719</ele>
        <time>2019-02-10T13:56:27.000Z</time>
      </trkpt>
      <trkpt lat="44.14174" lon="7.23484">
        <ele>2105.8000488281</ele>
        <time>2019-02-10T13:56:36.000Z</time>
      </trkpt>
      <trkpt lat="44.14169" lon="7.23487">
        <ele>2105.6000976562</ele>
        <time>2019-02-10T13:56:51.000Z</time>
      </trkpt>
      <trkpt lat="44.1417" lon="7.23487">
        <ele>2105.6000976562</ele>
        <time>2019-02-10T13:56:54.000Z</time>
      </trkpt>
      <trkpt lat="44.14169" lon="7.23486">
        <ele>2105.8000488281</ele>
        <time>2019-02-10T13:57:06.000Z</time>
      </trkpt>
      <trkpt lat="44.14169" lon="7.23486">
        <ele>2105.8000488281</ele>
        <time>2019-02-10T13:57:07.000Z</time>
      </trkpt>
      <trkpt lat="44.14169" lon="7.23486">
        <ele>2105.6000976562</ele>
        <time>2019-02-10T13:57:08.000Z</time>
      </trkpt>
      <trkpt lat="44.1417" lon="7.23485">
        <ele>2105.3999023438</ele>
        <time>2019-02-10T13:57:12.000Z</time>
      </trkpt>
      <trkpt lat="44.1417" lon="7.23485">
        <ele>2105.3999023438</ele>
        <time>2019-02-10T13:57:13.000Z</time>
      </trkpt>
      <trkpt lat="44.14171" lon="7.23484">
        <ele>2105.3999023438</ele>
        <time>2019-02-10T13:57:19.000Z</time>
      </trkpt>
      <trkpt lat="44.14171" lon="7.23484">
        <ele>2105.3999023438</ele>
        <time>2019-02-10T13:57:20.000Z</time>
      </trkpt>
      <trkpt lat="44.14171" lon="7.23484">
        <ele>2105.1999511719</ele>
        <time>2019-02-10T13:57:37.000Z</time>
      </trkpt>
      <trkpt lat="44.14171" lon="7.23484">
        <ele>2105.1999511719</ele>
        <time>2019-02-10T13:57:38.000Z</time>
      </trkpt>
      <trkpt lat="44.1417" lon="7.23484">
        <ele>2105.1999511719</ele>
        <time>2019-02-10T13:57:40.000Z</time>
      </trkpt>
      <trkpt lat="44.1417" lon="7.23484">
        <ele>2105.1999511719</ele>
        <time>2019-02-10T13:57:43.000Z</time>
      </trkpt>
      <trkpt lat="44.1417" lon="7.23484">
        <ele>2105.1999511719</ele>
        <time>2019-02-10T13:57:50.000Z</time>
      </trkpt>
      <trkpt lat="44.14171" lon="7.23485">
        <ele>2105</ele>
        <time>2019-02-10T13:57:53.000Z</time>
      </trkpt>
      <trkpt lat="44.14171" lon="7.23487">
        <ele>2105.1999511719</ele>
        <time>2019-02-10T13:57:59.000Z</time>
      </trkpt>
      <trkpt lat="44.1417" lon="7.23488">
        <ele>2105</ele>
        <time>2019-02-10T13:58:05.000Z</time>
      </trkpt>
      <trkpt lat="44.1417" lon="7.23488">
        <ele>2105</ele>
        <time>2019-02-10T13:58:06.000Z</time>
      </trkpt>
      <trkpt lat="44.14169" lon="7.23488">
        <ele>2105</ele>
        <time>2019-02-10T13:58:09.000Z</time>
      </trkpt>
      <trkpt lat="44.14169" lon="7.23487">
        <ele>2105</ele>
        <time>2019-02-10T13:58:10.000Z</time>
      </trkpt>
      <trkpt lat="44.14168" lon="7.23487">
        <ele>2105</ele>
        <time>2019-02-10T13:58:11.000Z</time>
      </trkpt>
      <trkpt lat="44.14167" lon="7.23487">
        <ele>2105</ele>
        <time>2019-02-10T13:58:13.000Z</time>
      </trkpt>
      <trkpt lat="44.14168" lon="7.23487">
        <ele>2105</ele>
        <time>2019-02-10T13:58:15.000Z</time>
      </trkpt>
      <trkpt lat="44.14168" lon="7.23487">
        <ele>2104.8000488281</ele>
        <time>2019-02-10T13:58:19.000Z</time>
      </trkpt>
      <trkpt lat="44.14167" lon="7.23488">
        <ele>2105</ele>
        <time>2019-02-10T13:58:22.000Z</time>
      </trkpt>
      <trkpt lat="44.14166" lon="7.23487">
        <ele>2105</ele>
        <time>2019-02-10T13:58:24.000Z</time>
      </trkpt>
      <trkpt lat="44.14163" lon="7.23486">
        <ele>2105</ele>
        <time>2019-02-10T13:58:26.000Z</time>
      </trkpt>
      <trkpt lat="44.14161" lon="7.23486">
        <ele>2105</ele>
        <time>2019-02-10T13:58:27.000Z</time>
      </trkpt>
      <trkpt lat="44.14159" lon="7.23486">
        <ele>2105</ele>
        <time>2019-02-10T13:58:28.000Z</time>
      </trkpt>
      <trkpt lat="44.14149" lon="7.23486">
        <ele>2104.6000976562</ele>
        <time>2019-02-10T13:58:32.000Z</time>
      </trkpt>
      <trkpt lat="44.14142" lon="7.23487">
        <ele>2104</ele>
        <time>2019-02-10T13:58:35.000Z</time>
      </trkpt>
      <trkpt lat="44.1413" lon="7.23488">
        <ele>2103.3999023438</ele>
        <time>2019-02-10T13:58:41.000Z</time>
      </trkpt>
      <trkpt lat="44.14124" lon="7.23489">
        <ele>2103</ele>
        <time>2019-02-10T13:58:43.000Z</time>
      </trkpt>
      <trkpt lat="44.14114" lon="7.23488">
        <ele>2101.6000976562</ele>
        <time>2019-02-10T13:58:46.000Z</time>
      </trkpt>
      <trkpt lat="44.14104" lon="7.23476">
        <ele>2100.3999023438</ele>
        <time>2019-02-10T13:58:49.000Z</time>
      </trkpt>
      <trkpt lat="44.14097" lon="7.23459">
        <ele>2099</ele>
        <time>2019-02-10T13:58:52.000Z</time>
      </trkpt>
      <trkpt lat="44.14084" lon="7.23444">
        <ele>2097.6000976562</ele>
        <time>2019-02-10T13:58:55.000Z</time>
      </trkpt>
      <trkpt lat="44.14078" lon="7.23432">
        <ele>2095.8000488281</ele>
        <time>2019-02-10T13:58:57.000Z</time>
      </trkpt>
      <trkpt lat="44.14071" lon="7.23418">
        <ele>2094.1999511719</ele>
        <time>2019-02-10T13:58:59.000Z</time>
      </trkpt>
      <trkpt lat="44.14064" lon="7.23404">
        <ele>2093</ele>
        <time>2019-02-10T13:59:01.000Z</time>
      </trkpt>
      <trkpt lat="44.14056" lon="7.23393">
        <ele>2091.6000976562</ele>
        <time>2019-02-10T13:59:03.000Z</time>
      </trkpt>
      <trkpt lat="44.14048" lon="7.23381">
        <ele>2090.1999511719</ele>
        <time>2019-02-10T13:59:05.000Z</time>
      </trkpt>
      <trkpt lat="44.14044" lon="7.23374">
        <ele>2089.3999023438</ele>
        <time>2019-02-10T13:59:06.000Z</time>
      </trkpt>
      <trkpt lat="44.14041" lon="7.23366">
        <ele>2088.8000488281</ele>
        <time>2019-02-10T13:59:07.000Z</time>
      </trkpt>
      <trkpt lat="44.14039" lon="7.23357">
        <ele>2088</ele>
        <time>2019-02-10T13:59:08.000Z</time>
      </trkpt>
      <trkpt lat="44.14037" lon="7.23349">
        <ele>2087.1999511719</ele>
        <time>2019-02-10T13:59:09.000Z</time>
      </trkpt>
      <trkpt lat="44.14034" lon="7.23342">
        <ele>2086.3999023438</ele>
        <time>2019-02-10T13:59:10.000Z</time>
      </trkpt>
      <trkpt lat="44.14031" lon="7.23336">
        <ele>2085.8000488281</ele>
        <time>2019-02-10T13:59:11.000Z</time>
      </trkpt>
      <trkpt lat="44.14027" lon="7.23334">
        <ele>2085.1999511719</ele>
        <time>2019-02-10T13:59:12.000Z</time>
      </trkpt>
      <trkpt lat="44.14019" lon="7.23336">
        <ele>2084.3999023438</ele>
        <time>2019-02-10T13:59:14.000Z</time>
      </trkpt>
      <trkpt lat="44.14015" lon="7.23341">
        <ele>2084</ele>
        <time>2019-02-10T13:59:15.000Z</time>
      </trkpt>
      <trkpt lat="44.14011" lon="7.23345">
        <ele>2083.6000976562</ele>
        <time>2019-02-10T13:59:16.000Z</time>
      </trkpt>
      <trkpt lat="44.14008" lon="7.23349">
        <ele>2083.1999511719</ele>
        <time>2019-02-10T13:59:17.000Z</time>
      </trkpt>
      <trkpt lat="44.14007" lon="7.23352">
        <ele>2083</ele>
        <time>2019-02-10T13:59:18.000Z</time>
      </trkpt>
      <trkpt lat="44.14006" lon="7.23355">
        <ele>2082.8000488281</ele>
        <time>2019-02-10T13:59:20.000Z</time>
      </trkpt>
      <trkpt lat="44.14005" lon="7.23356">
        <ele>2082.8000488281</ele>
        <time>2019-02-10T13:59:22.000Z</time>
      </trkpt>
      <trkpt lat="44.14005" lon="7.23357">
        <ele>2083</ele>
        <time>2019-02-10T13:59:24.000Z</time>
      </trkpt>
      <trkpt lat="44.14004" lon="7.23358">
        <ele>2083.1999511719</ele>
        <time>2019-02-10T13:59:25.000Z</time>
      </trkpt>
      <trkpt lat="44.14004" lon="7.2336">
        <ele>2083.3999023438</ele>
        <time>2019-02-10T13:59:27.000Z</time>
      </trkpt>
      <trkpt lat="44.14003" lon="7.23363">
        <ele>2084</ele>
        <time>2019-02-10T13:59:37.000Z</time>
      </trkpt>
      <trkpt lat="44.13999" lon="7.23367">
        <ele>2084.3999023438</ele>
        <time>2019-02-10T13:59:44.000Z</time>
      </trkpt>
      <trkpt lat="44.13997" lon="7.23373">
        <ele>2084.3999023438</ele>
        <time>2019-02-10T13:59:50.000Z</time>
      </trkpt>
      <trkpt lat="44.13996" lon="7.23374">
        <ele>2084.3999023438</ele>
        <time>2019-02-10T13:59:52.000Z</time>
      </trkpt>
      <trkpt lat="44.13995" lon="7.23376">
        <ele>2084.6000976562</ele>
        <time>2019-02-10T13:59:55.000Z</time>
      </trkpt>
      <trkpt lat="44.13994" lon="7.23377">
        <ele>2084.8000488281</ele>
        <time>2019-02-10T13:59:57.000Z</time>
      </trkpt>
      <trkpt lat="44.13992" lon="7.2338">
        <ele>2084.8000488281</ele>
        <time>2019-02-10T14:00:01.000Z</time>
      </trkpt>
      <trkpt lat="44.13991" lon="7.23381">
        <ele>2085</ele>
        <time>2019-02-10T14:00:04.000Z</time>
      </trkpt>
      <trkpt lat="44.13989" lon="7.23386">
        <ele>2085.1999511719</ele>
        <time>2019-02-10T14:00:09.000Z</time>
      </trkpt>
      <trkpt lat="44.13988" lon="7.23388">
        <ele>2085</ele>
        <time>2019-02-10T14:00:11.000Z</time>
      </trkpt>
      <trkpt lat="44.13983" lon="7.23394">
        <ele>2084.8000488281</ele>
        <time>2019-02-10T14:00:14.000Z</time>
      </trkpt>
      <trkpt lat="44.13972" lon="7.23411">
        <ele>2083.8000488281</ele>
        <time>2019-02-10T14:00:22.000Z</time>
      </trkpt>
      <trkpt lat="44.1397" lon="7.23413">
        <ele>2083.6000976562</ele>
        <time>2019-02-10T14:00:24.000Z</time>
      </trkpt>
      <trkpt lat="44.13964" lon="7.2342">
        <ele>2083.1999511719</ele>
        <time>2019-02-10T14:00:30.000Z</time>
      </trkpt>
      <trkpt lat="44.1396" lon="7.23426">
        <ele>2083</ele>
        <time>2019-02-10T14:00:35.000Z</time>
      </trkpt>
      <trkpt lat="44.13952" lon="7.23434">
        <ele>2082.8000488281</ele>
        <time>2019-02-10T14:00:43.000Z</time>
      </trkpt>
      <trkpt lat="44.13942" lon="7.23445">
        <ele>2082.1999511719</ele>
        <time>2019-02-10T14:00:50.000Z</time>
      </trkpt>
      <trkpt lat="44.13939" lon="7.23448">
        <ele>2082</ele>
        <time>2019-02-10T14:00:52.000Z</time>
      </trkpt>
      <trkpt lat="44.13938" lon="7.2345">
        <ele>2081.8000488281</ele>
        <time>2019-02-10T14:00:54.000Z</time>
      </trkpt>
      <trkpt lat="44.13936" lon="7.23452">
        <ele>2081.8000488281</ele>
        <time>2019-02-10T14:00:56.000Z</time>
      </trkpt>
      <trkpt lat="44.13933" lon="7.23454">
        <ele>2081.6000976562</ele>
        <time>2019-02-10T14:01:00.000Z</time>
      </trkpt>
      <trkpt lat="44.13933" lon="7.23456">
        <ele>2081.3999023438</ele>
        <time>2019-02-10T14:01:02.000Z</time>
      </trkpt>
      <trkpt lat="44.13932" lon="7.23456">
        <ele>2081.3999023438</ele>
        <time>2019-02-10T14:01:03.000Z</time>
      </trkpt>
      <trkpt lat="44.13929" lon="7.23461">
        <ele>2081.1999511719</ele>
        <time>2019-02-10T14:01:21.000Z</time>
      </trkpt>
      <trkpt lat="44.13929" lon="7.23462">
        <ele>2081</ele>
        <time>2019-02-10T14:01:26.000Z</time>
      </trkpt>
      <trkpt lat="44.13928" lon="7.23462">
        <ele>2081.1999511719</ele>
        <time>2019-02-10T14:01:28.000Z</time>
      </trkpt>
      <trkpt lat="44.13927" lon="7.23464">
        <ele>2081.3999023438</ele>
        <time>2019-02-10T14:01:32.000Z</time>
      </trkpt>
      <trkpt lat="44.13926" lon="7.23465">
        <ele>2081.8000488281</ele>
        <time>2019-02-10T14:01:36.000Z</time>
      </trkpt>
      <trkpt lat="44.13926" lon="7.23466">
        <ele>2081.8000488281</ele>
        <time>2019-02-10T14:01:40.000Z</time>
      </trkpt>
      <trkpt lat="44.13925" lon="7.23467">
        <ele>2081.8000488281</ele>
        <time>2019-02-10T14:01:43.000Z</time>
      </trkpt>
      <trkpt lat="44.13922" lon="7.2347">
        <ele>2082</ele>
        <time>2019-02-10T14:01:47.000Z</time>
      </trkpt>
      <trkpt lat="44.13923" lon="7.2347">
        <ele>2082.1999511719</ele>
        <time>2019-02-10T14:01:50.000Z</time>
      </trkpt>
      <trkpt lat="44.13922" lon="7.23471">
        <ele>2082.1999511719</ele>
        <time>2019-02-10T14:01:55.000Z</time>
      </trkpt>
      <trkpt lat="44.13918" lon="7.23473">
        <ele>2082.1999511719</ele>
        <time>2019-02-10T14:02:10.000Z</time>
      </trkpt>
      <trkpt lat="44.13918" lon="7.23473">
        <ele>2082.1999511719</ele>
        <time>2019-02-10T14:02:11.000Z</time>
      </trkpt>
      <trkpt lat="44.13911" lon="7.23476">
        <ele>2082.3999023438</ele>
        <time>2019-02-10T14:02:19.000Z</time>
      </trkpt>
      <trkpt lat="44.13911" lon="7.23477">
        <ele>2082.3999023438</ele>
        <time>2019-02-10T14:02:21.000Z</time>
      </trkpt>
      <trkpt lat="44.13914" lon="7.23478">
        <ele>2082.6000976562</ele>
        <time>2019-02-10T14:02:40.000Z</time>
      </trkpt>
      <trkpt lat="44.13915" lon="7.23479">
        <ele>2083</ele>
        <time>2019-02-10T14:02:45.000Z</time>
      </trkpt>
      <trkpt lat="44.13915" lon="7.2348">
        <ele>2083.1999511719</ele>
        <time>2019-02-10T14:02:46.000Z</time>
      </trkpt>
      <trkpt lat="44.13909" lon="7.2348">
        <ele>2083.6000976562</ele>
        <time>2019-02-10T14:02:56.000Z</time>
      </trkpt>
      <trkpt lat="44.13907" lon="7.23477">
        <ele>2083.8000488281</ele>
        <time>2019-02-10T14:03:00.000Z</time>
      </trkpt>
      <trkpt lat="44.13905" lon="7.23477">
        <ele>2084.1999511719</ele>
        <time>2019-02-10T14:03:02.000Z</time>
      </trkpt>
      <trkpt lat="44.13902" lon="7.23478">
        <ele>2084.6000976562</ele>
        <time>2019-02-10T14:03:11.000Z</time>
      </trkpt>
      <trkpt lat="44.13901" lon="7.23479">
        <ele>2084.6000976562</ele>
        <time>2019-02-10T14:03:12.000Z</time>
      </trkpt>
      <trkpt lat="44.139" lon="7.23479">
        <ele>2084.6000976562</ele>
        <time>2019-02-10T14:03:13.000Z</time>
      </trkpt>
      <trkpt lat="44.139" lon="7.23479">
        <ele>2084.6000976562</ele>
        <time>2019-02-10T14:03:14.000Z</time>
      </trkpt>
      <trkpt lat="44.13898" lon="7.2348">
        <ele>2084.3999023438</ele>
        <time>2019-02-10T14:03:18.000Z</time>
      </trkpt>
      <trkpt lat="44.1389" lon="7.2348">
        <ele>2084.8000488281</ele>
        <time>2019-02-10T14:03:29.000Z</time>
      </trkpt>
      <trkpt lat="44.1389" lon="7.2348">
        <ele>2085</ele>
        <time>2019-02-10T14:03:30.000Z</time>
      </trkpt>
      <trkpt lat="44.13887" lon="7.23479">
        <ele>2085</ele>
        <time>2019-02-10T14:03:34.000Z</time>
      </trkpt>
      <trkpt lat="44.13886" lon="7.2348">
        <ele>2085.1999511719</ele>
        <time>2019-02-10T14:03:37.000Z</time>
      </trkpt>
      <trkpt lat="44.13887" lon="7.23481">
        <ele>2085.1999511719</ele>
        <time>2019-02-10T14:03:38.000Z</time>
      </trkpt>
      <trkpt lat="44.13884" lon="7.23482">
        <ele>2086</ele>
        <time>2019-02-10T14:03:47.000Z</time>
      </trkpt>
      <trkpt lat="44.13878" lon="7.23483">
        <ele>2086</ele>
        <time>2019-02-10T14:03:55.000Z</time>
      </trkpt>
      <trkpt lat="44.13876" lon="7.23483">
        <ele>2086.1999511719</ele>
        <time>2019-02-10T14:03:58.000Z</time>
      </trkpt>
      <trkpt lat="44.13875" lon="7.23483">
        <ele>2086.1999511719</ele>
        <time>2019-02-10T14:04:00.000Z</time>
      </trkpt>
      <trkpt lat="44.13874" lon="7.23483">
        <ele>2086.3999023438</ele>
        <time>2019-02-10T14:04:01.000Z</time>
      </trkpt>
      <trkpt lat="44.13869" lon="7.23484">
        <ele>2086.8000488281</ele>
        <time>2019-02-10T14:04:10.000Z</time>
      </trkpt>
      <trkpt lat="44.13868" lon="7.23484">
        <ele>2086.8000488281</ele>
        <time>2019-02-10T14:04:11.000Z</time>
      </trkpt>
      <trkpt lat="44.13866" lon="7.23486">
        <ele>2087.1999511719</ele>
        <time>2019-02-10T14:04:14.000Z</time>
      </trkpt>
      <trkpt lat="44.13865" lon="7.23487">
        <ele>2087.3999023438</ele>
        <time>2019-02-10T14:04:16.000Z</time>
      </trkpt>
      <trkpt lat="44.13864" lon="7.23487">
        <ele>2087.6000976562</ele>
        <time>2019-02-10T14:04:18.000Z</time>
      </trkpt>
      <trkpt lat="44.13863" lon="7.23488">
        <ele>2087.8000488281</ele>
        <time>2019-02-10T14:04:19.000Z</time>
      </trkpt>
      <trkpt lat="44.13862" lon="7.23488">
        <ele>2087.8000488281</ele>
        <time>2019-02-10T14:04:20.000Z</time>
      </trkpt>
      <trkpt lat="44.13862" lon="7.23489">
        <ele>2087.8000488281</ele>
        <time>2019-02-10T14:04:21.000Z</time>
      </trkpt>
      <trkpt lat="44.1386" lon="7.2349">
        <ele>2087.6000976562</ele>
        <time>2019-02-10T14:04:24.000Z</time>
      </trkpt>
      <trkpt lat="44.1386" lon="7.2349">
        <ele>2087.6000976562</ele>
        <time>2019-02-10T14:04:25.000Z</time>
      </trkpt>
      <trkpt lat="44.13858" lon="7.23495">
        <ele>2087.6000976562</ele>
        <time>2019-02-10T14:04:31.000Z</time>
      </trkpt>
      <trkpt lat="44.13856" lon="7.235">
        <ele>2088.6000976562</ele>
        <time>2019-02-10T14:04:41.000Z</time>
      </trkpt>
      <trkpt lat="44.1385" lon="7.23512">
        <ele>2089.6000976562</ele>
        <time>2019-02-10T14:05:04.000Z</time>
      </trkpt>
      <trkpt lat="44.1385" lon="7.23512">
        <ele>2089.3999023438</ele>
        <time>2019-02-10T14:05:09.000Z</time>
      </trkpt>
      <trkpt lat="44.13851" lon="7.23513">
        <ele>2089.1999511719</ele>
        <time>2019-02-10T14:05:15.000Z</time>
      </trkpt>
      <trkpt lat="44.1385" lon="7.23515">
        <ele>2089.6000976562</ele>
        <time>2019-02-10T14:05:19.000Z</time>
      </trkpt>
      <trkpt lat="44.13849" lon="7.23516">
        <ele>2089.8000488281</ele>
        <time>2019-02-10T14:05:22.000Z</time>
      </trkpt>
      <trkpt lat="44.13848" lon="7.23518">
        <ele>2090</ele>
        <time>2019-02-10T14:05:24.000Z</time>
      </trkpt>
      <trkpt lat="44.13847" lon="7.23519">
        <ele>2090</ele>
        <time>2019-02-10T14:05:25.000Z</time>
      </trkpt>
      <trkpt lat="44.13847" lon="7.2352">
        <ele>2090</ele>
        <time>2019-02-10T14:05:26.000Z</time>
      </trkpt>
      <trkpt lat="44.13846" lon="7.2352">
        <ele>2090</ele>
        <time>2019-02-10T14:05:27.000Z</time>
      </trkpt>
      <trkpt lat="44.13843" lon="7.23528">
        <ele>2090.3999023438</ele>
        <time>2019-02-10T14:05:40.000Z</time>
      </trkpt>
      <trkpt lat="44.13842" lon="7.2353">
        <ele>2090.6000976562</ele>
        <time>2019-02-10T14:05:44.000Z</time>
      </trkpt>
      <trkpt lat="44.13841" lon="7.23534">
        <ele>2091.1999511719</ele>
        <time>2019-02-10T14:05:52.000Z</time>
      </trkpt>
      <trkpt lat="44.1384" lon="7.23536">
        <ele>2091.6000976562</ele>
        <time>2019-02-10T14:05:56.000Z</time>
      </trkpt>
      <trkpt lat="44.13839" lon="7.23538">
        <ele>2092</ele>
        <time>2019-02-10T14:06:00.000Z</time>
      </trkpt>
      <trkpt lat="44.13836" lon="7.23541">
        <ele>2092.6000976562</ele>
        <time>2019-02-10T14:06:05.000Z</time>
      </trkpt>
      <trkpt lat="44.13822" lon="7.23558">
        <ele>2093.8000488281</ele>
        <time>2019-02-10T14:06:33.000Z</time>
      </trkpt>
      <trkpt lat="44.13813" lon="7.2357">
        <ele>2094.8000488281</ele>
        <time>2019-02-10T14:06:51.000Z</time>
      </trkpt>
      <trkpt lat="44.13809" lon="7.23576">
        <ele>2095.3999023438</ele>
        <time>2019-02-10T14:06:59.000Z</time>
      </trkpt>
      <trkpt lat="44.13807" lon="7.23578">
        <ele>2095.3999023438</ele>
        <time>2019-02-10T14:07:02.000Z</time>
      </trkpt>
      <trkpt lat="44.13805" lon="7.23579">
        <ele>2095.6000976562</ele>
        <time>2019-02-10T14:07:05.000Z</time>
      </trkpt>
      <trkpt lat="44.13803" lon="7.23579">
        <ele>2095.6000976562</ele>
        <time>2019-02-10T14:07:07.000Z</time>
      </trkpt>
      <trkpt lat="44.138" lon="7.2358">
        <ele>2095.8000488281</ele>
        <time>2019-02-10T14:07:11.000Z</time>
      </trkpt>
      <trkpt lat="44.13798" lon="7.2358">
        <ele>2096.1999511719</ele>
        <time>2019-02-10T14:07:14.000Z</time>
      </trkpt>
      <trkpt lat="44.13793" lon="7.23581">
        <ele>2096.6000976562</ele>
        <time>2019-02-10T14:07:20.000Z</time>
      </trkpt>
      <trkpt lat="44.13791" lon="7.2358">
        <ele>2096.8000488281</ele>
        <time>2019-02-10T14:07:22.000Z</time>
      </trkpt>
      <trkpt lat="44.13786" lon="7.23579">
        <ele>2097</ele>
        <time>2019-02-10T14:07:27.000Z</time>
      </trkpt>
      <trkpt lat="44.13785" lon="7.23579">
        <ele>2097</ele>
        <time>2019-02-10T14:07:28.000Z</time>
      </trkpt>
      <trkpt lat="44.13782" lon="7.23578">
        <ele>2097.3999023438</ele>
        <time>2019-02-10T14:07:32.000Z</time>
      </trkpt>
      <trkpt lat="44.13781" lon="7.23577">
        <ele>2097.8000488281</ele>
        <time>2019-02-10T14:07:35.000Z</time>
      </trkpt>
      <trkpt lat="44.1378" lon="7.23575">
        <ele>2097.8000488281</ele>
        <time>2019-02-10T14:07:38.000Z</time>
      </trkpt>
      <trkpt lat="44.13779" lon="7.23575">
        <ele>2098</ele>
        <time>2019-02-10T14:07:39.000Z</time>
      </trkpt>
      <trkpt lat="44.13778" lon="7.23575">
        <ele>2098</ele>
        <time>2019-02-10T14:07:40.000Z</time>
      </trkpt>
      <trkpt lat="44.13775" lon="7.23571">
        <ele>2098.3999023438</ele>
        <time>2019-02-10T14:07:46.000Z</time>
      </trkpt>
      <trkpt lat="44.13771" lon="7.23568">
        <ele>2098.8000488281</ele>
        <time>2019-02-10T14:07:54.000Z</time>
      </trkpt>
      <trkpt lat="44.1377" lon="7.23567">
        <ele>2099</ele>
        <time>2019-02-10T14:07:56.000Z</time>
      </trkpt>
      <trkpt lat="44.1377" lon="7.23567">
        <ele>2099</ele>
        <time>2019-02-10T14:07:57.000Z</time>
      </trkpt>
      <trkpt lat="44.13768" lon="7.23566">
        <ele>2099</ele>
        <time>2019-02-10T14:07:59.000Z</time>
      </trkpt>
      <trkpt lat="44.13768" lon="7.23565">
        <ele>2099.1999511719</ele>
        <time>2019-02-10T14:08:00.000Z</time>
      </trkpt>
      <trkpt lat="44.13767" lon="7.23564">
        <ele>2099.1999511719</ele>
        <time>2019-02-10T14:08:01.000Z</time>
      </trkpt>
      <trkpt lat="44.13766" lon="7.23564">
        <ele>2099.3999023438</ele>
        <time>2019-02-10T14:08:02.000Z</time>
      </trkpt>
      <trkpt lat="44.13765" lon="7.23562">
        <ele>2099.6000976562</ele>
        <time>2019-02-10T14:08:04.000Z</time>
      </trkpt>
      <trkpt lat="44.1376" lon="7.23562">
        <ele>2099.6000976562</ele>
        <time>2019-02-10T14:08:19.000Z</time>
      </trkpt>
      <trkpt lat="44.13762" lon="7.23562">
        <ele>2099.6000976562</ele>
        <time>2019-02-10T14:08:22.000Z</time>
      </trkpt>
      <trkpt lat="44.13762" lon="7.23563">
        <ele>2099.6000976562</ele>
        <time>2019-02-10T14:08:28.000Z</time>
      </trkpt>
      <trkpt lat="44.13762" lon="7.23562">
        <ele>2099.3999023438</ele>
        <time>2019-02-10T14:08:30.000Z</time>
      </trkpt>
      <trkpt lat="44.13762" lon="7.23561">
        <ele>2099.3999023438</ele>
        <time>2019-02-10T14:08:38.000Z</time>
      </trkpt>
      <trkpt lat="44.13762" lon="7.23561">
        <ele>2099.3999023438</ele>
        <time>2019-02-10T14:08:41.000Z</time>
      </trkpt>
      <trkpt lat="44.13762" lon="7.2356">
        <ele>2099.3999023438</ele>
        <time>2019-02-10T14:08:43.000Z</time>
      </trkpt>
      <trkpt lat="44.13762" lon="7.2356">
        <ele>2099.1999511719</ele>
        <time>2019-02-10T14:08:48.000Z</time>
      </trkpt>
      <trkpt lat="44.13762" lon="7.2356">
        <ele>2099.1999511719</ele>
        <time>2019-02-10T14:08:49.000Z</time>
      </trkpt>
      <trkpt lat="44.13762" lon="7.2356">
        <ele>2099.1999511719</ele>
        <time>2019-02-10T14:08:50.000Z</time>
      </trkpt>
      <trkpt lat="44.13763" lon="7.2356">
        <ele>2099.1999511719</ele>
        <time>2019-02-10T14:08:52.000Z</time>
      </trkpt>
      <trkpt lat="44.13763" lon="7.2356">
        <ele>2099</ele>
        <time>2019-02-10T14:08:57.000Z</time>
      </trkpt>
      <trkpt lat="44.13763" lon="7.2356">
        <ele>2099</ele>
        <time>2019-02-10T14:08:58.000Z</time>
      </trkpt>
      <trkpt lat="44.13762" lon="7.2356">
        <ele>2098.8000488281</ele>
        <time>2019-02-10T14:09:02.000Z</time>
      </trkpt>
      <trkpt lat="44.13762" lon="7.2356">
        <ele>2098.6000976562</ele>
        <time>2019-02-10T14:09:04.000Z</time>
      </trkpt>
      <trkpt lat="44.13762" lon="7.2356">
        <ele>2098.6000976562</ele>
        <time>2019-02-10T14:09:07.000Z</time>
      </trkpt>
      <trkpt lat="44.13762" lon="7.2356">
        <ele>2098.6000976562</ele>
        <time>2019-02-10T14:09:08.000Z</time>
      </trkpt>
      <trkpt lat="44.13762" lon="7.2356">
        <ele>2098.6000976562</ele>
        <time>2019-02-10T14:09:09.000Z</time>
      </trkpt>
      <trkpt lat="44.13762" lon="7.23559">
        <ele>2098.6000976562</ele>
        <time>2019-02-10T14:09:11.000Z</time>
      </trkpt>
      <trkpt lat="44.13762" lon="7.23559">
        <ele>2098.6000976562</ele>
        <time>2019-02-10T14:09:12.000Z</time>
      </trkpt>
      <trkpt lat="44.13762" lon="7.23559">
        <ele>2098.6000976562</ele>
        <time>2019-02-10T14:09:13.000Z</time>
      </trkpt>
      <trkpt lat="44.13763" lon="7.23559">
        <ele>2098.6000976562</ele>
        <time>2019-02-10T14:09:16.000Z</time>
      </trkpt>
      <trkpt lat="44.13763" lon="7.23558">
        <ele>2098.3999023438</ele>
        <time>2019-02-10T14:09:19.000Z</time>
      </trkpt>
      <trkpt lat="44.13763" lon="7.23558">
        <ele>2098.3999023438</ele>
        <time>2019-02-10T14:09:20.000Z</time>
      </trkpt>
      <trkpt lat="44.13763" lon="7.23558">
        <ele>2098.1999511719</ele>
        <time>2019-02-10T14:09:21.000Z</time>
      </trkpt>
      <trkpt lat="44.13762" lon="7.23557">
        <ele>2098.1999511719</ele>
        <time>2019-02-10T14:09:24.000Z</time>
      </trkpt>
      <trkpt lat="44.13761" lon="7.23556">
        <ele>2098.3999023438</ele>
        <time>2019-02-10T14:09:26.000Z</time>
      </trkpt>
      <trkpt lat="44.13762" lon="7.23556">
        <ele>2098</ele>
        <time>2019-02-10T14:09:31.000Z</time>
      </trkpt>
      <trkpt lat="44.13762" lon="7.23556">
        <ele>2098.1999511719</ele>
        <time>2019-02-10T14:09:34.000Z</time>
      </trkpt>
      <trkpt lat="44.13763" lon="7.23556">
        <ele>2098.3999023438</ele>
        <time>2019-02-10T14:09:38.000Z</time>
      </trkpt>
      <trkpt lat="44.13762" lon="7.23556">
        <ele>2098.3999023438</ele>
        <time>2019-02-10T14:09:40.000Z</time>
      </trkpt>
      <trkpt lat="44.13762" lon="7.23557">
        <ele>2098.3999023438</ele>
        <time>2019-02-10T14:09:45.000Z</time>
      </trkpt>
      <trkpt lat="44.13761" lon="7.23559">
        <ele>2098.8000488281</ele>
        <time>2019-02-10T14:09:52.000Z</time>
      </trkpt>
      <trkpt lat="44.13762" lon="7.23559">
        <ele>2098.6000976562</ele>
        <time>2019-02-10T14:09:54.000Z</time>
      </trkpt>
      <trkpt lat="44.13761" lon="7.23559">
        <ele>2098.3999023438</ele>
        <time>2019-02-10T14:09:57.000Z</time>
      </trkpt>
      <trkpt lat="44.13762" lon="7.23559">
        <ele>2098.3999023438</ele>
        <time>2019-02-10T14:09:58.000Z</time>
      </trkpt>
      <trkpt lat="44.13762" lon="7.23559">
        <ele>2098</ele>
        <time>2019-02-10T14:10:04.000Z</time>
      </trkpt>
      <trkpt lat="44.13762" lon="7.2356">
        <ele>2098</ele>
        <time>2019-02-10T14:10:08.000Z</time>
      </trkpt>
      <trkpt lat="44.13762" lon="7.23559">
        <ele>2098</ele>
        <time>2019-02-10T14:10:10.000Z</time>
      </trkpt>
      <trkpt lat="44.13762" lon="7.23559">
        <ele>2098</ele>
        <time>2019-02-10T14:10:11.000Z</time>
      </trkpt>
      <trkpt lat="44.13762" lon="7.2356">
        <ele>2098.1999511719</ele>
        <time>2019-02-10T14:10:16.000Z</time>
      </trkpt>
      <trkpt lat="44.13762" lon="7.23559">
        <ele>2098.1999511719</ele>
        <time>2019-02-10T14:10:18.000Z</time>
      </trkpt>
      <trkpt lat="44.13763" lon="7.23559">
        <ele>2098.1999511719</ele>
        <time>2019-02-10T14:10:19.000Z</time>
      </trkpt>
      <trkpt lat="44.13763" lon="7.23558">
        <ele>2098.1999511719</ele>
        <time>2019-02-10T14:10:20.000Z</time>
      </trkpt>
      <trkpt lat="44.13762" lon="7.23557">
        <ele>2098.1999511719</ele>
        <time>2019-02-10T14:10:23.000Z</time>
      </trkpt>
      <trkpt lat="44.13759" lon="7.23557">
        <ele>2098.1999511719</ele>
        <time>2019-02-10T14:10:38.000Z</time>
      </trkpt>
      <trkpt lat="44.13758" lon="7.23557">
        <ele>2098.1999511719</ele>
        <time>2019-02-10T14:10:43.000Z</time>
      </trkpt>
      <trkpt lat="44.13758" lon="7.23556">
        <ele>2098.1999511719</ele>
        <time>2019-02-10T14:10:45.000Z</time>
      </trkpt>
      <trkpt lat="44.13759" lon="7.23555">
        <ele>2098.6000976562</ele>
        <time>2019-02-10T14:10:55.000Z</time>
      </trkpt>
      <trkpt lat="44.13759" lon="7.23554">
        <ele>2098.8000488281</ele>
        <time>2019-02-10T14:10:58.000Z</time>
      </trkpt>
      <trkpt lat="44.13762" lon="7.23555">
        <ele>2098.8000488281</ele>
        <time>2019-02-10T14:11:18.000Z</time>
      </trkpt>
      <trkpt lat="44.13762" lon="7.23556">
        <ele>2099</ele>
        <time>2019-02-10T14:11:22.000Z</time>
      </trkpt>
      <trkpt lat="44.13763" lon="7.23555">
        <ele>2099</ele>
        <time>2019-02-10T14:11:24.000Z</time>
      </trkpt>
      <trkpt lat="44.13762" lon="7.23554">
        <ele>2099.1999511719</ele>
        <time>2019-02-10T14:11:32.000Z</time>
      </trkpt>
      <trkpt lat="44.13762" lon="7.23554">
        <ele>2099.1999511719</ele>
        <time>2019-02-10T14:11:34.000Z</time>
      </trkpt>
      <trkpt lat="44.1376" lon="7.23556">
        <ele>2099.1999511719</ele>
        <time>2019-02-10T14:11:40.000Z</time>
      </trkpt>
      <trkpt lat="44.1376" lon="7.23556">
        <ele>2099.1999511719</ele>
        <time>2019-02-10T14:11:44.000Z</time>
      </trkpt>
      <trkpt lat="44.13761" lon="7.23557">
        <ele>2099.6000976562</ele>
        <time>2019-02-10T14:12:01.000Z</time>
      </trkpt>
      <trkpt lat="44.13761" lon="7.23557">
        <ele>2099.6000976562</ele>
        <time>2019-02-10T14:12:02.000Z</time>
      </trkpt>
      <trkpt lat="44.13761" lon="7.23556">
        <ele>2099.6000976562</ele>
        <time>2019-02-10T14:12:03.000Z</time>
      </trkpt>
      <trkpt lat="44.13762" lon="7.23555">
        <ele>2099.6000976562</ele>
        <time>2019-02-10T14:12:05.000Z</time>
      </trkpt>
      <trkpt lat="44.13762" lon="7.23556">
        <ele>2099.6000976562</ele>
        <time>2019-02-10T14:12:06.000Z</time>
      </trkpt>
      <trkpt lat="44.13761" lon="7.23557">
        <ele>2099.6000976562</ele>
        <time>2019-02-10T14:12:08.000Z</time>
      </trkpt>
      <trkpt lat="44.13762" lon="7.23558">
        <ele>2099.6000976562</ele>
        <time>2019-02-10T14:12:11.000Z</time>
      </trkpt>
      <trkpt lat="44.13761" lon="7.23558">
        <ele>2099.3999023438</ele>
        <time>2019-02-10T14:12:13.000Z</time>
      </trkpt>
      <trkpt lat="44.13763" lon="7.23557">
        <ele>2099.1999511719</ele>
        <time>2019-02-10T14:12:16.000Z</time>
      </trkpt>
      <trkpt lat="44.13763" lon="7.23558">
        <ele>2099.1999511719</ele>
        <time>2019-02-10T14:12:17.000Z</time>
      </trkpt>
      <trkpt lat="44.13763" lon="7.23557">
        <ele>2099.3999023438</ele>
        <time>2019-02-10T14:12:19.000Z</time>
      </trkpt>
      <trkpt lat="44.13763" lon="7.23557">
        <ele>2099.3999023438</ele>
        <time>2019-02-10T14:12:21.000Z</time>
      </trkpt>
      <trkpt lat="44.13763" lon="7.23556">
        <ele>2099.3999023438</ele>
        <time>2019-02-10T14:12:24.000Z</time>
      </trkpt>
      <trkpt lat="44.13763" lon="7.23556">
        <ele>2099</ele>
        <time>2019-02-10T14:12:31.000Z</time>
      </trkpt>
      <trkpt lat="44.13762" lon="7.23556">
        <ele>2099</ele>
        <time>2019-02-10T14:12:32.000Z</time>
      </trkpt>
      <trkpt lat="44.13762" lon="7.23556">
        <ele>2099</ele>
        <time>2019-02-10T14:12:35.000Z</time>
      </trkpt>
      <trkpt lat="44.13762" lon="7.23556">
        <ele>2099</ele>
        <time>2019-02-10T14:12:37.000Z</time>
      </trkpt>
      <trkpt lat="44.13762" lon="7.23553">
        <ele>2099</ele>
        <time>2019-02-10T14:12:43.000Z</time>
      </trkpt>
      <trkpt lat="44.13761" lon="7.23552">
        <ele>2099</ele>
        <time>2019-02-10T14:12:45.000Z</time>
      </trkpt>
      <trkpt lat="44.13761" lon="7.23551">
        <ele>2099</ele>
        <time>2019-02-10T14:12:47.000Z</time>
      </trkpt>
      <trkpt lat="44.13761" lon="7.23551">
        <ele>2099</ele>
        <time>2019-02-10T14:12:48.000Z</time>
      </trkpt>
      <trkpt lat="44.13761" lon="7.23551">
        <ele>2099</ele>
        <time>2019-02-10T14:12:49.000Z</time>
      </trkpt>
      <trkpt lat="44.13762" lon="7.2355">
        <ele>2099</ele>
        <time>2019-02-10T14:12:50.000Z</time>
      </trkpt>
      <trkpt lat="44.13762" lon="7.2355">
        <ele>2099</ele>
        <time>2019-02-10T14:12:52.000Z</time>
      </trkpt>
      <trkpt lat="44.13762" lon="7.2355">
        <ele>2099</ele>
        <time>2019-02-10T14:12:53.000Z</time>
      </trkpt>
      <trkpt lat="44.13762" lon="7.23549">
        <ele>2099</ele>
        <time>2019-02-10T14:12:54.000Z</time>
      </trkpt>
      <trkpt lat="44.13762" lon="7.23549">
        <ele>2099</ele>
        <time>2019-02-10T14:13:04.000Z</time>
      </trkpt>
      <trkpt lat="44.13762" lon="7.2355">
        <ele>2099</ele>
        <time>2019-02-10T14:13:06.000Z</time>
      </trkpt>
      <trkpt lat="44.13763" lon="7.2355">
        <ele>2099</ele>
        <time>2019-02-10T14:13:08.000Z</time>
      </trkpt>
      <trkpt lat="44.13764" lon="7.23553">
        <ele>2099</ele>
        <time>2019-02-10T14:13:12.000Z</time>
      </trkpt>
      <trkpt lat="44.13764" lon="7.23555">
        <ele>2099</ele>
        <time>2019-02-10T14:13:16.000Z</time>
      </trkpt>
      <trkpt lat="44.13764" lon="7.23555">
        <ele>2099</ele>
        <time>2019-02-10T14:13:21.000Z</time>
      </trkpt>
      <trkpt lat="44.13763" lon="7.23556">
        <ele>2099</ele>
        <time>2019-02-10T14:13:23.000Z</time>
      </trkpt>
      <trkpt lat="44.13763" lon="7.23556">
        <ele>2099</ele>
        <time>2019-02-10T14:13:24.000Z</time>
      </trkpt>
      <trkpt lat="44.13763" lon="7.23556">
        <ele>2099</ele>
        <time>2019-02-10T14:13:26.000Z</time>
      </trkpt>
      <trkpt lat="44.13762" lon="7.23556">
        <ele>2099</ele>
        <time>2019-02-10T14:13:27.000Z</time>
      </trkpt>
      <trkpt lat="44.13762" lon="7.23556">
        <ele>2099</ele>
        <time>2019-02-10T14:13:28.000Z</time>
      </trkpt>
      <trkpt lat="44.13762" lon="7.23556">
        <ele>2099</ele>
        <time>2019-02-10T14:13:29.000Z</time>
      </trkpt>
      <trkpt lat="44.13762" lon="7.23555">
        <ele>2099</ele>
        <time>2019-02-10T14:13:33.000Z</time>
      </trkpt>
      <trkpt lat="44.13762" lon="7.23554">
        <ele>2099</ele>
        <time>2019-02-10T14:13:35.000Z</time>
      </trkpt>
      <trkpt lat="44.13762" lon="7.23553">
        <ele>2099</ele>
        <time>2019-02-10T14:13:36.000Z</time>
      </trkpt>
      <trkpt lat="44.13762" lon="7.23553">
        <ele>2099</ele>
        <time>2019-02-10T14:13:37.000Z</time>
      </trkpt>
      <trkpt lat="44.13762" lon="7.23554">
        <ele>2099</ele>
        <time>2019-02-10T14:13:41.000Z</time>
      </trkpt>
      <trkpt lat="44.13762" lon="7.23554">
        <ele>2099</ele>
        <time>2019-02-10T14:13:44.000Z</time>
      </trkpt>
      <trkpt lat="44.13762" lon="7.23554">
        <ele>2099</ele>
        <time>2019-02-10T14:13:46.000Z</time>
      </trkpt>
      <trkpt lat="44.13762" lon="7.23554">
        <ele>2099</ele>
        <time>2019-02-10T14:13:48.000Z</time>
      </trkpt>
      <trkpt lat="44.13762" lon="7.23554">
        <ele>2099</ele>
        <time>2019-02-10T14:13:53.000Z</time>
      </trkpt>
      <trkpt lat="44.13763" lon="7.23555">
        <ele>2099</ele>
        <time>2019-02-10T14:13:56.000Z</time>
      </trkpt>
      <trkpt lat="44.13763" lon="7.23555">
        <ele>2099</ele>
        <time>2019-02-10T14:13:59.000Z</time>
      </trkpt>
      <trkpt lat="44.13763" lon="7.23556">
        <ele>2099</ele>
        <time>2019-02-10T14:14:00.000Z</time>
      </trkpt>
      <trkpt lat="44.1376" lon="7.23553">
        <ele>2099</ele>
        <time>2019-02-10T14:14:09.000Z</time>
      </trkpt>
      <trkpt lat="44.13759" lon="7.23553">
        <ele>2099</ele>
        <time>2019-02-10T14:14:10.000Z</time>
      </trkpt>
      <trkpt lat="44.13756" lon="7.23549">
        <ele>2098.1999511719</ele>
        <time>2019-02-10T14:14:13.000Z</time>
      </trkpt>
      <trkpt lat="44.13755" lon="7.23547">
        <ele>2098</ele>
        <time>2019-02-10T14:14:14.000Z</time>
      </trkpt>
      <trkpt lat="44.13753" lon="7.23543">
        <ele>2098</ele>
        <time>2019-02-10T14:14:16.000Z</time>
      </trkpt>
      <trkpt lat="44.13753" lon="7.23514">
        <ele>2097.3999023438</ele>
        <time>2019-02-10T14:14:27.000Z</time>
      </trkpt>
      <trkpt lat="44.13753" lon="7.235">
        <ele>2096.8000488281</ele>
        <time>2019-02-10T14:14:30.000Z</time>
      </trkpt>
      <trkpt lat="44.13753" lon="7.23496">
        <ele>2096.3999023438</ele>
        <time>2019-02-10T14:14:31.000Z</time>
      </trkpt>
      <trkpt lat="44.13753" lon="7.23486">
        <ele>2095.8000488281</ele>
        <time>2019-02-10T14:14:33.000Z</time>
      </trkpt>
      <trkpt lat="44.13753" lon="7.2348">
        <ele>2095.6000976562</ele>
        <time>2019-02-10T14:14:34.000Z</time>
      </trkpt>
      <trkpt lat="44.13753" lon="7.23466">
        <ele>2094.8000488281</ele>
        <time>2019-02-10T14:14:36.000Z</time>
      </trkpt>
      <trkpt lat="44.13751" lon="7.2346">
        <ele>2094.3999023438</ele>
        <time>2019-02-10T14:14:37.000Z</time>
      </trkpt>
      <trkpt lat="44.13749" lon="7.23455">
        <ele>2093.8000488281</ele>
        <time>2019-02-10T14:14:38.000Z</time>
      </trkpt>
      <trkpt lat="44.13743" lon="7.23445">
        <ele>2093</ele>
        <time>2019-02-10T14:14:40.000Z</time>
      </trkpt>
      <trkpt lat="44.13737" lon="7.23433">
        <ele>2092.3999023438</ele>
        <time>2019-02-10T14:14:42.000Z</time>
      </trkpt>
      <trkpt lat="44.13735" lon="7.23427">
        <ele>2092</ele>
        <time>2019-02-10T14:14:43.000Z</time>
      </trkpt>
      <trkpt lat="44.13735" lon="7.2342">
        <ele>2091.8000488281</ele>
        <time>2019-02-10T14:14:44.000Z</time>
      </trkpt>
      <trkpt lat="44.13736" lon="7.23407">
        <ele>2091.1999511719</ele>
        <time>2019-02-10T14:14:46.000Z</time>
      </trkpt>
      <trkpt lat="44.13736" lon="7.23401">
        <ele>2090.8000488281</ele>
        <time>2019-02-10T14:14:47.000Z</time>
      </trkpt>
      <trkpt lat="44.13736" lon="7.23395">
        <ele>2090.1999511719</ele>
        <time>2019-02-10T14:14:48.000Z</time>
      </trkpt>
      <trkpt lat="44.13737" lon="7.23388">
        <ele>2089.3999023438</ele>
        <time>2019-02-10T14:14:49.000Z</time>
      </trkpt>
      <trkpt lat="44.13737" lon="7.23379">
        <ele>2088.8000488281</ele>
        <time>2019-02-10T14:14:50.000Z</time>
      </trkpt>
      <trkpt lat="44.13734" lon="7.23371">
        <ele>2088.1999511719</ele>
        <time>2019-02-10T14:14:51.000Z</time>
      </trkpt>
      <trkpt lat="44.1373" lon="7.23365">
        <ele>2087.3999023438</ele>
        <time>2019-02-10T14:14:52.000Z</time>
      </trkpt>
      <trkpt lat="44.13726" lon="7.2336">
        <ele>2086.6000976562</ele>
        <time>2019-02-10T14:14:53.000Z</time>
      </trkpt>
      <trkpt lat="44.13715" lon="7.23353">
        <ele>2085.1999511719</ele>
        <time>2019-02-10T14:14:55.000Z</time>
      </trkpt>
      <trkpt lat="44.13705" lon="7.23349">
        <ele>2084</ele>
        <time>2019-02-10T14:14:57.000Z</time>
      </trkpt>
      <trkpt lat="44.137" lon="7.23346">
        <ele>2083.6000976562</ele>
        <time>2019-02-10T14:14:58.000Z</time>
      </trkpt>
      <trkpt lat="44.13695" lon="7.23344">
        <ele>2083.1999511719</ele>
        <time>2019-02-10T14:14:59.000Z</time>
      </trkpt>
      <trkpt lat="44.13691" lon="7.23342">
        <ele>2082.8000488281</ele>
        <time>2019-02-10T14:15:00.000Z</time>
      </trkpt>
      <trkpt lat="44.13678" lon="7.23335">
        <ele>2081.8000488281</ele>
        <time>2019-02-10T14:15:04.000Z</time>
      </trkpt>
      <trkpt lat="44.13675" lon="7.23336">
        <ele>2081.3999023438</ele>
        <time>2019-02-10T14:15:05.000Z</time>
      </trkpt>
      <trkpt lat="44.13669" lon="7.23342">
        <ele>2080.6000976562</ele>
        <time>2019-02-10T14:15:07.000Z</time>
      </trkpt>
      <trkpt lat="44.13667" lon="7.23345">
        <ele>2080.1999511719</ele>
        <time>2019-02-10T14:15:08.000Z</time>
      </trkpt>
      <trkpt lat="44.13664" lon="7.23347">
        <ele>2079.6000976562</ele>
        <time>2019-02-10T14:15:11.000Z</time>
      </trkpt>
      <trkpt lat="44.13664" lon="7.23347">
        <ele>2079.1999511719</ele>
        <time>2019-02-10T14:15:13.000Z</time>
      </trkpt>
      <trkpt lat="44.13666" lon="7.23353">
        <ele>2079.1999511719</ele>
        <time>2019-02-10T14:15:27.000Z</time>
      </trkpt>
      <trkpt lat="44.13668" lon="7.23352">
        <ele>2079.1999511719</ele>
        <time>2019-02-10T14:15:31.000Z</time>
      </trkpt>
      <trkpt lat="44.13668" lon="7.23353">
        <ele>2079.6000976562</ele>
        <time>2019-02-10T14:15:42.000Z</time>
      </trkpt>
      <trkpt lat="44.13666" lon="7.2335">
        <ele>2079.6000976562</ele>
        <time>2019-02-10T14:15:55.000Z</time>
      </trkpt>
      <trkpt lat="44.13668" lon="7.2335">
        <ele>2079.8000488281</ele>
        <time>2019-02-10T14:15:59.000Z</time>
      </trkpt>
      <trkpt lat="44.13668" lon="7.2335">
        <ele>2079.8000488281</ele>
        <time>2019-02-10T14:16:03.000Z</time>
      </trkpt>
      <trkpt lat="44.13668" lon="7.23351">
        <ele>2079.8000488281</ele>
        <time>2019-02-10T14:16:07.000Z</time>
      </trkpt>
      <trkpt lat="44.13655" lon="7.23365">
        <ele>2079.1999511719</ele>
        <time>2019-02-10T14:16:17.000Z</time>
      </trkpt>
      <trkpt lat="44.13646" lon="7.23375">
        <ele>2078.1999511719</ele>
        <time>2019-02-10T14:16:19.000Z</time>
      </trkpt>
      <trkpt lat="44.1364" lon="7.23384">
        <ele>2076.6000976562</ele>
        <time>2019-02-10T14:16:21.000Z</time>
      </trkpt>
      <trkpt lat="44.13633" lon="7.23394">
        <ele>2075.3999023438</ele>
        <time>2019-02-10T14:16:24.000Z</time>
      </trkpt>
      <trkpt lat="44.13626" lon="7.234">
        <ele>2074.8000488281</ele>
        <time>2019-02-10T14:16:27.000Z</time>
      </trkpt>
      <trkpt lat="44.13621" lon="7.23403">
        <ele>2074.6000976562</ele>
        <time>2019-02-10T14:16:29.000Z</time>
      </trkpt>
      <trkpt lat="44.13619" lon="7.23405">
        <ele>2074.1999511719</ele>
        <time>2019-02-10T14:16:30.000Z</time>
      </trkpt>
      <trkpt lat="44.13613" lon="7.23412">
        <ele>2073.3999023438</ele>
        <time>2019-02-10T14:16:32.000Z</time>
      </trkpt>
      <trkpt lat="44.1361" lon="7.23415">
        <ele>2073.1999511719</ele>
        <time>2019-02-10T14:16:33.000Z</time>
      </trkpt>
      <trkpt lat="44.13609" lon="7.23422">
        <ele>2072</ele>
        <time>2019-02-10T14:16:36.000Z</time>
      </trkpt>
      <trkpt lat="44.13606" lon="7.23432">
        <ele>2071.8000488281</ele>
        <time>2019-02-10T14:16:39.000Z</time>
      </trkpt>
      <trkpt lat="44.13601" lon="7.23446">
        <ele>2070.8000488281</ele>
        <time>2019-02-10T14:16:42.000Z</time>
      </trkpt>
      <trkpt lat="44.13595" lon="7.23455">
        <ele>2069.8000488281</ele>
        <time>2019-02-10T14:16:44.000Z</time>
      </trkpt>
      <trkpt lat="44.1359" lon="7.23464">
        <ele>2068</ele>
        <time>2019-02-10T14:16:46.000Z</time>
      </trkpt>
      <trkpt lat="44.13588" lon="7.23474">
        <ele>2066</ele>
        <time>2019-02-10T14:16:48.000Z</time>
      </trkpt>
      <trkpt lat="44.13588" lon="7.23488">
        <ele>2064</ele>
        <time>2019-02-10T14:16:50.000Z</time>
      </trkpt>
      <trkpt lat="44.13585" lon="7.23501">
        <ele>2062.3999023438</ele>
        <time>2019-02-10T14:16:52.000Z</time>
      </trkpt>
      <trkpt lat="44.13581" lon="7.23515">
        <ele>2060.1999511719</ele>
        <time>2019-02-10T14:16:54.000Z</time>
      </trkpt>
      <trkpt lat="44.13579" lon="7.23519">
        <ele>2059</ele>
        <time>2019-02-10T14:16:55.000Z</time>
      </trkpt>
      <trkpt lat="44.13577" lon="7.23525">
        <ele>2057.8000488281</ele>
        <time>2019-02-10T14:16:56.000Z</time>
      </trkpt>
      <trkpt lat="44.13573" lon="7.23532">
        <ele>2056.8000488281</ele>
        <time>2019-02-10T14:16:57.000Z</time>
      </trkpt>
      <trkpt lat="44.13568" lon="7.23543">
        <ele>2055</ele>
        <time>2019-02-10T14:16:59.000Z</time>
      </trkpt>
      <trkpt lat="44.13565" lon="7.23551">
        <ele>2053.3999023438</ele>
        <time>2019-02-10T14:17:01.000Z</time>
      </trkpt>
      <trkpt lat="44.13563" lon="7.23562">
        <ele>2052</ele>
        <time>2019-02-10T14:17:03.000Z</time>
      </trkpt>
      <trkpt lat="44.13562" lon="7.23574">
        <ele>2050.6000976562</ele>
        <time>2019-02-10T14:17:05.000Z</time>
      </trkpt>
      <trkpt lat="44.13562" lon="7.23587">
        <ele>2049.3999023438</ele>
        <time>2019-02-10T14:17:07.000Z</time>
      </trkpt>
      <trkpt lat="44.13559" lon="7.23599">
        <ele>2048.1999511719</ele>
        <time>2019-02-10T14:17:09.000Z</time>
      </trkpt>
      <trkpt lat="44.13554" lon="7.2361">
        <ele>2046.8000488281</ele>
        <time>2019-02-10T14:17:11.000Z</time>
      </trkpt>
      <trkpt lat="44.13549" lon="7.23621">
        <ele>2045.4000244141</ele>
        <time>2019-02-10T14:17:13.000Z</time>
      </trkpt>
      <trkpt lat="44.13546" lon="7.23631">
        <ele>2044.1999511719</ele>
        <time>2019-02-10T14:17:15.000Z</time>
      </trkpt>
      <trkpt lat="44.13543" lon="7.23643">
        <ele>2043.1999511719</ele>
        <time>2019-02-10T14:17:17.000Z</time>
      </trkpt>
      <trkpt lat="44.13541" lon="7.23648">
        <ele>2042.8000488281</ele>
        <time>2019-02-10T14:17:18.000Z</time>
      </trkpt>
      <trkpt lat="44.1354" lon="7.23652">
        <ele>2042.4000244141</ele>
        <time>2019-02-10T14:17:19.000Z</time>
      </trkpt>
      <trkpt lat="44.13538" lon="7.23656">
        <ele>2042</ele>
        <time>2019-02-10T14:17:20.000Z</time>
      </trkpt>
      <trkpt lat="44.13534" lon="7.23663">
        <ele>2040.8000488281</ele>
        <time>2019-02-10T14:17:22.000Z</time>
      </trkpt>
      <trkpt lat="44.13527" lon="7.23674">
        <ele>2039.8000488281</ele>
        <time>2019-02-10T14:17:25.000Z</time>
      </trkpt>
      <trkpt lat="44.13526" lon="7.23689">
        <ele>2038.4000244141</ele>
        <time>2019-02-10T14:17:28.000Z</time>
      </trkpt>
      <trkpt lat="44.13525" lon="7.23694">
        <ele>2038</ele>
        <time>2019-02-10T14:17:29.000Z</time>
      </trkpt>
      <trkpt lat="44.13524" lon="7.237">
        <ele>2036.8000488281</ele>
        <time>2019-02-10T14:17:31.000Z</time>
      </trkpt>
      <trkpt lat="44.13524" lon="7.23701">
        <ele>2036</ele>
        <time>2019-02-10T14:17:32.000Z</time>
      </trkpt>
      <trkpt lat="44.13524" lon="7.23701">
        <ele>2035.1999511719</ele>
        <time>2019-02-10T14:17:33.000Z</time>
      </trkpt>
      <trkpt lat="44.13523" lon="7.23705">
        <ele>2034.5999755859</ele>
        <time>2019-02-10T14:17:35.000Z</time>
      </trkpt>
      <trkpt lat="44.13518" lon="7.23714">
        <ele>2034.5999755859</ele>
        <time>2019-02-10T14:17:38.000Z</time>
      </trkpt>
      <trkpt lat="44.13516" lon="7.2372">
        <ele>2034.8000488281</ele>
        <time>2019-02-10T14:17:42.000Z</time>
      </trkpt>
      <trkpt lat="44.13513" lon="7.2373">
        <ele>2034.8000488281</ele>
        <time>2019-02-10T14:17:45.000Z</time>
      </trkpt>
      <trkpt lat="44.1351" lon="7.23746">
        <ele>2034</ele>
        <time>2019-02-10T14:17:50.000Z</time>
      </trkpt>
      <trkpt lat="44.13506" lon="7.23755">
        <ele>2033</ele>
        <time>2019-02-10T14:17:54.000Z</time>
      </trkpt>
      <trkpt lat="44.13499" lon="7.2377">
        <ele>2031.8000488281</ele>
        <time>2019-02-10T14:17:59.000Z</time>
      </trkpt>
      <trkpt lat="44.13493" lon="7.23785">
        <ele>2030.5999755859</ele>
        <time>2019-02-10T14:18:02.000Z</time>
      </trkpt>
      <trkpt lat="44.13489" lon="7.23796">
        <ele>2029.4000244141</ele>
        <time>2019-02-10T14:18:04.000Z</time>
      </trkpt>
      <trkpt lat="44.13487" lon="7.238">
        <ele>2028.8000488281</ele>
        <time>2019-02-10T14:18:05.000Z</time>
      </trkpt>
      <trkpt lat="44.13486" lon="7.23804">
        <ele>2028.4000244141</ele>
        <time>2019-02-10T14:18:06.000Z</time>
      </trkpt>
      <trkpt lat="44.13477" lon="7.23824">
        <ele>2027</ele>
        <time>2019-02-10T14:18:11.000Z</time>
      </trkpt>
      <trkpt lat="44.13472" lon="7.2384">
        <ele>2026</ele>
        <time>2019-02-10T14:18:15.000Z</time>
      </trkpt>
      <trkpt lat="44.13467" lon="7.23851">
        <ele>2025</ele>
        <time>2019-02-10T14:18:18.000Z</time>
      </trkpt>
      <trkpt lat="44.13461" lon="7.23865">
        <ele>2023.5999755859</ele>
        <time>2019-02-10T14:18:21.000Z</time>
      </trkpt>
      <trkpt lat="44.13458" lon="7.23876">
        <ele>2022.4000244141</ele>
        <time>2019-02-10T14:18:23.000Z</time>
      </trkpt>
      <trkpt lat="44.13453" lon="7.23887">
        <ele>2021.4000244141</ele>
        <time>2019-02-10T14:18:25.000Z</time>
      </trkpt>
      <trkpt lat="44.13448" lon="7.23897">
        <ele>2020.1999511719</ele>
        <time>2019-02-10T14:18:28.000Z</time>
      </trkpt>
      <trkpt lat="44.13442" lon="7.23915">
        <ele>2019.1999511719</ele>
        <time>2019-02-10T14:18:33.000Z</time>
      </trkpt>
      <trkpt lat="44.13437" lon="7.2393">
        <ele>2018.4000244141</ele>
        <time>2019-02-10T14:18:36.000Z</time>
      </trkpt>
      <trkpt lat="44.13435" lon="7.23936">
        <ele>2018</ele>
        <time>2019-02-10T14:18:37.000Z</time>
      </trkpt>
      <trkpt lat="44.13432" lon="7.23948">
        <ele>2017.1999511719</ele>
        <time>2019-02-10T14:18:39.000Z</time>
      </trkpt>
      <trkpt lat="44.13432" lon="7.23954">
        <ele>2016.8000488281</ele>
        <time>2019-02-10T14:18:40.000Z</time>
      </trkpt>
      <trkpt lat="44.1343" lon="7.23966">
        <ele>2015.8000488281</ele>
        <time>2019-02-10T14:18:42.000Z</time>
      </trkpt>
      <trkpt lat="44.1343" lon="7.23971">
        <ele>2015.5999755859</ele>
        <time>2019-02-10T14:18:43.000Z</time>
      </trkpt>
      <trkpt lat="44.13429" lon="7.23994">
        <ele>2014.4000244141</ele>
        <time>2019-02-10T14:18:48.000Z</time>
      </trkpt>
      <trkpt lat="44.13429" lon="7.24018">
        <ele>2013.4000244141</ele>
        <time>2019-02-10T14:18:52.000Z</time>
      </trkpt>
      <trkpt lat="44.13428" lon="7.24026">
        <ele>2013</ele>
        <time>2019-02-10T14:18:53.000Z</time>
      </trkpt>
      <trkpt lat="44.13425" lon="7.24041">
        <ele>2011.1999511719</ele>
        <time>2019-02-10T14:18:55.000Z</time>
      </trkpt>
      <trkpt lat="44.13425" lon="7.24048">
        <ele>2010.1999511719</ele>
        <time>2019-02-10T14:18:56.000Z</time>
      </trkpt>
      <trkpt lat="44.13423" lon="7.24054">
        <ele>2009.4000244141</ele>
        <time>2019-02-10T14:18:57.000Z</time>
      </trkpt>
      <trkpt lat="44.1342" lon="7.24064">
        <ele>2008</ele>
        <time>2019-02-10T14:18:59.000Z</time>
      </trkpt>
      <trkpt lat="44.13418" lon="7.24077">
        <ele>2006.4000244141</ele>
        <time>2019-02-10T14:19:01.000Z</time>
      </trkpt>
      <trkpt lat="44.13416" lon="7.24091">
        <ele>2005</ele>
        <time>2019-02-10T14:19:03.000Z</time>
      </trkpt>
      <trkpt lat="44.13415" lon="7.24097">
        <ele>2004</ele>
        <time>2019-02-10T14:19:04.000Z</time>
      </trkpt>
      <trkpt lat="44.13414" lon="7.24103">
        <ele>2003.1999511719</ele>
        <time>2019-02-10T14:19:05.000Z</time>
      </trkpt>
      <trkpt lat="44.13412" lon="7.24109">
        <ele>2002.1999511719</ele>
        <time>2019-02-10T14:19:06.000Z</time>
      </trkpt>
      <trkpt lat="44.13409" lon="7.24115">
        <ele>2001.5999755859</ele>
        <time>2019-02-10T14:19:07.000Z</time>
      </trkpt>
      <trkpt lat="44.13407" lon="7.24119">
        <ele>2000.8000488281</ele>
        <time>2019-02-10T14:19:08.000Z</time>
      </trkpt>
      <trkpt lat="44.13404" lon="7.24122">
        <ele>2000.4000244141</ele>
        <time>2019-02-10T14:19:09.000Z</time>
      </trkpt>
      <trkpt lat="44.13396" lon="7.24131">
        <ele>1999.4000244141</ele>
        <time>2019-02-10T14:19:11.000Z</time>
      </trkpt>
      <trkpt lat="44.13393" lon="7.2414">
        <ele>1998.8000488281</ele>
        <time>2019-02-10T14:19:12.000Z</time>
      </trkpt>
      <trkpt lat="44.13391" lon="7.24148">
        <ele>1998.1999511719</ele>
        <time>2019-02-10T14:19:13.000Z</time>
      </trkpt>
      <trkpt lat="44.13389" lon="7.24157">
        <ele>1997.4000244141</ele>
        <time>2019-02-10T14:19:14.000Z</time>
      </trkpt>
      <trkpt lat="44.13388" lon="7.24164">
        <ele>1996.8000488281</ele>
        <time>2019-02-10T14:19:15.000Z</time>
      </trkpt>
      <trkpt lat="44.13388" lon="7.24172">
        <ele>1996.1999511719</ele>
        <time>2019-02-10T14:19:16.000Z</time>
      </trkpt>
      <trkpt lat="44.13389" lon="7.2418">
        <ele>1995.5999755859</ele>
        <time>2019-02-10T14:19:17.000Z</time>
      </trkpt>
      <trkpt lat="44.13387" lon="7.24187">
        <ele>1995</ele>
        <time>2019-02-10T14:19:18.000Z</time>
      </trkpt>
      <trkpt lat="44.13383" lon="7.24193">
        <ele>1994.1999511719</ele>
        <time>2019-02-10T14:19:19.000Z</time>
      </trkpt>
      <trkpt lat="44.13379" lon="7.24198">
        <ele>1993.4000244141</ele>
        <time>2019-02-10T14:19:20.000Z</time>
      </trkpt>
      <trkpt lat="44.13376" lon="7.24199">
        <ele>1992.4000244141</ele>
        <time>2019-02-10T14:19:21.000Z</time>
      </trkpt>
      <trkpt lat="44.13374" lon="7.24202">
        <ele>1991.5999755859</ele>
        <time>2019-02-10T14:19:22.000Z</time>
      </trkpt>
      <trkpt lat="44.13374" lon="7.24203">
        <ele>1990.8000488281</ele>
        <time>2019-02-10T14:19:23.000Z</time>
      </trkpt>
      <trkpt lat="44.13374" lon="7.24203">
        <ele>1990.4000244141</ele>
        <time>2019-02-10T14:19:24.000Z</time>
      </trkpt>
      <trkpt lat="44.13368" lon="7.24205">
        <ele>1989.8000488281</ele>
        <time>2019-02-10T14:19:40.000Z</time>
      </trkpt>
      <trkpt lat="44.13363" lon="7.24216">
        <ele>1989.4000244141</ele>
        <time>2019-02-10T14:19:45.000Z</time>
      </trkpt>
      <trkpt lat="44.13362" lon="7.24219">
        <ele>1989</ele>
        <time>2019-02-10T14:19:46.000Z</time>
      </trkpt>
      <trkpt lat="44.13358" lon="7.24227">
        <ele>1988</ele>
        <time>2019-02-10T14:19:49.000Z</time>
      </trkpt>
      <trkpt lat="44.13357" lon="7.24233">
        <ele>1987</ele>
        <time>2019-02-10T14:19:51.000Z</time>
      </trkpt>
      <trkpt lat="44.13356" lon="7.24234">
        <ele>1986.5999755859</ele>
        <time>2019-02-10T14:19:52.000Z</time>
      </trkpt>
      <trkpt lat="44.13355" lon="7.24234">
        <ele>1985.4000244141</ele>
        <time>2019-02-10T14:19:54.000Z</time>
      </trkpt>
      <trkpt lat="44.13352" lon="7.24235">
        <ele>1984.4000244141</ele>
        <time>2019-02-10T14:19:57.000Z</time>
      </trkpt>
      <trkpt lat="44.13349" lon="7.24236">
        <ele>1984</ele>
        <time>2019-02-10T14:20:03.000Z</time>
      </trkpt>
      <trkpt lat="44.13348" lon="7.24235">
        <ele>1983.1999511719</ele>
        <time>2019-02-10T14:20:07.000Z</time>
      </trkpt>
      <trkpt lat="44.13345" lon="7.24242">
        <ele>1982.4000244141</ele>
        <time>2019-02-10T14:20:14.000Z</time>
      </trkpt>
      <trkpt lat="44.1334" lon="7.24248">
        <ele>1982</ele>
        <time>2019-02-10T14:20:17.000Z</time>
      </trkpt>
      <trkpt lat="44.13337" lon="7.24258">
        <ele>1980.8000488281</ele>
        <time>2019-02-10T14:20:20.000Z</time>
      </trkpt>
      <trkpt lat="44.13336" lon="7.24268">
        <ele>1979.8000488281</ele>
        <time>2019-02-10T14:20:23.000Z</time>
      </trkpt>
      <trkpt lat="44.13334" lon="7.24272">
        <ele>1979.4000244141</ele>
        <time>2019-02-10T14:20:24.000Z</time>
      </trkpt>
      <trkpt lat="44.1333" lon="7.24279">
        <ele>1978.5999755859</ele>
        <time>2019-02-10T14:20:26.000Z</time>
      </trkpt>
      <trkpt lat="44.13325" lon="7.24292">
        <ele>1977.1999511719</ele>
        <time>2019-02-10T14:20:29.000Z</time>
      </trkpt>
      <trkpt lat="44.13319" lon="7.243">
        <ele>1976</ele>
        <time>2019-02-10T14:20:31.000Z</time>
      </trkpt>
      <trkpt lat="44.13312" lon="7.2431">
        <ele>1974.8000488281</ele>
        <time>2019-02-10T14:20:33.000Z</time>
      </trkpt>
      <trkpt lat="44.13304" lon="7.2433">
        <ele>1973.4000244141</ele>
        <time>2019-02-10T14:20:36.000Z</time>
      </trkpt>
      <trkpt lat="44.13302" lon="7.24343">
        <ele>1972.5999755859</ele>
        <time>2019-02-10T14:20:38.000Z</time>
      </trkpt>
      <trkpt lat="44.13302" lon="7.24348">
        <ele>1972.1999511719</ele>
        <time>2019-02-10T14:20:39.000Z</time>
      </trkpt>
      <trkpt lat="44.13302" lon="7.24355">
        <ele>1971.1999511719</ele>
        <time>2019-02-10T14:20:41.000Z</time>
      </trkpt>
      <trkpt lat="44.13302" lon="7.24365">
        <ele>1969.8000488281</ele>
        <time>2019-02-10T14:20:44.000Z</time>
      </trkpt>
      <trkpt lat="44.133" lon="7.24383">
        <ele>1968.5999755859</ele>
        <time>2019-02-10T14:20:48.000Z</time>
      </trkpt>
      <trkpt lat="44.13299" lon="7.24395">
        <ele>1968</ele>
        <time>2019-02-10T14:20:50.000Z</time>
      </trkpt>
      <trkpt lat="44.13297" lon="7.244">
        <ele>1967.5999755859</ele>
        <time>2019-02-10T14:20:51.000Z</time>
      </trkpt>
      <trkpt lat="44.13295" lon="7.24405">
        <ele>1967</ele>
        <time>2019-02-10T14:20:52.000Z</time>
      </trkpt>
      <trkpt lat="44.13294" lon="7.2441">
        <ele>1966.4000244141</ele>
        <time>2019-02-10T14:20:53.000Z</time>
      </trkpt>
      <trkpt lat="44.13291" lon="7.24424">
        <ele>1965</ele>
        <time>2019-02-10T14:20:56.000Z</time>
      </trkpt>
      <trkpt lat="44.13287" lon="7.2444">
        <ele>1964</ele>
        <time>2019-02-10T14:21:01.000Z</time>
      </trkpt>
      <trkpt lat="44.1328" lon="7.24453">
        <ele>1962.8000488281</ele>
        <time>2019-02-10T14:21:04.000Z</time>
      </trkpt>
      <trkpt lat="44.13276" lon="7.24466">
        <ele>1961.4000244141</ele>
        <time>2019-02-10T14:21:07.000Z</time>
      </trkpt>
      <trkpt lat="44.13273" lon="7.2448">
        <ele>1960.4000244141</ele>
        <time>2019-02-10T14:21:10.000Z</time>
      </trkpt>
      <trkpt lat="44.13272" lon="7.24498">
        <ele>1959.4000244141</ele>
        <time>2019-02-10T14:21:13.000Z</time>
      </trkpt>
      <trkpt lat="44.13265" lon="7.24512">
        <ele>1957.8000488281</ele>
        <time>2019-02-10T14:21:16.000Z</time>
      </trkpt>
      <trkpt lat="44.13261" lon="7.24525">
        <ele>1956.8000488281</ele>
        <time>2019-02-10T14:21:19.000Z</time>
      </trkpt>
      <trkpt lat="44.13256" lon="7.24539">
        <ele>1955.8000488281</ele>
        <time>2019-02-10T14:21:22.000Z</time>
      </trkpt>
      <trkpt lat="44.13241" lon="7.24562">
        <ele>1954.4000244141</ele>
        <time>2019-02-10T14:21:26.000Z</time>
      </trkpt>
      <trkpt lat="44.13236" lon="7.2457">
        <ele>1953.1999511719</ele>
        <time>2019-02-10T14:21:28.000Z</time>
      </trkpt>
      <trkpt lat="44.13235" lon="7.24572">
        <ele>1952.4000244141</ele>
        <time>2019-02-10T14:21:31.000Z</time>
      </trkpt>
      <trkpt lat="44.13234" lon="7.24574">
        <ele>1952.1999511719</ele>
        <time>2019-02-10T14:21:32.000Z</time>
      </trkpt>
      <trkpt lat="44.13233" lon="7.24578">
        <ele>1952.1999511719</ele>
        <time>2019-02-10T14:21:35.000Z</time>
      </trkpt>
      <trkpt lat="44.13234" lon="7.2459">
        <ele>1951.5999755859</ele>
        <time>2019-02-10T14:21:38.000Z</time>
      </trkpt>
      <trkpt lat="44.13234" lon="7.24592">
        <ele>1951.1999511719</ele>
        <time>2019-02-10T14:21:39.000Z</time>
      </trkpt>
      <trkpt lat="44.13234" lon="7.24593">
        <ele>1950.8000488281</ele>
        <time>2019-02-10T14:21:40.000Z</time>
      </trkpt>
      <trkpt lat="44.1323" lon="7.24602">
        <ele>1950.1999511719</ele>
        <time>2019-02-10T14:21:44.000Z</time>
      </trkpt>
      <trkpt lat="44.13228" lon="7.24606">
        <ele>1950</ele>
        <time>2019-02-10T14:21:47.000Z</time>
      </trkpt>
      <trkpt lat="44.13228" lon="7.24607">
        <ele>1950</ele>
        <time>2019-02-10T14:21:48.000Z</time>
      </trkpt>
      <trkpt lat="44.13222" lon="7.24616">
        <ele>1950</ele>
        <time>2019-02-10T14:21:52.000Z</time>
      </trkpt>
      <trkpt lat="44.13209" lon="7.24626">
        <ele>1948.5999755859</ele>
        <time>2019-02-10T14:21:56.000Z</time>
      </trkpt>
      <trkpt lat="44.132" lon="7.24631">
        <ele>1947.4000244141</ele>
        <time>2019-02-10T14:21:59.000Z</time>
      </trkpt>
      <trkpt lat="44.13196" lon="7.24634">
        <ele>1946.4000244141</ele>
        <time>2019-02-10T14:22:01.000Z</time>
      </trkpt>
      <trkpt lat="44.13195" lon="7.24636">
        <ele>1945.1999511719</ele>
        <time>2019-02-10T14:22:03.000Z</time>
      </trkpt>
      <trkpt lat="44.13194" lon="7.24642">
        <ele>1944</ele>
        <time>2019-02-10T14:22:06.000Z</time>
      </trkpt>
      <trkpt lat="44.1319" lon="7.24648">
        <ele>1943</ele>
        <time>2019-02-10T14:22:08.000Z</time>
      </trkpt>
      <trkpt lat="44.13187" lon="7.24654">
        <ele>1942.1999511719</ele>
        <time>2019-02-10T14:22:09.000Z</time>
      </trkpt>
      <trkpt lat="44.13186" lon="7.24659">
        <ele>1941.1999511719</ele>
        <time>2019-02-10T14:22:10.000Z</time>
      </trkpt>
      <trkpt lat="44.13185" lon="7.24665">
        <ele>1940</ele>
        <time>2019-02-10T14:22:12.000Z</time>
      </trkpt>
      <trkpt lat="44.13182" lon="7.2467">
        <ele>1938.8000488281</ele>
        <time>2019-02-10T14:22:15.000Z</time>
      </trkpt>
      <trkpt lat="44.13179" lon="7.24672">
        <ele>1938.4000244141</ele>
        <time>2019-02-10T14:22:17.000Z</time>
      </trkpt>
      <trkpt lat="44.13177" lon="7.24672">
        <ele>1938.1999511719</ele>
        <time>2019-02-10T14:22:18.000Z</time>
      </trkpt>
      <trkpt lat="44.13176" lon="7.24672">
        <ele>1938</ele>
        <time>2019-02-10T14:22:19.000Z</time>
      </trkpt>
      <trkpt lat="44.13176" lon="7.24672">
        <ele>1937.8000488281</ele>
        <time>2019-02-10T14:22:20.000Z</time>
      </trkpt>
      <trkpt lat="44.13169" lon="7.24676">
        <ele>1937.1999511719</ele>
        <time>2019-02-10T14:22:24.000Z</time>
      </trkpt>
      <trkpt lat="44.13163" lon="7.24682">
        <ele>1936.4000244141</ele>
        <time>2019-02-10T14:22:26.000Z</time>
      </trkpt>
      <trkpt lat="44.13156" lon="7.24689">
        <ele>1935</ele>
        <time>2019-02-10T14:22:29.000Z</time>
      </trkpt>
      <trkpt lat="44.13148" lon="7.24695">
        <ele>1933.8000488281</ele>
        <time>2019-02-10T14:22:32.000Z</time>
      </trkpt>
      <trkpt lat="44.1314" lon="7.24705">
        <ele>1932.5999755859</ele>
        <time>2019-02-10T14:22:35.000Z</time>
      </trkpt>
      <trkpt lat="44.13132" lon="7.24715">
        <ele>1931.4000244141</ele>
        <time>2019-02-10T14:22:38.000Z</time>
      </trkpt>
      <trkpt lat="44.13124" lon="7.24722">
        <ele>1930.1999511719</ele>
        <time>2019-02-10T14:22:42.000Z</time>
      </trkpt>
      <trkpt lat="44.13106" lon="7.24733">
        <ele>1929</ele>
        <time>2019-02-10T14:22:47.000Z</time>
      </trkpt>
      <trkpt lat="44.13094" lon="7.24747">
        <ele>1927.5999755859</ele>
        <time>2019-02-10T14:22:50.000Z</time>
      </trkpt>
      <trkpt lat="44.13088" lon="7.24756">
        <ele>1926.1999511719</ele>
        <time>2019-02-10T14:22:52.000Z</time>
      </trkpt>
      <trkpt lat="44.13086" lon="7.24762">
        <ele>1925</ele>
        <time>2019-02-10T14:22:54.000Z</time>
      </trkpt>
      <trkpt lat="44.13084" lon="7.24769">
        <ele>1923.8000488281</ele>
        <time>2019-02-10T14:22:57.000Z</time>
      </trkpt>
      <trkpt lat="44.13083" lon="7.24772">
        <ele>1923</ele>
        <time>2019-02-10T14:22:59.000Z</time>
      </trkpt>
      <trkpt lat="44.13082" lon="7.24775">
        <ele>1922.5999755859</ele>
        <time>2019-02-10T14:23:00.000Z</time>
      </trkpt>
      <trkpt lat="44.13082" lon="7.24787">
        <ele>1921.5999755859</ele>
        <time>2019-02-10T14:23:06.000Z</time>
      </trkpt>
      <trkpt lat="44.13082" lon="7.24795">
        <ele>1921.4000244141</ele>
        <time>2019-02-10T14:23:08.000Z</time>
      </trkpt>
      <trkpt lat="44.13083" lon="7.24808">
        <ele>1920.4000244141</ele>
        <time>2019-02-10T14:23:11.000Z</time>
      </trkpt>
      <trkpt lat="44.13084" lon="7.24811">
        <ele>1919.8000488281</ele>
        <time>2019-02-10T14:23:12.000Z</time>
      </trkpt>
      <trkpt lat="44.13079" lon="7.24818">
        <ele>1919</ele>
        <time>2019-02-10T14:23:14.000Z</time>
      </trkpt>
      <trkpt lat="44.13071" lon="7.24825">
        <ele>1917.8000488281</ele>
        <time>2019-02-10T14:23:17.000Z</time>
      </trkpt>
      <trkpt lat="44.13064" lon="7.24828">
        <ele>1916.8000488281</ele>
        <time>2019-02-10T14:23:20.000Z</time>
      </trkpt>
      <trkpt lat="44.13062" lon="7.24829">
        <ele>1916.4000244141</ele>
        <time>2019-02-10T14:23:21.000Z</time>
      </trkpt>
      <trkpt lat="44.13059" lon="7.24836">
        <ele>1915.5999755859</ele>
        <time>2019-02-10T14:23:23.000Z</time>
      </trkpt>
      <trkpt lat="44.13052" lon="7.24851">
        <ele>1914.5999755859</ele>
        <time>2019-02-10T14:23:27.000Z</time>
      </trkpt>
      <trkpt lat="44.13049" lon="7.24858">
        <ele>1914</ele>
        <time>2019-02-10T14:23:30.000Z</time>
      </trkpt>
      <trkpt lat="44.13047" lon="7.24861">
        <ele>1914</ele>
        <time>2019-02-10T14:23:32.000Z</time>
      </trkpt>
      <trkpt lat="44.13044" lon="7.24864">
        <ele>1914</ele>
        <time>2019-02-10T14:23:37.000Z</time>
      </trkpt>
      <trkpt lat="44.13042" lon="7.24866">
        <ele>1914</ele>
        <time>2019-02-10T14:23:40.000Z</time>
      </trkpt>
      <trkpt lat="44.13038" lon="7.24866">
        <ele>1914.4000244141</ele>
        <time>2019-02-10T14:23:52.000Z</time>
      </trkpt>
      <trkpt lat="44.13033" lon="7.2487">
        <ele>1914.1999511719</ele>
        <time>2019-02-10T14:23:55.000Z</time>
      </trkpt>
      <trkpt lat="44.1303" lon="7.24874">
        <ele>1914</ele>
        <time>2019-02-10T14:23:57.000Z</time>
      </trkpt>
      <trkpt lat="44.13026" lon="7.24875">
        <ele>1913.4000244141</ele>
        <time>2019-02-10T14:24:00.000Z</time>
      </trkpt>
      <trkpt lat="44.13015" lon="7.24883">
        <ele>1912.8000488281</ele>
        <time>2019-02-10T14:24:04.000Z</time>
      </trkpt>
      <trkpt lat="44.13014" lon="7.24883">
        <ele>1912.5999755859</ele>
        <time>2019-02-10T14:24:05.000Z</time>
      </trkpt>
      <trkpt lat="44.13012" lon="7.24884">
        <ele>1912.1999511719</ele>
        <time>2019-02-10T14:24:06.000Z</time>
      </trkpt>
      <trkpt lat="44.13" lon="7.24886">
        <ele>1910.8000488281</ele>
        <time>2019-02-10T14:24:10.000Z</time>
      </trkpt>
      <trkpt lat="44.12999" lon="7.24887">
        <ele>1910.1999511719</ele>
        <time>2019-02-10T14:24:11.000Z</time>
      </trkpt>
      <trkpt lat="44.12998" lon="7.24891">
        <ele>1909.8000488281</ele>
        <time>2019-02-10T14:24:12.000Z</time>
      </trkpt>
      <trkpt lat="44.12998" lon="7.24897">
        <ele>1909</ele>
        <time>2019-02-10T14:24:14.000Z</time>
      </trkpt>
      <trkpt lat="44.12996" lon="7.249">
        <ele>1908.4000244141</ele>
        <time>2019-02-10T14:24:15.000Z</time>
      </trkpt>
      <trkpt lat="44.12994" lon="7.24901">
        <ele>1907.1999511719</ele>
        <time>2019-02-10T14:24:17.000Z</time>
      </trkpt>
      <trkpt lat="44.12993" lon="7.24903">
        <ele>1906.1999511719</ele>
        <time>2019-02-10T14:24:20.000Z</time>
      </trkpt>
      <trkpt lat="44.12992" lon="7.24904">
        <ele>1906.1999511719</ele>
        <time>2019-02-10T14:24:24.000Z</time>
      </trkpt>
      <trkpt lat="44.12988" lon="7.24914">
        <ele>1906</ele>
        <time>2019-02-10T14:24:29.000Z</time>
      </trkpt>
      <trkpt lat="44.12989" lon="7.24917">
        <ele>1905</ele>
        <time>2019-02-10T14:24:31.000Z</time>
      </trkpt>
      <trkpt lat="44.1299" lon="7.24916">
        <ele>1903.8000488281</ele>
        <time>2019-02-10T14:24:34.000Z</time>
      </trkpt>
      <trkpt lat="44.1299" lon="7.24924">
        <ele>1903.1999511719</ele>
        <time>2019-02-10T14:24:42.000Z</time>
      </trkpt>
      <trkpt lat="44.12987" lon="7.24935">
        <ele>1903</ele>
        <time>2019-02-10T14:24:45.000Z</time>
      </trkpt>
      <trkpt lat="44.12982" lon="7.2494">
        <ele>1902.4000244141</ele>
        <time>2019-02-10T14:24:47.000Z</time>
      </trkpt>
      <trkpt lat="44.12979" lon="7.2494">
        <ele>1901.1999511719</ele>
        <time>2019-02-10T14:24:49.000Z</time>
      </trkpt>
      <trkpt lat="44.12974" lon="7.24942">
        <ele>1899.8000488281</ele>
        <time>2019-02-10T14:24:51.000Z</time>
      </trkpt>
      <trkpt lat="44.12973" lon="7.24942">
        <ele>1899.4000244141</ele>
        <time>2019-02-10T14:24:52.000Z</time>
      </trkpt>
      <trkpt lat="44.12972" lon="7.24942">
        <ele>1898.5999755859</ele>
        <time>2019-02-10T14:24:54.000Z</time>
      </trkpt>
      <trkpt lat="44.12971" lon="7.24944">
        <ele>1898.4000244141</ele>
        <time>2019-02-10T14:24:56.000Z</time>
      </trkpt>
      <trkpt lat="44.12969" lon="7.24943">
        <ele>1898.1999511719</ele>
        <time>2019-02-10T14:24:58.000Z</time>
      </trkpt>
      <trkpt lat="44.1296" lon="7.24946">
        <ele>1897.8000488281</ele>
        <time>2019-02-10T14:25:03.000Z</time>
      </trkpt>
      <trkpt lat="44.12957" lon="7.24947">
        <ele>1897.4000244141</ele>
        <time>2019-02-10T14:25:04.000Z</time>
      </trkpt>
      <trkpt lat="44.12953" lon="7.24952">
        <ele>1897</ele>
        <time>2019-02-10T14:25:06.000Z</time>
      </trkpt>
      <trkpt lat="44.12949" lon="7.24966">
        <ele>1896.4000244141</ele>
        <time>2019-02-10T14:25:08.000Z</time>
      </trkpt>
      <trkpt lat="44.12943" lon="7.24974">
        <ele>1895</ele>
        <time>2019-02-10T14:25:10.000Z</time>
      </trkpt>
      <trkpt lat="44.12942" lon="7.24975">
        <ele>1894</ele>
        <time>2019-02-10T14:25:11.000Z</time>
      </trkpt>
      <trkpt lat="44.12941" lon="7.24976">
        <ele>1893</ele>
        <time>2019-02-10T14:25:12.000Z</time>
      </trkpt>
      <trkpt lat="44.12939" lon="7.24979">
        <ele>1891.4000244141</ele>
        <time>2019-02-10T14:25:14.000Z</time>
      </trkpt>
      <trkpt lat="44.12933" lon="7.24987">
        <ele>1890.4000244141</ele>
        <time>2019-02-10T14:25:18.000Z</time>
      </trkpt>
      <trkpt lat="44.12932" lon="7.24989">
        <ele>1890.1999511719</ele>
        <time>2019-02-10T14:25:19.000Z</time>
      </trkpt>
      <trkpt lat="44.1293" lon="7.24991">
        <ele>1889.5999755859</ele>
        <time>2019-02-10T14:25:21.000Z</time>
      </trkpt>
      <trkpt lat="44.1293" lon="7.24992">
        <ele>1889.1999511719</ele>
        <time>2019-02-10T14:25:22.000Z</time>
      </trkpt>
      <trkpt lat="44.12925" lon="7.24997">
        <ele>1888.1999511719</ele>
        <time>2019-02-10T14:25:29.000Z</time>
      </trkpt>
      <trkpt lat="44.12925" lon="7.24997">
        <ele>1888.1999511719</ele>
        <time>2019-02-10T14:25:33.000Z</time>
      </trkpt>
      <trkpt lat="44.12924" lon="7.24998">
        <ele>1888.1999511719</ele>
        <time>2019-02-10T14:25:35.000Z</time>
      </trkpt>
      <trkpt lat="44.12924" lon="7.24999">
        <ele>1888.4000244141</ele>
        <time>2019-02-10T14:25:41.000Z</time>
      </trkpt>
      <trkpt lat="44.12924" lon="7.25">
        <ele>1888.4000244141</ele>
        <time>2019-02-10T14:25:45.000Z</time>
      </trkpt>
      <trkpt lat="44.12924" lon="7.25">
        <ele>1888.4000244141</ele>
        <time>2019-02-10T14:25:50.000Z</time>
      </trkpt>
      <trkpt lat="44.12924" lon="7.25002">
        <ele>1888.4000244141</ele>
        <time>2019-02-10T14:25:53.000Z</time>
      </trkpt>
      <trkpt lat="44.12923" lon="7.25007">
        <ele>1888.4000244141</ele>
        <time>2019-02-10T14:25:55.000Z</time>
      </trkpt>
      <trkpt lat="44.12922" lon="7.2501">
        <ele>1888.4000244141</ele>
        <time>2019-02-10T14:25:56.000Z</time>
      </trkpt>
      <trkpt lat="44.12913" lon="7.2503">
        <ele>1887</ele>
        <time>2019-02-10T14:26:01.000Z</time>
      </trkpt>
      <trkpt lat="44.1291" lon="7.25039">
        <ele>1885.8000488281</ele>
        <time>2019-02-10T14:26:03.000Z</time>
      </trkpt>
      <trkpt lat="44.12904" lon="7.25045">
        <ele>1884.8000488281</ele>
        <time>2019-02-10T14:26:05.000Z</time>
      </trkpt>
      <trkpt lat="44.129" lon="7.25048">
        <ele>1883.5999755859</ele>
        <time>2019-02-10T14:26:07.000Z</time>
      </trkpt>
      <trkpt lat="44.12901" lon="7.25054">
        <ele>1882.4000244141</ele>
        <time>2019-02-10T14:26:09.000Z</time>
      </trkpt>
      <trkpt lat="44.12901" lon="7.25063">
        <ele>1881.1999511719</ele>
        <time>2019-02-10T14:26:11.000Z</time>
      </trkpt>
      <trkpt lat="44.12902" lon="7.25068">
        <ele>1879.8000488281</ele>
        <time>2019-02-10T14:26:13.000Z</time>
      </trkpt>
      <trkpt lat="44.12902" lon="7.25069">
        <ele>1879</ele>
        <time>2019-02-10T14:26:14.000Z</time>
      </trkpt>
      <trkpt lat="44.12902" lon="7.2507">
        <ele>1878.4000244141</ele>
        <time>2019-02-10T14:26:15.000Z</time>
      </trkpt>
      <trkpt lat="44.129" lon="7.25073">
        <ele>1877.8000488281</ele>
        <time>2019-02-10T14:26:17.000Z</time>
      </trkpt>
      <trkpt lat="44.12898" lon="7.25074">
        <ele>1877.5999755859</ele>
        <time>2019-02-10T14:26:18.000Z</time>
      </trkpt>
      <trkpt lat="44.12897" lon="7.25076">
        <ele>1877.4000244141</ele>
        <time>2019-02-10T14:26:19.000Z</time>
      </trkpt>
      <trkpt lat="44.12895" lon="7.25081">
        <ele>1877</ele>
        <time>2019-02-10T14:26:21.000Z</time>
      </trkpt>
      <trkpt lat="44.12889" lon="7.25089">
        <ele>1875.8000488281</ele>
        <time>2019-02-10T14:26:24.000Z</time>
      </trkpt>
      <trkpt lat="44.12884" lon="7.25098">
        <ele>1874.5999755859</ele>
        <time>2019-02-10T14:26:26.000Z</time>
      </trkpt>
      <trkpt lat="44.12879" lon="7.25105">
        <ele>1873.5999755859</ele>
        <time>2019-02-10T14:26:28.000Z</time>
      </trkpt>
      <trkpt lat="44.1287" lon="7.25112">
        <ele>1872.4000244141</ele>
        <time>2019-02-10T14:26:31.000Z</time>
      </trkpt>
      <trkpt lat="44.12861" lon="7.2512">
        <ele>1871</ele>
        <time>2019-02-10T14:26:34.000Z</time>
      </trkpt>
      <trkpt lat="44.12859" lon="7.25131">
        <ele>1869.5999755859</ele>
        <time>2019-02-10T14:26:37.000Z</time>
      </trkpt>
      <trkpt lat="44.12856" lon="7.25142">
        <ele>1868.5999755859</ele>
        <time>2019-02-10T14:26:39.000Z</time>
      </trkpt>
      <trkpt lat="44.12856" lon="7.25152">
        <ele>1867.1999511719</ele>
        <time>2019-02-10T14:26:41.000Z</time>
      </trkpt>
      <trkpt lat="44.12855" lon="7.25155">
        <ele>1865.8000488281</ele>
        <time>2019-02-10T14:26:43.000Z</time>
      </trkpt>
      <trkpt lat="44.12854" lon="7.25163">
        <ele>1864.5999755859</ele>
        <time>2019-02-10T14:26:46.000Z</time>
      </trkpt>
      <trkpt lat="44.1285" lon="7.25172">
        <ele>1864</ele>
        <time>2019-02-10T14:26:48.000Z</time>
      </trkpt>
      <trkpt lat="44.12847" lon="7.25177">
        <ele>1863.1999511719</ele>
        <time>2019-02-10T14:26:50.000Z</time>
      </trkpt>
      <trkpt lat="44.12843" lon="7.25189">
        <ele>1862.1999511719</ele>
        <time>2019-02-10T14:26:54.000Z</time>
      </trkpt>
      <trkpt lat="44.1284" lon="7.25201">
        <ele>1861</ele>
        <time>2019-02-10T14:26:58.000Z</time>
      </trkpt>
      <trkpt lat="44.12838" lon="7.25206">
        <ele>1859.8000488281</ele>
        <time>2019-02-10T14:27:00.000Z</time>
      </trkpt>
      <trkpt lat="44.12838" lon="7.25207">
        <ele>1859.1999511719</ele>
        <time>2019-02-10T14:27:01.000Z</time>
      </trkpt>
      <trkpt lat="44.12837" lon="7.25209">
        <ele>1858.5999755859</ele>
        <time>2019-02-10T14:27:03.000Z</time>
      </trkpt>
      <trkpt lat="44.12835" lon="7.25213">
        <ele>1858.1999511719</ele>
        <time>2019-02-10T14:27:06.000Z</time>
      </trkpt>
      <trkpt lat="44.12828" lon="7.25226">
        <ele>1857.4000244141</ele>
        <time>2019-02-10T14:27:11.000Z</time>
      </trkpt>
      <trkpt lat="44.12827" lon="7.2523">
        <ele>1856.4000244141</ele>
        <time>2019-02-10T14:27:13.000Z</time>
      </trkpt>
      <trkpt lat="44.12826" lon="7.25231">
        <ele>1856</ele>
        <time>2019-02-10T14:27:14.000Z</time>
      </trkpt>
      <trkpt lat="44.12825" lon="7.25233">
        <ele>1855.1999511719</ele>
        <time>2019-02-10T14:27:17.000Z</time>
      </trkpt>
      <trkpt lat="44.12824" lon="7.25234">
        <ele>1855</ele>
        <time>2019-02-10T14:27:18.000Z</time>
      </trkpt>
      <trkpt lat="44.12819" lon="7.25245">
        <ele>1854.8000488281</ele>
        <time>2019-02-10T14:27:21.000Z</time>
      </trkpt>
      <trkpt lat="44.12813" lon="7.25255">
        <ele>1853.5999755859</ele>
        <time>2019-02-10T14:27:24.000Z</time>
      </trkpt>
      <trkpt lat="44.12812" lon="7.25256">
        <ele>1853</ele>
        <time>2019-02-10T14:27:25.000Z</time>
      </trkpt>
      <trkpt lat="44.12811" lon="7.25257">
        <ele>1852.4000244141</ele>
        <time>2019-02-10T14:27:26.000Z</time>
      </trkpt>
      <trkpt lat="44.1281" lon="7.25261">
        <ele>1851.8000488281</ele>
        <time>2019-02-10T14:27:29.000Z</time>
      </trkpt>
      <trkpt lat="44.1281" lon="7.25262">
        <ele>1851.5999755859</ele>
        <time>2019-02-10T14:27:31.000Z</time>
      </trkpt>
      <trkpt lat="44.12809" lon="7.25267">
        <ele>1851.5999755859</ele>
        <time>2019-02-10T14:27:33.000Z</time>
      </trkpt>
      <trkpt lat="44.12809" lon="7.25273">
        <ele>1851.5999755859</ele>
        <time>2019-02-10T14:27:35.000Z</time>
      </trkpt>
      <trkpt lat="44.12809" lon="7.25276">
        <ele>1851.4000244141</ele>
        <time>2019-02-10T14:27:36.000Z</time>
      </trkpt>
      <trkpt lat="44.12808" lon="7.25278">
        <ele>1850.8000488281</ele>
        <time>2019-02-10T14:27:38.000Z</time>
      </trkpt>
      <trkpt lat="44.12808" lon="7.25279">
        <ele>1850.4000244141</ele>
        <time>2019-02-10T14:27:39.000Z</time>
      </trkpt>
      <trkpt lat="44.12804" lon="7.25284">
        <ele>1849.5999755859</ele>
        <time>2019-02-10T14:27:42.000Z</time>
      </trkpt>
      <trkpt lat="44.12801" lon="7.25287">
        <ele>1849.4000244141</ele>
        <time>2019-02-10T14:27:43.000Z</time>
      </trkpt>
      <trkpt lat="44.12794" lon="7.25292">
        <ele>1848</ele>
        <time>2019-02-10T14:27:46.000Z</time>
      </trkpt>
      <trkpt lat="44.12793" lon="7.2529">
        <ele>1847.1999511719</ele>
        <time>2019-02-10T14:27:48.000Z</time>
      </trkpt>
      <trkpt lat="44.12792" lon="7.25289">
        <ele>1846.8000488281</ele>
        <time>2019-02-10T14:27:50.000Z</time>
      </trkpt>
      <trkpt lat="44.1279" lon="7.25294">
        <ele>1846.5999755859</ele>
        <time>2019-02-10T14:27:53.000Z</time>
      </trkpt>
      <trkpt lat="44.12786" lon="7.253">
        <ele>1846.1999511719</ele>
        <time>2019-02-10T14:27:55.000Z</time>
      </trkpt>
      <trkpt lat="44.12783" lon="7.25301">
        <ele>1845.5999755859</ele>
        <time>2019-02-10T14:27:56.000Z</time>
      </trkpt>
      <trkpt lat="44.12779" lon="7.25301">
        <ele>1844.4000244141</ele>
        <time>2019-02-10T14:27:58.000Z</time>
      </trkpt>
      <trkpt lat="44.12768" lon="7.25306">
        <ele>1843.1999511719</ele>
        <time>2019-02-10T14:28:01.000Z</time>
      </trkpt>
      <trkpt lat="44.12764" lon="7.25308">
        <ele>1842.5999755859</ele>
        <time>2019-02-10T14:28:02.000Z</time>
      </trkpt>
      <trkpt lat="44.12762" lon="7.25308">
        <ele>1842</ele>
        <time>2019-02-10T14:28:03.000Z</time>
      </trkpt>
      <trkpt lat="44.12759" lon="7.25308">
        <ele>1840.8000488281</ele>
        <time>2019-02-10T14:28:05.000Z</time>
      </trkpt>
      <trkpt lat="44.12756" lon="7.25311">
        <ele>1840.1999511719</ele>
        <time>2019-02-10T14:28:12.000Z</time>
      </trkpt>
      <trkpt lat="44.12755" lon="7.25308">
        <ele>1840.4000244141</ele>
        <time>2019-02-10T14:28:21.000Z</time>
      </trkpt>
      <trkpt lat="44.12753" lon="7.25311">
        <ele>1840.4000244141</ele>
        <time>2019-02-10T14:28:24.000Z</time>
      </trkpt>
      <trkpt lat="44.12744" lon="7.25304">
        <ele>1840.5999755859</ele>
        <time>2019-02-10T14:28:27.000Z</time>
      </trkpt>
      <trkpt lat="44.12744" lon="7.25307">
        <ele>1840.5999755859</ele>
        <time>2019-02-10T14:28:30.000Z</time>
      </trkpt>
      <trkpt lat="44.12744" lon="7.25307">
        <ele>1840.5999755859</ele>
        <time>2019-02-10T14:28:31.000Z</time>
      </trkpt>
      <trkpt lat="44.12742" lon="7.25313">
        <ele>1840.5999755859</ele>
        <time>2019-02-10T14:28:36.000Z</time>
      </trkpt>
      <trkpt lat="44.1275" lon="7.25315">
        <ele>1840.8000488281</ele>
        <time>2019-02-10T14:28:41.000Z</time>
      </trkpt>
      <trkpt lat="44.12751" lon="7.25317">
        <ele>1840.8000488281</ele>
        <time>2019-02-10T14:28:42.000Z</time>
      </trkpt>
      <trkpt lat="44.12752" lon="7.25321">
        <ele>1840.4000244141</ele>
        <time>2019-02-10T14:28:44.000Z</time>
      </trkpt>
      <trkpt lat="44.12752" lon="7.25321">
        <ele>1840.1999511719</ele>
        <time>2019-02-10T14:28:45.000Z</time>
      </trkpt>
      <trkpt lat="44.12754" lon="7.25322">
        <ele>1840</ele>
        <time>2019-02-10T14:28:46.000Z</time>
      </trkpt>
      <trkpt lat="44.12756" lon="7.25322">
        <ele>1839.8000488281</ele>
        <time>2019-02-10T14:28:48.000Z</time>
      </trkpt>
      <trkpt lat="44.12759" lon="7.25321">
        <ele>1839.5999755859</ele>
        <time>2019-02-10T14:28:51.000Z</time>
      </trkpt>
      <trkpt lat="44.12762" lon="7.2532">
        <ele>1839.5999755859</ele>
        <time>2019-02-10T14:28:54.000Z</time>
      </trkpt>
      <trkpt lat="44.12766" lon="7.25323">
        <ele>1839.1999511719</ele>
        <time>2019-02-10T14:28:57.000Z</time>
      </trkpt>
      <trkpt lat="44.12767" lon="7.25325">
        <ele>1839</ele>
        <time>2019-02-10T14:28:58.000Z</time>
      </trkpt>
      <trkpt lat="44.12767" lon="7.25328">
        <ele>1838.5999755859</ele>
        <time>2019-02-10T14:28:59.000Z</time>
      </trkpt>
      <trkpt lat="44.12767" lon="7.25334">
        <ele>1838</ele>
        <time>2019-02-10T14:29:01.000Z</time>
      </trkpt>
      <trkpt lat="44.12767" lon="7.25336">
        <ele>1837.5999755859</ele>
        <time>2019-02-10T14:29:02.000Z</time>
      </trkpt>
      <trkpt lat="44.12768" lon="7.25338">
        <ele>1837.4000244141</ele>
        <time>2019-02-10T14:29:03.000Z</time>
      </trkpt>
      <trkpt lat="44.12772" lon="7.25344">
        <ele>1836.5999755859</ele>
        <time>2019-02-10T14:29:06.000Z</time>
      </trkpt>
      <trkpt lat="44.12774" lon="7.25346">
        <ele>1836.1999511719</ele>
        <time>2019-02-10T14:29:07.000Z</time>
      </trkpt>
      <trkpt lat="44.12775" lon="7.25353">
        <ele>1835.8000488281</ele>
        <time>2019-02-10T14:29:10.000Z</time>
      </trkpt>
      <trkpt lat="44.12774" lon="7.25356">
        <ele>1835.4000244141</ele>
        <time>2019-02-10T14:29:12.000Z</time>
      </trkpt>
      <trkpt lat="44.12771" lon="7.25364">
        <ele>1835.4000244141</ele>
        <time>2019-02-10T14:29:19.000Z</time>
      </trkpt>
      <trkpt lat="44.12767" lon="7.25367">
        <ele>1835.4000244141</ele>
        <time>2019-02-10T14:29:21.000Z</time>
      </trkpt>
      <trkpt lat="44.12756" lon="7.25391">
        <ele>1834.1999511719</ele>
        <time>2019-02-10T14:29:27.000Z</time>
      </trkpt>
      <trkpt lat="44.12749" lon="7.25405">
        <ele>1833.1999511719</ele>
        <time>2019-02-10T14:29:31.000Z</time>
      </trkpt>
      <trkpt lat="44.12747" lon="7.25408">
        <ele>1833</ele>
        <time>2019-02-10T14:29:32.000Z</time>
      </trkpt>
      <trkpt lat="44.12739" lon="7.25418">
        <ele>1831.8000488281</ele>
        <time>2019-02-10T14:29:35.000Z</time>
      </trkpt>
      <trkpt lat="44.12735" lon="7.25425">
        <ele>1830.5999755859</ele>
        <time>2019-02-10T14:29:37.000Z</time>
      </trkpt>
      <trkpt lat="44.12732" lon="7.25437">
        <ele>1829.5999755859</ele>
        <time>2019-02-10T14:29:39.000Z</time>
      </trkpt>
      <trkpt lat="44.12731" lon="7.25447">
        <ele>1828.4000244141</ele>
        <time>2019-02-10T14:29:42.000Z</time>
      </trkpt>
      <trkpt lat="44.12727" lon="7.25453">
        <ele>1827.1999511719</ele>
        <time>2019-02-10T14:29:45.000Z</time>
      </trkpt>
      <trkpt lat="44.12727" lon="7.25457">
        <ele>1825.8000488281</ele>
        <time>2019-02-10T14:29:48.000Z</time>
      </trkpt>
      <trkpt lat="44.12725" lon="7.25465">
        <ele>1824.4000244141</ele>
        <time>2019-02-10T14:29:51.000Z</time>
      </trkpt>
      <trkpt lat="44.12725" lon="7.25466">
        <ele>1823.4000244141</ele>
        <time>2019-02-10T14:29:53.000Z</time>
      </trkpt>
      <trkpt lat="44.12723" lon="7.25468">
        <ele>1822.4000244141</ele>
        <time>2019-02-10T14:29:59.000Z</time>
      </trkpt>
      <trkpt lat="44.12723" lon="7.25472">
        <ele>1822</ele>
        <time>2019-02-10T14:30:02.000Z</time>
      </trkpt>
      <trkpt lat="44.12724" lon="7.25476">
        <ele>1821.8000488281</ele>
        <time>2019-02-10T14:30:04.000Z</time>
      </trkpt>
      <trkpt lat="44.12726" lon="7.25479">
        <ele>1821.1999511719</ele>
        <time>2019-02-10T14:30:06.000Z</time>
      </trkpt>
      <trkpt lat="44.12728" lon="7.25482">
        <ele>1820.4000244141</ele>
        <time>2019-02-10T14:30:08.000Z</time>
      </trkpt>
      <trkpt lat="44.12728" lon="7.25484">
        <ele>1820</ele>
        <time>2019-02-10T14:30:09.000Z</time>
      </trkpt>
      <trkpt lat="44.12728" lon="7.25486">
        <ele>1819.4000244141</ele>
        <time>2019-02-10T14:30:11.000Z</time>
      </trkpt>
      <trkpt lat="44.12728" lon="7.25487">
        <ele>1819</ele>
        <time>2019-02-10T14:30:12.000Z</time>
      </trkpt>
      <trkpt lat="44.12728" lon="7.25487">
        <ele>1818.5999755859</ele>
        <time>2019-02-10T14:30:13.000Z</time>
      </trkpt>
      <trkpt lat="44.12728" lon="7.25488">
        <ele>1818</ele>
        <time>2019-02-10T14:30:17.000Z</time>
      </trkpt>
      <trkpt lat="44.12728" lon="7.25488">
        <ele>1817.8000488281</ele>
        <time>2019-02-10T14:30:18.000Z</time>
      </trkpt>
      <trkpt lat="44.12728" lon="7.25485">
        <ele>1817.8000488281</ele>
        <time>2019-02-10T14:30:22.000Z</time>
      </trkpt>
      <trkpt lat="44.12724" lon="7.25488">
        <ele>1816.5999755859</ele>
        <time>2019-02-10T14:30:33.000Z</time>
      </trkpt>
      <trkpt lat="44.12721" lon="7.2549">
        <ele>1815.5999755859</ele>
        <time>2019-02-10T14:30:38.000Z</time>
      </trkpt>
      <trkpt lat="44.12718" lon="7.25491">
        <ele>1815.5999755859</ele>
        <time>2019-02-10T14:30:41.000Z</time>
      </trkpt>
      <trkpt lat="44.12716" lon="7.25495">
        <ele>1815.1999511719</ele>
        <time>2019-02-10T14:30:43.000Z</time>
      </trkpt>
      <trkpt lat="44.12714" lon="7.25502">
        <ele>1814.4000244141</ele>
        <time>2019-02-10T14:30:45.000Z</time>
      </trkpt>
      <trkpt lat="44.12712" lon="7.25512">
        <ele>1813.4000244141</ele>
        <time>2019-02-10T14:30:47.000Z</time>
      </trkpt>
      <trkpt lat="44.1271" lon="7.2552">
        <ele>1811.5999755859</ele>
        <time>2019-02-10T14:30:49.000Z</time>
      </trkpt>
      <trkpt lat="44.12709" lon="7.25525">
        <ele>1810.5999755859</ele>
        <time>2019-02-10T14:30:50.000Z</time>
      </trkpt>
      <trkpt lat="44.1271" lon="7.25532">
        <ele>1809.5999755859</ele>
        <time>2019-02-10T14:30:51.000Z</time>
      </trkpt>
      <trkpt lat="44.12714" lon="7.25545">
        <ele>1807.8000488281</ele>
        <time>2019-02-10T14:30:53.000Z</time>
      </trkpt>
      <trkpt lat="44.12714" lon="7.2556">
        <ele>1806.4000244141</ele>
        <time>2019-02-10T14:30:55.000Z</time>
      </trkpt>
      <trkpt lat="44.12713" lon="7.25573">
        <ele>1804.8000488281</ele>
        <time>2019-02-10T14:30:57.000Z</time>
      </trkpt>
      <trkpt lat="44.12712" lon="7.25588">
        <ele>1803.1999511719</ele>
        <time>2019-02-10T14:30:59.000Z</time>
      </trkpt>
      <trkpt lat="44.12708" lon="7.25603">
        <ele>1801.5999755859</ele>
        <time>2019-02-10T14:31:01.000Z</time>
      </trkpt>
      <trkpt lat="44.12705" lon="7.25616">
        <ele>1800.1999511719</ele>
        <time>2019-02-10T14:31:03.000Z</time>
      </trkpt>
      <trkpt lat="44.12703" lon="7.25629">
        <ele>1798.8000488281</ele>
        <time>2019-02-10T14:31:05.000Z</time>
      </trkpt>
      <trkpt lat="44.12702" lon="7.25643">
        <ele>1797.5999755859</ele>
        <time>2019-02-10T14:31:08.000Z</time>
      </trkpt>
      <trkpt lat="44.12702" lon="7.25644">
        <ele>1796.8000488281</ele>
        <time>2019-02-10T14:31:10.000Z</time>
      </trkpt>
      <trkpt lat="44.12703" lon="7.25645">
        <ele>1796.4000244141</ele>
        <time>2019-02-10T14:31:13.000Z</time>
      </trkpt>
      <trkpt lat="44.12702" lon="7.25647">
        <ele>1796.4000244141</ele>
        <time>2019-02-10T14:31:15.000Z</time>
      </trkpt>
      <trkpt lat="44.12702" lon="7.25648">
        <ele>1796.1999511719</ele>
        <time>2019-02-10T14:31:17.000Z</time>
      </trkpt>
      <trkpt lat="44.12702" lon="7.25645">
        <ele>1795.8000488281</ele>
        <time>2019-02-10T14:31:37.000Z</time>
      </trkpt>
      <trkpt lat="44.12701" lon="7.25646">
        <ele>1795.5999755859</ele>
        <time>2019-02-10T14:31:44.000Z</time>
      </trkpt>
      <trkpt lat="44.12702" lon="7.25646">
        <ele>1795.5999755859</ele>
        <time>2019-02-10T14:31:46.000Z</time>
      </trkpt>
      <trkpt lat="44.12705" lon="7.25646">
        <ele>1795.5999755859</ele>
        <time>2019-02-10T14:31:49.000Z</time>
      </trkpt>
      <trkpt lat="44.12705" lon="7.25649">
        <ele>1795.5999755859</ele>
        <time>2019-02-10T14:31:51.000Z</time>
      </trkpt>
      <trkpt lat="44.12704" lon="7.25651">
        <ele>1795.5999755859</ele>
        <time>2019-02-10T14:31:52.000Z</time>
      </trkpt>
      <trkpt lat="44.12703" lon="7.25653">
        <ele>1795.5999755859</ele>
        <time>2019-02-10T14:31:53.000Z</time>
      </trkpt>
      <trkpt lat="44.12702" lon="7.25655">
        <ele>1795.4000244141</ele>
        <time>2019-02-10T14:31:54.000Z</time>
      </trkpt>
      <trkpt lat="44.12697" lon="7.25668">
        <ele>1794</ele>
        <time>2019-02-10T14:31:58.000Z</time>
      </trkpt>
      <trkpt lat="44.12696" lon="7.25679">
        <ele>1793</ele>
        <time>2019-02-10T14:32:01.000Z</time>
      </trkpt>
      <trkpt lat="44.12695" lon="7.25683">
        <ele>1792.5999755859</ele>
        <time>2019-02-10T14:32:02.000Z</time>
      </trkpt>
      <trkpt lat="44.12692" lon="7.25689">
        <ele>1791.5999755859</ele>
        <time>2019-02-10T14:32:04.000Z</time>
      </trkpt>
      <trkpt lat="44.12693" lon="7.25689">
        <ele>1790</ele>
        <time>2019-02-10T14:32:06.000Z</time>
      </trkpt>
      <trkpt lat="44.12692" lon="7.25694">
        <ele>1789</ele>
        <time>2019-02-10T14:32:08.000Z</time>
      </trkpt>
      <trkpt lat="44.12689" lon="7.257">
        <ele>1787.8000488281</ele>
        <time>2019-02-10T14:32:10.000Z</time>
      </trkpt>
      <trkpt lat="44.12687" lon="7.25705">
        <ele>1786.5999755859</ele>
        <time>2019-02-10T14:32:12.000Z</time>
      </trkpt>
      <trkpt lat="44.12686" lon="7.25709">
        <ele>1785.5999755859</ele>
        <time>2019-02-10T14:32:14.000Z</time>
      </trkpt>
      <trkpt lat="44.12685" lon="7.25712">
        <ele>1784.8000488281</ele>
        <time>2019-02-10T14:32:15.000Z</time>
      </trkpt>
      <trkpt lat="44.12684" lon="7.25713">
        <ele>1784.1999511719</ele>
        <time>2019-02-10T14:32:16.000Z</time>
      </trkpt>
      <trkpt lat="44.12683" lon="7.25718">
        <ele>1783.1999511719</ele>
        <time>2019-02-10T14:32:18.000Z</time>
      </trkpt>
      <trkpt lat="44.12682" lon="7.25725">
        <ele>1781.8000488281</ele>
        <time>2019-02-10T14:32:21.000Z</time>
      </trkpt>
      <trkpt lat="44.12679" lon="7.25732">
        <ele>1780.4000244141</ele>
        <time>2019-02-10T14:32:23.000Z</time>
      </trkpt>
      <trkpt lat="44.12676" lon="7.25742">
        <ele>1779</ele>
        <time>2019-02-10T14:32:25.000Z</time>
      </trkpt>
      <trkpt lat="44.12675" lon="7.25745">
        <ele>1778.4000244141</ele>
        <time>2019-02-10T14:32:26.000Z</time>
      </trkpt>
      <trkpt lat="44.12674" lon="7.25746">
        <ele>1778</ele>
        <time>2019-02-10T14:32:27.000Z</time>
      </trkpt>
      <trkpt lat="44.12673" lon="7.25749">
        <ele>1776.8000488281</ele>
        <time>2019-02-10T14:32:30.000Z</time>
      </trkpt>
      <trkpt lat="44.1267" lon="7.25751">
        <ele>1776.5999755859</ele>
        <time>2019-02-10T14:32:32.000Z</time>
      </trkpt>
      <trkpt lat="44.12666" lon="7.25757">
        <ele>1776.1999511719</ele>
        <time>2019-02-10T14:32:35.000Z</time>
      </trkpt>
      <trkpt lat="44.12665" lon="7.25761">
        <ele>1775.5999755859</ele>
        <time>2019-02-10T14:32:37.000Z</time>
      </trkpt>
      <trkpt lat="44.12664" lon="7.25764">
        <ele>1775.4000244141</ele>
        <time>2019-02-10T14:32:38.000Z</time>
      </trkpt>
      <trkpt lat="44.12655" lon="7.25773">
        <ele>1775.1999511719</ele>
        <time>2019-02-10T14:32:41.000Z</time>
      </trkpt>
      <trkpt lat="44.12654" lon="7.25775">
        <ele>1775.1999511719</ele>
        <time>2019-02-10T14:32:43.000Z</time>
      </trkpt>
      <trkpt lat="44.12652" lon="7.25773">
        <ele>1775.1999511719</ele>
        <time>2019-02-10T14:32:48.000Z</time>
      </trkpt>
      <trkpt lat="44.1265" lon="7.25768">
        <ele>1775.1999511719</ele>
        <time>2019-02-10T14:32:53.000Z</time>
      </trkpt>
      <trkpt lat="44.12639" lon="7.25775">
        <ele>1775.4000244141</ele>
        <time>2019-02-10T14:33:06.000Z</time>
      </trkpt>
      <trkpt lat="44.12641" lon="7.25776">
        <ele>1775.5999755859</ele>
        <time>2019-02-10T14:33:10.000Z</time>
      </trkpt>
      <trkpt lat="44.12638" lon="7.25777">
        <ele>1775.4000244141</ele>
        <time>2019-02-10T14:33:14.000Z</time>
      </trkpt>
      <trkpt lat="44.12636" lon="7.25778">
        <ele>1775.4000244141</ele>
        <time>2019-02-10T14:33:15.000Z</time>
      </trkpt>
      <trkpt lat="44.12632" lon="7.25779">
        <ele>1774.8000488281</ele>
        <time>2019-02-10T14:33:17.000Z</time>
      </trkpt>
      <trkpt lat="44.1263" lon="7.2578">
        <ele>1774.4000244141</ele>
        <time>2019-02-10T14:33:18.000Z</time>
      </trkpt>
      <trkpt lat="44.12619" lon="7.25785">
        <ele>1773.1999511719</ele>
        <time>2019-02-10T14:33:22.000Z</time>
      </trkpt>
      <trkpt lat="44.12611" lon="7.2579">
        <ele>1771.8000488281</ele>
        <time>2019-02-10T14:33:25.000Z</time>
      </trkpt>
      <trkpt lat="44.12608" lon="7.25799">
        <ele>1770.5999755859</ele>
        <time>2019-02-10T14:33:27.000Z</time>
      </trkpt>
      <trkpt lat="44.12606" lon="7.25805">
        <ele>1770</ele>
        <time>2019-02-10T14:33:28.000Z</time>
      </trkpt>
      <trkpt lat="44.12609" lon="7.25809">
        <ele>1769.4000244141</ele>
        <time>2019-02-10T14:33:29.000Z</time>
      </trkpt>
      <trkpt lat="44.12609" lon="7.25815">
        <ele>1768.8000488281</ele>
        <time>2019-02-10T14:33:30.000Z</time>
      </trkpt>
      <trkpt lat="44.12609" lon="7.2582">
        <ele>1768</ele>
        <time>2019-02-10T14:33:31.000Z</time>
      </trkpt>
      <trkpt lat="44.12608" lon="7.25827">
        <ele>1767.4000244141</ele>
        <time>2019-02-10T14:33:32.000Z</time>
      </trkpt>
      <trkpt lat="44.12608" lon="7.25832">
        <ele>1767</ele>
        <time>2019-02-10T14:33:33.000Z</time>
      </trkpt>
      <trkpt lat="44.12609" lon="7.25837">
        <ele>1766.4000244141</ele>
        <time>2019-02-10T14:33:34.000Z</time>
      </trkpt>
      <trkpt lat="44.12609" lon="7.25842">
        <ele>1766</ele>
        <time>2019-02-10T14:33:35.000Z</time>
      </trkpt>
      <trkpt lat="44.12609" lon="7.25848">
        <ele>1765.8000488281</ele>
        <time>2019-02-10T14:33:36.000Z</time>
      </trkpt>
      <trkpt lat="44.12615" lon="7.25865">
        <ele>1764.1999511719</ele>
        <time>2019-02-10T14:33:39.000Z</time>
      </trkpt>
      <trkpt lat="44.12617" lon="7.2587">
        <ele>1763.5999755859</ele>
        <time>2019-02-10T14:33:40.000Z</time>
      </trkpt>
      <trkpt lat="44.12618" lon="7.25874">
        <ele>1763</ele>
        <time>2019-02-10T14:33:41.000Z</time>
      </trkpt>
      <trkpt lat="44.1262" lon="7.25885">
        <ele>1761.5999755859</ele>
        <time>2019-02-10T14:33:43.000Z</time>
      </trkpt>
      <trkpt lat="44.12621" lon="7.25889">
        <ele>1760.8000488281</ele>
        <time>2019-02-10T14:33:44.000Z</time>
      </trkpt>
      <trkpt lat="44.12622" lon="7.25894">
        <ele>1760</ele>
        <time>2019-02-10T14:33:45.000Z</time>
      </trkpt>
      <trkpt lat="44.12623" lon="7.25906">
        <ele>1759.1999511719</ele>
        <time>2019-02-10T14:33:47.000Z</time>
      </trkpt>
      <trkpt lat="44.12622" lon="7.25913">
        <ele>1758.8000488281</ele>
        <time>2019-02-10T14:33:48.000Z</time>
      </trkpt>
      <trkpt lat="44.12622" lon="7.25919">
        <ele>1758.1999511719</ele>
        <time>2019-02-10T14:33:49.000Z</time>
      </trkpt>
      <trkpt lat="44.12622" lon="7.25926">
        <ele>1757.5999755859</ele>
        <time>2019-02-10T14:33:50.000Z</time>
      </trkpt>
      <trkpt lat="44.12624" lon="7.25936">
        <ele>1756.1999511719</ele>
        <time>2019-02-10T14:33:52.000Z</time>
      </trkpt>
      <trkpt lat="44.12625" lon="7.25941">
        <ele>1754.4000244141</ele>
        <time>2019-02-10T14:33:54.000Z</time>
      </trkpt>
      <trkpt lat="44.12625" lon="7.25945">
        <ele>1753.8000488281</ele>
        <time>2019-02-10T14:33:55.000Z</time>
      </trkpt>
      <trkpt lat="44.12628" lon="7.25948">
        <ele>1753.1999511719</ele>
        <time>2019-02-10T14:33:56.000Z</time>
      </trkpt>
      <trkpt lat="44.12624" lon="7.25958">
        <ele>1752</ele>
        <time>2019-02-10T14:33:58.000Z</time>
      </trkpt>
      <trkpt lat="44.12621" lon="7.25969">
        <ele>1750.4000244141</ele>
        <time>2019-02-10T14:34:00.000Z</time>
      </trkpt>
      <trkpt lat="44.12619" lon="7.25974">
        <ele>1749.1999511719</ele>
        <time>2019-02-10T14:34:01.000Z</time>
      </trkpt>
      <trkpt lat="44.12614" lon="7.25983">
        <ele>1747.4000244141</ele>
        <time>2019-02-10T14:34:03.000Z</time>
      </trkpt>
      <trkpt lat="44.12611" lon="7.25992">
        <ele>1746</ele>
        <time>2019-02-10T14:34:05.000Z</time>
      </trkpt>
      <trkpt lat="44.12608" lon="7.26007">
        <ele>1744.8000488281</ele>
        <time>2019-02-10T14:34:08.000Z</time>
      </trkpt>
      <trkpt lat="44.12604" lon="7.26022">
        <ele>1743.8000488281</ele>
        <time>2019-02-10T14:34:11.000Z</time>
      </trkpt>
      <trkpt lat="44.12598" lon="7.2604">
        <ele>1742.5999755859</ele>
        <time>2019-02-10T14:34:13.000Z</time>
      </trkpt>
      <trkpt lat="44.12596" lon="7.26058">
        <ele>1741.5999755859</ele>
        <time>2019-02-10T14:34:15.000Z</time>
      </trkpt>
      <trkpt lat="44.12599" lon="7.2607">
        <ele>1740.5999755859</ele>
        <time>2019-02-10T14:34:17.000Z</time>
      </trkpt>
      <trkpt lat="44.126" lon="7.26074">
        <ele>1739.5999755859</ele>
        <time>2019-02-10T14:34:19.000Z</time>
      </trkpt>
      <trkpt lat="44.12601" lon="7.26075">
        <ele>1738.5999755859</ele>
        <time>2019-02-10T14:34:23.000Z</time>
      </trkpt>
      <trkpt lat="44.12602" lon="7.26074">
        <ele>1738.4000244141</ele>
        <time>2019-02-10T14:34:26.000Z</time>
      </trkpt>
      <trkpt lat="44.12601" lon="7.26075">
        <ele>1738.4000244141</ele>
        <time>2019-02-10T14:34:27.000Z</time>
      </trkpt>
      <trkpt lat="44.12602" lon="7.26072">
        <ele>1738.4000244141</ele>
        <time>2019-02-10T14:34:34.000Z</time>
      </trkpt>
      <trkpt lat="44.12598" lon="7.2607">
        <ele>1738.4000244141</ele>
        <time>2019-02-10T14:34:42.000Z</time>
      </trkpt>
      <trkpt lat="44.12599" lon="7.26075">
        <ele>1738.4000244141</ele>
        <time>2019-02-10T14:34:49.000Z</time>
      </trkpt>
      <trkpt lat="44.12599" lon="7.2608">
        <ele>1738.4000244141</ele>
        <time>2019-02-10T14:34:51.000Z</time>
      </trkpt>
      <trkpt lat="44.12599" lon="7.26085">
        <ele>1738.1999511719</ele>
        <time>2019-02-10T14:34:53.000Z</time>
      </trkpt>
      <trkpt lat="44.12599" lon="7.26088">
        <ele>1738.1999511719</ele>
        <time>2019-02-10T14:34:54.000Z</time>
      </trkpt>
      <trkpt lat="44.12604" lon="7.26108">
        <ele>1737.4000244141</ele>
        <time>2019-02-10T14:35:00.000Z</time>
      </trkpt>
      <trkpt lat="44.12607" lon="7.26119">
        <ele>1736.5999755859</ele>
        <time>2019-02-10T14:35:04.000Z</time>
      </trkpt>
      <trkpt lat="44.12606" lon="7.26124">
        <ele>1736.4000244141</ele>
        <time>2019-02-10T14:35:06.000Z</time>
      </trkpt>
      <trkpt lat="44.12604" lon="7.26132">
        <ele>1736</ele>
        <time>2019-02-10T14:35:10.000Z</time>
      </trkpt>
      <trkpt lat="44.12599" lon="7.26147">
        <ele>1735.5999755859</ele>
        <time>2019-02-10T14:35:15.000Z</time>
      </trkpt>
      <trkpt lat="44.12599" lon="7.26151">
        <ele>1735.4000244141</ele>
        <time>2019-02-10T14:35:16.000Z</time>
      </trkpt>
      <trkpt lat="44.12599" lon="7.26155">
        <ele>1735.1999511719</ele>
        <time>2019-02-10T14:35:17.000Z</time>
      </trkpt>
      <trkpt lat="44.12601" lon="7.26159">
        <ele>1735.1999511719</ele>
        <time>2019-02-10T14:35:18.000Z</time>
      </trkpt>
      <trkpt lat="44.12598" lon="7.26177">
        <ele>1734.1999511719</ele>
        <time>2019-02-10T14:35:22.000Z</time>
      </trkpt>
      <trkpt lat="44.12596" lon="7.26195">
        <ele>1733.4000244141</ele>
        <time>2019-02-10T14:35:26.000Z</time>
      </trkpt>
      <trkpt lat="44.12596" lon="7.26199">
        <ele>1733</ele>
        <time>2019-02-10T14:35:27.000Z</time>
      </trkpt>
      <trkpt lat="44.12596" lon="7.26203">
        <ele>1732.8000488281</ele>
        <time>2019-02-10T14:35:28.000Z</time>
      </trkpt>
      <trkpt lat="44.12595" lon="7.26207">
        <ele>1732.5999755859</ele>
        <time>2019-02-10T14:35:29.000Z</time>
      </trkpt>
      <trkpt lat="44.12596" lon="7.26219">
        <ele>1731.8000488281</ele>
        <time>2019-02-10T14:35:32.000Z</time>
      </trkpt>
      <trkpt lat="44.1259" lon="7.26237">
        <ele>1730.4000244141</ele>
        <time>2019-02-10T14:35:36.000Z</time>
      </trkpt>
      <trkpt lat="44.12587" lon="7.26247">
        <ele>1729.5999755859</ele>
        <time>2019-02-10T14:35:38.000Z</time>
      </trkpt>
      <trkpt lat="44.12586" lon="7.26252">
        <ele>1729.1999511719</ele>
        <time>2019-02-10T14:35:39.000Z</time>
      </trkpt>
      <trkpt lat="44.12585" lon="7.26256">
        <ele>1729</ele>
        <time>2019-02-10T14:35:40.000Z</time>
      </trkpt>
      <trkpt lat="44.12583" lon="7.26264">
        <ele>1728.5999755859</ele>
        <time>2019-02-10T14:35:42.000Z</time>
      </trkpt>
      <trkpt lat="44.12582" lon="7.26269">
        <ele>1728.4000244141</ele>
        <time>2019-02-10T14:35:43.000Z</time>
      </trkpt>
      <trkpt lat="44.12581" lon="7.26274">
        <ele>1728</ele>
        <time>2019-02-10T14:35:44.000Z</time>
      </trkpt>
      <trkpt lat="44.12583" lon="7.26289">
        <ele>1726.8000488281</ele>
        <time>2019-02-10T14:35:48.000Z</time>
      </trkpt>
      <trkpt lat="44.1259" lon="7.26301">
        <ele>1726</ele>
        <time>2019-02-10T14:35:54.000Z</time>
      </trkpt>
      <trkpt lat="44.1259" lon="7.26304">
        <ele>1725.8000488281</ele>
        <time>2019-02-10T14:35:55.000Z</time>
      </trkpt>
      <trkpt lat="44.1259" lon="7.26311">
        <ele>1725.5999755859</ele>
        <time>2019-02-10T14:35:57.000Z</time>
      </trkpt>
      <trkpt lat="44.12592" lon="7.26326">
        <ele>1724.8000488281</ele>
        <time>2019-02-10T14:36:01.000Z</time>
      </trkpt>
      <trkpt lat="44.1259" lon="7.26335">
        <ele>1724.4000244141</ele>
        <time>2019-02-10T14:36:03.000Z</time>
      </trkpt>
      <trkpt lat="44.12588" lon="7.26339">
        <ele>1724.1999511719</ele>
        <time>2019-02-10T14:36:04.000Z</time>
      </trkpt>
      <trkpt lat="44.12587" lon="7.26356">
        <ele>1723.5999755859</ele>
        <time>2019-02-10T14:36:08.000Z</time>
      </trkpt>
      <trkpt lat="44.12584" lon="7.26369">
        <ele>1723.1999511719</ele>
        <time>2019-02-10T14:36:11.000Z</time>
      </trkpt>
      <trkpt lat="44.12584" lon="7.26378">
        <ele>1722.8000488281</ele>
        <time>2019-02-10T14:36:13.000Z</time>
      </trkpt>
      <trkpt lat="44.12585" lon="7.26381">
        <ele>1722.5999755859</ele>
        <time>2019-02-10T14:36:14.000Z</time>
      </trkpt>
      <trkpt lat="44.12587" lon="7.26392">
        <ele>1721.8000488281</ele>
        <time>2019-02-10T14:36:17.000Z</time>
      </trkpt>
      <trkpt lat="44.12586" lon="7.26397">
        <ele>1721.4000244141</ele>
        <time>2019-02-10T14:36:18.000Z</time>
      </trkpt>
      <trkpt lat="44.12586" lon="7.26408">
        <ele>1720.8000488281</ele>
        <time>2019-02-10T14:36:20.000Z</time>
      </trkpt>
      <trkpt lat="44.12584" lon="7.26421">
        <ele>1720.4000244141</ele>
        <time>2019-02-10T14:36:22.000Z</time>
      </trkpt>
      <trkpt lat="44.12583" lon="7.26426">
        <ele>1720</ele>
        <time>2019-02-10T14:36:23.000Z</time>
      </trkpt>
      <trkpt lat="44.12582" lon="7.26431">
        <ele>1719.5999755859</ele>
        <time>2019-02-10T14:36:24.000Z</time>
      </trkpt>
      <trkpt lat="44.12582" lon="7.26435">
        <ele>1719.4000244141</ele>
        <time>2019-02-10T14:36:25.000Z</time>
      </trkpt>
      <trkpt lat="44.12582" lon="7.26438">
        <ele>1719</ele>
        <time>2019-02-10T14:36:26.000Z</time>
      </trkpt>
      <trkpt lat="44.12581" lon="7.26442">
        <ele>1718.8000488281</ele>
        <time>2019-02-10T14:36:27.000Z</time>
      </trkpt>
      <trkpt lat="44.1258" lon="7.26447">
        <ele>1718.8000488281</ele>
        <time>2019-02-10T14:36:28.000Z</time>
      </trkpt>
      <trkpt lat="44.12579" lon="7.26452">
        <ele>1718.5999755859</ele>
        <time>2019-02-10T14:36:29.000Z</time>
      </trkpt>
      <trkpt lat="44.12578" lon="7.26456">
        <ele>1718.4000244141</ele>
        <time>2019-02-10T14:36:30.000Z</time>
      </trkpt>
      <trkpt lat="44.12576" lon="7.26461">
        <ele>1718.1999511719</ele>
        <time>2019-02-10T14:36:31.000Z</time>
      </trkpt>
      <trkpt lat="44.12572" lon="7.26478">
        <ele>1717</ele>
        <time>2019-02-10T14:36:34.000Z</time>
      </trkpt>
      <trkpt lat="44.12565" lon="7.2649">
        <ele>1716.1999511719</ele>
        <time>2019-02-10T14:36:36.000Z</time>
      </trkpt>
      <trkpt lat="44.1256" lon="7.26498">
        <ele>1715.8000488281</ele>
        <time>2019-02-10T14:36:37.000Z</time>
      </trkpt>
      <trkpt lat="44.12558" lon="7.26503">
        <ele>1715.4000244141</ele>
        <time>2019-02-10T14:36:38.000Z</time>
      </trkpt>
      <trkpt lat="44.12553" lon="7.26512">
        <ele>1714.5999755859</ele>
        <time>2019-02-10T14:36:40.000Z</time>
      </trkpt>
      <trkpt lat="44.12548" lon="7.26525">
        <ele>1713.5999755859</ele>
        <time>2019-02-10T14:36:43.000Z</time>
      </trkpt>
      <trkpt lat="44.12544" lon="7.26538">
        <ele>1712.5999755859</ele>
        <time>2019-02-10T14:36:46.000Z</time>
      </trkpt>
      <trkpt lat="44.12542" lon="7.26542">
        <ele>1712.4000244141</ele>
        <time>2019-02-10T14:36:47.000Z</time>
      </trkpt>
      <trkpt lat="44.12539" lon="7.26557">
        <ele>1711.4000244141</ele>
        <time>2019-02-10T14:36:51.000Z</time>
      </trkpt>
      <trkpt lat="44.12538" lon="7.26561">
        <ele>1711</ele>
        <time>2019-02-10T14:36:52.000Z</time>
      </trkpt>
      <trkpt lat="44.12536" lon="7.26568">
        <ele>1710.4000244141</ele>
        <time>2019-02-10T14:36:54.000Z</time>
      </trkpt>
      <trkpt lat="44.12535" lon="7.26571">
        <ele>1710</ele>
        <time>2019-02-10T14:36:55.000Z</time>
      </trkpt>
      <trkpt lat="44.12533" lon="7.26578">
        <ele>1709.4000244141</ele>
        <time>2019-02-10T14:36:57.000Z</time>
      </trkpt>
      <trkpt lat="44.12532" lon="7.26584">
        <ele>1708.8000488281</ele>
        <time>2019-02-10T14:36:59.000Z</time>
      </trkpt>
      <trkpt lat="44.12529" lon="7.26593">
        <ele>1708</ele>
        <time>2019-02-10T14:37:02.000Z</time>
      </trkpt>
      <trkpt lat="44.12528" lon="7.26596">
        <ele>1707.5999755859</ele>
        <time>2019-02-10T14:37:03.000Z</time>
      </trkpt>
      <trkpt lat="44.12528" lon="7.266">
        <ele>1707.1999511719</ele>
        <time>2019-02-10T14:37:04.000Z</time>
      </trkpt>
      <trkpt lat="44.12525" lon="7.2661">
        <ele>1706.5999755859</ele>
        <time>2019-02-10T14:37:06.000Z</time>
      </trkpt>
      <trkpt lat="44.1252" lon="7.26621">
        <ele>1705.8000488281</ele>
        <time>2019-02-10T14:37:08.000Z</time>
      </trkpt>
      <trkpt lat="44.12518" lon="7.26626">
        <ele>1705.4000244141</ele>
        <time>2019-02-10T14:37:09.000Z</time>
      </trkpt>
      <trkpt lat="44.12513" lon="7.26637">
        <ele>1704.4000244141</ele>
        <time>2019-02-10T14:37:12.000Z</time>
      </trkpt>
      <trkpt lat="44.12503" lon="7.26654">
        <ele>1703.1999511719</ele>
        <time>2019-02-10T14:37:17.000Z</time>
      </trkpt>
      <trkpt lat="44.12497" lon="7.26661">
        <ele>1702.5999755859</ele>
        <time>2019-02-10T14:37:19.000Z</time>
      </trkpt>
      <trkpt lat="44.12495" lon="7.26663">
        <ele>1702.1999511719</ele>
        <time>2019-02-10T14:37:20.000Z</time>
      </trkpt>
      <trkpt lat="44.12489" lon="7.26667">
        <ele>1701.4000244141</ele>
        <time>2019-02-10T14:37:22.000Z</time>
      </trkpt>
      <trkpt lat="44.12485" lon="7.26671">
        <ele>1701</ele>
        <time>2019-02-10T14:37:23.000Z</time>
      </trkpt>
      <trkpt lat="44.12477" lon="7.26677">
        <ele>1700.1999511719</ele>
        <time>2019-02-10T14:37:25.000Z</time>
      </trkpt>
      <trkpt lat="44.12474" lon="7.26678">
        <ele>1699.5999755859</ele>
        <time>2019-02-10T14:37:26.000Z</time>
      </trkpt>
      <trkpt lat="44.12465" lon="7.26683">
        <ele>1698.5999755859</ele>
        <time>2019-02-10T14:37:29.000Z</time>
      </trkpt>
      <trkpt lat="44.12458" lon="7.26686">
        <ele>1698</ele>
        <time>2019-02-10T14:37:31.000Z</time>
      </trkpt>
      <trkpt lat="44.12455" lon="7.26689">
        <ele>1697.5999755859</ele>
        <time>2019-02-10T14:37:32.000Z</time>
      </trkpt>
      <trkpt lat="44.12438" lon="7.26719">
        <ele>1696.5999755859</ele>
        <time>2019-02-10T14:37:35.000Z</time>
      </trkpt>
      <trkpt lat="44.12433" lon="7.26726">
        <ele>1696.1999511719</ele>
        <time>2019-02-10T14:37:36.000Z</time>
      </trkpt>
      <trkpt lat="44.12422" lon="7.26748">
        <ele>1694.8000488281</ele>
        <time>2019-02-10T14:37:39.000Z</time>
      </trkpt>
      <trkpt lat="44.12413" lon="7.26763">
        <ele>1693.4000244141</ele>
        <time>2019-02-10T14:37:42.000Z</time>
      </trkpt>
      <trkpt lat="44.12411" lon="7.26768">
        <ele>1693</ele>
        <time>2019-02-10T14:37:43.000Z</time>
      </trkpt>
      <trkpt lat="44.12411" lon="7.26778">
        <ele>1692.4000244141</ele>
        <time>2019-02-10T14:37:44.000Z</time>
      </trkpt>
      <trkpt lat="44.12411" lon="7.268">
        <ele>1691.4000244141</ele>
        <time>2019-02-10T14:37:47.000Z</time>
      </trkpt>
      <trkpt lat="44.12412" lon="7.26807">
        <ele>1691</ele>
        <time>2019-02-10T14:37:48.000Z</time>
      </trkpt>
      <trkpt lat="44.12413" lon="7.26824">
        <ele>1689.5999755859</ele>
        <time>2019-02-10T14:37:51.000Z</time>
      </trkpt>
      <trkpt lat="44.1241" lon="7.26849">
        <ele>1688.5999755859</ele>
        <time>2019-02-10T14:37:55.000Z</time>
      </trkpt>
      <trkpt lat="44.12405" lon="7.26863">
        <ele>1687.1999511719</ele>
        <time>2019-02-10T14:37:58.000Z</time>
      </trkpt>
      <trkpt lat="44.124" lon="7.26878">
        <ele>1686.1999511719</ele>
        <time>2019-02-10T14:38:01.000Z</time>
      </trkpt>
      <trkpt lat="44.12395" lon="7.26896">
        <ele>1685.1999511719</ele>
        <time>2019-02-10T14:38:05.000Z</time>
      </trkpt>
      <trkpt lat="44.12389" lon="7.26912">
        <ele>1684</ele>
        <time>2019-02-10T14:38:09.000Z</time>
      </trkpt>
      <trkpt lat="44.12378" lon="7.26919">
        <ele>1682.8000488281</ele>
        <time>2019-02-10T14:38:13.000Z</time>
      </trkpt>
      <trkpt lat="44.12375" lon="7.26921">
        <ele>1682</ele>
        <time>2019-02-10T14:38:15.000Z</time>
      </trkpt>
      <trkpt lat="44.12371" lon="7.26926">
        <ele>1681.5999755859</ele>
        <time>2019-02-10T14:38:16.000Z</time>
      </trkpt>
      <trkpt lat="44.12361" lon="7.26932">
        <ele>1680.5999755859</ele>
        <time>2019-02-10T14:38:19.000Z</time>
      </trkpt>
      <trkpt lat="44.1236" lon="7.26928">
        <ele>1679.1999511719</ele>
        <time>2019-02-10T14:38:22.000Z</time>
      </trkpt>
      <trkpt lat="44.12351" lon="7.26958">
        <ele>1678.4000244141</ele>
        <time>2019-02-10T14:38:24.000Z</time>
      </trkpt>
      <trkpt lat="44.12352" lon="7.26963">
        <ele>1678</ele>
        <time>2019-02-10T14:38:25.000Z</time>
      </trkpt>
      <trkpt lat="44.12351" lon="7.26967">
        <ele>1677.5999755859</ele>
        <time>2019-02-10T14:38:26.000Z</time>
      </trkpt>
      <trkpt lat="44.12347" lon="7.26982">
        <ele>1677.4000244141</ele>
        <time>2019-02-10T14:38:27.000Z</time>
      </trkpt>
      <trkpt lat="44.12344" lon="7.26998">
        <ele>1676.5999755859</ele>
        <time>2019-02-10T14:38:29.000Z</time>
      </trkpt>
      <trkpt lat="44.12336" lon="7.27011">
        <ele>1675.8000488281</ele>
        <time>2019-02-10T14:38:32.000Z</time>
      </trkpt>
      <trkpt lat="44.12333" lon="7.27018">
        <ele>1675.5999755859</ele>
        <time>2019-02-10T14:38:33.000Z</time>
      </trkpt>
      <trkpt lat="44.12326" lon="7.27027">
        <ele>1675</ele>
        <time>2019-02-10T14:38:35.000Z</time>
      </trkpt>
      <trkpt lat="44.1232" lon="7.27033">
        <ele>1674.5999755859</ele>
        <time>2019-02-10T14:38:36.000Z</time>
      </trkpt>
      <trkpt lat="44.12316" lon="7.27039">
        <ele>1674.1999511719</ele>
        <time>2019-02-10T14:38:37.000Z</time>
      </trkpt>
      <trkpt lat="44.12311" lon="7.27042">
        <ele>1673.5999755859</ele>
        <time>2019-02-10T14:38:38.000Z</time>
      </trkpt>
      <trkpt lat="44.12306" lon="7.27045">
        <ele>1673.1999511719</ele>
        <time>2019-02-10T14:38:39.000Z</time>
      </trkpt>
      <trkpt lat="44.12302" lon="7.27048">
        <ele>1672.8000488281</ele>
        <time>2019-02-10T14:38:40.000Z</time>
      </trkpt>
      <trkpt lat="44.12296" lon="7.27051">
        <ele>1672.1999511719</ele>
        <time>2019-02-10T14:38:41.000Z</time>
      </trkpt>
      <trkpt lat="44.12291" lon="7.27055">
        <ele>1671.8000488281</ele>
        <time>2019-02-10T14:38:42.000Z</time>
      </trkpt>
      <trkpt lat="44.12283" lon="7.27066">
        <ele>1670.8000488281</ele>
        <time>2019-02-10T14:38:44.000Z</time>
      </trkpt>
      <trkpt lat="44.12279" lon="7.27073">
        <ele>1670.4000244141</ele>
        <time>2019-02-10T14:38:45.000Z</time>
      </trkpt>
      <trkpt lat="44.12273" lon="7.27084">
        <ele>1670</ele>
        <time>2019-02-10T14:38:46.000Z</time>
      </trkpt>
      <trkpt lat="44.12261" lon="7.27104">
        <ele>1669</ele>
        <time>2019-02-10T14:38:48.000Z</time>
      </trkpt>
      <trkpt lat="44.1226" lon="7.2711">
        <ele>1668.4000244141</ele>
        <time>2019-02-10T14:38:49.000Z</time>
      </trkpt>
      <trkpt lat="44.12258" lon="7.27116">
        <ele>1667.8000488281</ele>
        <time>2019-02-10T14:38:50.000Z</time>
      </trkpt>
      <trkpt lat="44.12255" lon="7.27122">
        <ele>1667.4000244141</ele>
        <time>2019-02-10T14:38:51.000Z</time>
      </trkpt>
      <trkpt lat="44.12252" lon="7.27126">
        <ele>1666.8000488281</ele>
        <time>2019-02-10T14:38:52.000Z</time>
      </trkpt>
      <trkpt lat="44.12243" lon="7.27132">
        <ele>1665.8000488281</ele>
        <time>2019-02-10T14:38:54.000Z</time>
      </trkpt>
      <trkpt lat="44.12234" lon="7.27139">
        <ele>1664.5999755859</ele>
        <time>2019-02-10T14:38:57.000Z</time>
      </trkpt>
      <trkpt lat="44.12228" lon="7.27143">
        <ele>1663.5999755859</ele>
        <time>2019-02-10T14:39:00.000Z</time>
      </trkpt>
      <trkpt lat="44.12225" lon="7.27146">
        <ele>1663.4000244141</ele>
        <time>2019-02-10T14:39:01.000Z</time>
      </trkpt>
      <trkpt lat="44.12222" lon="7.27147">
        <ele>1662.8000488281</ele>
        <time>2019-02-10T14:39:03.000Z</time>
      </trkpt>
      <trkpt lat="44.12218" lon="7.27144">
        <ele>1662.4000244141</ele>
        <time>2019-02-10T14:39:08.000Z</time>
      </trkpt>
      <trkpt lat="44.12217" lon="7.27143">
        <ele>1662.4000244141</ele>
        <time>2019-02-10T14:39:09.000Z</time>
      </trkpt>
      <trkpt lat="44.12211" lon="7.27145">
        <ele>1662</ele>
        <time>2019-02-10T14:39:13.000Z</time>
      </trkpt>
      <trkpt lat="44.12207" lon="7.27148">
        <ele>1662</ele>
        <time>2019-02-10T14:39:15.000Z</time>
      </trkpt>
      <trkpt lat="44.12201" lon="7.27146">
        <ele>1661.5999755859</ele>
        <time>2019-02-10T14:39:20.000Z</time>
      </trkpt>
      <trkpt lat="44.12196" lon="7.27145">
        <ele>1661.4000244141</ele>
        <time>2019-02-10T14:39:32.000Z</time>
      </trkpt>
      <trkpt lat="44.12198" lon="7.27146">
        <ele>1661.4000244141</ele>
        <time>2019-02-10T14:39:36.000Z</time>
      </trkpt>
      <trkpt lat="44.12198" lon="7.27147">
        <ele>1661.1999511719</ele>
        <time>2019-02-10T14:39:37.000Z</time>
      </trkpt>
      <trkpt lat="44.12203" lon="7.2715">
        <ele>1660.5999755859</ele>
        <time>2019-02-10T14:39:46.000Z</time>
      </trkpt>
      <trkpt lat="44.12199" lon="7.27155">
        <ele>1660.8000488281</ele>
        <time>2019-02-10T14:39:59.000Z</time>
      </trkpt>
      <trkpt lat="44.12199" lon="7.27158">
        <ele>1660.8000488281</ele>
        <time>2019-02-10T14:40:04.000Z</time>
      </trkpt>
      <trkpt lat="44.12198" lon="7.27164">
        <ele>1660.8000488281</ele>
        <time>2019-02-10T14:40:07.000Z</time>
      </trkpt>
      <trkpt lat="44.12198" lon="7.27164">
        <ele>1660.8000488281</ele>
        <time>2019-02-10T14:40:09.000Z</time>
      </trkpt>
      <trkpt lat="44.12198" lon="7.27163">
        <ele>1660.5999755859</ele>
        <time>2019-02-10T14:40:11.000Z</time>
      </trkpt>
      <trkpt lat="44.12205" lon="7.27143">
        <ele>1660.4000244141</ele>
        <time>2019-02-10T14:40:26.000Z</time>
      </trkpt>
      <trkpt lat="44.12205" lon="7.27141">
        <ele>1660.5999755859</ele>
        <time>2019-02-10T14:40:28.000Z</time>
      </trkpt>
      <trkpt lat="44.12204" lon="7.27141">
        <ele>1660.5999755859</ele>
        <time>2019-02-10T14:40:29.000Z</time>
      </trkpt>
      <trkpt lat="44.12204" lon="7.2714">
        <ele>1660.5999755859</ele>
        <time>2019-02-10T14:40:31.000Z</time>
      </trkpt>
      <trkpt lat="44.12205" lon="7.27139">
        <ele>1660.5999755859</ele>
        <time>2019-02-10T14:40:32.000Z</time>
      </trkpt>
      <trkpt lat="44.12203" lon="7.27138">
        <ele>1660.1999511719</ele>
        <time>2019-02-10T14:40:46.000Z</time>
      </trkpt>
      <trkpt lat="44.12204" lon="7.27138">
        <ele>1660</ele>
        <time>2019-02-10T14:40:50.000Z</time>
      </trkpt>
      <trkpt lat="44.12205" lon="7.27139">
        <ele>1660</ele>
        <time>2019-02-10T14:41:00.000Z</time>
      </trkpt>
      <trkpt lat="44.12205" lon="7.27139">
        <ele>1660</ele>
        <time>2019-02-10T14:41:02.000Z</time>
      </trkpt>
      <trkpt lat="44.12206" lon="7.27142">
        <ele>1660</ele>
        <time>2019-02-10T14:41:05.000Z</time>
      </trkpt>
      <trkpt lat="44.12206" lon="7.27145">
        <ele>1660</ele>
        <time>2019-02-10T14:41:09.000Z</time>
      </trkpt>
      <trkpt lat="44.12208" lon="7.27143">
        <ele>1660.1999511719</ele>
        <time>2019-02-10T14:41:13.000Z</time>
      </trkpt>
      <trkpt lat="44.12209" lon="7.27141">
        <ele>1660.1999511719</ele>
        <time>2019-02-10T14:41:15.000Z</time>
      </trkpt>
      <trkpt lat="44.12208" lon="7.27142">
        <ele>1660.4000244141</ele>
        <time>2019-02-10T14:41:30.000Z</time>
      </trkpt>
      <trkpt lat="44.12208" lon="7.27141">
        <ele>1660.4000244141</ele>
        <time>2019-02-10T14:41:32.000Z</time>
      </trkpt>
      <trkpt lat="44.12208" lon="7.27141">
        <ele>1660.4000244141</ele>
        <time>2019-02-10T14:41:33.000Z</time>
      </trkpt>
      <trkpt lat="44.12208" lon="7.27142">
        <ele>1660.1999511719</ele>
        <time>2019-02-10T14:41:39.000Z</time>
      </trkpt>
      <trkpt lat="44.12207" lon="7.27143">
        <ele>1660.4000244141</ele>
        <time>2019-02-10T14:41:45.000Z</time>
      </trkpt>
      <trkpt lat="44.12205" lon="7.27144">
        <ele>1660.4000244141</ele>
        <time>2019-02-10T14:41:48.000Z</time>
      </trkpt>
      <trkpt lat="44.12203" lon="7.27147">
        <ele>1660.4000244141</ele>
        <time>2019-02-10T14:41:52.000Z</time>
      </trkpt>
      <trkpt lat="44.12203" lon="7.27146">
        <ele>1660.4000244141</ele>
        <time>2019-02-10T14:41:54.000Z</time>
      </trkpt>
      <trkpt lat="44.12202" lon="7.27147">
        <ele>1660.4000244141</ele>
        <time>2019-02-10T14:41:55.000Z</time>
      </trkpt>
      <trkpt lat="44.12202" lon="7.27147">
        <ele>1660.4000244141</ele>
        <time>2019-02-10T14:41:56.000Z</time>
      </trkpt>
      <trkpt lat="44.12203" lon="7.27145">
        <ele>1660.4000244141</ele>
        <time>2019-02-10T14:42:01.000Z</time>
      </trkpt>
      <trkpt lat="44.12203" lon="7.27143">
        <ele>1660.4000244141</ele>
        <time>2019-02-10T14:42:04.000Z</time>
      </trkpt>
      <trkpt lat="44.12204" lon="7.27144">
        <ele>1660.4000244141</ele>
        <time>2019-02-10T14:42:07.000Z</time>
      </trkpt>
      <trkpt lat="44.122" lon="7.27138">
        <ele>1660.4000244141</ele>
        <time>2019-02-10T14:42:17.000Z</time>
      </trkpt>
      <trkpt lat="44.12201" lon="7.27139">
        <ele>1660.4000244141</ele>
        <time>2019-02-10T14:42:23.000Z</time>
      </trkpt>
      <trkpt lat="44.12201" lon="7.27141">
        <ele>1660.4000244141</ele>
        <time>2019-02-10T14:42:26.000Z</time>
      </trkpt>
      <trkpt lat="44.12202" lon="7.27144">
        <ele>1660.4000244141</ele>
        <time>2019-02-10T14:42:29.000Z</time>
      </trkpt>
      <trkpt lat="44.12213" lon="7.27143">
        <ele>1660.4000244141</ele>
        <time>2019-02-10T14:42:48.000Z</time>
      </trkpt>
      <trkpt lat="44.12207" lon="7.27139">
        <ele>1660.4000244141</ele>
        <time>2019-02-10T14:43:00.000Z</time>
      </trkpt>
      <trkpt lat="44.12204" lon="7.27142">
        <ele>1660.4000244141</ele>
        <time>2019-02-10T14:43:10.000Z</time>
      </trkpt>
      <trkpt lat="44.12202" lon="7.27143">
        <ele>1660.4000244141</ele>
        <time>2019-02-10T14:43:15.000Z</time>
      </trkpt>
      <trkpt lat="44.12202" lon="7.27141">
        <ele>1660.4000244141</ele>
        <time>2019-02-10T14:43:17.000Z</time>
      </trkpt>
      <trkpt lat="44.12204" lon="7.27142">
        <ele>1660.4000244141</ele>
        <time>2019-02-10T14:43:27.000Z</time>
      </trkpt>
      <trkpt lat="44.12203" lon="7.27146">
        <ele>1660.4000244141</ele>
        <time>2019-02-10T14:43:30.000Z</time>
      </trkpt>
      <trkpt lat="44.12202" lon="7.27146">
        <ele>1660.4000244141</ele>
        <time>2019-02-10T14:43:34.000Z</time>
      </trkpt>
      <trkpt lat="44.122" lon="7.27148">
        <ele>1660.4000244141</ele>
        <time>2019-02-10T14:43:42.000Z</time>
      </trkpt>
      <trkpt lat="44.122" lon="7.27148">
        <ele>1660.5999755859</ele>
        <time>2019-02-10T14:43:43.000Z</time>
      </trkpt>
      <trkpt lat="44.122" lon="7.27148">
        <ele>1661.4000244141</ele>
        <time>2019-02-10T14:43:44.000Z</time>
      </trkpt>
      <trkpt lat="44.12199" lon="7.2715">
        <ele>1661.4000244141</ele>
        <time>2019-02-10T14:43:48.000Z</time>
      </trkpt>
      <trkpt lat="44.12199" lon="7.27149">
        <ele>1661.4000244141</ele>
        <time>2019-02-10T14:43:50.000Z</time>
      </trkpt>
      <trkpt lat="44.122" lon="7.27147">
        <ele>1661.4000244141</ele>
        <time>2019-02-10T14:43:52.000Z</time>
      </trkpt>
      <trkpt lat="44.122" lon="7.27143">
        <ele>1661.4000244141</ele>
        <time>2019-02-10T14:43:55.000Z</time>
      </trkpt>
      <trkpt lat="44.122" lon="7.27143">
        <ele>1661.5999755859</ele>
        <time>2019-02-10T14:43:56.000Z</time>
      </trkpt>
      <trkpt lat="44.12201" lon="7.27142">
        <ele>1661.5999755859</ele>
        <time>2019-02-10T14:43:58.000Z</time>
      </trkpt>
      <trkpt lat="44.12201" lon="7.2714">
        <ele>1661.5999755859</ele>
        <time>2019-02-10T14:44:03.000Z</time>
      </trkpt>
      <trkpt lat="44.122" lon="7.27138">
        <ele>1661.5999755859</ele>
        <time>2019-02-10T14:44:06.000Z</time>
      </trkpt>
      <trkpt lat="44.12198" lon="7.27133">
        <ele>1661.5999755859</ele>
        <time>2019-02-10T14:44:13.000Z</time>
      </trkpt>
      <trkpt lat="44.12202" lon="7.27134">
        <ele>1661.5999755859</ele>
        <time>2019-02-10T14:44:22.000Z</time>
      </trkpt>
      <trkpt lat="44.12205" lon="7.27135">
        <ele>1661.5999755859</ele>
        <time>2019-02-10T14:44:28.000Z</time>
      </trkpt>
      <trkpt lat="44.12204" lon="7.27131">
        <ele>1661.8000488281</ele>
        <time>2019-02-10T14:44:32.000Z</time>
      </trkpt>
      <trkpt lat="44.12209" lon="7.2715">
        <ele>1661.8000488281</ele>
        <time>2019-02-10T14:44:38.000Z</time>
      </trkpt>
      <trkpt lat="44.12208" lon="7.2715">
        <ele>1661.8000488281</ele>
        <time>2019-02-10T14:44:40.000Z</time>
      </trkpt>
      <trkpt lat="44.12208" lon="7.2715">
        <ele>1661.8000488281</ele>
        <time>2019-02-10T14:44:41.000Z</time>
      </trkpt>
      <trkpt lat="44.12207" lon="7.2715">
        <ele>1662</ele>
        <time>2019-02-10T14:44:45.000Z</time>
      </trkpt>
      <trkpt lat="44.12206" lon="7.27149">
        <ele>1662</ele>
        <time>2019-02-10T14:44:48.000Z</time>
      </trkpt>
      <trkpt lat="44.12205" lon="7.27144">
        <ele>1662.1999511719</ele>
        <time>2019-02-10T14:44:56.000Z</time>
      </trkpt>
      <trkpt lat="44.12208" lon="7.27144">
        <ele>1662.4000244141</ele>
        <time>2019-02-10T14:45:02.000Z</time>
      </trkpt>
      <trkpt lat="44.1221" lon="7.27147">
        <ele>1662.5999755859</ele>
        <time>2019-02-10T14:45:15.000Z</time>
      </trkpt>
      <trkpt lat="44.1221" lon="7.27149">
        <ele>1662.8000488281</ele>
        <time>2019-02-10T14:45:17.000Z</time>
      </trkpt>
      <trkpt lat="44.1221" lon="7.27151">
        <ele>1662.8000488281</ele>
        <time>2019-02-10T14:45:19.000Z</time>
      </trkpt>
      <trkpt lat="44.12209" lon="7.27151">
        <ele>1662.8000488281</ele>
        <time>2019-02-10T14:45:22.000Z</time>
      </trkpt>
      <trkpt lat="44.12207" lon="7.27149">
        <ele>1662.8000488281</ele>
        <time>2019-02-10T14:45:28.000Z</time>
      </trkpt>
      <trkpt lat="44.12206" lon="7.27148">
        <ele>1662.5999755859</ele>
        <time>2019-02-10T14:45:30.000Z</time>
      </trkpt>
      <trkpt lat="44.12206" lon="7.27149">
        <ele>1662.5999755859</ele>
        <time>2019-02-10T14:45:32.000Z</time>
      </trkpt>
      <trkpt lat="44.12205" lon="7.27151">
        <ele>1662.5999755859</ele>
        <time>2019-02-10T14:45:35.000Z</time>
      </trkpt>
      <trkpt lat="44.12205" lon="7.2715">
        <ele>1662.5999755859</ele>
        <time>2019-02-10T14:45:37.000Z</time>
      </trkpt>
      <trkpt lat="44.12205" lon="7.2715">
        <ele>1662.4000244141</ele>
        <time>2019-02-10T14:45:42.000Z</time>
      </trkpt>
      <trkpt lat="44.12206" lon="7.2715">
        <ele>1662.4000244141</ele>
        <time>2019-02-10T14:45:43.000Z</time>
      </trkpt>
      <trkpt lat="44.12207" lon="7.2715">
        <ele>1662.4000244141</ele>
        <time>2019-02-10T14:45:44.000Z</time>
      </trkpt>
      <trkpt lat="44.12209" lon="7.2715">
        <ele>1662.5999755859</ele>
        <time>2019-02-10T14:45:47.000Z</time>
      </trkpt>
      <trkpt lat="44.12209" lon="7.27149">
        <ele>1662.5999755859</ele>
        <time>2019-02-10T14:45:48.000Z</time>
      </trkpt>
      <trkpt lat="44.12208" lon="7.27149">
        <ele>1662.8000488281</ele>
        <time>2019-02-10T14:45:49.000Z</time>
      </trkpt>
      <trkpt lat="44.12206" lon="7.27149">
        <ele>1662.8000488281</ele>
        <time>2019-02-10T14:45:56.000Z</time>
      </trkpt>
      <trkpt lat="44.12204" lon="7.27152">
        <ele>1662.5999755859</ele>
        <time>2019-02-10T14:45:59.000Z</time>
      </trkpt>
      <trkpt lat="44.12205" lon="7.27157">
        <ele>1662.8000488281</ele>
        <time>2019-02-10T14:46:08.000Z</time>
      </trkpt>
      <trkpt lat="44.12208" lon="7.27152">
        <ele>1662.4000244141</ele>
        <time>2019-02-10T14:46:15.000Z</time>
      </trkpt>
      <trkpt lat="44.12209" lon="7.27143">
        <ele>1662.4000244141</ele>
        <time>2019-02-10T14:46:18.000Z</time>
      </trkpt>
      <trkpt lat="44.122" lon="7.2715">
        <ele>1662.1999511719</ele>
        <time>2019-02-10T14:46:30.000Z</time>
      </trkpt>
      <trkpt lat="44.12201" lon="7.2715">
        <ele>1662.4000244141</ele>
        <time>2019-02-10T14:46:36.000Z</time>
      </trkpt>
      <trkpt lat="44.122" lon="7.27147">
        <ele>1662.4000244141</ele>
        <time>2019-02-10T14:46:38.000Z</time>
      </trkpt>
      <trkpt lat="44.12197" lon="7.27141">
        <ele>1662.1999511719</ele>
        <time>2019-02-10T14:46:41.000Z</time>
      </trkpt>
      <trkpt lat="44.12197" lon="7.27139">
        <ele>1662.1999511719</ele>
        <time>2019-02-10T14:46:43.000Z</time>
      </trkpt>
      <trkpt lat="44.12197" lon="7.27139">
        <ele>1662.1999511719</ele>
        <time>2019-02-10T14:46:44.000Z</time>
      </trkpt>
      <trkpt lat="44.12197" lon="7.27139">
        <ele>1662.1999511719</ele>
        <time>2019-02-10T14:46:45.000Z</time>
      </trkpt>
      <trkpt lat="44.12196" lon="7.27138">
        <ele>1662.4000244141</ele>
        <time>2019-02-10T14:46:47.000Z</time>
      </trkpt>
      <trkpt lat="44.12196" lon="7.27136">
        <ele>1662.4000244141</ele>
        <time>2019-02-10T14:46:49.000Z</time>
      </trkpt>
      <trkpt lat="44.12196" lon="7.27135">
        <ele>1662.1999511719</ele>
        <time>2019-02-10T14:46:52.000Z</time>
      </trkpt>
      <trkpt lat="44.12196" lon="7.27135">
        <ele>1662.1999511719</ele>
        <time>2019-02-10T14:46:53.000Z</time>
      </trkpt>
      <trkpt lat="44.12196" lon="7.27134">
        <ele>1662.1999511719</ele>
        <time>2019-02-10T14:46:55.000Z</time>
      </trkpt>
      <trkpt lat="44.12198" lon="7.27133">
        <ele>1662.1999511719</ele>
        <time>2019-02-10T14:46:59.000Z</time>
      </trkpt>
      <trkpt lat="44.12212" lon="7.27135">
        <ele>1661.5999755859</ele>
        <time>2019-02-10T14:47:19.000Z</time>
      </trkpt>
      <trkpt lat="44.12212" lon="7.27136">
        <ele>1661.4000244141</ele>
        <time>2019-02-10T14:47:20.000Z</time>
      </trkpt>
      <trkpt lat="44.12214" lon="7.27145">
        <ele>1661.4000244141</ele>
        <time>2019-02-10T14:47:22.000Z</time>
      </trkpt>
      <trkpt lat="44.12214" lon="7.27145">
        <ele>1661.4000244141</ele>
        <time>2019-02-10T14:47:23.000Z</time>
      </trkpt>
      <trkpt lat="44.12215" lon="7.27146">
        <ele>1661.4000244141</ele>
        <time>2019-02-10T14:47:27.000Z</time>
      </trkpt>
      <trkpt lat="44.12214" lon="7.27146">
        <ele>1661.1999511719</ele>
        <time>2019-02-10T14:47:30.000Z</time>
      </trkpt>
      <trkpt lat="44.12212" lon="7.27147">
        <ele>1661.1999511719</ele>
        <time>2019-02-10T14:47:51.000Z</time>
      </trkpt>
      <trkpt lat="44.12211" lon="7.27149">
        <ele>1661.1999511719</ele>
        <time>2019-02-10T14:47:54.000Z</time>
      </trkpt>
      <trkpt lat="44.12212" lon="7.27151">
        <ele>1661.1999511719</ele>
        <time>2019-02-10T14:47:58.000Z</time>
      </trkpt>
      <trkpt lat="44.12214" lon="7.27151">
        <ele>1661.1999511719</ele>
        <time>2019-02-10T14:48:00.000Z</time>
      </trkpt>
      <trkpt lat="44.12214" lon="7.27151">
        <ele>1661.1999511719</ele>
        <time>2019-02-10T14:48:02.000Z</time>
      </trkpt>
      <trkpt lat="44.12213" lon="7.27144">
        <ele>1661.1999511719</ele>
        <time>2019-02-10T14:48:08.000Z</time>
      </trkpt>
      <trkpt lat="44.12213" lon="7.27142">
        <ele>1661.1999511719</ele>
        <time>2019-02-10T14:48:10.000Z</time>
      </trkpt>
      <trkpt lat="44.12209" lon="7.27137">
        <ele>1661.1999511719</ele>
        <time>2019-02-10T14:48:20.000Z</time>
      </trkpt>
      <trkpt lat="44.12205" lon="7.27138">
        <ele>1661.1999511719</ele>
        <time>2019-02-10T14:48:24.000Z</time>
      </trkpt>
      <trkpt lat="44.12205" lon="7.27141">
        <ele>1661.1999511719</ele>
        <time>2019-02-10T14:48:27.000Z</time>
      </trkpt>
      <trkpt lat="44.12206" lon="7.27135">
        <ele>1661.4000244141</ele>
        <time>2019-02-10T14:48:48.000Z</time>
      </trkpt>
      <trkpt lat="44.12207" lon="7.27134">
        <ele>1661.4000244141</ele>
        <time>2019-02-10T14:48:49.000Z</time>
      </trkpt>
      <trkpt lat="44.12209" lon="7.27139">
        <ele>1661.1999511719</ele>
        <time>2019-02-10T14:48:56.000Z</time>
      </trkpt>
      <trkpt lat="44.12208" lon="7.27139">
        <ele>1661.4000244141</ele>
        <time>2019-02-10T14:48:58.000Z</time>
      </trkpt>
      <trkpt lat="44.12208" lon="7.27141">
        <ele>1661.4000244141</ele>
        <time>2019-02-10T14:49:01.000Z</time>
      </trkpt>
      <trkpt lat="44.12208" lon="7.27144">
        <ele>1661.4000244141</ele>
        <time>2019-02-10T14:49:05.000Z</time>
      </trkpt>
      <trkpt lat="44.12208" lon="7.27144">
        <ele>1661.4000244141</ele>
        <time>2019-02-10T14:49:07.000Z</time>
      </trkpt>
      <trkpt lat="44.12207" lon="7.27143">
        <ele>1661.5999755859</ele>
        <time>2019-02-10T14:49:13.000Z</time>
      </trkpt>
      <trkpt lat="44.12207" lon="7.27145">
        <ele>1661.5999755859</ele>
        <time>2019-02-10T14:49:17.000Z</time>
      </trkpt>
      <trkpt lat="44.12206" lon="7.27144">
        <ele>1661.8000488281</ele>
        <time>2019-02-10T14:49:20.000Z</time>
      </trkpt>
      <trkpt lat="44.12204" lon="7.27143">
        <ele>1662</ele>
        <time>2019-02-10T14:49:26.000Z</time>
      </trkpt>
      <trkpt lat="44.12198" lon="7.27145">
        <ele>1661.8000488281</ele>
        <time>2019-02-10T14:49:36.000Z</time>
      </trkpt>
      <trkpt lat="44.12197" lon="7.27144">
        <ele>1661.5999755859</ele>
        <time>2019-02-10T14:49:38.000Z</time>
      </trkpt>
      <trkpt lat="44.12196" lon="7.27145">
        <ele>1661.5999755859</ele>
        <time>2019-02-10T14:49:43.000Z</time>
      </trkpt>
      <trkpt lat="44.12198" lon="7.27148">
        <ele>1661.5999755859</ele>
        <time>2019-02-10T14:49:50.000Z</time>
      </trkpt>
      <trkpt lat="44.12201" lon="7.27143">
        <ele>1661.5999755859</ele>
        <time>2019-02-10T14:50:01.000Z</time>
      </trkpt>
      <trkpt lat="44.12203" lon="7.27142">
        <ele>1661.5999755859</ele>
        <time>2019-02-10T14:50:05.000Z</time>
      </trkpt>
      <trkpt lat="44.12203" lon="7.27142">
        <ele>1661.5999755859</ele>
        <time>2019-02-10T14:50:06.000Z</time>
      </trkpt>
      <trkpt lat="44.12203" lon="7.27142">
        <ele>1661.8000488281</ele>
        <time>2019-02-10T14:50:07.000Z</time>
      </trkpt>
      <trkpt lat="44.12202" lon="7.27142">
        <ele>1662</ele>
        <time>2019-02-10T14:50:08.000Z</time>
      </trkpt>
      <trkpt lat="44.12203" lon="7.27143">
        <ele>1662</ele>
        <time>2019-02-10T14:50:09.000Z</time>
      </trkpt>
      <trkpt lat="44.12203" lon="7.27144">
        <ele>1661.8000488281</ele>
        <time>2019-02-10T14:50:11.000Z</time>
      </trkpt>
      <trkpt lat="44.12203" lon="7.27145">
        <ele>1661.8000488281</ele>
        <time>2019-02-10T14:50:12.000Z</time>
      </trkpt>
      <trkpt lat="44.12204" lon="7.27146">
        <ele>1661.8000488281</ele>
        <time>2019-02-10T14:50:13.000Z</time>
      </trkpt>
      <trkpt lat="44.12204" lon="7.27146">
        <ele>1661.8000488281</ele>
        <time>2019-02-10T14:50:14.000Z</time>
      </trkpt>
      <trkpt lat="44.12205" lon="7.27146">
        <ele>1661.8000488281</ele>
        <time>2019-02-10T14:50:16.000Z</time>
      </trkpt>
      <trkpt lat="44.12204" lon="7.27146">
        <ele>1661.8000488281</ele>
        <time>2019-02-10T14:50:18.000Z</time>
      </trkpt>
      <trkpt lat="44.12206" lon="7.27146">
        <ele>1661.8000488281</ele>
        <time>2019-02-10T14:50:21.000Z</time>
      </trkpt>
      <trkpt lat="44.12205" lon="7.27145">
        <ele>1661.5999755859</ele>
        <time>2019-02-10T14:50:23.000Z</time>
      </trkpt>
      <trkpt lat="44.12202" lon="7.27145">
        <ele>1661.5999755859</ele>
        <time>2019-02-10T14:50:33.000Z</time>
      </trkpt>
      <trkpt lat="44.12204" lon="7.27153">
        <ele>1661.5999755859</ele>
        <time>2019-02-10T14:50:44.000Z</time>
      </trkpt>
      <trkpt lat="44.12203" lon="7.27168">
        <ele>1661.8000488281</ele>
        <time>2019-02-10T14:51:15.000Z</time>
      </trkpt>
      <trkpt lat="44.12201" lon="7.27167">
        <ele>1661.8000488281</ele>
        <time>2019-02-10T14:51:17.000Z</time>
      </trkpt>
      <trkpt lat="44.12201" lon="7.27165">
        <ele>1661.8000488281</ele>
        <time>2019-02-10T14:51:19.000Z</time>
      </trkpt>
      <trkpt lat="44.12202" lon="7.27163">
        <ele>1661.8000488281</ele>
        <time>2019-02-10T14:51:21.000Z</time>
      </trkpt>
      <trkpt lat="44.12202" lon="7.27162">
        <ele>1661.8000488281</ele>
        <time>2019-02-10T14:51:28.000Z</time>
      </trkpt>
      <trkpt lat="44.12202" lon="7.27161">
        <ele>1661.8000488281</ele>
        <time>2019-02-10T14:51:29.000Z</time>
      </trkpt>
      <trkpt lat="44.12202" lon="7.2716">
        <ele>1661.8000488281</ele>
        <time>2019-02-10T14:51:30.000Z</time>
      </trkpt>
      <trkpt lat="44.12203" lon="7.27159">
        <ele>1661.8000488281</ele>
        <time>2019-02-10T14:51:32.000Z</time>
      </trkpt>
      <trkpt lat="44.12203" lon="7.27159">
        <ele>1662</ele>
        <time>2019-02-10T14:51:37.000Z</time>
      </trkpt>
      <trkpt lat="44.12203" lon="7.27161">
        <ele>1662</ele>
        <time>2019-02-10T14:51:38.000Z</time>
      </trkpt>
      <trkpt lat="44.12203" lon="7.27161">
        <ele>1662</ele>
        <time>2019-02-10T14:51:39.000Z</time>
      </trkpt>
      <trkpt lat="44.12203" lon="7.27162">
        <ele>1661.8000488281</ele>
        <time>2019-02-10T14:51:40.000Z</time>
      </trkpt>
      <trkpt lat="44.12203" lon="7.27163">
        <ele>1661.8000488281</ele>
        <time>2019-02-10T14:51:41.000Z</time>
      </trkpt>
      <trkpt lat="44.12204" lon="7.27164">
        <ele>1661.8000488281</ele>
        <time>2019-02-10T14:51:43.000Z</time>
      </trkpt>
      <trkpt lat="44.12204" lon="7.27165">
        <ele>1661.8000488281</ele>
        <time>2019-02-10T14:51:44.000Z</time>
      </trkpt>
      <trkpt lat="44.12205" lon="7.27164">
        <ele>1661.8000488281</ele>
        <time>2019-02-10T14:51:45.000Z</time>
      </trkpt>
      <trkpt lat="44.12205" lon="7.27164">
        <ele>1661.8000488281</ele>
        <time>2019-02-10T14:51:46.000Z</time>
      </trkpt>
      <trkpt lat="44.12203" lon="7.27164">
        <ele>1661.8000488281</ele>
        <time>2019-02-10T14:51:48.000Z</time>
      </trkpt>
      <trkpt lat="44.12202" lon="7.27165">
        <ele>1661.8000488281</ele>
        <time>2019-02-10T14:51:49.000Z</time>
      </trkpt>
      <trkpt lat="44.12199" lon="7.27165">
        <ele>1661.8000488281</ele>
        <time>2019-02-10T14:51:53.000Z</time>
      </trkpt>
      <trkpt lat="44.12198" lon="7.27164">
        <ele>1662</ele>
        <time>2019-02-10T14:51:55.000Z</time>
      </trkpt>
      <trkpt lat="44.12198" lon="7.27164">
        <ele>1661.5999755859</ele>
        <time>2019-02-10T14:51:56.000Z</time>
      </trkpt>
      <trkpt lat="44.12198" lon="7.27163">
        <ele>1661.5999755859</ele>
        <time>2019-02-10T14:51:57.000Z</time>
      </trkpt>
      <trkpt lat="44.12202" lon="7.27157">
        <ele>1661.5999755859</ele>
        <time>2019-02-10T14:52:12.000Z</time>
      </trkpt>
      <trkpt lat="44.12202" lon="7.27159">
        <ele>1661.5999755859</ele>
        <time>2019-02-10T14:52:14.000Z</time>
      </trkpt>
      <trkpt lat="44.12203" lon="7.27157">
        <ele>1661.5999755859</ele>
        <time>2019-02-10T14:52:15.000Z</time>
      </trkpt>
      <trkpt lat="44.12203" lon="7.27158">
        <ele>1661.5999755859</ele>
        <time>2019-02-10T14:52:16.000Z</time>
      </trkpt>
      <trkpt lat="44.12199" lon="7.2716">
        <ele>1661.5999755859</ele>
        <time>2019-02-10T14:52:24.000Z</time>
      </trkpt>
      <trkpt lat="44.12198" lon="7.27158">
        <ele>1661.5999755859</ele>
        <time>2019-02-10T14:52:26.000Z</time>
      </trkpt>
      <trkpt lat="44.12198" lon="7.27157">
        <ele>1661.5999755859</ele>
        <time>2019-02-10T14:52:28.000Z</time>
      </trkpt>
      <trkpt lat="44.12196" lon="7.27159">
        <ele>1661.5999755859</ele>
        <time>2019-02-10T14:52:36.000Z</time>
      </trkpt>
      <trkpt lat="44.12203" lon="7.27152">
        <ele>1661.5999755859</ele>
        <time>2019-02-10T14:52:50.000Z</time>
      </trkpt>
      <trkpt lat="44.12199" lon="7.27158">
        <ele>1661.5999755859</ele>
        <time>2019-02-10T14:53:00.000Z</time>
      </trkpt>
      <trkpt lat="44.12197" lon="7.27155">
        <ele>1661.5999755859</ele>
        <time>2019-02-10T14:53:11.000Z</time>
      </trkpt>
      <trkpt lat="44.12197" lon="7.27148">
        <ele>1661.5999755859</ele>
        <time>2019-02-10T14:53:22.000Z</time>
      </trkpt>
      <trkpt lat="44.12203" lon="7.27145">
        <ele>1661.5999755859</ele>
        <time>2019-02-10T14:53:30.000Z</time>
      </trkpt>
      <trkpt lat="44.12202" lon="7.27151">
        <ele>1661.5999755859</ele>
        <time>2019-02-10T14:53:44.000Z</time>
      </trkpt>
      <trkpt lat="44.12205" lon="7.27148">
        <ele>1661.5999755859</ele>
        <time>2019-02-10T14:53:59.000Z</time>
      </trkpt>
      <trkpt lat="44.12208" lon="7.27146">
        <ele>1661.5999755859</ele>
        <time>2019-02-10T14:54:04.000Z</time>
      </trkpt>
      <trkpt lat="44.12206" lon="7.27147">
        <ele>1661.5999755859</ele>
        <time>2019-02-10T14:54:08.000Z</time>
      </trkpt>
      <trkpt lat="44.12205" lon="7.27149">
        <ele>1661.5999755859</ele>
        <time>2019-02-10T14:54:10.000Z</time>
      </trkpt>
      <trkpt lat="44.12204" lon="7.27149">
        <ele>1661.5999755859</ele>
        <time>2019-02-10T14:54:12.000Z</time>
      </trkpt>
      <trkpt lat="44.12203" lon="7.27145">
        <ele>1661.5999755859</ele>
        <time>2019-02-10T14:54:24.000Z</time>
      </trkpt>
      <trkpt lat="44.12203" lon="7.27152">
        <ele>1661.5999755859</ele>
        <time>2019-02-10T14:54:35.000Z</time>
      </trkpt>
      <trkpt lat="44.12202" lon="7.2715">
        <ele>1661.5999755859</ele>
        <time>2019-02-10T14:54:38.000Z</time>
      </trkpt>
      <trkpt lat="44.12203" lon="7.27144">
        <ele>1661.5999755859</ele>
        <time>2019-02-10T14:54:47.000Z</time>
      </trkpt>
      <trkpt lat="44.12205" lon="7.27141">
        <ele>1661.5999755859</ele>
        <time>2019-02-10T14:54:53.000Z</time>
      </trkpt>
      <trkpt lat="44.12207" lon="7.2714">
        <ele>1662</ele>
        <time>2019-02-10T14:54:55.000Z</time>
      </trkpt>
      <trkpt lat="44.12209" lon="7.27138">
        <ele>1662.4000244141</ele>
        <time>2019-02-10T14:54:57.000Z</time>
      </trkpt>
      <trkpt lat="44.1221" lon="7.27138">
        <ele>1662.4000244141</ele>
        <time>2019-02-10T14:54:58.000Z</time>
      </trkpt>
      <trkpt lat="44.1221" lon="7.2714">
        <ele>1662.5999755859</ele>
        <time>2019-02-10T14:55:00.000Z</time>
      </trkpt>
      <trkpt lat="44.1221" lon="7.27144">
        <ele>1662.5999755859</ele>
        <time>2019-02-10T14:55:08.000Z</time>
      </trkpt>
      <trkpt lat="44.12209" lon="7.27143">
        <ele>1662.5999755859</ele>
        <time>2019-02-10T14:55:09.000Z</time>
      </trkpt>
      <trkpt lat="44.12206" lon="7.27144">
        <ele>1662.5999755859</ele>
        <time>2019-02-10T14:55:24.000Z</time>
      </trkpt>
      <trkpt lat="44.12205" lon="7.27144">
        <ele>1662.5999755859</ele>
        <time>2019-02-10T14:55:26.000Z</time>
      </trkpt>
      <trkpt lat="44.12202" lon="7.27143">
        <ele>1662.5999755859</ele>
        <time>2019-02-10T14:55:30.000Z</time>
      </trkpt>
      <trkpt lat="44.12202" lon="7.27143">
        <ele>1662.5999755859</ele>
        <time>2019-02-10T14:55:31.000Z</time>
      </trkpt>
      <trkpt lat="44.12202" lon="7.27144">
        <ele>1662.5999755859</ele>
        <time>2019-02-10T14:55:33.000Z</time>
      </trkpt>
      <trkpt lat="44.12201" lon="7.27145">
        <ele>1662.5999755859</ele>
        <time>2019-02-10T14:55:35.000Z</time>
      </trkpt>
      <trkpt lat="44.12202" lon="7.27145">
        <ele>1662.5999755859</ele>
        <time>2019-02-10T14:55:36.000Z</time>
      </trkpt>
      <trkpt lat="44.12201" lon="7.27148">
        <ele>1662.5999755859</ele>
        <time>2019-02-10T14:55:39.000Z</time>
      </trkpt>
      <trkpt lat="44.12201" lon="7.2715">
        <ele>1662.5999755859</ele>
        <time>2019-02-10T14:55:40.000Z</time>
      </trkpt>
      <trkpt lat="44.12195" lon="7.27157">
        <ele>1662.5999755859</ele>
        <time>2019-02-10T14:55:44.000Z</time>
      </trkpt>
      <trkpt lat="44.12194" lon="7.27156">
        <ele>1662.5999755859</ele>
        <time>2019-02-10T14:55:45.000Z</time>
      </trkpt>
      <trkpt lat="44.12192" lon="7.27157">
        <ele>1662.5999755859</ele>
        <time>2019-02-10T14:55:46.000Z</time>
      </trkpt>
      <trkpt lat="44.12193" lon="7.27156">
        <ele>1662.5999755859</ele>
        <time>2019-02-10T14:55:47.000Z</time>
      </trkpt>
      <trkpt lat="44.12191" lon="7.27158">
        <ele>1662.5999755859</ele>
        <time>2019-02-10T14:55:49.000Z</time>
      </trkpt>
      <trkpt lat="44.12188" lon="7.27157">
        <ele>1662.4000244141</ele>
        <time>2019-02-10T14:55:52.000Z</time>
      </trkpt>
      <trkpt lat="44.12188" lon="7.27155">
        <ele>1662.4000244141</ele>
        <time>2019-02-10T14:55:53.000Z</time>
      </trkpt>
      <trkpt lat="44.12186" lon="7.27153">
        <ele>1662.4000244141</ele>
        <time>2019-02-10T14:55:56.000Z</time>
      </trkpt>
      <trkpt lat="44.12186" lon="7.27152">
        <ele>1662.1999511719</ele>
        <time>2019-02-10T14:55:58.000Z</time>
      </trkpt>
      <trkpt lat="44.12187" lon="7.27152">
        <ele>1662</ele>
        <time>2019-02-10T14:56:00.000Z</time>
      </trkpt>
      <trkpt lat="44.12186" lon="7.27153">
        <ele>1662</ele>
        <time>2019-02-10T14:56:01.000Z</time>
      </trkpt>
      <trkpt lat="44.12186" lon="7.27153">
        <ele>1662</ele>
        <time>2019-02-10T14:56:03.000Z</time>
      </trkpt>
      <trkpt lat="44.12187" lon="7.27152">
        <ele>1661.8000488281</ele>
        <time>2019-02-10T14:56:05.000Z</time>
      </trkpt>
      <trkpt lat="44.12188" lon="7.2715">
        <ele>1662</ele>
        <time>2019-02-10T14:56:10.000Z</time>
      </trkpt>
      <trkpt lat="44.12189" lon="7.27148">
        <ele>1662</ele>
        <time>2019-02-10T14:56:12.000Z</time>
      </trkpt>
      <trkpt lat="44.12197" lon="7.27142">
        <ele>1662</ele>
        <time>2019-02-10T14:56:24.000Z</time>
      </trkpt>
      <trkpt lat="44.12199" lon="7.27139">
        <ele>1662.1999511719</ele>
        <time>2019-02-10T14:56:27.000Z</time>
      </trkpt>
      <trkpt lat="44.12199" lon="7.2714">
        <ele>1662</ele>
        <time>2019-02-10T14:56:28.000Z</time>
      </trkpt>
      <trkpt lat="44.122" lon="7.27138">
        <ele>1662</ele>
        <time>2019-02-10T14:56:30.000Z</time>
      </trkpt>
      <trkpt lat="44.12201" lon="7.27138">
        <ele>1662</ele>
        <time>2019-02-10T14:56:31.000Z</time>
      </trkpt>
      <trkpt lat="44.12201" lon="7.27138">
        <ele>1662</ele>
        <time>2019-02-10T14:56:32.000Z</time>
      </trkpt>
      <trkpt lat="44.12201" lon="7.27139">
        <ele>1661.8000488281</ele>
        <time>2019-02-10T14:56:33.000Z</time>
      </trkpt>
      <trkpt lat="44.122" lon="7.2714">
        <ele>1661.8000488281</ele>
        <time>2019-02-10T14:56:34.000Z</time>
      </trkpt>
      <trkpt lat="44.122" lon="7.2714">
        <ele>1661.8000488281</ele>
        <time>2019-02-10T14:56:35.000Z</time>
      </trkpt>
      <trkpt lat="44.12199" lon="7.2714">
        <ele>1661.8000488281</ele>
        <time>2019-02-10T14:56:37.000Z</time>
      </trkpt>
      <trkpt lat="44.12199" lon="7.2714">
        <ele>1661.8000488281</ele>
        <time>2019-02-10T14:56:39.000Z</time>
      </trkpt>
      <trkpt lat="44.12201" lon="7.27137">
        <ele>1661.5999755859</ele>
        <time>2019-02-10T14:56:44.000Z</time>
      </trkpt>
      <trkpt lat="44.12202" lon="7.27138">
        <ele>1661.5999755859</ele>
        <time>2019-02-10T14:56:47.000Z</time>
      </trkpt>
      <trkpt lat="44.12202" lon="7.27138">
        <ele>1661.5999755859</ele>
        <time>2019-02-10T14:56:48.000Z</time>
      </trkpt>
      <trkpt lat="44.12202" lon="7.27139">
        <ele>1661.4000244141</ele>
        <time>2019-02-10T14:56:49.000Z</time>
      </trkpt>
      <trkpt lat="44.122" lon="7.2714">
        <ele>1661.5999755859</ele>
        <time>2019-02-10T14:56:51.000Z</time>
      </trkpt>
      <trkpt lat="44.12199" lon="7.27141">
        <ele>1661.5999755859</ele>
        <time>2019-02-10T14:56:56.000Z</time>
      </trkpt>
      <trkpt lat="44.12198" lon="7.27142">
        <ele>1661.5999755859</ele>
        <time>2019-02-10T14:56:58.000Z</time>
      </trkpt>
      <trkpt lat="44.12196" lon="7.2714">
        <ele>1661.4000244141</ele>
        <time>2019-02-10T14:57:01.000Z</time>
      </trkpt>
      <trkpt lat="44.12197" lon="7.27138">
        <ele>1661.4000244141</ele>
        <time>2019-02-10T14:57:03.000Z</time>
      </trkpt>
      <trkpt lat="44.12198" lon="7.27137">
        <ele>1661.4000244141</ele>
        <time>2019-02-10T14:57:04.000Z</time>
      </trkpt>
      <trkpt lat="44.12199" lon="7.27134">
        <ele>1661.4000244141</ele>
        <time>2019-02-10T14:57:06.000Z</time>
      </trkpt>
      <trkpt lat="44.12199" lon="7.27134">
        <ele>1661.4000244141</ele>
        <time>2019-02-10T14:57:07.000Z</time>
      </trkpt>
      <trkpt lat="44.12199" lon="7.27134">
        <ele>1661.4000244141</ele>
        <time>2019-02-10T14:57:09.000Z</time>
      </trkpt>
      <trkpt lat="44.12199" lon="7.27135">
        <ele>1661.4000244141</ele>
        <time>2019-02-10T14:57:11.000Z</time>
      </trkpt>
      <trkpt lat="44.122" lon="7.27137">
        <ele>1661.4000244141</ele>
        <time>2019-02-10T14:57:13.000Z</time>
      </trkpt>
      <trkpt lat="44.12201" lon="7.27138">
        <ele>1661.4000244141</ele>
        <time>2019-02-10T14:57:14.000Z</time>
      </trkpt>
      <trkpt lat="44.12218" lon="7.27132">
        <ele>1661.4000244141</ele>
        <time>2019-02-10T14:57:25.000Z</time>
      </trkpt>
      <trkpt lat="44.12227" lon="7.27127">
        <ele>1661.5999755859</ele>
        <time>2019-02-10T14:57:30.000Z</time>
      </trkpt>
      <trkpt lat="44.12231" lon="7.27124">
        <ele>1661.5999755859</ele>
        <time>2019-02-10T14:57:38.000Z</time>
      </trkpt>
      <trkpt lat="44.12234" lon="7.27124">
        <ele>1661.8000488281</ele>
        <time>2019-02-10T14:58:22.000Z</time>
      </trkpt>
      <trkpt lat="44.12223" lon="7.27129">
        <ele>1661.8000488281</ele>
        <time>2019-02-10T14:58:28.000Z</time>
      </trkpt>
      <trkpt lat="44.12221" lon="7.27129">
        <ele>1661.8000488281</ele>
        <time>2019-02-10T14:58:29.000Z</time>
      </trkpt>
      <trkpt lat="44.12219" lon="7.27131">
        <ele>1661.8000488281</ele>
        <time>2019-02-10T14:58:32.000Z</time>
      </trkpt>
      <trkpt lat="44.12219" lon="7.27131">
        <ele>1661.8000488281</ele>
        <time>2019-02-10T14:58:33.000Z</time>
      </trkpt>
      <trkpt lat="44.12218" lon="7.2713">
        <ele>1662</ele>
        <time>2019-02-10T14:58:37.000Z</time>
      </trkpt>
      <trkpt lat="44.12218" lon="7.2713">
        <ele>1662</ele>
        <time>2019-02-10T14:58:43.000Z</time>
      </trkpt>
      <trkpt lat="44.12218" lon="7.27129">
        <ele>1662.1999511719</ele>
        <time>2019-02-10T14:58:54.000Z</time>
      </trkpt>
      <trkpt lat="44.12219" lon="7.27128">
        <ele>1662.1999511719</ele>
        <time>2019-02-10T14:58:57.000Z</time>
      </trkpt>
      <trkpt lat="44.12219" lon="7.27128">
        <ele>1662.1999511719</ele>
        <time>2019-02-10T14:59:00.000Z</time>
      </trkpt>
      <trkpt lat="44.12219" lon="7.27128">
        <ele>1662.1999511719</ele>
        <time>2019-02-10T14:59:05.000Z</time>
      </trkpt>
      <trkpt lat="44.12223" lon="7.27125">
        <ele>1662.4000244141</ele>
        <time>2019-02-10T14:59:32.000Z</time>
      </trkpt>
      <trkpt lat="44.12222" lon="7.27125">
        <ele>1662.4000244141</ele>
        <time>2019-02-10T14:59:34.000Z</time>
      </trkpt>
      <trkpt lat="44.12221" lon="7.27126">
        <ele>1662.4000244141</ele>
        <time>2019-02-10T14:59:36.000Z</time>
      </trkpt>
      <trkpt lat="44.12217" lon="7.27128">
        <ele>1662.4000244141</ele>
        <time>2019-02-10T14:59:41.000Z</time>
      </trkpt>
      <trkpt lat="44.12217" lon="7.27129">
        <ele>1662.4000244141</ele>
        <time>2019-02-10T14:59:43.000Z</time>
      </trkpt>
      <trkpt lat="44.12214" lon="7.27132">
        <ele>1662.4000244141</ele>
        <time>2019-02-10T14:59:58.000Z</time>
      </trkpt>
      <trkpt lat="44.12211" lon="7.27133">
        <ele>1662.4000244141</ele>
        <time>2019-02-10T15:00:04.000Z</time>
      </trkpt>
      <trkpt lat="44.12213" lon="7.27133">
        <ele>1662.4000244141</ele>
        <time>2019-02-10T15:00:08.000Z</time>
      </trkpt>
      <trkpt lat="44.12227" lon="7.27124">
        <ele>1662.4000244141</ele>
        <time>2019-02-10T15:00:35.000Z</time>
      </trkpt>
      <trkpt lat="44.12223" lon="7.27131">
        <ele>1662.4000244141</ele>
        <time>2019-02-10T15:00:43.000Z</time>
      </trkpt>
      <trkpt lat="44.12224" lon="7.27131">
        <ele>1662.4000244141</ele>
        <time>2019-02-10T15:00:45.000Z</time>
      </trkpt>
      <trkpt lat="44.12224" lon="7.27131">
        <ele>1662.4000244141</ele>
        <time>2019-02-10T15:00:46.000Z</time>
      </trkpt>
      <trkpt lat="44.12224" lon="7.2713">
        <ele>1662.4000244141</ele>
        <time>2019-02-10T15:00:49.000Z</time>
      </trkpt>
      <trkpt lat="44.12221" lon="7.27131">
        <ele>1662.4000244141</ele>
        <time>2019-02-10T15:00:51.000Z</time>
      </trkpt>
      <trkpt lat="44.12219" lon="7.27131">
        <ele>1662.4000244141</ele>
        <time>2019-02-10T15:00:53.000Z</time>
      </trkpt>
      <trkpt lat="44.12218" lon="7.27132">
        <ele>1662.4000244141</ele>
        <time>2019-02-10T15:00:55.000Z</time>
      </trkpt>
      <trkpt lat="44.12217" lon="7.27131">
        <ele>1662.4000244141</ele>
        <time>2019-02-10T15:00:57.000Z</time>
      </trkpt>
      <trkpt lat="44.12215" lon="7.27131">
        <ele>1662.4000244141</ele>
        <time>2019-02-10T15:01:00.000Z</time>
      </trkpt>
      <trkpt lat="44.12215" lon="7.27131">
        <ele>1662.4000244141</ele>
        <time>2019-02-10T15:01:03.000Z</time>
      </trkpt>
      <trkpt lat="44.12214" lon="7.27133">
        <ele>1662.4000244141</ele>
        <time>2019-02-10T15:01:07.000Z</time>
      </trkpt>
      <trkpt lat="44.12209" lon="7.27134">
        <ele>1662.4000244141</ele>
        <time>2019-02-10T15:01:16.000Z</time>
      </trkpt>
      <trkpt lat="44.12209" lon="7.27134">
        <ele>1662.4000244141</ele>
        <time>2019-02-10T15:01:17.000Z</time>
      </trkpt>
      <trkpt lat="44.12207" lon="7.27135">
        <ele>1662.4000244141</ele>
        <time>2019-02-10T15:01:19.000Z</time>
      </trkpt>
      <trkpt lat="44.12212" lon="7.2713">
        <ele>1662.4000244141</ele>
        <time>2019-02-10T15:01:34.000Z</time>
      </trkpt>
      <trkpt lat="44.1221" lon="7.27131">
        <ele>1662.4000244141</ele>
        <time>2019-02-10T15:01:36.000Z</time>
      </trkpt>
      <trkpt lat="44.1221" lon="7.27131">
        <ele>1662.4000244141</ele>
        <time>2019-02-10T15:01:37.000Z</time>
      </trkpt>
      <trkpt lat="44.12208" lon="7.27131">
        <ele>1662.4000244141</ele>
        <time>2019-02-10T15:01:41.000Z</time>
      </trkpt>
      <trkpt lat="44.12205" lon="7.27131">
        <ele>1662.4000244141</ele>
        <time>2019-02-10T15:01:45.000Z</time>
      </trkpt>
      <trkpt lat="44.12203" lon="7.27133">
        <ele>1662.4000244141</ele>
        <time>2019-02-10T15:01:47.000Z</time>
      </trkpt>
      <trkpt lat="44.12201" lon="7.27134">
        <ele>1662.4000244141</ele>
        <time>2019-02-10T15:01:50.000Z</time>
      </trkpt>
      <trkpt lat="44.12201" lon="7.27134">
        <ele>1662.4000244141</ele>
        <time>2019-02-10T15:01:51.000Z</time>
      </trkpt>
      <trkpt lat="44.12203" lon="7.27132">
        <ele>1662.4000244141</ele>
        <time>2019-02-10T15:01:59.000Z</time>
      </trkpt>
      <trkpt lat="44.12203" lon="7.27132">
        <ele>1662.4000244141</ele>
        <time>2019-02-10T15:02:06.000Z</time>
      </trkpt>
      <trkpt lat="44.122" lon="7.27135">
        <ele>1662.4000244141</ele>
        <time>2019-02-10T15:02:10.000Z</time>
      </trkpt>
      <trkpt lat="44.12197" lon="7.27137">
        <ele>1662.4000244141</ele>
        <time>2019-02-10T15:02:14.000Z</time>
      </trkpt>
      <trkpt lat="44.12197" lon="7.27137">
        <ele>1662.4000244141</ele>
        <time>2019-02-10T15:02:15.000Z</time>
      </trkpt>
      <trkpt lat="44.12202" lon="7.27135">
        <ele>1662.8000488281</ele>
        <time>2019-02-10T15:02:30.000Z</time>
      </trkpt>
      <trkpt lat="44.12204" lon="7.27133">
        <ele>1662.8000488281</ele>
        <time>2019-02-10T15:02:32.000Z</time>
      </trkpt>
      <trkpt lat="44.12205" lon="7.27133">
        <ele>1663</ele>
        <time>2019-02-10T15:02:34.000Z</time>
      </trkpt>
      <trkpt lat="44.12205" lon="7.27135">
        <ele>1663</ele>
        <time>2019-02-10T15:02:36.000Z</time>
      </trkpt>
      <trkpt lat="44.12207" lon="7.27134">
        <ele>1663</ele>
        <time>2019-02-10T15:02:37.000Z</time>
      </trkpt>
      <trkpt lat="44.12209" lon="7.27134">
        <ele>1663</ele>
        <time>2019-02-10T15:02:38.000Z</time>
      </trkpt>
      <trkpt lat="44.12218" lon="7.2713">
        <ele>1663</ele>
        <time>2019-02-10T15:02:40.000Z</time>
      </trkpt>
      <trkpt lat="44.12225" lon="7.27128">
        <ele>1663</ele>
        <time>2019-02-10T15:02:42.000Z</time>
      </trkpt>
      <trkpt lat="44.12226" lon="7.27128">
        <ele>1663.1999511719</ele>
        <time>2019-02-10T15:02:47.000Z</time>
      </trkpt>
      <trkpt lat="44.12221" lon="7.27129">
        <ele>1663.4000244141</ele>
        <time>2019-02-10T15:02:57.000Z</time>
      </trkpt>
      <trkpt lat="44.12218" lon="7.27129">
        <ele>1663.4000244141</ele>
        <time>2019-02-10T15:02:59.000Z</time>
      </trkpt>
      <trkpt lat="44.12216" lon="7.2713">
        <ele>1663.4000244141</ele>
        <time>2019-02-10T15:03:01.000Z</time>
      </trkpt>
      <trkpt lat="44.12211" lon="7.27132">
        <ele>1663.4000244141</ele>
        <time>2019-02-10T15:03:03.000Z</time>
      </trkpt>
      <trkpt lat="44.12209" lon="7.27133">
        <ele>1663.4000244141</ele>
        <time>2019-02-10T15:03:05.000Z</time>
      </trkpt>
      <trkpt lat="44.12204" lon="7.27137">
        <ele>1663.4000244141</ele>
        <time>2019-02-10T15:03:09.000Z</time>
      </trkpt>
      <trkpt lat="44.12203" lon="7.27139">
        <ele>1663.4000244141</ele>
        <time>2019-02-10T15:03:12.000Z</time>
      </trkpt>
      <trkpt lat="44.12203" lon="7.27139">
        <ele>1663.4000244141</ele>
        <time>2019-02-10T15:03:15.000Z</time>
      </trkpt>
      <trkpt lat="44.12201" lon="7.27138">
        <ele>1663.4000244141</ele>
        <time>2019-02-10T15:03:18.000Z</time>
      </trkpt>
      <trkpt lat="44.12201" lon="7.27139">
        <ele>1663.4000244141</ele>
        <time>2019-02-10T15:03:20.000Z</time>
      </trkpt>
      <trkpt lat="44.12201" lon="7.27139">
        <ele>1663.4000244141</ele>
        <time>2019-02-10T15:03:23.000Z</time>
      </trkpt>
      <trkpt lat="44.12202" lon="7.27137">
        <ele>1663.5999755859</ele>
        <time>2019-02-10T15:03:28.000Z</time>
      </trkpt>
      <trkpt lat="44.12204" lon="7.27137">
        <ele>1661.5999755859</ele>
        <time>2019-02-10T15:03:33.000Z</time>
      </trkpt>
      <trkpt lat="44.12207" lon="7.27137">
        <ele>1661.8000488281</ele>
        <time>2019-02-10T15:03:42.000Z</time>
      </trkpt>
    </trkseg>
  </trk>
</gpx>